<?xml version='1.0' encoding='UTF-8'?><gpx version="1.1" creator="JPX - https://github.com/jenetics/jpx" xmlns="http://www.topografix.com/GPX/1/1"><trk><trkseg><trkpt lat="43.252020968858915" lon="12.235554411007886"><ele>588.0</ele><time>2026-04-11T07:05:50Z</time></trkpt><trkpt lat="43.25196559998421" lon="12.235619779303184"><ele>588.0</ele><time>2026-04-11T07:07:01Z</time></trkpt><trkpt lat="43.25188139651097" lon="12.23563802816447"><ele>588.0</ele><time>2026-04-11T07:11:42Z</time></trkpt><trkpt lat="43.25175840672118" lon="12.235593312621017"><ele>588.0</ele><time>2026-04-11T07:11:44Z</time></trkpt><trkpt lat="43.251686432580605" lon="12.235573940640984"><ele>588.0</ele><time>2026-04-11T07:11:45Z</time></trkpt><trkpt lat="43.25161580339639" lon="12.235565666656857"><ele>588.0</ele><time>2026-04-11T07:11:46Z</time></trkpt><trkpt lat="43.251546575820115" lon="12.235533668337919"><ele>588.0</ele><time>2026-04-11T07:11:47Z</time></trkpt><trkpt lat="43.2514699802235" lon="12.235549184261243"><ele>588.0</ele><time>2026-04-11T07:11:48Z</time></trkpt><trkpt lat="43.25139796221335" lon="12.235551435664753"><ele>588.0</ele><time>2026-04-11T07:11:49Z</time></trkpt><trkpt lat="43.25128933035801" lon="12.235535614762616"><ele>588.0</ele><time>2026-04-11T07:11:51Z</time></trkpt><trkpt lat="43.25118062638081" lon="12.235528485881144"><ele>588.0</ele><time>2026-04-11T07:11:53Z</time></trkpt><trkpt lat="43.251028486954176" lon="12.235608097792568"><ele>591.0</ele><time>2026-04-11T07:11:55Z</time></trkpt><trkpt lat="43.250978427022034" lon="12.235704443994008"><ele>594.0</ele><time>2026-04-11T07:11:56Z</time></trkpt><trkpt lat="43.250914799528076" lon="12.235798733277019"><ele>597.0</ele><time>2026-04-11T07:11:57Z</time></trkpt><trkpt lat="43.25088443697466" lon="12.2359139963251"><ele>600.0</ele><time>2026-04-11T07:11:58Z</time></trkpt><trkpt lat="43.25085333475737" lon="12.236045294794478"><ele>603.0</ele><time>2026-04-11T07:11:59Z</time></trkpt><trkpt lat="43.250815271317585" lon="12.236116458303455"><ele>606.0</ele><time>2026-04-11T07:12:00Z</time></trkpt><trkpt lat="43.25075449976319" lon="12.236156097965615"><ele>606.0</ele><time>2026-04-11T07:12:01Z</time></trkpt><trkpt lat="43.25067626701004" lon="12.236144144710257"><ele>606.0</ele><time>2026-04-11T07:12:02Z</time></trkpt><trkpt lat="43.250572513329516" lon="12.23617141578716"><ele>606.0</ele><time>2026-04-11T07:12:03Z</time></trkpt><trkpt lat="43.25045974730531" lon="12.23621291176594"><ele>606.0</ele><time>2026-04-11T07:12:04Z</time></trkpt><trkpt lat="43.250358548886794" lon="12.236198009804632"><ele>606.0</ele><time>2026-04-11T07:12:05Z</time></trkpt><trkpt lat="43.250270473918405" lon="12.236185218592357"><ele>607.1666666666666</ele><time>2026-04-11T07:12:06Z</time></trkpt><trkpt lat="43.25020675937347" lon="12.2361269847321"><ele>608.3333333333334</ele><time>2026-04-11T07:12:07Z</time></trkpt><trkpt lat="43.25016475075597" lon="12.236030346878536"><ele>609.5</ele><time>2026-04-11T07:12:08Z</time></trkpt><trkpt lat="43.250109688269674" lon="12.235975597053905"><ele>610.6666666666667</ele><time>2026-04-11T07:12:09Z</time></trkpt><trkpt lat="43.25002779886949" lon="12.235951052080782"><ele>611.8333333333334</ele><time>2026-04-11T07:12:10Z</time></trkpt><trkpt lat="43.24993045800229" lon="12.235936607698479"><ele>613.0</ele><time>2026-04-11T07:12:11Z</time></trkpt><trkpt lat="43.24982366513396" lon="12.235961725591253"><ele>615.4</ele><time>2026-04-11T07:12:12Z</time></trkpt><trkpt lat="43.24973855148761" lon="12.235986526175843"><ele>617.8</ele><time>2026-04-11T07:12:13Z</time></trkpt><trkpt lat="43.249662918667816" lon="12.236034104721375"><ele>620.2</ele><time>2026-04-11T07:12:14Z</time></trkpt><trkpt lat="43.249582123512205" lon="12.236070147914237"><ele>622.6</ele><time>2026-04-11T07:12:15Z</time></trkpt><trkpt lat="43.24949369751846" lon="12.236097616989664"><ele>625.0</ele><time>2026-04-11T07:12:16Z</time></trkpt><trkpt lat="43.24940445287525" lon="12.236199311431887"><ele>625.0</ele><time>2026-04-11T07:12:17Z</time></trkpt><trkpt lat="43.24934775663522" lon="12.236312658850064"><ele>625.0</ele><time>2026-04-11T07:12:18Z</time></trkpt><trkpt lat="43.24926136959169" lon="12.236350445777383"><ele>625.0</ele><time>2026-04-11T07:12:19Z</time></trkpt><trkpt lat="43.24919711805947" lon="12.236368574158343"><ele>625.0</ele><time>2026-04-11T07:12:20Z</time></trkpt><trkpt lat="43.24912248563339" lon="12.236363533902328"><ele>625.0</ele><time>2026-04-11T07:12:21Z</time></trkpt><trkpt lat="43.24906211309989" lon="12.236280408384424"><ele>625.0</ele><time>2026-04-11T07:12:22Z</time></trkpt><trkpt lat="43.24900589999297" lon="12.236190111292956"><ele>627.5</ele><time>2026-04-11T07:12:23Z</time></trkpt><trkpt lat="43.248926052363046" lon="12.236125343359818"><ele>630.0</ele><time>2026-04-11T07:12:24Z</time></trkpt><trkpt lat="43.24887374945956" lon="12.236048519218105"><ele>632.5</ele><time>2026-04-11T07:12:25Z</time></trkpt><trkpt lat="43.24881268504388" lon="12.235998399759872"><ele>635.0</ele><time>2026-04-11T07:12:26Z</time></trkpt><trkpt lat="43.24875110651196" lon="12.235943075699144"><ele>637.5</ele><time>2026-04-11T07:12:27Z</time></trkpt><trkpt lat="43.24867512909533" lon="12.235919375393243"><ele>640.0</ele><time>2026-04-11T07:12:28Z</time></trkpt><trkpt lat="43.248599150551264" lon="12.235883607591784"><ele>640.0</ele><time>2026-04-11T07:12:29Z</time></trkpt><trkpt lat="43.24853930539394" lon="12.235808667235528"><ele>640.0</ele><time>2026-04-11T07:12:30Z</time></trkpt><trkpt lat="43.24847364873165" lon="12.235728398377876"><ele>640.0</ele><time>2026-04-11T07:12:31Z</time></trkpt><trkpt lat="43.24841373320054" lon="12.235668538498127"><ele>640.0</ele><time>2026-04-11T07:12:32Z</time></trkpt><trkpt lat="43.24833912950762" lon="12.23563813247869"><ele>640.0</ele><time>2026-04-11T07:12:33Z</time></trkpt><trkpt lat="43.24826930678069" lon="12.235613688582388"><ele>640.0</ele><time>2026-04-11T07:12:34Z</time></trkpt><trkpt lat="43.24820378863457" lon="12.235562412749573"><ele>637.8333333333334</ele><time>2026-04-11T07:12:35Z</time></trkpt><trkpt lat="43.248115650586115" lon="12.235586687800817"><ele>635.6666666666667</ele><time>2026-04-11T07:12:36Z</time></trkpt><trkpt lat="43.24804412193364" lon="12.235650939636013"><ele>633.5</ele><time>2026-04-11T07:12:37Z</time></trkpt><trkpt lat="43.247964661717674" lon="12.235698684735867"><ele>631.3333333333334</ele><time>2026-04-11T07:12:38Z</time></trkpt><trkpt lat="43.24789347974369" lon="12.235770560127845"><ele>629.1666666666666</ele><time>2026-04-11T07:12:39Z</time></trkpt><trkpt lat="43.24783081368268" lon="12.235841370767645"><ele>627.0</ele><time>2026-04-11T07:12:40Z</time></trkpt><trkpt lat="43.24777344367096" lon="12.235923558373804"><ele>627.0</ele><time>2026-04-11T07:12:41Z</time></trkpt><trkpt lat="43.24770885763855" lon="12.235992551312401"><ele>627.0</ele><time>2026-04-11T07:12:42Z</time></trkpt><trkpt lat="43.24765811172951" lon="12.236095714244978"><ele>627.0</ele><time>2026-04-11T07:12:43Z</time></trkpt><trkpt lat="43.247613415375156" lon="12.236193364155902"><ele>627.0</ele><time>2026-04-11T07:12:44Z</time></trkpt><trkpt lat="43.24757999904131" lon="12.23629854687553"><ele>627.0</ele><time>2026-04-11T07:12:45Z</time></trkpt><trkpt lat="43.247556369926386" lon="12.236397038197136"><ele>627.0</ele><time>2026-04-11T07:12:46Z</time></trkpt><trkpt lat="43.24753850239206" lon="12.236550863174335"><ele>628.8000000000001</ele><time>2026-04-11T07:12:48Z</time></trkpt><trkpt lat="43.24749821658511" lon="12.23663265686968"><ele>630.6</ele><time>2026-04-11T07:12:50Z</time></trkpt><trkpt lat="43.24741125837233" lon="12.236709183375764"><ele>632.4000000000001</ele><time>2026-04-11T07:12:53Z</time></trkpt><trkpt lat="43.24734056614046" lon="12.23688749535328"><ele>634.2</ele><time>2026-04-11T07:12:55Z</time></trkpt><trkpt lat="43.24729520817703" lon="12.236993170485665"><ele>636.0</ele><time>2026-04-11T07:12:56Z</time></trkpt><trkpt lat="43.24724619903953" lon="12.23710709916373"><ele>634.6</ele><time>2026-04-11T07:12:57Z</time></trkpt><trkpt lat="43.24720260128173" lon="12.237227106951103"><ele>633.2</ele><time>2026-04-11T07:12:58Z</time></trkpt><trkpt lat="43.2471586533659" lon="12.237346500570895"><ele>631.8</ele><time>2026-04-11T07:12:59Z</time></trkpt><trkpt lat="43.24711587113273" lon="12.23746464689968"><ele>630.4</ele><time>2026-04-11T07:13:00Z</time></trkpt><trkpt lat="43.24706668666906" lon="12.237584888176482"><ele>629.0</ele><time>2026-04-11T07:13:01Z</time></trkpt><trkpt lat="43.24701558936534" lon="12.23770501419632"><ele>629.0</ele><time>2026-04-11T07:13:02Z</time></trkpt><trkpt lat="43.24695925404029" lon="12.237822325866164"><ele>629.0</ele><time>2026-04-11T07:13:03Z</time></trkpt><trkpt lat="43.24689872960336" lon="12.237942079133665"><ele>629.0</ele><time>2026-04-11T07:13:04Z</time></trkpt><trkpt lat="43.24683377549907" lon="12.23805963087591"><ele>629.0</ele><time>2026-04-11T07:13:05Z</time></trkpt><trkpt lat="43.2467594598856" lon="12.2381768761971"><ele>629.0</ele><time>2026-04-11T07:13:06Z</time></trkpt><trkpt lat="43.24668380445403" lon="12.238289734204283"><ele>629.6</ele><time>2026-04-11T07:13:07Z</time></trkpt><trkpt lat="43.24661114356534" lon="12.238399668168325"><ele>630.2</ele><time>2026-04-11T07:13:08Z</time></trkpt><trkpt lat="43.24653965043693" lon="12.238507958613798"><ele>630.8000000000001</ele><time>2026-04-11T07:13:09Z</time></trkpt><trkpt lat="43.246468726260524" lon="12.238622612003292"><ele>631.4</ele><time>2026-04-11T07:13:10Z</time></trkpt><trkpt lat="43.24640297228486" lon="12.238749666468184"><ele>632.0</ele><time>2026-04-11T07:13:11Z</time></trkpt><trkpt lat="43.246343724641754" lon="12.23889683271805"><ele>636.6</ele><time>2026-04-11T07:13:12Z</time></trkpt><trkpt lat="43.24626932611143" lon="12.239023546850095"><ele>641.2</ele><time>2026-04-11T07:13:13Z</time></trkpt><trkpt lat="43.24620908175135" lon="12.23913781148161"><ele>645.8</ele><time>2026-04-11T07:13:14Z</time></trkpt><trkpt lat="43.246139104607366" lon="12.23922952974602"><ele>650.4</ele><time>2026-04-11T07:13:15Z</time></trkpt><trkpt lat="43.246053645551676" lon="12.239292177025808"><ele>655.0</ele><time>2026-04-11T07:13:16Z</time></trkpt><trkpt lat="43.24593941821641" lon="12.239271091071055"><ele>655.0</ele><time>2026-04-11T07:13:17Z</time></trkpt><trkpt lat="43.24584774370856" lon="12.239155191242121"><ele>655.0</ele><time>2026-04-11T07:13:18Z</time></trkpt><trkpt lat="43.24575689502033" lon="12.239073730914022"><ele>655.0</ele><time>2026-04-11T07:13:19Z</time></trkpt><trkpt lat="43.24567789850178" lon="12.238978496936399"><ele>655.0</ele><time>2026-04-11T07:13:20Z</time></trkpt><trkpt lat="43.245582136490846" lon="12.238922615036019"><ele>655.0</ele><time>2026-04-11T07:13:21Z</time></trkpt><trkpt lat="43.24545877619834" lon="12.238915657019039"><ele>656.0</ele><time>2026-04-11T07:13:22Z</time></trkpt><trkpt lat="43.24532828995055" lon="12.238939719657886"><ele>657.0</ele><time>2026-04-11T07:13:23Z</time></trkpt><trkpt lat="43.245205891580355" lon="12.238970490372402"><ele>658.0</ele><time>2026-04-11T07:13:24Z</time></trkpt><trkpt lat="43.24509759008836" lon="12.238987430956126"><ele>659.0</ele><time>2026-04-11T07:13:25Z</time></trkpt><trkpt lat="43.2450042679826" lon="12.239053109591278"><ele>659.0</ele><time>2026-04-11T07:13:26Z</time></trkpt><trkpt lat="43.24491906521444" lon="12.239157072980856"><ele>659.0</ele><time>2026-04-11T07:13:27Z</time></trkpt><trkpt lat="43.24484562366682" lon="12.239303883383869"><ele>659.0</ele><time>2026-04-11T07:13:28Z</time></trkpt><trkpt lat="43.24474778399349" lon="12.23941986062106"><ele>659.0</ele><time>2026-04-11T07:13:29Z</time></trkpt><trkpt lat="43.24465891035126" lon="12.23949442130968"><ele>660.0</ele><time>2026-04-11T07:13:30Z</time></trkpt><trkpt lat="43.244570656330964" lon="12.239509235858996"><ele>661.0</ele><time>2026-04-11T07:13:31Z</time></trkpt><trkpt lat="43.24448049125781" lon="12.239483090501903"><ele>662.0</ele><time>2026-04-11T07:13:32Z</time></trkpt><trkpt lat="43.244415419742744" lon="12.2393899195028"><ele>663.0</ele><time>2026-04-11T07:13:33Z</time></trkpt><trkpt lat="43.2443351465452" lon="12.23931369873333"><ele>664.0</ele><time>2026-04-11T07:13:34Z</time></trkpt><trkpt lat="43.244253561066046" lon="12.239210014394427"><ele>664.0</ele><time>2026-04-11T07:13:35Z</time></trkpt><trkpt lat="43.24415219149668" lon="12.239159524404625"><ele>664.0</ele><time>2026-04-11T07:13:36Z</time></trkpt><trkpt lat="43.2440133323236" lon="12.239166353360478"><ele>664.0</ele><time>2026-04-11T07:13:37Z</time></trkpt><trkpt lat="43.24386223968736" lon="12.239189872491432"><ele>664.0</ele><time>2026-04-11T07:13:38Z</time></trkpt><trkpt lat="43.24371512858033" lon="12.239213551211524"><ele>665.25</ele><time>2026-04-11T07:13:39Z</time></trkpt><trkpt lat="43.24358386146215" lon="12.239236656097738"><ele>666.5</ele><time>2026-04-11T07:13:40Z</time></trkpt><trkpt lat="43.24345713268671" lon="12.23925896218946"><ele>667.75</ele><time>2026-04-11T07:13:41Z</time></trkpt><trkpt lat="43.24333468165935" lon="12.239304040519055"><ele>669.0</ele><time>2026-04-11T07:13:42Z</time></trkpt><trkpt lat="43.24320459239551" lon="12.239330741705091"><ele>671.0</ele><time>2026-04-11T07:13:43Z</time></trkpt><trkpt lat="43.24307528694105" lon="12.23935329921453"><ele>673.0</ele><time>2026-04-11T07:13:44Z</time></trkpt><trkpt lat="43.242944318621404" lon="12.23935463993257"><ele>675.0</ele><time>2026-04-11T07:13:45Z</time></trkpt><trkpt lat="43.24281213867923" lon="12.239326782426682"><ele>677.0</ele><time>2026-04-11T07:13:46Z</time></trkpt><trkpt lat="43.24267864493896" lon="12.23926760522005"><ele>677.0</ele><time>2026-04-11T07:13:47Z</time></trkpt><trkpt lat="43.24256490244945" lon="12.239199653025109"><ele>677.0</ele><time>2026-04-11T07:13:48Z</time></trkpt><trkpt lat="43.24245106430289" lon="12.239137381461656"><ele>677.0</ele><time>2026-04-11T07:13:49Z</time></trkpt><trkpt lat="43.2423297308933" lon="12.239091362371646"><ele>677.0</ele><time>2026-04-11T07:13:50Z</time></trkpt><trkpt lat="43.242205351712705" lon="12.239073784169726"><ele>677.0</ele><time>2026-04-11T07:13:51Z</time></trkpt><trkpt lat="43.242091688059155" lon="12.239084329102962"><ele>677.0</ele><time>2026-04-11T07:13:52Z</time></trkpt><trkpt lat="43.241980710835826" lon="12.239151316392297"><ele>677.0</ele><time>2026-04-11T07:13:53Z</time></trkpt><trkpt lat="43.24186928711554" lon="12.239248797564686"><ele>677.0</ele><time>2026-04-11T07:13:54Z</time></trkpt><trkpt lat="43.24175225499002" lon="12.239357865798297"><ele>677.0</ele><time>2026-04-11T07:13:55Z</time></trkpt><trkpt lat="43.24163291361263" lon="12.239463709108247"><ele>677.0</ele><time>2026-04-11T07:13:56Z</time></trkpt><trkpt lat="43.241510980748465" lon="12.239560840760724"><ele>677.0</ele><time>2026-04-11T07:13:57Z</time></trkpt><trkpt lat="43.241389602692365" lon="12.23965421282067"><ele>677.0</ele><time>2026-04-11T07:13:58Z</time></trkpt><trkpt lat="43.241265414482136" lon="12.239746794899302"><ele>677.5</ele><time>2026-04-11T07:13:59Z</time></trkpt><trkpt lat="43.24114640725585" lon="12.239840360518311"><ele>678.0</ele><time>2026-04-11T07:14:00Z</time></trkpt><trkpt lat="43.24103807211018" lon="12.239934886818327"><ele>678.5</ele><time>2026-04-11T07:14:01Z</time></trkpt><trkpt lat="43.240936713736964" lon="12.24003858861823"><ele>679.0</ele><time>2026-04-11T07:14:02Z</time></trkpt><trkpt lat="43.2408505707609" lon="12.240161742694836"><ele>679.0</ele><time>2026-04-11T07:14:03Z</time></trkpt><trkpt lat="43.24078369555933" lon="12.24031165818152"><ele>679.0</ele><time>2026-04-11T07:14:04Z</time></trkpt><trkpt lat="43.24074123789125" lon="12.240462533926708"><ele>679.0</ele><time>2026-04-11T07:14:05Z</time></trkpt><trkpt lat="43.240710457537546" lon="12.240601501109152"><ele>679.0</ele><time>2026-04-11T07:14:06Z</time></trkpt><trkpt lat="43.24068131266548" lon="12.240728058787791"><ele>679.0</ele><time>2026-04-11T07:14:07Z</time></trkpt><trkpt lat="43.240651474228514" lon="12.240845534683654"><ele>679.2</ele><time>2026-04-11T07:14:08Z</time></trkpt><trkpt lat="43.240621299469574" lon="12.240961472765516"><ele>679.4000000000001</ele><time>2026-04-11T07:14:09Z</time></trkpt><trkpt lat="43.24058752040606" lon="12.241084498189034"><ele>679.6</ele><time>2026-04-11T07:14:10Z</time></trkpt><trkpt lat="43.24054841615984" lon="12.241214564178096"><ele>679.8</ele><time>2026-04-11T07:14:11Z</time></trkpt><trkpt lat="43.24050807233934" lon="12.241346048873005"><ele>680.0</ele><time>2026-04-11T07:14:12Z</time></trkpt><trkpt lat="43.240472148459446" lon="12.241474843404703"><ele>682.1666666666666</ele><time>2026-04-11T07:14:13Z</time></trkpt><trkpt lat="43.24043811634537" lon="12.241592935544586"><ele>684.3333333333333</ele><time>2026-04-11T07:14:14Z</time></trkpt><trkpt lat="43.24041017011159" lon="12.241709042287606"><ele>686.5</ele><time>2026-04-11T07:14:15Z</time></trkpt><trkpt lat="43.240387895053345" lon="12.241826645990962"><ele>688.6666666666666</ele><time>2026-04-11T07:14:16Z</time></trkpt><trkpt lat="43.240379564000484" lon="12.241938607473083"><ele>690.8333333333334</ele><time>2026-04-11T07:14:17Z</time></trkpt><trkpt lat="43.24038673879581" lon="12.242041771663128"><ele>693.0</ele><time>2026-04-11T07:14:18Z</time></trkpt><trkpt lat="43.240396359810525" lon="12.24214030499185"><ele>693.0</ele><time>2026-04-11T07:14:19Z</time></trkpt><trkpt lat="43.240392305928175" lon="12.24223803958986"><ele>693.0</ele><time>2026-04-11T07:14:20Z</time></trkpt><trkpt lat="43.24036006221823" lon="12.242320856052771"><ele>693.0</ele><time>2026-04-11T07:14:21Z</time></trkpt><trkpt lat="43.2403019220079" lon="12.242400824103417"><ele>693.0</ele><time>2026-04-11T07:14:22Z</time></trkpt><trkpt lat="43.24021523248847" lon="12.242476686507368"><ele>693.0</ele><time>2026-04-11T07:14:23Z</time></trkpt><trkpt lat="43.240119120522635" lon="12.242555516441703"><ele>693.0</ele><time>2026-04-11T07:14:24Z</time></trkpt><trkpt lat="43.24002042585503" lon="12.242647124683653"><ele>694.0</ele><time>2026-04-11T07:14:25Z</time></trkpt><trkpt lat="43.23992415358462" lon="12.2427433372317"><ele>695.0</ele><time>2026-04-11T07:14:26Z</time></trkpt><trkpt lat="43.23982148242605" lon="12.242839327354169"><ele>696.0</ele><time>2026-04-11T07:14:27Z</time></trkpt><trkpt lat="43.239710472553355" lon="12.242941062438582"><ele>697.0</ele><time>2026-04-11T07:14:28Z</time></trkpt><trkpt lat="43.239602202587086" lon="12.243047982260201"><ele>699.75</ele><time>2026-04-11T07:14:29Z</time></trkpt><trkpt lat="43.23949992583145" lon="12.243148333684022"><ele>702.5</ele><time>2026-04-11T07:14:30Z</time></trkpt><trkpt lat="43.23940193080621" lon="12.243250540012218"><ele>705.25</ele><time>2026-04-11T07:14:31Z</time></trkpt><trkpt lat="43.239307970593245" lon="12.243360464028207"><ele>708.0</ele><time>2026-04-11T07:14:32Z</time></trkpt><trkpt lat="43.239213968737225" lon="12.243473535200907"><ele>708.0</ele><time>2026-04-11T07:14:33Z</time></trkpt><trkpt lat="43.239119857938704" lon="12.243585869094828"><ele>708.0</ele><time>2026-04-11T07:14:34Z</time></trkpt><trkpt lat="43.239028975399066" lon="12.243696107264443"><ele>708.0</ele><time>2026-04-11T07:14:35Z</time></trkpt><trkpt lat="43.238935664564885" lon="12.243804885203227"><ele>708.0</ele><time>2026-04-11T07:14:36Z</time></trkpt><trkpt lat="43.238833929783716" lon="12.243899842872153"><ele>710.0</ele><time>2026-04-11T07:14:37Z</time></trkpt><trkpt lat="43.23872057527249" lon="12.243969437992792"><ele>712.0</ele><time>2026-04-11T07:14:38Z</time></trkpt><trkpt lat="43.23860026478434" lon="12.24401239043821"><ele>714.0</ele><time>2026-04-11T07:14:39Z</time></trkpt><trkpt lat="43.238476666831325" lon="12.244041977511026"><ele>716.0</ele><time>2026-04-11T07:14:40Z</time></trkpt><trkpt lat="43.238350151306285" lon="12.244074444020242"><ele>716.0</ele><time>2026-04-11T07:14:41Z</time></trkpt><trkpt lat="43.23822063580014" lon="12.244124240857467"><ele>716.0</ele><time>2026-04-11T07:14:42Z</time></trkpt><trkpt lat="43.23808809537601" lon="12.244208326156897"><ele>716.0</ele><time>2026-04-11T07:14:43Z</time></trkpt><trkpt lat="43.237964074044456" lon="12.244303156830645"><ele>716.0</ele><time>2026-04-11T07:14:44Z</time></trkpt><trkpt lat="43.23785086919399" lon="12.244402798270267"><ele>715.75</ele><time>2026-04-11T07:14:45Z</time></trkpt><trkpt lat="43.23773541029826" lon="12.244498728364018"><ele>715.5</ele><time>2026-04-11T07:14:46Z</time></trkpt><trkpt lat="43.237621354069844" lon="12.244585277630648"><ele>715.25</ele><time>2026-04-11T07:14:47Z</time></trkpt><trkpt lat="43.23750803441969" lon="12.244671662924839"><ele>715.0</ele><time>2026-04-11T07:14:48Z</time></trkpt><trkpt lat="43.237394955655354" lon="12.244759639372935"><ele>717.75</ele><time>2026-04-11T07:14:49Z</time></trkpt><trkpt lat="43.23728043272375" lon="12.244842545911755"><ele>720.5</ele><time>2026-04-11T07:14:50Z</time></trkpt><trkpt lat="43.23715966749012" lon="12.24492492445449"><ele>723.25</ele><time>2026-04-11T07:14:51Z</time></trkpt><trkpt lat="43.237037288952294" lon="12.245028062710132"><ele>726.0</ele><time>2026-04-11T07:14:52Z</time></trkpt><trkpt lat="43.236908659182475" lon="12.24514326085697"><ele>726.0</ele><time>2026-04-11T07:14:53Z</time></trkpt><trkpt lat="43.23678531234492" lon="12.245264108981155"><ele>726.0</ele><time>2026-04-11T07:14:54Z</time></trkpt><trkpt lat="43.23666979566537" lon="12.245391172544373"><ele>726.0</ele><time>2026-04-11T07:14:55Z</time></trkpt><trkpt lat="43.23654892954299" lon="12.24552985644439"><ele>725.6666666666666</ele><time>2026-04-11T07:14:56Z</time></trkpt><trkpt lat="43.23643669134378" lon="12.245684613372864"><ele>725.3333333333333</ele><time>2026-04-11T07:14:57Z</time></trkpt><trkpt lat="43.23631352521597" lon="12.245832058108018"><ele>725.0</ele><time>2026-04-11T07:14:58Z</time></trkpt><trkpt lat="43.236198693472865" lon="12.245979257871198"><ele>725.0</ele><time>2026-04-11T07:14:59Z</time></trkpt><trkpt lat="43.236093126697774" lon="12.246119983159781"><ele>725.0</ele><time>2026-04-11T07:15:00Z</time></trkpt><trkpt lat="43.23599276859561" lon="12.24625887993066"><ele>725.0</ele><time>2026-04-11T07:15:01Z</time></trkpt><trkpt lat="43.23588117318603" lon="12.246386490990592"><ele>725.0</ele><time>2026-04-11T07:15:02Z</time></trkpt><trkpt lat="43.23575770985142" lon="12.24646654661835"><ele>726.75</ele><time>2026-04-11T07:15:03Z</time></trkpt><trkpt lat="43.235621085407274" lon="12.246477234436972"><ele>728.5</ele><time>2026-04-11T07:15:04Z</time></trkpt><trkpt lat="43.23550284411347" lon="12.24639419339494"><ele>730.25</ele><time>2026-04-11T07:15:05Z</time></trkpt><trkpt lat="43.23536946952873" lon="12.246329848174168"><ele>732.0</ele><time>2026-04-11T07:15:06Z</time></trkpt><trkpt lat="43.23524504659356" lon="12.246242048499463"><ele>732.0</ele><time>2026-04-11T07:15:07Z</time></trkpt><trkpt lat="43.235120767283775" lon="12.24619247904077"><ele>732.0</ele><time>2026-04-11T07:15:08Z</time></trkpt><trkpt lat="43.23498364727704" lon="12.246196976233138"><ele>732.0</ele><time>2026-04-11T07:15:09Z</time></trkpt><trkpt lat="43.234840740147476" lon="12.246248075391868"><ele>732.0</ele><time>2026-04-11T07:15:10Z</time></trkpt><trkpt lat="43.234700258713524" lon="12.246322789544621"><ele>731.0</ele><time>2026-04-11T07:15:11Z</time></trkpt><trkpt lat="43.23456576218088" lon="12.246407944638742"><ele>730.0</ele><time>2026-04-11T07:15:12Z</time></trkpt><trkpt lat="43.2344313440815" lon="12.246494440235447"><ele>729.0</ele><time>2026-04-11T07:15:13Z</time></trkpt><trkpt lat="43.23429037773395" lon="12.246580401462865"><ele>735.3333333333334</ele><time>2026-04-11T07:15:14Z</time></trkpt><trkpt lat="43.23414836061133" lon="12.246667576461382"><ele>741.6666666666667</ele><time>2026-04-11T07:15:15Z</time></trkpt><trkpt lat="43.23400397247888" lon="12.246744544569701"><ele>748.0</ele><time>2026-04-11T07:15:16Z</time></trkpt><trkpt lat="43.23385832004393" lon="12.246793403170232"><ele>750.3333333333334</ele><time>2026-04-11T07:15:17Z</time></trkpt><trkpt lat="43.233697163942416" lon="12.246771138798074"><ele>752.6666666666666</ele><time>2026-04-11T07:15:18Z</time></trkpt><trkpt lat="43.23352213824778" lon="12.24677110751926"><ele>755.0</ele><time>2026-04-11T07:15:19Z</time></trkpt><trkpt lat="43.233360877409226" lon="12.246748866966108"><ele>755.0</ele><time>2026-04-11T07:15:20Z</time></trkpt><trkpt lat="43.23320641428057" lon="12.246742926513082"><ele>755.0</ele><time>2026-04-11T07:15:21Z</time></trkpt><trkpt lat="43.23306168359781" lon="12.246749233695594"><ele>755.0</ele><time>2026-04-11T07:15:22Z</time></trkpt><trkpt lat="43.232925070629875" lon="12.246763103004124"><ele>755.0</ele><time>2026-04-11T07:15:23Z</time></trkpt><trkpt lat="43.23279687552691" lon="12.246794096594586"><ele>755.0</ele><time>2026-04-11T07:15:24Z</time></trkpt><trkpt lat="43.23268786493998" lon="12.24686464424477"><ele>755.0</ele><time>2026-04-11T07:15:25Z</time></trkpt><trkpt lat="43.23259889608398" lon="12.246989099128422"><ele>755.0</ele><time>2026-04-11T07:15:26Z</time></trkpt><trkpt lat="43.23253793677287" lon="12.24715626696836"><ele>755.0</ele><time>2026-04-11T07:15:27Z</time></trkpt><trkpt lat="43.232497092820054" lon="12.247346146800595"><ele>754.75</ele><time>2026-04-11T07:15:28Z</time></trkpt><trkpt lat="43.23245370983875" lon="12.247532032885978"><ele>754.5</ele><time>2026-04-11T07:15:29Z</time></trkpt><trkpt lat="43.23238208188952" lon="12.24769648321059"><ele>754.25</ele><time>2026-04-11T07:15:30Z</time></trkpt><trkpt lat="43.23228669723242" lon="12.247836343944472"><ele>754.0</ele><time>2026-04-11T07:15:31Z</time></trkpt><trkpt lat="43.23215890533135" lon="12.247950689190404"><ele>754.0</ele><time>2026-04-11T07:15:32Z</time></trkpt><trkpt lat="43.23201148975885" lon="12.248042420755317"><ele>754.0</ele><time>2026-04-11T07:15:33Z</time></trkpt><trkpt lat="43.231856990192995" lon="12.248131160737655"><ele>754.0</ele><time>2026-04-11T07:15:34Z</time></trkpt><trkpt lat="43.23169358067643" lon="12.248215596479652"><ele>756.3333333333334</ele><time>2026-04-11T07:15:35Z</time></trkpt><trkpt lat="43.23153039094799" lon="12.248302351037221"><ele>758.6666666666666</ele><time>2026-04-11T07:15:36Z</time></trkpt><trkpt lat="43.23138071374116" lon="12.248390762197618"><ele>761.0</ele><time>2026-04-11T07:15:37Z</time></trkpt><trkpt lat="43.23122974527422" lon="12.248480658085773"><ele>764.75</ele><time>2026-04-11T07:15:38Z</time></trkpt><trkpt lat="43.231086725256205" lon="12.248565148680806"><ele>768.5</ele><time>2026-04-11T07:15:39Z</time></trkpt><trkpt lat="43.23094972200343" lon="12.248639652681126"><ele>772.25</ele><time>2026-04-11T07:15:40Z</time></trkpt><trkpt lat="43.23081492464549" lon="12.24870427600257"><ele>776.0</ele><time>2026-04-11T07:15:41Z</time></trkpt><trkpt lat="43.230670429470656" lon="12.248766636863115"><ele>780.3333333333334</ele><time>2026-04-11T07:15:42Z</time></trkpt><trkpt lat="43.230518473084835" lon="12.24882357384675"><ele>784.6666666666667</ele><time>2026-04-11T07:15:43Z</time></trkpt><trkpt lat="43.230363496802454" lon="12.248882055008085"><ele>789.0</ele><time>2026-04-11T07:15:44Z</time></trkpt><trkpt lat="43.230212641848496" lon="12.248956821752888"><ele>787.0</ele><time>2026-04-11T07:15:45Z</time></trkpt><trkpt lat="43.230077690311866" lon="12.24904523186371"><ele>785.0</ele><time>2026-04-11T07:15:46Z</time></trkpt><trkpt lat="43.229951116158254" lon="12.24913553802607"><ele>783.0</ele><time>2026-04-11T07:15:47Z</time></trkpt><trkpt lat="43.229822988862175" lon="12.249207765293068"><ele>781.0</ele><time>2026-04-11T07:15:48Z</time></trkpt><trkpt lat="43.22969459173006" lon="12.2492477200295"><ele>781.0</ele><time>2026-04-11T07:15:49Z</time></trkpt><trkpt lat="43.22955458041155" lon="12.249260588252744"><ele>781.0</ele><time>2026-04-11T07:15:50Z</time></trkpt><trkpt lat="43.229405728355715" lon="12.249262455322786"><ele>781.0</ele><time>2026-04-11T07:15:51Z</time></trkpt><trkpt lat="43.22925764441824" lon="12.249281241840974"><ele>781.0</ele><time>2026-04-11T07:15:52Z</time></trkpt><trkpt lat="43.22911242069512" lon="12.24934061028555"><ele>778.6666666666666</ele><time>2026-04-11T07:15:53Z</time></trkpt><trkpt lat="43.228968928208815" lon="12.249439440858552"><ele>776.3333333333333</ele><time>2026-04-11T07:15:54Z</time></trkpt><trkpt lat="43.228840208020245" lon="12.249558661988477"><ele>774.0</ele><time>2026-04-11T07:15:55Z</time></trkpt><trkpt lat="43.228725257600054" lon="12.24968727481106"><ele>774.75</ele><time>2026-04-11T07:15:56Z</time></trkpt><trkpt lat="43.22862135813249" lon="12.249820409621481"><ele>775.5</ele><time>2026-04-11T07:15:57Z</time></trkpt><trkpt lat="43.22851974661805" lon="12.249948556030963"><ele>776.25</ele><time>2026-04-11T07:15:58Z</time></trkpt><trkpt lat="43.228413445644364" lon="12.250061974731668"><ele>777.0</ele><time>2026-04-11T07:15:59Z</time></trkpt><trkpt lat="43.228300388643255" lon="12.250158822635903"><ele>777.0</ele><time>2026-04-11T07:16:00Z</time></trkpt><trkpt lat="43.228181248800716" lon="12.250236981454128"><ele>777.0</ele><time>2026-04-11T07:16:01Z</time></trkpt><trkpt lat="43.22805169587605" lon="12.25027891915325"><ele>777.0</ele><time>2026-04-11T07:16:02Z</time></trkpt><trkpt lat="43.22791154643638" lon="12.250283613493567"><ele>777.0</ele><time>2026-04-11T07:16:03Z</time></trkpt><trkpt lat="43.22776365544633" lon="12.25027984463812"><ele>776.0</ele><time>2026-04-11T07:16:04Z</time></trkpt><trkpt lat="43.227602425629435" lon="12.250260910738898"><ele>775.0</ele><time>2026-04-11T07:16:05Z</time></trkpt><trkpt lat="43.22743209570699" lon="12.250240396608453"><ele>774.0</ele><time>2026-04-11T07:16:06Z</time></trkpt><trkpt lat="43.227251837112334" lon="12.250225754011815"><ele>770.6666666666666</ele><time>2026-04-11T07:16:07Z</time></trkpt><trkpt lat="43.227070466981566" lon="12.250210224238945"><ele>767.3333333333333</ele><time>2026-04-11T07:16:08Z</time></trkpt><trkpt lat="43.226893148075355" lon="12.250192656590828"><ele>764.0</ele><time>2026-04-11T07:16:09Z</time></trkpt><trkpt lat="43.226717710528376" lon="12.25017529449494"><ele>764.0</ele><time>2026-04-11T07:16:10Z</time></trkpt><trkpt lat="43.22654274978504" lon="12.250158643608838"><ele>764.0</ele><time>2026-04-11T07:16:11Z</time></trkpt><trkpt lat="43.22636967247264" lon="12.250146198128592"><ele>764.0</ele><time>2026-04-11T07:16:12Z</time></trkpt><trkpt lat="43.22620064600178" lon="12.250138854626913"><ele>761.6666666666666</ele><time>2026-04-11T07:16:13Z</time></trkpt><trkpt lat="43.22603202165583" lon="12.250148421225438"><ele>759.3333333333334</ele><time>2026-04-11T07:16:14Z</time></trkpt><trkpt lat="43.2258631764122" lon="12.250183032924582"><ele>757.0</ele><time>2026-04-11T07:16:15Z</time></trkpt><trkpt lat="43.22569724467767" lon="12.250234800032386"><ele>756.6666666666667</ele><time>2026-04-11T07:16:16Z</time></trkpt><trkpt lat="43.22552931726825" lon="12.250296493667541"><ele>756.3333333333334</ele><time>2026-04-11T07:16:17Z</time></trkpt><trkpt lat="43.225367058440604" lon="12.250365420727384"><ele>756.0</ele><time>2026-04-11T07:16:18Z</time></trkpt><trkpt lat="43.22520390184669" lon="12.250448022918292"><ele>756.0</ele><time>2026-04-11T07:16:19Z</time></trkpt><trkpt lat="43.22503917024466" lon="12.25053887885895"><ele>756.0</ele><time>2026-04-11T07:16:20Z</time></trkpt><trkpt lat="43.22488001331055" lon="12.25063256961027"><ele>756.0</ele><time>2026-04-11T07:16:21Z</time></trkpt><trkpt lat="43.22472972967843" lon="12.250734758585905"><ele>759.0</ele><time>2026-04-11T07:16:22Z</time></trkpt><trkpt lat="43.22458516056358" lon="12.250834673832689"><ele>762.0</ele><time>2026-04-11T07:16:23Z</time></trkpt><trkpt lat="43.22444348900569" lon="12.250933065599067"><ele>765.0</ele><time>2026-04-11T07:16:24Z</time></trkpt><trkpt lat="43.22430266883423" lon="12.251024669135687"><ele>765.0</ele><time>2026-04-11T07:16:25Z</time></trkpt><trkpt lat="43.22415750398241" lon="12.251115491516758"><ele>765.0</ele><time>2026-04-11T07:16:26Z</time></trkpt><trkpt lat="43.2240068255938" lon="12.251197599042738"><ele>765.0</ele><time>2026-04-11T07:16:27Z</time></trkpt><trkpt lat="43.22384369902248" lon="12.251251678688382"><ele>764.3333333333334</ele><time>2026-04-11T07:16:28Z</time></trkpt><trkpt lat="43.223683463109985" lon="12.251286270029452"><ele>763.6666666666667</ele><time>2026-04-11T07:16:29Z</time></trkpt><trkpt lat="43.22352585686078" lon="12.251318331966903"><ele>763.0</ele><time>2026-04-11T07:16:30Z</time></trkpt><trkpt lat="43.22336059256248" lon="12.251312169574362"><ele>763.0</ele><time>2026-04-11T07:16:31Z</time></trkpt><trkpt lat="43.223187485350934" lon="12.251294607511422"><ele>763.0</ele><time>2026-04-11T07:16:32Z</time></trkpt><trkpt lat="43.223017171367076" lon="12.251250902258981"><ele>763.0</ele><time>2026-04-11T07:16:33Z</time></trkpt><trkpt lat="43.22284798884654" lon="12.251198624265772"><ele>758.6666666666667</ele><time>2026-04-11T07:16:34Z</time></trkpt><trkpt lat="43.22267924495187" lon="12.251151343230088"><ele>754.3333333333334</ele><time>2026-04-11T07:16:35Z</time></trkpt><trkpt lat="43.222508995023176" lon="12.251120793443727"><ele>750.0</ele><time>2026-04-11T07:16:36Z</time></trkpt><trkpt lat="43.22233707153709" lon="12.25111529674696"><ele>747.6666666666666</ele><time>2026-04-11T07:16:37Z</time></trkpt><trkpt lat="43.22218095249211" lon="12.251112633237279"><ele>745.3333333333333</ele><time>2026-04-11T07:16:38Z</time></trkpt><trkpt lat="43.22201085831558" lon="12.25114215827937"><ele>743.0</ele><time>2026-04-11T07:16:39Z</time></trkpt><trkpt lat="43.221857623505045" lon="12.251144546962546"><ele>743.0</ele><time>2026-04-11T07:16:40Z</time></trkpt><trkpt lat="43.22172664969219" lon="12.251152811564346"><ele>743.0</ele><time>2026-04-11T07:16:41Z</time></trkpt><trkpt lat="43.221599089680836" lon="12.251163431395337"><ele>743.0</ele><time>2026-04-11T07:16:42Z</time></trkpt><trkpt lat="43.22147593194265" lon="12.251167758712564"><ele>743.0</ele><time>2026-04-11T07:16:43Z</time></trkpt><trkpt lat="43.22136187397055" lon="12.251173741148952"><ele>741.0</ele><time>2026-04-11T07:16:44Z</time></trkpt><trkpt lat="43.22124469965648" lon="12.251174120202094"><ele>739.0</ele><time>2026-04-11T07:16:45Z</time></trkpt><trkpt lat="43.22112853275417" lon="12.251169325206352"><ele>737.0</ele><time>2026-04-11T07:16:46Z</time></trkpt><trkpt lat="43.221007015466746" lon="12.251175085948725"><ele>735.0</ele><time>2026-04-11T07:16:47Z</time></trkpt><trkpt lat="43.220876801261845" lon="12.251163110892282"><ele>735.0</ele><time>2026-04-11T07:16:48Z</time></trkpt><trkpt lat="43.22075580075172" lon="12.251149586911847"><ele>735.0</ele><time>2026-04-11T07:16:49Z</time></trkpt><trkpt lat="43.22063079349816" lon="12.251145987827288"><ele>735.0</ele><time>2026-04-11T07:16:50Z</time></trkpt><trkpt lat="43.220506863568694" lon="12.25110388390526"><ele>735.0</ele><time>2026-04-11T07:16:51Z</time></trkpt><trkpt lat="43.22038288528475" lon="12.251085988271072"><ele>731.75</ele><time>2026-04-11T07:16:52Z</time></trkpt><trkpt lat="43.22026107093138" lon="12.251059675012463"><ele>728.5</ele><time>2026-04-11T07:16:53Z</time></trkpt><trkpt lat="43.22013579909076" lon="12.251039784897412"><ele>725.25</ele><time>2026-04-11T07:16:54Z</time></trkpt><trkpt lat="43.22001111666096" lon="12.25101898699723"><ele>722.0</ele><time>2026-04-11T07:16:55Z</time></trkpt><trkpt lat="43.21988591694973" lon="12.251000795082673"><ele>723.0</ele><time>2026-04-11T07:16:56Z</time></trkpt><trkpt lat="43.21976121419958" lon="12.250972707652526"><ele>724.0</ele><time>2026-04-11T07:16:57Z</time></trkpt><trkpt lat="43.21964755492771" lon="12.250934558859976"><ele>725.0</ele><time>2026-04-11T07:16:58Z</time></trkpt><trkpt lat="43.2195408812403" lon="12.250888434690653"><ele>726.0</ele><time>2026-04-11T07:16:59Z</time></trkpt><trkpt lat="43.219437000102204" lon="12.250826327178197"><ele>726.0</ele><time>2026-04-11T07:17:00Z</time></trkpt><trkpt lat="43.2193412120782" lon="12.250749593801327"><ele>726.0</ele><time>2026-04-11T07:17:01Z</time></trkpt><trkpt lat="43.219254955120334" lon="12.250657267922364"><ele>726.0</ele><time>2026-04-11T07:17:02Z</time></trkpt><trkpt lat="43.219169245564224" lon="12.250557348853281"><ele>726.0</ele><time>2026-04-11T07:17:03Z</time></trkpt><trkpt lat="43.21908369244746" lon="12.25046060971092"><ele>726.0</ele><time>2026-04-11T07:17:04Z</time></trkpt><trkpt lat="43.21899831179378" lon="12.250369618155066"><ele>722.1999999999999</ele><time>2026-04-11T07:17:05Z</time></trkpt><trkpt lat="43.21890305156673" lon="12.2503017720887"><ele>718.4</ele><time>2026-04-11T07:17:06Z</time></trkpt><trkpt lat="43.21879693821068" lon="12.250262103003365"><ele>714.6</ele><time>2026-04-11T07:17:07Z</time></trkpt><trkpt lat="43.2186870087109" lon="12.250244924303704"><ele>710.8</ele><time>2026-04-11T07:17:08Z</time></trkpt><trkpt lat="43.218572533970985" lon="12.250238767873187"><ele>707.0</ele><time>2026-04-11T07:17:09Z</time></trkpt><trkpt lat="43.218453920341105" lon="12.250197230944435"><ele>707.0</ele><time>2026-04-11T07:17:10Z</time></trkpt><trkpt lat="43.21834073875513" lon="12.250156813258696"><ele>707.0</ele><time>2026-04-11T07:17:11Z</time></trkpt><trkpt lat="43.21823510048606" lon="12.250102448115689"><ele>707.0</ele><time>2026-04-11T07:17:12Z</time></trkpt><trkpt lat="43.21813181387674" lon="12.250044631498236"><ele>707.0</ele><time>2026-04-11T07:17:13Z</time></trkpt><trkpt lat="43.21802540866443" lon="12.249989636269113"><ele>705.75</ele><time>2026-04-11T07:17:14Z</time></trkpt><trkpt lat="43.217920909275755" lon="12.249945369546602"><ele>704.5</ele><time>2026-04-11T07:17:15Z</time></trkpt><trkpt lat="43.21781950504622" lon="12.24988346758744"><ele>703.25</ele><time>2026-04-11T07:17:16Z</time></trkpt><trkpt lat="43.21771447032506" lon="12.249832268021507"><ele>702.0</ele><time>2026-04-11T07:17:17Z</time></trkpt><trkpt lat="43.21761193532246" lon="12.249750555355014"><ele>702.0</ele><time>2026-04-11T07:17:18Z</time></trkpt><trkpt lat="43.217492441383804" lon="12.249688256708572"><ele>702.0</ele><time>2026-04-11T07:17:19Z</time></trkpt><trkpt lat="43.217369255532745" lon="12.249638898599443"><ele>702.0</ele><time>2026-04-11T07:17:20Z</time></trkpt><trkpt lat="43.217240936437314" lon="12.24960720254404"><ele>702.0</ele><time>2026-04-11T07:17:21Z</time></trkpt><trkpt lat="43.2170975324349" lon="12.249587491483341"><ele>698.0</ele><time>2026-04-11T07:17:22Z</time></trkpt><trkpt lat="43.216948333610816" lon="12.249587563097787"><ele>694.0</ele><time>2026-04-11T07:17:23Z</time></trkpt><trkpt lat="43.21680659298407" lon="12.249589408538284"><ele>690.0</ele><time>2026-04-11T07:17:24Z</time></trkpt><trkpt lat="43.21666333921682" lon="12.249574124666168"><ele>686.0</ele><time>2026-04-11T07:17:25Z</time></trkpt><trkpt lat="43.21653054847494" lon="12.249555912384425"><ele>686.0</ele><time>2026-04-11T07:17:26Z</time></trkpt><trkpt lat="43.21641076005234" lon="12.249543546979433"><ele>686.0</ele><time>2026-04-11T07:17:27Z</time></trkpt><trkpt lat="43.216305355989824" lon="12.249547018607512"><ele>686.0</ele><time>2026-04-11T07:17:28Z</time></trkpt><trkpt lat="43.21621155991778" lon="12.249593706570474"><ele>686.0</ele><time>2026-04-11T07:17:29Z</time></trkpt><trkpt lat="43.2161397341592" lon="12.249699072811229"><ele>686.0</ele><time>2026-04-11T07:17:30Z</time></trkpt><trkpt lat="43.216089579536565" lon="12.249852559781978"><ele>686.0</ele><time>2026-04-11T07:17:31Z</time></trkpt><trkpt lat="43.216051620218146" lon="12.250034059223662"><ele>686.0</ele><time>2026-04-11T07:17:32Z</time></trkpt><trkpt lat="43.215986571429" lon="12.250196810365484"><ele>686.0</ele><time>2026-04-11T07:17:33Z</time></trkpt><trkpt lat="43.21591030641736" lon="12.250347636051735"><ele>686.0</ele><time>2026-04-11T07:17:34Z</time></trkpt><trkpt lat="43.21582020969442" lon="12.250488065269584"><ele>686.0</ele><time>2026-04-11T07:17:35Z</time></trkpt><trkpt lat="43.21571253084303" lon="12.250596787383143"><ele>686.0</ele><time>2026-04-11T07:17:36Z</time></trkpt><trkpt lat="43.21559676672672" lon="12.25067608474207"><ele>686.0</ele><time>2026-04-11T07:17:37Z</time></trkpt><trkpt lat="43.215476451298656" lon="12.250691388942627"><ele>686.0</ele><time>2026-04-11T07:17:38Z</time></trkpt><trkpt lat="43.21536926050676" lon="12.250664309864838"><ele>684.5</ele><time>2026-04-11T07:17:39Z</time></trkpt><trkpt lat="43.21527049258379" lon="12.250612662292243"><ele>683.0</ele><time>2026-04-11T07:17:40Z</time></trkpt><trkpt lat="43.215216478915245" lon="12.250466309951907"><ele>681.5</ele><time>2026-04-11T07:17:41Z</time></trkpt><trkpt lat="43.21512929783944" lon="12.250328824122404"><ele>680.0</ele><time>2026-04-11T07:17:42Z</time></trkpt><trkpt lat="43.21505318382435" lon="12.250163144830674"><ele>680.0</ele><time>2026-04-11T07:17:43Z</time></trkpt><trkpt lat="43.21497425520964" lon="12.25001769479998"><ele>680.0</ele><time>2026-04-11T07:17:44Z</time></trkpt><trkpt lat="43.214889743310025" lon="12.249902335834344"><ele>680.0</ele><time>2026-04-11T07:17:45Z</time></trkpt><trkpt lat="43.21478841674486" lon="12.249826999207356"><ele>680.0</ele><time>2026-04-11T07:17:46Z</time></trkpt><trkpt lat="43.21466369799135" lon="12.249776138927011"><ele>677.0</ele><time>2026-04-11T07:17:47Z</time></trkpt><trkpt lat="43.21452795865349" lon="12.249736318047141"><ele>674.0</ele><time>2026-04-11T07:17:48Z</time></trkpt><trkpt lat="43.21439437219127" lon="12.24968863246501"><ele>671.0</ele><time>2026-04-11T07:17:49Z</time></trkpt><trkpt lat="43.21426618187614" lon="12.24960936193298"><ele>668.0</ele><time>2026-04-11T07:17:50Z</time></trkpt><trkpt lat="43.21413107773019" lon="12.249569455623826"><ele>668.0</ele><time>2026-04-11T07:17:51Z</time></trkpt><trkpt lat="43.21400391178737" lon="12.249513085968333"><ele>668.0</ele><time>2026-04-11T07:17:52Z</time></trkpt><trkpt lat="43.21388663699405" lon="12.249449576343444"><ele>668.0</ele><time>2026-04-11T07:17:53Z</time></trkpt><trkpt lat="43.2137799545061" lon="12.249401608960207"><ele>668.0</ele><time>2026-04-11T07:17:54Z</time></trkpt><trkpt lat="43.21368932803562" lon="12.249354286584056"><ele>669.0</ele><time>2026-04-11T07:17:55Z</time></trkpt><trkpt lat="43.213619711426226" lon="12.249303420087765"><ele>670.0</ele><time>2026-04-11T07:17:56Z</time></trkpt><trkpt lat="43.213534133257305" lon="12.249266911108837"><ele>671.0</ele><time>2026-04-11T07:17:58Z</time></trkpt><trkpt lat="43.213446632426425" lon="12.249602118128276"><ele>672.0</ele><time>2026-04-11T07:18:00Z</time></trkpt><trkpt lat="43.21345874576757" lon="12.249726768180123"><ele>671.6</ele><time>2026-04-11T07:18:01Z</time></trkpt><trkpt lat="43.213438292386826" lon="12.249858903770267"><ele>671.2</ele><time>2026-04-11T07:18:02Z</time></trkpt><trkpt lat="43.21342959705723" lon="12.250003656512117"><ele>670.8</ele><time>2026-04-11T07:18:03Z</time></trkpt><trkpt lat="43.21342189234646" lon="12.250161696931182"><ele>670.4</ele><time>2026-04-11T07:18:04Z</time></trkpt><trkpt lat="43.21341351925574" lon="12.250336279857294"><ele>670.0</ele><time>2026-04-11T07:18:05Z</time></trkpt><trkpt lat="43.213395437635754" lon="12.250509865729796"><ele>668.75</ele><time>2026-04-11T07:18:06Z</time></trkpt><trkpt lat="43.21338523257333" lon="12.25068344828082"><ele>667.5</ele><time>2026-04-11T07:18:07Z</time></trkpt><trkpt lat="43.21337530866398" lon="12.250858002615535"><ele>666.25</ele><time>2026-04-11T07:18:08Z</time></trkpt><trkpt lat="43.213364526763364" lon="12.251031348607158"><ele>665.0</ele><time>2026-04-11T07:18:09Z</time></trkpt><trkpt lat="43.213355091726626" lon="12.251203962871568"><ele>665.0</ele><time>2026-04-11T07:18:10Z</time></trkpt><trkpt lat="43.21335195453648" lon="12.251376054606009"><ele>665.0</ele><time>2026-04-11T07:18:11Z</time></trkpt><trkpt lat="43.213366979906596" lon="12.251544203201181"><ele>665.0</ele><time>2026-04-11T07:18:12Z</time></trkpt><trkpt lat="43.2134089628236" lon="12.251705245550076"><ele>665.0</ele><time>2026-04-11T07:18:13Z</time></trkpt><trkpt lat="43.2134746166852" lon="12.251847375030776"><ele>663.75</ele><time>2026-04-11T07:18:14Z</time></trkpt><trkpt lat="43.213560833910535" lon="12.251967301409543"><ele>662.5</ele><time>2026-04-11T07:18:15Z</time></trkpt><trkpt lat="43.21366153717874" lon="12.252070791388247"><ele>661.25</ele><time>2026-04-11T07:18:16Z</time></trkpt><trkpt lat="43.21376139899743" lon="12.252171700156408"><ele>660.0</ele><time>2026-04-11T07:18:17Z</time></trkpt><trkpt lat="43.21384084621872" lon="12.252293083169457"><ele>657.25</ele><time>2026-04-11T07:18:18Z</time></trkpt><trkpt lat="43.21389497844943" lon="12.252439187553788"><ele>654.5</ele><time>2026-04-11T07:18:19Z</time></trkpt><trkpt lat="43.213913114720576" lon="12.252601528245771"><ele>651.75</ele><time>2026-04-11T07:18:20Z</time></trkpt><trkpt lat="43.21391435245815" lon="12.252771463884025"><ele>649.0</ele><time>2026-04-11T07:18:21Z</time></trkpt><trkpt lat="43.21388899366692" lon="12.252939206811115"><ele>649.0</ele><time>2026-04-11T07:18:22Z</time></trkpt><trkpt lat="43.21383406311638" lon="12.253100923788796"><ele>649.0</ele><time>2026-04-11T07:18:23Z</time></trkpt><trkpt lat="43.21375243343936" lon="12.253253073218833"><ele>649.0</ele><time>2026-04-11T07:18:24Z</time></trkpt><trkpt lat="43.213645419764234" lon="12.253398918211978"><ele>649.0</ele><time>2026-04-11T07:18:25Z</time></trkpt><trkpt lat="43.21352941753079" lon="12.253550308360305"><ele>648.6666666666667</ele><time>2026-04-11T07:18:26Z</time></trkpt><trkpt lat="43.21341438559527" lon="12.253708773913756"><ele>648.3333333333334</ele><time>2026-04-11T07:18:27Z</time></trkpt><trkpt lat="43.21330490896944" lon="12.253864666831749"><ele>648.0</ele><time>2026-04-11T07:18:28Z</time></trkpt><trkpt lat="43.21320438560673" lon="12.254028891511242"><ele>646.6666666666666</ele><time>2026-04-11T07:18:29Z</time></trkpt><trkpt lat="43.21311355752041" lon="12.25420063299932"><ele>645.3333333333333</ele><time>2026-04-11T07:18:30Z</time></trkpt><trkpt lat="43.21303221035925" lon="12.254380385036864"><ele>644.0</ele><time>2026-04-11T07:18:31Z</time></trkpt><trkpt lat="43.21295616693361" lon="12.254558676581416"><ele>644.0</ele><time>2026-04-11T07:18:32Z</time></trkpt><trkpt lat="43.21288202464018" lon="12.254731542638867"><ele>644.0</ele><time>2026-04-11T07:18:33Z</time></trkpt><trkpt lat="43.21280592929531" lon="12.254895921621225"><ele>644.0</ele><time>2026-04-11T07:18:34Z</time></trkpt><trkpt lat="43.21272173347299" lon="12.255055545089457"><ele>644.0</ele><time>2026-04-11T07:18:35Z</time></trkpt><trkpt lat="43.21262375449526" lon="12.25519409212751"><ele>644.3333333333333</ele><time>2026-04-11T07:18:36Z</time></trkpt><trkpt lat="43.21250563521154" lon="12.255313518439463"><ele>644.6666666666666</ele><time>2026-04-11T07:18:37Z</time></trkpt><trkpt lat="43.21237050718934" lon="12.2554249208764"><ele>645.0</ele><time>2026-04-11T07:18:38Z</time></trkpt><trkpt lat="43.21223383324003" lon="12.25554659318812"><ele>644.6666666666666</ele><time>2026-04-11T07:18:39Z</time></trkpt><trkpt lat="43.212109035945296" lon="12.255694285496231"><ele>644.3333333333333</ele><time>2026-04-11T07:18:40Z</time></trkpt><trkpt lat="43.21199228401308" lon="12.255857542854331"><ele>644.0</ele><time>2026-04-11T07:18:41Z</time></trkpt><trkpt lat="43.21188633943155" lon="12.256025209959002"><ele>644.0</ele><time>2026-04-11T07:18:42Z</time></trkpt><trkpt lat="43.21178788220784" lon="12.256198505578771"><ele>644.0</ele><time>2026-04-11T07:18:43Z</time></trkpt><trkpt lat="43.21168974368112" lon="12.256380292238871"><ele>644.0</ele><time>2026-04-11T07:18:44Z</time></trkpt><trkpt lat="43.21159089259354" lon="12.256568631932215"><ele>640.0</ele><time>2026-04-11T07:18:45Z</time></trkpt><trkpt lat="43.211488955074266" lon="12.256754141618849"><ele>636.0</ele><time>2026-04-11T07:18:46Z</time></trkpt><trkpt lat="43.21138136858605" lon="12.256951923055018"><ele>632.0</ele><time>2026-04-11T07:18:47Z</time></trkpt><trkpt lat="43.211265802284" lon="12.257172816521354"><ele>630.3333333333333</ele><time>2026-04-11T07:18:48Z</time></trkpt><trkpt lat="43.21114669785751" lon="12.257405547462136"><ele>628.6666666666666</ele><time>2026-04-11T07:18:49Z</time></trkpt><trkpt lat="43.2110315423688" lon="12.257621791386304"><ele>627.0</ele><time>2026-04-11T07:18:50Z</time></trkpt><trkpt lat="43.210920474888" lon="12.257836191879404"><ele>627.0</ele><time>2026-04-11T07:18:51Z</time></trkpt><trkpt lat="43.21080694556774" lon="12.25804691096193"><ele>627.0</ele><time>2026-04-11T07:18:52Z</time></trkpt><trkpt lat="43.21069444478956" lon="12.258252983730952"><ele>627.0</ele><time>2026-04-11T07:18:53Z</time></trkpt><trkpt lat="43.21058303577468" lon="12.258451725752437"><ele>624.0</ele><time>2026-04-11T07:18:54Z</time></trkpt><trkpt lat="43.210477279302125" lon="12.258648054156287"><ele>621.0</ele><time>2026-04-11T07:18:55Z</time></trkpt><trkpt lat="43.21038251521771" lon="12.258839997926954"><ele>618.0</ele><time>2026-04-11T07:18:56Z</time></trkpt><trkpt lat="43.210311464522555" lon="12.259020345713372"><ele>618.0</ele><time>2026-04-11T07:18:57Z</time></trkpt><trkpt lat="43.21026213189305" lon="12.259207039513129"><ele>618.0</ele><time>2026-04-11T07:18:58Z</time></trkpt><trkpt lat="43.21024708061204" lon="12.259399179787513"><ele>618.0</ele><time>2026-04-11T07:18:59Z</time></trkpt><trkpt lat="43.2102748101727" lon="12.259576347135472"><ele>618.0</ele><time>2026-04-11T07:19:00Z</time></trkpt><trkpt lat="43.21033219870166" lon="12.259734898357426"><ele>620.75</ele><time>2026-04-11T07:19:01Z</time></trkpt><trkpt lat="43.21041069043647" lon="12.259883291463412"><ele>623.5</ele><time>2026-04-11T07:19:02Z</time></trkpt><trkpt lat="43.21050212857941" lon="12.260025669083511"><ele>626.25</ele><time>2026-04-11T07:19:03Z</time></trkpt><trkpt lat="43.210583756840364" lon="12.260170755263639"><ele>629.0</ele><time>2026-04-11T07:19:04Z</time></trkpt><trkpt lat="43.21065035862973" lon="12.260339191443645"><ele>623.6666666666666</ele><time>2026-04-11T07:19:05Z</time></trkpt><trkpt lat="43.210701603541075" lon="12.260535501892358"><ele>618.3333333333334</ele><time>2026-04-11T07:19:06Z</time></trkpt><trkpt lat="43.21074176437809" lon="12.26074565191988"><ele>613.0</ele><time>2026-04-11T07:19:07Z</time></trkpt><trkpt lat="43.21077503570436" lon="12.260958480319763"><ele>613.0</ele><time>2026-04-11T07:19:08Z</time></trkpt><trkpt lat="43.21080048967221" lon="12.261164065457251"><ele>613.0</ele><time>2026-04-11T07:19:09Z</time></trkpt><trkpt lat="43.21082209407215" lon="12.261350663128884"><ele>613.0</ele><time>2026-04-11T07:19:10Z</time></trkpt><trkpt lat="43.21083539965896" lon="12.261509480022111"><ele>613.0</ele><time>2026-04-11T07:19:11Z</time></trkpt><trkpt lat="43.21082726798992" lon="12.26165516406631"><ele>612.6</ele><time>2026-04-11T07:19:12Z</time></trkpt><trkpt lat="43.21078156797105" lon="12.261785074059818"><ele>612.1999999999999</ele><time>2026-04-11T07:19:13Z</time></trkpt><trkpt lat="43.210701659259946" lon="12.261866270087689"><ele>611.8</ele><time>2026-04-11T07:19:14Z</time></trkpt><trkpt lat="43.21060121066095" lon="12.26189247540049"><ele>611.4</ele><time>2026-04-11T07:19:15Z</time></trkpt><trkpt lat="43.210495526346755" lon="12.261851036986325"><ele>611.0</ele><time>2026-04-11T07:19:16Z</time></trkpt><trkpt lat="43.21039212419211" lon="12.261760458698914"><ele>610.0</ele><time>2026-04-11T07:19:17Z</time></trkpt><trkpt lat="43.21028922687733" lon="12.261639770749337"><ele>609.0</ele><time>2026-04-11T07:19:18Z</time></trkpt><trkpt lat="43.210182695344514" lon="12.261521307790346"><ele>608.0</ele><time>2026-04-11T07:19:19Z</time></trkpt><trkpt lat="43.210068409179975" lon="12.261454036393504"><ele>607.0</ele><time>2026-04-11T07:19:20Z</time></trkpt><trkpt lat="43.20995043118" lon="12.261440397672551"><ele>607.0</ele><time>2026-04-11T07:19:21Z</time></trkpt><trkpt lat="43.209827943682924" lon="12.261485401103394"><ele>607.0</ele><time>2026-04-11T07:19:22Z</time></trkpt><trkpt lat="43.2097129716005" lon="12.261582770862498"><ele>607.0</ele><time>2026-04-11T07:19:23Z</time></trkpt><trkpt lat="43.20962063455601" lon="12.261718851360811"><ele>607.0</ele><time>2026-04-11T07:19:24Z</time></trkpt><trkpt lat="43.209552393539774" lon="12.261884995712492"><ele>604.25</ele><time>2026-04-11T07:19:25Z</time></trkpt><trkpt lat="43.209503185469806" lon="12.26206845920005"><ele>601.5</ele><time>2026-04-11T07:19:26Z</time></trkpt><trkpt lat="43.20947651834324" lon="12.262249450262237"><ele>598.75</ele><time>2026-04-11T07:19:27Z</time></trkpt><trkpt lat="43.20945901723698" lon="12.262430985694323"><ele>596.0</ele><time>2026-04-11T07:19:28Z</time></trkpt><trkpt lat="43.20942176981665" lon="12.262603722541325"><ele>596.0</ele><time>2026-04-11T07:19:29Z</time></trkpt><trkpt lat="43.20935273288167" lon="12.26274523225247"><ele>596.0</ele><time>2026-04-11T07:19:30Z</time></trkpt><trkpt lat="43.20925162401185" lon="12.2628631394216"><ele>596.0</ele><time>2026-04-11T07:19:31Z</time></trkpt><trkpt lat="43.20912768467755" lon="12.262960657183962"><ele>596.0</ele><time>2026-04-11T07:19:32Z</time></trkpt><trkpt lat="43.20899802415678" lon="12.263019787293857"><ele>594.75</ele><time>2026-04-11T07:19:33Z</time></trkpt><trkpt lat="43.20887159402536" lon="12.26303059785228"><ele>593.5</ele><time>2026-04-11T07:19:34Z</time></trkpt><trkpt lat="43.20874613570621" lon="12.262983547525721"><ele>592.25</ele><time>2026-04-11T07:19:35Z</time></trkpt><trkpt lat="43.208624192551824" lon="12.262888005257576"><ele>591.0</ele><time>2026-04-11T07:19:36Z</time></trkpt><trkpt lat="43.20851145781544" lon="12.26275771824072"><ele>591.0</ele><time>2026-04-11T07:19:37Z</time></trkpt><trkpt lat="43.20840440835588" lon="12.262647491756006"><ele>591.0</ele><time>2026-04-11T07:19:38Z</time></trkpt><trkpt lat="43.208290595194825" lon="12.262582657904499"><ele>591.0</ele><time>2026-04-11T07:19:39Z</time></trkpt><trkpt lat="43.20816990457001" lon="12.262575002957584"><ele>591.0</ele><time>2026-04-11T07:19:40Z</time></trkpt><trkpt lat="43.20805107882414" lon="12.262622107722619"><ele>588.25</ele><time>2026-04-11T07:19:41Z</time></trkpt><trkpt lat="43.20793995166171" lon="12.26271361016438"><ele>585.5</ele><time>2026-04-11T07:19:42Z</time></trkpt><trkpt lat="43.20783793461485" lon="12.262842756935685"><ele>582.75</ele><time>2026-04-11T07:19:43Z</time></trkpt><trkpt lat="43.207750373019906" lon="12.2630000013608"><ele>580.0</ele><time>2026-04-11T07:19:44Z</time></trkpt><trkpt lat="43.20767206319895" lon="12.26316578453181"><ele>577.0</ele><time>2026-04-11T07:19:45Z</time></trkpt><trkpt lat="43.20759082200446" lon="12.263311363820318"><ele>574.0</ele><time>2026-04-11T07:19:46Z</time></trkpt><trkpt lat="43.207503970091636" lon="12.2634328274255"><ele>571.0</ele><time>2026-04-11T07:19:47Z</time></trkpt><trkpt lat="43.20740495372743" lon="12.263515805347549"><ele>568.0</ele><time>2026-04-11T07:19:48Z</time></trkpt><trkpt lat="43.20729253394007" lon="12.263543536311248"><ele>565.5</ele><time>2026-04-11T07:19:49Z</time></trkpt><trkpt lat="43.207182576918974" lon="12.263504113870377"><ele>563.0</ele><time>2026-04-11T07:19:50Z</time></trkpt><trkpt lat="43.20709467005322" lon="12.263407000799846"><ele>560.5</ele><time>2026-04-11T07:19:51Z</time></trkpt><trkpt lat="43.20705026705879" lon="12.263259061582277"><ele>558.0</ele><time>2026-04-11T07:19:52Z</time></trkpt><trkpt lat="43.20702037547783" lon="12.263092959054239"><ele>558.0</ele><time>2026-04-11T07:19:53Z</time></trkpt><trkpt lat="43.20699608827168" lon="12.26290378357013"><ele>558.0</ele><time>2026-04-11T07:19:54Z</time></trkpt><trkpt lat="43.20697727695953" lon="12.262729541697174"><ele>558.0</ele><time>2026-04-11T07:19:55Z</time></trkpt><trkpt lat="43.20692088598421" lon="12.262586145777854"><ele>558.0</ele><time>2026-04-11T07:19:56Z</time></trkpt><trkpt lat="43.206829298564884" lon="12.262493585734452"><ele>558.0</ele><time>2026-04-11T07:19:57Z</time></trkpt><trkpt lat="43.20671607941171" lon="12.26245356567617"><ele>558.0</ele><time>2026-04-11T07:19:58Z</time></trkpt><trkpt lat="43.20660208781718" lon="12.262482583632725"><ele>558.0</ele><time>2026-04-11T07:19:59Z</time></trkpt><trkpt lat="43.20649925410183" lon="12.262573913564212"><ele>558.0</ele><time>2026-04-11T07:20:00Z</time></trkpt><trkpt lat="43.206387232616564" lon="12.262690736671896"><ele>553.75</ele><time>2026-04-11T07:20:01Z</time></trkpt><trkpt lat="43.206279838377" lon="12.262818103083708"><ele>549.5</ele><time>2026-04-11T07:20:02Z</time></trkpt><trkpt lat="43.206179440433786" lon="12.262944532520237"><ele>545.25</ele><time>2026-04-11T07:20:03Z</time></trkpt><trkpt lat="43.20610670018296" lon="12.26307330042325"><ele>541.0</ele><time>2026-04-11T07:20:04Z</time></trkpt><trkpt lat="43.20607430135636" lon="12.263224252155817"><ele>541.0</ele><time>2026-04-11T07:20:05Z</time></trkpt><trkpt lat="43.20608116131896" lon="12.263390142320224"><ele>541.0</ele><time>2026-04-11T07:20:06Z</time></trkpt><trkpt lat="43.20613623464623" lon="12.263543898070793"><ele>541.0</ele><time>2026-04-11T07:20:07Z</time></trkpt><trkpt lat="43.20622165760193" lon="12.26368455143004"><ele>541.0</ele><time>2026-04-11T07:20:08Z</time></trkpt><trkpt lat="43.20632276201595" lon="12.263817257269244"><ele>542.6</ele><time>2026-04-11T07:20:09Z</time></trkpt><trkpt lat="43.2064177086218" lon="12.263948879313332"><ele>544.2</ele><time>2026-04-11T07:20:10Z</time></trkpt><trkpt lat="43.206490208728454" lon="12.26406704888304"><ele>545.8</ele><time>2026-04-11T07:20:11Z</time></trkpt><trkpt lat="43.206545196241066" lon="12.264175753866684"><ele>547.4</ele><time>2026-04-11T07:20:12Z</time></trkpt><trkpt lat="43.20657381414276" lon="12.264275526105079"><ele>549.0</ele><time>2026-04-11T07:20:13Z</time></trkpt><trkpt lat="43.206585688156125" lon="12.26437633319996"><ele>549.0</ele><time>2026-04-11T07:20:14Z</time></trkpt><trkpt lat="43.20658725655468" lon="12.26447501354053"><ele>549.0</ele><time>2026-04-11T07:20:15Z</time></trkpt><trkpt lat="43.206574197603864" lon="12.264572251263326"><ele>549.0</ele><time>2026-04-11T07:20:16Z</time></trkpt><trkpt lat="43.20653935509781" lon="12.264656654919174"><ele>549.0</ele><time>2026-04-11T07:20:17Z</time></trkpt><trkpt lat="43.20649473591714" lon="12.26473161252605"><ele>549.0</ele><time>2026-04-11T07:20:18Z</time></trkpt><trkpt lat="43.20641676655612" lon="12.264793478522506"><ele>549.0</ele><time>2026-04-11T07:20:20Z</time></trkpt><trkpt lat="43.206477090217696" lon="12.264987949097543"><ele>547.2</ele><time>2026-04-11T07:20:23Z</time></trkpt><trkpt lat="43.206556294197185" lon="12.26504492904316"><ele>545.4</ele><time>2026-04-11T07:20:25Z</time></trkpt><trkpt lat="43.20668984829065" lon="12.265108051169138"><ele>543.6</ele><time>2026-04-11T07:20:27Z</time></trkpt><trkpt lat="43.20677528477251" lon="12.265123658438187"><ele>541.8</ele><time>2026-04-11T07:20:28Z</time></trkpt><trkpt lat="43.20686644855144" lon="12.26511270971283"><ele>540.0</ele><time>2026-04-11T07:20:29Z</time></trkpt><trkpt lat="43.2069722695982" lon="12.265075592186362"><ele>540.0</ele><time>2026-04-11T07:20:30Z</time></trkpt><trkpt lat="43.2070855006533" lon="12.265038143956776"><ele>540.0</ele><time>2026-04-11T07:20:31Z</time></trkpt><trkpt lat="43.207177519037415" lon="12.264975073711977"><ele>540.0</ele><time>2026-04-11T07:20:32Z</time></trkpt><trkpt lat="43.207260581057284" lon="12.264900959795273"><ele>540.0</ele><time>2026-04-11T07:20:33Z</time></trkpt><trkpt lat="43.20733261775262" lon="12.264806979894553"><ele>540.0</ele><time>2026-04-11T07:20:34Z</time></trkpt><trkpt lat="43.207395675903776" lon="12.264717851742137"><ele>543.0</ele><time>2026-04-11T07:20:35Z</time></trkpt><trkpt lat="43.20746249181507" lon="12.2646443341255"><ele>546.0</ele><time>2026-04-11T07:20:36Z</time></trkpt><trkpt lat="43.207548855405975" lon="12.264599942240977"><ele>549.0</ele><time>2026-04-11T07:20:37Z</time></trkpt><trkpt lat="43.20766300952926" lon="12.264595312644607"><ele>552.0</ele><time>2026-04-11T07:20:38Z</time></trkpt><trkpt lat="43.20778425244869" lon="12.264565787149"><ele>555.0</ele><time>2026-04-11T07:20:39Z</time></trkpt><trkpt lat="43.207893275371234" lon="12.264514585297867"><ele>555.0</ele><time>2026-04-11T07:20:40Z</time></trkpt><trkpt lat="43.20800345803921" lon="12.264449185352353"><ele>555.0</ele><time>2026-04-11T07:20:41Z</time></trkpt><trkpt lat="43.2081096406385" lon="12.264391562079792"><ele>555.0</ele><time>2026-04-11T07:20:42Z</time></trkpt><trkpt lat="43.20822240682135" lon="12.264343382755115"><ele>555.0</ele><time>2026-04-11T07:20:43Z</time></trkpt><trkpt lat="43.20834094582496" lon="12.264336124044481"><ele>551.3333333333334</ele><time>2026-04-11T07:20:44Z</time></trkpt><trkpt lat="43.2084825887306" lon="12.264338072165032"><ele>547.6666666666667</ele><time>2026-04-11T07:20:45Z</time></trkpt><trkpt lat="43.20864016091512" lon="12.264338835184184"><ele>544.0</ele><time>2026-04-11T07:20:46Z</time></trkpt><trkpt lat="43.20879264375485" lon="12.264331528109002"><ele>544.0</ele><time>2026-04-11T07:20:47Z</time></trkpt><trkpt lat="43.20893823924827" lon="12.264326053735676"><ele>544.0</ele><time>2026-04-11T07:20:48Z</time></trkpt><trkpt lat="43.20909680934737" lon="12.264324913572525"><ele>544.0</ele><time>2026-04-11T07:20:49Z</time></trkpt><trkpt lat="43.20924426457996" lon="12.264327622072674"><ele>545.6</ele><time>2026-04-11T07:20:50Z</time></trkpt><trkpt lat="43.209370161739216" lon="12.26433320883958"><ele>547.2</ele><time>2026-04-11T07:20:51Z</time></trkpt><trkpt lat="43.20947130987995" lon="12.264337560863206"><ele>548.8000000000001</ele><time>2026-04-11T07:20:52Z</time></trkpt><trkpt lat="43.20954203591789" lon="12.264340940117293"><ele>550.4</ele><time>2026-04-11T07:20:53Z</time></trkpt><trkpt lat="43.2096050685358" lon="12.264335822700572"><ele>552.0</ele><time>2026-04-11T07:20:54Z</time></trkpt><trkpt lat="43.209723999830096" lon="12.264341229572288"><ele>552.0</ele><time>2026-04-11T07:20:56Z</time></trkpt><trkpt lat="43.20979317671991" lon="12.26434749787862"><ele>552.0</ele><time>2026-04-11T07:20:57Z</time></trkpt><trkpt lat="43.20986145718288" lon="12.264360482332679"><ele>552.0</ele><time>2026-04-11T07:20:58Z</time></trkpt><trkpt lat="43.209919312188035" lon="12.264395102442354"><ele>552.0</ele><time>2026-04-11T07:20:59Z</time></trkpt><trkpt lat="43.20999173924328" lon="12.264516706297806"><ele>552.0</ele><time>2026-04-11T07:21:01Z</time></trkpt><trkpt lat="43.21005381419959" lon="12.264665343663456"><ele>552.0</ele><time>2026-04-11T07:21:03Z</time></trkpt><trkpt lat="43.21011670186685" lon="12.264789017825999"><ele>553.5</ele><time>2026-04-11T07:21:05Z</time></trkpt><trkpt lat="43.21015922655082" lon="12.264943585148087"><ele>555.0</ele><time>2026-04-11T07:21:07Z</time></trkpt><trkpt lat="43.21017109108754" lon="12.265096227020141"><ele>556.5</ele><time>2026-04-11T07:21:09Z</time></trkpt><trkpt lat="43.210177878331585" lon="12.2652618477097"><ele>558.0</ele><time>2026-04-11T07:21:11Z</time></trkpt><trkpt lat="43.21019491221651" lon="12.265428494652243"><ele>558.0</ele><time>2026-04-11T07:21:13Z</time></trkpt><trkpt lat="43.21023205900226" lon="12.26557791776427"><ele>558.0</ele><time>2026-04-11T07:21:15Z</time></trkpt><trkpt lat="43.210296288782565" lon="12.265741611458056"><ele>558.0</ele><time>2026-04-11T07:21:17Z</time></trkpt><trkpt lat="43.21033089132657" lon="12.265841988558172"><ele>558.0</ele><time>2026-04-11T07:21:18Z</time></trkpt><trkpt lat="43.21035495895991" lon="12.26595607295399"><ele>558.0</ele><time>2026-04-11T07:21:19Z</time></trkpt><trkpt lat="43.21036639183034" lon="12.266081771476522"><ele>560.6</ele><time>2026-04-11T07:21:20Z</time></trkpt><trkpt lat="43.21036786476662" lon="12.266218135875961"><ele>563.1999999999999</ele><time>2026-04-11T07:21:21Z</time></trkpt><trkpt lat="43.21035216398329" lon="12.266356625395552"><ele>565.8</ele><time>2026-04-11T07:21:22Z</time></trkpt><trkpt lat="43.21033418957435" lon="12.266488700970203"><ele>568.4</ele><time>2026-04-11T07:21:23Z</time></trkpt><trkpt lat="43.210322936420724" lon="12.26661711493343"><ele>571.0</ele><time>2026-04-11T07:21:24Z</time></trkpt><trkpt lat="43.21033085191402" lon="12.266732267597517"><ele>571.1666666666667</ele><time>2026-04-11T07:21:25Z</time></trkpt><trkpt lat="43.21035333994911" lon="12.266840242358722"><ele>571.3333333333334</ele><time>2026-04-11T07:21:26Z</time></trkpt><trkpt lat="43.21038081321823" lon="12.266940604331042"><ele>571.5</ele><time>2026-04-11T07:21:27Z</time></trkpt><trkpt lat="43.21040300747851" lon="12.267039338040078"><ele>571.6666666666666</ele><time>2026-04-11T07:21:28Z</time></trkpt><trkpt lat="43.21041009754919" lon="12.26713726168687"><ele>571.8333333333333</ele><time>2026-04-11T07:21:29Z</time></trkpt><trkpt lat="43.21040251327428" lon="12.267231604615157"><ele>572.0</ele><time>2026-04-11T07:21:30Z</time></trkpt><trkpt lat="43.210380273522546" lon="12.267329538442958"><ele>570.0</ele><time>2026-04-11T07:21:31Z</time></trkpt><trkpt lat="43.21035572149299" lon="12.2674346724967"><ele>568.0</ele><time>2026-04-11T07:21:32Z</time></trkpt><trkpt lat="43.21033111427696" lon="12.267556165746301"><ele>566.0</ele><time>2026-04-11T07:21:33Z</time></trkpt><trkpt lat="43.21030719015221" lon="12.267686587389345"><ele>564.0</ele><time>2026-04-11T07:21:34Z</time></trkpt><trkpt lat="43.210265518013564" lon="12.267821127922714"><ele>562.0</ele><time>2026-04-11T07:21:35Z</time></trkpt><trkpt lat="43.21026753477311" lon="12.26797465033744"><ele>559.8000000000001</ele><time>2026-04-11T07:21:36Z</time></trkpt><trkpt lat="43.21025942352479" lon="12.268125216746249"><ele>557.6</ele><time>2026-04-11T07:21:37Z</time></trkpt><trkpt lat="43.210253764830874" lon="12.268274618275539"><ele>555.4000000000001</ele><time>2026-04-11T07:21:38Z</time></trkpt><trkpt lat="43.21024754438326" lon="12.26842646903461"><ele>553.2</ele><time>2026-04-11T07:21:39Z</time></trkpt><trkpt lat="43.21024598316175" lon="12.268580426528302"><ele>551.0</ele><time>2026-04-11T07:21:40Z</time></trkpt><trkpt lat="43.210246053393746" lon="12.268735173315985"><ele>551.0</ele><time>2026-04-11T07:21:41Z</time></trkpt><trkpt lat="43.210247359961556" lon="12.268881121335395"><ele>551.0</ele><time>2026-04-11T07:21:42Z</time></trkpt><trkpt lat="43.21024688420436" lon="12.269023778769396"><ele>551.0</ele><time>2026-04-11T07:21:43Z</time></trkpt><trkpt lat="43.21024174872617" lon="12.269173789447132"><ele>551.0</ele><time>2026-04-11T07:21:44Z</time></trkpt><trkpt lat="43.21026499595286" lon="12.269324215117019"><ele>551.0</ele><time>2026-04-11T07:21:45Z</time></trkpt><trkpt lat="43.210314517409834" lon="12.269463411560302"><ele>549.2</ele><time>2026-04-11T07:21:46Z</time></trkpt><trkpt lat="43.21034338389074" lon="12.269610887895164"><ele>547.4000000000001</ele><time>2026-04-11T07:21:47Z</time></trkpt><trkpt lat="43.210370233908684" lon="12.269753399423433"><ele>545.6</ele><time>2026-04-11T07:21:48Z</time></trkpt><trkpt lat="43.21039264173059" lon="12.269886447938655"><ele>543.8000000000001</ele><time>2026-04-11T07:21:49Z</time></trkpt><trkpt lat="43.210412991420434" lon="12.270016853628745"><ele>542.0</ele><time>2026-04-11T07:21:50Z</time></trkpt><trkpt lat="43.21043382245176" lon="12.270148679760451"><ele>542.0</ele><time>2026-04-11T07:21:51Z</time></trkpt><trkpt lat="43.21046783073958" lon="12.270272963840378"><ele>542.0</ele><time>2026-04-11T07:21:52Z</time></trkpt><trkpt lat="43.2105111261503" lon="12.270390011539636"><ele>542.0</ele><time>2026-04-11T07:21:53Z</time></trkpt><trkpt lat="43.2105597651085" lon="12.270496378212206"><ele>542.0</ele><time>2026-04-11T07:21:54Z</time></trkpt><trkpt lat="43.21058942128132" lon="12.270617808905799"><ele>542.0</ele><time>2026-04-11T07:21:55Z</time></trkpt><trkpt lat="43.21068456994086" lon="12.270699649149792"><ele>542.2</ele><time>2026-04-11T07:21:56Z</time></trkpt><trkpt lat="43.210754038817036" lon="12.270803920449119"><ele>542.4000000000001</ele><time>2026-04-11T07:21:57Z</time></trkpt><trkpt lat="43.21083011346038" lon="12.270902151421494"><ele>542.5999999999999</ele><time>2026-04-11T07:21:58Z</time></trkpt><trkpt lat="43.21090408741426" lon="12.271004956316844"><ele>542.8</ele><time>2026-04-11T07:21:59Z</time></trkpt><trkpt lat="43.2109773735253" lon="12.271110654599433"><ele>543.0</ele><time>2026-04-11T07:22:00Z</time></trkpt><trkpt lat="43.21105451571623" lon="12.27121722637535"><ele>543.0</ele><time>2026-04-11T07:22:01Z</time></trkpt><trkpt lat="43.21113373675962" lon="12.271323102217687"><ele>543.0</ele><time>2026-04-11T07:22:02Z</time></trkpt><trkpt lat="43.21121007441907" lon="12.271426901929027"><ele>543.0</ele><time>2026-04-11T07:22:03Z</time></trkpt><trkpt lat="43.21128447784257" lon="12.271522910684453"><ele>543.0</ele><time>2026-04-11T07:22:04Z</time></trkpt><trkpt lat="43.21136712717497" lon="12.271602143565364"><ele>543.0</ele><time>2026-04-11T07:22:05Z</time></trkpt><trkpt lat="43.21146044714286" lon="12.271659329216718"><ele>541.5</ele><time>2026-04-11T07:22:06Z</time></trkpt><trkpt lat="43.211571742650705" lon="12.271701133542898"><ele>540.0</ele><time>2026-04-11T07:22:07Z</time></trkpt><trkpt lat="43.21168581007364" lon="12.27173074082595"><ele>538.5</ele><time>2026-04-11T07:22:08Z</time></trkpt><trkpt lat="43.21180719772042" lon="12.271761692555927"><ele>537.0</ele><time>2026-04-11T07:22:09Z</time></trkpt><trkpt lat="43.211921604825704" lon="12.271798700695141"><ele>537.0</ele><time>2026-04-11T07:22:10Z</time></trkpt><trkpt lat="43.21202476019468" lon="12.271839919378094"><ele>537.0</ele><time>2026-04-11T07:22:11Z</time></trkpt><trkpt lat="43.21212849948622" lon="12.271893216134021"><ele>537.0</ele><time>2026-04-11T07:22:12Z</time></trkpt><trkpt lat="43.21222821961496" lon="12.271969000070488"><ele>537.0</ele><time>2026-04-11T07:22:13Z</time></trkpt><trkpt lat="43.212315532555074" lon="12.272068573823907"><ele>537.0</ele><time>2026-04-11T07:22:14Z</time></trkpt><trkpt lat="43.212395956057186" lon="12.272185972670949"><ele>536.5</ele><time>2026-04-11T07:22:15Z</time></trkpt><trkpt lat="43.212467582350136" lon="12.2723154944945"><ele>536.0</ele><time>2026-04-11T07:22:16Z</time></trkpt><trkpt lat="43.212534804885166" lon="12.272460648359914"><ele>535.5</ele><time>2026-04-11T07:22:17Z</time></trkpt><trkpt lat="43.21259503324137" lon="12.272613675146381"><ele>535.0</ele><time>2026-04-11T07:22:18Z</time></trkpt><trkpt lat="43.21265208750421" lon="12.272774809488672"><ele>535.0</ele><time>2026-04-11T07:22:19Z</time></trkpt><trkpt lat="43.21270504721928" lon="12.272929240021158"><ele>535.0</ele><time>2026-04-11T07:22:20Z</time></trkpt><trkpt lat="43.21275688584277" lon="12.273072416195367"><ele>535.0</ele><time>2026-04-11T07:22:21Z</time></trkpt><trkpt lat="43.21281361336708" lon="12.273195559756157"><ele>535.0</ele><time>2026-04-11T07:22:22Z</time></trkpt><trkpt lat="43.21289132338341" lon="12.273303057008665"><ele>534.75</ele><time>2026-04-11T07:22:23Z</time></trkpt><trkpt lat="43.21298634386677" lon="12.27339329834453"><ele>534.5</ele><time>2026-04-11T07:22:24Z</time></trkpt><trkpt lat="43.21309352309348" lon="12.27347136257711"><ele>534.25</ele><time>2026-04-11T07:22:25Z</time></trkpt><trkpt lat="43.21317874180167" lon="12.273564332284229"><ele>534.0</ele><time>2026-04-11T07:22:26Z</time></trkpt><trkpt lat="43.21324607977224" lon="12.273714936711581"><ele>534.0</ele><time>2026-04-11T07:22:27Z</time></trkpt><trkpt lat="43.213307269767306" lon="12.27390054177716"><ele>534.0</ele><time>2026-04-11T07:22:28Z</time></trkpt><trkpt lat="43.2133715757994" lon="12.274091812106938"><ele>534.0</ele><time>2026-04-11T07:22:29Z</time></trkpt><trkpt lat="43.213438356941104" lon="12.274265600972504"><ele>534.0</ele><time>2026-04-11T07:22:30Z</time></trkpt><trkpt lat="43.213492318021444" lon="12.274448847182638"><ele>536.25</ele><time>2026-04-11T07:22:31Z</time></trkpt><trkpt lat="43.213530748771525" lon="12.27464684052172"><ele>538.5</ele><time>2026-04-11T07:22:32Z</time></trkpt><trkpt lat="43.21358202384387" lon="12.274839403141739"><ele>540.75</ele><time>2026-04-11T07:22:33Z</time></trkpt><trkpt lat="43.213646843606185" lon="12.275023788307873"><ele>543.0</ele><time>2026-04-11T07:22:34Z</time></trkpt><trkpt lat="43.21372472374943" lon="12.275179086529125"><ele>543.4</ele><time>2026-04-11T07:22:35Z</time></trkpt><trkpt lat="43.2138074327677" lon="12.27530099329266"><ele>543.8</ele><time>2026-04-11T07:22:36Z</time></trkpt><trkpt lat="43.2138944576289" lon="12.275401893765242"><ele>544.2</ele><time>2026-04-11T07:22:37Z</time></trkpt><trkpt lat="43.213973122188605" lon="12.275487072551458"><ele>544.6</ele><time>2026-04-11T07:22:38Z</time></trkpt><trkpt lat="43.21402251271043" lon="12.275581694191082"><ele>545.0</ele><time>2026-04-11T07:22:39Z</time></trkpt><trkpt lat="43.21404407406784" lon="12.275684831222216"><ele>546.75</ele><time>2026-04-11T07:22:40Z</time></trkpt><trkpt lat="43.21403993343715" lon="12.275809796770655"><ele>548.5</ele><time>2026-04-11T07:22:41Z</time></trkpt><trkpt lat="43.213981455371886" lon="12.275927933147013"><ele>550.25</ele><time>2026-04-11T07:22:42Z</time></trkpt><trkpt lat="43.213919310223005" lon="12.276084002077168"><ele>552.0</ele><time>2026-04-11T07:22:43Z</time></trkpt><trkpt lat="43.21385872472534" lon="12.27626036852905"><ele>553.0</ele><time>2026-04-11T07:22:44Z</time></trkpt><trkpt lat="43.21379976868849" lon="12.276419817842037"><ele>554.0</ele><time>2026-04-11T07:22:45Z</time></trkpt><trkpt lat="43.21375542457592" lon="12.276584861674971"><ele>555.0</ele><time>2026-04-11T07:22:46Z</time></trkpt><trkpt lat="43.21369597789199" lon="12.276743323415293"><ele>556.0</ele><time>2026-04-11T07:22:47Z</time></trkpt><trkpt lat="43.21363120401551" lon="12.276903872973222"><ele>556.75</ele><time>2026-04-11T07:22:48Z</time></trkpt><trkpt lat="43.2135611173982" lon="12.2770549691403"><ele>557.5</ele><time>2026-04-11T07:22:49Z</time></trkpt><trkpt lat="43.21347529033682" lon="12.277219872465835"><ele>558.25</ele><time>2026-04-11T07:22:50Z</time></trkpt><trkpt lat="43.21338857171448" lon="12.277376030802627"><ele>559.0</ele><time>2026-04-11T07:22:51Z</time></trkpt><trkpt lat="43.21330308613167" lon="12.277521812558723"><ele>559.5</ele><time>2026-04-11T07:22:52Z</time></trkpt><trkpt lat="43.21321303077824" lon="12.277660511149978"><ele>560.0</ele><time>2026-04-11T07:22:53Z</time></trkpt><trkpt lat="43.21312453829906" lon="12.277793074319789"><ele>560.5</ele><time>2026-04-11T07:22:54Z</time></trkpt><trkpt lat="43.2130439242548" lon="12.277950032817351"><ele>561.0</ele><time>2026-04-11T07:22:55Z</time></trkpt><trkpt lat="43.212972759697706" lon="12.278100653128426"><ele>561.6</ele><time>2026-04-11T07:22:56Z</time></trkpt><trkpt lat="43.21291094181277" lon="12.278235240715285"><ele>562.2</ele><time>2026-04-11T07:22:57Z</time></trkpt><trkpt lat="43.21285637153393" lon="12.278344726042585"><ele>562.8</ele><time>2026-04-11T07:22:58Z</time></trkpt><trkpt lat="43.21280955287531" lon="12.278463963899693"><ele>563.4</ele><time>2026-04-11T07:22:59Z</time></trkpt><trkpt lat="43.21278128043959" lon="12.27858417869721"><ele>564.0</ele><time>2026-04-11T07:23:00Z</time></trkpt><trkpt lat="43.2127764701783" lon="12.278723463562402"><ele>564.0</ele><time>2026-04-11T07:23:01Z</time></trkpt><trkpt lat="43.21279289502959" lon="12.278873067660772"><ele>564.0</ele><time>2026-04-11T07:23:02Z</time></trkpt><trkpt lat="43.21281898483802" lon="12.279048210369044"><ele>564.0</ele><time>2026-04-11T07:23:03Z</time></trkpt><trkpt lat="43.21281857251233" lon="12.279233143282097"><ele>564.0</ele><time>2026-04-11T07:23:04Z</time></trkpt><trkpt lat="43.21282667695216" lon="12.279386085078892"><ele>565.1666666666666</ele><time>2026-04-11T07:23:05Z</time></trkpt><trkpt lat="43.21280623558784" lon="12.279508748965672"><ele>566.3333333333334</ele><time>2026-04-11T07:23:06Z</time></trkpt><trkpt lat="43.21278685175394" lon="12.279626444183389"><ele>567.5</ele><time>2026-04-11T07:23:07Z</time></trkpt><trkpt lat="43.212769857653484" lon="12.279743232459845"><ele>568.6666666666667</ele><time>2026-04-11T07:23:08Z</time></trkpt><trkpt lat="43.21274500637206" lon="12.27985554739388"><ele>569.8333333333334</ele><time>2026-04-11T07:23:09Z</time></trkpt><trkpt lat="43.21272082405152" lon="12.27997492525864"><ele>571.0</ele><time>2026-04-11T07:23:10Z</time></trkpt><trkpt lat="43.21269786202475" lon="12.280097476880648"><ele>570.8</ele><time>2026-04-11T07:23:11Z</time></trkpt><trkpt lat="43.21268066667417" lon="12.280221697606658"><ele>570.6</ele><time>2026-04-11T07:23:12Z</time></trkpt><trkpt lat="43.21267321121297" lon="12.280353504268492"><ele>570.4</ele><time>2026-04-11T07:23:13Z</time></trkpt><trkpt lat="43.2126658780745" lon="12.280473268958323"><ele>570.2</ele><time>2026-04-11T07:23:14Z</time></trkpt><trkpt lat="43.21264961896664" lon="12.280566697331112"><ele>570.0</ele><time>2026-04-11T07:23:15Z</time></trkpt><trkpt lat="43.21258822842371" lon="12.28071626637354"><ele>570.0</ele><time>2026-04-11T07:23:17Z</time></trkpt><trkpt lat="43.21251609309706" lon="12.280768982007322"><ele>570.0</ele><time>2026-04-11T07:23:18Z</time></trkpt><trkpt lat="43.212433854929024" lon="12.280750653122094"><ele>570.0</ele><time>2026-04-11T07:23:19Z</time></trkpt><trkpt lat="43.21234128058755" lon="12.280757213369707"><ele>570.0</ele><time>2026-04-11T07:23:20Z</time></trkpt><trkpt lat="43.2122485983727" lon="12.280721609954307"><ele>570.0</ele><time>2026-04-11T07:23:21Z</time></trkpt><trkpt lat="43.212165325903406" lon="12.280704595678037"><ele>570.0</ele><time>2026-04-11T07:23:22Z</time></trkpt><trkpt lat="43.21208861086953" lon="12.280717660635762"><ele>569.6666666666666</ele><time>2026-04-11T07:23:23Z</time></trkpt><trkpt lat="43.21201185470109" lon="12.28073732700629"><ele>569.3333333333334</ele><time>2026-04-11T07:23:24Z</time></trkpt><trkpt lat="43.21194845659616" lon="12.280827826594766"><ele>569.0</ele><time>2026-04-11T07:23:25Z</time></trkpt><trkpt lat="43.21188615129295" lon="12.280923119548598"><ele>568.6666666666667</ele><time>2026-04-11T07:23:26Z</time></trkpt><trkpt lat="43.2118293884613" lon="12.281025952786397"><ele>568.3333333333334</ele><time>2026-04-11T07:23:27Z</time></trkpt><trkpt lat="43.21177843266039" lon="12.281122399047986"><ele>568.0</ele><time>2026-04-11T07:23:28Z</time></trkpt><trkpt lat="43.21172611398537" lon="12.281205659977196"><ele>568.0</ele><time>2026-04-11T07:23:29Z</time></trkpt><trkpt lat="43.21166784921146" lon="12.281275856984506"><ele>568.0</ele><time>2026-04-11T07:23:30Z</time></trkpt><trkpt lat="43.21161416768323" lon="12.281340142307757"><ele>568.0</ele><time>2026-04-11T07:23:31Z</time></trkpt><trkpt lat="43.2115564309665" lon="12.281403947139237"><ele>568.0</ele><time>2026-04-11T07:23:32Z</time></trkpt><trkpt lat="43.21151154326028" lon="12.281468119828876"><ele>568.0</ele><time>2026-04-11T07:23:33Z</time></trkpt><trkpt lat="43.21144647978757" lon="12.28158815737072"><ele>568.0</ele><time>2026-04-11T07:23:35Z</time></trkpt><trkpt lat="43.211418910030815" lon="12.281676288998353"><ele>565.0</ele><time>2026-04-11T07:23:37Z</time></trkpt><trkpt lat="43.21154867677173" lon="12.281736705834433"><ele>562.0</ele><time>2026-04-11T07:23:43Z</time></trkpt><trkpt lat="43.21159651977388" lon="12.28167763842323"><ele>559.0</ele><time>2026-04-11T07:23:59Z</time></trkpt><trkpt lat="43.21172604251688" lon="12.281603786558714"><ele>556.0</ele><time>2026-04-11T07:24:01Z</time></trkpt><trkpt lat="43.211800758005275" lon="12.281538915700898"><ele>553.0</ele><time>2026-04-11T07:24:02Z</time></trkpt><trkpt lat="43.21186009105121" lon="12.281467378019089"><ele>552.8333333333334</ele><time>2026-04-11T07:24:03Z</time></trkpt><trkpt lat="43.21191202790161" lon="12.281395433313664"><ele>552.6666666666667</ele><time>2026-04-11T07:24:04Z</time></trkpt><trkpt lat="43.21198505850522" lon="12.281360071472363"><ele>552.5</ele><time>2026-04-11T07:24:05Z</time></trkpt><trkpt lat="43.212071116173725" lon="12.28134691200831"><ele>552.3333333333334</ele><time>2026-04-11T07:24:06Z</time></trkpt><trkpt lat="43.21216832072375" lon="12.28135806798129"><ele>552.1666666666666</ele><time>2026-04-11T07:24:07Z</time></trkpt><trkpt lat="43.21225086451993" lon="12.281401744785601"><ele>552.0</ele><time>2026-04-11T07:24:08Z</time></trkpt><trkpt lat="43.2123251446032" lon="12.281453662464969"><ele>552.0</ele><time>2026-04-11T07:24:09Z</time></trkpt><trkpt lat="43.21240815955574" lon="12.281537114905172"><ele>552.0</ele><time>2026-04-11T07:24:10Z</time></trkpt><trkpt lat="43.212517432822104" lon="12.281668993802995"><ele>552.0</ele><time>2026-04-11T07:24:11Z</time></trkpt><trkpt lat="43.21262942256948" lon="12.28178317081224"><ele>552.0</ele><time>2026-04-11T07:24:12Z</time></trkpt><trkpt lat="43.21274894326318" lon="12.281895879284235"><ele>552.0</ele><time>2026-04-11T07:24:13Z</time></trkpt><trkpt lat="43.21286242706346" lon="12.281999160145826"><ele>552.0</ele><time>2026-04-11T07:24:14Z</time></trkpt><trkpt lat="43.21297525136791" lon="12.2821044723894"><ele>552.0</ele><time>2026-04-11T07:24:15Z</time></trkpt><trkpt lat="43.21307367087086" lon="12.282204344845722"><ele>552.0</ele><time>2026-04-11T07:24:16Z</time></trkpt><trkpt lat="43.21317374729316" lon="12.28230082394214"><ele>549.75</ele><time>2026-04-11T07:24:17Z</time></trkpt><trkpt lat="43.21327248301881" lon="12.282399515784524"><ele>547.5</ele><time>2026-04-11T07:24:18Z</time></trkpt><trkpt lat="43.21337633490495" lon="12.282505193644656"><ele>545.25</ele><time>2026-04-11T07:24:19Z</time></trkpt><trkpt lat="43.21347171630345" lon="12.282603661824794"><ele>543.0</ele><time>2026-04-11T07:24:20Z</time></trkpt><trkpt lat="43.21355341374538" lon="12.282691709449322"><ele>543.0</ele><time>2026-04-11T07:24:21Z</time></trkpt><trkpt lat="43.213643059071025" lon="12.28280514056314"><ele>543.0</ele><time>2026-04-11T07:24:22Z</time></trkpt><trkpt lat="43.213727814150744" lon="12.282915668501257"><ele>543.0</ele><time>2026-04-11T07:24:23Z</time></trkpt><trkpt lat="43.213799992964084" lon="12.283039175086206"><ele>543.0</ele><time>2026-04-11T07:24:24Z</time></trkpt><trkpt lat="43.21387301531047" lon="12.283180396112668"><ele>542.75</ele><time>2026-04-11T07:24:25Z</time></trkpt><trkpt lat="43.21394255391295" lon="12.283319897067855"><ele>542.5</ele><time>2026-04-11T07:24:26Z</time></trkpt><trkpt lat="43.214007699979376" lon="12.28344507335941"><ele>542.25</ele><time>2026-04-11T07:24:27Z</time></trkpt><trkpt lat="43.214078890055674" lon="12.28356909891138"><ele>542.0</ele><time>2026-04-11T07:24:28Z</time></trkpt><trkpt lat="43.21415261043106" lon="12.283699850030438"><ele>542.0</ele><time>2026-04-11T07:24:29Z</time></trkpt><trkpt lat="43.21421890351714" lon="12.283827192009698"><ele>542.0</ele><time>2026-04-11T07:24:30Z</time></trkpt><trkpt lat="43.214279313700914" lon="12.28395725509063"><ele>542.0</ele><time>2026-04-11T07:24:31Z</time></trkpt><trkpt lat="43.214327056507976" lon="12.284075485405944"><ele>542.0</ele><time>2026-04-11T07:24:32Z</time></trkpt><trkpt lat="43.21436987672048" lon="12.284214836182468"><ele>542.0</ele><time>2026-04-11T07:24:33Z</time></trkpt><trkpt lat="43.21442306338336" lon="12.28435270499903"><ele>542.75</ele><time>2026-04-11T07:24:34Z</time></trkpt><trkpt lat="43.21446210889345" lon="12.284494687313103"><ele>543.5</ele><time>2026-04-11T07:24:35Z</time></trkpt><trkpt lat="43.21452009021547" lon="12.284642371706026"><ele>544.25</ele><time>2026-04-11T07:24:36Z</time></trkpt><trkpt lat="43.214566676381246" lon="12.284811356036196"><ele>545.0</ele><time>2026-04-11T07:24:37Z</time></trkpt><trkpt lat="43.2146076271357" lon="12.284985278960662"><ele>545.0</ele><time>2026-04-11T07:24:38Z</time></trkpt><trkpt lat="43.21467013008164" lon="12.285190382962814"><ele>545.0</ele><time>2026-04-11T07:24:39Z</time></trkpt><trkpt lat="43.21473958384415" lon="12.28538048466831"><ele>545.0</ele><time>2026-04-11T07:24:40Z</time></trkpt><trkpt lat="43.21480367875188" lon="12.285558212562758"><ele>546.5</ele><time>2026-04-11T07:24:41Z</time></trkpt><trkpt lat="43.214866524479284" lon="12.285743593456111"><ele>548.0</ele><time>2026-04-11T07:24:42Z</time></trkpt><trkpt lat="43.21492377934658" lon="12.285924538312457"><ele>549.5</ele><time>2026-04-11T07:24:43Z</time></trkpt><trkpt lat="43.21496914905851" lon="12.28610099446946"><ele>551.0</ele><time>2026-04-11T07:24:44Z</time></trkpt><trkpt lat="43.21502648846639" lon="12.286274502451842"><ele>551.4</ele><time>2026-04-11T07:24:45Z</time></trkpt><trkpt lat="43.215075353040746" lon="12.286436267651775"><ele>551.8</ele><time>2026-04-11T07:24:46Z</time></trkpt><trkpt lat="43.21512520717652" lon="12.2865774749906"><ele>552.1999999999999</ele><time>2026-04-11T07:24:47Z</time></trkpt><trkpt lat="43.21517611212107" lon="12.286693314740717"><ele>552.6</ele><time>2026-04-11T07:24:48Z</time></trkpt><trkpt lat="43.21520232481904" lon="12.286790344473822"><ele>553.0</ele><time>2026-04-11T07:24:49Z</time></trkpt><trkpt lat="43.21528918137531" lon="12.286856663961812"><ele>553.0</ele><time>2026-04-11T07:24:50Z</time></trkpt><trkpt lat="43.21535850622728" lon="12.286931078881144"><ele>553.0</ele><time>2026-04-11T07:24:51Z</time></trkpt><trkpt lat="43.21542593633725" lon="12.287020753540027"><ele>553.0</ele><time>2026-04-11T07:24:52Z</time></trkpt><trkpt lat="43.215490104694204" lon="12.287102528125084"><ele>553.0</ele><time>2026-04-11T07:24:53Z</time></trkpt><trkpt lat="43.2155534430372" lon="12.287193886938624"><ele>553.0</ele><time>2026-04-11T07:24:54Z</time></trkpt><trkpt lat="43.21561849818736" lon="12.287273498024762"><ele>553.0</ele><time>2026-04-11T07:24:55Z</time></trkpt><trkpt lat="43.2156821580885" lon="12.287358056536881"><ele>554.1999999999999</ele><time>2026-04-11T07:24:56Z</time></trkpt><trkpt lat="43.215750177118295" lon="12.287409344981176"><ele>555.4</ele><time>2026-04-11T07:24:57Z</time></trkpt><trkpt lat="43.21582935187669" lon="12.287450720936077"><ele>556.5999999999999</ele><time>2026-04-11T07:24:58Z</time></trkpt><trkpt lat="43.21592251683461" lon="12.28746418170342"><ele>557.8</ele><time>2026-04-11T07:24:59Z</time></trkpt><trkpt lat="43.21601741471055" lon="12.287461334035997"><ele>559.0</ele><time>2026-04-11T07:25:00Z</time></trkpt><trkpt lat="43.216119252697474" lon="12.287444406019201"><ele>559.0</ele><time>2026-04-11T07:25:01Z</time></trkpt><trkpt lat="43.216205057169596" lon="12.287424277344773"><ele>559.0</ele><time>2026-04-11T07:25:02Z</time></trkpt><trkpt lat="43.2162959558166" lon="12.287402257182734"><ele>559.0</ele><time>2026-04-11T07:25:03Z</time></trkpt><trkpt lat="43.216385086479676" lon="12.287382125729613"><ele>559.0</ele><time>2026-04-11T07:25:04Z</time></trkpt><trkpt lat="43.21646476043494" lon="12.287356725219002"><ele>559.0</ele><time>2026-04-11T07:25:05Z</time></trkpt><trkpt lat="43.21654538542846" lon="12.287328273325208"><ele>559.0</ele><time>2026-04-11T07:25:06Z</time></trkpt><trkpt lat="43.21662047352084" lon="12.287301851721336"><ele>558.7142857142858</ele><time>2026-04-11T07:25:07Z</time></trkpt><trkpt lat="43.21668912118224" lon="12.287288620018488"><ele>558.4285714285714</ele><time>2026-04-11T07:25:08Z</time></trkpt><trkpt lat="43.216755376636634" lon="12.287286302141949"><ele>558.1428571428571</ele><time>2026-04-11T07:25:09Z</time></trkpt><trkpt lat="43.21682666937627" lon="12.287281803900331"><ele>557.8571428571429</ele><time>2026-04-11T07:25:10Z</time></trkpt><trkpt lat="43.21689293880898" lon="12.287283847219156"><ele>557.5714285714286</ele><time>2026-04-11T07:25:11Z</time></trkpt><trkpt lat="43.21696275508032" lon="12.2873008316318"><ele>557.2857142857143</ele><time>2026-04-11T07:25:12Z</time></trkpt><trkpt lat="43.21702906148626" lon="12.287342644961456"><ele>557.0</ele><time>2026-04-11T07:25:13Z</time></trkpt><trkpt lat="43.217096282444935" lon="12.28738927644295"><ele>557.0</ele><time>2026-04-11T07:25:14Z</time></trkpt><trkpt lat="43.21715186111616" lon="12.287465104177745"><ele>557.0</ele><time>2026-04-11T07:25:15Z</time></trkpt><trkpt lat="43.217208578578955" lon="12.287568985796314"><ele>557.0</ele><time>2026-04-11T07:25:16Z</time></trkpt><trkpt lat="43.21727025608621" lon="12.2877046377853"><ele>557.0</ele><time>2026-04-11T07:25:17Z</time></trkpt><trkpt lat="43.21732167197262" lon="12.287841786725895"><ele>557.0</ele><time>2026-04-11T07:25:18Z</time></trkpt><trkpt lat="43.217372644898525" lon="12.28797166991476"><ele>556.6</ele><time>2026-04-11T07:25:19Z</time></trkpt><trkpt lat="43.21741299264338" lon="12.288084277757182"><ele>556.2</ele><time>2026-04-11T07:25:20Z</time></trkpt><trkpt lat="43.217451678995786" lon="12.288189464574453"><ele>555.8</ele><time>2026-04-11T07:25:21Z</time></trkpt><trkpt lat="43.21749261832476" lon="12.28828040924191"><ele>555.4</ele><time>2026-04-11T07:25:22Z</time></trkpt><trkpt lat="43.217559803416975" lon="12.28836092630854"><ele>555.0</ele><time>2026-04-11T07:25:23Z</time></trkpt><trkpt lat="43.21765263656277" lon="12.288440751696507"><ele>555.0</ele><time>2026-04-11T07:25:24Z</time></trkpt><trkpt lat="43.21774468778809" lon="12.288499271422978"><ele>555.0</ele><time>2026-04-11T07:25:25Z</time></trkpt><trkpt lat="43.21784012153964" lon="12.288551160595617"><ele>555.0</ele><time>2026-04-11T07:25:26Z</time></trkpt><trkpt lat="43.2179357893459" lon="12.288613124433416"><ele>555.0</ele><time>2026-04-11T07:25:27Z</time></trkpt><trkpt lat="43.21803207206384" lon="12.288674872567508"><ele>555.0</ele><time>2026-04-11T07:25:28Z</time></trkpt><trkpt lat="43.21810238193174" lon="12.288741309644598"><ele>553.8</ele><time>2026-04-11T07:25:29Z</time></trkpt><trkpt lat="43.218191255327596" lon="12.288813452758061"><ele>552.6</ele><time>2026-04-11T07:25:30Z</time></trkpt><trkpt lat="43.21827728099317" lon="12.288880529021919"><ele>551.4</ele><time>2026-04-11T07:25:31Z</time></trkpt><trkpt lat="43.218364009844784" lon="12.288919502919258"><ele>550.2</ele><time>2026-04-11T07:25:32Z</time></trkpt><trkpt lat="43.218473034064765" lon="12.288931826684752"><ele>549.0</ele><time>2026-04-11T07:25:33Z</time></trkpt><trkpt lat="43.2185878201967" lon="12.288949049745055"><ele>549.0</ele><time>2026-04-11T07:25:34Z</time></trkpt><trkpt lat="43.21869541282244" lon="12.288972417642745"><ele>549.0</ele><time>2026-04-11T07:25:35Z</time></trkpt><trkpt lat="43.21879722700096" lon="12.28900471472771"><ele>549.0</ele><time>2026-04-11T07:25:36Z</time></trkpt><trkpt lat="43.21889298428079" lon="12.289059250010089"><ele>549.0</ele><time>2026-04-11T07:25:37Z</time></trkpt><trkpt lat="43.218998394887926" lon="12.289097578231653"><ele>549.0</ele><time>2026-04-11T07:25:38Z</time></trkpt><trkpt lat="43.21910379238013" lon="12.289104929764173"><ele>548.0</ele><time>2026-04-11T07:25:39Z</time></trkpt><trkpt lat="43.21922210394306" lon="12.289095964467666"><ele>547.0</ele><time>2026-04-11T07:25:40Z</time></trkpt><trkpt lat="43.219320209466154" lon="12.289087187716534"><ele>546.0</ele><time>2026-04-11T07:25:41Z</time></trkpt><trkpt lat="43.21943404926362" lon="12.28908554851274"><ele>545.0</ele><time>2026-04-11T07:25:42Z</time></trkpt><trkpt lat="43.21955403517978" lon="12.289119107456175"><ele>545.0</ele><time>2026-04-11T07:25:43Z</time></trkpt><trkpt lat="43.219692484426666" lon="12.289168247555567"><ele>545.0</ele><time>2026-04-11T07:25:44Z</time></trkpt><trkpt lat="43.219822564341236" lon="12.289229490130833"><ele>545.0</ele><time>2026-04-11T07:25:45Z</time></trkpt><trkpt lat="43.21994937436208" lon="12.289317441028203"><ele>545.0</ele><time>2026-04-11T07:25:46Z</time></trkpt><trkpt lat="43.220061935148856" lon="12.289409119458874"><ele>543.6</ele><time>2026-04-11T07:25:47Z</time></trkpt><trkpt lat="43.2201653356074" lon="12.289506026870905"><ele>542.2</ele><time>2026-04-11T07:25:48Z</time></trkpt><trkpt lat="43.220254930406256" lon="12.289592047079406"><ele>540.8</ele><time>2026-04-11T07:25:49Z</time></trkpt><trkpt lat="43.22033488446386" lon="12.289664399569002"><ele>539.4</ele><time>2026-04-11T07:25:50Z</time></trkpt><trkpt lat="43.22041766627472" lon="12.289725788296959"><ele>538.0</ele><time>2026-04-11T07:25:51Z</time></trkpt><trkpt lat="43.220520845808316" lon="12.28979396027197"><ele>539.1999999999999</ele><time>2026-04-11T07:25:52Z</time></trkpt><trkpt lat="43.22060368100672" lon="12.289855139928934"><ele>540.4</ele><time>2026-04-11T07:25:53Z</time></trkpt><trkpt lat="43.220692157410916" lon="12.289925887364278"><ele>541.5999999999999</ele><time>2026-04-11T07:25:54Z</time></trkpt><trkpt lat="43.220780400529684" lon="12.290006785315969"><ele>542.8</ele><time>2026-04-11T07:25:55Z</time></trkpt><trkpt lat="43.22086062671839" lon="12.29008503150005"><ele>544.0</ele><time>2026-04-11T07:25:56Z</time></trkpt><trkpt lat="43.22093487169362" lon="12.290175395826882"><ele>544.0</ele><time>2026-04-11T07:25:57Z</time></trkpt><trkpt lat="43.22101772523705" lon="12.290260091188388"><ele>544.0</ele><time>2026-04-11T07:25:58Z</time></trkpt><trkpt lat="43.22109325367981" lon="12.290340552999325"><ele>544.0</ele><time>2026-04-11T07:25:59Z</time></trkpt><trkpt lat="43.221156895892214" lon="12.290423215055085"><ele>544.0</ele><time>2026-04-11T07:26:00Z</time></trkpt><trkpt lat="43.2212124439467" lon="12.290523260366886"><ele>544.0</ele><time>2026-04-11T07:26:01Z</time></trkpt><trkpt lat="43.22126600490709" lon="12.290629701937295"><ele>544.8333333333334</ele><time>2026-04-11T07:26:02Z</time></trkpt><trkpt lat="43.2213147204555" lon="12.29073015604875"><ele>545.6666666666667</ele><time>2026-04-11T07:26:03Z</time></trkpt><trkpt lat="43.22137189223471" lon="12.290813093568913"><ele>546.5</ele><time>2026-04-11T07:26:04Z</time></trkpt><trkpt lat="43.22143720674693" lon="12.290865182411496"><ele>547.3333333333334</ele><time>2026-04-11T07:26:05Z</time></trkpt><trkpt lat="43.22151175310647" lon="12.290887555559866"><ele>548.1666666666666</ele><time>2026-04-11T07:26:06Z</time></trkpt><trkpt lat="43.22159559808492" lon="12.290870920831729"><ele>549.0</ele><time>2026-04-11T07:26:07Z</time></trkpt><trkpt lat="43.221683129775286" lon="12.29083109718515"><ele>549.0</ele><time>2026-04-11T07:26:08Z</time></trkpt><trkpt lat="43.22178999862545" lon="12.290748988230911"><ele>549.0</ele><time>2026-04-11T07:26:09Z</time></trkpt><trkpt lat="43.22190033611704" lon="12.290643810453446"><ele>549.0</ele><time>2026-04-11T07:26:10Z</time></trkpt><trkpt lat="43.22200804399427" lon="12.290555592272208"><ele>549.0</ele><time>2026-04-11T07:26:11Z</time></trkpt><trkpt lat="43.22210352405161" lon="12.290480645410621"><ele>547.2</ele><time>2026-04-11T07:26:12Z</time></trkpt><trkpt lat="43.222198405034696" lon="12.290422692391402"><ele>545.4</ele><time>2026-04-11T07:26:13Z</time></trkpt><trkpt lat="43.222290629217575" lon="12.290344019027554"><ele>543.6</ele><time>2026-04-11T07:26:14Z</time></trkpt><trkpt lat="43.222380590580826" lon="12.290273452981824"><ele>541.8</ele><time>2026-04-11T07:26:15Z</time></trkpt><trkpt lat="43.22247938929122" lon="12.290208778829179"><ele>540.0</ele><time>2026-04-11T07:26:16Z</time></trkpt><trkpt lat="43.222565127476756" lon="12.290139469896037"><ele>540.0</ele><time>2026-04-11T07:26:17Z</time></trkpt><trkpt lat="43.222648546494234" lon="12.29008270122934"><ele>540.0</ele><time>2026-04-11T07:26:18Z</time></trkpt><trkpt lat="43.222727518725065" lon="12.290037860804297"><ele>540.0</ele><time>2026-04-11T07:26:19Z</time></trkpt><trkpt lat="43.22279970717365" lon="12.29001126048149"><ele>540.0</ele><time>2026-04-11T07:26:20Z</time></trkpt><trkpt lat="43.222901053667215" lon="12.290022607723213"><ele>540.0</ele><time>2026-04-11T07:26:22Z</time></trkpt><trkpt lat="43.22299196294397" lon="12.290029400691967"><ele>540.0</ele><time>2026-04-11T07:26:23Z</time></trkpt><trkpt lat="43.22308295965585" lon="12.290062307035724"><ele>540.2</ele><time>2026-04-11T07:26:24Z</time></trkpt><trkpt lat="43.22318057424017" lon="12.290074339811751"><ele>540.4</ele><time>2026-04-11T07:26:25Z</time></trkpt><trkpt lat="43.223277024055776" lon="12.290060457228522"><ele>540.6</ele><time>2026-04-11T07:26:26Z</time></trkpt><trkpt lat="43.223375131925465" lon="12.290037238085414"><ele>540.8</ele><time>2026-04-11T07:26:27Z</time></trkpt><trkpt lat="43.22346438851936" lon="12.290008527063046"><ele>541.0</ele><time>2026-04-11T07:26:28Z</time></trkpt><trkpt lat="43.22354006864056" lon="12.289983939153691"><ele>541.0000000000001</ele><time>2026-04-11T07:26:29Z</time></trkpt><trkpt lat="43.22360999992182" lon="12.289971712399767"><ele>541.0</ele><time>2026-04-11T07:26:30Z</time></trkpt><trkpt lat="43.22367835226685" lon="12.289988486688683"><ele>541.0</ele><time>2026-04-11T07:26:31Z</time></trkpt><trkpt lat="43.22373325924402" lon="12.290040225413746"><ele>541.0</ele><time>2026-04-11T07:26:32Z</time></trkpt><trkpt lat="43.22377698923455" lon="12.290107159917826"><ele>541.0</ele><time>2026-04-11T07:26:33Z</time></trkpt><trkpt lat="43.22381372909507" lon="12.290210718540033"><ele>541.0000000000001</ele><time>2026-04-11T07:26:34Z</time></trkpt><trkpt lat="43.22385224858636" lon="12.2903086790624"><ele>541.0</ele><time>2026-04-11T07:26:35Z</time></trkpt><trkpt lat="43.22390008385677" lon="12.290397237812105"><ele>541.0</ele><time>2026-04-11T07:26:36Z</time></trkpt><trkpt lat="43.223953597457395" lon="12.290468060418052"><ele>541.0</ele><time>2026-04-11T07:26:37Z</time></trkpt><trkpt lat="43.224003103856646" lon="12.290548852695986"><ele>541.0</ele><time>2026-04-11T07:26:38Z</time></trkpt><trkpt lat="43.22404778258275" lon="12.29063679406297"><ele>541.0</ele><time>2026-04-11T07:26:39Z</time></trkpt><trkpt lat="43.224088408509616" lon="12.290733433513278"><ele>541.0</ele><time>2026-04-11T07:26:40Z</time></trkpt><trkpt lat="43.22412600564375" lon="12.2908272013524"><ele>541.0</ele><time>2026-04-11T07:26:41Z</time></trkpt><trkpt lat="43.224153067979636" lon="12.29092147883791"><ele>540.0</ele><time>2026-04-11T07:26:42Z</time></trkpt><trkpt lat="43.22418653266154" lon="12.291019991460688"><ele>539.0</ele><time>2026-04-11T07:26:43Z</time></trkpt><trkpt lat="43.22421098505115" lon="12.29111189488474"><ele>538.0</ele><time>2026-04-11T07:26:44Z</time></trkpt><trkpt lat="43.224228502236656" lon="12.291198095830788"><ele>537.0</ele><time>2026-04-11T07:26:45Z</time></trkpt><trkpt lat="43.224301496336395" lon="12.291322122852403"><ele>536.0</ele><time>2026-04-11T07:26:47Z</time></trkpt><trkpt lat="43.2244310730299" lon="12.291290897523119"><ele>536.0</ele><time>2026-04-11T07:26:49Z</time></trkpt><trkpt lat="43.22450676144726" lon="12.291276975744855"><ele>536.0</ele><time>2026-04-11T07:26:50Z</time></trkpt><trkpt lat="43.224570568563145" lon="12.291240652096958"><ele>536.0</ele><time>2026-04-11T07:26:51Z</time></trkpt><trkpt lat="43.224694902225465" lon="12.291276752345508"><ele>536.0</ele><time>2026-04-11T07:26:53Z</time></trkpt><trkpt lat="43.22474572853751" lon="12.291351579225225"><ele>536.0</ele><time>2026-04-11T07:26:54Z</time></trkpt><trkpt lat="43.224765348274865" lon="12.29146744325714"><ele>536.0</ele><time>2026-04-11T07:26:55Z</time></trkpt><trkpt lat="43.22480782048839" lon="12.291590052610776"><ele>532.4</ele><time>2026-04-11T07:26:56Z</time></trkpt><trkpt lat="43.22483369704514" lon="12.291719380670346"><ele>528.8</ele><time>2026-04-11T07:26:57Z</time></trkpt><trkpt lat="43.22485896674929" lon="12.29184989039104"><ele>525.1999999999999</ele><time>2026-04-11T07:26:58Z</time></trkpt><trkpt lat="43.2248819565014" lon="12.291971045137544"><ele>521.6</ele><time>2026-04-11T07:26:59Z</time></trkpt><trkpt lat="43.22490188563072" lon="12.292073709186914"><ele>518.0</ele><time>2026-04-11T07:27:00Z</time></trkpt><trkpt lat="43.22496093765516" lon="12.292221093317146"><ele>518.0</ele><time>2026-04-11T07:27:02Z</time></trkpt><trkpt lat="43.22509204085756" lon="12.292268689399465"><ele>518.0</ele><time>2026-04-11T07:27:04Z</time></trkpt><trkpt lat="43.22517371022196" lon="12.292254905598645"><ele>518.0</ele><time>2026-04-11T07:27:05Z</time></trkpt><trkpt lat="43.22527115171947" lon="12.292242685157213"><ele>518.0</ele><time>2026-04-11T07:27:06Z</time></trkpt><trkpt lat="43.22537087376699" lon="12.292285779994971"><ele>518.0</ele><time>2026-04-11T07:27:07Z</time></trkpt><trkpt lat="43.22546280953672" lon="12.29235581194338"><ele>518.0</ele><time>2026-04-11T07:27:08Z</time></trkpt><trkpt lat="43.22555759682201" lon="12.292407173867078"><ele>518.0</ele><time>2026-04-11T07:27:09Z</time></trkpt><trkpt lat="43.22564917506488" lon="12.2924158753336"><ele>518.0</ele><time>2026-04-11T07:27:10Z</time></trkpt><trkpt lat="43.22573556810228" lon="12.292421290245992"><ele>518.0</ele><time>2026-04-11T07:27:11Z</time></trkpt><trkpt lat="43.22581853202106" lon="12.292425420618123"><ele>518.0</ele><time>2026-04-11T07:27:12Z</time></trkpt><trkpt lat="43.2259004268633" lon="12.292443401471468"><ele>518.0</ele><time>2026-04-11T07:27:13Z</time></trkpt><trkpt lat="43.22598446926141" lon="12.292468711434928"><ele>518.0</ele><time>2026-04-11T07:27:14Z</time></trkpt><trkpt lat="43.22608186813839" lon="12.292495507682169"><ele>518.0</ele><time>2026-04-11T07:27:15Z</time></trkpt><trkpt lat="43.22617965218224" lon="12.292520398749911"><ele>518.0</ele><time>2026-04-11T07:27:16Z</time></trkpt><trkpt lat="43.22627291669263" lon="12.292544339556455"><ele>518.0</ele><time>2026-04-11T07:27:17Z</time></trkpt><trkpt lat="43.22636259820217" lon="12.292583036333113"><ele>518.0</ele><time>2026-04-11T07:27:18Z</time></trkpt><trkpt lat="43.22644949216763" lon="12.292642189353863"><ele>515.5</ele><time>2026-04-11T07:27:19Z</time></trkpt><trkpt lat="43.22651389855415" lon="12.292707260349916"><ele>513.0</ele><time>2026-04-11T07:27:20Z</time></trkpt><trkpt lat="43.22657266482851" lon="12.292778808965442"><ele>510.5</ele><time>2026-04-11T07:27:21Z</time></trkpt><trkpt lat="43.226617752310304" lon="12.292843679947573"><ele>508.0</ele><time>2026-04-11T07:27:22Z</time></trkpt><trkpt lat="43.22670415000462" lon="12.292898998353316"><ele>505.49999999999994</ele><time>2026-04-11T07:27:24Z</time></trkpt><trkpt lat="43.22679676729501" lon="12.292807362909244"><ele>503.0</ele><time>2026-04-11T07:27:26Z</time></trkpt><trkpt lat="43.226796304943406" lon="12.292625267609095"><ele>502.99999999999994</ele><time>2026-04-11T07:27:28Z</time></trkpt><trkpt lat="43.22678291560528" lon="12.29253244382241"><ele>503.0</ele><time>2026-04-11T07:27:29Z</time></trkpt><trkpt lat="43.22679022624003" lon="12.292446144440904"><ele>503.0</ele><time>2026-04-11T07:27:30Z</time></trkpt><trkpt lat="43.22676158005796" lon="12.292283028199291"><ele>503.0</ele><time>2026-04-11T07:27:32Z</time></trkpt><trkpt lat="43.226774918023" lon="12.29219573734145"><ele>502.99999999999994</ele><time>2026-04-11T07:27:33Z</time></trkpt><trkpt lat="43.226782455284415" lon="12.292044551356671"><ele>503.0</ele><time>2026-04-11T07:27:35Z</time></trkpt><trkpt lat="43.22685058614424" lon="12.2919334056043"><ele>502.99999999999994</ele><time>2026-04-11T07:27:37Z</time></trkpt><trkpt lat="43.22698127073499" lon="12.291962130010544"><ele>503.0</ele><time>2026-04-11T07:27:39Z</time></trkpt><trkpt lat="43.2270469808153" lon="12.292002744766453"><ele>503.0</ele><time>2026-04-11T07:27:40Z</time></trkpt><trkpt lat="43.22710288598292" lon="12.29206566072157"><ele>503.0</ele><time>2026-04-11T07:27:41Z</time></trkpt><trkpt lat="43.22713244772674" lon="12.29215410908184"><ele>502.99999999999994</ele><time>2026-04-11T07:27:42Z</time></trkpt><trkpt lat="43.22713161960528" lon="12.29226126772119"><ele>503.0</ele><time>2026-04-11T07:27:43Z</time></trkpt><trkpt lat="43.22714429537972" lon="12.292348739216315"><ele>502.99999999999994</ele><time>2026-04-11T07:27:44Z</time></trkpt><trkpt lat="43.22719044585083" lon="12.292485873893906"><ele>503.0</ele><time>2026-04-11T07:27:46Z</time></trkpt><trkpt lat="43.22724392293891" lon="12.292553539233657"><ele>503.0</ele><time>2026-04-11T07:27:47Z</time></trkpt><trkpt lat="43.22731170886994" lon="12.29260721820547"><ele>503.0</ele><time>2026-04-11T07:27:48Z</time></trkpt><trkpt lat="43.22738894168081" lon="12.29264603031614"><ele>502.99999999999994</ele><time>2026-04-11T07:27:49Z</time></trkpt><trkpt lat="43.22746482307667" lon="12.292687592931967"><ele>503.0</ele><time>2026-04-11T07:27:50Z</time></trkpt><trkpt lat="43.227548611571784" lon="12.292728383432836"><ele>498.79999999999995</ele><time>2026-04-11T07:27:51Z</time></trkpt><trkpt lat="43.227626743158" lon="12.292761970045028"><ele>494.59999999999997</ele><time>2026-04-11T07:27:52Z</time></trkpt><trkpt lat="43.22771815784602" lon="12.292817867140009"><ele>490.40000000000003</ele><time>2026-04-11T07:27:53Z</time></trkpt><trkpt lat="43.227801979102935" lon="12.292861485206831"><ele>486.20000000000005</ele><time>2026-04-11T07:27:54Z</time></trkpt><trkpt lat="43.22788758061374" lon="12.292901955632685"><ele>482.0</ele><time>2026-04-11T07:27:55Z</time></trkpt><trkpt lat="43.22797591350354" lon="12.292944855912964"><ele>481.99999999999994</ele><time>2026-04-11T07:27:56Z</time></trkpt><trkpt lat="43.2280593745468" lon="12.292986979877902"><ele>482.0</ele><time>2026-04-11T07:27:57Z</time></trkpt><trkpt lat="43.22813733019215" lon="12.293027115780252"><ele>482.0</ele><time>2026-04-11T07:27:58Z</time></trkpt><trkpt lat="43.22821018901317" lon="12.293052379260205"><ele>482.0</ele><time>2026-04-11T07:27:59Z</time></trkpt><trkpt lat="43.228284591818316" lon="12.293064116021133"><ele>481.99999999999994</ele><time>2026-04-11T07:28:00Z</time></trkpt><trkpt lat="43.228363987998804" lon="12.293064584587137"><ele>482.0</ele><time>2026-04-11T07:28:01Z</time></trkpt><trkpt lat="43.22844363726482" lon="12.293048249653578"><ele>479.3333333333333</ele><time>2026-04-11T07:28:02Z</time></trkpt><trkpt lat="43.2285211736663" lon="12.293010151038349"><ele>476.66666666666663</ele><time>2026-04-11T07:28:03Z</time></trkpt><trkpt lat="43.22860299235515" lon="12.292957558473528"><ele>474.0</ele><time>2026-04-11T07:28:04Z</time></trkpt><trkpt lat="43.22868621880718" lon="12.29289166052177"><ele>471.33333333333337</ele><time>2026-04-11T07:28:05Z</time></trkpt><trkpt lat="43.22876147401753" lon="12.292825401954332"><ele>468.6666666666667</ele><time>2026-04-11T07:28:06Z</time></trkpt><trkpt lat="43.22882637004383" lon="12.292761886027016"><ele>466.0</ele><time>2026-04-11T07:28:07Z</time></trkpt><trkpt lat="43.22888265440856" lon="12.292698339728613"><ele>466.00000000000006</ele><time>2026-04-11T07:28:08Z</time></trkpt><trkpt lat="43.228933948467976" lon="12.29263960693291"><ele>466.0</ele><time>2026-04-11T07:28:09Z</time></trkpt><trkpt lat="43.228988000314665" lon="12.29258062425862"><ele>466.0</ele><time>2026-04-11T07:28:10Z</time></trkpt><trkpt lat="43.229051161606854" lon="12.29255342387126"><ele>466.0</ele><time>2026-04-11T07:28:11Z</time></trkpt><trkpt lat="43.229124533819025" lon="12.292574087609202"><ele>466.00000000000006</ele><time>2026-04-11T07:28:12Z</time></trkpt><trkpt lat="43.229204293838826" lon="12.292646909717176"><ele>466.0</ele><time>2026-04-11T07:28:13Z</time></trkpt><trkpt lat="43.229275689895175" lon="12.292726810888212"><ele>464.0</ele><time>2026-04-11T07:28:14Z</time></trkpt><trkpt lat="43.22933473150434" lon="12.29279952568296"><ele>462.0</ele><time>2026-04-11T07:28:15Z</time></trkpt><trkpt lat="43.229390234685155" lon="12.292853834356974"><ele>460.0</ele><time>2026-04-11T07:28:16Z</time></trkpt><trkpt lat="43.22953438634641" lon="12.292739778388372"><ele>458.0</ele><time>2026-04-11T07:28:17Z</time></trkpt><trkpt lat="43.229650752666245" lon="12.292693313576628"><ele>456.0</ele><time>2026-04-11T07:28:18Z</time></trkpt><trkpt lat="43.22976337346249" lon="12.292660015858676"><ele>453.8</ele><time>2026-04-11T07:28:19Z</time></trkpt><trkpt lat="43.2298775440009" lon="12.292655793474157"><ele>451.6</ele><time>2026-04-11T07:28:20Z</time></trkpt><trkpt lat="43.22999354369976" lon="12.29267008401397"><ele>449.4</ele><time>2026-04-11T07:28:21Z</time></trkpt><trkpt lat="43.23010027125171" lon="12.29269479138922"><ele>447.2</ele><time>2026-04-11T07:28:22Z</time></trkpt><trkpt lat="43.23019290739845" lon="12.292710821185079"><ele>445.0</ele><time>2026-04-11T07:28:23Z</time></trkpt><trkpt lat="43.23028268548707" lon="12.29271908351498"><ele>445.00000000000006</ele><time>2026-04-11T07:28:24Z</time></trkpt><trkpt lat="43.230360355723704" lon="12.29272402375424"><ele>445.0</ele><time>2026-04-11T07:28:25Z</time></trkpt><trkpt lat="43.230428707032154" lon="12.292718526451239"><ele>445.0</ele><time>2026-04-11T07:28:26Z</time></trkpt><trkpt lat="43.23049394417902" lon="12.292682933566374"><ele>445.0</ele><time>2026-04-11T07:28:27Z</time></trkpt><trkpt lat="43.23055906582" lon="12.292614531846386"><ele>445.00000000000006</ele><time>2026-04-11T07:28:28Z</time></trkpt><trkpt lat="43.2306150006903" lon="12.292519998933658"><ele>445.0</ele><time>2026-04-11T07:28:29Z</time></trkpt><trkpt lat="43.23066954323245" lon="12.292395881013787"><ele>442.6</ele><time>2026-04-11T07:28:30Z</time></trkpt><trkpt lat="43.23072200727336" lon="12.29226517340065"><ele>440.2</ele><time>2026-04-11T07:28:31Z</time></trkpt><trkpt lat="43.23076758924941" lon="12.292145176943356"><ele>437.79999999999995</ele><time>2026-04-11T07:28:32Z</time></trkpt><trkpt lat="43.23082232950972" lon="12.292049565465158"><ele>435.4</ele><time>2026-04-11T07:28:33Z</time></trkpt><trkpt lat="43.23089545750015" lon="12.29200243936201"><ele>433.0</ele><time>2026-04-11T07:28:34Z</time></trkpt><trkpt lat="43.23098095339927" lon="12.291989928327146"><ele>432.33333333333337</ele><time>2026-04-11T07:28:35Z</time></trkpt><trkpt lat="43.23104608680641" lon="12.29198556006977"><ele>431.6666666666667</ele><time>2026-04-11T07:28:36Z</time></trkpt><trkpt lat="43.2311474655291" lon="12.291906593389465"><ele>431.0</ele><time>2026-04-11T07:28:38Z</time></trkpt><trkpt lat="43.231170044081836" lon="12.291819860854371"><ele>430.33333333333337</ele><time>2026-04-11T07:28:39Z</time></trkpt><trkpt lat="43.23116540364314" lon="12.291713514480469"><ele>429.6666666666667</ele><time>2026-04-11T07:28:40Z</time></trkpt><trkpt lat="43.23114640717891" lon="12.291584611579783"><ele>429.0</ele><time>2026-04-11T07:28:41Z</time></trkpt><trkpt lat="43.23111745054242" lon="12.291464686528938"><ele>427.8333333333333</ele><time>2026-04-11T07:28:42Z</time></trkpt><trkpt lat="43.2311051978098" lon="12.291350079917269"><ele>426.66666666666663</ele><time>2026-04-11T07:28:43Z</time></trkpt><trkpt lat="43.23108585408005" lon="12.291240507702357"><ele>425.5</ele><time>2026-04-11T07:28:44Z</time></trkpt><trkpt lat="43.231077575616446" lon="12.291142093660365"><ele>424.3333333333333</ele><time>2026-04-11T07:28:45Z</time></trkpt><trkpt lat="43.23111238213955" lon="12.291030677031893"><ele>423.16666666666663</ele><time>2026-04-11T07:28:46Z</time></trkpt><trkpt lat="43.23117918991323" lon="12.290954644164879"><ele>422.0</ele><time>2026-04-11T07:28:47Z</time></trkpt><trkpt lat="43.23126441736505" lon="12.290912438911505"><ele>422.0</ele><time>2026-04-11T07:28:48Z</time></trkpt><trkpt lat="43.231362108454036" lon="12.290908982523966"><ele>422.0</ele><time>2026-04-11T07:28:49Z</time></trkpt><trkpt lat="43.23147312770818" lon="12.29094337550763"><ele>422.0</ele><time>2026-04-11T07:28:50Z</time></trkpt><trkpt lat="43.23157552825102" lon="12.290965658490089"><ele>422.0</ele><time>2026-04-11T07:28:51Z</time></trkpt><trkpt lat="43.23167108944929" lon="12.290979501026767"><ele>422.0</ele><time>2026-04-11T07:28:52Z</time></trkpt><trkpt lat="43.23175603500052" lon="12.290952802161724"><ele>420.40000000000003</ele><time>2026-04-11T07:28:53Z</time></trkpt><trkpt lat="43.23183746036099" lon="12.290884210963942"><ele>418.8</ele><time>2026-04-11T07:28:54Z</time></trkpt><trkpt lat="43.23191263547014" lon="12.290794040028493"><ele>417.2</ele><time>2026-04-11T07:28:55Z</time></trkpt><trkpt lat="43.23198419492046" lon="12.290696105567015"><ele>415.6</ele><time>2026-04-11T07:28:56Z</time></trkpt><trkpt lat="43.23205301362326" lon="12.290587877967614"><ele>414.0</ele><time>2026-04-11T07:28:57Z</time></trkpt><trkpt lat="43.23210907960658" lon="12.290475354411731"><ele>413.0</ele><time>2026-04-11T07:28:58Z</time></trkpt><trkpt lat="43.23214179866874" lon="12.290346030842036"><ele>412.0</ele><time>2026-04-11T07:28:59Z</time></trkpt><trkpt lat="43.232150363096075" lon="12.290238183873104"><ele>411.0</ele><time>2026-04-11T07:29:00Z</time></trkpt><trkpt lat="43.23212320250081" lon="12.290055099822444"><ele>410.0</ele><time>2026-04-11T07:29:02Z</time></trkpt><trkpt lat="43.23210367374783" lon="12.289935032948991"><ele>409.0</ele><time>2026-04-11T07:29:03Z</time></trkpt><trkpt lat="43.23209513145736" lon="12.289792156165799"><ele>406.6</ele><time>2026-04-11T07:29:04Z</time></trkpt><trkpt lat="43.23206848628288" lon="12.289665728831222"><ele>404.2</ele><time>2026-04-11T07:29:05Z</time></trkpt><trkpt lat="43.23202876601588" lon="12.289560256480065"><ele>401.8</ele><time>2026-04-11T07:29:06Z</time></trkpt><trkpt lat="43.23198098270298" lon="12.289466207261997"><ele>399.40000000000003</ele><time>2026-04-11T07:29:07Z</time></trkpt><trkpt lat="43.23192060430816" lon="12.289377882471571"><ele>397.0</ele><time>2026-04-11T07:29:08Z</time></trkpt><trkpt lat="43.23183798389366" lon="12.28931064085907"><ele>397.0</ele><time>2026-04-11T07:29:09Z</time></trkpt><trkpt lat="43.23173789221146" lon="12.289238865676095"><ele>397.0</ele><time>2026-04-11T07:29:10Z</time></trkpt><trkpt lat="43.23163151003727" lon="12.289170963940728"><ele>397.0</ele><time>2026-04-11T07:29:11Z</time></trkpt><trkpt lat="43.23153848543314" lon="12.28911084946982"><ele>397.0</ele><time>2026-04-11T07:29:12Z</time></trkpt><trkpt lat="43.23144512699186" lon="12.2890494350631"><ele>397.0</ele><time>2026-04-11T07:29:13Z</time></trkpt><trkpt lat="43.23135691896753" lon="12.288990552919017"><ele>396.7142857142857</ele><time>2026-04-11T07:29:14Z</time></trkpt><trkpt lat="43.231278026087196" lon="12.28892209832205"><ele>396.42857142857144</ele><time>2026-04-11T07:29:15Z</time></trkpt><trkpt lat="43.23121694316701" lon="12.288850848749355"><ele>396.1428571428571</ele><time>2026-04-11T07:29:16Z</time></trkpt><trkpt lat="43.2311828780856" lon="12.288778159577076"><ele>395.8571428571429</ele><time>2026-04-11T07:29:17Z</time></trkpt><trkpt lat="43.231175039299146" lon="12.288689125961236"><ele>395.5714285714286</ele><time>2026-04-11T07:29:18Z</time></trkpt><trkpt lat="43.23119906357809" lon="12.288589931523921"><ele>395.2857142857143</ele><time>2026-04-11T07:29:19Z</time></trkpt><trkpt lat="43.231218708436984" lon="12.288503762770821"><ele>395.0</ele><time>2026-04-11T07:29:20Z</time></trkpt><trkpt lat="43.231192499869834" lon="12.28841159447036"><ele>394.99999999999994</ele><time>2026-04-11T07:29:21Z</time></trkpt><trkpt lat="43.23114363100512" lon="12.28832180333925"><ele>395.0</ele><time>2026-04-11T07:29:22Z</time></trkpt><trkpt lat="43.23110837296123" lon="12.288239268183624"><ele>395.0</ele><time>2026-04-11T07:29:23Z</time></trkpt><trkpt lat="43.23110626602916" lon="12.288148081453917"><ele>395.0</ele><time>2026-04-11T07:29:24Z</time></trkpt><trkpt lat="43.231145162425975" lon="12.288062784166971"><ele>394.99999999999994</ele><time>2026-04-11T07:29:25Z</time></trkpt><trkpt lat="43.23120956199705" lon="12.287997539602319"><ele>395.0</ele><time>2026-04-11T07:29:26Z</time></trkpt><trkpt lat="43.23129274597381" lon="12.287945006622968"><ele>395.8</ele><time>2026-04-11T07:29:27Z</time></trkpt><trkpt lat="43.23137575590447" lon="12.287899943476106"><ele>396.6</ele><time>2026-04-11T07:29:28Z</time></trkpt><trkpt lat="43.23145404938898" lon="12.287839001770765"><ele>397.4</ele><time>2026-04-11T07:29:29Z</time></trkpt><trkpt lat="43.23153075570323" lon="12.287765253376168"><ele>398.2</ele><time>2026-04-11T07:29:30Z</time></trkpt><trkpt lat="43.23161135293126" lon="12.287691540875242"><ele>399.0</ele><time>2026-04-11T07:29:31Z</time></trkpt><trkpt lat="43.23168535113349" lon="12.287611434167879"><ele>395.4</ele><time>2026-04-11T07:29:32Z</time></trkpt><trkpt lat="43.23175693302695" lon="12.287535689857346"><ele>391.79999999999995</ele><time>2026-04-11T07:29:33Z</time></trkpt><trkpt lat="43.23182838421757" lon="12.287461865764953"><ele>388.20000000000005</ele><time>2026-04-11T07:29:34Z</time></trkpt><trkpt lat="43.23189892849545" lon="12.287380043872432"><ele>384.6</ele><time>2026-04-11T07:29:35Z</time></trkpt><trkpt lat="43.23196946999479" lon="12.2872824431891"><ele>381.0</ele><time>2026-04-11T07:29:36Z</time></trkpt><trkpt lat="43.23204159196772" lon="12.287167027863111"><ele>379.6</ele><time>2026-04-11T07:29:37Z</time></trkpt><trkpt lat="43.23210922387166" lon="12.287053623075048"><ele>378.20000000000005</ele><time>2026-04-11T07:29:38Z</time></trkpt><trkpt lat="43.23217377666431" lon="12.286939166985693"><ele>376.79999999999995</ele><time>2026-04-11T07:29:39Z</time></trkpt><trkpt lat="43.23223530884095" lon="12.28682296690943"><ele>375.4</ele><time>2026-04-11T07:29:40Z</time></trkpt><trkpt lat="43.23229604088951" lon="12.286704523169472"><ele>374.0</ele><time>2026-04-11T07:29:41Z</time></trkpt><trkpt lat="43.23235331794883" lon="12.28658718185912"><ele>372.79999999999995</ele><time>2026-04-11T07:29:42Z</time></trkpt><trkpt lat="43.23241760859794" lon="12.286474678981502"><ele>371.59999999999997</ele><time>2026-04-11T07:29:43Z</time></trkpt><trkpt lat="43.23248540450967" lon="12.286369523529775"><ele>370.4</ele><time>2026-04-11T07:29:44Z</time></trkpt><trkpt lat="43.232556879513425" lon="12.286270022583967"><ele>369.2</ele><time>2026-04-11T07:29:45Z</time></trkpt><trkpt lat="43.23261559644606" lon="12.28619099227574"><ele>368.0</ele><time>2026-04-11T07:29:46Z</time></trkpt><trkpt lat="43.23266729197744" lon="12.286128597494343"><ele>368.0</ele><time>2026-04-11T07:29:47Z</time></trkpt><trkpt lat="43.232728971858855" lon="12.286102876630416"><ele>368.0</ele><time>2026-04-11T07:29:48Z</time></trkpt><trkpt lat="43.23280155752627" lon="12.286124226538558"><ele>368.0</ele><time>2026-04-11T07:29:49Z</time></trkpt><trkpt lat="43.232871561018555" lon="12.286188068796726"><ele>368.0</ele><time>2026-04-11T07:29:50Z</time></trkpt><trkpt lat="43.23293338284906" lon="12.286275940036203"><ele>368.0</ele><time>2026-04-11T07:29:51Z</time></trkpt><trkpt lat="43.23298064172919" lon="12.28635653292381"><ele>368.0</ele><time>2026-04-11T07:29:52Z</time></trkpt><trkpt lat="43.233034464772096" lon="12.28642804793081"><ele>368.0</ele><time>2026-04-11T07:29:53Z</time></trkpt><trkpt lat="43.2330962568753" lon="12.286501480008376"><ele>368.0</ele><time>2026-04-11T07:29:54Z</time></trkpt><trkpt lat="43.23314195432262" lon="12.286584536446577"><ele>368.0</ele><time>2026-04-11T07:29:55Z</time></trkpt><trkpt lat="43.233174893278" lon="12.28666566470068"><ele>368.0</ele><time>2026-04-11T07:29:56Z</time></trkpt><trkpt lat="43.23323061884881" lon="12.286790553210478"><ele>368.0</ele><time>2026-04-11T07:29:58Z</time></trkpt><trkpt lat="43.23329172859137" lon="12.286920020215156"><ele>368.0</ele><time>2026-04-11T07:30:00Z</time></trkpt><trkpt lat="43.23335504890059" lon="12.28706338692696"><ele>367.14285714285717</ele><time>2026-04-11T07:30:02Z</time></trkpt><trkpt lat="43.2333911192394" lon="12.287152876373211"><ele>366.2857142857143</ele><time>2026-04-11T07:30:03Z</time></trkpt><trkpt lat="43.23342019379388" lon="12.287241506833457"><ele>365.42857142857144</ele><time>2026-04-11T07:30:04Z</time></trkpt><trkpt lat="43.2334489464263" lon="12.287336396940834"><ele>364.57142857142856</ele><time>2026-04-11T07:30:05Z</time></trkpt><trkpt lat="43.23348065113407" lon="12.287434853151376"><ele>363.71428571428567</ele><time>2026-04-11T07:30:06Z</time></trkpt><trkpt lat="43.23350796742019" lon="12.287530735964664"><ele>362.85714285714283</ele><time>2026-04-11T07:30:07Z</time></trkpt><trkpt lat="43.2335465695323" lon="12.287615886123277"><ele>362.0</ele><time>2026-04-11T07:30:08Z</time></trkpt><trkpt lat="43.233591547864876" lon="12.287688447781305"><ele>362.0</ele><time>2026-04-11T07:30:09Z</time></trkpt><trkpt lat="43.233652062454915" lon="12.287749321720678"><ele>362.0</ele><time>2026-04-11T07:30:10Z</time></trkpt><trkpt lat="43.23371106898893" lon="12.2877889777595"><ele>362.0</ele><time>2026-04-11T07:30:11Z</time></trkpt><trkpt lat="43.233776659994554" lon="12.28781064655015"><ele>362.0</ele><time>2026-04-11T07:30:12Z</time></trkpt><trkpt lat="43.23384142168849" lon="12.28781678448194"><ele>362.0</ele><time>2026-04-11T07:30:13Z</time></trkpt><trkpt lat="43.233965583030574" lon="12.287884834148896"><ele>362.0</ele><time>2026-04-11T07:30:15Z</time></trkpt><trkpt lat="43.23403493376731" lon="12.287984640132771"><ele>359.5</ele><time>2026-04-11T07:30:16Z</time></trkpt><trkpt lat="43.23409379734723" lon="12.288114014748686"><ele>357.0</ele><time>2026-04-11T07:30:17Z</time></trkpt><trkpt lat="43.2341503687207" lon="12.288260266972381"><ele>354.5</ele><time>2026-04-11T07:30:18Z</time></trkpt><trkpt lat="43.23419539835397" lon="12.288399786025808"><ele>352.0</ele><time>2026-04-11T07:30:19Z</time></trkpt><trkpt lat="43.234248953205686" lon="12.288537332372645"><ele>352.0</ele><time>2026-04-11T07:30:20Z</time></trkpt><trkpt lat="43.23431174450762" lon="12.28867545761906"><ele>352.0</ele><time>2026-04-11T07:30:21Z</time></trkpt><trkpt lat="43.234369597252815" lon="12.288815473922194"><ele>352.0</ele><time>2026-04-11T07:30:22Z</time></trkpt><trkpt lat="43.23442203826244" lon="12.288951510680983"><ele>352.0</ele><time>2026-04-11T07:30:23Z</time></trkpt><trkpt lat="43.23447577141281" lon="12.289082367112599"><ele>353.20000000000005</ele><time>2026-04-11T07:30:24Z</time></trkpt><trkpt lat="43.2345307854513" lon="12.28920309978739"><ele>354.4</ele><time>2026-04-11T07:30:25Z</time></trkpt><trkpt lat="43.2345907744556" lon="12.289324473954993"><ele>355.6</ele><time>2026-04-11T07:30:26Z</time></trkpt><trkpt lat="43.234650724585116" lon="12.289446384562252"><ele>356.79999999999995</ele><time>2026-04-11T07:30:27Z</time></trkpt><trkpt lat="43.2347250826888" lon="12.28957976110868"><ele>358.0</ele><time>2026-04-11T07:30:28Z</time></trkpt><trkpt lat="43.23479972891822" lon="12.289709525920882"><ele>354.5</ele><time>2026-04-11T07:30:29Z</time></trkpt><trkpt lat="43.23487046630701" lon="12.289826634477162"><ele>351.0</ele><time>2026-04-11T07:30:30Z</time></trkpt><trkpt lat="43.23494336494808" lon="12.289941074896527"><ele>347.5</ele><time>2026-04-11T07:30:31Z</time></trkpt><trkpt lat="43.235017761195024" lon="12.29005949673742"><ele>344.0</ele><time>2026-04-11T07:30:32Z</time></trkpt><trkpt lat="43.23508972329614" lon="12.290181130996613"><ele>344.0</ele><time>2026-04-11T07:30:33Z</time></trkpt><trkpt lat="43.235162717949066" lon="12.29030577362569"><ele>344.0</ele><time>2026-04-11T07:30:34Z</time></trkpt><trkpt lat="43.23523354617799" lon="12.29043147392889"><ele>344.0</ele><time>2026-04-11T07:30:35Z</time></trkpt><trkpt lat="43.235304477250445" lon="12.290556063261965"><ele>344.0</ele><time>2026-04-11T07:30:36Z</time></trkpt><trkpt lat="43.2353743421357" lon="12.290678624892891"><ele>345.25</ele><time>2026-04-11T07:30:37Z</time></trkpt><trkpt lat="43.23543338062139" lon="12.290806763950151"><ele>346.5</ele><time>2026-04-11T07:30:38Z</time></trkpt><trkpt lat="43.23547444078426" lon="12.290959355157076"><ele>347.75</ele><time>2026-04-11T07:30:39Z</time></trkpt><trkpt lat="43.235505779549385" lon="12.291125207788372"><ele>349.0</ele><time>2026-04-11T07:30:40Z</time></trkpt><trkpt lat="43.23552651739438" lon="12.291291222846153"><ele>351.2</ele><time>2026-04-11T07:30:41Z</time></trkpt><trkpt lat="43.23555810655917" lon="12.29145857483953"><ele>353.4</ele><time>2026-04-11T07:30:42Z</time></trkpt><trkpt lat="43.23558377827317" lon="12.291602704680592"><ele>355.6</ele><time>2026-04-11T07:30:43Z</time></trkpt><trkpt lat="43.23561075348476" lon="12.291741266685806"><ele>357.8</ele><time>2026-04-11T07:30:44Z</time></trkpt><trkpt lat="43.23563561867791" lon="12.291875172009647"><ele>360.0</ele><time>2026-04-11T07:30:45Z</time></trkpt><trkpt lat="43.23566237459409" lon="12.292001914461167"><ele>355.4</ele><time>2026-04-11T07:30:46Z</time></trkpt><trkpt lat="43.235683593735025" lon="12.29212648683705"><ele>350.8</ele><time>2026-04-11T07:30:47Z</time></trkpt><trkpt lat="43.235723498300736" lon="12.292240872319159"><ele>346.20000000000005</ele><time>2026-04-11T07:30:48Z</time></trkpt><trkpt lat="43.23579069220009" lon="12.292339811111582"><ele>341.6</ele><time>2026-04-11T07:30:49Z</time></trkpt><trkpt lat="43.23587279436963" lon="12.292422878314342"><ele>337.0</ele><time>2026-04-11T07:30:50Z</time></trkpt><trkpt lat="43.23596756170343" lon="12.292476430129609"><ele>337.0</ele><time>2026-04-11T07:30:51Z</time></trkpt><trkpt lat="43.236060051755224" lon="12.2925097516473"><ele>337.0</ele><time>2026-04-11T07:30:52Z</time></trkpt><trkpt lat="43.23615194108139" lon="12.292536662943661"><ele>337.0</ele><time>2026-04-11T07:30:53Z</time></trkpt><trkpt lat="43.2362349338077" lon="12.292584036094576"><ele>337.0</ele><time>2026-04-11T07:30:54Z</time></trkpt><trkpt lat="43.23630459125558" lon="12.292663184122668"><ele>337.0</ele><time>2026-04-11T07:30:55Z</time></trkpt><trkpt lat="43.23635706767326" lon="12.29278960751333"><ele>337.0</ele><time>2026-04-11T07:30:56Z</time></trkpt><trkpt lat="43.236374409766704" lon="12.29294109029321"><ele>337.0</ele><time>2026-04-11T07:30:57Z</time></trkpt><trkpt lat="43.23636863555361" lon="12.293110007616304"><ele>337.0</ele><time>2026-04-11T07:30:58Z</time></trkpt><trkpt lat="43.23636547094868" lon="12.293295016752268"><ele>337.0</ele><time>2026-04-11T07:30:59Z</time></trkpt><trkpt lat="43.23636566017805" lon="12.293473905244682"><ele>336.5</ele><time>2026-04-11T07:31:00Z</time></trkpt><trkpt lat="43.23636844032946" lon="12.293654213488955"><ele>336.0</ele><time>2026-04-11T07:31:01Z</time></trkpt><trkpt lat="43.236371032319795" lon="12.293830829509195"><ele>335.5</ele><time>2026-04-11T07:31:02Z</time></trkpt><trkpt lat="43.23636746129579" lon="12.294000461683966"><ele>335.0</ele><time>2026-04-11T07:31:03Z</time></trkpt><trkpt lat="43.23636004855778" lon="12.294166532601752"><ele>334.2</ele><time>2026-04-11T07:31:04Z</time></trkpt><trkpt lat="43.23634729990304" lon="12.294323495351662"><ele>333.4</ele><time>2026-04-11T07:31:05Z</time></trkpt><trkpt lat="43.23631636466348" lon="12.294472123837371"><ele>332.6</ele><time>2026-04-11T07:31:06Z</time></trkpt><trkpt lat="43.2362726495287" lon="12.294591086776503"><ele>331.8</ele><time>2026-04-11T07:31:07Z</time></trkpt><trkpt lat="43.2362365466267" lon="12.294690788900779"><ele>331.0</ele><time>2026-04-11T07:31:08Z</time></trkpt><trkpt lat="43.23619917507402" lon="12.294777783185229"><ele>330.0</ele><time>2026-04-11T07:31:09Z</time></trkpt><trkpt lat="43.236168261640486" lon="12.294855123385979"><ele>329.0</ele><time>2026-04-11T07:31:10Z</time></trkpt><trkpt lat="43.236135700775264" lon="12.295004494379594"><ele>328.0</ele><time>2026-04-11T07:31:12Z</time></trkpt><trkpt lat="43.2361815934991" lon="12.295136603021355"><ele>327.0</ele><time>2026-04-11T07:31:14Z</time></trkpt><trkpt lat="43.23628569774342" lon="12.295219852120631"><ele>326.0</ele><time>2026-04-11T07:31:16Z</time></trkpt><trkpt lat="43.23637144776369" lon="12.295249714409632"><ele>324.8</ele><time>2026-04-11T07:31:17Z</time></trkpt><trkpt lat="43.23648181374583" lon="12.295268858728285"><ele>323.6</ele><time>2026-04-11T07:31:18Z</time></trkpt><trkpt lat="43.23659381346805" lon="12.295272381305272"><ele>322.4</ele><time>2026-04-11T07:31:19Z</time></trkpt><trkpt lat="43.23669782659603" lon="12.295283198177579"><ele>321.2</ele><time>2026-04-11T07:31:20Z</time></trkpt><trkpt lat="43.23679594531559" lon="12.295291129913657"><ele>320.0</ele><time>2026-04-11T07:31:21Z</time></trkpt><trkpt lat="43.236889636962964" lon="12.295298003208943"><ele>320.0</ele><time>2026-04-11T07:31:22Z</time></trkpt><trkpt lat="43.236986951551884" lon="12.295303124845303"><ele>320.0</ele><time>2026-04-11T07:31:23Z</time></trkpt><trkpt lat="43.23708405241625" lon="12.295308083172188"><ele>320.0</ele><time>2026-04-11T07:31:24Z</time></trkpt><trkpt lat="43.237189595107736" lon="12.29531545256893"><ele>320.0</ele><time>2026-04-11T07:31:25Z</time></trkpt><trkpt lat="43.23729116362189" lon="12.29532322342788"><ele>320.0</ele><time>2026-04-11T07:31:26Z</time></trkpt><trkpt lat="43.237389881465205" lon="12.295329314225754"><ele>321.0</ele><time>2026-04-11T07:31:27Z</time></trkpt><trkpt lat="43.23748318664597" lon="12.295339751512829"><ele>322.0</ele><time>2026-04-11T07:31:28Z</time></trkpt><trkpt lat="43.237565780772485" lon="12.295362082324159"><ele>323.0</ele><time>2026-04-11T07:31:29Z</time></trkpt><trkpt lat="43.23764273952353" lon="12.295401171866867"><ele>324.0</ele><time>2026-04-11T07:31:30Z</time></trkpt><trkpt lat="43.23769952714614" lon="12.295459403748376"><ele>325.0</ele><time>2026-04-11T07:31:31Z</time></trkpt><trkpt lat="43.237733195507296" lon="12.295551381263149"><ele>326.0</ele><time>2026-04-11T07:31:32Z</time></trkpt><trkpt lat="43.237745453809104" lon="12.295674248851679"><ele>326.0</ele><time>2026-04-11T07:31:33Z</time></trkpt><trkpt lat="43.237753524054476" lon="12.295811486223075"><ele>326.0</ele><time>2026-04-11T07:31:34Z</time></trkpt><trkpt lat="43.23776644446057" lon="12.295972648847748"><ele>326.0</ele><time>2026-04-11T07:31:35Z</time></trkpt><trkpt lat="43.237786889692075" lon="12.296137438287507"><ele>326.0</ele><time>2026-04-11T07:31:36Z</time></trkpt><trkpt lat="43.237808094456284" lon="12.29629904449437"><ele>326.20000000000005</ele><time>2026-04-11T07:31:37Z</time></trkpt><trkpt lat="43.23782806343968" lon="12.296450242986404"><ele>326.40000000000003</ele><time>2026-04-11T07:31:38Z</time></trkpt><trkpt lat="43.237842217358676" lon="12.296595353087083"><ele>326.6</ele><time>2026-04-11T07:31:39Z</time></trkpt><trkpt lat="43.23785337810633" lon="12.296733458978457"><ele>326.8</ele><time>2026-04-11T07:31:40Z</time></trkpt><trkpt lat="43.23786376941977" lon="12.296864126123236"><ele>327.0</ele><time>2026-04-11T07:31:41Z</time></trkpt><trkpt lat="43.23787008904681" lon="12.29699230569492"><ele>327.0</ele><time>2026-04-11T07:31:42Z</time></trkpt><trkpt lat="43.23787423812183" lon="12.297119827168466"><ele>327.0</ele><time>2026-04-11T07:31:43Z</time></trkpt><trkpt lat="43.23787898956991" lon="12.297246944253903"><ele>327.0</ele><time>2026-04-11T07:31:44Z</time></trkpt><trkpt lat="43.23788587013943" lon="12.297388248271693"><ele>327.0</ele><time>2026-04-11T07:31:45Z</time></trkpt><trkpt lat="43.237888436973385" lon="12.297531047174875"><ele>327.0</ele><time>2026-04-11T07:31:46Z</time></trkpt><trkpt lat="43.23789125894901" lon="12.297683287836783"><ele>326.75</ele><time>2026-04-11T07:31:47Z</time></trkpt><trkpt lat="43.237892306503355" lon="12.29784473964761"><ele>326.5</ele><time>2026-04-11T07:31:48Z</time></trkpt><trkpt lat="43.237894642080256" lon="12.298015989395797"><ele>326.25</ele><time>2026-04-11T07:31:49Z</time></trkpt><trkpt lat="43.2378976491594" lon="12.298183974349065"><ele>326.0</ele><time>2026-04-11T07:31:50Z</time></trkpt><trkpt lat="43.23789689997284" lon="12.298353718432562"><ele>325.5</ele><time>2026-04-11T07:31:51Z</time></trkpt><trkpt lat="43.23789721411356" lon="12.298535183001386"><ele>325.0</ele><time>2026-04-11T07:31:52Z</time></trkpt><trkpt lat="43.23789889972274" lon="12.298726451727894"><ele>324.5</ele><time>2026-04-11T07:31:53Z</time></trkpt><trkpt lat="43.237903262373585" lon="12.298909221483104"><ele>324.0</ele><time>2026-04-11T07:31:54Z</time></trkpt><trkpt lat="43.23790702429045" lon="12.299084605514222"><ele>324.0</ele><time>2026-04-11T07:31:55Z</time></trkpt><trkpt lat="43.23791340400013" lon="12.299275856818882"><ele>324.0</ele><time>2026-04-11T07:31:56Z</time></trkpt><trkpt lat="43.237926399428716" lon="12.299479432162341"><ele>324.0</ele><time>2026-04-11T07:31:57Z</time></trkpt><trkpt lat="43.23794722546124" lon="12.29970210368083"><ele>323.6666666666667</ele><time>2026-04-11T07:31:58Z</time></trkpt><trkpt lat="43.23796935411503" lon="12.299930290350359"><ele>323.33333333333337</ele><time>2026-04-11T07:31:59Z</time></trkpt><trkpt lat="43.237989042449996" lon="12.300134292191242"><ele>323.0</ele><time>2026-04-11T07:32:00Z</time></trkpt><trkpt lat="43.23801061517836" lon="12.300339351849612"><ele>323.0</ele><time>2026-04-11T07:32:01Z</time></trkpt><trkpt lat="43.23802919950538" lon="12.300542095621084"><ele>323.0</ele><time>2026-04-11T07:32:02Z</time></trkpt><trkpt lat="43.238044106222674" lon="12.300741307871245"><ele>323.0</ele><time>2026-04-11T07:32:03Z</time></trkpt><trkpt lat="43.23804680577237" lon="12.300937052569648"><ele>323.0</ele><time>2026-04-11T07:32:04Z</time></trkpt><trkpt lat="43.23803099082469" lon="12.301126197774764"><ele>322.0</ele><time>2026-04-11T07:32:05Z</time></trkpt><trkpt lat="43.23799627063354" lon="12.301306348622186"><ele>321.0</ele><time>2026-04-11T07:32:06Z</time></trkpt><trkpt lat="43.23792969358613" lon="12.301481296700615"><ele>320.0</ele><time>2026-04-11T07:32:07Z</time></trkpt><trkpt lat="43.23785768804368" lon="12.301662229595724"><ele>319.0</ele><time>2026-04-11T07:32:08Z</time></trkpt><trkpt lat="43.23779143200504" lon="12.301833251076834"><ele>319.0</ele><time>2026-04-11T07:32:09Z</time></trkpt><trkpt lat="43.237726112624316" lon="12.302006174622438"><ele>319.0</ele><time>2026-04-11T07:32:10Z</time></trkpt><trkpt lat="43.237659815699594" lon="12.302182371169776"><ele>319.0</ele><time>2026-04-11T07:32:11Z</time></trkpt><trkpt lat="43.23759516742813" lon="12.30235585610595"><ele>319.0</ele><time>2026-04-11T07:32:12Z</time></trkpt><trkpt lat="43.237528072466134" lon="12.302530580887575"><ele>320.25</ele><time>2026-04-11T07:32:13Z</time></trkpt><trkpt lat="43.237461598347075" lon="12.30270283644464"><ele>321.5</ele><time>2026-04-11T07:32:14Z</time></trkpt><trkpt lat="43.23739666099598" lon="12.302870637162576"><ele>322.75</ele><time>2026-04-11T07:32:15Z</time></trkpt><trkpt lat="43.237331527022214" lon="12.303035182901677"><ele>324.0</ele><time>2026-04-11T07:32:16Z</time></trkpt><trkpt lat="43.23727190243378" lon="12.303204821387112"><ele>321.5</ele><time>2026-04-11T07:32:17Z</time></trkpt><trkpt lat="43.237232999286135" lon="12.30338408056556"><ele>319.0</ele><time>2026-04-11T07:32:18Z</time></trkpt><trkpt lat="43.23721521108534" lon="12.303576970494072"><ele>316.5</ele><time>2026-04-11T07:32:19Z</time></trkpt><trkpt lat="43.23720347999104" lon="12.30379057251085"><ele>314.0</ele><time>2026-04-11T07:32:20Z</time></trkpt><trkpt lat="43.23719442574798" lon="12.304011703773492"><ele>314.0</ele><time>2026-04-11T07:32:21Z</time></trkpt><trkpt lat="43.23718725217774" lon="12.304225799331784"><ele>314.0</ele><time>2026-04-11T07:32:22Z</time></trkpt><trkpt lat="43.237176772696046" lon="12.304433482491033"><ele>314.0</ele><time>2026-04-11T07:32:23Z</time></trkpt><trkpt lat="43.23716647282911" lon="12.304639663347691"><ele>313.6666666666667</ele><time>2026-04-11T07:32:24Z</time></trkpt><trkpt lat="43.237153548809204" lon="12.304844487396664"><ele>313.3333333333333</ele><time>2026-04-11T07:32:25Z</time></trkpt><trkpt lat="43.237140131659444" lon="12.305056039638753"><ele>313.0</ele><time>2026-04-11T07:32:26Z</time></trkpt><trkpt lat="43.237126727310034" lon="12.305276136569931"><ele>313.0</ele><time>2026-04-11T07:32:27Z</time></trkpt><trkpt lat="43.237113936318245" lon="12.305501818013386"><ele>313.0</ele><time>2026-04-11T07:32:28Z</time></trkpt><trkpt lat="43.23710039442831" lon="12.305729522147592"><ele>313.0</ele><time>2026-04-11T07:32:29Z</time></trkpt><trkpt lat="43.23708990486326" lon="12.305960180786434"><ele>312.3333333333333</ele><time>2026-04-11T07:32:30Z</time></trkpt><trkpt lat="43.23707775552229" lon="12.306187387029134"><ele>311.6666666666667</ele><time>2026-04-11T07:32:31Z</time></trkpt><trkpt lat="43.23706828290066" lon="12.306398433349669"><ele>311.0</ele><time>2026-04-11T07:32:32Z</time></trkpt><trkpt lat="43.237056682292945" lon="12.306611200979575"><ele>311.0</ele><time>2026-04-11T07:32:33Z</time></trkpt><trkpt lat="43.23704425034478" lon="12.306823312282267"><ele>311.0</ele><time>2026-04-11T07:32:34Z</time></trkpt><trkpt lat="43.2370345720687" lon="12.30703799982759"><ele>311.0</ele><time>2026-04-11T07:32:35Z</time></trkpt><trkpt lat="43.23702089591933" lon="12.307254938322775"><ele>310.6666666666667</ele><time>2026-04-11T07:32:36Z</time></trkpt><trkpt lat="43.237006480101044" lon="12.307472792470392"><ele>310.3333333333333</ele><time>2026-04-11T07:32:37Z</time></trkpt><trkpt lat="43.2369949675836" lon="12.3076993076149"><ele>310.0</ele><time>2026-04-11T07:32:38Z</time></trkpt><trkpt lat="43.23698854740097" lon="12.307923907306062"><ele>309.75</ele><time>2026-04-11T07:32:39Z</time></trkpt><trkpt lat="43.23698831049981" lon="12.308135761902482"><ele>309.5</ele><time>2026-04-11T07:32:40Z</time></trkpt><trkpt lat="43.23700000631215" lon="12.308331589713662"><ele>309.25</ele><time>2026-04-11T07:32:41Z</time></trkpt><trkpt lat="43.23702381566486" lon="12.308536244077901"><ele>309.0</ele><time>2026-04-11T07:32:42Z</time></trkpt><trkpt lat="43.23706874699642" lon="12.308736213152716"><ele>308.6666666666667</ele><time>2026-04-11T07:32:43Z</time></trkpt><trkpt lat="43.2371197380822" lon="12.30892673256747"><ele>308.33333333333337</ele><time>2026-04-11T07:32:44Z</time></trkpt><trkpt lat="43.23717212061416" lon="12.309119408857393"><ele>308.0</ele><time>2026-04-11T07:32:45Z</time></trkpt><trkpt lat="43.23722170477584" lon="12.309318062837539"><ele>308.0</ele><time>2026-04-11T07:32:46Z</time></trkpt><trkpt lat="43.23726807096347" lon="12.309513463356485"><ele>308.0</ele><time>2026-04-11T07:32:47Z</time></trkpt><trkpt lat="43.23731641694672" lon="12.309703085604378"><ele>308.0</ele><time>2026-04-11T07:32:48Z</time></trkpt><trkpt lat="43.23736846862478" lon="12.309884998210538"><ele>308.0</ele><time>2026-04-11T07:32:49Z</time></trkpt><trkpt lat="43.23742009147666" lon="12.310058976459421"><ele>308.5</ele><time>2026-04-11T07:32:50Z</time></trkpt><trkpt lat="43.23746873163336" lon="12.310223703325251"><ele>309.0</ele><time>2026-04-11T07:32:51Z</time></trkpt><trkpt lat="43.237531947864" lon="12.310391399198506"><ele>309.5</ele><time>2026-04-11T07:32:52Z</time></trkpt><trkpt lat="43.237614855433435" lon="12.310554611749836"><ele>310.0</ele><time>2026-04-11T07:32:53Z</time></trkpt><trkpt lat="43.23771630509628" lon="12.310709283506217"><ele>310.0</ele><time>2026-04-11T07:32:54Z</time></trkpt><trkpt lat="43.23782743964162" lon="12.31086350608061"><ele>310.0</ele><time>2026-04-11T07:32:55Z</time></trkpt><trkpt lat="43.237933053519384" lon="12.311009396904613"><ele>310.0</ele><time>2026-04-11T07:32:56Z</time></trkpt><trkpt lat="43.23802868938996" lon="12.311151276348545"><ele>310.0</ele><time>2026-04-11T07:32:57Z</time></trkpt><trkpt lat="43.238112323977205" lon="12.311294632375855"><ele>310.75</ele><time>2026-04-11T07:32:58Z</time></trkpt><trkpt lat="43.23818288472721" lon="12.311447149322026"><ele>311.5</ele><time>2026-04-11T07:32:59Z</time></trkpt><trkpt lat="43.23823452301402" lon="12.311613474266286"><ele>312.25</ele><time>2026-04-11T07:33:00Z</time></trkpt><trkpt lat="43.23826090332386" lon="12.311788359658108"><ele>313.0</ele><time>2026-04-11T07:33:01Z</time></trkpt><trkpt lat="43.238276914598146" lon="12.311977311954642"><ele>313.0</ele><time>2026-04-11T07:33:02Z</time></trkpt><trkpt lat="43.23829277330614" lon="12.312173058675128"><ele>313.0</ele><time>2026-04-11T07:33:03Z</time></trkpt><trkpt lat="43.238314391998486" lon="12.312358421688444"><ele>313.0</ele><time>2026-04-11T07:33:04Z</time></trkpt><trkpt lat="43.23833867415172" lon="12.312535269632491"><ele>313.0</ele><time>2026-04-11T07:33:05Z</time></trkpt><trkpt lat="43.238365446730676" lon="12.312711183988057"><ele>313.0</ele><time>2026-04-11T07:33:06Z</time></trkpt><trkpt lat="43.238382718730264" lon="12.312875481622712"><ele>313.0</ele><time>2026-04-11T07:33:07Z</time></trkpt><trkpt lat="43.23838450596502" lon="12.31302939195469"><ele>313.0</ele><time>2026-04-11T07:33:08Z</time></trkpt><trkpt lat="43.23836229342105" lon="12.313182500940366"><ele>313.0</ele><time>2026-04-11T07:33:09Z</time></trkpt><trkpt lat="43.238296077917084" lon="12.31333987084584"><ele>313.0</ele><time>2026-04-11T07:33:10Z</time></trkpt><trkpt lat="43.23820061430672" lon="12.313508208130093"><ele>313.0</ele><time>2026-04-11T07:33:11Z</time></trkpt><trkpt lat="43.23809453185556" lon="12.313680678244037"><ele>313.0</ele><time>2026-04-11T07:33:12Z</time></trkpt><trkpt lat="43.2380046628523" lon="12.313847937847415"><ele>310.5</ele><time>2026-04-11T07:33:13Z</time></trkpt><trkpt lat="43.2379297937785" lon="12.314016162033107"><ele>308.0</ele><time>2026-04-11T07:33:14Z</time></trkpt><trkpt lat="43.23786164560771" lon="12.314195436817812"><ele>305.5</ele><time>2026-04-11T07:33:15Z</time></trkpt><trkpt lat="43.23780385513529" lon="12.31437185585752"><ele>303.0</ele><time>2026-04-11T07:33:16Z</time></trkpt><trkpt lat="43.2377497380786" lon="12.314551278382906"><ele>303.0</ele><time>2026-04-11T07:33:17Z</time></trkpt><trkpt lat="43.2377036259707" lon="12.314734440964472"><ele>303.0</ele><time>2026-04-11T07:33:18Z</time></trkpt><trkpt lat="43.23766260155561" lon="12.314916987753623"><ele>303.0</ele><time>2026-04-11T07:33:19Z</time></trkpt><trkpt lat="43.23762916489006" lon="12.315104806436723"><ele>303.0</ele><time>2026-04-11T07:33:20Z</time></trkpt><trkpt lat="43.23759844193313" lon="12.31527787001943"><ele>303.0</ele><time>2026-04-11T07:33:21Z</time></trkpt><trkpt lat="43.23756991214984" lon="12.315447244922305"><ele>303.0</ele><time>2026-04-11T07:33:22Z</time></trkpt><trkpt lat="43.23754989965004" lon="12.315603376766903"><ele>303.0</ele><time>2026-04-11T07:33:23Z</time></trkpt><trkpt lat="43.23753826180573" lon="12.31574142368549"><ele>303.0</ele><time>2026-04-11T07:33:24Z</time></trkpt><trkpt lat="43.2375342875293" lon="12.315858901727012"><ele>303.0</ele><time>2026-04-11T07:33:25Z</time></trkpt><trkpt lat="43.23753722677319" lon="12.315954613993114"><ele>302.6</ele><time>2026-04-11T07:33:26Z</time></trkpt><trkpt lat="43.23757360422111" lon="12.31608887442848"><ele>302.20000000000005</ele><time>2026-04-11T07:33:28Z</time></trkpt><trkpt lat="43.23765449841857" lon="12.316181235077405"><ele>301.8</ele><time>2026-04-11T07:33:30Z</time></trkpt><trkpt lat="43.23772429971403" lon="12.316225280744622"><ele>301.40000000000003</ele><time>2026-04-11T07:33:31Z</time></trkpt><trkpt lat="43.23779798919143" lon="12.316266827623972"><ele>301.0</ele><time>2026-04-11T07:33:32Z</time></trkpt><trkpt lat="43.23788155066387" lon="12.316314379770565"><ele>301.0</ele><time>2026-04-11T07:33:33Z</time></trkpt><trkpt lat="43.237982839565106" lon="12.316380613585176"><ele>301.0</ele><time>2026-04-11T07:33:34Z</time></trkpt><trkpt lat="43.23807577934986" lon="12.316473751790866"><ele>301.0</ele><time>2026-04-11T07:33:35Z</time></trkpt><trkpt lat="43.23818148806014" lon="12.316574674377941"><ele>301.0</ele><time>2026-04-11T07:33:36Z</time></trkpt><trkpt lat="43.238301054880395" lon="12.316686576026623"><ele>302.3333333333333</ele><time>2026-04-11T07:33:37Z</time></trkpt><trkpt lat="43.23841927574325" lon="12.316802336900908"><ele>303.6666666666667</ele><time>2026-04-11T07:33:38Z</time></trkpt><trkpt lat="43.23854536786868" lon="12.31692143615551"><ele>305.0</ele><time>2026-04-11T07:33:39Z</time></trkpt><trkpt lat="43.23867820827235" lon="12.317039878862102"><ele>305.0</ele><time>2026-04-11T07:33:40Z</time></trkpt><trkpt lat="43.23881327633279" lon="12.317151574331893"><ele>305.0</ele><time>2026-04-11T07:33:41Z</time></trkpt><trkpt lat="43.23895081311198" lon="12.317265798597502"><ele>305.0</ele><time>2026-04-11T07:33:42Z</time></trkpt><trkpt lat="43.23909534273279" lon="12.317375032392249"><ele>304.6666666666667</ele><time>2026-04-11T07:33:43Z</time></trkpt><trkpt lat="43.23923706410703" lon="12.317477003265926"><ele>304.3333333333333</ele><time>2026-04-11T07:33:44Z</time></trkpt><trkpt lat="43.23937195709807" lon="12.31758309090696"><ele>304.0</ele><time>2026-04-11T07:33:45Z</time></trkpt><trkpt lat="43.23949428795856" lon="12.317701421536212"><ele>304.0</ele><time>2026-04-11T07:33:46Z</time></trkpt><trkpt lat="43.239615169608186" lon="12.31783120062168"><ele>304.0</ele><time>2026-04-11T07:33:47Z</time></trkpt><trkpt lat="43.23972838542654" lon="12.317965889838382"><ele>304.0</ele><time>2026-04-11T07:33:48Z</time></trkpt><trkpt lat="43.23985491183785" lon="12.318090653056403"><ele>304.3333333333333</ele><time>2026-04-11T07:33:49Z</time></trkpt><trkpt lat="43.23999766995375" lon="12.3181959065221"><ele>304.6666666666667</ele><time>2026-04-11T07:33:50Z</time></trkpt><trkpt lat="43.24015429178465" lon="12.318284773593144"><ele>305.0</ele><time>2026-04-11T07:33:51Z</time></trkpt><trkpt lat="43.24032448829219" lon="12.318367191239114"><ele>305.0</ele><time>2026-04-11T07:33:52Z</time></trkpt><trkpt lat="43.24050011362517" lon="12.318454144215622"><ele>305.0</ele><time>2026-04-11T07:33:53Z</time></trkpt><trkpt lat="43.24065863687171" lon="12.318543613588076"><ele>305.0</ele><time>2026-04-11T07:33:54Z</time></trkpt><trkpt lat="43.24080409655771" lon="12.318644547998911"><ele>303.6666666666667</ele><time>2026-04-11T07:33:55Z</time></trkpt><trkpt lat="43.24094299515707" lon="12.318753082472009"><ele>302.3333333333333</ele><time>2026-04-11T07:33:56Z</time></trkpt><trkpt lat="43.24105908421522" lon="12.31888579132546"><ele>301.0</ele><time>2026-04-11T07:33:57Z</time></trkpt><trkpt lat="43.24115282762932" lon="12.319049538151585"><ele>301.0</ele><time>2026-04-11T07:33:58Z</time></trkpt><trkpt lat="43.241227637999614" lon="12.319227613323344"><ele>301.0</ele><time>2026-04-11T07:33:59Z</time></trkpt><trkpt lat="43.24128401885076" lon="12.319416836715181"><ele>301.0</ele><time>2026-04-11T07:34:00Z</time></trkpt><trkpt lat="43.2413120484329" lon="12.319631537059218"><ele>300.0</ele><time>2026-04-11T07:34:01Z</time></trkpt><trkpt lat="43.241334394513785" lon="12.319849966364703"><ele>299.0</ele><time>2026-04-11T07:34:02Z</time></trkpt><trkpt lat="43.241359751808886" lon="12.320060763023278"><ele>298.0</ele><time>2026-04-11T07:34:03Z</time></trkpt><trkpt lat="43.241395425270504" lon="12.320269823688198"><ele>298.0</ele><time>2026-04-11T07:34:04Z</time></trkpt><trkpt lat="43.2414594395814" lon="12.320476657236883"><ele>298.0</ele><time>2026-04-11T07:34:05Z</time></trkpt><trkpt lat="43.24155481442082" lon="12.320660300559272"><ele>298.0</ele><time>2026-04-11T07:34:06Z</time></trkpt><trkpt lat="43.24167692294588" lon="12.320813891876444"><ele>303.0</ele><time>2026-04-11T07:34:07Z</time></trkpt><trkpt lat="43.241802609424994" lon="12.32096230436222"><ele>308.0</ele><time>2026-04-11T07:34:08Z</time></trkpt><trkpt lat="43.241893558672025" lon="12.321140484492199"><ele>313.0</ele><time>2026-04-11T07:34:09Z</time></trkpt><trkpt lat="43.241948396865354" lon="12.32136926493555"><ele>310.0</ele><time>2026-04-11T07:34:10Z</time></trkpt><trkpt lat="43.2419736724777" lon="12.321616567643881"><ele>307.0</ele><time>2026-04-11T07:34:11Z</time></trkpt><trkpt lat="43.24198701789434" lon="12.321859997710142"><ele>304.0</ele><time>2026-04-11T07:34:12Z</time></trkpt><trkpt lat="43.242000594909086" lon="12.322081173983436"><ele>304.0</ele><time>2026-04-11T07:34:13Z</time></trkpt><trkpt lat="43.2420216357933" lon="12.322294553705065"><ele>304.0</ele><time>2026-04-11T07:34:14Z</time></trkpt><trkpt lat="43.24203581344343" lon="12.322503403093991"><ele>304.0</ele><time>2026-04-11T07:34:15Z</time></trkpt><trkpt lat="43.24202766321433" lon="12.322705229114645"><ele>304.0</ele><time>2026-04-11T07:34:16Z</time></trkpt><trkpt lat="43.24198702306591" lon="12.322893608912398"><ele>304.0</ele><time>2026-04-11T07:34:17Z</time></trkpt><trkpt lat="43.24191799941008" lon="12.323060014476841"><ele>304.0</ele><time>2026-04-11T07:34:18Z</time></trkpt><trkpt lat="43.24183122670644" lon="12.323212368737783"><ele>304.0</ele><time>2026-04-11T07:34:19Z</time></trkpt><trkpt lat="43.24174477854385" lon="12.32337119758583"><ele>302.5</ele><time>2026-04-11T07:34:20Z</time></trkpt><trkpt lat="43.24165679396378" lon="12.323525518910971"><ele>301.0</ele><time>2026-04-11T07:34:21Z</time></trkpt><trkpt lat="43.24155268213908" lon="12.323661648747303"><ele>299.5</ele><time>2026-04-11T07:34:22Z</time></trkpt><trkpt lat="43.241425043768345" lon="12.323787509341912"><ele>298.0</ele><time>2026-04-11T07:34:23Z</time></trkpt><trkpt lat="43.24129035283847" lon="12.3239006049969"><ele>302.25</ele><time>2026-04-11T07:34:24Z</time></trkpt><trkpt lat="43.241160413812544" lon="12.323990240268097"><ele>306.5</ele><time>2026-04-11T07:34:25Z</time></trkpt><trkpt lat="43.241033598207224" lon="12.324069525960693"><ele>310.75</ele><time>2026-04-11T07:34:26Z</time></trkpt><trkpt lat="43.24092162534673" lon="12.324158518405309"><ele>315.0</ele><time>2026-04-11T07:34:27Z</time></trkpt><trkpt lat="43.240826547499644" lon="12.324264318451268"><ele>315.0</ele><time>2026-04-11T07:34:28Z</time></trkpt><trkpt lat="43.240753672477815" lon="12.324401117409494"><ele>315.0</ele><time>2026-04-11T07:34:29Z</time></trkpt><trkpt lat="43.24071548529151" lon="12.324559573621737"><ele>315.0</ele><time>2026-04-11T07:34:30Z</time></trkpt><trkpt lat="43.24072309277264" lon="12.324742945381033"><ele>315.0</ele><time>2026-04-11T07:34:31Z</time></trkpt><trkpt lat="43.24075113480809" lon="12.324939206088091"><ele>314.75</ele><time>2026-04-11T07:34:32Z</time></trkpt><trkpt lat="43.240793558619465" lon="12.325134146369724"><ele>314.5</ele><time>2026-04-11T07:34:33Z</time></trkpt><trkpt lat="43.240846903456735" lon="12.325313179366425"><ele>314.25</ele><time>2026-04-11T07:34:34Z</time></trkpt><trkpt lat="43.240926024741285" lon="12.325475227622471"><ele>314.0</ele><time>2026-04-11T07:34:35Z</time></trkpt><trkpt lat="43.24103908706081" lon="12.325616646231124"><ele>314.0</ele><time>2026-04-11T07:34:36Z</time></trkpt><trkpt lat="43.24117272495369" lon="12.325752091518059"><ele>314.0</ele><time>2026-04-11T07:34:37Z</time></trkpt><trkpt lat="43.24130230648058" lon="12.325898958769235"><ele>314.0</ele><time>2026-04-11T07:34:38Z</time></trkpt><trkpt lat="43.24142948400639" lon="12.326051203156613"><ele>316.0</ele><time>2026-04-11T07:34:39Z</time></trkpt><trkpt lat="43.24154159532529" lon="12.326198143504064"><ele>318.0</ele><time>2026-04-11T07:34:40Z</time></trkpt><trkpt lat="43.241640337083325" lon="12.326338574046561"><ele>320.0</ele><time>2026-04-11T07:34:41Z</time></trkpt><trkpt lat="43.241721590630746" lon="12.326487126972836"><ele>322.0</ele><time>2026-04-11T07:34:42Z</time></trkpt><trkpt lat="43.24178606738639" lon="12.326640968888483"><ele>322.0</ele><time>2026-04-11T07:34:43Z</time></trkpt><trkpt lat="43.2418665125043" lon="12.326774433827813"><ele>322.0</ele><time>2026-04-11T07:34:44Z</time></trkpt><trkpt lat="43.241981674713344" lon="12.32687307165844"><ele>322.0</ele><time>2026-04-11T07:34:45Z</time></trkpt><trkpt lat="43.24212017200114" lon="12.326915363094326"><ele>322.0</ele><time>2026-04-11T07:34:46Z</time></trkpt><trkpt lat="43.24227038748345" lon="12.326903051117151"><ele>326.66666666666663</ele><time>2026-04-11T07:34:47Z</time></trkpt><trkpt lat="43.242425362745095" lon="12.326862467335715"><ele>331.3333333333333</ele><time>2026-04-11T07:34:48Z</time></trkpt><trkpt lat="43.2425812747246" lon="12.326827008631426"><ele>336.0</ele><time>2026-04-11T07:34:49Z</time></trkpt><trkpt lat="43.24273848868264" lon="12.326808702019955"><ele>336.0</ele><time>2026-04-11T07:34:50Z</time></trkpt><trkpt lat="43.24288072419565" lon="12.326798726656225"><ele>336.0</ele><time>2026-04-11T07:34:51Z</time></trkpt><trkpt lat="43.2430101622393" lon="12.326756144276015"><ele>336.0</ele><time>2026-04-11T07:34:52Z</time></trkpt><trkpt lat="43.24311761542133" lon="12.326646571335635"><ele>336.0</ele><time>2026-04-11T07:34:53Z</time></trkpt><trkpt lat="43.243216076776534" lon="12.326502894369709"><ele>338.0</ele><time>2026-04-11T07:34:54Z</time></trkpt><trkpt lat="43.24329700954601" lon="12.326317048537444"><ele>340.0</ele><time>2026-04-11T07:34:55Z</time></trkpt><trkpt lat="43.243381894407456" lon="12.326112874466476"><ele>342.0</ele><time>2026-04-11T07:34:56Z</time></trkpt><trkpt lat="43.24347162950806" lon="12.32591057348324"><ele>342.0</ele><time>2026-04-11T07:34:57Z</time></trkpt><trkpt lat="43.24356921714833" lon="12.325724169281692"><ele>342.0</ele><time>2026-04-11T07:34:58Z</time></trkpt><trkpt lat="43.24366820765874" lon="12.325555748520399"><ele>342.0</ele><time>2026-04-11T07:34:59Z</time></trkpt><trkpt lat="43.24376437470195" lon="12.325399876759354"><ele>344.5</ele><time>2026-04-11T07:35:00Z</time></trkpt><trkpt lat="43.24385237929064" lon="12.325256335984559"><ele>347.0</ele><time>2026-04-11T07:35:01Z</time></trkpt><trkpt lat="43.243949653116175" lon="12.325122332343545"><ele>349.5</ele><time>2026-04-11T07:35:02Z</time></trkpt><trkpt lat="43.244055503425436" lon="12.325015814864338"><ele>352.0</ele><time>2026-04-11T07:35:03Z</time></trkpt><trkpt lat="43.244185920382506" lon="12.324930166807968"><ele>352.0</ele><time>2026-04-11T07:35:04Z</time></trkpt><trkpt lat="43.244337420468845" lon="12.3248493901016"><ele>352.0</ele><time>2026-04-11T07:35:05Z</time></trkpt><trkpt lat="43.24448962045688" lon="12.324757628274813"><ele>352.0</ele><time>2026-04-11T07:35:06Z</time></trkpt><trkpt lat="43.244637161113715" lon="12.324665555793443"><ele>357.3333333333333</ele><time>2026-04-11T07:35:07Z</time></trkpt><trkpt lat="43.244782365331254" lon="12.324562116340207"><ele>362.6666666666667</ele><time>2026-04-11T07:35:08Z</time></trkpt><trkpt lat="43.24492421595246" lon="12.324475147711086"><ele>368.0</ele><time>2026-04-11T07:35:09Z</time></trkpt><trkpt lat="43.24506404997527" lon="12.324399365149901"><ele>368.0</ele><time>2026-04-11T07:35:10Z</time></trkpt><trkpt lat="43.24520074630656" lon="12.324333273629433"><ele>368.0</ele><time>2026-04-11T07:35:11Z</time></trkpt><trkpt lat="43.245342584116415" lon="12.3242683130269"><ele>368.0</ele><time>2026-04-11T07:35:12Z</time></trkpt><trkpt lat="43.24548462898463" lon="12.324187306113483"><ele>368.0</ele><time>2026-04-11T07:35:13Z</time></trkpt><trkpt lat="43.24563080040259" lon="12.324078614462067"><ele>370.33333333333337</ele><time>2026-04-11T07:35:14Z</time></trkpt><trkpt lat="43.24577756763447" lon="12.323941145074835"><ele>372.6666666666667</ele><time>2026-04-11T07:35:15Z</time></trkpt><trkpt lat="43.245915327192805" lon="12.32380012487082"><ele>375.0</ele><time>2026-04-11T07:35:16Z</time></trkpt><trkpt lat="43.24602983754539" lon="12.323667590651535"><ele>375.0</ele><time>2026-04-11T07:35:17Z</time></trkpt><trkpt lat="43.24615212811454" lon="12.323540071855554"><ele>375.0</ele><time>2026-04-11T07:35:18Z</time></trkpt><trkpt lat="43.24626104004239" lon="12.323399802923472"><ele>375.0</ele><time>2026-04-11T07:35:19Z</time></trkpt><trkpt lat="43.24636316530005" lon="12.323267876513261"><ele>375.0</ele><time>2026-04-11T07:35:20Z</time></trkpt><trkpt lat="43.24646156733155" lon="12.32316041824475"><ele>374.75</ele><time>2026-04-11T07:35:21Z</time></trkpt><trkpt lat="43.24657653220183" lon="12.32309404760901"><ele>374.5</ele><time>2026-04-11T07:35:22Z</time></trkpt><trkpt lat="43.24670945502597" lon="12.323061729939589"><ele>374.25</ele><time>2026-04-11T07:35:23Z</time></trkpt><trkpt lat="43.24686004449705" lon="12.323070765409284"><ele>374.0</ele><time>2026-04-11T07:35:24Z</time></trkpt><trkpt lat="43.24702672767564" lon="12.323117612553139"><ele>372.6666666666667</ele><time>2026-04-11T07:35:25Z</time></trkpt><trkpt lat="43.24721691877266" lon="12.323170320310657"><ele>371.3333333333333</ele><time>2026-04-11T07:35:26Z</time></trkpt><trkpt lat="43.24742649575182" lon="12.32321281455251"><ele>370.0</ele><time>2026-04-11T07:35:27Z</time></trkpt><trkpt lat="43.247641939656845" lon="12.323239094875118"><ele>370.0</ele><time>2026-04-11T07:35:28Z</time></trkpt><trkpt lat="43.24783297864824" lon="12.323241534680218"><ele>370.0</ele><time>2026-04-11T07:35:29Z</time></trkpt><trkpt lat="43.247998247638215" lon="12.32321361072385"><ele>370.0</ele><time>2026-04-11T07:35:30Z</time></trkpt><trkpt lat="43.24814417370723" lon="12.323159742774797"><ele>370.75</ele><time>2026-04-11T07:35:31Z</time></trkpt><trkpt lat="43.248267549207505" lon="12.323076291595209"><ele>371.5</ele><time>2026-04-11T07:35:32Z</time></trkpt><trkpt lat="43.24837632910632" lon="12.322982319765245"><ele>372.25</ele><time>2026-04-11T07:35:33Z</time></trkpt><trkpt lat="43.248488026235876" lon="12.322912875319663"><ele>373.0</ele><time>2026-04-11T07:35:34Z</time></trkpt><trkpt lat="43.248609178271195" lon="12.322888971913672"><ele>373.75</ele><time>2026-04-11T07:35:35Z</time></trkpt><trkpt lat="43.248742237837355" lon="12.322918013279796"><ele>374.5</ele><time>2026-04-11T07:35:36Z</time></trkpt><trkpt lat="43.248888072456005" lon="12.322978893992044"><ele>375.25</ele><time>2026-04-11T07:35:37Z</time></trkpt><trkpt lat="43.24904095241277" lon="12.32303694740057"><ele>376.0</ele><time>2026-04-11T07:35:38Z</time></trkpt><trkpt lat="43.24919171897005" lon="12.32308316370893"><ele>376.0</ele><time>2026-04-11T07:35:39Z</time></trkpt><trkpt lat="43.2493334773732" lon="12.323123737280007"><ele>376.0</ele><time>2026-04-11T07:35:40Z</time></trkpt><trkpt lat="43.24947256360181" lon="12.323158340220496"><ele>376.0</ele><time>2026-04-11T07:35:41Z</time></trkpt><trkpt lat="43.249617307711496" lon="12.323179817456445"><ele>376.0</ele><time>2026-04-11T07:35:42Z</time></trkpt><trkpt lat="43.24976522362101" lon="12.323180129681177"><ele>377.0</ele><time>2026-04-11T07:35:43Z</time></trkpt><trkpt lat="43.24992057393606" lon="12.323164946805376"><ele>378.0</ele><time>2026-04-11T07:35:44Z</time></trkpt><trkpt lat="43.250078571596134" lon="12.323134907772454"><ele>379.0</ele><time>2026-04-11T07:35:45Z</time></trkpt><trkpt lat="43.25023469535388" lon="12.323097145751234"><ele>385.3333333333333</ele><time>2026-04-11T07:35:46Z</time></trkpt><trkpt lat="43.25038985568669" lon="12.323052804460636"><ele>391.66666666666663</ele><time>2026-04-11T07:35:47Z</time></trkpt><trkpt lat="43.250544559902494" lon="12.323016951625016"><ele>398.0</ele><time>2026-04-11T07:35:48Z</time></trkpt><trkpt lat="43.2507032294659" lon="12.322991650016034"><ele>398.0</ele><time>2026-04-11T07:35:49Z</time></trkpt><trkpt lat="43.2508615221007" lon="12.322966729605197"><ele>398.0</ele><time>2026-04-11T07:35:50Z</time></trkpt><trkpt lat="43.251014230430314" lon="12.322941018233196"><ele>398.0</ele><time>2026-04-11T07:35:51Z</time></trkpt><trkpt lat="43.251163413332236" lon="12.322917883705761"><ele>398.0</ele><time>2026-04-11T07:35:52Z</time></trkpt><trkpt lat="43.25131566203626" lon="12.322915810559508"><ele>398.0</ele><time>2026-04-11T07:35:53Z</time></trkpt><trkpt lat="43.25146362927841" lon="12.322948861162889"><ele>398.0</ele><time>2026-04-11T07:35:54Z</time></trkpt><trkpt lat="43.251616259387696" lon="12.322990416386869"><ele>400.66666666666663</ele><time>2026-04-11T07:35:55Z</time></trkpt><trkpt lat="43.251778363525986" lon="12.323003071333035"><ele>403.33333333333337</ele><time>2026-04-11T07:35:56Z</time></trkpt><trkpt lat="43.25194674992439" lon="12.322979323345532"><ele>406.0</ele><time>2026-04-11T07:35:57Z</time></trkpt><trkpt lat="43.25211288389621" lon="12.322940391670839"><ele>406.0</ele><time>2026-04-11T07:35:58Z</time></trkpt><trkpt lat="43.25227016515558" lon="12.322908275311379"><ele>406.0</ele><time>2026-04-11T07:35:59Z</time></trkpt><trkpt lat="43.2524144130795" lon="12.322856292777901"><ele>406.0</ele><time>2026-04-11T07:36:00Z</time></trkpt><trkpt lat="43.25256266729689" lon="12.322774710042765"><ele>404.33333333333337</ele><time>2026-04-11T07:36:01Z</time></trkpt><trkpt lat="43.25271152430437" lon="12.322662581760262"><ele>402.66666666666663</ele><time>2026-04-11T07:36:02Z</time></trkpt><trkpt lat="43.25286496349601" lon="12.322540240593097"><ele>401.0</ele><time>2026-04-11T07:36:03Z</time></trkpt><trkpt lat="43.25301549481098" lon="12.322436325360444"><ele>399.3333333333333</ele><time>2026-04-11T07:36:04Z</time></trkpt><trkpt lat="43.25317467147077" lon="12.322370005505707"><ele>397.66666666666663</ele><time>2026-04-11T07:36:05Z</time></trkpt><trkpt lat="43.25334237988941" lon="12.322331149286756"><ele>396.0</ele><time>2026-04-11T07:36:06Z</time></trkpt><trkpt lat="43.25349484178238" lon="12.322281892465902"><ele>403.0</ele><time>2026-04-11T07:36:07Z</time></trkpt><trkpt lat="43.25364432621972" lon="12.322208690060236"><ele>410.0</ele><time>2026-04-11T07:36:08Z</time></trkpt><trkpt lat="43.25378252245805" lon="12.322082361322249"><ele>417.0</ele><time>2026-04-11T07:36:09Z</time></trkpt><trkpt lat="43.2539175447117" lon="12.321929796024092"><ele>413.66666666666663</ele><time>2026-04-11T07:36:10Z</time></trkpt><trkpt lat="43.254044151554574" lon="12.321766803173366"><ele>410.3333333333333</ele><time>2026-04-11T07:36:11Z</time></trkpt><trkpt lat="43.25415496993345" lon="12.321601454949779"><ele>407.0</ele><time>2026-04-11T07:36:12Z</time></trkpt><trkpt lat="43.254249770918285" lon="12.321442601468966"><ele>411.5</ele><time>2026-04-11T07:36:13Z</time></trkpt><trkpt lat="43.254329310724145" lon="12.32128838259096"><ele>416.0</ele><time>2026-04-11T07:36:14Z</time></trkpt><trkpt lat="43.25441070714247" lon="12.321153349420682"><ele>420.5</ele><time>2026-04-11T07:36:15Z</time></trkpt><trkpt lat="43.25449456261232" lon="12.32103117227947"><ele>425.0</ele><time>2026-04-11T07:36:16Z</time></trkpt><trkpt lat="43.254602801416304" lon="12.320938861683066"><ele>425.0</ele><time>2026-04-11T07:36:17Z</time></trkpt><trkpt lat="43.254719651382736" lon="12.320898690808953"><ele>425.0</ele><time>2026-04-11T07:36:18Z</time></trkpt><trkpt lat="43.254840861399536" lon="12.320900339992805"><ele>425.0</ele><time>2026-04-11T07:36:19Z</time></trkpt><trkpt lat="43.25494866016664" lon="12.320931142445115"><ele>425.0</ele><time>2026-04-11T07:36:20Z</time></trkpt><trkpt lat="43.255052532761304" lon="12.320994277284163"><ele>421.75</ele><time>2026-04-11T07:36:21Z</time></trkpt><trkpt lat="43.255149984966394" lon="12.321083865799611"><ele>418.5</ele><time>2026-04-11T07:36:22Z</time></trkpt><trkpt lat="43.255226557614264" lon="12.3212062871821"><ele>415.25</ele><time>2026-04-11T07:36:23Z</time></trkpt><trkpt lat="43.25527453616411" lon="12.321367393743222"><ele>412.0</ele><time>2026-04-11T07:36:24Z</time></trkpt><trkpt lat="43.25529315917506" lon="12.321556942555553"><ele>410.75</ele><time>2026-04-11T07:36:25Z</time></trkpt><trkpt lat="43.255293989915835" lon="12.321742923633709"><ele>409.5</ele><time>2026-04-11T07:36:26Z</time></trkpt><trkpt lat="43.255284196825166" lon="12.321907040183461"><ele>408.25</ele><time>2026-04-11T07:36:27Z</time></trkpt><trkpt lat="43.25528045506223" lon="12.322055126291788"><ele>407.0</ele><time>2026-04-11T07:36:28Z</time></trkpt><trkpt lat="43.255283556621194" lon="12.322200133317892"><ele>406.99999999999994</ele><time>2026-04-11T07:36:29Z</time></trkpt><trkpt lat="43.255295838467866" lon="12.322338212238245"><ele>407.0</ele><time>2026-04-11T07:36:30Z</time></trkpt><trkpt lat="43.25531524340241" lon="12.322461047763726"><ele>407.0</ele><time>2026-04-11T07:36:31Z</time></trkpt><trkpt lat="43.25534315119236" lon="12.322563648727286"><ele>407.0</ele><time>2026-04-11T07:36:32Z</time></trkpt><trkpt lat="43.25537827132969" lon="12.322670127287841"><ele>406.99999999999994</ele><time>2026-04-11T07:36:33Z</time></trkpt><trkpt lat="43.255418717834125" lon="12.322771642059722"><ele>407.0</ele><time>2026-04-11T07:36:34Z</time></trkpt><trkpt lat="43.2554662737873" lon="12.322868033983127"><ele>406.99999999999994</ele><time>2026-04-11T07:36:35Z</time></trkpt><trkpt lat="43.25551437893054" lon="12.322961657556966"><ele>407.0</ele><time>2026-04-11T07:36:36Z</time></trkpt><trkpt lat="43.255557931391216" lon="12.323053964949047"><ele>407.0</ele><time>2026-04-11T07:36:37Z</time></trkpt><trkpt lat="43.25559050157923" lon="12.323129653313837"><ele>407.0</ele><time>2026-04-11T07:36:38Z</time></trkpt><trkpt lat="43.255632738215525" lon="12.323265579202076"><ele>406.99999999999994</ele><time>2026-04-11T07:36:40Z</time></trkpt><trkpt lat="43.255660882919955" lon="12.323408694803158"><ele>407.0</ele><time>2026-04-11T07:36:42Z</time></trkpt><trkpt lat="43.25568517458012" lon="12.323502794943918"><ele>408.49999999999994</ele><time>2026-04-11T07:36:44Z</time></trkpt><trkpt lat="43.25573366950384" lon="12.323602363904225"><ele>410.0</ele><time>2026-04-11T07:37:01Z</time></trkpt><trkpt lat="43.25580767310559" lon="12.323721464721006"><ele>411.5</ele><time>2026-04-11T07:37:03Z</time></trkpt><trkpt lat="43.255833035581894" lon="12.323801047711674"><ele>413.0</ele><time>2026-04-11T07:37:04Z</time></trkpt><trkpt lat="43.25584807903211" lon="12.3238912261873"><ele>414.49999999999994</ele><time>2026-04-11T07:37:05Z</time></trkpt><trkpt lat="43.255859983507996" lon="12.323989923870167"><ele>416.0</ele><time>2026-04-11T07:37:06Z</time></trkpt><trkpt lat="43.25587180391309" lon="12.324120336478302"><ele>416.0</ele><time>2026-04-11T07:37:07Z</time></trkpt><trkpt lat="43.255879849861465" lon="12.324276165433155"><ele>416.0</ele><time>2026-04-11T07:37:08Z</time></trkpt><trkpt lat="43.25586833521998" lon="12.324401824524747"><ele>416.0</ele><time>2026-04-11T07:37:09Z</time></trkpt><trkpt lat="43.2558250607006" lon="12.324494542019158"><ele>416.0</ele><time>2026-04-11T07:37:10Z</time></trkpt><trkpt lat="43.255770133745536" lon="12.324585049945725"><ele>416.0</ele><time>2026-04-11T07:37:11Z</time></trkpt><trkpt lat="43.25568879562403" lon="12.324668744707843"><ele>415.6</ele><time>2026-04-11T07:37:12Z</time></trkpt><trkpt lat="43.25563053234179" lon="12.324777467259912"><ele>415.20000000000005</ele><time>2026-04-11T07:37:13Z</time></trkpt><trkpt lat="43.255565066461834" lon="12.324878147487015"><ele>414.79999999999995</ele><time>2026-04-11T07:37:14Z</time></trkpt><trkpt lat="43.25552132816086" lon="12.32499415192323"><ele>414.4</ele><time>2026-04-11T07:37:15Z</time></trkpt><trkpt lat="43.255488939137564" lon="12.325115750577238"><ele>414.0</ele><time>2026-04-11T07:37:16Z</time></trkpt><trkpt lat="43.25547661532755" lon="12.325239428673378"><ele>415.4</ele><time>2026-04-11T07:37:17Z</time></trkpt><trkpt lat="43.255485912225275" lon="12.325356231080436"><ele>416.79999999999995</ele><time>2026-04-11T07:37:18Z</time></trkpt><trkpt lat="43.25552041185624" lon="12.325489722554595"><ele>418.20000000000005</ele><time>2026-04-11T07:37:19Z</time></trkpt><trkpt lat="43.25557037521414" lon="12.325638587325212"><ele>419.6</ele><time>2026-04-11T07:37:20Z</time></trkpt><trkpt lat="43.255617866983165" lon="12.325778095982185"><ele>421.0</ele><time>2026-04-11T07:37:21Z</time></trkpt><trkpt lat="43.25565478754213" lon="12.325897938668131"><ele>421.0</ele><time>2026-04-11T07:37:22Z</time></trkpt><trkpt lat="43.25570471077078" lon="12.325993198715159"><ele>421.0</ele><time>2026-04-11T07:37:23Z</time></trkpt><trkpt lat="43.255768751602716" lon="12.326080357389698"><ele>421.0</ele><time>2026-04-11T07:37:24Z</time></trkpt><trkpt lat="43.25580798038517" lon="12.326185843510174"><ele>421.0</ele><time>2026-04-11T07:37:25Z</time></trkpt><trkpt lat="43.255868489140674" lon="12.326315995600844"><ele>421.0</ele><time>2026-04-11T07:37:26Z</time></trkpt><trkpt lat="43.255932134135705" lon="12.326463717180753"><ele>423.0</ele><time>2026-04-11T07:37:27Z</time></trkpt><trkpt lat="43.25600096416496" lon="12.326583802593852"><ele>425.0</ele><time>2026-04-11T07:37:28Z</time></trkpt><trkpt lat="43.25604324002176" lon="12.32671194089131"><ele>427.0</ele><time>2026-04-11T07:37:29Z</time></trkpt><trkpt lat="43.256093553062364" lon="12.326842369245762"><ele>429.0</ele><time>2026-04-11T07:37:30Z</time></trkpt><trkpt lat="43.256114592961175" lon="12.32701335654854"><ele>431.0</ele><time>2026-04-11T07:37:31Z</time></trkpt><trkpt lat="43.25615351814307" lon="12.327172367209911"><ele>430.8</ele><time>2026-04-11T07:37:32Z</time></trkpt><trkpt lat="43.25616143634648" lon="12.327316690768019"><ele>430.6</ele><time>2026-04-11T07:37:33Z</time></trkpt><trkpt lat="43.25616650869071" lon="12.327442796036651"><ele>430.4</ele><time>2026-04-11T07:37:34Z</time></trkpt><trkpt lat="43.256178531750265" lon="12.327569471317506"><ele>430.2</ele><time>2026-04-11T07:37:35Z</time></trkpt><trkpt lat="43.25619061181422" lon="12.32771178521509"><ele>430.0</ele><time>2026-04-11T07:37:36Z</time></trkpt><trkpt lat="43.25620246184042" lon="12.327853771574649"><ele>430.0</ele><time>2026-04-11T07:37:37Z</time></trkpt><trkpt lat="43.25621925919454" lon="12.32799245266328"><ele>430.0</ele><time>2026-04-11T07:37:38Z</time></trkpt><trkpt lat="43.256252778833534" lon="12.328136940372834"><ele>430.0</ele><time>2026-04-11T07:37:39Z</time></trkpt><trkpt lat="43.25630279087732" lon="12.328297061487273"><ele>430.0</ele><time>2026-04-11T07:37:40Z</time></trkpt><trkpt lat="43.25635744003465" lon="12.32844629492714"><ele>430.5</ele><time>2026-04-11T07:37:41Z</time></trkpt><trkpt lat="43.25640901492113" lon="12.32859481928544"><ele>431.0</ele><time>2026-04-11T07:37:42Z</time></trkpt><trkpt lat="43.256456900510024" lon="12.328749515330856"><ele>431.5</ele><time>2026-04-11T07:37:43Z</time></trkpt><trkpt lat="43.25650353044065" lon="12.3288868456421"><ele>432.0</ele><time>2026-04-11T07:37:44Z</time></trkpt><trkpt lat="43.25655891388263" lon="12.329022571680596"><ele>432.0</ele><time>2026-04-11T07:37:45Z</time></trkpt><trkpt lat="43.25661388634024" lon="12.329154643952078"><ele>432.00000000000006</ele><time>2026-04-11T07:37:46Z</time></trkpt><trkpt lat="43.256680325421094" lon="12.329261486520776"><ele>432.00000000000006</ele><time>2026-04-11T07:37:47Z</time></trkpt><trkpt lat="43.256763120028786" lon="12.329341069335685"><ele>432.0</ele><time>2026-04-11T07:37:48Z</time></trkpt><trkpt lat="43.25686644560024" lon="12.329409942463693"><ele>432.0</ele><time>2026-04-11T07:37:49Z</time></trkpt><trkpt lat="43.25698937953745" lon="12.329499112566744"><ele>432.0</ele><time>2026-04-11T07:37:50Z</time></trkpt><trkpt lat="43.257100975375195" lon="12.329569165065267"><ele>432.0</ele><time>2026-04-11T07:37:51Z</time></trkpt><trkpt lat="43.257200165245635" lon="12.32963995475635"><ele>432.0</ele><time>2026-04-11T07:37:52Z</time></trkpt><trkpt lat="43.25729840439062" lon="12.329724532340707"><ele>432.0</ele><time>2026-04-11T07:37:53Z</time></trkpt><trkpt lat="43.25738421637313" lon="12.329821362257963"><ele>432.8</ele><time>2026-04-11T07:37:54Z</time></trkpt><trkpt lat="43.257461608338886" lon="12.329929301881393"><ele>433.6</ele><time>2026-04-11T07:37:55Z</time></trkpt><trkpt lat="43.25753254789958" lon="12.330045112407339"><ele>434.40000000000003</ele><time>2026-04-11T07:37:56Z</time></trkpt><trkpt lat="43.25759107820666" lon="12.330158705593114"><ele>435.20000000000005</ele><time>2026-04-11T07:37:57Z</time></trkpt><trkpt lat="43.25765085435268" lon="12.330270981066874"><ele>436.0</ele><time>2026-04-11T07:37:58Z</time></trkpt><trkpt lat="43.25772426791236" lon="12.330391439795296"><ele>436.0</ele><time>2026-04-11T07:37:59Z</time></trkpt><trkpt lat="43.257819978253956" lon="12.33049565461755"><ele>436.0</ele><time>2026-04-11T07:38:00Z</time></trkpt><trkpt lat="43.257898051240126" lon="12.330617737880821"><ele>436.0</ele><time>2026-04-11T07:38:01Z</time></trkpt><trkpt lat="43.25798132653662" lon="12.330713550438155"><ele>436.0</ele><time>2026-04-11T07:38:02Z</time></trkpt><trkpt lat="43.258069048101724" lon="12.330801429963442"><ele>435.8</ele><time>2026-04-11T07:38:03Z</time></trkpt><trkpt lat="43.25811419512804" lon="12.330933769246895"><ele>435.6</ele><time>2026-04-11T07:38:04Z</time></trkpt><trkpt lat="43.258157910045476" lon="12.331066189113615"><ele>435.4</ele><time>2026-04-11T07:38:05Z</time></trkpt><trkpt lat="43.25820932906678" lon="12.331192929160553"><ele>435.2</ele><time>2026-04-11T07:38:06Z</time></trkpt><trkpt lat="43.25822499800401" lon="12.331327457016206"><ele>435.0</ele><time>2026-04-11T07:38:07Z</time></trkpt><trkpt lat="43.25826060154749" lon="12.33145264352231"><ele>435.0</ele><time>2026-04-11T07:38:08Z</time></trkpt><trkpt lat="43.25827133930702" lon="12.331583040982462"><ele>435.0</ele><time>2026-04-11T07:38:09Z</time></trkpt><trkpt lat="43.25828421173425" lon="12.33169607008732"><ele>435.0</ele><time>2026-04-11T07:38:10Z</time></trkpt><trkpt lat="43.25829481654326" lon="12.331806622236577"><ele>435.0</ele><time>2026-04-11T07:38:11Z</time></trkpt><trkpt lat="43.25831437784747" lon="12.331902126934676"><ele>435.0</ele><time>2026-04-11T07:38:12Z</time></trkpt><trkpt lat="43.25835865975384" lon="12.331998190860668"><ele>435.0</ele><time>2026-04-11T07:38:13Z</time></trkpt><trkpt lat="43.258411279602456" lon="12.332082447039888"><ele>435.0</ele><time>2026-04-11T07:38:14Z</time></trkpt><trkpt lat="43.258484119911984" lon="12.332160902544716"><ele>435.0</ele><time>2026-04-11T07:38:15Z</time></trkpt><trkpt lat="43.258573672311705" lon="12.332228279738388"><ele>435.0</ele><time>2026-04-11T07:38:16Z</time></trkpt><trkpt lat="43.25866710546347" lon="12.332286040252704"><ele>435.0</ele><time>2026-04-11T07:38:17Z</time></trkpt><trkpt lat="43.25877095624572" lon="12.33233507406353"><ele>435.0</ele><time>2026-04-11T07:38:18Z</time></trkpt><trkpt lat="43.25886898573793" lon="12.332405766616187"><ele>432.2</ele><time>2026-04-11T07:38:19Z</time></trkpt><trkpt lat="43.25898410781404" lon="12.332426779624171"><ele>429.4</ele><time>2026-04-11T07:38:20Z</time></trkpt><trkpt lat="43.25909170572343" lon="12.332453687975253"><ele>426.6</ele><time>2026-04-11T07:38:21Z</time></trkpt><trkpt lat="43.2591995659181" lon="12.332472277616127"><ele>423.8</ele><time>2026-04-11T07:38:22Z</time></trkpt><trkpt lat="43.259305462594895" lon="12.332511388900194"><ele>421.0</ele><time>2026-04-11T07:38:23Z</time></trkpt><trkpt lat="43.25940563380566" lon="12.332580682276413"><ele>421.0</ele><time>2026-04-11T07:38:24Z</time></trkpt><trkpt lat="43.25948270505397" lon="12.3326828503762"><ele>421.0</ele><time>2026-04-11T07:38:25Z</time></trkpt><trkpt lat="43.25956029491597" lon="12.332773782378643"><ele>421.0</ele><time>2026-04-11T07:38:26Z</time></trkpt><trkpt lat="43.25962045123709" lon="12.332885363841879"><ele>421.0</ele><time>2026-04-11T07:38:27Z</time></trkpt><trkpt lat="43.25967120505212" lon="12.333014608863081"><ele>421.0</ele><time>2026-04-11T07:38:28Z</time></trkpt><trkpt lat="43.25971982708761" lon="12.333155015113423"><ele>420.6666666666667</ele><time>2026-04-11T07:38:29Z</time></trkpt><trkpt lat="43.259752410648225" lon="12.33328466960658"><ele>420.33333333333337</ele><time>2026-04-11T07:38:30Z</time></trkpt><trkpt lat="43.25976577544084" lon="12.333407610156005"><ele>420.0</ele><time>2026-04-11T07:38:31Z</time></trkpt><trkpt lat="43.25975362088673" lon="12.333523359466046"><ele>419.66666666666663</ele><time>2026-04-11T07:38:32Z</time></trkpt><trkpt lat="43.25971339848255" lon="12.333617852324043"><ele>419.3333333333333</ele><time>2026-04-11T07:38:33Z</time></trkpt><trkpt lat="43.259664599260034" lon="12.333700646367294"><ele>419.0</ele><time>2026-04-11T07:38:34Z</time></trkpt><trkpt lat="43.25960580793687" lon="12.333806661274368"><ele>422.0</ele><time>2026-04-11T07:38:35Z</time></trkpt><trkpt lat="43.25953709222481" lon="12.333979321870034"><ele>425.0</ele><time>2026-04-11T07:38:37Z</time></trkpt><trkpt lat="43.25949781396014" lon="12.334081136134262"><ele>428.0</ele><time>2026-04-11T07:38:38Z</time></trkpt><trkpt lat="43.25945983964488" lon="12.334194875024627"><ele>431.0</ele><time>2026-04-11T07:38:39Z</time></trkpt><trkpt lat="43.25946126474942" lon="12.334340860630567"><ele>434.0</ele><time>2026-04-11T07:38:40Z</time></trkpt><trkpt lat="43.259458949762646" lon="12.334470958279667"><ele>433.99999999999994</ele><time>2026-04-11T07:38:41Z</time></trkpt><trkpt lat="43.25946208324441" lon="12.334584005213797"><ele>434.0</ele><time>2026-04-11T07:38:42Z</time></trkpt><trkpt lat="43.259449201274236" lon="12.334675466499096"><ele>434.0</ele><time>2026-04-11T07:38:43Z</time></trkpt><trkpt lat="43.25939127134194" lon="12.334832397907528"><ele>434.0</ele><time>2026-04-11T07:38:45Z</time></trkpt><trkpt lat="43.25929791528093" lon="12.33485823535658"><ele>433.99999999999994</ele><time>2026-04-11T07:38:46Z</time></trkpt><trkpt lat="43.259248270257686" lon="12.334934991864984"><ele>434.0</ele><time>2026-04-11T07:38:47Z</time></trkpt><trkpt lat="43.25918693084161" lon="12.334999099325197"><ele>437.25</ele><time>2026-04-11T07:38:48Z</time></trkpt><trkpt lat="43.259134215726206" lon="12.335109636090241"><ele>440.5</ele><time>2026-04-11T07:38:49Z</time></trkpt><trkpt lat="43.25906351344992" lon="12.335233963391339"><ele>443.75</ele><time>2026-04-11T07:38:50Z</time></trkpt><trkpt lat="43.25898720753103" lon="12.335365902017836"><ele>447.0</ele><time>2026-04-11T07:38:51Z</time></trkpt><trkpt lat="43.25892279358058" lon="12.335501517148764"><ele>450.8333333333333</ele><time>2026-04-11T07:38:52Z</time></trkpt><trkpt lat="43.2588697749319" lon="12.335615956713179"><ele>454.66666666666663</ele><time>2026-04-11T07:38:53Z</time></trkpt><trkpt lat="43.25882077133722" lon="12.335742697440399"><ele>458.5</ele><time>2026-04-11T07:38:54Z</time></trkpt><trkpt lat="43.25878807079375" lon="12.335862909823293"><ele>462.3333333333333</ele><time>2026-04-11T07:38:55Z</time></trkpt><trkpt lat="43.25876027133202" lon="12.335967768920327"><ele>466.16666666666663</ele><time>2026-04-11T07:38:56Z</time></trkpt><trkpt lat="43.25873968246482" lon="12.336058713500405"><ele>470.0</ele><time>2026-04-11T07:38:57Z</time></trkpt><trkpt lat="43.25876046686667" lon="12.33620193337006"><ele>470.0</ele><time>2026-04-11T07:38:59Z</time></trkpt><trkpt lat="43.25880752794886" lon="12.336271735894025"><ele>469.99999999999994</ele><time>2026-04-11T07:39:00Z</time></trkpt><trkpt lat="43.258874862924" lon="12.33631900550685"><ele>470.0</ele><time>2026-04-11T07:39:01Z</time></trkpt><trkpt lat="43.25892984592371" lon="12.336380379950548"><ele>470.0</ele><time>2026-04-11T07:39:02Z</time></trkpt><trkpt lat="43.25898312409988" lon="12.336450880042145"><ele>469.99999999999994</ele><time>2026-04-11T07:39:03Z</time></trkpt><trkpt lat="43.25902556676143" lon="12.336523685102028"><ele>470.0</ele><time>2026-04-11T07:39:04Z</time></trkpt><trkpt lat="43.259072664111315" lon="12.336611756097142"><ele>470.0</ele><time>2026-04-11T07:39:05Z</time></trkpt><trkpt lat="43.25915153256843" lon="12.336657198376676"><ele>473.2</ele><time>2026-04-11T07:39:06Z</time></trkpt><trkpt lat="43.25924720156356" lon="12.336667100845524"><ele>476.4</ele><time>2026-04-11T07:39:07Z</time></trkpt><trkpt lat="43.25936244124998" lon="12.33670955433523"><ele>479.6</ele><time>2026-04-11T07:39:08Z</time></trkpt><trkpt lat="43.25943775964441" lon="12.336771898994417"><ele>482.8</ele><time>2026-04-11T07:39:09Z</time></trkpt><trkpt lat="43.25951390192197" lon="12.336790254622347"><ele>486.0</ele><time>2026-04-11T07:39:10Z</time></trkpt><trkpt lat="43.259649590482304" lon="12.336870686339699"><ele>486.0</ele><time>2026-04-11T07:39:12Z</time></trkpt><trkpt lat="43.25974299801332" lon="12.336876605613572"><ele>486.0</ele><time>2026-04-11T07:39:13Z</time></trkpt><trkpt lat="43.259840637657526" lon="12.336894484568976"><ele>486.0</ele><time>2026-04-11T07:39:14Z</time></trkpt><trkpt lat="43.25994256255" lon="12.336923917677929"><ele>486.0</ele><time>2026-04-11T07:39:15Z</time></trkpt><trkpt lat="43.26004774003896" lon="12.336944514048513"><ele>486.0</ele><time>2026-04-11T07:39:16Z</time></trkpt><trkpt lat="43.26015238809614" lon="12.336969148962456"><ele>485.6</ele><time>2026-04-11T07:39:17Z</time></trkpt><trkpt lat="43.26025055227681" lon="12.33699614400166"><ele>485.20000000000005</ele><time>2026-04-11T07:39:18Z</time></trkpt><trkpt lat="43.26034054923765" lon="12.337033484770336"><ele>484.79999999999995</ele><time>2026-04-11T07:39:19Z</time></trkpt><trkpt lat="43.26043032608599" lon="12.33708655153832"><ele>484.4</ele><time>2026-04-11T07:39:20Z</time></trkpt><trkpt lat="43.260507712809606" lon="12.337160960229994"><ele>484.0</ele><time>2026-04-11T07:39:21Z</time></trkpt><trkpt lat="43.26058191279766" lon="12.337246451876869"><ele>483.0</ele><time>2026-04-11T07:39:22Z</time></trkpt><trkpt lat="43.26064970756169" lon="12.337332840384114"><ele>482.0</ele><time>2026-04-11T07:39:23Z</time></trkpt><trkpt lat="43.26071962239593" lon="12.337414825615754"><ele>481.0</ele><time>2026-04-11T07:39:24Z</time></trkpt><trkpt lat="43.26079233028827" lon="12.337502555674522"><ele>480.0</ele><time>2026-04-11T07:39:25Z</time></trkpt><trkpt lat="43.26086565715602" lon="12.337612477280294"><ele>479.0</ele><time>2026-04-11T07:39:26Z</time></trkpt><trkpt lat="43.26092375763681" lon="12.337755965466473"><ele>479.0</ele><time>2026-04-11T07:39:27Z</time></trkpt><trkpt lat="43.26094244758705" lon="12.337920578264773"><ele>479.0</ele><time>2026-04-11T07:39:28Z</time></trkpt><trkpt lat="43.26095856495701" lon="12.338067536494485"><ele>479.0</ele><time>2026-04-11T07:39:29Z</time></trkpt><trkpt lat="43.26098467518884" lon="12.338227656950709"><ele>479.0</ele><time>2026-04-11T07:39:30Z</time></trkpt><trkpt lat="43.26099090791303" lon="12.338380575864733"><ele>479.0</ele><time>2026-04-11T07:39:31Z</time></trkpt><trkpt lat="43.26100611021094" lon="12.338530634286444"><ele>479.0</ele><time>2026-04-11T07:39:32Z</time></trkpt><trkpt lat="43.26102324313079" lon="12.338680274960362"><ele>479.0</ele><time>2026-04-11T07:39:33Z</time></trkpt><trkpt lat="43.26105710889186" lon="12.33882902802841"><ele>479.0</ele><time>2026-04-11T07:39:34Z</time></trkpt><trkpt lat="43.26108179097759" lon="12.338993867800603"><ele>478.99999999999994</ele><time>2026-04-11T07:39:35Z</time></trkpt><trkpt lat="43.26111586776415" lon="12.339139009569157"><ele>479.0</ele><time>2026-04-11T07:39:36Z</time></trkpt><trkpt lat="43.26114194883361" lon="12.339277199206741"><ele>479.0</ele><time>2026-04-11T07:39:37Z</time></trkpt><trkpt lat="43.26116124103804" lon="12.339390222022374"><ele>479.0</ele><time>2026-04-11T07:39:38Z</time></trkpt><trkpt lat="43.26117799045529" lon="12.339490302031887"><ele>478.99999999999994</ele><time>2026-04-11T07:39:39Z</time></trkpt><trkpt lat="43.26119293934848" lon="12.339582337587354"><ele>479.0</ele><time>2026-04-11T07:39:40Z</time></trkpt><trkpt lat="43.26121062087117" lon="12.339673302025346"><ele>478.79999999999995</ele><time>2026-04-11T07:39:41Z</time></trkpt><trkpt lat="43.2612271777033" lon="12.339833282864994"><ele>478.59999999999997</ele><time>2026-04-11T07:39:43Z</time></trkpt><trkpt lat="43.261223558727686" lon="12.339962694081498"><ele>478.4</ele><time>2026-04-11T07:39:45Z</time></trkpt><trkpt lat="43.261124161983055" lon="12.340054100384227"><ele>478.2</ele><time>2026-04-11T07:39:46Z</time></trkpt><trkpt lat="43.26107100750074" lon="12.340135125450473"><ele>478.0</ele><time>2026-04-11T07:39:47Z</time></trkpt><trkpt lat="43.261014518093525" lon="12.34022330688572"><ele>478.00000000000006</ele><time>2026-04-11T07:39:48Z</time></trkpt><trkpt lat="43.26095257071939" lon="12.340311150126873"><ele>478.0</ele><time>2026-04-11T07:39:49Z</time></trkpt><trkpt lat="43.26088914165712" lon="12.340394530213214"><ele>478.0</ele><time>2026-04-11T07:39:50Z</time></trkpt><trkpt lat="43.260817103499555" lon="12.340470089281823"><ele>478.0</ele><time>2026-04-11T07:39:51Z</time></trkpt><trkpt lat="43.260740910307966" lon="12.340529625547596"><ele>478.00000000000006</ele><time>2026-04-11T07:39:52Z</time></trkpt><trkpt lat="43.2606512512099" lon="12.340569760617548"><ele>478.0</ele><time>2026-04-11T07:39:53Z</time></trkpt><trkpt lat="43.2605555254079" lon="12.340600744261739"><ele>479.2</ele><time>2026-04-11T07:39:54Z</time></trkpt><trkpt lat="43.26046879543389" lon="12.340597114185574"><ele>480.4</ele><time>2026-04-11T07:39:55Z</time></trkpt><trkpt lat="43.26037317516843" lon="12.340612583230092"><ele>481.59999999999997</ele><time>2026-04-11T07:39:56Z</time></trkpt><trkpt lat="43.26027859025131" lon="12.340623415281994"><ele>482.79999999999995</ele><time>2026-04-11T07:39:57Z</time></trkpt><trkpt lat="43.2601825659644" lon="12.340631873187954"><ele>484.0</ele><time>2026-04-11T07:39:58Z</time></trkpt><trkpt lat="43.260091755089476" lon="12.34063211735035"><ele>484.0</ele><time>2026-04-11T07:39:59Z</time></trkpt><trkpt lat="43.26000520554493" lon="12.340627696220281"><ele>484.0</ele><time>2026-04-11T07:40:00Z</time></trkpt><trkpt lat="43.259914083121" lon="12.340615480678807"><ele>484.0</ele><time>2026-04-11T07:40:01Z</time></trkpt><trkpt lat="43.259819736115745" lon="12.340627384238614"><ele>484.0</ele><time>2026-04-11T07:40:02Z</time></trkpt><trkpt lat="43.259723646575615" lon="12.340636402479715"><ele>484.0</ele><time>2026-04-11T07:40:03Z</time></trkpt><trkpt lat="43.259626385995546" lon="12.340671559032664"><ele>479.6</ele><time>2026-04-11T07:40:03.999Z</time></trkpt><trkpt lat="43.259529791370056" lon="12.340713705898988"><ele>475.2</ele><time>2026-04-11T07:40:05Z</time></trkpt><trkpt lat="43.259442846882784" lon="12.340798293682889"><ele>470.80000000000007</ele><time>2026-04-11T07:40:06Z</time></trkpt><trkpt lat="43.259387344897796" lon="12.340914128636996"><ele>466.40000000000003</ele><time>2026-04-11T07:40:07Z</time></trkpt><trkpt lat="43.259324098721585" lon="12.34101242537976"><ele>462.0</ele><time>2026-04-11T07:40:08Z</time></trkpt><trkpt lat="43.25928270557033" lon="12.34113696470258"><ele>462.0</ele><time>2026-04-11T07:40:09Z</time></trkpt><trkpt lat="43.25928273031953" lon="12.34129298345049"><ele>462.0</ele><time>2026-04-11T07:40:10Z</time></trkpt><trkpt lat="43.25928025983838" lon="12.341454365894169"><ele>462.0</ele><time>2026-04-11T07:40:11Z</time></trkpt><trkpt lat="43.25926897504114" lon="12.341610572595604"><ele>462.0</ele><time>2026-04-11T07:40:12Z</time></trkpt><trkpt lat="43.25926451764767" lon="12.341758677533587"><ele>462.8</ele><time>2026-04-11T07:40:13Z</time></trkpt><trkpt lat="43.25924850505327" lon="12.341902698013108"><ele>463.6</ele><time>2026-04-11T07:40:14Z</time></trkpt><trkpt lat="43.259219917172466" lon="12.342043365120864"><ele>464.40000000000003</ele><time>2026-04-11T07:40:15Z</time></trkpt><trkpt lat="43.25918537149757" lon="12.342185958746127"><ele>465.20000000000005</ele><time>2026-04-11T07:40:16Z</time></trkpt><trkpt lat="43.25914194333187" lon="12.34232502651135"><ele>466.0</ele><time>2026-04-11T07:40:17Z</time></trkpt><trkpt lat="43.25908499156883" lon="12.342453690074462"><ele>467.75</ele><time>2026-04-11T07:40:18Z</time></trkpt><trkpt lat="43.25901635681262" lon="12.342578394060526"><ele>469.5</ele><time>2026-04-11T07:40:19Z</time></trkpt><trkpt lat="43.258951640447975" lon="12.342714730917324"><ele>471.25</ele><time>2026-04-11T07:40:20Z</time></trkpt><trkpt lat="43.258879935832006" lon="12.342846509466385"><ele>473.0</ele><time>2026-04-11T07:40:21Z</time></trkpt><trkpt lat="43.258805840230664" lon="12.342977389371018"><ele>466.5</ele><time>2026-04-11T07:40:22Z</time></trkpt><trkpt lat="43.25873545074366" lon="12.343117197176996"><ele>460.0</ele><time>2026-04-11T07:40:23Z</time></trkpt><trkpt lat="43.258669904352885" lon="12.343246065887104"><ele>453.5</ele><time>2026-04-11T07:40:24Z</time></trkpt><trkpt lat="43.25861904260441" lon="12.343367087198457"><ele>447.0</ele><time>2026-04-11T07:40:25Z</time></trkpt><trkpt lat="43.25857372290774" lon="12.343505832398096"><ele>447.0</ele><time>2026-04-11T07:40:26Z</time></trkpt><trkpt lat="43.25853715316595" lon="12.343644230412105"><ele>447.0</ele><time>2026-04-11T07:40:27Z</time></trkpt><trkpt lat="43.258506764540996" lon="12.34379608888276"><ele>447.0</ele><time>2026-04-11T07:40:28Z</time></trkpt><trkpt lat="43.25848257411561" lon="12.343951382409058"><ele>447.0</ele><time>2026-04-11T07:40:29Z</time></trkpt><trkpt lat="43.2584500303549" lon="12.344110415759129"><ele>448.25</ele><time>2026-04-11T07:40:30Z</time></trkpt><trkpt lat="43.258422988075175" lon="12.34427851773097"><ele>449.5</ele><time>2026-04-11T07:40:31Z</time></trkpt><trkpt lat="43.25838675077218" lon="12.344430613773056"><ele>450.75</ele><time>2026-04-11T07:40:32Z</time></trkpt><trkpt lat="43.25833894368814" lon="12.3445681892466"><ele>452.0</ele><time>2026-04-11T07:40:33Z</time></trkpt><trkpt lat="43.25827838443648" lon="12.344706167555668"><ele>452.25</ele><time>2026-04-11T07:40:34Z</time></trkpt><trkpt lat="43.258215005124825" lon="12.344849729449647"><ele>452.5</ele><time>2026-04-11T07:40:35Z</time></trkpt><trkpt lat="43.25813712732199" lon="12.344985424338743"><ele>452.75</ele><time>2026-04-11T07:40:36Z</time></trkpt><trkpt lat="43.2580791796617" lon="12.345141186675846"><ele>453.0</ele><time>2026-04-11T07:40:37Z</time></trkpt><trkpt lat="43.25803862588249" lon="12.345307034714278"><ele>445.5</ele><time>2026-04-11T07:40:38Z</time></trkpt><trkpt lat="43.257984381809365" lon="12.345466375880708"><ele>438.0</ele><time>2026-04-11T07:40:39Z</time></trkpt><trkpt lat="43.25793966098639" lon="12.345620678934717"><ele>430.5</ele><time>2026-04-11T07:40:40Z</time></trkpt><trkpt lat="43.257890216597055" lon="12.345763573664218"><ele>423.0</ele><time>2026-04-11T07:40:41Z</time></trkpt><trkpt lat="43.257841528054286" lon="12.34590872927371"><ele>423.0</ele><time>2026-04-11T07:40:42Z</time></trkpt><trkpt lat="43.2578005194204" lon="12.346053332454066"><ele>423.0</ele><time>2026-04-11T07:40:43Z</time></trkpt><trkpt lat="43.257764392023276" lon="12.34617687926472"><ele>423.0</ele><time>2026-04-11T07:40:44Z</time></trkpt><trkpt lat="43.2577402693931" lon="12.346292786419452"><ele>423.0</ele><time>2026-04-11T07:40:45Z</time></trkpt><trkpt lat="43.25773322129602" lon="12.346403310025321"><ele>423.0</ele><time>2026-04-11T07:40:46Z</time></trkpt><trkpt lat="43.257752570519465" lon="12.34652606895061"><ele>422.4</ele><time>2026-04-11T07:40:47Z</time></trkpt><trkpt lat="43.25778622175127" lon="12.346667678882499"><ele>421.79999999999995</ele><time>2026-04-11T07:40:48Z</time></trkpt><trkpt lat="43.257799462770066" lon="12.346809821906625"><ele>421.2</ele><time>2026-04-11T07:40:49Z</time></trkpt><trkpt lat="43.25778574771716" lon="12.346945873467712"><ele>420.6</ele><time>2026-04-11T07:40:50Z</time></trkpt><trkpt lat="43.25771486183524" lon="12.347045778795572"><ele>420.0</ele><time>2026-04-11T07:40:51Z</time></trkpt><trkpt lat="43.257640743880295" lon="12.347150199836921"><ele>422.0</ele><time>2026-04-11T07:40:52Z</time></trkpt><trkpt lat="43.25754625738034" lon="12.347275879231752"><ele>424.0</ele><time>2026-04-11T07:40:53Z</time></trkpt><trkpt lat="43.257449159942674" lon="12.347405630104907"><ele>426.0</ele><time>2026-04-11T07:40:54Z</time></trkpt><trkpt lat="43.257343481067984" lon="12.347507367052577"><ele>428.0</ele><time>2026-04-11T07:40:55Z</time></trkpt><trkpt lat="43.257235502588024" lon="12.347598139242734"><ele>420.75</ele><time>2026-04-11T07:40:56Z</time></trkpt><trkpt lat="43.25713330067896" lon="12.347686087044687"><ele>413.5</ele><time>2026-04-11T07:40:57Z</time></trkpt><trkpt lat="43.25702925987323" lon="12.347758335499215"><ele>406.25</ele><time>2026-04-11T07:40:58Z</time></trkpt><trkpt lat="43.256948083065595" lon="12.3478667586527"><ele>399.0</ele><time>2026-04-11T07:40:59Z</time></trkpt><trkpt lat="43.2568769625375" lon="12.347990126013354"><ele>401.4</ele><time>2026-04-11T07:41:00Z</time></trkpt><trkpt lat="43.25681741407007" lon="12.348122988581176"><ele>403.79999999999995</ele><time>2026-04-11T07:41:01Z</time></trkpt><trkpt lat="43.2567663388596" lon="12.348261439384913"><ele>406.20000000000005</ele><time>2026-04-11T07:41:02Z</time></trkpt><trkpt lat="43.25673166945549" lon="12.34839270558728"><ele>408.6</ele><time>2026-04-11T07:41:03Z</time></trkpt><trkpt lat="43.256710520999945" lon="12.348523693008838"><ele>411.0</ele><time>2026-04-11T07:41:04Z</time></trkpt><trkpt lat="43.256699538788034" lon="12.348645911857453"><ele>411.0</ele><time>2026-04-11T07:41:05Z</time></trkpt><trkpt lat="43.25669837677169" lon="12.34876930939323"><ele>411.0</ele><time>2026-04-11T07:41:06Z</time></trkpt><trkpt lat="43.25669099522502" lon="12.348894977713492"><ele>411.0</ele><time>2026-04-11T07:41:07Z</time></trkpt><trkpt lat="43.256672435669266" lon="12.349011719131218"><ele>411.0</ele><time>2026-04-11T07:41:08Z</time></trkpt><trkpt lat="43.256666444784386" lon="12.349130139970015"><ele>411.0</ele><time>2026-04-11T07:41:09Z</time></trkpt><trkpt lat="43.25665832072758" lon="12.349227734118475"><ele>411.0</ele><time>2026-04-11T07:41:10Z</time></trkpt><trkpt lat="43.25667669338604" lon="12.349327601144836"><ele>411.5</ele><time>2026-04-11T07:41:11Z</time></trkpt><trkpt lat="43.25672345215989" lon="12.349418641942657"><ele>412.0</ele><time>2026-04-11T07:41:12Z</time></trkpt><trkpt lat="43.2567887187655" lon="12.349487584942448"><ele>412.5</ele><time>2026-04-11T07:41:13Z</time></trkpt><trkpt lat="43.25685025457281" lon="12.349565187309947"><ele>413.0</ele><time>2026-04-11T07:41:14Z</time></trkpt><trkpt lat="43.25692630091697" lon="12.349634518990232"><ele>413.5</ele><time>2026-04-11T07:41:15Z</time></trkpt><trkpt lat="43.25700138938523" lon="12.349705649311284"><ele>414.0</ele><time>2026-04-11T07:41:16Z</time></trkpt><trkpt lat="43.257070365558526" lon="12.349773025242332"><ele>412.8333333333333</ele><time>2026-04-11T07:41:17Z</time></trkpt><trkpt lat="43.257130906508145" lon="12.34983840704875"><ele>411.66666666666663</ele><time>2026-04-11T07:41:18Z</time></trkpt><trkpt lat="43.25719293319363" lon="12.34989708979637"><ele>410.5</ele><time>2026-04-11T07:41:19Z</time></trkpt><trkpt lat="43.257217259049334" lon="12.349999905553908"><ele>409.3333333333333</ele><time>2026-04-11T07:41:20Z</time></trkpt><trkpt lat="43.257204501758174" lon="12.35009994693712"><ele>408.16666666666663</ele><time>2026-04-11T07:41:21Z</time></trkpt><trkpt lat="43.25716129494184" lon="12.350180729052417"><ele>407.0</ele><time>2026-04-11T07:41:22Z</time></trkpt><trkpt lat="43.25708615137559" lon="12.350237219280142"><ele>407.0</ele><time>2026-04-11T07:41:23Z</time></trkpt><trkpt lat="43.25699368850297" lon="12.350255573730252"><ele>407.0</ele><time>2026-04-11T07:41:24Z</time></trkpt><trkpt lat="43.25685757313888" lon="12.350252569322143"><ele>407.0</ele><time>2026-04-11T07:41:25Z</time></trkpt><trkpt lat="43.25673366133099" lon="12.350253461147727"><ele>407.0</ele><time>2026-04-11T07:41:26Z</time></trkpt><trkpt lat="43.25662268444038" lon="12.350251249083339"><ele>407.0</ele><time>2026-04-11T07:41:27Z</time></trkpt><trkpt lat="43.25651722752399" lon="12.3502437767002"><ele>407.0</ele><time>2026-04-11T07:41:28Z</time></trkpt><trkpt lat="43.25641613990798" lon="12.350236582843289"><ele>407.0</ele><time>2026-04-11T07:41:29Z</time></trkpt><trkpt lat="43.25631489724741" lon="12.350223671413266"><ele>407.0</ele><time>2026-04-11T07:41:30Z</time></trkpt><trkpt lat="43.25621087888635" lon="12.350253175388838"><ele>407.0</ele><time>2026-04-11T07:41:31Z</time></trkpt><trkpt lat="43.25611287674529" lon="12.350297323607798"><ele>406.0</ele><time>2026-04-11T07:41:32Z</time></trkpt><trkpt lat="43.25602282517327" lon="12.350359677733385"><ele>405.0</ele><time>2026-04-11T07:41:33Z</time></trkpt><trkpt lat="43.25595088242726" lon="12.350426619021983"><ele>404.0</ele><time>2026-04-11T07:41:34Z</time></trkpt><trkpt lat="43.25589463840665" lon="12.350478235708646"><ele>403.0</ele><time>2026-04-11T07:41:35Z</time></trkpt><trkpt lat="43.25578211201137" lon="12.35052945948327"><ele>402.0</ele><time>2026-04-11T07:41:37Z</time></trkpt><trkpt lat="43.25567159613897" lon="12.350591486768243"><ele>399.6</ele><time>2026-04-11T07:41:39Z</time></trkpt><trkpt lat="43.255565914133584" lon="12.350634133993069"><ele>397.20000000000005</ele><time>2026-04-11T07:41:41Z</time></trkpt><trkpt lat="43.25547417516094" lon="12.350673138115086"><ele>394.8</ele><time>2026-04-11T07:41:43Z</time></trkpt><trkpt lat="43.255384025004886" lon="12.350712810102246"><ele>392.4</ele><time>2026-04-11T07:41:45Z</time></trkpt><trkpt lat="43.25530527237838" lon="12.350747920315902"><ele>390.0</ele><time>2026-04-11T07:41:47Z</time></trkpt><trkpt lat="43.255230306702494" lon="12.350785037716456"><ele>390.0</ele><time>2026-04-11T07:41:50Z</time></trkpt><trkpt lat="43.25512963605487" lon="12.350821685238966"><ele>390.0</ele><time>2026-04-11T07:41:53Z</time></trkpt><trkpt lat="43.25534482377968" lon="12.351026867309804"><ele>390.0</ele><time>2026-04-11T07:41:58Z</time></trkpt><trkpt lat="43.25539585692518" lon="12.350972529257188"><ele>390.0</ele><time>2026-04-11T07:55:01.999Z</time></trkpt><trkpt lat="43.25546383876409" lon="12.350897760515444"><ele>390.0</ele><time>2026-04-11T08:03:27.001Z</time></trkpt><trkpt lat="43.25553154078443" lon="12.350835232485702"><ele>390.0</ele><time>2026-04-11T08:03:29.001Z</time></trkpt><trkpt lat="43.25559190988346" lon="12.350783725055768"><ele>390.0</ele><time>2026-04-11T08:03:31.001Z</time></trkpt><trkpt lat="43.25566815631645" lon="12.350729097370698"><ele>390.0</ele><time>2026-04-11T08:03:33.001Z</time></trkpt><trkpt lat="43.25575769343212" lon="12.350685573627702"><ele>390.0</ele><time>2026-04-11T08:03:35.001Z</time></trkpt><trkpt lat="43.25586464069347" lon="12.350625118915115"><ele>390.0</ele><time>2026-04-11T08:03:37.001Z</time></trkpt><trkpt lat="43.25589269192745" lon="12.350519444533916"><ele>390.25</ele><time>2026-04-11T08:03:38.001Z</time></trkpt><trkpt lat="43.25599510044745" lon="12.35049646504757"><ele>390.5</ele><time>2026-04-11T08:03:40.001Z</time></trkpt><trkpt lat="43.256066161707544" lon="12.350691112150137"><ele>390.75</ele><time>2026-04-11T08:03:42.001Z</time></trkpt><trkpt lat="43.25619029512544" lon="12.350758362295634"><ele>391.0</ele><time>2026-04-11T08:03:44.001Z</time></trkpt><trkpt lat="43.256254022002715" lon="12.350770236719454"><ele>393.20000000000005</ele><time>2026-04-11T08:03:45.001Z</time></trkpt><trkpt lat="43.25632286221868" lon="12.35079294999834"><ele>395.40000000000003</ele><time>2026-04-11T08:03:46.001Z</time></trkpt><trkpt lat="43.256411675022115" lon="12.350804765247046"><ele>397.6</ele><time>2026-04-11T08:03:47.001Z</time></trkpt><trkpt lat="43.25650843537591" lon="12.35084326488797"><ele>399.8</ele><time>2026-04-11T08:03:48.001Z</time></trkpt><trkpt lat="43.25660822105684" lon="12.350862885250823"><ele>402.0</ele><time>2026-04-11T08:03:49.001Z</time></trkpt><trkpt lat="43.256705629616796" lon="12.350883910977904"><ele>403.6666666666667</ele><time>2026-04-11T08:03:50.001Z</time></trkpt><trkpt lat="43.256795089156896" lon="12.350909549779146"><ele>405.33333333333337</ele><time>2026-04-11T08:03:51.001Z</time></trkpt><trkpt lat="43.256882555562015" lon="12.350938979698679"><ele>407.0</ele><time>2026-04-11T08:03:52.001Z</time></trkpt><trkpt lat="43.25695558342519" lon="12.350978256233622"><ele>408.6666666666667</ele><time>2026-04-11T08:03:53.001Z</time></trkpt><trkpt lat="43.25702753696135" lon="12.351025797495966"><ele>410.33333333333337</ele><time>2026-04-11T08:03:54.001Z</time></trkpt><trkpt lat="43.25709949918583" lon="12.351082053502603"><ele>412.0</ele><time>2026-04-11T08:03:55.001Z</time></trkpt><trkpt lat="43.25716995882952" lon="12.351140208689149"><ele>412.00000000000006</ele><time>2026-04-11T08:03:56.001Z</time></trkpt><trkpt lat="43.257231705027216" lon="12.351196265846642"><ele>412.0</ele><time>2026-04-11T08:03:57.001Z</time></trkpt><trkpt lat="43.257283182883754" lon="12.351250365574185"><ele>412.0</ele><time>2026-04-11T08:03:58.001Z</time></trkpt><trkpt lat="43.25736040535053" lon="12.351358914187202"><ele>412.0</ele><time>2026-04-11T08:04:00.001Z</time></trkpt><trkpt lat="43.25735547589488" lon="12.351475811579203"><ele>412.00000000000006</ele><time>2026-04-11T08:04:02.001Z</time></trkpt><trkpt lat="43.257264501873166" lon="12.351534637124264"><ele>412.0</ele><time>2026-04-11T08:04:03.001Z</time></trkpt><trkpt lat="43.257187210722364" lon="12.351566625189024"><ele>412.8</ele><time>2026-04-11T08:04:04.001Z</time></trkpt><trkpt lat="43.25709654310456" lon="12.351582462234408"><ele>413.6</ele><time>2026-04-11T08:04:05.001Z</time></trkpt><trkpt lat="43.25700755080512" lon="12.351588091452031"><ele>414.40000000000003</ele><time>2026-04-11T08:04:06.001Z</time></trkpt><trkpt lat="43.25690939508126" lon="12.351596857436219"><ele>415.20000000000005</ele><time>2026-04-11T08:04:07.001Z</time></trkpt><trkpt lat="43.25681831175121" lon="12.351609340914555"><ele>416.0</ele><time>2026-04-11T08:04:08.001Z</time></trkpt><trkpt lat="43.25673984466338" lon="12.351641031797657"><ele>415.99999999999994</ele><time>2026-04-11T08:04:09.001Z</time></trkpt><trkpt lat="43.25666907645966" lon="12.35167395232985"><ele>416.0</ele><time>2026-04-11T08:04:10.001Z</time></trkpt><trkpt lat="43.25659758911398" lon="12.351730088462412"><ele>416.0</ele><time>2026-04-11T08:04:11.001Z</time></trkpt><trkpt lat="43.25655242060182" lon="12.351796107097886"><ele>416.0</ele><time>2026-04-11T08:04:12.001Z</time></trkpt><trkpt lat="43.25649325397286" lon="12.351874133231949"><ele>415.99999999999994</ele><time>2026-04-11T08:04:13.001Z</time></trkpt><trkpt lat="43.2564626354603" lon="12.351994017040372"><ele>416.0</ele><time>2026-04-11T08:04:14.001Z</time></trkpt><trkpt lat="43.25642572948482" lon="12.352091926969834"><ele>414.99999999999994</ele><time>2026-04-11T08:04:15.001Z</time></trkpt><trkpt lat="43.256404990017465" lon="12.352184176809123"><ele>414.0</ele><time>2026-04-11T08:04:16.001Z</time></trkpt><trkpt lat="43.25638140701422" lon="12.352264956293729"><ele>413.0</ele><time>2026-04-11T08:04:17.001Z</time></trkpt><trkpt lat="43.2563854274081" lon="12.352360888260234"><ele>412.0</ele><time>2026-04-11T08:04:18.001Z</time></trkpt><trkpt lat="43.256410378754815" lon="12.352464439101373"><ele>410.99999999999994</ele><time>2026-04-11T08:04:19.001Z</time></trkpt><trkpt lat="43.25648686401633" lon="12.35254075151602"><ele>410.0</ele><time>2026-04-11T08:04:20.001Z</time></trkpt><trkpt lat="43.256546287953185" lon="12.352602972952724"><ele>413.16666666666663</ele><time>2026-04-11T08:04:21.001Z</time></trkpt><trkpt lat="43.25660521483995" lon="12.352693783877989"><ele>416.3333333333333</ele><time>2026-04-11T08:04:22.001Z</time></trkpt><trkpt lat="43.256665293813164" lon="12.352755979739865"><ele>419.5</ele><time>2026-04-11T08:04:23.001Z</time></trkpt><trkpt lat="43.256731567011094" lon="12.352822791453887"><ele>422.66666666666663</ele><time>2026-04-11T08:04:24.001Z</time></trkpt><trkpt lat="43.25679655564981" lon="12.352884917983815"><ele>425.8333333333333</ele><time>2026-04-11T08:04:25.001Z</time></trkpt><trkpt lat="43.256861054868814" lon="12.352939239988109"><ele>429.0</ele><time>2026-04-11T08:04:26.001Z</time></trkpt><trkpt lat="43.25692944418925" lon="12.352994260922443"><ele>429.0</ele><time>2026-04-11T08:04:27.001Z</time></trkpt><trkpt lat="43.25699246071609" lon="12.353033082576426"><ele>429.0</ele><time>2026-04-11T08:04:28.001Z</time></trkpt><trkpt lat="43.25706419404185" lon="12.35305887983642"><ele>429.0</ele><time>2026-04-11T08:04:29.001Z</time></trkpt><trkpt lat="43.257141013558865" lon="12.353076172491082"><ele>429.0</ele><time>2026-04-11T08:04:30.001Z</time></trkpt><trkpt lat="43.257223736777355" lon="12.35309442295035"><ele>429.0</ele><time>2026-04-11T08:04:31.001Z</time></trkpt><trkpt lat="43.25730621259107" lon="12.353124595668488"><ele>429.0</ele><time>2026-04-11T08:04:32.001Z</time></trkpt><trkpt lat="43.25739924516178" lon="12.3531665138697"><ele>433.1666666666667</ele><time>2026-04-11T08:04:33.001Z</time></trkpt><trkpt lat="43.25749231938344" lon="12.353209804210413"><ele>437.33333333333337</ele><time>2026-04-11T08:04:34.001Z</time></trkpt><trkpt lat="43.25758458580694" lon="12.353230074592833"><ele>441.5</ele><time>2026-04-11T08:04:35.001Z</time></trkpt><trkpt lat="43.25766480209897" lon="12.353276355099947"><ele>445.6666666666667</ele><time>2026-04-11T08:04:36.001Z</time></trkpt><trkpt lat="43.25771889135373" lon="12.353336603392895"><ele>449.83333333333337</ele><time>2026-04-11T08:04:37.001Z</time></trkpt><trkpt lat="43.2577777783874" lon="12.353418618254846"><ele>454.0</ele><time>2026-04-11T08:04:39.001Z</time></trkpt><trkpt lat="43.25778671763027" lon="12.353505892080875"><ele>454.0</ele><time>2026-04-11T08:04:41.001Z</time></trkpt><trkpt lat="43.25766662801815" lon="12.35356926204752"><ele>454.0</ele><time>2026-04-11T08:04:43.001Z</time></trkpt><trkpt lat="43.25757643457309" lon="12.353672859089908"><ele>454.0</ele><time>2026-04-11T08:04:45.002Z</time></trkpt><trkpt lat="43.257509091714226" lon="12.353751661726983"><ele>454.0</ele><time>2026-04-11T08:04:46.002Z</time></trkpt><trkpt lat="43.2574256202731" lon="12.353842205564362"><ele>454.0</ele><time>2026-04-11T08:04:47.002Z</time></trkpt><trkpt lat="43.25734790449566" lon="12.35394876398591"><ele>455.25</ele><time>2026-04-11T08:04:48.002Z</time></trkpt><trkpt lat="43.2572764814491" lon="12.354070657699905"><ele>456.5</ele><time>2026-04-11T08:04:49.002Z</time></trkpt><trkpt lat="43.25720705738951" lon="12.354200777608918"><ele>457.75</ele><time>2026-04-11T08:04:50.002Z</time></trkpt><trkpt lat="43.25713166375332" lon="12.354340816262399"><ele>459.0</ele><time>2026-04-11T08:04:51.002Z</time></trkpt><trkpt lat="43.25705562323486" lon="12.354480500079362"><ele>459.0</ele><time>2026-04-11T08:04:52.002Z</time></trkpt><trkpt lat="43.25698643135012" lon="12.354602018530958"><ele>459.0</ele><time>2026-04-11T08:04:53.002Z</time></trkpt><trkpt lat="43.25692555800597" lon="12.35471092279667"><ele>459.0</ele><time>2026-04-11T08:04:54.002Z</time></trkpt><trkpt lat="43.256859125804105" lon="12.354792136169417"><ele>459.0</ele><time>2026-04-11T08:04:55.002Z</time></trkpt><trkpt lat="43.25680992206229" lon="12.35488983707393"><ele>459.0</ele><time>2026-04-11T08:04:56.002Z</time></trkpt><trkpt lat="43.25678367813948" lon="12.354970363781005"><ele>461.6</ele><time>2026-04-11T08:04:57.002Z</time></trkpt><trkpt lat="43.256804300597565" lon="12.355057934025202"><ele>464.2</ele><time>2026-04-11T08:04:59.002Z</time></trkpt><trkpt lat="43.256856112624305" lon="12.355145781832752"><ele>466.80000000000007</ele><time>2026-04-11T08:05:01.002Z</time></trkpt><trkpt lat="43.256957155751756" lon="12.355108115242585"><ele>469.40000000000003</ele><time>2026-04-11T08:05:03.002Z</time></trkpt><trkpt lat="43.25706452940904" lon="12.355064582711421"><ele>472.0</ele><time>2026-04-11T08:05:05.002Z</time></trkpt><trkpt lat="43.25718291569755" lon="12.35499721737905"><ele>472.00000000000006</ele><time>2026-04-11T08:05:07.002Z</time></trkpt><trkpt lat="43.257254039073516" lon="12.354966045388275"><ele>472.0</ele><time>2026-04-11T08:05:08.002Z</time></trkpt><trkpt lat="43.257356350343315" lon="12.354979117026074"><ele>472.0</ele><time>2026-04-11T08:05:10.002Z</time></trkpt><trkpt lat="43.257329854108924" lon="12.355113304752503"><ele>472.0</ele><time>2026-04-11T08:05:13.002Z</time></trkpt><trkpt lat="43.25731758800494" lon="12.355202868322362"><ele>472.00000000000006</ele><time>2026-04-11T08:05:14.002Z</time></trkpt><trkpt lat="43.257301327451465" lon="12.355290023883267"><ele>472.0</ele><time>2026-04-11T08:05:15.002Z</time></trkpt><trkpt lat="43.2573316462307" lon="12.355456990841327"><ele>477.83333333333337</ele><time>2026-04-11T08:05:17Z</time></trkpt><trkpt lat="43.25737801461158" lon="12.355543680078867"><ele>483.6666666666667</ele><time>2026-04-11T08:05:18Z</time></trkpt><trkpt lat="43.25741160543124" lon="12.355635340765467"><ele>489.5</ele><time>2026-04-11T08:05:19Z</time></trkpt><trkpt lat="43.25745820463239" lon="12.355734842971538"><ele>495.33333333333337</ele><time>2026-04-11T08:05:20Z</time></trkpt><trkpt lat="43.25749486204642" lon="12.355817872583568"><ele>501.1666666666667</ele><time>2026-04-11T08:05:21Z</time></trkpt><trkpt lat="43.25755495958123" lon="12.355919734838709"><ele>507.0</ele><time>2026-04-11T08:05:22Z</time></trkpt><trkpt lat="43.257596498954854" lon="12.35602794099672"><ele>507.0</ele><time>2026-04-11T08:05:23Z</time></trkpt><trkpt lat="43.25762922854256" lon="12.356155138152397"><ele>507.00000000000006</ele><time>2026-04-11T08:05:24Z</time></trkpt><trkpt lat="43.25762487340895" lon="12.356275252012924"><ele>507.00000000000006</ele><time>2026-04-11T08:05:25Z</time></trkpt><trkpt lat="43.257632978891095" lon="12.356373721736817"><ele>507.0</ele><time>2026-04-11T08:05:26Z</time></trkpt><trkpt lat="43.257651930111464" lon="12.35652555875804"><ele>507.0</ele><time>2026-04-11T08:05:28Z</time></trkpt><trkpt lat="43.25770459341536" lon="12.356614338526091"><ele>507.0</ele><time>2026-04-11T08:05:30Z</time></trkpt><trkpt lat="43.2577798143655" lon="12.356606488286248"><ele>507.0</ele><time>2026-04-11T08:05:31Z</time></trkpt><trkpt lat="43.257832798011755" lon="12.356534260781942"><ele>507.0</ele><time>2026-04-11T08:05:32Z</time></trkpt><trkpt lat="43.25783823140251" lon="12.356445238839568"><ele>507.0</ele><time>2026-04-11T08:05:33Z</time></trkpt><trkpt lat="43.257798227225116" lon="12.356360424630086"><ele>507.0</ele><time>2026-04-11T08:05:34Z</time></trkpt><trkpt lat="43.25779362358036" lon="12.356257566410488"><ele>507.0</ele><time>2026-04-11T08:05:35Z</time></trkpt><trkpt lat="43.257789101538044" lon="12.356146804643714"><ele>507.0</ele><time>2026-04-11T08:05:36Z</time></trkpt><trkpt lat="43.25776523236416" lon="12.356010063537546"><ele>507.0</ele><time>2026-04-11T08:05:37Z</time></trkpt><trkpt lat="43.257743671260705" lon="12.355877586865857"><ele>507.00000000000006</ele><time>2026-04-11T08:05:38Z</time></trkpt><trkpt lat="43.257737406957034" lon="12.355751840230162"><ele>507.00000000000006</ele><time>2026-04-11T08:05:39Z</time></trkpt><trkpt lat="43.25775463004404" lon="12.355647735884924"><ele>507.0</ele><time>2026-04-11T08:05:40Z</time></trkpt><trkpt lat="43.25782222445297" lon="12.355495628145611"><ele>507.0</ele><time>2026-04-11T08:05:42Z</time></trkpt><trkpt lat="43.257854100140925" lon="12.35537805711544"><ele>505.3333333333333</ele><time>2026-04-11T08:05:43Z</time></trkpt><trkpt lat="43.25791536844907" lon="12.355295831810036"><ele>503.66666666666663</ele><time>2026-04-11T08:05:44Z</time></trkpt><trkpt lat="43.257972831509534" lon="12.355219434616098"><ele>502.0</ele><time>2026-04-11T08:05:45Z</time></trkpt><trkpt lat="43.25802683093458" lon="12.355134249757642"><ele>500.3333333333333</ele><time>2026-04-11T08:05:46Z</time></trkpt><trkpt lat="43.258096746209894" lon="12.355073242489972"><ele>498.66666666666663</ele><time>2026-04-11T08:05:47Z</time></trkpt><trkpt lat="43.258186908485186" lon="12.355017968803995"><ele>497.0</ele><time>2026-04-11T08:05:48Z</time></trkpt><trkpt lat="43.25827146113708" lon="12.354953845354634"><ele>497.8</ele><time>2026-04-11T08:05:49Z</time></trkpt><trkpt lat="43.25836539316147" lon="12.354886529900122"><ele>498.6</ele><time>2026-04-11T08:05:50Z</time></trkpt><trkpt lat="43.258458268200904" lon="12.354821998551852"><ele>499.40000000000003</ele><time>2026-04-11T08:05:51Z</time></trkpt><trkpt lat="43.25853678283748" lon="12.354767445173195"><ele>500.20000000000005</ele><time>2026-04-11T08:05:52Z</time></trkpt><trkpt lat="43.258609396680306" lon="12.354718131925221"><ele>501.0</ele><time>2026-04-11T08:05:53Z</time></trkpt><trkpt lat="43.25868535412513" lon="12.354675705497609"><ele>501.0</ele><time>2026-04-11T08:05:54Z</time></trkpt><trkpt lat="43.25876225692322" lon="12.354658093050025"><ele>501.0</ele><time>2026-04-11T08:05:55Z</time></trkpt><trkpt lat="43.258844503747916" lon="12.354669784623427"><ele>501.0</ele><time>2026-04-11T08:05:56Z</time></trkpt><trkpt lat="43.258934854409745" lon="12.354695280726352"><ele>501.0</ele><time>2026-04-11T08:05:57Z</time></trkpt><trkpt lat="43.25902550137656" lon="12.354690185527637"><ele>501.0</ele><time>2026-04-11T08:05:58Z</time></trkpt><trkpt lat="43.25912265421118" lon="12.354657404971793"><ele>501.0</ele><time>2026-04-11T08:05:59Z</time></trkpt><trkpt lat="43.25920871085041" lon="12.354606845406535"><ele>506.0</ele><time>2026-04-11T08:06:00Z</time></trkpt><trkpt lat="43.259299908938424" lon="12.354537416536882"><ele>511.0</ele><time>2026-04-11T08:06:01Z</time></trkpt><trkpt lat="43.25938376015922" lon="12.354457847400457"><ele>516.0</ele><time>2026-04-11T08:06:02Z</time></trkpt><trkpt lat="43.25946203598508" lon="12.354382015143603"><ele>521.0</ele><time>2026-04-11T08:06:03Z</time></trkpt><trkpt lat="43.25954158983547" lon="12.354294267815655"><ele>526.0</ele><time>2026-04-11T08:06:04Z</time></trkpt><trkpt lat="43.25962020911202" lon="12.354215346229397"><ele>526.0</ele><time>2026-04-11T08:06:05Z</time></trkpt><trkpt lat="43.2597085249385" lon="12.354154884243318"><ele>526.0</ele><time>2026-04-11T08:06:06Z</time></trkpt><trkpt lat="43.259801448605536" lon="12.354136081450923"><ele>526.0</ele><time>2026-04-11T08:06:07.001Z</time></trkpt><trkpt lat="43.25992246819321" lon="12.354107577322791"><ele>526.0</ele><time>2026-04-11T08:06:08.001Z</time></trkpt><trkpt lat="43.26002522671929" lon="12.354088861431249"><ele>526.0</ele><time>2026-04-11T08:06:09.001Z</time></trkpt><trkpt lat="43.26010157064928" lon="12.354082380665364"><ele>532.25</ele><time>2026-04-11T08:06:10.001Z</time></trkpt><trkpt lat="43.26020358346249" lon="12.354147163530998"><ele>538.5</ele><time>2026-04-11T08:06:12.001Z</time></trkpt><trkpt lat="43.26022824747822" lon="12.354290425026434"><ele>544.75</ele><time>2026-04-11T08:06:14.001Z</time></trkpt><trkpt lat="43.2602546921851" lon="12.354500577333008"><ele>551.0</ele><time>2026-04-11T08:06:16.001Z</time></trkpt><trkpt lat="43.26023571478527" lon="12.354621226082621"><ele>554.6</ele><time>2026-04-11T08:06:17.001Z</time></trkpt><trkpt lat="43.26020203719758" lon="12.354737637873276"><ele>558.2</ele><time>2026-04-11T08:06:18.001Z</time></trkpt><trkpt lat="43.260166610063706" lon="12.354818253611555"><ele>561.8</ele><time>2026-04-11T08:06:19.001Z</time></trkpt><trkpt lat="43.260060117424004" lon="12.35491777837611"><ele>565.4</ele><time>2026-04-11T08:06:21.001Z</time></trkpt><trkpt lat="43.25996155350257" lon="12.354912605044962"><ele>569.0</ele><time>2026-04-11T08:06:22.001Z</time></trkpt><trkpt lat="43.25988059995605" lon="12.354921874432977"><ele>569.0</ele><time>2026-04-11T08:06:23.001Z</time></trkpt><trkpt lat="43.259816784161906" lon="12.354939504103605"><ele>569.0</ele><time>2026-04-11T08:06:24.001Z</time></trkpt><trkpt lat="43.25975756556105" lon="12.354986389569815"><ele>569.0</ele><time>2026-04-11T08:06:25.001Z</time></trkpt><trkpt lat="43.25970453939392" lon="12.355058394063452"><ele>569.0</ele><time>2026-04-11T08:06:26.001Z</time></trkpt><trkpt lat="43.259660910991826" lon="12.355155992130658"><ele>569.0</ele><time>2026-04-11T08:06:27.001Z</time></trkpt><trkpt lat="43.25962476573849" lon="12.355265087858424"><ele>569.0</ele><time>2026-04-11T08:06:28.001Z</time></trkpt><trkpt lat="43.25958563637983" lon="12.35537032928533"><ele>570.6666666666666</ele><time>2026-04-11T08:06:29.001Z</time></trkpt><trkpt lat="43.25954347939848" lon="12.35547175301412"><ele>572.3333333333333</ele><time>2026-04-11T08:06:30.001Z</time></trkpt><trkpt lat="43.259482924726555" lon="12.355555580325175"><ele>574.0</ele><time>2026-04-11T08:06:31.001Z</time></trkpt><trkpt lat="43.2594044668972" lon="12.355612166036599"><ele>575.6666666666666</ele><time>2026-04-11T08:06:32.001Z</time></trkpt><trkpt lat="43.259312239719804" lon="12.355655889933896"><ele>577.3333333333334</ele><time>2026-04-11T08:06:33.001Z</time></trkpt><trkpt lat="43.25924698817053" lon="12.355716794547536"><ele>579.0</ele><time>2026-04-11T08:06:34.001Z</time></trkpt><trkpt lat="43.259200028648195" lon="12.355779952083523"><ele>579.0</ele><time>2026-04-11T08:06:35.001Z</time></trkpt><trkpt lat="43.259119946539116" lon="12.355940368638352"><ele>579.0</ele><time>2026-04-11T08:06:37.001Z</time></trkpt><trkpt lat="43.259087526692625" lon="12.35606289502664"><ele>579.0</ele><time>2026-04-11T08:06:38.001Z</time></trkpt><trkpt lat="43.259073463823675" lon="12.356167368642632"><ele>579.0</ele><time>2026-04-11T08:06:39.001Z</time></trkpt><trkpt lat="43.25908290520333" lon="12.356266484287636"><ele>579.0</ele><time>2026-04-11T08:06:40.001Z</time></trkpt><trkpt lat="43.259107160458534" lon="12.356383107190192"><ele>579.4</ele><time>2026-04-11T08:06:41.001Z</time></trkpt><trkpt lat="43.25914730067147" lon="12.356513860501135"><ele>579.8</ele><time>2026-04-11T08:06:42.001Z</time></trkpt><trkpt lat="43.259163094776504" lon="12.35665291642279"><ele>580.2</ele><time>2026-04-11T08:06:43.001Z</time></trkpt><trkpt lat="43.25919223091447" lon="12.356780409649586"><ele>580.6</ele><time>2026-04-11T08:06:44.001Z</time></trkpt><trkpt lat="43.25921274321998" lon="12.35689384821402"><ele>581.0</ele><time>2026-04-11T08:06:45.001Z</time></trkpt><trkpt lat="43.25923847129201" lon="12.357017971438744"><ele>581.0</ele><time>2026-04-11T08:06:46.001Z</time></trkpt><trkpt lat="43.25920726999928" lon="12.357138969146058"><ele>581.0</ele><time>2026-04-11T08:06:47.001Z</time></trkpt><trkpt lat="43.25917775124457" lon="12.357262364145747"><ele>581.0</ele><time>2026-04-11T08:06:48.001Z</time></trkpt><trkpt lat="43.25912419924441" lon="12.35737884533275"><ele>581.0</ele><time>2026-04-11T08:06:49.001Z</time></trkpt><trkpt lat="43.259047886429414" lon="12.357472211743929"><ele>581.0</ele><time>2026-04-11T08:06:50.001Z</time></trkpt><trkpt lat="43.25898337355873" lon="12.357591086508782"><ele>579.1666666666666</ele><time>2026-04-11T08:06:51.001Z</time></trkpt><trkpt lat="43.25891263452083" lon="12.357695944269935"><ele>577.3333333333333</ele><time>2026-04-11T08:06:52.001Z</time></trkpt><trkpt lat="43.25886090742501" lon="12.357794657907837"><ele>575.5</ele><time>2026-04-11T08:06:53.001Z</time></trkpt><trkpt lat="43.258809505591074" lon="12.357884334119436"><ele>573.6666666666666</ele><time>2026-04-11T08:06:54.001Z</time></trkpt><trkpt lat="43.25876919781361" lon="12.357979772740416"><ele>571.8333333333334</ele><time>2026-04-11T08:06:55.001Z</time></trkpt><trkpt lat="43.258727099676314" lon="12.358090602984936"><ele>570.0</ele><time>2026-04-11T08:06:56.001Z</time></trkpt><trkpt lat="43.25870120816294" lon="12.358189348840968"><ele>570.0</ele><time>2026-04-11T08:06:57.001Z</time></trkpt><trkpt lat="43.25865801890513" lon="12.358271160469647"><ele>570.0</ele><time>2026-04-11T08:06:58.001Z</time></trkpt><trkpt lat="43.25863023344256" lon="12.358358868391912"><ele>570.0</ele><time>2026-04-11T08:06:59.001Z</time></trkpt><trkpt lat="43.25861764951656" lon="12.358516124583739"><ele>570.0</ele><time>2026-04-11T08:07:01.001Z</time></trkpt><trkpt lat="43.25867540128855" lon="12.358628219889628"><ele>570.0</ele><time>2026-04-11T08:07:03.001Z</time></trkpt><trkpt lat="43.25878659955768" lon="12.358643980556954"><ele>570.0</ele><time>2026-04-11T08:07:05.001Z</time></trkpt><trkpt lat="43.25884983124092" lon="12.358615679709674"><ele>570.0</ele><time>2026-04-11T08:07:06.001Z</time></trkpt><trkpt lat="43.25891171101605" lon="12.358570885242148"><ele>570.0</ele><time>2026-04-11T08:07:07.001Z</time></trkpt><trkpt lat="43.25897035350735" lon="12.358508310092418"><ele>570.0</ele><time>2026-04-11T08:07:08.001Z</time></trkpt><trkpt lat="43.259034535544025" lon="12.358439457235722"><ele>570.0</ele><time>2026-04-11T08:07:09.001Z</time></trkpt><trkpt lat="43.25909837171412" lon="12.358379585789844"><ele>570.0</ele><time>2026-04-11T08:07:10.001Z</time></trkpt><trkpt lat="43.25916222475837" lon="12.358323262763406"><ele>570.0</ele><time>2026-04-11T08:07:11.001Z</time></trkpt><trkpt lat="43.25923841981166" lon="12.358258511631067"><ele>573.0</ele><time>2026-04-11T08:07:12.001Z</time></trkpt><trkpt lat="43.25932243392393" lon="12.358262547108371"><ele>576.0</ele><time>2026-04-11T08:07:13.001Z</time></trkpt><trkpt lat="43.25941558212673" lon="12.358258935267736"><ele>579.0</ele><time>2026-04-11T08:07:14.001Z</time></trkpt><trkpt lat="43.25951687333754" lon="12.358254294657096"><ele>582.0</ele><time>2026-04-11T08:07:15.001Z</time></trkpt><trkpt lat="43.25960031978587" lon="12.358247615603394"><ele>585.0</ele><time>2026-04-11T08:07:16.001Z</time></trkpt><trkpt lat="43.25967906992028" lon="12.35823533632446"><ele>588.0</ele><time>2026-04-11T08:07:17.001Z</time></trkpt><trkpt lat="43.25978566338878" lon="12.358199764023764"><ele>590.8</ele><time>2026-04-11T08:07:19.002Z</time></trkpt><trkpt lat="43.259824540845436" lon="12.35811573978184"><ele>593.5999999999999</ele><time>2026-04-11T08:07:20.002Z</time></trkpt><trkpt lat="43.259858835983955" lon="12.358011604223396"><ele>596.4000000000001</ele><time>2026-04-11T08:07:21.002Z</time></trkpt><trkpt lat="43.25990256540591" lon="12.35790602467025"><ele>599.2</ele><time>2026-04-11T08:07:22.002Z</time></trkpt><trkpt lat="43.25995702465446" lon="12.357784821514931"><ele>602.0</ele><time>2026-04-11T08:07:23Z</time></trkpt><trkpt lat="43.25999815431898" lon="12.357645644452456"><ele>602.2</ele><time>2026-04-11T08:07:24Z</time></trkpt><trkpt lat="43.26000166729034" lon="12.35751292586364"><ele>602.4000000000001</ele><time>2026-04-11T08:07:25Z</time></trkpt><trkpt lat="43.26002499139427" lon="12.357374340350466"><ele>602.5999999999999</ele><time>2026-04-11T08:07:26Z</time></trkpt><trkpt lat="43.260048882355264" lon="12.357246485955285"><ele>602.8</ele><time>2026-04-11T08:07:27Z</time></trkpt><trkpt lat="43.26008807010937" lon="12.357141384014449"><ele>603.0</ele><time>2026-04-11T08:07:28Z</time></trkpt><trkpt lat="43.26014505442979" lon="12.35708116259361"><ele>603.0</ele><time>2026-04-11T08:07:29Z</time></trkpt><trkpt lat="43.260231871735584" lon="12.357020463062318"><ele>603.0</ele><time>2026-04-11T08:07:31Z</time></trkpt><trkpt lat="43.26029548726992" lon="12.357043748107357"><ele>603.0</ele><time>2026-04-11T08:07:32Z</time></trkpt><trkpt lat="43.26038440454506" lon="12.357174897708845"><ele>603.0</ele><time>2026-04-11T08:07:34Z</time></trkpt><trkpt lat="43.26044548169736" lon="12.357246392973902"><ele>603.0</ele><time>2026-04-11T08:07:35Z</time></trkpt><trkpt lat="43.26049669761266" lon="12.357325304164833"><ele>604.1666666666666</ele><time>2026-04-11T08:07:36Z</time></trkpt><trkpt lat="43.26054936603228" lon="12.357394432157921"><ele>605.3333333333334</ele><time>2026-04-11T08:07:37Z</time></trkpt><trkpt lat="43.260610829446364" lon="12.357443925286812"><ele>606.5</ele><time>2026-04-11T08:07:38Z</time></trkpt><trkpt lat="43.26068976429638" lon="12.357472952745177"><ele>607.6666666666667</ele><time>2026-04-11T08:07:39Z</time></trkpt><trkpt lat="43.26078787378347" lon="12.357479416468788"><ele>608.8333333333334</ele><time>2026-04-11T08:07:40Z</time></trkpt><trkpt lat="43.26089137651458" lon="12.35748036589968"><ele>610.0</ele><time>2026-04-11T08:07:41Z</time></trkpt><trkpt lat="43.2609883180215" lon="12.357468341519695"><ele>609.25</ele><time>2026-04-11T08:07:42Z</time></trkpt><trkpt lat="43.2610903688386" lon="12.357428600498487"><ele>608.5</ele><time>2026-04-11T08:07:43Z</time></trkpt><trkpt lat="43.26118729750789" lon="12.35735806668958"><ele>607.75</ele><time>2026-04-11T08:07:44Z</time></trkpt><trkpt lat="43.2612830086715" lon="12.357266041176482"><ele>607.0</ele><time>2026-04-11T08:07:45Z</time></trkpt><trkpt lat="43.26139116972088" lon="12.357145543994397"><ele>610.0</ele><time>2026-04-11T08:07:46Z</time></trkpt><trkpt lat="43.26151247980817" lon="12.357048417035614"><ele>613.0</ele><time>2026-04-11T08:07:47Z</time></trkpt><trkpt lat="43.261610822458515" lon="12.35696383494098"><ele>616.0</ele><time>2026-04-11T08:07:48Z</time></trkpt><trkpt lat="43.26171055336001" lon="12.356886369930793"><ele>619.0</ele><time>2026-04-11T08:07:49Z</time></trkpt><trkpt lat="43.261804630622066" lon="12.35681885347524"><ele>619.0</ele><time>2026-04-11T08:07:50Z</time></trkpt><trkpt lat="43.261890629492605" lon="12.356754189282114"><ele>619.0</ele><time>2026-04-11T08:07:51Z</time></trkpt><trkpt lat="43.26196589699906" lon="12.35668896982129"><ele>619.0</ele><time>2026-04-11T08:07:52Z</time></trkpt><trkpt lat="43.26204444729826" lon="12.35663102355681"><ele>619.0</ele><time>2026-04-11T08:07:53Z</time></trkpt><trkpt lat="43.26212424077645" lon="12.356601264983867"><ele>619.0</ele><time>2026-04-11T08:07:54Z</time></trkpt><trkpt lat="43.26220009369832" lon="12.356594029251129"><ele>619.0</ele><time>2026-04-11T08:07:55Z</time></trkpt><trkpt lat="43.26226930240598" lon="12.356588948740717"><ele>620.7142857142857</ele><time>2026-04-11T08:07:56Z</time></trkpt><trkpt lat="43.26233245466141" lon="12.356595106795588"><ele>622.4285714285714</ele><time>2026-04-11T08:07:58Z</time></trkpt><trkpt lat="43.26241840781195" lon="12.356635312868198"><ele>624.1428571428571</ele><time>2026-04-11T08:08:34.001Z</time></trkpt><trkpt lat="43.26247948806021" lon="12.35666828845218"><ele>625.8571428571429</ele><time>2026-04-11T08:08:35.001Z</time></trkpt><trkpt lat="43.262542997828064" lon="12.356702575661812"><ele>627.5714285714286</ele><time>2026-04-11T08:08:36.001Z</time></trkpt><trkpt lat="43.26260715020431" lon="12.356733675443525"><ele>629.2857142857143</ele><time>2026-04-11T08:08:37.001Z</time></trkpt><trkpt lat="43.26267463025222" lon="12.356764693928698"><ele>631.0</ele><time>2026-04-11T08:08:38.001Z</time></trkpt><trkpt lat="43.262741679931935" lon="12.356793537511619"><ele>631.0</ele><time>2026-04-11T08:08:39.001Z</time></trkpt><trkpt lat="43.26281531793686" lon="12.356822500676936"><ele>631.0</ele><time>2026-04-11T08:08:40.001Z</time></trkpt><trkpt lat="43.26288680710943" lon="12.356843736387697"><ele>631.0</ele><time>2026-04-11T08:08:41.001Z</time></trkpt><trkpt lat="43.26295360394765" lon="12.356870666047804"><ele>631.0</ele><time>2026-04-11T08:08:42.001Z</time></trkpt><trkpt lat="43.26307095564056" lon="12.356969954918647"><ele>631.0</ele><time>2026-04-11T08:08:44.001Z</time></trkpt><trkpt lat="43.263128975949314" lon="12.357025429544152"><ele>631.0</ele><time>2026-04-11T08:08:45.001Z</time></trkpt><trkpt lat="43.26319410043424" lon="12.357084912399483"><ele>632.8</ele><time>2026-04-11T08:08:46.001Z</time></trkpt><trkpt lat="43.26326806026829" lon="12.357154746774963"><ele>634.6</ele><time>2026-04-11T08:08:47.001Z</time></trkpt><trkpt lat="43.26337555781738" lon="12.35718255927397"><ele>636.4</ele><time>2026-04-11T08:08:48.001Z</time></trkpt><trkpt lat="43.26347698525026" lon="12.357188381154886"><ele>638.2</ele><time>2026-04-11T08:08:49.001Z</time></trkpt><trkpt lat="43.263563711001275" lon="12.35719532583721"><ele>640.0</ele><time>2026-04-11T08:08:50.001Z</time></trkpt><trkpt lat="43.263646543021274" lon="12.35720270600358"><ele>636.6666666666667</ele><time>2026-04-11T08:08:51.001Z</time></trkpt><trkpt lat="43.263738324353916" lon="12.35721194378314"><ele>633.3333333333334</ele><time>2026-04-11T08:08:52.001Z</time></trkpt><trkpt lat="43.26383513834935" lon="12.357226845197351"><ele>630.0</ele><time>2026-04-11T08:08:53.001Z</time></trkpt><trkpt lat="43.263920787515694" lon="12.357242437516947"><ele>626.6666666666666</ele><time>2026-04-11T08:08:54.001Z</time></trkpt><trkpt lat="43.263995398439754" lon="12.357256944049253"><ele>623.3333333333333</ele><time>2026-04-11T08:08:55.001Z</time></trkpt><trkpt lat="43.2640811241354" lon="12.35729577750537"><ele>620.0</ele><time>2026-04-11T08:08:56.001Z</time></trkpt><trkpt lat="43.26415700161296" lon="12.3573519036962"><ele>620.0</ele><time>2026-04-11T08:08:57.001Z</time></trkpt><trkpt lat="43.264217274452946" lon="12.357444992428514"><ele>620.0</ele><time>2026-04-11T08:08:58.001Z</time></trkpt><trkpt lat="43.26429102251154" lon="12.357545488913242"><ele>620.0</ele><time>2026-04-11T08:08:59.001Z</time></trkpt><trkpt lat="43.26435814480569" lon="12.357636686288773"><ele>620.0</ele><time>2026-04-11T08:09:00.001Z</time></trkpt><trkpt lat="43.26441787839092" lon="12.357722504678666"><ele>620.0</ele><time>2026-04-11T08:09:01.001Z</time></trkpt><trkpt lat="43.26447352067777" lon="12.357802714535815"><ele>620.0</ele><time>2026-04-11T08:09:02.001Z</time></trkpt><trkpt lat="43.26452462960524" lon="12.357880992570886"><ele>620.0</ele><time>2026-04-11T08:09:03.001Z</time></trkpt><trkpt lat="43.264568936832475" lon="12.357958362570999"><ele>620.0</ele><time>2026-04-11T08:09:04.001Z</time></trkpt><trkpt lat="43.264605624089825" lon="12.358032612103326"><ele>620.0</ele><time>2026-04-11T08:09:05.001Z</time></trkpt><trkpt lat="43.2646306414573" lon="12.358128103406171"><ele>620.0</ele><time>2026-04-11T08:09:06.001Z</time></trkpt><trkpt lat="43.26461916564883" lon="12.358228138484991"><ele>620.0</ele><time>2026-04-11T08:09:07.001Z</time></trkpt><trkpt lat="43.26457261943641" lon="12.358329704530375"><ele>620.0</ele><time>2026-04-11T08:09:08.001Z</time></trkpt><trkpt lat="43.26449613425013" lon="12.35842127347106"><ele>619.0</ele><time>2026-04-11T08:09:09.001Z</time></trkpt><trkpt lat="43.2643966509375" lon="12.35848750127738"><ele>618.0</ele><time>2026-04-11T08:09:10.001Z</time></trkpt><trkpt lat="43.264289262523484" lon="12.358527481284783"><ele>617.0</ele><time>2026-04-11T08:09:11.001Z</time></trkpt><trkpt lat="43.264200783484405" lon="12.358543382238807"><ele>616.0</ele><time>2026-04-11T08:09:12.001Z</time></trkpt><trkpt lat="43.26411375591339" lon="12.358523589637478"><ele>615.0</ele><time>2026-04-11T08:09:13.001Z</time></trkpt><trkpt lat="43.264022982207" lon="12.35846811823508"><ele>615.0</ele><time>2026-04-11T08:09:14.002Z</time></trkpt><trkpt lat="43.26395097161207" lon="12.35836019755618"><ele>615.0</ele><time>2026-04-11T08:09:15.002Z</time></trkpt><trkpt lat="43.26387740649925" lon="12.358292048884444"><ele>615.0</ele><time>2026-04-11T08:09:16.002Z</time></trkpt><trkpt lat="43.26382598720703" lon="12.358215720709651"><ele>615.0</ele><time>2026-04-11T08:09:17.002Z</time></trkpt><trkpt lat="43.26377842582524" lon="12.358146657336825"><ele>615.0</ele><time>2026-04-11T08:09:18.002Z</time></trkpt><trkpt lat="43.263728230536955" lon="12.358083049028037"><ele>615.0</ele><time>2026-04-11T08:09:19.002Z</time></trkpt><trkpt lat="43.26364567421064" lon="12.358058934179555"><ele>611.8</ele><time>2026-04-11T08:09:21.002Z</time></trkpt><trkpt lat="43.26355054274741" lon="12.358162523668808"><ele>608.6</ele><time>2026-04-11T08:09:23.002Z</time></trkpt><trkpt lat="43.263553770799184" lon="12.35828776359387"><ele>605.4</ele><time>2026-04-11T08:09:24.002Z</time></trkpt><trkpt lat="43.26358491187322" lon="12.358421672253733"><ele>602.2</ele><time>2026-04-11T08:09:25.002Z</time></trkpt><trkpt lat="43.26363891259056" lon="12.358567650501119"><ele>599.0</ele><time>2026-04-11T08:09:26.002Z</time></trkpt><trkpt lat="43.26369946264834" lon="12.358698518738992"><ele>599.0</ele><time>2026-04-11T08:09:27.002Z</time></trkpt><trkpt lat="43.26376253475241" lon="12.358809694481275"><ele>599.0</ele><time>2026-04-11T08:09:28.002Z</time></trkpt><trkpt lat="43.263830295681004" lon="12.358900516698725"><ele>599.0</ele><time>2026-04-11T08:09:29.001Z</time></trkpt><trkpt lat="43.263925785068835" lon="12.358959139391711"><ele>599.0</ele><time>2026-04-11T08:09:30.001Z</time></trkpt><trkpt lat="43.26403485495553" lon="12.35899589948014"><ele>599.0</ele><time>2026-04-11T08:09:31.001Z</time></trkpt><trkpt lat="43.26415175016405" lon="12.359015465861303"><ele>599.75</ele><time>2026-04-11T08:09:32.001Z</time></trkpt><trkpt lat="43.264277470326945" lon="12.359022946318852"><ele>600.5</ele><time>2026-04-11T08:09:33.001Z</time></trkpt><trkpt lat="43.26440984129113" lon="12.359022282285562"><ele>601.25</ele><time>2026-04-11T08:09:34.001Z</time></trkpt><trkpt lat="43.2645347761259" lon="12.35901843351333"><ele>602.0</ele><time>2026-04-11T08:09:35.001Z</time></trkpt><trkpt lat="43.26465039744175" lon="12.359010962777464"><ele>602.0</ele><time>2026-04-11T08:09:36.001Z</time></trkpt><trkpt lat="43.264762563762524" lon="12.359002360695902"><ele>602.0</ele><time>2026-04-11T08:09:37.001Z</time></trkpt><trkpt lat="43.264872660669624" lon="12.358989816801438"><ele>602.0</ele><time>2026-04-11T08:09:38.001Z</time></trkpt><trkpt lat="43.26498258187942" lon="12.358966385359405"><ele>602.0</ele><time>2026-04-11T08:09:39.001Z</time></trkpt><trkpt lat="43.26509263440849" lon="12.358929843010142"><ele>602.0</ele><time>2026-04-11T08:09:40.001Z</time></trkpt><trkpt lat="43.26519918400641" lon="12.358882068600485"><ele>603.2</ele><time>2026-04-11T08:09:41.001Z</time></trkpt><trkpt lat="43.265308789620754" lon="12.35881585634507"><ele>604.4000000000001</ele><time>2026-04-11T08:09:42.001Z</time></trkpt><trkpt lat="43.265406582093455" lon="12.358746111202146"><ele>605.5999999999999</ele><time>2026-04-11T08:09:43.001Z</time></trkpt><trkpt lat="43.265479213464815" lon="12.358686840833581"><ele>606.8</ele><time>2026-04-11T08:09:44.001Z</time></trkpt><trkpt lat="43.26553780597528" lon="12.358616000260218"><ele>608.0</ele><time>2026-04-11T08:09:45.001Z</time></trkpt><trkpt lat="43.2655791277411" lon="12.358522229497739"><ele>608.0</ele><time>2026-04-11T08:09:46.001Z</time></trkpt><trkpt lat="43.26560097416246" lon="12.35840596638699"><ele>608.0</ele><time>2026-04-11T08:09:47.001Z</time></trkpt><trkpt lat="43.2655985504291" lon="12.35827568715777"><ele>608.0</ele><time>2026-04-11T08:09:48.001Z</time></trkpt><trkpt lat="43.26555781582277" lon="12.358158080342662"><ele>608.0</ele><time>2026-04-11T08:09:49.001Z</time></trkpt><trkpt lat="43.26551329263621" lon="12.358056791380102"><ele>608.0</ele><time>2026-04-11T08:09:50.001Z</time></trkpt><trkpt lat="43.265448312440796" lon="12.357982962506739"><ele>608.0</ele><time>2026-04-11T08:09:51.001Z</time></trkpt><trkpt lat="43.26541514103223" lon="12.357887524366445"><ele>608.3333333333333</ele><time>2026-04-11T08:09:52.001Z</time></trkpt><trkpt lat="43.265371939632004" lon="12.357738317926213"><ele>608.6666666666666</ele><time>2026-04-11T08:09:54.001Z</time></trkpt><trkpt lat="43.26540791689484" lon="12.35766355342812"><ele>609.0</ele><time>2026-04-11T08:09:55.001Z</time></trkpt><trkpt lat="43.265485075866025" lon="12.357654365982233"><ele>609.3333333333334</ele><time>2026-04-11T08:09:56.001Z</time></trkpt><trkpt lat="43.26554834124766" lon="12.35772682657304"><ele>609.6666666666667</ele><time>2026-04-11T08:09:57.001Z</time></trkpt><trkpt lat="43.2656397957318" lon="12.357770391801166"><ele>610.0</ele><time>2026-04-11T08:09:58.001Z</time></trkpt><trkpt lat="43.26577851442712" lon="12.357823679756912"><ele>610.0</ele><time>2026-04-11T08:09:59.001Z</time></trkpt><trkpt lat="43.26590062494558" lon="12.357847368719991"><ele>610.0</ele><time>2026-04-11T08:10:00.001Z</time></trkpt><trkpt lat="43.26601235976823" lon="12.357887796359782"><ele>610.0</ele><time>2026-04-11T08:10:01.001Z</time></trkpt><trkpt lat="43.26611708036971" lon="12.357936551282911"><ele>610.0</ele><time>2026-04-11T08:10:02.001Z</time></trkpt><trkpt lat="43.26622313179376" lon="12.35795422648797"><ele>610.0</ele><time>2026-04-11T08:10:03.001Z</time></trkpt><trkpt lat="43.26632766511454" lon="12.357935417722256"><ele>610.0</ele><time>2026-04-11T08:10:04.001Z</time></trkpt><trkpt lat="43.266435257707116" lon="12.357936645323152"><ele>610.0</ele><time>2026-04-11T08:10:05.001Z</time></trkpt><trkpt lat="43.266530921339275" lon="12.357949219844174"><ele>610.0</ele><time>2026-04-11T08:10:06.001Z</time></trkpt><trkpt lat="43.26661412617597" lon="12.357937050022745"><ele>610.0</ele><time>2026-04-11T08:10:07.001Z</time></trkpt><trkpt lat="43.266690824428224" lon="12.357908778659898"><ele>607.8</ele><time>2026-04-11T08:10:08.001Z</time></trkpt><trkpt lat="43.266758609849376" lon="12.357861448831756"><ele>605.6</ele><time>2026-04-11T08:10:09.001Z</time></trkpt><trkpt lat="43.26683383166415" lon="12.357777413967472"><ele>603.4</ele><time>2026-04-11T08:10:10.001Z</time></trkpt><trkpt lat="43.26687055221257" lon="12.357628403022028"><ele>601.2</ele><time>2026-04-11T08:10:11.001Z</time></trkpt><trkpt lat="43.2669148392104" lon="12.357505281280828"><ele>599.0</ele><time>2026-04-11T08:10:12.001Z</time></trkpt><trkpt lat="43.266939508834646" lon="12.357374059105258"><ele>599.0</ele><time>2026-04-11T08:10:13.001Z</time></trkpt><trkpt lat="43.26696955314309" lon="12.357266288498023"><ele>599.0</ele><time>2026-04-11T08:10:14.001Z</time></trkpt><trkpt lat="43.266991083629826" lon="12.357152504655389"><ele>599.0</ele><time>2026-04-11T08:10:15.001Z</time></trkpt><trkpt lat="43.267007068012504" lon="12.357046197298834"><ele>599.0</ele><time>2026-04-11T08:10:16.001Z</time></trkpt><trkpt lat="43.267041062044214" lon="12.356943454840957"><ele>599.0</ele><time>2026-04-11T08:10:17.001Z</time></trkpt><trkpt lat="43.267131882492784" lon="12.356878852295889"><ele>599.0</ele><time>2026-04-11T08:10:18.001Z</time></trkpt><trkpt lat="43.26721828559993" lon="12.356871091549603"><ele>597.0</ele><time>2026-04-11T08:10:19.001Z</time></trkpt><trkpt lat="43.267298883913014" lon="12.356833310736155"><ele>595.0</ele><time>2026-04-11T08:10:20.001Z</time></trkpt><trkpt lat="43.267389864232236" lon="12.35683100936471"><ele>593.0</ele><time>2026-04-11T08:10:21.001Z</time></trkpt><trkpt lat="43.26748156329506" lon="12.356758072469031"><ele>591.0</ele><time>2026-04-11T08:10:22.001Z</time></trkpt><trkpt lat="43.26755077492638" lon="12.35666034086844"><ele>589.0</ele><time>2026-04-11T08:10:23.001Z</time></trkpt><trkpt lat="43.26760608934445" lon="12.356561995898458"><ele>589.0</ele><time>2026-04-11T08:10:24.001Z</time></trkpt><trkpt lat="43.267656705667" lon="12.356495699056033"><ele>589.0</ele><time>2026-04-11T08:10:25.001Z</time></trkpt><trkpt lat="43.26778949648291" lon="12.356447850059364"><ele>589.0</ele><time>2026-04-11T08:10:27.001Z</time></trkpt><trkpt lat="43.267879467152156" lon="12.356431055723538"><ele>589.0</ele><time>2026-04-11T08:10:28.001Z</time></trkpt><trkpt lat="43.26796791420203" lon="12.356461771352446"><ele>589.0</ele><time>2026-04-11T08:10:29.001Z</time></trkpt><trkpt lat="43.268057444648626" lon="12.356440186655876"><ele>584.5</ele><time>2026-04-11T08:10:30.001Z</time></trkpt><trkpt lat="43.26816369657443" lon="12.356410984688388"><ele>580.0</ele><time>2026-04-11T08:10:31.001Z</time></trkpt><trkpt lat="43.26828495562727" lon="12.35642345891749"><ele>575.5</ele><time>2026-04-11T08:10:32.001Z</time></trkpt><trkpt lat="43.26839811951386" lon="12.356408186253736"><ele>571.0</ele><time>2026-04-11T08:10:33.001Z</time></trkpt><trkpt lat="43.26850681401631" lon="12.356415358029434"><ele>571.0</ele><time>2026-04-11T08:10:34.001Z</time></trkpt><trkpt lat="43.26861475938578" lon="12.356414835446541"><ele>571.0</ele><time>2026-04-11T08:10:35.001Z</time></trkpt><trkpt lat="43.2687301817515" lon="12.356410907571227"><ele>571.0</ele><time>2026-04-11T08:10:36.001Z</time></trkpt><trkpt lat="43.268844380615036" lon="12.356386528584089"><ele>571.0</ele><time>2026-04-11T08:10:37.001Z</time></trkpt><trkpt lat="43.268956412263336" lon="12.356359092177817"><ele>573.2</ele><time>2026-04-11T08:10:38.001Z</time></trkpt><trkpt lat="43.26905670608022" lon="12.356335236014719"><ele>575.4000000000001</ele><time>2026-04-11T08:10:39.001Z</time></trkpt><trkpt lat="43.269168535986196" lon="12.356312714716315"><ele>577.6</ele><time>2026-04-11T08:10:40.001Z</time></trkpt><trkpt lat="43.26926712750553" lon="12.356289268126272"><ele>579.8000000000001</ele><time>2026-04-11T08:10:41.001Z</time></trkpt><trkpt lat="43.26934365326733" lon="12.356255952616763"><ele>582.0</ele><time>2026-04-11T08:10:42.001Z</time></trkpt><trkpt lat="43.26942257810754" lon="12.35623014927784"><ele>582.0</ele><time>2026-04-11T08:10:43.001Z</time></trkpt><trkpt lat="43.2694984088606" lon="12.356179463630252"><ele>582.0</ele><time>2026-04-11T08:10:44.001Z</time></trkpt><trkpt lat="43.26955703881445" lon="12.35611194977007"><ele>582.0</ele><time>2026-04-11T08:10:45.001Z</time></trkpt><trkpt lat="43.26962143531351" lon="12.356024689953633"><ele>582.0</ele><time>2026-04-11T08:10:46.001Z</time></trkpt><trkpt lat="43.26966479869219" lon="12.355942830826557"><ele>582.0</ele><time>2026-04-11T08:10:47.001Z</time></trkpt><trkpt lat="43.26968069688558" lon="12.355853301462265"><ele>582.0</ele><time>2026-04-11T08:10:48.001Z</time></trkpt><trkpt lat="43.26965848963562" lon="12.355736519862964"><ele>582.0</ele><time>2026-04-11T08:10:49.001Z</time></trkpt><trkpt lat="43.26959828705579" lon="12.355613956068577"><ele>582.0</ele><time>2026-04-11T08:10:50.001Z</time></trkpt><trkpt lat="43.26958797721731" lon="12.355495138883057"><ele>582.0</ele><time>2026-04-11T08:10:51.001Z</time></trkpt><trkpt lat="43.269579813813145" lon="12.355378268819736"><ele>582.0</ele><time>2026-04-11T08:10:52.001Z</time></trkpt><trkpt lat="43.26960282702992" lon="12.355279793616207"><ele>582.0</ele><time>2026-04-11T08:10:53.001Z</time></trkpt><trkpt lat="43.26963712935728" lon="12.35518495725007"><ele>582.0</ele><time>2026-04-11T08:10:54.001Z</time></trkpt><trkpt lat="43.269665277336806" lon="12.35509772209789"><ele>582.3333333333334</ele><time>2026-04-11T08:10:55.001Z</time></trkpt><trkpt lat="43.26969584985849" lon="12.355017030757008"><ele>582.6666666666666</ele><time>2026-04-11T08:10:56.001Z</time></trkpt><trkpt lat="43.269759208647535" lon="12.354985737730315"><ele>583.0</ele><time>2026-04-11T08:10:58.001Z</time></trkpt><trkpt lat="43.26979120394958" lon="12.355092470791167"><ele>583.3333333333333</ele><time>2026-04-11T08:11:00.001Z</time></trkpt><trkpt lat="43.269805532706094" lon="12.355205739010529"><ele>583.6666666666666</ele><time>2026-04-11T08:11:01.001Z</time></trkpt><trkpt lat="43.269825699945585" lon="12.355350380360683"><ele>584.0</ele><time>2026-04-11T08:11:02.001Z</time></trkpt><trkpt lat="43.269845345973245" lon="12.355522884579157"><ele>577.6</ele><time>2026-04-11T08:11:03.001Z</time></trkpt><trkpt lat="43.26985530899541" lon="12.355715584284605"><ele>571.2</ele><time>2026-04-11T08:11:04.001Z</time></trkpt><trkpt lat="43.269885881416535" lon="12.355841748027093"><ele>564.8000000000001</ele><time>2026-04-11T08:11:05.001Z</time></trkpt><trkpt lat="43.26989724460924" lon="12.35596810152692"><ele>558.4</ele><time>2026-04-11T08:11:06.001Z</time></trkpt><trkpt lat="43.269898451595516" lon="12.356081809820324"><ele>552.0</ele><time>2026-04-11T08:11:07.001Z</time></trkpt><trkpt lat="43.26992029931535" lon="12.356210423366235"><ele>552.0</ele><time>2026-04-11T08:11:08.001Z</time></trkpt><trkpt lat="43.26995338770879" lon="12.356321729370315"><ele>552.0</ele><time>2026-04-11T08:11:09.001Z</time></trkpt><trkpt lat="43.26999823555898" lon="12.356435922510258"><ele>552.0</ele><time>2026-04-11T08:11:10.001Z</time></trkpt><trkpt lat="43.27005221543902" lon="12.35654877604418"><ele>552.0</ele><time>2026-04-11T08:11:11.001Z</time></trkpt><trkpt lat="43.27013568137747" lon="12.356599779414553"><ele>552.0</ele><time>2026-04-11T08:11:12.001Z</time></trkpt><trkpt lat="43.27021233830568" lon="12.356669260234957"><ele>550.8333333333334</ele><time>2026-04-11T08:11:13.001Z</time></trkpt><trkpt lat="43.27030060216094" lon="12.356724898150215"><ele>549.6666666666666</ele><time>2026-04-11T08:11:14.001Z</time></trkpt><trkpt lat="43.27038674097823" lon="12.3567687681193"><ele>548.5</ele><time>2026-04-11T08:11:15.001Z</time></trkpt><trkpt lat="43.27047819301401" lon="12.35679352204569"><ele>547.3333333333333</ele><time>2026-04-11T08:11:16.001Z</time></trkpt><trkpt lat="43.27055100523769" lon="12.356792125981533"><ele>546.1666666666666</ele><time>2026-04-11T08:11:17.001Z</time></trkpt><trkpt lat="43.27061348702785" lon="12.35676969072418"><ele>545.0</ele><time>2026-04-11T08:11:18.001Z</time></trkpt><trkpt lat="43.27069587898225" lon="12.35667645589656"><ele>545.0</ele><time>2026-04-11T08:11:20.002Z</time></trkpt><trkpt lat="43.270711493326985" lon="12.356571047408364"><ele>545.0</ele><time>2026-04-11T08:11:21.002Z</time></trkpt><trkpt lat="43.270665429324936" lon="12.356454340834391"><ele>545.0</ele><time>2026-04-11T08:11:22.002Z</time></trkpt><trkpt lat="43.27056774275352" lon="12.356395490934364"><ele>545.0</ele><time>2026-04-11T08:11:23.002Z</time></trkpt><trkpt lat="43.27043666136174" lon="12.356404583707478"><ele>545.0</ele><time>2026-04-11T08:11:24.002Z</time></trkpt><trkpt lat="43.270320320256296" lon="12.356383936699293"><ele>546.4</ele><time>2026-04-11T08:11:25.002Z</time></trkpt><trkpt lat="43.27023953016447" lon="12.356321008432914"><ele>547.8</ele><time>2026-04-11T08:11:26.002Z</time></trkpt><trkpt lat="43.27018289681436" lon="12.356222983129847"><ele>549.2</ele><time>2026-04-11T08:11:27.002Z</time></trkpt><trkpt lat="43.270217870773216" lon="12.356054386627761"><ele>550.6</ele><time>2026-04-11T08:11:28.002Z</time></trkpt><trkpt lat="43.27022791093305" lon="12.355875153194468"><ele>552.0</ele><time>2026-04-11T08:11:29.002Z</time></trkpt><trkpt lat="43.27023608738546" lon="12.355636286636042"><ele>553.0</ele><time>2026-04-11T08:11:30.002Z</time></trkpt><trkpt lat="43.27023897247177" lon="12.355465465971495"><ele>554.0</ele><time>2026-04-11T08:11:31.002Z</time></trkpt><trkpt lat="43.27025330661326" lon="12.355327830232728"><ele>555.0</ele><time>2026-04-11T08:11:32.002Z</time></trkpt><trkpt lat="43.27029045108796" lon="12.355239976295858"><ele>556.0</ele><time>2026-04-11T08:11:33.002Z</time></trkpt><trkpt lat="43.27033055518028" lon="12.355156952553665"><ele>557.0</ele><time>2026-04-11T08:11:34.002Z</time></trkpt><trkpt lat="43.270461354086294" lon="12.355128636825233"><ele>557.0</ele><time>2026-04-11T08:11:36.001Z</time></trkpt><trkpt lat="43.27060253674738" lon="12.355064842878509"><ele>557.0</ele><time>2026-04-11T08:11:37.001Z</time></trkpt><trkpt lat="43.270702518488974" lon="12.354986543678383"><ele>557.0</ele><time>2026-04-11T08:11:38.001Z</time></trkpt><trkpt lat="43.27081439701811" lon="12.354876107537164"><ele>557.0</ele><time>2026-04-11T08:11:39.001Z</time></trkpt><trkpt lat="43.270927198408366" lon="12.354759309409749"><ele>556.25</ele><time>2026-04-11T08:11:40.001Z</time></trkpt><trkpt lat="43.271038244221835" lon="12.35464355455534"><ele>555.5</ele><time>2026-04-11T08:11:41.001Z</time></trkpt><trkpt lat="43.27113714727965" lon="12.35453652904512"><ele>554.75</ele><time>2026-04-11T08:11:42.001Z</time></trkpt><trkpt lat="43.27124239743931" lon="12.354422648930468"><ele>554.0</ele><time>2026-04-11T08:11:43.001Z</time></trkpt><trkpt lat="43.271347394747814" lon="12.354309469458865"><ele>554.0</ele><time>2026-04-11T08:11:44.001Z</time></trkpt><trkpt lat="43.271439215481585" lon="12.354211238538717"><ele>554.0</ele><time>2026-04-11T08:11:45.001Z</time></trkpt><trkpt lat="43.27152976568326" lon="12.35410826379068"><ele>554.0</ele><time>2026-04-11T08:11:46.001Z</time></trkpt><trkpt lat="43.27162985161155" lon="12.353999140967224"><ele>554.0</ele><time>2026-04-11T08:11:47.001Z</time></trkpt><trkpt lat="43.271725494640336" lon="12.353895354706925"><ele>553.75</ele><time>2026-04-11T08:11:48.001Z</time></trkpt><trkpt lat="43.27182681090093" lon="12.353814773702146"><ele>553.5</ele><time>2026-04-11T08:11:49.001Z</time></trkpt><trkpt lat="43.27193343862413" lon="12.353744917134712"><ele>553.25</ele><time>2026-04-11T08:11:50.001Z</time></trkpt><trkpt lat="43.27204435755404" lon="12.353678847351576"><ele>553.0</ele><time>2026-04-11T08:11:51.001Z</time></trkpt><trkpt lat="43.27215629297705" lon="12.353647170466953"><ele>548.6</ele><time>2026-04-11T08:11:52.001Z</time></trkpt><trkpt lat="43.27227702393191" lon="12.35361960679946"><ele>544.1999999999999</ele><time>2026-04-11T08:11:53.001Z</time></trkpt><trkpt lat="43.27239797803578" lon="12.353601709607489"><ele>539.8</ele><time>2026-04-11T08:11:54.001Z</time></trkpt><trkpt lat="43.272493209620144" lon="12.353589094737284"><ele>535.4</ele><time>2026-04-11T08:11:55.001Z</time></trkpt><trkpt lat="43.2726014814385" lon="12.35357183083418"><ele>531.0</ele><time>2026-04-11T08:11:56.001Z</time></trkpt><trkpt lat="43.27268628306388" lon="12.353529012535223"><ele>531.0</ele><time>2026-04-11T08:11:57.001Z</time></trkpt><trkpt lat="43.272760126330866" lon="12.353510500999885"><ele>531.0</ele><time>2026-04-11T08:11:58.001Z</time></trkpt><trkpt lat="43.272824571121255" lon="12.353486414520889"><ele>531.0</ele><time>2026-04-11T08:11:59.001Z</time></trkpt><trkpt lat="43.272920978355835" lon="12.35334609482207"><ele>531.0</ele><time>2026-04-11T08:12:01.001Z</time></trkpt><trkpt lat="43.272975626544834" lon="12.353215110233592"><ele>531.0</ele><time>2026-04-11T08:12:02.001Z</time></trkpt><trkpt lat="43.27301757116866" lon="12.353057893353332"><ele>528.25</ele><time>2026-04-11T08:12:03.001Z</time></trkpt><trkpt lat="43.27309148005975" lon="12.352928486410852"><ele>525.5</ele><time>2026-04-11T08:12:04.001Z</time></trkpt><trkpt lat="43.273152280019616" lon="12.35281926252247"><ele>522.75</ele><time>2026-04-11T08:12:05.001Z</time></trkpt><trkpt lat="43.27323341874009" lon="12.352710062654479"><ele>520.0</ele><time>2026-04-11T08:12:06.001Z</time></trkpt><trkpt lat="43.27334914974318" lon="12.352670730361996"><ele>520.0</ele><time>2026-04-11T08:12:07.001Z</time></trkpt><trkpt lat="43.273475887370786" lon="12.352649708600905"><ele>520.0</ele><time>2026-04-11T08:12:08.001Z</time></trkpt><trkpt lat="43.27359072500573" lon="12.352627565283631"><ele>520.0</ele><time>2026-04-11T08:12:09.001Z</time></trkpt><trkpt lat="43.27370736613622" lon="12.352614257012393"><ele>520.0</ele><time>2026-04-11T08:12:10.001Z</time></trkpt><trkpt lat="43.273814695005825" lon="12.35260129788454"><ele>520.0</ele><time>2026-04-11T08:12:11.001Z</time></trkpt><trkpt lat="43.27391330738297" lon="12.352581521335676"><ele>520.0</ele><time>2026-04-11T08:12:12.001Z</time></trkpt><trkpt lat="43.274005840910306" lon="12.35254223774498"><ele>520.0</ele><time>2026-04-11T08:12:13.001Z</time></trkpt><trkpt lat="43.274082567080384" lon="12.352492341155928"><ele>520.0</ele><time>2026-04-11T08:12:14.001Z</time></trkpt><trkpt lat="43.27413595907893" lon="12.35241760058686"><ele>520.0</ele><time>2026-04-11T08:12:15.001Z</time></trkpt><trkpt lat="43.27416729896923" lon="12.35232256861335"><ele>520.0</ele><time>2026-04-11T08:12:16.001Z</time></trkpt><trkpt lat="43.27414026114883" lon="12.352200567805228"><ele>515.5</ele><time>2026-04-11T08:12:17.001Z</time></trkpt><trkpt lat="43.274125453240664" lon="12.352087277144681"><ele>511.0</ele><time>2026-04-11T08:12:18.001Z</time></trkpt><trkpt lat="43.274085832298795" lon="12.351946497011555"><ele>506.5</ele><time>2026-04-11T08:12:19.001Z</time></trkpt><trkpt lat="43.2740251711598" lon="12.351782443745398"><ele>502.0</ele><time>2026-04-11T08:12:20.001Z</time></trkpt><trkpt lat="43.27396352771839" lon="12.351621977250561"><ele>504.0</ele><time>2026-04-11T08:12:21.001Z</time></trkpt><trkpt lat="43.273907699013186" lon="12.351482562587512"><ele>506.00000000000006</ele><time>2026-04-11T08:12:22.001Z</time></trkpt><trkpt lat="43.27385321372287" lon="12.35137821315046"><ele>508.00000000000006</ele><time>2026-04-11T08:12:23.001Z</time></trkpt><trkpt lat="43.2738077487072" lon="12.351258798184203"><ele>510.0</ele><time>2026-04-11T08:12:24.001Z</time></trkpt><trkpt lat="43.273769029035016" lon="12.351164357766342"><ele>512.0</ele><time>2026-04-11T08:12:25.001Z</time></trkpt><trkpt lat="43.27373857480893" lon="12.351076943248708"><ele>512.0</ele><time>2026-04-11T08:12:26.001Z</time></trkpt><trkpt lat="43.27374627801851" lon="12.350977841434371"><ele>512.0</ele><time>2026-04-11T08:12:27.001Z</time></trkpt><trkpt lat="43.27389106882801" lon="12.350853355522142"><ele>512.0</ele><time>2026-04-11T08:12:29.001Z</time></trkpt><trkpt lat="43.27399176091332" lon="12.350761085454904"><ele>512.0</ele><time>2026-04-11T08:12:30.001Z</time></trkpt><trkpt lat="43.274062538312926" lon="12.350691334342736"><ele>509.49999999999994</ele><time>2026-04-11T08:12:31.001Z</time></trkpt><trkpt lat="43.274138639102425" lon="12.350611098354575"><ele>507.0</ele><time>2026-04-11T08:12:32.001Z</time></trkpt><trkpt lat="43.274192579421246" lon="12.350541196763242"><ele>504.5</ele><time>2026-04-11T08:12:33.001Z</time></trkpt><trkpt lat="43.27423616331913" lon="12.350471164792161"><ele>502.0</ele><time>2026-04-11T08:12:34.001Z</time></trkpt><trkpt lat="43.27425305929659" lon="12.35038751121779"><ele>499.49999999999994</ele><time>2026-04-11T08:12:35.001Z</time></trkpt><trkpt lat="43.27421428677584" lon="12.350272291937747"><ele>497.0</ele><time>2026-04-11T08:12:36.001Z</time></trkpt><trkpt lat="43.274155295370825" lon="12.350174462630967"><ele>498.40000000000003</ele><time>2026-04-11T08:12:37.001Z</time></trkpt><trkpt lat="43.27406462526212" lon="12.350109282862206"><ele>499.80000000000007</ele><time>2026-04-11T08:12:38.001Z</time></trkpt><trkpt lat="43.27395123057638" lon="12.350085742764222"><ele>501.2</ele><time>2026-04-11T08:12:39.001Z</time></trkpt><trkpt lat="43.273855751059195" lon="12.350037075770404"><ele>502.6</ele><time>2026-04-11T08:12:40.001Z</time></trkpt><trkpt lat="43.27379326828114" lon="12.349963146864686"><ele>504.0</ele><time>2026-04-11T08:12:41.001Z</time></trkpt><trkpt lat="43.273755274917704" lon="12.34980927787598"><ele>501.25</ele><time>2026-04-11T08:12:42.001Z</time></trkpt><trkpt lat="43.27372408428209" lon="12.349646910587458"><ele>498.5</ele><time>2026-04-11T08:12:43.001Z</time></trkpt><trkpt lat="43.27367019084508" lon="12.349478014499061"><ele>495.75</ele><time>2026-04-11T08:12:44.001Z</time></trkpt><trkpt lat="43.273666364555545" lon="12.349327778734185"><ele>493.0</ele><time>2026-04-11T08:12:45.001Z</time></trkpt><trkpt lat="43.27365543811273" lon="12.34919883084884"><ele>493.00000000000006</ele><time>2026-04-11T08:12:46.001Z</time></trkpt><trkpt lat="43.273655650696035" lon="12.349073012679744"><ele>493.0</ele><time>2026-04-11T08:12:47.001Z</time></trkpt><trkpt lat="43.27367877226608" lon="12.34896238484586"><ele>493.0</ele><time>2026-04-11T08:12:48.001Z</time></trkpt><trkpt lat="43.27372939359388" lon="12.348871472412755"><ele>493.0</ele><time>2026-04-11T08:12:49.001Z</time></trkpt><trkpt lat="43.27379827048395" lon="12.34881454235209"><ele>493.00000000000006</ele><time>2026-04-11T08:12:50.001Z</time></trkpt><trkpt lat="43.273874082255325" lon="12.34875871671227"><ele>493.0</ele><time>2026-04-11T08:12:51.001Z</time></trkpt><trkpt lat="43.27394667799602" lon="12.348690950761577"><ele>489.2</ele><time>2026-04-11T08:12:52.001Z</time></trkpt><trkpt lat="43.27400724514746" lon="12.34862893543738"><ele>485.4</ele><time>2026-04-11T08:12:53.001Z</time></trkpt><trkpt lat="43.274062224715856" lon="12.348534534221647"><ele>481.59999999999997</ele><time>2026-04-11T08:12:54.001Z</time></trkpt><trkpt lat="43.27409078415744" lon="12.348405065007622"><ele>477.79999999999995</ele><time>2026-04-11T08:12:55.001Z</time></trkpt><trkpt lat="43.27406825822716" lon="12.348248553605158"><ele>474.0</ele><time>2026-04-11T08:12:56.001Z</time></trkpt><trkpt lat="43.27404006806465" lon="12.34808514496595"><ele>473.0</ele><time>2026-04-11T08:12:57.001Z</time></trkpt><trkpt lat="43.27400781515559" lon="12.34791550242242"><ele>472.0</ele><time>2026-04-11T08:12:58.001Z</time></trkpt><trkpt lat="43.27397901109769" lon="12.347772179295449"><ele>471.0</ele><time>2026-04-11T08:12:59.001Z</time></trkpt><trkpt lat="43.273948077393925" lon="12.347624963487336"><ele>470.0</ele><time>2026-04-11T08:13:00.001Z</time></trkpt><trkpt lat="43.27390648186016" lon="12.347488782912336"><ele>474.2</ele><time>2026-04-11T08:13:01.001Z</time></trkpt><trkpt lat="43.27390109274426" lon="12.347332553265417"><ele>478.4</ele><time>2026-04-11T08:13:02.001Z</time></trkpt><trkpt lat="43.273885200141486" lon="12.347186698535392"><ele>482.6</ele><time>2026-04-11T08:13:03.001Z</time></trkpt><trkpt lat="43.2738699104369" lon="12.347041342771606"><ele>486.8</ele><time>2026-04-11T08:13:04.001Z</time></trkpt><trkpt lat="43.273855090037" lon="12.346901761524302"><ele>491.0</ele><time>2026-04-11T08:13:05.001Z</time></trkpt><trkpt lat="43.27382712188869" lon="12.346780303304266"><ele>490.4</ele><time>2026-04-11T08:13:06.001Z</time></trkpt><trkpt lat="43.27382053983364" lon="12.346628015460446"><ele>489.8</ele><time>2026-04-11T08:13:07.001Z</time></trkpt><trkpt lat="43.27381615542883" lon="12.346476821066334"><ele>489.19999999999993</ele><time>2026-04-11T08:13:08.001Z</time></trkpt><trkpt lat="43.273790429456064" lon="12.3463225853507"><ele>488.59999999999997</ele><time>2026-04-11T08:13:09.001Z</time></trkpt><trkpt lat="43.27378483966346" lon="12.346169484108739"><ele>488.0</ele><time>2026-04-11T08:13:10.001Z</time></trkpt><trkpt lat="43.2737829638336" lon="12.34605407688145"><ele>488.0</ele><time>2026-04-11T08:13:11.001Z</time></trkpt><trkpt lat="43.27383410550418" lon="12.345921153905504"><ele>487.99999999999994</ele><time>2026-04-11T08:13:13.001Z</time></trkpt><trkpt lat="43.273948363739386" lon="12.345975249135142"><ele>487.99999999999994</ele><time>2026-04-11T08:13:15.001Z</time></trkpt><trkpt lat="43.2739702060239" lon="12.346111436553944"><ele>488.0</ele><time>2026-04-11T08:13:16.001Z</time></trkpt><trkpt lat="43.27399016491636" lon="12.346268284214874"><ele>488.0</ele><time>2026-04-11T08:13:17.001Z</time></trkpt><trkpt lat="43.274034758707515" lon="12.34648366823061"><ele>482.75</ele><time>2026-04-11T08:13:18.001Z</time></trkpt><trkpt lat="43.27408688713253" lon="12.346672869936087"><ele>477.5</ele><time>2026-04-11T08:13:19.001Z</time></trkpt><trkpt lat="43.274156181543056" lon="12.346848943114427"><ele>472.25</ele><time>2026-04-11T08:13:20.001Z</time></trkpt><trkpt lat="43.27422513312404" lon="12.347011953460086"><ele>467.0</ele><time>2026-04-11T08:13:21.001Z</time></trkpt><trkpt lat="43.27428754415695" lon="12.347173662886751"><ele>467.75</ele><time>2026-04-11T08:13:22.001Z</time></trkpt><trkpt lat="43.27433628099758" lon="12.347347857515897"><ele>468.5</ele><time>2026-04-11T08:13:23.001Z</time></trkpt><trkpt lat="43.27442019041662" lon="12.347507322986942"><ele>469.25</ele><time>2026-04-11T08:13:24.001Z</time></trkpt><trkpt lat="43.27451143164847" lon="12.347652430160002"><ele>470.0</ele><time>2026-04-11T08:13:25.001Z</time></trkpt><trkpt lat="43.274601146276" lon="12.34779381398301"><ele>470.0</ele><time>2026-04-11T08:13:26.001Z</time></trkpt><trkpt lat="43.27469274958336" lon="12.347938138759728"><ele>470.0</ele><time>2026-04-11T08:13:27.001Z</time></trkpt><trkpt lat="43.27477185740615" lon="12.348078914517307"><ele>470.0</ele><time>2026-04-11T08:13:28.001Z</time></trkpt><trkpt lat="43.274845769187316" lon="12.34820211840033"><ele>470.0</ele><time>2026-04-11T08:13:29.001Z</time></trkpt><trkpt lat="43.27489886380183" lon="12.34832644659378"><ele>468.2</ele><time>2026-04-11T08:13:30.001Z</time></trkpt><trkpt lat="43.27492496743562" lon="12.348462913594688"><ele>466.4</ele><time>2026-04-11T08:13:31.001Z</time></trkpt><trkpt lat="43.274927856893605" lon="12.348602860688242"><ele>464.6</ele><time>2026-04-11T08:13:32.001Z</time></trkpt><trkpt lat="43.274908168099095" lon="12.34873893963532"><ele>462.8</ele><time>2026-04-11T08:13:33.001Z</time></trkpt><trkpt lat="43.27489386118879" lon="12.348854715144611"><ele>461.0</ele><time>2026-04-11T08:13:34.001Z</time></trkpt><trkpt lat="43.27491045550806" lon="12.348952936414772"><ele>460.99999999999994</ele><time>2026-04-11T08:13:35.001Z</time></trkpt><trkpt lat="43.274951523801974" lon="12.349020734427231"><ele>461.0</ele><time>2026-04-11T08:13:36.001Z</time></trkpt><trkpt lat="43.27502509586818" lon="12.349060377387957"><ele>461.0</ele><time>2026-04-11T08:13:37.001Z</time></trkpt><trkpt lat="43.27511123701898" lon="12.34907948829595"><ele>461.0</ele><time>2026-04-11T08:13:38.001Z</time></trkpt><trkpt lat="43.27520182622174" lon="12.34901666689874"><ele>460.99999999999994</ele><time>2026-04-11T08:13:39.001Z</time></trkpt><trkpt lat="43.27529670698726" lon="12.348952615854904"><ele>461.0</ele><time>2026-04-11T08:13:40.001Z</time></trkpt><trkpt lat="43.275392770840384" lon="12.348879154065804"><ele>459.6</ele><time>2026-04-11T08:13:41.001Z</time></trkpt><trkpt lat="43.27548907946037" lon="12.348835355305813"><ele>458.20000000000005</ele><time>2026-04-11T08:13:42.001Z</time></trkpt><trkpt lat="43.27559072027127" lon="12.348818896367817"><ele>456.79999999999995</ele><time>2026-04-11T08:13:43.001Z</time></trkpt><trkpt lat="43.27568270657562" lon="12.34884683034107"><ele>455.4</ele><time>2026-04-11T08:13:44.001Z</time></trkpt><trkpt lat="43.27577095429069" lon="12.348922512527126"><ele>454.0</ele><time>2026-04-11T08:13:45.001Z</time></trkpt><trkpt lat="43.27585754889449" lon="12.349037927474884"><ele>452.0</ele><time>2026-04-11T08:13:46.001Z</time></trkpt><trkpt lat="43.275956358202635" lon="12.34917386432587"><ele>450.0</ele><time>2026-04-11T08:13:47.001Z</time></trkpt><trkpt lat="43.27605645629888" lon="12.349303607348727"><ele>448.0</ele><time>2026-04-11T08:13:48.001Z</time></trkpt><trkpt lat="43.276133625311616" lon="12.349453146932962"><ele>446.0</ele><time>2026-04-11T08:13:49.001Z</time></trkpt><trkpt lat="43.276209536820204" lon="12.349573063389219"><ele>447.0</ele><time>2026-04-11T08:13:50.001Z</time></trkpt><trkpt lat="43.27624207006167" lon="12.349722032810467"><ele>448.0</ele><time>2026-04-11T08:13:51.001Z</time></trkpt><trkpt lat="43.276237852338994" lon="12.349880073790137"><ele>449.0</ele><time>2026-04-11T08:13:52.001Z</time></trkpt><trkpt lat="43.27621765302652" lon="12.350023954780006"><ele>450.0</ele><time>2026-04-11T08:13:53.001Z</time></trkpt><trkpt lat="43.27613001551194" lon="12.350124492444202"><ele>451.0</ele><time>2026-04-11T08:13:54.001Z</time></trkpt><trkpt lat="43.27603479707995" lon="12.350205116975118"><ele>451.0</ele><time>2026-04-11T08:13:55.001Z</time></trkpt><trkpt lat="43.27591509071986" lon="12.35026965138847"><ele>451.0</ele><time>2026-04-11T08:13:56Z</time></trkpt><trkpt lat="43.27583930713982" lon="12.350318630071397"><ele>451.0</ele><time>2026-04-11T08:13:57Z</time></trkpt><trkpt lat="43.27580120537389" lon="12.35039751932247"><ele>451.0</ele><time>2026-04-11T08:13:58Z</time></trkpt><trkpt lat="43.27580778319882" lon="12.350563851852499"><ele>451.0</ele><time>2026-04-11T08:14:00Z</time></trkpt><trkpt lat="43.27587422052442" lon="12.350671703402504"><ele>450.25</ele><time>2026-04-11T08:14:01Z</time></trkpt><trkpt lat="43.27594724402262" lon="12.350803193218102"><ele>449.5</ele><time>2026-04-11T08:14:02Z</time></trkpt><trkpt lat="43.27604443342726" lon="12.350938827787115"><ele>448.75</ele><time>2026-04-11T08:14:03Z</time></trkpt><trkpt lat="43.27613410078145" lon="12.351061976065836"><ele>448.0</ele><time>2026-04-11T08:14:04Z</time></trkpt><trkpt lat="43.27622668907758" lon="12.351182528959193"><ele>448.0</ele><time>2026-04-11T08:14:05Z</time></trkpt><trkpt lat="43.276306298705116" lon="12.351319266462419"><ele>448.0</ele><time>2026-04-11T08:14:06Z</time></trkpt><trkpt lat="43.27638915558244" lon="12.3514525489655"><ele>448.0</ele><time>2026-04-11T08:14:07Z</time></trkpt><trkpt lat="43.276488570693374" lon="12.35156149331551"><ele>448.0</ele><time>2026-04-11T08:14:08Z</time></trkpt><trkpt lat="43.276594252955455" lon="12.351653014282853"><ele>443.75</ele><time>2026-04-11T08:14:09Z</time></trkpt><trkpt lat="43.276702648076046" lon="12.351734261504996"><ele>439.5</ele><time>2026-04-11T08:14:10Z</time></trkpt><trkpt lat="43.276810715642476" lon="12.351811709226222"><ele>435.25</ele><time>2026-04-11T08:14:11Z</time></trkpt><trkpt lat="43.27692425628075" lon="12.351872284896706"><ele>431.0</ele><time>2026-04-11T08:14:12Z</time></trkpt><trkpt lat="43.2770443851579" lon="12.351901238231045"><ele>431.0</ele><time>2026-04-11T08:14:13Z</time></trkpt><trkpt lat="43.27716659005737" lon="12.35190734953287"><ele>431.0</ele><time>2026-04-11T08:14:14Z</time></trkpt><trkpt lat="43.27728855494937" lon="12.351905024625552"><ele>431.0</ele><time>2026-04-11T08:14:15Z</time></trkpt><trkpt lat="43.27740753229646" lon="12.351939787787433"><ele>431.0</ele><time>2026-04-11T08:14:16.001Z</time></trkpt><trkpt lat="43.27751362051582" lon="12.351960433665816"><ele>430.0</ele><time>2026-04-11T08:14:17.001Z</time></trkpt><trkpt lat="43.27760988675336" lon="12.351980076654337"><ele>429.0</ele><time>2026-04-11T08:14:18.001Z</time></trkpt><trkpt lat="43.277673270586455" lon="12.352056200890608"><ele>428.0</ele><time>2026-04-11T08:14:19.001Z</time></trkpt><trkpt lat="43.27770248635438" lon="12.352166158083634"><ele>427.0</ele><time>2026-04-11T08:14:20.001Z</time></trkpt><trkpt lat="43.27770367852134" lon="12.352282384223674"><ele>426.0</ele><time>2026-04-11T08:14:21.001Z</time></trkpt><trkpt lat="43.27769433489" lon="12.352423480220983"><ele>426.0</ele><time>2026-04-11T08:14:22.001Z</time></trkpt><trkpt lat="43.2776744443026" lon="12.35257775467589"><ele>426.0</ele><time>2026-04-11T08:14:23.001Z</time></trkpt><trkpt lat="43.27763026290007" lon="12.352739002544462"><ele>426.0</ele><time>2026-04-11T08:14:24.001Z</time></trkpt><trkpt lat="43.27757182584591" lon="12.352910933613886"><ele>426.0</ele><time>2026-04-11T08:14:25.001Z</time></trkpt><trkpt lat="43.27754159546879" lon="12.353088663095077"><ele>424.25</ele><time>2026-04-11T08:14:26.001Z</time></trkpt><trkpt lat="43.277523082398595" lon="12.353261684080566"><ele>422.5</ele><time>2026-04-11T08:14:27.001Z</time></trkpt><trkpt lat="43.27749079550189" lon="12.353426626419132"><ele>420.75</ele><time>2026-04-11T08:14:28.001Z</time></trkpt><trkpt lat="43.277439727669304" lon="12.353582054865008"><ele>419.0</ele><time>2026-04-11T08:14:29.001Z</time></trkpt><trkpt lat="43.27737639491417" lon="12.353730343006164"><ele>419.0</ele><time>2026-04-11T08:14:30.001Z</time></trkpt><trkpt lat="43.27730785971804" lon="12.353871016118584"><ele>419.0</ele><time>2026-04-11T08:14:31.001Z</time></trkpt><trkpt lat="43.277240254335915" lon="12.354017704949886"><ele>419.0</ele><time>2026-04-11T08:14:32.001Z</time></trkpt><trkpt lat="43.27717405229904" lon="12.354164030395939"><ele>419.0</ele><time>2026-04-11T08:14:33.001Z</time></trkpt><trkpt lat="43.27711294541213" lon="12.354298134548428"><ele>419.79999999999995</ele><time>2026-04-11T08:14:34.001Z</time></trkpt><trkpt lat="43.27707439099686" lon="12.354426805166081"><ele>420.59999999999997</ele><time>2026-04-11T08:14:35.001Z</time></trkpt><trkpt lat="43.27705924912289" lon="12.35456580810613"><ele>421.4</ele><time>2026-04-11T08:14:36.001Z</time></trkpt><trkpt lat="43.277065533392935" lon="12.354720454146426"><ele>422.2</ele><time>2026-04-11T08:14:37.001Z</time></trkpt><trkpt lat="43.277094996862495" lon="12.354883185045216"><ele>423.0</ele><time>2026-04-11T08:14:38.001Z</time></trkpt><trkpt lat="43.27713174647037" lon="12.355039776415856"><ele>423.0</ele><time>2026-04-11T08:14:39.001Z</time></trkpt><trkpt lat="43.27716431407292" lon="12.355193366196755"><ele>423.0</ele><time>2026-04-11T08:14:40.001Z</time></trkpt><trkpt lat="43.277191450897995" lon="12.355335914349896"><ele>423.0</ele><time>2026-04-11T08:14:41.001Z</time></trkpt><trkpt lat="43.27720346355685" lon="12.355451593761273"><ele>423.0</ele><time>2026-04-11T08:14:42.001Z</time></trkpt><trkpt lat="43.27718710726636" lon="12.355571622423478"><ele>423.0</ele><time>2026-04-11T08:14:43.001Z</time></trkpt><trkpt lat="43.277121535763804" lon="12.35566727404301"><ele>418.75</ele><time>2026-04-11T08:14:44.001Z</time></trkpt><trkpt lat="43.27702063199768" lon="12.355723382090215"><ele>414.5</ele><time>2026-04-11T08:14:45.001Z</time></trkpt><trkpt lat="43.27688437361839" lon="12.355747853736085"><ele>410.25</ele><time>2026-04-11T08:14:46.001Z</time></trkpt><trkpt lat="43.27673265766169" lon="12.35577079765817"><ele>406.0</ele><time>2026-04-11T08:14:47.001Z</time></trkpt><trkpt lat="43.27659284392554" lon="12.355787542820629"><ele>406.0</ele><time>2026-04-11T08:14:48.001Z</time></trkpt><trkpt lat="43.27645868835885" lon="12.355797930867112"><ele>406.0</ele><time>2026-04-11T08:14:49.001Z</time></trkpt><trkpt lat="43.27633349199174" lon="12.3558130834721"><ele>406.0</ele><time>2026-04-11T08:14:50.001Z</time></trkpt><trkpt lat="43.27622758885812" lon="12.355830269664347"><ele>406.0</ele><time>2026-04-11T08:14:51.001Z</time></trkpt><trkpt lat="43.27613034510129" lon="12.355858863753323"><ele>406.6666666666667</ele><time>2026-04-11T08:14:52.001Z</time></trkpt><trkpt lat="43.27605216101136" lon="12.355911352787654"><ele>407.33333333333337</ele><time>2026-04-11T08:14:53.001Z</time></trkpt><trkpt lat="43.275999770161356" lon="12.355972752492058"><ele>408.0</ele><time>2026-04-11T08:14:54.001Z</time></trkpt><trkpt lat="43.27598585621163" lon="12.356080474318412"><ele>408.66666666666663</ele><time>2026-04-11T08:14:55.001Z</time></trkpt><trkpt lat="43.276058832416616" lon="12.356178658511984"><ele>409.3333333333333</ele><time>2026-04-11T08:14:56.001Z</time></trkpt><trkpt lat="43.2761587251293" lon="12.356187916773294"><ele>410.0</ele><time>2026-04-11T08:14:57.001Z</time></trkpt><trkpt lat="43.2762658554367" lon="12.356148209030158"><ele>410.0</ele><time>2026-04-11T08:14:58.001Z</time></trkpt><trkpt lat="43.276364936824834" lon="12.356111954137361"><ele>410.0</ele><time>2026-04-11T08:14:59.001Z</time></trkpt><trkpt lat="43.27646259382294" lon="12.356093977095894"><ele>410.0</ele><time>2026-04-11T08:15:00.001Z</time></trkpt><trkpt lat="43.27656175640773" lon="12.35608471530076"><ele>410.0</ele><time>2026-04-11T08:15:01.001Z</time></trkpt><trkpt lat="43.276665261841075" lon="12.356132294824084"><ele>410.0</ele><time>2026-04-11T08:15:02.001Z</time></trkpt><trkpt lat="43.276773028524254" lon="12.356177013984396"><ele>409.2</ele><time>2026-04-11T08:15:03.001Z</time></trkpt><trkpt lat="43.2768717167013" lon="12.356248825983238"><ele>408.4</ele><time>2026-04-11T08:15:04.001Z</time></trkpt><trkpt lat="43.27697316641188" lon="12.356314762475547"><ele>407.6</ele><time>2026-04-11T08:15:05.001Z</time></trkpt><trkpt lat="43.277064810573194" lon="12.356396724063133"><ele>406.8</ele><time>2026-04-11T08:15:06.001Z</time></trkpt><trkpt lat="43.277161570288925" lon="12.356478507525589"><ele>406.0</ele><time>2026-04-11T08:15:07.001Z</time></trkpt><trkpt lat="43.27725074837442" lon="12.356572959186074"><ele>400.0</ele><time>2026-04-11T08:15:08.001Z</time></trkpt><trkpt lat="43.27734712244611" lon="12.356654041122793"><ele>394.0</ele><time>2026-04-11T08:15:09.001Z</time></trkpt><trkpt lat="43.27745234927038" lon="12.356704448258625"><ele>388.0</ele><time>2026-04-11T08:15:10.001Z</time></trkpt><trkpt lat="43.27756715042503" lon="12.356717340689235"><ele>382.0</ele><time>2026-04-11T08:15:11.001Z</time></trkpt><trkpt lat="43.277683518980254" lon="12.356704092409144"><ele>382.0</ele><time>2026-04-11T08:15:12.001Z</time></trkpt><trkpt lat="43.27779930931686" lon="12.356685820753045"><ele>382.0</ele><time>2026-04-11T08:15:13.001Z</time></trkpt><trkpt lat="43.277896130712264" lon="12.356616079296629"><ele>382.0</ele><time>2026-04-11T08:15:14.001Z</time></trkpt><trkpt lat="43.27796964210959" lon="12.356566878861821"><ele>382.0</ele><time>2026-04-11T08:15:15.001Z</time></trkpt><trkpt lat="43.278080779445524" lon="12.356542357057553"><ele>382.0</ele><time>2026-04-11T08:15:17.001Z</time></trkpt><trkpt lat="43.278104925720314" lon="12.356625148618713"><ele>382.0</ele><time>2026-04-11T08:15:18.001Z</time></trkpt><trkpt lat="43.27807077644451" lon="12.356726881107827"><ele>382.0</ele><time>2026-04-11T08:15:19.001Z</time></trkpt><trkpt lat="43.27802619343914" lon="12.356868540513386"><ele>382.0</ele><time>2026-04-11T08:15:20.001Z</time></trkpt><trkpt lat="43.27795004102074" lon="12.357027797594059"><ele>382.0</ele><time>2026-04-11T08:15:21.001Z</time></trkpt><trkpt lat="43.277886674211416" lon="12.357192789466174"><ele>378.8</ele><time>2026-04-11T08:15:22.001Z</time></trkpt><trkpt lat="43.277829648972265" lon="12.357342824038012"><ele>375.6</ele><time>2026-04-11T08:15:23.001Z</time></trkpt><trkpt lat="43.27777985161179" lon="12.357466910009167"><ele>372.40000000000003</ele><time>2026-04-11T08:15:24.001Z</time></trkpt><trkpt lat="43.27772848623904" lon="12.357553588273129"><ele>369.20000000000005</ele><time>2026-04-11T08:15:25.001Z</time></trkpt><trkpt lat="43.27765690027477" lon="12.357601718503279"><ele>366.0</ele><time>2026-04-11T08:15:26.001Z</time></trkpt><trkpt lat="43.27757516647102" lon="12.357589456471445"><ele>366.0</ele><time>2026-04-11T08:15:27.001Z</time></trkpt><trkpt lat="43.277480946024994" lon="12.357535107916434"><ele>366.0</ele><time>2026-04-11T08:15:28.001Z</time></trkpt><trkpt lat="43.27737881303233" lon="12.357455639270627"><ele>366.0</ele><time>2026-04-11T08:15:29.001Z</time></trkpt><trkpt lat="43.27729342660718" lon="12.357382328790994"><ele>366.0</ele><time>2026-04-11T08:15:30.001Z</time></trkpt><trkpt lat="43.27722322257693" lon="12.357336394401523"><ele>366.0</ele><time>2026-04-11T08:15:31.001Z</time></trkpt><trkpt lat="43.277157383536085" lon="12.357354263618575"><ele>366.0</ele><time>2026-04-11T08:15:32.001Z</time></trkpt><trkpt lat="43.27710516681762" lon="12.357404262714972"><ele>366.0</ele><time>2026-04-11T08:15:33.001Z</time></trkpt><trkpt lat="43.27706492030856" lon="12.357484446233936"><ele>366.0</ele><time>2026-04-11T08:15:34.001Z</time></trkpt><trkpt lat="43.27712970262628" lon="12.357622404650044"><ele>366.0</ele><time>2026-04-11T08:15:35.001Z</time></trkpt><trkpt lat="43.27720268287971" lon="12.357731357262088"><ele>366.0</ele><time>2026-04-11T08:15:36.001Z</time></trkpt><trkpt lat="43.277273743036346" lon="12.357849948325535"><ele>366.0</ele><time>2026-04-11T08:15:37.001Z</time></trkpt><trkpt lat="43.27735801952382" lon="12.35793761980638"><ele>366.0</ele><time>2026-04-11T08:15:38.001Z</time></trkpt><trkpt lat="43.27745246336343" lon="12.358026045781056"><ele>366.0</ele><time>2026-04-11T08:15:39.001Z</time></trkpt><trkpt lat="43.27755558180008" lon="12.358107958406897"><ele>366.0</ele><time>2026-04-11T08:15:40.001Z</time></trkpt><trkpt lat="43.27767256727173" lon="12.358164389475071"><ele>362.75</ele><time>2026-04-11T08:15:41.001Z</time></trkpt><trkpt lat="43.27779049644438" lon="12.358210166646684"><ele>359.5</ele><time>2026-04-11T08:15:42.001Z</time></trkpt><trkpt lat="43.27790674711132" lon="12.358249134694683"><ele>356.25</ele><time>2026-04-11T08:15:43.001Z</time></trkpt><trkpt lat="43.27801305964736" lon="12.358278598914898"><ele>353.0</ele><time>2026-04-11T08:15:44.001Z</time></trkpt><trkpt lat="43.278114802233596" lon="12.358289489666925"><ele>352.75</ele><time>2026-04-11T08:15:45.001Z</time></trkpt><trkpt lat="43.278218376967516" lon="12.35825293486921"><ele>352.5</ele><time>2026-04-11T08:15:46.001Z</time></trkpt><trkpt lat="43.278316557236195" lon="12.358103825413856"><ele>352.25</ele><time>2026-04-11T08:15:47.001Z</time></trkpt><trkpt lat="43.278422143955915" lon="12.35799070907066"><ele>352.0</ele><time>2026-04-11T08:15:48.001Z</time></trkpt><trkpt lat="43.27852520357871" lon="12.35787744903706"><ele>353.5</ele><time>2026-04-11T08:15:49.001Z</time></trkpt><trkpt lat="43.278610504389924" lon="12.357751363191037"><ele>355.0</ele><time>2026-04-11T08:15:50Z</time></trkpt><trkpt lat="43.27870037748913" lon="12.357643862958678"><ele>356.5</ele><time>2026-04-11T08:15:51Z</time></trkpt><trkpt lat="43.27877352151902" lon="12.357513810237295"><ele>358.0</ele><time>2026-04-11T08:15:52Z</time></trkpt><trkpt lat="43.2788265118913" lon="12.357349164337139"><ele>360.25</ele><time>2026-04-11T08:15:53Z</time></trkpt><trkpt lat="43.2788960404846" lon="12.357176617469003"><ele>362.5</ele><time>2026-04-11T08:15:54Z</time></trkpt><trkpt lat="43.27895136789339" lon="12.356991397417215"><ele>364.75</ele><time>2026-04-11T08:15:55Z</time></trkpt><trkpt lat="43.279003986731595" lon="12.356811037635113"><ele>367.0</ele><time>2026-04-11T08:15:56Z</time></trkpt><trkpt lat="43.279059576408564" lon="12.356638260618972"><ele>362.0</ele><time>2026-04-11T08:15:57Z</time></trkpt><trkpt lat="43.27912075132831" lon="12.35646607055941"><ele>357.0</ele><time>2026-04-11T08:15:58Z</time></trkpt><trkpt lat="43.279177107333936" lon="12.356286893894719"><ele>352.0</ele><time>2026-04-11T08:15:59Z</time></trkpt><trkpt lat="43.27926142722279" lon="12.35613139101281"><ele>347.0</ele><time>2026-04-11T08:16:00Z</time></trkpt><trkpt lat="43.279340214153144" lon="12.355987797450993"><ele>347.0</ele><time>2026-04-11T08:16:01Z</time></trkpt><trkpt lat="43.27940849071393" lon="12.355861425838127"><ele>347.0</ele><time>2026-04-11T08:16:02Z</time></trkpt><trkpt lat="43.27946918347049" lon="12.35574268433804"><ele>347.0</ele><time>2026-04-11T08:16:03Z</time></trkpt><trkpt lat="43.279511184128886" lon="12.35562329792332"><ele>347.0</ele><time>2026-04-11T08:16:04Z</time></trkpt><trkpt lat="43.279529441115756" lon="12.355478591175924"><ele>347.0</ele><time>2026-04-11T08:16:05Z</time></trkpt><trkpt lat="43.27949818146469" lon="12.355310951446473"><ele>347.20000000000005</ele><time>2026-04-11T08:16:06Z</time></trkpt><trkpt lat="43.279474883031064" lon="12.355137556713915"><ele>347.4</ele><time>2026-04-11T08:16:07Z</time></trkpt><trkpt lat="43.27947593854188" lon="12.354966829847708"><ele>347.6</ele><time>2026-04-11T08:16:08Z</time></trkpt><trkpt lat="43.27948862549654" lon="12.354827648663324"><ele>347.79999999999995</ele><time>2026-04-11T08:16:09Z</time></trkpt><trkpt lat="43.27950392810516" lon="12.354730899380185"><ele>348.0</ele><time>2026-04-11T08:16:10Z</time></trkpt><trkpt lat="43.2795636694359" lon="12.35459923921455"><ele>348.0</ele><time>2026-04-11T08:16:12Z</time></trkpt><trkpt lat="43.27963595394818" lon="12.354632164653783"><ele>348.0</ele><time>2026-04-11T08:16:13Z</time></trkpt><trkpt lat="43.279679764604" lon="12.354706595234662"><ele>348.0</ele><time>2026-04-11T08:16:14Z</time></trkpt><trkpt lat="43.27966406332347" lon="12.354822939930877"><ele>348.0</ele><time>2026-04-11T08:16:15Z</time></trkpt><trkpt lat="43.27965447518558" lon="12.35498171182405"><ele>348.0</ele><time>2026-04-11T08:16:16Z</time></trkpt><trkpt lat="43.27968918340806" lon="12.355163685542673"><ele>348.0</ele><time>2026-04-11T08:16:17Z</time></trkpt><trkpt lat="43.27972324804882" lon="12.355338413703898"><ele>348.0</ele><time>2026-04-11T08:16:18Z</time></trkpt><trkpt lat="43.27975878755181" lon="12.355510013467754"><ele>348.0</ele><time>2026-04-11T08:16:19Z</time></trkpt><trkpt lat="43.27983649713783" lon="12.355648938771541"><ele>348.0</ele><time>2026-04-11T08:16:20Z</time></trkpt><trkpt lat="43.27988821734238" lon="12.35581187975544"><ele>340.75</ele><time>2026-04-11T08:16:21Z</time></trkpt><trkpt lat="43.27996192989377" lon="12.35595614605507"><ele>333.5</ele><time>2026-04-11T08:16:22Z</time></trkpt><trkpt lat="43.280007262521224" lon="12.356104918002396"><ele>326.25</ele><time>2026-04-11T08:16:23Z</time></trkpt><trkpt lat="43.28003259304321" lon="12.35623954766407"><ele>319.0</ele><time>2026-04-11T08:16:24Z</time></trkpt><trkpt lat="43.280023575838136" lon="12.356380833176134"><ele>318.8333333333333</ele><time>2026-04-11T08:16:25Z</time></trkpt><trkpt lat="43.27998277289365" lon="12.356507457292011"><ele>318.66666666666663</ele><time>2026-04-11T08:16:26Z</time></trkpt><trkpt lat="43.27992290833675" lon="12.356615708698326"><ele>318.5</ele><time>2026-04-11T08:16:27Z</time></trkpt><trkpt lat="43.27988703804545" lon="12.356707064089798"><ele>318.3333333333333</ele><time>2026-04-11T08:16:28Z</time></trkpt><trkpt lat="43.27989004836465" lon="12.356800450739453"><ele>318.1666666666667</ele><time>2026-04-11T08:16:29Z</time></trkpt><trkpt lat="43.27990046604525" lon="12.356911446727223"><ele>318.0</ele><time>2026-04-11T08:16:30Z</time></trkpt><trkpt lat="43.28002729716037" lon="12.356917651764073"><ele>318.0</ele><time>2026-04-11T08:16:31Z</time></trkpt><trkpt lat="43.28011401376613" lon="12.3568183933826"><ele>318.0</ele><time>2026-04-11T08:16:32Z</time></trkpt><trkpt lat="43.28020308721699" lon="12.356713106958782"><ele>318.0</ele><time>2026-04-11T08:16:33Z</time></trkpt><trkpt lat="43.280288267434436" lon="12.356627627660183"><ele>318.0</ele><time>2026-04-11T08:16:34Z</time></trkpt><trkpt lat="43.28036352705389" lon="12.356520521039844"><ele>318.0</ele><time>2026-04-11T08:16:35Z</time></trkpt><trkpt lat="43.28042554900851" lon="12.356394559045151"><ele>318.2</ele><time>2026-04-11T08:16:36Z</time></trkpt><trkpt lat="43.28045840922049" lon="12.356248670690137"><ele>318.4</ele><time>2026-04-11T08:16:37Z</time></trkpt><trkpt lat="43.280496843369065" lon="12.356118844730888"><ele>318.59999999999997</ele><time>2026-04-11T08:16:38.001Z</time></trkpt><trkpt lat="43.280531792336205" lon="12.355990343985033"><ele>318.8</ele><time>2026-04-11T08:16:39.001Z</time></trkpt><trkpt lat="43.28055160437824" lon="12.355856618185971"><ele>319.0</ele><time>2026-04-11T08:16:40.001Z</time></trkpt><trkpt lat="43.2805482164205" lon="12.355721753883223"><ele>319.0</ele><time>2026-04-11T08:16:41.001Z</time></trkpt><trkpt lat="43.28051880506043" lon="12.3555954289452"><ele>319.0</ele><time>2026-04-11T08:16:42.001Z</time></trkpt><trkpt lat="43.280479977356315" lon="12.355491268469867"><ele>319.0</ele><time>2026-04-11T08:16:43.001Z</time></trkpt><trkpt lat="43.28045424888816" lon="12.355374285252818"><ele>319.0</ele><time>2026-04-11T08:16:44.001Z</time></trkpt><trkpt lat="43.280425714345924" lon="12.355253550008497"><ele>319.0</ele><time>2026-04-11T08:16:45.001Z</time></trkpt><trkpt lat="43.280406257598706" lon="12.355129173037172"><ele>319.16666666666663</ele><time>2026-04-11T08:16:46.001Z</time></trkpt><trkpt lat="43.28038662868882" lon="12.355004736486968"><ele>319.3333333333333</ele><time>2026-04-11T08:16:47.001Z</time></trkpt><trkpt lat="43.28038599990121" lon="12.354891839641244"><ele>319.5</ele><time>2026-04-11T08:16:48.001Z</time></trkpt><trkpt lat="43.280381444695394" lon="12.354787645209209"><ele>319.6666666666667</ele><time>2026-04-11T08:16:49.001Z</time></trkpt><trkpt lat="43.28039955610201" lon="12.354691730765175"><ele>319.83333333333337</ele><time>2026-04-11T08:16:50.001Z</time></trkpt><trkpt lat="43.28040703446004" lon="12.354602106521078"><ele>320.0</ele><time>2026-04-11T08:16:51.001Z</time></trkpt><trkpt lat="43.28042672464228" lon="12.35451240998559"><ele>320.6</ele><time>2026-04-11T08:16:52.001Z</time></trkpt><trkpt lat="43.28051838708022" lon="12.35442535867884"><ele>321.2</ele><time>2026-04-11T08:16:54.001Z</time></trkpt><trkpt lat="43.280576236408265" lon="12.354480601180768"><ele>321.79999999999995</ele><time>2026-04-11T08:16:55.001Z</time></trkpt><trkpt lat="43.28059128642123" lon="12.354588459427866"><ele>322.4</ele><time>2026-04-11T08:16:56.001Z</time></trkpt><trkpt lat="43.2806150392095" lon="12.354715272906073"><ele>323.0</ele><time>2026-04-11T08:16:57.001Z</time></trkpt><trkpt lat="43.28061356981729" lon="12.354858267457402"><ele>318.0</ele><time>2026-04-11T08:16:58.001Z</time></trkpt><trkpt lat="43.28062606563885" lon="12.354988911559946"><ele>313.0</ele><time>2026-04-11T08:16:59.001Z</time></trkpt><trkpt lat="43.28066314326562" lon="12.355121869501543"><ele>308.0</ele><time>2026-04-11T08:17:00.001Z</time></trkpt><trkpt lat="43.28073483625859" lon="12.355239361477436"><ele>303.0</ele><time>2026-04-11T08:17:01.001Z</time></trkpt><trkpt lat="43.28080662848221" lon="12.355349707008653"><ele>298.0</ele><time>2026-04-11T08:17:02.001Z</time></trkpt><trkpt lat="43.28087435366619" lon="12.355463460510784"><ele>299.0</ele><time>2026-04-11T08:17:03.001Z</time></trkpt><trkpt lat="43.28094043881707" lon="12.355578658012405"><ele>300.0</ele><time>2026-04-11T08:17:04.001Z</time></trkpt><trkpt lat="43.28101981695564" lon="12.355678188725985"><ele>301.0</ele><time>2026-04-11T08:17:05.001Z</time></trkpt><trkpt lat="43.281119832537826" lon="12.35574081309943"><ele>302.0</ele><time>2026-04-11T08:17:06.001Z</time></trkpt><trkpt lat="43.28122577172748" lon="12.355774353606883"><ele>303.0</ele><time>2026-04-11T08:17:07.001Z</time></trkpt><trkpt lat="43.28132986615953" lon="12.355809018270918"><ele>303.0</ele><time>2026-04-11T08:17:08.001Z</time></trkpt><trkpt lat="43.281403890448885" lon="12.355889621356074"><ele>303.0</ele><time>2026-04-11T08:17:09.001Z</time></trkpt><trkpt lat="43.28147116030623" lon="12.355960345429777"><ele>303.0</ele><time>2026-04-11T08:17:10.001Z</time></trkpt><trkpt lat="43.281500742851534" lon="12.356094457449357"><ele>303.0</ele><time>2026-04-11T08:17:11.001Z</time></trkpt><trkpt lat="43.28150409461446" lon="12.356214806263482"><ele>303.0</ele><time>2026-04-11T08:17:12.001Z</time></trkpt><trkpt lat="43.281483889252186" lon="12.356316804789314"><ele>303.0</ele><time>2026-04-11T08:17:13.001Z</time></trkpt><trkpt lat="43.28144613146458" lon="12.356468279112102"><ele>299.5</ele><time>2026-04-11T08:17:15.001Z</time></trkpt><trkpt lat="43.28145127190391" lon="12.356602872410486"><ele>296.0</ele><time>2026-04-11T08:17:17.001Z</time></trkpt><trkpt lat="43.28155784640598" lon="12.35662029766003"><ele>292.5</ele><time>2026-04-11T08:17:19.001Z</time></trkpt><trkpt lat="43.28159941404326" lon="12.356553939402579"><ele>289.0</ele><time>2026-04-11T08:17:20.001Z</time></trkpt><trkpt lat="43.28162274968717" lon="12.356455592709953"><ele>285.5</ele><time>2026-04-11T08:17:21.001Z</time></trkpt><trkpt lat="43.28164830673489" lon="12.35637095814449"><ele>282.0</ele><time>2026-04-11T08:17:22.001Z</time></trkpt><trkpt lat="43.28167013319098" lon="12.356283372696302"><ele>281.7142857142857</ele><time>2026-04-11T08:17:23.001Z</time></trkpt><trkpt lat="43.281690392336294" lon="12.356195737774266"><ele>281.42857142857144</ele><time>2026-04-11T08:17:24.001Z</time></trkpt><trkpt lat="43.28170789205764" lon="12.356104414484463"><ele>281.1428571428571</ele><time>2026-04-11T08:17:25.001Z</time></trkpt><trkpt lat="43.28172297916342" lon="12.356012510244703"><ele>280.8571428571429</ele><time>2026-04-11T08:17:26.001Z</time></trkpt><trkpt lat="43.281738938159464" lon="12.35590896998498"><ele>280.57142857142856</ele><time>2026-04-11T08:17:27.001Z</time></trkpt><trkpt lat="43.281751776869314" lon="12.355805081915033"><ele>280.2857142857143</ele><time>2026-04-11T08:17:28.001Z</time></trkpt><trkpt lat="43.281739630665776" lon="12.355702599758413"><ele>280.0</ele><time>2026-04-11T08:17:29.001Z</time></trkpt><trkpt lat="43.281717021271355" lon="12.355609888039849"><ele>278.3333333333333</ele><time>2026-04-11T08:17:30.001Z</time></trkpt><trkpt lat="43.281668375968174" lon="12.35553448685232"><ele>276.66666666666663</ele><time>2026-04-11T08:17:31.001Z</time></trkpt><trkpt lat="43.28158882734549" lon="12.355479356439744"><ele>275.0</ele><time>2026-04-11T08:17:32.001Z</time></trkpt><trkpt lat="43.28149883730716" lon="12.355448548433813"><ele>273.3333333333333</ele><time>2026-04-11T08:17:33.001Z</time></trkpt><trkpt lat="43.281419588540835" lon="12.35539523502258"><ele>271.6666666666667</ele><time>2026-04-11T08:17:34.001Z</time></trkpt><trkpt lat="43.28134830061506" lon="12.35536120528169"><ele>270.0</ele><time>2026-04-11T08:17:35.001Z</time></trkpt><trkpt lat="43.281303193999946" lon="12.355281113573069"><ele>270.0</ele><time>2026-04-11T08:17:37.001Z</time></trkpt><trkpt lat="43.28136314061113" lon="12.355191766838844"><ele>270.0</ele><time>2026-04-11T08:17:39.001Z</time></trkpt><trkpt lat="43.281431343854294" lon="12.355203634271662"><ele>270.0</ele><time>2026-04-11T08:17:40.001Z</time></trkpt><trkpt lat="43.2814979436192" lon="12.35524188174804"><ele>270.0</ele><time>2026-04-11T08:17:41.001Z</time></trkpt><trkpt lat="43.28156421375308" lon="12.355269340869262"><ele>270.0</ele><time>2026-04-11T08:17:42.001Z</time></trkpt><trkpt lat="43.28169270136678" lon="12.355308895718736"><ele>270.0</ele><time>2026-04-11T08:17:44.001Z</time></trkpt><trkpt lat="43.28176246081604" lon="12.355340071184962"><ele>270.0</ele><time>2026-04-11T08:17:45.001Z</time></trkpt><trkpt lat="43.28184073746153" lon="12.355402009085017"><ele>270.0</ele><time>2026-04-11T08:17:46.001Z</time></trkpt><trkpt lat="43.28192296808721" lon="12.355479582802905"><ele>270.0</ele><time>2026-04-11T08:17:47.001Z</time></trkpt><trkpt lat="43.28198494196573" lon="12.355570929644644"><ele>270.0</ele><time>2026-04-11T08:17:48.001Z</time></trkpt><trkpt lat="43.28202707241014" lon="12.355676302440065"><ele>270.0</ele><time>2026-04-11T08:17:49.001Z</time></trkpt><trkpt lat="43.28204944671782" lon="12.35579097980663"><ele>272.0</ele><time>2026-04-11T08:17:50.001Z</time></trkpt><trkpt lat="43.28206261105527" lon="12.355919773976842"><ele>274.0</ele><time>2026-04-11T08:17:51.001Z</time></trkpt><trkpt lat="43.282066694318004" lon="12.356048161993288"><ele>276.0</ele><time>2026-04-11T08:17:52.001Z</time></trkpt><trkpt lat="43.28206991655448" lon="12.356175500323435"><ele>278.0</ele><time>2026-04-11T08:17:53Z</time></trkpt><trkpt lat="43.28207133413452" lon="12.356302736832209"><ele>280.0</ele><time>2026-04-11T08:17:54Z</time></trkpt><trkpt lat="43.282067248194515" lon="12.356422394664444"><ele>280.3333333333333</ele><time>2026-04-11T08:17:55Z</time></trkpt><trkpt lat="43.28205784384193" lon="12.356527851068869"><ele>280.66666666666663</ele><time>2026-04-11T08:17:56Z</time></trkpt><trkpt lat="43.282053102348605" lon="12.356628992845536"><ele>281.0</ele><time>2026-04-11T08:17:57Z</time></trkpt><trkpt lat="43.28205081070345" lon="12.356734418994685"><ele>281.3333333333333</ele><time>2026-04-11T08:17:58Z</time></trkpt><trkpt lat="43.28204657037915" lon="12.356840217990372"><ele>281.6666666666667</ele><time>2026-04-11T08:17:59Z</time></trkpt><trkpt lat="43.282041045112216" lon="12.356946162461096"><ele>282.0</ele><time>2026-04-11T08:18:00Z</time></trkpt><trkpt lat="43.28203539882317" lon="12.357055292492559"><ele>282.0</ele><time>2026-04-11T08:18:01Z</time></trkpt><trkpt lat="43.28202742635218" lon="12.357169266583144"><ele>282.0</ele><time>2026-04-11T08:18:02Z</time></trkpt><trkpt lat="43.282017175842206" lon="12.35728600025858"><ele>282.0</ele><time>2026-04-11T08:18:03Z</time></trkpt><trkpt lat="43.28199947300384" lon="12.357408328395952"><ele>282.0</ele><time>2026-04-11T08:18:04Z</time></trkpt><trkpt lat="43.281968007816566" lon="12.357524228197246"><ele>282.0</ele><time>2026-04-11T08:18:05Z</time></trkpt><trkpt lat="43.281940019254286" lon="12.357646881702191"><ele>282.0</ele><time>2026-04-11T08:18:06Z</time></trkpt><trkpt lat="43.28190878460038" lon="12.357759928554872"><ele>281.0</ele><time>2026-04-11T08:18:07Z</time></trkpt><trkpt lat="43.28188180275551" lon="12.357857583254534"><ele>280.0</ele><time>2026-04-11T08:18:08Z</time></trkpt><trkpt lat="43.28189565464956" lon="12.357999403377095"><ele>279.0</ele><time>2026-04-11T08:18:10Z</time></trkpt><trkpt lat="43.281958820082565" lon="12.358032511882572"><ele>278.0</ele><time>2026-04-11T08:18:11Z</time></trkpt><trkpt lat="43.28203251167867" lon="12.35801714194109"><ele>277.0</ele><time>2026-04-11T08:18:12Z</time></trkpt><trkpt lat="43.28210572912578" lon="12.35792590182693"><ele>276.0</ele><time>2026-04-11T08:18:13Z</time></trkpt><trkpt lat="43.28214610890145" lon="12.357850300416679"><ele>276.0</ele><time>2026-04-11T08:18:14Z</time></trkpt><trkpt lat="43.282232220323905" lon="12.357768415394684"><ele>276.0</ele><time>2026-04-11T08:18:16Z</time></trkpt><trkpt lat="43.28227414952672" lon="12.35783433059361"><ele>276.0</ele><time>2026-04-11T08:18:17Z</time></trkpt><trkpt lat="43.28226770764742" lon="12.357940545782112"><ele>276.0</ele><time>2026-04-11T08:18:18Z</time></trkpt><trkpt lat="43.28242398252116" lon="12.35807683305573"><ele>276.0</ele><time>2026-04-11T08:18:20Z</time></trkpt><trkpt lat="43.28251628313841" lon="12.358120881206242"><ele>270.2</ele><time>2026-04-11T08:18:21Z</time></trkpt><trkpt lat="43.28260896423094" lon="12.358179003034644"><ele>264.40000000000003</ele><time>2026-04-11T08:18:22Z</time></trkpt><trkpt lat="43.282708078200024" lon="12.358225927160404"><ele>258.6</ele><time>2026-04-11T08:18:23Z</time></trkpt><trkpt lat="43.28279780782024" lon="12.358268243788617"><ele>252.8</ele><time>2026-04-11T08:18:24Z</time></trkpt><trkpt lat="43.28288798513318" lon="12.358310771548698"><ele>247.0</ele><time>2026-04-11T08:18:25Z</time></trkpt><trkpt lat="43.282973320271545" lon="12.358351015733575"><ele>246.99999999999997</ele><time>2026-04-11T08:18:26Z</time></trkpt><trkpt lat="43.2830564816835" lon="12.358390242521594"><ele>247.0</ele><time>2026-04-11T08:18:27Z</time></trkpt><trkpt lat="43.28313398370569" lon="12.358426871390668"><ele>247.0</ele><time>2026-04-11T08:18:28Z</time></trkpt><trkpt lat="43.283207724097345" lon="12.358461722442486"><ele>247.0</ele><time>2026-04-11T08:18:29Z</time></trkpt><trkpt lat="43.28328129565347" lon="12.358496493694576"><ele>246.99999999999997</ele><time>2026-04-11T08:18:30Z</time></trkpt><trkpt lat="43.28335992499418" lon="12.358525121429125"><ele>247.0</ele><time>2026-04-11T08:18:31Z</time></trkpt><trkpt lat="43.28343895679801" lon="12.358561246655913"><ele>244.99999999999997</ele><time>2026-04-11T08:18:32Z</time></trkpt><trkpt lat="43.28351948590301" lon="12.35859860802076"><ele>243.0</ele><time>2026-04-11T08:18:33Z</time></trkpt><trkpt lat="43.28360139064201" lon="12.358623419172162"><ele>241.0</ele><time>2026-04-11T08:18:34Z</time></trkpt><trkpt lat="43.28368088844738" lon="12.358649390977362"><ele>239.0</ele><time>2026-04-11T08:18:35Z</time></trkpt><trkpt lat="43.28376657015589" lon="12.35861304854285"><ele>236.99999999999997</ele><time>2026-04-11T08:18:36Z</time></trkpt><trkpt lat="43.28383131256442" lon="12.358506307380162"><ele>235.0</ele><time>2026-04-11T08:18:37Z</time></trkpt><trkpt lat="43.283871444803" lon="12.358399573492902"><ele>235.0</ele><time>2026-04-11T08:18:38Z</time></trkpt><trkpt lat="43.28390875602831" lon="12.35827823386092"><ele>235.0</ele><time>2026-04-11T08:18:39Z</time></trkpt><trkpt lat="43.28394446592549" lon="12.358157204942797"><ele>235.0</ele><time>2026-04-11T08:18:40Z</time></trkpt><trkpt lat="43.28398065106853" lon="12.358034565317537"><ele>235.0</ele><time>2026-04-11T08:18:41Z</time></trkpt><trkpt lat="43.284014893045594" lon="12.357918511510208"><ele>235.0</ele><time>2026-04-11T08:18:42Z</time></trkpt><trkpt lat="43.28404980895577" lon="12.357802413789038"><ele>234.8</ele><time>2026-04-11T08:18:43Z</time></trkpt><trkpt lat="43.28408585792148" lon="12.357686681310327"><ele>234.6</ele><time>2026-04-11T08:18:44Z</time></trkpt><trkpt lat="43.284119505712155" lon="12.35757538128977"><ele>234.39999999999998</ele><time>2026-04-11T08:18:45Z</time></trkpt><trkpt lat="43.28415137759949" lon="12.357469629712881"><ele>234.2</ele><time>2026-04-11T08:18:46Z</time></trkpt><trkpt lat="43.28418373497716" lon="12.357358196316962"><ele>234.0</ele><time>2026-04-11T08:18:47Z</time></trkpt><trkpt lat="43.28419578848885" lon="12.35721768086594"><ele>233.75</ele><time>2026-04-11T08:18:48Z</time></trkpt><trkpt lat="43.284211196979456" lon="12.357070992858645"><ele>233.5</ele><time>2026-04-11T08:18:49Z</time></trkpt><trkpt lat="43.28420372793037" lon="12.356917060873203"><ele>233.25</ele><time>2026-04-11T08:18:50Z</time></trkpt><trkpt lat="43.28418869024446" lon="12.35675996869057"><ele>233.0</ele><time>2026-04-11T08:18:51Z</time></trkpt><trkpt lat="43.284177398203006" lon="12.356595863889245"><ele>233.0</ele><time>2026-04-11T08:18:52Z</time></trkpt><trkpt lat="43.28416537074886" lon="12.356439232924181"><ele>233.0</ele><time>2026-04-11T08:18:53Z</time></trkpt><trkpt lat="43.284153558181906" lon="12.356287660839666"><ele>233.0</ele><time>2026-04-11T08:18:54Z</time></trkpt><trkpt lat="43.28414649703286" lon="12.356132917749814"><ele>233.0</ele><time>2026-04-11T08:18:55Z</time></trkpt><trkpt lat="43.28413656123189" lon="12.35597258026164"><ele>233.0</ele><time>2026-04-11T08:18:56Z</time></trkpt><trkpt lat="43.284125576864845" lon="12.355813207807055"><ele>233.0</ele><time>2026-04-11T08:18:57Z</time></trkpt><trkpt lat="43.28411418226599" lon="12.355651262104441"><ele>233.0</ele><time>2026-04-11T08:18:58Z</time></trkpt><trkpt lat="43.284099311473184" lon="12.35548238556545"><ele>233.0</ele><time>2026-04-11T08:18:59Z</time></trkpt><trkpt lat="43.284085576475185" lon="12.3553124188722"><ele>233.25</ele><time>2026-04-11T08:19:00Z</time></trkpt><trkpt lat="43.284077872883955" lon="12.355147573183757"><ele>233.5</ele><time>2026-04-11T08:19:01Z</time></trkpt><trkpt lat="43.28406970614682" lon="12.354983082401183"><ele>233.75</ele><time>2026-04-11T08:19:02Z</time></trkpt><trkpt lat="43.28406408176939" lon="12.354818119816771"><ele>234.0</ele><time>2026-04-11T08:19:03Z</time></trkpt><trkpt lat="43.284063944915765" lon="12.354647366201553"><ele>235.5</ele><time>2026-04-11T08:19:04Z</time></trkpt><trkpt lat="43.28407332018752" lon="12.354472773290851"><ele>237.0</ele><time>2026-04-11T08:19:05Z</time></trkpt><trkpt lat="43.28409141695859" lon="12.354295216772828"><ele>238.5</ele><time>2026-04-11T08:19:06Z</time></trkpt><trkpt lat="43.2841450223646" lon="12.35413499897648"><ele>240.0</ele><time>2026-04-11T08:19:07Z</time></trkpt><trkpt lat="43.284192564103705" lon="12.353974574035654"><ele>243.0</ele><time>2026-04-11T08:19:08Z</time></trkpt><trkpt lat="43.284238521026666" lon="12.353812897823163"><ele>246.0</ele><time>2026-04-11T08:19:09.001Z</time></trkpt><trkpt lat="43.28426759170717" lon="12.353648403100012"><ele>249.0</ele><time>2026-04-11T08:19:10.001Z</time></trkpt><trkpt lat="43.284310962162685" lon="12.353494151383037"><ele>252.0</ele><time>2026-04-11T08:19:11.001Z</time></trkpt><trkpt lat="43.28435165105539" lon="12.353353485803607"><ele>252.0</ele><time>2026-04-11T08:19:12.001Z</time></trkpt><trkpt lat="43.284410025444274" lon="12.353225277661448"><ele>252.0</ele><time>2026-04-11T08:19:13.001Z</time></trkpt><trkpt lat="43.284462878684366" lon="12.353093505023683"><ele>252.0</ele><time>2026-04-11T08:19:14.001Z</time></trkpt><trkpt lat="43.28452384855725" lon="12.352950844327733"><ele>252.0</ele><time>2026-04-11T08:19:15.001Z</time></trkpt><trkpt lat="43.284592851213965" lon="12.352794147338855"><ele>248.0</ele><time>2026-04-11T08:19:16.001Z</time></trkpt><trkpt lat="43.284669752639196" lon="12.352622201785142"><ele>244.0</ele><time>2026-04-11T08:19:17.001Z</time></trkpt><trkpt lat="43.28473788404658" lon="12.35243176434451"><ele>240.0</ele><time>2026-04-11T08:19:18.001Z</time></trkpt><trkpt lat="43.284833221079005" lon="12.352268141596456"><ele>241.5</ele><time>2026-04-11T08:19:19.001Z</time></trkpt><trkpt lat="43.28492101730615" lon="12.352110141373542"><ele>243.0</ele><time>2026-04-11T08:19:20.001Z</time></trkpt><trkpt lat="43.285016336117295" lon="12.351968446120386"><ele>244.5</ele><time>2026-04-11T08:19:21.001Z</time></trkpt><trkpt lat="43.28512028884824" lon="12.351835824776584"><ele>246.0</ele><time>2026-04-11T08:19:22.001Z</time></trkpt><trkpt lat="43.285226829601825" lon="12.351712352742858"><ele>246.0</ele><time>2026-04-11T08:19:23.001Z</time></trkpt><trkpt lat="43.2853226636851" lon="12.351590835276298"><ele>246.0</ele><time>2026-04-11T08:19:24.001Z</time></trkpt><trkpt lat="43.28540671302368" lon="12.351475411662497"><ele>246.0</ele><time>2026-04-11T08:19:25.001Z</time></trkpt><trkpt lat="43.28548824233975" lon="12.351350919788972"><ele>246.0</ele><time>2026-04-11T08:19:26.001Z</time></trkpt><trkpt lat="43.28554655988571" lon="12.351210734518808"><ele>245.0</ele><time>2026-04-11T08:19:27.001Z</time></trkpt><trkpt lat="43.28549223329926" lon="12.351004329662546"><ele>244.0</ele><time>2026-04-11T08:19:28.001Z</time></trkpt><trkpt lat="43.28557309936287" lon="12.350863723256795"><ele>243.0</ele><time>2026-04-11T08:19:29.001Z</time></trkpt><trkpt lat="43.28567110799045" lon="12.35074627938515"><ele>242.0</ele><time>2026-04-11T08:19:30.001Z</time></trkpt><trkpt lat="43.285776467215" lon="12.350620027400156"><ele>244.75</ele><time>2026-04-11T08:19:31.001Z</time></trkpt><trkpt lat="43.28588284168109" lon="12.35049032603563"><ele>247.5</ele><time>2026-04-11T08:19:32.001Z</time></trkpt><trkpt lat="43.28598519620064" lon="12.350351084190464"><ele>250.25</ele><time>2026-04-11T08:19:33.001Z</time></trkpt><trkpt lat="43.28607055315057" lon="12.350194109455616"><ele>253.0</ele><time>2026-04-11T08:19:34.001Z</time></trkpt><trkpt lat="43.28615889640914" lon="12.35004297323255"><ele>253.0</ele><time>2026-04-11T08:19:35.001Z</time></trkpt><trkpt lat="43.28624146265647" lon="12.349873941989404"><ele>253.0</ele><time>2026-04-11T08:19:36.001Z</time></trkpt><trkpt lat="43.28632949873371" lon="12.349717172079675"><ele>253.0</ele><time>2026-04-11T08:19:37.001Z</time></trkpt><trkpt lat="43.28640617009044" lon="12.349551900961028"><ele>253.0</ele><time>2026-04-11T08:19:38.001Z</time></trkpt><trkpt lat="43.28648409988241" lon="12.349381174289189"><ele>252.0</ele><time>2026-04-11T08:19:39.001Z</time></trkpt><trkpt lat="43.286561968035834" lon="12.349208443904075"><ele>251.0</ele><time>2026-04-11T08:19:40.001Z</time></trkpt><trkpt lat="43.28662409401402" lon="12.349026105063686"><ele>250.0</ele><time>2026-04-11T08:19:41.001Z</time></trkpt><trkpt lat="43.28671311757303" lon="12.348868873572048"><ele>249.0</ele><time>2026-04-11T08:19:42.001Z</time></trkpt><trkpt lat="43.28677432899145" lon="12.34868880124986"><ele>249.0</ele><time>2026-04-11T08:19:43.001Z</time></trkpt><trkpt lat="43.28686183068115" lon="12.348536214268456"><ele>249.0</ele><time>2026-04-11T08:19:44.001Z</time></trkpt><trkpt lat="43.286937962382645" lon="12.348371120310416"><ele>249.0</ele><time>2026-04-11T08:19:45.001Z</time></trkpt><trkpt lat="43.28701255494672" lon="12.348212723457932"><ele>249.0</ele><time>2026-04-11T08:19:46.001Z</time></trkpt><trkpt lat="43.287088297208136" lon="12.348056556215306"><ele>249.5</ele><time>2026-04-11T08:19:47.001Z</time></trkpt><trkpt lat="43.287166131611045" lon="12.347909360776766"><ele>250.0</ele><time>2026-04-11T08:19:48.001Z</time></trkpt><trkpt lat="43.287251794474955" lon="12.347774018233903"><ele>250.5</ele><time>2026-04-11T08:19:49.001Z</time></trkpt><trkpt lat="43.287348191134804" lon="12.347641304533026"><ele>251.0</ele><time>2026-04-11T08:19:50.001Z</time></trkpt><trkpt lat="43.287444619866726" lon="12.34751325846695"><ele>250.25</ele><time>2026-04-11T08:19:51.001Z</time></trkpt><trkpt lat="43.28754328593434" lon="12.347385014316725"><ele>249.5</ele><time>2026-04-11T08:19:52.001Z</time></trkpt><trkpt lat="43.28764330964232" lon="12.347254792623938"><ele>248.75</ele><time>2026-04-11T08:19:53.001Z</time></trkpt><trkpt lat="43.28774178450741" lon="12.347125809540143"><ele>248.0</ele><time>2026-04-11T08:19:54.001Z</time></trkpt><trkpt lat="43.287837588577844" lon="12.347000324660677"><ele>248.0</ele><time>2026-04-11T08:19:55.001Z</time></trkpt><trkpt lat="43.287935535688135" lon="12.346872032820126"><ele>248.0</ele><time>2026-04-11T08:19:56.001Z</time></trkpt><trkpt lat="43.28803085194578" lon="12.346747186881942"><ele>248.0</ele><time>2026-04-11T08:19:57.001Z</time></trkpt><trkpt lat="43.28812489130344" lon="12.346622546140717"><ele>248.0</ele><time>2026-04-11T08:19:58.001Z</time></trkpt><trkpt lat="43.288217276910935" lon="12.346493324383859"><ele>249.5</ele><time>2026-04-11T08:19:59Z</time></trkpt><trkpt lat="43.28830710966882" lon="12.346353121267052"><ele>251.0</ele><time>2026-04-11T08:20:00Z</time></trkpt><trkpt lat="43.288387175869524" lon="12.346191702105756"><ele>252.5</ele><time>2026-04-11T08:20:01Z</time></trkpt><trkpt lat="43.288451319216456" lon="12.346025150936644"><ele>254.0</ele><time>2026-04-11T08:20:02Z</time></trkpt><trkpt lat="43.28849273479863" lon="12.345834704929958"><ele>254.0</ele><time>2026-04-11T08:20:03Z</time></trkpt><trkpt lat="43.28853934604765" lon="12.345642023112468"><ele>254.0</ele><time>2026-04-11T08:20:04Z</time></trkpt><trkpt lat="43.28857503415863" lon="12.34543090838389"><ele>254.0</ele><time>2026-04-11T08:20:05Z</time></trkpt><trkpt lat="43.28860702239564" lon="12.345185262385309"><ele>258.33333333333337</ele><time>2026-04-11T08:20:06Z</time></trkpt><trkpt lat="43.28863698280443" lon="12.344910911168661"><ele>262.6666666666667</ele><time>2026-04-11T08:20:07Z</time></trkpt><trkpt lat="43.288664751559445" lon="12.344642028459463"><ele>267.0</ele><time>2026-04-11T08:20:08Z</time></trkpt><trkpt lat="43.28871081026014" lon="12.344398837441396"><ele>270.0</ele><time>2026-04-11T08:20:09Z</time></trkpt><trkpt lat="43.28874878775783" lon="12.344167814620887"><ele>273.0</ele><time>2026-04-11T08:20:10Z</time></trkpt><trkpt lat="43.2887980012943" lon="12.343949157829464"><ele>276.0</ele><time>2026-04-11T08:20:11Z</time></trkpt><trkpt lat="43.28886344035042" lon="12.343735773684422"><ele>267.3333333333333</ele><time>2026-04-11T08:20:12Z</time></trkpt><trkpt lat="43.288929402311744" lon="12.343531043326955"><ele>258.66666666666663</ele><time>2026-04-11T08:20:13Z</time></trkpt><trkpt lat="43.28901473817596" lon="12.343356711072616"><ele>250.0</ele><time>2026-04-11T08:20:14Z</time></trkpt><trkpt lat="43.28910112290126" lon="12.343181782071879"><ele>256.3333333333333</ele><time>2026-04-11T08:20:15Z</time></trkpt><trkpt lat="43.28918797958128" lon="12.343001180971653"><ele>262.6666666666667</ele><time>2026-04-11T08:20:16Z</time></trkpt><trkpt lat="43.28928857342984" lon="12.34283108332073"><ele>269.0</ele><time>2026-04-11T08:20:17Z</time></trkpt><trkpt lat="43.289374459472114" lon="12.342653222561642"><ele>269.0</ele><time>2026-04-11T08:20:18Z</time></trkpt><trkpt lat="43.28945981407908" lon="12.34247727804078"><ele>269.0</ele><time>2026-04-11T08:20:19Z</time></trkpt><trkpt lat="43.28954656379635" lon="12.342300475368315"><ele>269.0</ele><time>2026-04-11T08:20:20Z</time></trkpt><trkpt lat="43.289634303713974" lon="12.342121655501087"><ele>273.6666666666667</ele><time>2026-04-11T08:20:21Z</time></trkpt><trkpt lat="43.289718842304275" lon="12.34194848565449"><ele>278.3333333333333</ele><time>2026-04-11T08:20:22Z</time></trkpt><trkpt lat="43.28980122052421" lon="12.341775200779754"><ele>283.0</ele><time>2026-04-11T08:20:23Z</time></trkpt><trkpt lat="43.289890439770005" lon="12.341608399105679"><ele>280.3333333333333</ele><time>2026-04-11T08:20:24Z</time></trkpt><trkpt lat="43.28999225794247" lon="12.341445615403902"><ele>277.6666666666667</ele><time>2026-04-11T08:20:25Z</time></trkpt><trkpt lat="43.29010441241573" lon="12.341303667341482"><ele>275.0</ele><time>2026-04-11T08:20:26Z</time></trkpt><trkpt lat="43.290226667938676" lon="12.341164459614953"><ele>275.0</ele><time>2026-04-11T08:20:27Z</time></trkpt><trkpt lat="43.29035439977853" lon="12.341036953887517"><ele>275.0</ele><time>2026-04-11T08:20:28Z</time></trkpt><trkpt lat="43.290486528119125" lon="12.340917551785667"><ele>275.0</ele><time>2026-04-11T08:20:29Z</time></trkpt><trkpt lat="43.29061660499795" lon="12.340801635559146"><ele>271.75</ele><time>2026-04-11T08:20:30Z</time></trkpt><trkpt lat="43.290744267498425" lon="12.340696209709712"><ele>268.5</ele><time>2026-04-11T08:20:31Z</time></trkpt><trkpt lat="43.29086765414186" lon="12.340585393337195"><ele>265.25</ele><time>2026-04-11T08:20:32Z</time></trkpt><trkpt lat="43.290984279135735" lon="12.340464592972138"><ele>262.0</ele><time>2026-04-11T08:20:33Z</time></trkpt><trkpt lat="43.291100187272335" lon="12.340331423103375"><ele>262.0</ele><time>2026-04-11T08:20:34Z</time></trkpt><trkpt lat="43.29121040367219" lon="12.340174864707526"><ele>262.0</ele><time>2026-04-11T08:20:35Z</time></trkpt><trkpt lat="43.29131705695241" lon="12.340007274273356"><ele>262.0</ele><time>2026-04-11T08:20:36Z</time></trkpt><trkpt lat="43.291425228557834" lon="12.339836255868327"><ele>261.3333333333333</ele><time>2026-04-11T08:20:37Z</time></trkpt><trkpt lat="43.29153439046608" lon="12.339661944486252"><ele>260.6666666666667</ele><time>2026-04-11T08:20:38Z</time></trkpt><trkpt lat="43.29164400262078" lon="12.339481161723873"><ele>260.0</ele><time>2026-04-11T08:20:39Z</time></trkpt><trkpt lat="43.29175621711456" lon="12.339293520179137"><ele>260.0</ele><time>2026-04-11T08:20:40Z</time></trkpt><trkpt lat="43.29187110604877" lon="12.339104934842883"><ele>260.0</ele><time>2026-04-11T08:20:41Z</time></trkpt><trkpt lat="43.29198509442151" lon="12.338919098675268"><ele>260.0</ele><time>2026-04-11T08:20:42Z</time></trkpt><trkpt lat="43.292099096605455" lon="12.33873476607598"><ele>256.0</ele><time>2026-04-11T08:20:43Z</time></trkpt><trkpt lat="43.29221721991633" lon="12.338544686095357"><ele>252.0</ele><time>2026-04-11T08:20:44Z</time></trkpt><trkpt lat="43.29234032352707" lon="12.338346985933072"><ele>248.0</ele><time>2026-04-11T08:20:45Z</time></trkpt><trkpt lat="43.292466657643146" lon="12.33814479797053"><ele>253.66666666666669</ele><time>2026-04-11T08:20:46Z</time></trkpt><trkpt lat="43.29259125452248" lon="12.337945390380835"><ele>259.3333333333333</ele><time>2026-04-11T08:20:47Z</time></trkpt><trkpt lat="43.29271688182542" lon="12.33774433357924"><ele>265.0</ele><time>2026-04-11T08:20:48Z</time></trkpt><trkpt lat="43.292843809682616" lon="12.337540284556866"><ele>265.0</ele><time>2026-04-11T08:20:49Z</time></trkpt><trkpt lat="43.29296385810265" lon="12.337346699019026"><ele>265.0</ele><time>2026-04-11T08:20:50Z</time></trkpt><trkpt lat="43.29307775106658" lon="12.337163039571434"><ele>265.0</ele><time>2026-04-11T08:20:51Z</time></trkpt><trkpt lat="43.29319076495128" lon="12.336980797690119"><ele>258.66666666666663</ele><time>2026-04-11T08:20:52Z</time></trkpt><trkpt lat="43.29330452167787" lon="12.336794120542963"><ele>252.33333333333331</ele><time>2026-04-11T08:20:53Z</time></trkpt><trkpt lat="43.29341601692039" lon="12.336598963591674"><ele>246.0</ele><time>2026-04-11T08:20:54Z</time></trkpt><trkpt lat="43.29352402780075" lon="12.336391740821451"><ele>253.66666666666669</ele><time>2026-04-11T08:20:55Z</time></trkpt><trkpt lat="43.29362272590527" lon="12.336179864668612"><ele>261.33333333333337</ele><time>2026-04-11T08:20:56Z</time></trkpt><trkpt lat="43.29371698446743" lon="12.335971288023172"><ele>269.0</ele><time>2026-04-11T08:20:57Z</time></trkpt><trkpt lat="43.29380893566938" lon="12.335765971505046"><ele>269.0</ele><time>2026-04-11T08:20:58Z</time></trkpt><trkpt lat="43.29390001195923" lon="12.335562608539048"><ele>269.0</ele><time>2026-04-11T08:20:59Z</time></trkpt><trkpt lat="43.2939943289392" lon="12.335352009469966"><ele>269.0</ele><time>2026-04-11T08:21:00Z</time></trkpt><trkpt lat="43.29409426494317" lon="12.335128863727878"><ele>266.33333333333337</ele><time>2026-04-11T08:21:01Z</time></trkpt><trkpt lat="43.29419680463306" lon="12.33489990427289"><ele>263.6666666666667</ele><time>2026-04-11T08:21:02Z</time></trkpt><trkpt lat="43.29430912530538" lon="12.334653869238169"><ele>261.0</ele><time>2026-04-11T08:21:03Z</time></trkpt><trkpt lat="43.294402339355464" lon="12.33442017457129"><ele>261.0</ele><time>2026-04-11T08:21:04Z</time></trkpt><trkpt lat="43.29450557059259" lon="12.334194068000526"><ele>261.0</ele><time>2026-04-11T08:21:05Z</time></trkpt><trkpt lat="43.294590286987585" lon="12.333968829315435"><ele>261.0</ele><time>2026-04-11T08:21:06Z</time></trkpt><trkpt lat="43.29465844904833" lon="12.333738758771558"><ele>264.3333333333333</ele><time>2026-04-11T08:21:07Z</time></trkpt><trkpt lat="43.29471304260375" lon="12.333507298745122"><ele>267.66666666666663</ele><time>2026-04-11T08:21:08Z</time></trkpt><trkpt lat="43.294778962269405" lon="12.33329379665525"><ele>271.0</ele><time>2026-04-11T08:21:09Z</time></trkpt><trkpt lat="43.294813638515855" lon="12.333073073581385"><ele>262.66666666666663</ele><time>2026-04-11T08:21:10Z</time></trkpt><trkpt lat="43.294864162772186" lon="12.332868170363993"><ele>254.33333333333331</ele><time>2026-04-11T08:21:11Z</time></trkpt><trkpt lat="43.29490654492502" lon="12.33266938019868"><ele>246.0</ele><time>2026-04-11T08:21:12Z</time></trkpt><trkpt lat="43.29495135430833" lon="12.332475937411317"><ele>246.0</ele><time>2026-04-11T08:21:13Z</time></trkpt><trkpt lat="43.29499310097484" lon="12.332292780426638"><ele>246.0</ele><time>2026-04-11T08:21:14Z</time></trkpt><trkpt lat="43.29502684773415" lon="12.332114594586127"><ele>246.0</ele><time>2026-04-11T08:21:15Z</time></trkpt><trkpt lat="43.295032589725366" lon="12.33193554457792"><ele>246.0</ele><time>2026-04-11T08:21:16Z</time></trkpt><trkpt lat="43.295012875628125" lon="12.331742142030313"><ele>246.0</ele><time>2026-04-11T08:21:17Z</time></trkpt><trkpt lat="43.2949959555558" lon="12.331536849173641"><ele>246.0</ele><time>2026-04-11T08:21:18Z</time></trkpt><trkpt lat="43.29496416424184" lon="12.331328155931764"><ele>246.0</ele><time>2026-04-11T08:21:19Z</time></trkpt><trkpt lat="43.29491990569621" lon="12.331111976929446"><ele>246.0</ele><time>2026-04-11T08:21:20Z</time></trkpt><trkpt lat="43.294891814831296" lon="12.330881460715387"><ele>246.0</ele><time>2026-04-11T08:21:21Z</time></trkpt><trkpt lat="43.29486007296889" lon="12.330636677332421"><ele>246.0</ele><time>2026-04-11T08:21:22Z</time></trkpt><trkpt lat="43.29481959139266" lon="12.330447506698945"><ele>245.5</ele><time>2026-04-11T08:21:23Z</time></trkpt><trkpt lat="43.29479251497153" lon="12.330259383804313"><ele>245.0</ele><time>2026-04-11T08:21:24Z</time></trkpt><trkpt lat="43.29481835530046" lon="12.330065976471175"><ele>244.5</ele><time>2026-04-11T08:21:25Z</time></trkpt><trkpt lat="43.294842859181806" lon="12.329865857985572"><ele>244.0</ele><time>2026-04-11T08:21:26Z</time></trkpt><trkpt lat="43.29489374574529" lon="12.32967380134566"><ele>245.66666666666666</ele><time>2026-04-11T08:21:27Z</time></trkpt><trkpt lat="43.2949613829975" lon="12.329470667005623"><ele>247.33333333333331</ele><time>2026-04-11T08:21:28Z</time></trkpt><trkpt lat="43.29503036314901" lon="12.329268040687367"><ele>249.0</ele><time>2026-04-11T08:21:29Z</time></trkpt><trkpt lat="43.29509972555494" lon="12.3290613196083"><ele>250.33333333333331</ele><time>2026-04-11T08:21:30Z</time></trkpt><trkpt lat="43.29516808412414" lon="12.328857583653454"><ele>251.66666666666666</ele><time>2026-04-11T08:21:31Z</time></trkpt><trkpt lat="43.2952353218984" lon="12.328657182662575"><ele>253.0</ele><time>2026-04-11T08:21:32Z</time></trkpt><trkpt lat="43.29530134153309" lon="12.328460412193312"><ele>253.0</ele><time>2026-04-11T08:21:33Z</time></trkpt><trkpt lat="43.29536684328893" lon="12.328255094407675"><ele>253.0</ele><time>2026-04-11T08:21:34Z</time></trkpt><trkpt lat="43.29544180977204" lon="12.328058286820184"><ele>253.0</ele><time>2026-04-11T08:21:35Z</time></trkpt><trkpt lat="43.29553208153385" lon="12.327876729704442"><ele>251.33333333333331</ele><time>2026-04-11T08:21:36Z</time></trkpt><trkpt lat="43.2956473528471" lon="12.327729920172292"><ele>249.66666666666669</ele><time>2026-04-11T08:21:37Z</time></trkpt><trkpt lat="43.29578812773541" lon="12.327605571842732"><ele>248.0</ele><time>2026-04-11T08:21:38.001Z</time></trkpt><trkpt lat="43.29594707329708" lon="12.327489027996544"><ele>248.0</ele><time>2026-04-11T08:21:39.001Z</time></trkpt><trkpt lat="43.29610767590347" lon="12.327367230887447"><ele>248.0</ele><time>2026-04-11T08:21:40.001Z</time></trkpt><trkpt lat="43.29626771041875" lon="12.327243305866702"><ele>248.0</ele><time>2026-04-11T08:21:41.001Z</time></trkpt><trkpt lat="43.29642826622866" lon="12.327119316224453"><ele>247.0</ele><time>2026-04-11T08:21:42.001Z</time></trkpt><trkpt lat="43.29659435929338" lon="12.32699244907277"><ele>246.0</ele><time>2026-04-11T08:21:43.001Z</time></trkpt><trkpt lat="43.29676116209416" lon="12.326865068225134"><ele>245.0</ele><time>2026-04-11T08:21:44.001Z</time></trkpt><trkpt lat="43.296929139727304" lon="12.326731770474115"><ele>245.0</ele><time>2026-04-11T08:21:45.001Z</time></trkpt><trkpt lat="43.29709632713564" lon="12.326598766142356"><ele>245.0</ele><time>2026-04-11T08:21:46.001Z</time></trkpt><trkpt lat="43.297261087002184" lon="12.32646751590667"><ele>245.0</ele><time>2026-04-11T08:21:47.001Z</time></trkpt><trkpt lat="43.29742219512687" lon="12.32634050290745"><ele>245.33333333333334</ele><time>2026-04-11T08:21:48.001Z</time></trkpt><trkpt lat="43.297582173559135" lon="12.32621387007476"><ele>245.66666666666669</ele><time>2026-04-11T08:21:49.001Z</time></trkpt><trkpt lat="43.29774286135103" lon="12.326084570288113"><ele>246.0</ele><time>2026-04-11T08:21:50.001Z</time></trkpt><trkpt lat="43.29790243485586" lon="12.325958829042717"><ele>246.0</ele><time>2026-04-11T08:21:51.001Z</time></trkpt><trkpt lat="43.29806498862741" lon="12.325830960013011"><ele>246.0</ele><time>2026-04-11T08:21:52.001Z</time></trkpt><trkpt lat="43.298229225847514" lon="12.325703899384484"><ele>246.0</ele><time>2026-04-11T08:21:53.001Z</time></trkpt><trkpt lat="43.29839431594259" lon="12.3255764551909"><ele>245.33333333333331</ele><time>2026-04-11T08:21:54.001Z</time></trkpt><trkpt lat="43.29855656106477" lon="12.325449672116608"><ele>244.66666666666666</ele><time>2026-04-11T08:21:55.001Z</time></trkpt><trkpt lat="43.298715234837616" lon="12.32532266779493"><ele>244.0</ele><time>2026-04-11T08:21:56.001Z</time></trkpt><trkpt lat="43.29887116420797" lon="12.325196266641012"><ele>243.0</ele><time>2026-04-11T08:21:57.001Z</time></trkpt><trkpt lat="43.29902827165336" lon="12.3250715903367"><ele>242.0</ele><time>2026-04-11T08:21:58.001Z</time></trkpt><trkpt lat="43.29919017597277" lon="12.3249482190252"><ele>241.0</ele><time>2026-04-11T08:21:59.001Z</time></trkpt><trkpt lat="43.29935269067418" lon="12.324822715129162"><ele>241.0</ele><time>2026-04-11T08:22:00.001Z</time></trkpt><trkpt lat="43.29951443424905" lon="12.324696426932803"><ele>241.0</ele><time>2026-04-11T08:22:01.001Z</time></trkpt><trkpt lat="43.29967745819384" lon="12.324570156324642"><ele>241.0</ele><time>2026-04-11T08:22:02.001Z</time></trkpt><trkpt lat="43.299835543322686" lon="12.324447911465171"><ele>241.66666666666666</ele><time>2026-04-11T08:22:03.001Z</time></trkpt><trkpt lat="43.29999200362174" lon="12.32432306535646"><ele>242.33333333333331</ele><time>2026-04-11T08:22:04.001Z</time></trkpt><trkpt lat="43.300147284416504" lon="12.3241978291652"><ele>243.0</ele><time>2026-04-11T08:22:05Z</time></trkpt><trkpt lat="43.300296550593735" lon="12.324078791398865"><ele>243.0</ele><time>2026-04-11T08:22:06Z</time></trkpt><trkpt lat="43.30044761648338" lon="12.323960629767482"><ele>243.0</ele><time>2026-04-11T08:22:07Z</time></trkpt><trkpt lat="43.300604962608894" lon="12.32384846746704"><ele>243.0</ele><time>2026-04-11T08:22:08Z</time></trkpt><trkpt lat="43.30076336498602" lon="12.323752458810977"><ele>245.33333333333331</ele><time>2026-04-11T08:22:09Z</time></trkpt><trkpt lat="43.300921351564206" lon="12.323665380925648"><ele>247.66666666666666</ele><time>2026-04-11T08:22:10Z</time></trkpt><trkpt lat="43.301081472960014" lon="12.323581659833959"><ele>250.0</ele><time>2026-04-11T08:22:11Z</time></trkpt><trkpt lat="43.301234682346895" lon="12.323505571297485"><ele>250.0</ele><time>2026-04-11T08:22:12Z</time></trkpt><trkpt lat="43.301395251101205" lon="12.323420570106402"><ele>250.0</ele><time>2026-04-11T08:22:13Z</time></trkpt><trkpt lat="43.30155769279957" lon="12.32333597574999"><ele>250.0</ele><time>2026-04-11T08:22:14Z</time></trkpt><trkpt lat="43.301718964835636" lon="12.323265470321598"><ele>248.66666666666666</ele><time>2026-04-11T08:22:15Z</time></trkpt><trkpt lat="43.30187641616702" lon="12.323199167778437"><ele>247.33333333333331</ele><time>2026-04-11T08:22:16Z</time></trkpt><trkpt lat="43.30202512815039" lon="12.32312327784193"><ele>246.0</ele><time>2026-04-11T08:22:17Z</time></trkpt><trkpt lat="43.30218540521001" lon="12.323104343845975"><ele>246.33333333333331</ele><time>2026-04-11T08:22:18Z</time></trkpt><trkpt lat="43.30234100310702" lon="12.32307318403001"><ele>246.66666666666666</ele><time>2026-04-11T08:22:19Z</time></trkpt><trkpt lat="43.302495725450974" lon="12.323042667705218"><ele>247.0</ele><time>2026-04-11T08:22:20Z</time></trkpt><trkpt lat="43.30264700173716" lon="12.323013451365181"><ele>247.0</ele><time>2026-04-11T08:22:21Z</time></trkpt><trkpt lat="43.3027967720881" lon="12.32298525467481"><ele>247.0</ele><time>2026-04-11T08:22:22Z</time></trkpt><trkpt lat="43.3029361419389" lon="12.322949456451807"><ele>247.0</ele><time>2026-04-11T08:22:23Z</time></trkpt><trkpt lat="43.3030755578511" lon="12.322960051698661"><ele>247.0</ele><time>2026-04-11T08:22:24Z</time></trkpt><trkpt lat="43.30321205534224" lon="12.32297724961461"><ele>245.25</ele><time>2026-04-11T08:22:25Z</time></trkpt><trkpt lat="43.30334883861878" lon="12.323000670117867"><ele>243.5</ele><time>2026-04-11T08:22:26Z</time></trkpt><trkpt lat="43.303481252289906" lon="12.323058044613607"><ele>241.75</ele><time>2026-04-11T08:22:27Z</time></trkpt><trkpt lat="43.303612021907156" lon="12.323092728682056"><ele>240.0</ele><time>2026-04-11T08:22:28Z</time></trkpt><trkpt lat="43.303743986947254" lon="12.323126048770213"><ele>240.0</ele><time>2026-04-11T08:22:29Z</time></trkpt><trkpt lat="43.30387229441522" lon="12.323156568668967"><ele>240.0</ele><time>2026-04-11T08:22:30Z</time></trkpt><trkpt lat="43.303995259295355" lon="12.323185495515347"><ele>240.0</ele><time>2026-04-11T08:22:31Z</time></trkpt><trkpt lat="43.304119157445506" lon="12.323214641949129"><ele>240.0</ele><time>2026-04-11T08:22:32Z</time></trkpt><trkpt lat="43.30424624680142" lon="12.32324777109606"><ele>239.75</ele><time>2026-04-11T08:22:33Z</time></trkpt><trkpt lat="43.30437475891629" lon="12.323282117502393"><ele>239.5</ele><time>2026-04-11T08:22:34Z</time></trkpt><trkpt lat="43.304499297882316" lon="12.32331646938493"><ele>239.25</ele><time>2026-04-11T08:22:35Z</time></trkpt><trkpt lat="43.304621141373296" lon="12.32334650420404"><ele>239.0</ele><time>2026-04-11T08:22:36Z</time></trkpt><trkpt lat="43.3047382514198" lon="12.323372839921111"><ele>239.0</ele><time>2026-04-11T08:22:37Z</time></trkpt><trkpt lat="43.304859623639956" lon="12.323382008593985"><ele>238.99999999999997</ele><time>2026-04-11T08:22:38Z</time></trkpt><trkpt lat="43.30497173533432" lon="12.323416883066631"><ele>238.99999999999997</ele><time>2026-04-11T08:22:39Z</time></trkpt><trkpt lat="43.3050826489923" lon="12.323437228343003"><ele>239.0</ele><time>2026-04-11T08:22:40Z</time></trkpt><trkpt lat="43.3051818529028" lon="12.323460234893798"><ele>239.0</ele><time>2026-04-11T08:22:41Z</time></trkpt><trkpt lat="43.30525861706533" lon="12.323476328253737"><ele>239.00000000000003</ele><time>2026-04-11T08:22:42Z</time></trkpt><trkpt lat="43.305369861900374" lon="12.323481933264166"><ele>239.0</ele><time>2026-04-11T08:22:44Z</time></trkpt><trkpt lat="43.3054477424018" lon="12.323502812176402"><ele>239.0</ele><time>2026-04-11T08:22:46Z</time></trkpt><trkpt lat="43.30549616837813" lon="12.323564339238585"><ele>239.0</ele><time>2026-04-11T08:22:49Z</time></trkpt><trkpt lat="43.30549648177511" lon="12.323676309674019"><ele>239.00000000000003</ele><time>2026-04-11T08:22:51Z</time></trkpt><trkpt lat="43.30550465879586" lon="12.323774885283203"><ele>239.0</ele><time>2026-04-11T08:22:54Z</time></trkpt><trkpt lat="43.3055907487288" lon="12.323805431302254"><ele>239.39999999999998</ele><time>2026-04-11T08:22:56Z</time></trkpt><trkpt lat="43.30567004502532" lon="12.323774426877401"><ele>239.79999999999998</ele><time>2026-04-11T08:22:58Z</time></trkpt><trkpt lat="43.30565943537724" lon="12.323564554002902"><ele>240.20000000000002</ele><time>2026-04-11T08:23:01Z</time></trkpt><trkpt lat="43.3056387236601" lon="12.32344285188689"><ele>240.60000000000002</ele><time>2026-04-11T08:23:35Z</time></trkpt><trkpt lat="43.305656228550674" lon="12.323358142682439"><ele>241.0</ele><time>2026-04-11T08:23:37Z</time></trkpt><trkpt lat="43.30559313816662" lon="12.323298837095134"><ele>241.0</ele><time>2026-04-11T08:23:38Z</time></trkpt><trkpt lat="43.30559998248033" lon="12.32320379776225"><ele>241.00000000000003</ele><time>2026-04-11T08:23:39.001Z</time></trkpt><trkpt lat="43.30557060431363" lon="12.323123459405947"><ele>241.0</ele><time>2026-04-11T08:23:40.001Z</time></trkpt><trkpt lat="43.30551368322599" lon="12.323044872160073"><ele>241.0</ele><time>2026-04-11T08:23:41.001Z</time></trkpt><trkpt lat="43.30550141643326" lon="12.322936043159428"><ele>241.00000000000003</ele><time>2026-04-11T08:23:42.001Z</time></trkpt><trkpt lat="43.3055019827608" lon="12.322832751423283"><ele>241.0</ele><time>2026-04-11T08:23:43.001Z</time></trkpt><trkpt lat="43.305503889081194" lon="12.32273814104119"><ele>241.0</ele><time>2026-04-11T08:23:44.001Z</time></trkpt><trkpt lat="43.30551674150916" lon="12.322601194020491"><ele>240.99999999999997</ele><time>2026-04-11T08:23:46.001Z</time></trkpt><trkpt lat="43.305570352571785" lon="12.322529152589553"><ele>241.0</ele><time>2026-04-11T08:23:48.001Z</time></trkpt><trkpt lat="43.30563562804459" lon="12.322500730046967"><ele>241.0</ele><time>2026-04-11T08:23:50.001Z</time></trkpt><trkpt lat="43.30557057685636" lon="12.322501358284319"><ele>241.0</ele><time>2026-04-11T08:23:51.001Z</time></trkpt><trkpt lat="43.305669077619896" lon="12.322504732591906"><ele>240.99999999999997</ele><time>2026-04-11T08:23:56.001Z</time></trkpt><trkpt lat="43.30556071194337" lon="12.322516082513248"><ele>241.0</ele><time>2026-04-11T08:24:02.001Z</time></trkpt><trkpt lat="43.3056734314001" lon="12.322519937926096"><ele>241.0</ele><time>2026-04-11T08:24:28Z</time></trkpt><trkpt lat="43.305560777713545" lon="12.322519950981997"><ele>241.00000000000003</ele><time>2026-04-11T08:24:33Z</time></trkpt><trkpt lat="43.3056706811988" lon="12.322516085793087"><ele>241.00000000000003</ele><time>2026-04-11T08:24:39Z</time></trkpt><trkpt lat="43.305560771582144" lon="12.32251959072466"><ele>241.0</ele><time>2026-04-11T08:24:44Z</time></trkpt><trkpt lat="43.3056706811988" lon="12.322516085793087"><ele>241.0</ele><time>2026-04-11T08:25:29Z</time></trkpt><trkpt lat="43.30556077158111" lon="12.322519590724694"><ele>241.0</ele><time>2026-04-11T08:25:33Z</time></trkpt><trkpt lat="43.3056706811988" lon="12.322516085793087"><ele>241.00000000000003</ele><time>2026-04-11T08:27:06Z</time></trkpt><trkpt lat="43.305551886013944" lon="12.322517537281684"><ele>241.00000000000003</ele><time>2026-04-11T08:46:06Z</time></trkpt><trkpt lat="43.30548285889552" lon="12.322562895145978"><ele>241.0</ele><time>2026-04-11T08:46:09Z</time></trkpt><trkpt lat="43.30547977476106" lon="12.32266418702318"><ele>241.0</ele><time>2026-04-11T08:46:11Z</time></trkpt><trkpt lat="43.305478282671274" lon="12.322790454313598"><ele>240.83333333333331</ele><time>2026-04-11T08:46:13Z</time></trkpt><trkpt lat="43.30547176093693" lon="12.32290699352459"><ele>240.66666666666666</ele><time>2026-04-11T08:46:14Z</time></trkpt><trkpt lat="43.305474981642995" lon="12.323003362439167"><ele>240.5</ele><time>2026-04-11T08:46:15Z</time></trkpt><trkpt lat="43.305477241702974" lon="12.323110633779118"><ele>240.33333333333331</ele><time>2026-04-11T08:46:16Z</time></trkpt><trkpt lat="43.30547743193365" lon="12.323231820995998"><ele>240.16666666666666</ele><time>2026-04-11T08:46:17Z</time></trkpt><trkpt lat="43.305478829525995" lon="12.323345705324446"><ele>240.0</ele><time>2026-04-11T08:46:18Z</time></trkpt><trkpt lat="43.30548096566468" lon="12.323459635729444"><ele>239.83333333333334</ele><time>2026-04-11T08:46:19Z</time></trkpt><trkpt lat="43.30548370803116" lon="12.323577439982564"><ele>239.66666666666669</ele><time>2026-04-11T08:46:20Z</time></trkpt><trkpt lat="43.305485207965845" lon="12.323696297459827"><ele>239.5</ele><time>2026-04-11T08:46:21Z</time></trkpt><trkpt lat="43.30548875942055" lon="12.3238164334291"><ele>239.33333333333334</ele><time>2026-04-11T08:46:22Z</time></trkpt><trkpt lat="43.305493125338536" lon="12.323928143384341"><ele>239.16666666666669</ele><time>2026-04-11T08:46:23Z</time></trkpt><trkpt lat="43.30549576234672" lon="12.324050096490613"><ele>239.0</ele><time>2026-04-11T08:46:24Z</time></trkpt><trkpt lat="43.30549458067827" lon="12.324187806257752"><ele>238.79999999999998</ele><time>2026-04-11T08:46:25Z</time></trkpt><trkpt lat="43.30549454331876" lon="12.324340405360958"><ele>238.59999999999997</ele><time>2026-04-11T08:46:26Z</time></trkpt><trkpt lat="43.30549958404438" lon="12.324478963873927"><ele>238.4</ele><time>2026-04-11T08:46:27Z</time></trkpt><trkpt lat="43.305503993448674" lon="12.324609171715709"><ele>238.2</ele><time>2026-04-11T08:46:28Z</time></trkpt><trkpt lat="43.30550855435219" lon="12.324746724525843"><ele>238.0</ele><time>2026-04-11T08:46:29Z</time></trkpt><trkpt lat="43.3055162167489" lon="12.324887516071527"><ele>238.0</ele><time>2026-04-11T08:46:30Z</time></trkpt><trkpt lat="43.30552405997664" lon="12.325032295283801"><ele>238.0</ele><time>2026-04-11T08:46:31Z</time></trkpt><trkpt lat="43.305528391685236" lon="12.325174904796329"><ele>238.0</ele><time>2026-04-11T08:46:32Z</time></trkpt><trkpt lat="43.30553449991214" lon="12.32531996234511"><ele>238.0</ele><time>2026-04-11T08:46:33Z</time></trkpt><trkpt lat="43.305540270933555" lon="12.325462177393666"><ele>238.0</ele><time>2026-04-11T08:46:34Z</time></trkpt><trkpt lat="43.30554785470839" lon="12.325594651126925"><ele>238.0</ele><time>2026-04-11T08:46:35Z</time></trkpt><trkpt lat="43.30555241058465" lon="12.32572000814578"><ele>238.0</ele><time>2026-04-11T08:46:36Z</time></trkpt><trkpt lat="43.305557978606316" lon="12.325845915933321"><ele>238.0</ele><time>2026-04-11T08:46:37Z</time></trkpt><trkpt lat="43.30556440535386" lon="12.325980119677588"><ele>238.0</ele><time>2026-04-11T08:46:38Z</time></trkpt><trkpt lat="43.305569942467706" lon="12.32611700986016"><ele>238.0</ele><time>2026-04-11T08:46:39Z</time></trkpt><trkpt lat="43.30557500469644" lon="12.326251880249957"><ele>238.2</ele><time>2026-04-11T08:46:40Z</time></trkpt><trkpt lat="43.305580468011065" lon="12.32638599351205"><ele>238.4</ele><time>2026-04-11T08:46:41Z</time></trkpt><trkpt lat="43.305586767007696" lon="12.326522912640103"><ele>238.59999999999997</ele><time>2026-04-11T08:46:42Z</time></trkpt><trkpt lat="43.305587369212816" lon="12.326659004562732"><ele>238.79999999999998</ele><time>2026-04-11T08:46:43Z</time></trkpt><trkpt lat="43.30559045626851" lon="12.326796374459288"><ele>239.0</ele><time>2026-04-11T08:46:44Z</time></trkpt><trkpt lat="43.305583669047614" lon="12.326936782617414"><ele>240.39999999999998</ele><time>2026-04-11T08:46:45Z</time></trkpt><trkpt lat="43.30558306419558" lon="12.327083705520343"><ele>241.79999999999998</ele><time>2026-04-11T08:46:46Z</time></trkpt><trkpt lat="43.305580092098" lon="12.327225674106803"><ele>243.20000000000002</ele><time>2026-04-11T08:46:47Z</time></trkpt><trkpt lat="43.30557798054144" lon="12.327356619075676"><ele>244.60000000000002</ele><time>2026-04-11T08:46:48Z</time></trkpt><trkpt lat="43.30557648341728" lon="12.327484084213589"><ele>246.0</ele><time>2026-04-11T08:46:49Z</time></trkpt><trkpt lat="43.3055730528542" lon="12.32760267631133"><ele>246.0</ele><time>2026-04-11T08:46:50Z</time></trkpt><trkpt lat="43.30556770849893" lon="12.327714505745002"><ele>246.00000000000003</ele><time>2026-04-11T08:46:51Z</time></trkpt><trkpt lat="43.30556035979475" lon="12.327829193985881"><ele>246.00000000000003</ele><time>2026-04-11T08:46:52Z</time></trkpt><trkpt lat="43.305547992982994" lon="12.327947824694327"><ele>246.0</ele><time>2026-04-11T08:46:53Z</time></trkpt><trkpt lat="43.305530407628474" lon="12.328077450985468"><ele>246.0</ele><time>2026-04-11T08:46:54Z</time></trkpt><trkpt lat="43.30552114768621" lon="12.32821822630647"><ele>246.20000000000002</ele><time>2026-04-11T08:46:55Z</time></trkpt><trkpt lat="43.30552570781958" lon="12.328355911583412"><ele>246.40000000000003</ele><time>2026-04-11T08:46:56Z</time></trkpt><trkpt lat="43.30553796812449" lon="12.32848464814906"><ele>246.6</ele><time>2026-04-11T08:46:57Z</time></trkpt><trkpt lat="43.30555612790014" lon="12.328616907161413"><ele>246.8</ele><time>2026-04-11T08:46:58Z</time></trkpt><trkpt lat="43.30557658220004" lon="12.32873985887146"><ele>247.0</ele><time>2026-04-11T08:46:59Z</time></trkpt><trkpt lat="43.30558991838852" lon="12.328858646353291"><ele>247.0</ele><time>2026-04-11T08:47:00Z</time></trkpt><trkpt lat="43.30557358254604" lon="12.328978655720821"><ele>247.0</ele><time>2026-04-11T08:47:01Z</time></trkpt><trkpt lat="43.3055525440334" lon="12.329091130022732"><ele>247.0</ele><time>2026-04-11T08:47:02Z</time></trkpt><trkpt lat="43.30547880194883" lon="12.329186023939377"><ele>247.0</ele><time>2026-04-11T08:47:03Z</time></trkpt><trkpt lat="43.305411481694364" lon="12.329283108293525"><ele>247.0</ele><time>2026-04-11T08:47:04Z</time></trkpt><trkpt lat="43.305351389807804" lon="12.329374617871556"><ele>246.99999999999997</ele><time>2026-04-11T08:47:05Z</time></trkpt><trkpt lat="43.30529599764681" lon="12.329467607427304"><ele>247.0</ele><time>2026-04-11T08:47:06Z</time></trkpt><trkpt lat="43.305241279180606" lon="12.329559947713545"><ele>247.0</ele><time>2026-04-11T08:47:07Z</time></trkpt><trkpt lat="43.30518511787111" lon="12.329652502211385"><ele>247.0</ele><time>2026-04-11T08:47:08Z</time></trkpt><trkpt lat="43.30512955320174" lon="12.329745163994817"><ele>246.99999999999997</ele><time>2026-04-11T08:47:09Z</time></trkpt><trkpt lat="43.30507298803308" lon="12.329843945667006"><ele>247.0</ele><time>2026-04-11T08:47:10Z</time></trkpt><trkpt lat="43.30501927834579" lon="12.32993426947327"><ele>246.99999999999997</ele><time>2026-04-11T08:47:11Z</time></trkpt><trkpt lat="43.304961217835086" lon="12.330019679716992"><ele>247.0</ele><time>2026-04-11T08:47:12Z</time></trkpt><trkpt lat="43.30490515449751" lon="12.330104895119339"><ele>247.0</ele><time>2026-04-11T08:47:13Z</time></trkpt><trkpt lat="43.304851458171804" lon="12.330190969370237"><ele>247.0</ele><time>2026-04-11T08:47:14Z</time></trkpt><trkpt lat="43.304804955102554" lon="12.330270082084434"><ele>246.99999999999997</ele><time>2026-04-11T08:47:15Z</time></trkpt><trkpt lat="43.3047616440903" lon="12.330336126942559"><ele>247.0</ele><time>2026-04-11T08:47:16Z</time></trkpt><trkpt lat="43.30469254820603" lon="12.330452835568494"><ele>246.6</ele><time>2026-04-11T08:47:17.999Z</time></trkpt><trkpt lat="43.30463692414638" lon="12.330545483727569"><ele>246.2</ele><time>2026-04-11T08:47:19.999Z</time></trkpt><trkpt lat="43.30457418664921" lon="12.330648371870023"><ele>245.8</ele><time>2026-04-11T08:47:21.999Z</time></trkpt><trkpt lat="43.30449873946531" lon="12.330756273249932"><ele>245.4</ele><time>2026-04-11T08:47:23.999Z</time></trkpt><trkpt lat="43.30442711667692" lon="12.330857363310388"><ele>245.0</ele><time>2026-04-11T08:47:25.999Z</time></trkpt><trkpt lat="43.30436523551797" lon="12.330991012669376"><ele>245.00000000000003</ele><time>2026-04-11T08:47:27.999Z</time></trkpt><trkpt lat="43.30432531937827" lon="12.33106463909681"><ele>245.0</ele><time>2026-04-11T08:47:28.999Z</time></trkpt><trkpt lat="43.30427289883159" lon="12.331140102950728"><ele>245.0</ele><time>2026-04-11T08:47:29.999Z</time></trkpt><trkpt lat="43.30421325364265" lon="12.33122072427736"><ele>245.0</ele><time>2026-04-11T08:47:30.999Z</time></trkpt><trkpt lat="43.30414897964876" lon="12.331311867481649"><ele>245.00000000000003</ele><time>2026-04-11T08:47:31.999Z</time></trkpt><trkpt lat="43.30408871105994" lon="12.331408188946352"><ele>245.0</ele><time>2026-04-11T08:47:32.999Z</time></trkpt><trkpt lat="43.304021830961844" lon="12.331526261966903"><ele>245.0</ele><time>2026-04-11T08:47:33.999Z</time></trkpt><trkpt lat="43.30394478877269" lon="12.331654490218598"><ele>245.0</ele><time>2026-04-11T08:47:34.999Z</time></trkpt><trkpt lat="43.303862302779066" lon="12.331790079897232"><ele>245.0</ele><time>2026-04-11T08:47:35.999Z</time></trkpt><trkpt lat="43.30378397794487" lon="12.331918729697412"><ele>245.0</ele><time>2026-04-11T08:47:36.999Z</time></trkpt><trkpt lat="43.30370505440837" lon="12.332039806179175"><ele>245.0</ele><time>2026-04-11T08:47:37.999Z</time></trkpt><trkpt lat="43.303624532670035" lon="12.332162970294231"><ele>245.0</ele><time>2026-04-11T08:47:38.999Z</time></trkpt><trkpt lat="43.30354296958895" lon="12.332295045571065"><ele>245.0</ele><time>2026-04-11T08:47:40Z</time></trkpt><trkpt lat="43.30345843615705" lon="12.332433213233"><ele>245.0</ele><time>2026-04-11T08:47:41Z</time></trkpt><trkpt lat="43.303371447751196" lon="12.332576395577412"><ele>245.0</ele><time>2026-04-11T08:47:42Z</time></trkpt><trkpt lat="43.30328182797714" lon="12.332728356996641"><ele>245.0</ele><time>2026-04-11T08:47:43Z</time></trkpt><trkpt lat="43.30319005891712" lon="12.332880450242875"><ele>245.0</ele><time>2026-04-11T08:47:44Z</time></trkpt><trkpt lat="43.30310156766959" lon="12.333019415233148"><ele>245.0</ele><time>2026-04-11T08:47:45Z</time></trkpt><trkpt lat="43.30301245391467" lon="12.333158643646085"><ele>244.75</ele><time>2026-04-11T08:47:46Z</time></trkpt><trkpt lat="43.30291998401669" lon="12.333300917539638"><ele>244.5</ele><time>2026-04-11T08:47:47Z</time></trkpt><trkpt lat="43.302832907990236" lon="12.333445261942872"><ele>244.25</ele><time>2026-04-11T08:47:48Z</time></trkpt><trkpt lat="43.30274625295033" lon="12.333591023413268"><ele>244.0</ele><time>2026-04-11T08:47:49Z</time></trkpt><trkpt lat="43.302655956733844" lon="12.333739086662181"><ele>244.0</ele><time>2026-04-11T08:47:50Z</time></trkpt><trkpt lat="43.30256619063474" lon="12.333884623725092"><ele>244.0</ele><time>2026-04-11T08:47:51Z</time></trkpt><trkpt lat="43.30247864885236" lon="12.334030334498193"><ele>244.0</ele><time>2026-04-11T08:47:52Z</time></trkpt><trkpt lat="43.302387095690506" lon="12.334179306708803"><ele>244.0</ele><time>2026-04-11T08:47:53Z</time></trkpt><trkpt lat="43.30229559127196" lon="12.334328345307288"><ele>244.0</ele><time>2026-04-11T08:47:54Z</time></trkpt><trkpt lat="43.30220861633621" lon="12.334473105977535"><ele>244.0</ele><time>2026-04-11T08:47:55Z</time></trkpt><trkpt lat="43.30212054035096" lon="12.334612136360539"><ele>244.0</ele><time>2026-04-11T08:47:56Z</time></trkpt><trkpt lat="43.30203639864982" lon="12.334747828697555"><ele>244.0</ele><time>2026-04-11T08:47:57Z</time></trkpt><trkpt lat="43.30194956254195" lon="12.334886879067719"><ele>244.0</ele><time>2026-04-11T08:47:58Z</time></trkpt><trkpt lat="43.30186443222175" lon="12.335028756958978"><ele>244.0</ele><time>2026-04-11T08:47:59Z</time></trkpt><trkpt lat="43.30177650159885" lon="12.335175442034732"><ele>244.0</ele><time>2026-04-11T08:48:00Z</time></trkpt><trkpt lat="43.301688296739826" lon="12.335328021360484"><ele>244.0</ele><time>2026-04-11T08:48:01Z</time></trkpt><trkpt lat="43.30160270855733" lon="12.335489845046272"><ele>244.25</ele><time>2026-04-11T08:48:02Z</time></trkpt><trkpt lat="43.30152265828306" lon="12.335649944895623"><ele>244.5</ele><time>2026-04-11T08:48:03Z</time></trkpt><trkpt lat="43.30144316807093" lon="12.335798493691573"><ele>244.75</ele><time>2026-04-11T08:48:04Z</time></trkpt><trkpt lat="43.30136180016753" lon="12.335934789094976"><ele>245.0</ele><time>2026-04-11T08:48:05Z</time></trkpt><trkpt lat="43.30128210761642" lon="12.3360531966294"><ele>244.25</ele><time>2026-04-11T08:48:06Z</time></trkpt><trkpt lat="43.301208818426176" lon="12.33615486943312"><ele>243.5</ele><time>2026-04-11T08:48:07Z</time></trkpt><trkpt lat="43.30112808155991" lon="12.336254568150256"><ele>242.75</ele><time>2026-04-11T08:48:08Z</time></trkpt><trkpt lat="43.301043798876734" lon="12.336366620473997"><ele>242.0</ele><time>2026-04-11T08:48:09Z</time></trkpt><trkpt lat="43.30096574000918" lon="12.336515571009006"><ele>242.0</ele><time>2026-04-11T08:48:10Z</time></trkpt><trkpt lat="43.30088259035336" lon="12.336677157809502"><ele>242.0</ele><time>2026-04-11T08:48:11Z</time></trkpt><trkpt lat="43.300769828902176" lon="12.336832645166584"><ele>242.0</ele><time>2026-04-11T08:48:12Z</time></trkpt><trkpt lat="43.3006478139195" lon="12.337006557134043"><ele>242.0</ele><time>2026-04-11T08:48:13Z</time></trkpt><trkpt lat="43.30054779051888" lon="12.337184789132575"><ele>242.0</ele><time>2026-04-11T08:48:14Z</time></trkpt><trkpt lat="43.30044225085339" lon="12.337350816206964"><ele>242.0</ele><time>2026-04-11T08:48:15Z</time></trkpt><trkpt lat="43.3003340191708" lon="12.337521706152769"><ele>242.0</ele><time>2026-04-11T08:48:16Z</time></trkpt><trkpt lat="43.300226937757714" lon="12.337690715411146"><ele>242.0</ele><time>2026-04-11T08:48:17Z</time></trkpt><trkpt lat="43.30012327941391" lon="12.337857545271286"><ele>242.0</ele><time>2026-04-11T08:48:18Z</time></trkpt><trkpt lat="43.30001954375294" lon="12.338025730579163"><ele>242.66666666666669</ele><time>2026-04-11T08:48:19Z</time></trkpt><trkpt lat="43.29991703806195" lon="12.338194647465492"><ele>243.33333333333331</ele><time>2026-04-11T08:48:20Z</time></trkpt><trkpt lat="43.299820233089065" lon="12.338355845612055"><ele>244.0</ele><time>2026-04-11T08:48:21Z</time></trkpt><trkpt lat="43.299725951720895" lon="12.338509903998748"><ele>243.0</ele><time>2026-04-11T08:48:22Z</time></trkpt><trkpt lat="43.2996335133558" lon="12.338658841051293"><ele>242.0</ele><time>2026-04-11T08:48:23Z</time></trkpt><trkpt lat="43.29954563676512" lon="12.33880305404459"><ele>241.0</ele><time>2026-04-11T08:48:24Z</time></trkpt><trkpt lat="43.29946029759783" lon="12.338943251567956"><ele>240.0</ele><time>2026-04-11T08:48:25Z</time></trkpt><trkpt lat="43.29938746471759" lon="12.339062915558236"><ele>239.83333333333334</ele><time>2026-04-11T08:48:26Z</time></trkpt><trkpt lat="43.299344944301275" lon="12.339135536178597"><ele>239.66666666666669</ele><time>2026-04-11T08:48:27Z</time></trkpt><trkpt lat="43.29929226594181" lon="12.339221519993654"><ele>239.5</ele><time>2026-04-11T08:48:29Z</time></trkpt><trkpt lat="43.299260441771494" lon="12.339311426732587"><ele>239.33333333333334</ele><time>2026-04-11T08:48:31Z</time></trkpt><trkpt lat="43.299205143120076" lon="12.33943301080175"><ele>239.16666666666669</ele><time>2026-04-11T08:48:33Z</time></trkpt><trkpt lat="43.29918146614937" lon="12.339517085901498"><ele>239.0</ele><time>2026-04-11T08:48:34Z</time></trkpt><trkpt lat="43.299092905547" lon="12.339571282780831"><ele>239.0</ele><time>2026-04-11T08:48:35Z</time></trkpt><trkpt lat="43.29903720745294" lon="12.339655434532265"><ele>238.99999999999997</ele><time>2026-04-11T08:48:36Z</time></trkpt><trkpt lat="43.29897654985657" lon="12.339751515198026"><ele>238.99999999999997</ele><time>2026-04-11T08:48:37Z</time></trkpt><trkpt lat="43.29890783891193" lon="12.339864292733019"><ele>239.0</ele><time>2026-04-11T08:48:38Z</time></trkpt><trkpt lat="43.29882543936687" lon="12.340004311805913"><ele>239.0</ele><time>2026-04-11T08:48:39Z</time></trkpt><trkpt lat="43.29873062788773" lon="12.340161048961875"><ele>239.0</ele><time>2026-04-11T08:48:40Z</time></trkpt><trkpt lat="43.29863169215374" lon="12.340327710271772"><ele>239.0</ele><time>2026-04-11T08:48:41Z</time></trkpt><trkpt lat="43.298533130316954" lon="12.340501168188485"><ele>239.0</ele><time>2026-04-11T08:48:42Z</time></trkpt><trkpt lat="43.29842640499943" lon="12.340691503191497"><ele>239.33333333333334</ele><time>2026-04-11T08:48:43Z</time></trkpt><trkpt lat="43.2983092404342" lon="12.340888001747574"><ele>239.66666666666669</ele><time>2026-04-11T08:48:44Z</time></trkpt><trkpt lat="43.298185651861495" lon="12.341086048994304"><ele>240.0</ele><time>2026-04-11T08:48:45Z</time></trkpt><trkpt lat="43.29805722143562" lon="12.341284887662374"><ele>239.66666666666669</ele><time>2026-04-11T08:48:46Z</time></trkpt><trkpt lat="43.29792383802206" lon="12.34148618232923"><ele>239.33333333333334</ele><time>2026-04-11T08:48:47Z</time></trkpt><trkpt lat="43.29778941653979" lon="12.341695391334122"><ele>239.0</ele><time>2026-04-11T08:48:48Z</time></trkpt><trkpt lat="43.2976452516505" lon="12.341939301515309"><ele>239.0</ele><time>2026-04-11T08:48:49Z</time></trkpt><trkpt lat="43.29749435260716" lon="12.342198459109662"><ele>239.0</ele><time>2026-04-11T08:48:50Z</time></trkpt><trkpt lat="43.297330961715254" lon="12.34246434548823"><ele>238.5</ele><time>2026-04-11T08:48:51Z</time></trkpt><trkpt lat="43.297162420281126" lon="12.342720186400877"><ele>238.0</ele><time>2026-04-11T08:48:52Z</time></trkpt><trkpt lat="43.296995653861" lon="12.342980124722677"><ele>239.0</ele><time>2026-04-11T08:48:53Z</time></trkpt><trkpt lat="43.29683629752181" lon="12.343241125154625"><ele>240.0</ele><time>2026-04-11T08:48:54Z</time></trkpt><trkpt lat="43.296684795225545" lon="12.34348912296031"><ele>240.0</ele><time>2026-04-11T08:48:55Z</time></trkpt><trkpt lat="43.29654232053996" lon="12.343719516349024"><ele>240.0</ele><time>2026-04-11T08:48:56Z</time></trkpt><trkpt lat="43.29640699585102" lon="12.343938061495441"><ele>240.0</ele><time>2026-04-11T08:48:57Z</time></trkpt><trkpt lat="43.296275256014404" lon="12.344151736313231"><ele>240.0</ele><time>2026-04-11T08:48:58Z</time></trkpt><trkpt lat="43.29614567946109" lon="12.344366397719023"><ele>240.0</ele><time>2026-04-11T08:48:59Z</time></trkpt><trkpt lat="43.296017476541536" lon="12.344577833000189"><ele>240.0</ele><time>2026-04-11T08:49:00Z</time></trkpt><trkpt lat="43.295891176073546" lon="12.344786901538503"><ele>239.66666666666669</ele><time>2026-04-11T08:49:01Z</time></trkpt><trkpt lat="43.29576558930381" lon="12.344994872172897"><ele>239.33333333333334</ele><time>2026-04-11T08:49:02Z</time></trkpt><trkpt lat="43.29564127799012" lon="12.34519765622596"><ele>239.0</ele><time>2026-04-11T08:49:03Z</time></trkpt><trkpt lat="43.29552102527615" lon="12.34539401148608"><ele>239.66666666666669</ele><time>2026-04-11T08:49:04Z</time></trkpt><trkpt lat="43.29540500487233" lon="12.345583489765602"><ele>240.33333333333331</ele><time>2026-04-11T08:49:05Z</time></trkpt><trkpt lat="43.29529341979277" lon="12.345773130207546"><ele>241.0</ele><time>2026-04-11T08:49:06Z</time></trkpt><trkpt lat="43.29517950149514" lon="12.345960497562174"><ele>241.0</ele><time>2026-04-11T08:49:07Z</time></trkpt><trkpt lat="43.29507010640166" lon="12.34615606498537"><ele>241.0</ele><time>2026-04-11T08:49:08Z</time></trkpt><trkpt lat="43.29495742648983" lon="12.346351473526624"><ele>241.0</ele><time>2026-04-11T08:49:09Z</time></trkpt><trkpt lat="43.29483198235632" lon="12.34653891436047"><ele>240.66666666666666</ele><time>2026-04-11T08:49:10Z</time></trkpt><trkpt lat="43.29470328022401" lon="12.346726112345584"><ele>240.33333333333331</ele><time>2026-04-11T08:49:11Z</time></trkpt><trkpt lat="43.294582514766034" lon="12.346922629845023"><ele>240.0</ele><time>2026-04-11T08:49:12Z</time></trkpt><trkpt lat="43.294466650700244" lon="12.347110006014844"><ele>239.0</ele><time>2026-04-11T08:49:13Z</time></trkpt><trkpt lat="43.29435773959178" lon="12.34728677283829"><ele>238.0</ele><time>2026-04-11T08:49:14Z</time></trkpt><trkpt lat="43.294254526755985" lon="12.347459371783673"><ele>237.0</ele><time>2026-04-11T08:49:15Z</time></trkpt><trkpt lat="43.29415434800472" lon="12.347627817322776"><ele>237.0</ele><time>2026-04-11T08:49:16Z</time></trkpt><trkpt lat="43.294048102496106" lon="12.347800372701213"><ele>237.0</ele><time>2026-04-11T08:49:17Z</time></trkpt><trkpt lat="43.29393989994698" lon="12.347972234582931"><ele>237.0</ele><time>2026-04-11T08:49:18Z</time></trkpt><trkpt lat="43.29383040408933" lon="12.348147576313808"><ele>237.66666666666669</ele><time>2026-04-11T08:49:19Z</time></trkpt><trkpt lat="43.29372032345284" lon="12.348328994779102"><ele>238.33333333333334</ele><time>2026-04-11T08:49:20Z</time></trkpt><trkpt lat="43.29360930059106" lon="12.34851244444722"><ele>239.0</ele><time>2026-04-11T08:49:21Z</time></trkpt><trkpt lat="43.29349579013242" lon="12.34869697882212"><ele>239.33333333333334</ele><time>2026-04-11T08:49:22Z</time></trkpt><trkpt lat="43.29338058580905" lon="12.348883663545845"><ele>239.66666666666669</ele><time>2026-04-11T08:49:22.999Z</time></trkpt><trkpt lat="43.293264902603475" lon="12.349070005214099"><ele>240.0</ele><time>2026-04-11T08:49:23.999Z</time></trkpt><trkpt lat="43.29314908914773" lon="12.349253948457156"><ele>238.66666666666669</ele><time>2026-04-11T08:49:24.999Z</time></trkpt><trkpt lat="43.29303291011707" lon="12.349438228777617"><ele>237.33333333333334</ele><time>2026-04-11T08:49:25.999Z</time></trkpt><trkpt lat="43.29291635822055" lon="12.349623138520714"><ele>236.0</ele><time>2026-04-11T08:49:26.999Z</time></trkpt><trkpt lat="43.29280225337756" lon="12.349807472906976"><ele>236.0</ele><time>2026-04-11T08:49:27.999Z</time></trkpt><trkpt lat="43.29268994468205" lon="12.349997657094233"><ele>236.0</ele><time>2026-04-11T08:49:28.999Z</time></trkpt><trkpt lat="43.29257553944329" lon="12.350186934839913"><ele>236.0</ele><time>2026-04-11T08:49:29.999Z</time></trkpt><trkpt lat="43.29245664227317" lon="12.35037836807025"><ele>236.33333333333334</ele><time>2026-04-11T08:49:30.999Z</time></trkpt><trkpt lat="43.29233797091413" lon="12.350571716621264"><ele>236.66666666666669</ele><time>2026-04-11T08:49:31.999Z</time></trkpt><trkpt lat="43.292219783773305" lon="12.350764881862935"><ele>237.0</ele><time>2026-04-11T08:49:32.999Z</time></trkpt><trkpt lat="43.292102625485974" lon="12.350955942189614"><ele>236.0</ele><time>2026-04-11T08:49:33.999Z</time></trkpt><trkpt lat="43.29198630421696" lon="12.351146730956852"><ele>235.0</ele><time>2026-04-11T08:49:34.999Z</time></trkpt><trkpt lat="43.29186792890612" lon="12.351337138956904"><ele>234.0</ele><time>2026-04-11T08:49:35.999Z</time></trkpt><trkpt lat="43.29175006295852" lon="12.351525973053068"><ele>234.0</ele><time>2026-04-11T08:49:36.999Z</time></trkpt><trkpt lat="43.291635778656314" lon="12.35171409881084"><ele>234.0</ele><time>2026-04-11T08:49:37.999Z</time></trkpt><trkpt lat="43.29152375870349" lon="12.35189894358327"><ele>234.0</ele><time>2026-04-11T08:49:39Z</time></trkpt><trkpt lat="43.291412751552876" lon="12.352076996975981"><ele>234.33333333333331</ele><time>2026-04-11T08:49:40Z</time></trkpt><trkpt lat="43.2913069007199" lon="12.352249132483271"><ele>234.66666666666666</ele><time>2026-04-11T08:49:41Z</time></trkpt><trkpt lat="43.29120287511487" lon="12.352420513243667"><ele>235.0</ele><time>2026-04-11T08:49:42Z</time></trkpt><trkpt lat="43.29110258990666" lon="12.35258481610275"><ele>235.0</ele><time>2026-04-11T08:49:43Z</time></trkpt><trkpt lat="43.29100204901805" lon="12.352748941980968"><ele>235.0</ele><time>2026-04-11T08:49:44Z</time></trkpt><trkpt lat="43.290901158907985" lon="12.352915023941165"><ele>235.0</ele><time>2026-04-11T08:49:45Z</time></trkpt><trkpt lat="43.290802780092974" lon="12.353074329575655"><ele>234.75</ele><time>2026-04-11T08:49:46Z</time></trkpt><trkpt lat="43.2907047978179" lon="12.353230979331999"><ele>234.5</ele><time>2026-04-11T08:49:47Z</time></trkpt><trkpt lat="43.290608960021544" lon="12.353384690026825"><ele>234.25</ele><time>2026-04-11T08:49:48Z</time></trkpt><trkpt lat="43.29051572555093" lon="12.353537313944004"><ele>234.0</ele><time>2026-04-11T08:49:49Z</time></trkpt><trkpt lat="43.29042227107596" lon="12.35369075475201"><ele>234.0</ele><time>2026-04-11T08:49:50Z</time></trkpt><trkpt lat="43.29032257916776" lon="12.353849813301336"><ele>234.0</ele><time>2026-04-11T08:49:51Z</time></trkpt><trkpt lat="43.2902203011684" lon="12.354011117453071"><ele>234.0</ele><time>2026-04-11T08:49:52Z</time></trkpt><trkpt lat="43.29011898519465" lon="12.354173048322115"><ele>234.66666666666669</ele><time>2026-04-11T08:49:53Z</time></trkpt><trkpt lat="43.290016206285685" lon="12.354341970940494"><ele>235.33333333333334</ele><time>2026-04-11T08:49:54Z</time></trkpt><trkpt lat="43.28990986227239" lon="12.35451410770915"><ele>236.0</ele><time>2026-04-11T08:49:55Z</time></trkpt><trkpt lat="43.28980062317103" lon="12.354689539955713"><ele>235.66666666666669</ele><time>2026-04-11T08:49:56Z</time></trkpt><trkpt lat="43.28969128576495" lon="12.354867089424348"><ele>235.33333333333331</ele><time>2026-04-11T08:49:57Z</time></trkpt><trkpt lat="43.289583890216164" lon="12.355041638036392"><ele>235.0</ele><time>2026-04-11T08:49:58Z</time></trkpt><trkpt lat="43.289478359638935" lon="12.355215390806794"><ele>235.0</ele><time>2026-04-11T08:49:59Z</time></trkpt><trkpt lat="43.28937364134092" lon="12.355392990283319"><ele>235.0</ele><time>2026-04-11T08:50:00Z</time></trkpt><trkpt lat="43.28927338422573" lon="12.355565943230802"><ele>235.0</ele><time>2026-04-11T08:50:01Z</time></trkpt><trkpt lat="43.28917453932662" lon="12.355736779021365"><ele>234.66666666666666</ele><time>2026-04-11T08:50:02Z</time></trkpt><trkpt lat="43.28907724141303" lon="12.355901448898482"><ele>234.33333333333331</ele><time>2026-04-11T08:50:03Z</time></trkpt><trkpt lat="43.2889769800635" lon="12.356064608046275"><ele>234.0</ele><time>2026-04-11T08:50:04Z</time></trkpt><trkpt lat="43.28887641050798" lon="12.356229715781655"><ele>233.66666666666669</ele><time>2026-04-11T08:50:05Z</time></trkpt><trkpt lat="43.28877890264932" lon="12.356394599109722"><ele>233.33333333333334</ele><time>2026-04-11T08:50:06Z</time></trkpt><trkpt lat="43.28868588024774" lon="12.356563703725422"><ele>233.0</ele><time>2026-04-11T08:50:07Z</time></trkpt><trkpt lat="43.288600633962446" lon="12.35674602948913"><ele>233.0</ele><time>2026-04-11T08:50:08Z</time></trkpt><trkpt lat="43.28852786365586" lon="12.356945541944176"><ele>233.0</ele><time>2026-04-11T08:50:09Z</time></trkpt><trkpt lat="43.288467664169964" lon="12.357155868531846"><ele>233.0</ele><time>2026-04-11T08:50:10Z</time></trkpt><trkpt lat="43.2884250382875" lon="12.357359991557999"><ele>233.5</ele><time>2026-04-11T08:50:11Z</time></trkpt><trkpt lat="43.288394053737335" lon="12.357561236370628"><ele>234.0</ele><time>2026-04-11T08:50:12Z</time></trkpt><trkpt lat="43.28837112750349" lon="12.357764528381045"><ele>234.5</ele><time>2026-04-11T08:50:13Z</time></trkpt><trkpt lat="43.288359216874085" lon="12.357963886626596"><ele>235.0</ele><time>2026-04-11T08:50:14Z</time></trkpt><trkpt lat="43.28834793765191" lon="12.35815951108051"><ele>235.75</ele><time>2026-04-11T08:50:15Z</time></trkpt><trkpt lat="43.288339786011704" lon="12.358346439415065"><ele>236.5</ele><time>2026-04-11T08:50:16Z</time></trkpt><trkpt lat="43.28833362554276" lon="12.35852196977132"><ele>237.25</ele><time>2026-04-11T08:50:17Z</time></trkpt><trkpt lat="43.2883271650529" lon="12.3586878399884"><ele>238.0</ele><time>2026-04-11T08:50:18Z</time></trkpt><trkpt lat="43.28831922974183" lon="12.358846830810831"><ele>238.4</ele><time>2026-04-11T08:50:19Z</time></trkpt><trkpt lat="43.288313005297425" lon="12.3589934016923"><ele>238.8</ele><time>2026-04-11T08:50:20Z</time></trkpt><trkpt lat="43.288307054936396" lon="12.359120033971793"><ele>239.2</ele><time>2026-04-11T08:50:21Z</time></trkpt><trkpt lat="43.288301393371746" lon="12.359238515632665"><ele>239.6</ele><time>2026-04-11T08:50:22Z</time></trkpt><trkpt lat="43.2882976327264" lon="12.35934277879079"><ele>240.0</ele><time>2026-04-11T08:50:23Z</time></trkpt><trkpt lat="43.28832349954191" lon="12.359493174385884"><ele>240.0</ele><time>2026-04-11T08:50:25Z</time></trkpt><trkpt lat="43.28830320315935" lon="12.359602927017205"><ele>240.0</ele><time>2026-04-11T08:50:28Z</time></trkpt><trkpt lat="43.288312317277196" lon="12.359709248691658"><ele>240.0</ele><time>2026-04-11T08:50:30Z</time></trkpt><trkpt lat="43.28875389036963" lon="12.359873802143643"><ele>240.0</ele><time>2026-04-11T08:50:32Z</time></trkpt><trkpt lat="43.288833712194695" lon="12.359946605775209"><ele>240.0</ele><time>2026-04-11T08:50:33Z</time></trkpt><trkpt lat="43.28891100416374" lon="12.36001556216871"><ele>240.0</ele><time>2026-04-11T08:50:34Z</time></trkpt><trkpt lat="43.28898798088171" lon="12.360077210064238"><ele>240.0</ele><time>2026-04-11T08:50:35Z</time></trkpt><trkpt lat="43.28905906135503" lon="12.360158753139531"><ele>240.0</ele><time>2026-04-11T08:50:36Z</time></trkpt><trkpt lat="43.28913694302368" lon="12.360232290053766"><ele>240.0</ele><time>2026-04-11T08:50:37Z</time></trkpt><trkpt lat="43.28920402533266" lon="12.360301321666288"><ele>240.0</ele><time>2026-04-11T08:50:38Z</time></trkpt><trkpt lat="43.28926994638747" lon="12.360370578241156"><ele>240.0</ele><time>2026-04-11T08:50:39Z</time></trkpt><trkpt lat="43.28933500591444" lon="12.360436014101394"><ele>240.0</ele><time>2026-04-11T08:50:40Z</time></trkpt><trkpt lat="43.289396464275114" lon="12.360497570025647"><ele>240.0</ele><time>2026-04-11T08:50:41Z</time></trkpt><trkpt lat="43.28945999288939" lon="12.36055761021779"><ele>240.0</ele><time>2026-04-11T08:50:42Z</time></trkpt><trkpt lat="43.28952548298878" lon="12.360617502320414"><ele>240.16666666666666</ele><time>2026-04-11T08:50:43Z</time></trkpt><trkpt lat="43.289590812572186" lon="12.360677391396608"><ele>240.33333333333331</ele><time>2026-04-11T08:50:44Z</time></trkpt><trkpt lat="43.289654212903564" lon="12.3607375849211"><ele>240.5</ele><time>2026-04-11T08:50:45Z</time></trkpt><trkpt lat="43.289722534711345" lon="12.360806963039792"><ele>240.66666666666666</ele><time>2026-04-11T08:50:46Z</time></trkpt><trkpt lat="43.28978990998553" lon="12.360872327526153"><ele>240.83333333333331</ele><time>2026-04-11T08:50:47Z</time></trkpt><trkpt lat="43.28985895442974" lon="12.360929695874932"><ele>241.0</ele><time>2026-04-11T08:50:48Z</time></trkpt><trkpt lat="43.289922860421875" lon="12.360978609886798"><ele>240.99999999999997</ele><time>2026-04-11T08:50:49Z</time></trkpt><trkpt lat="43.28999184172625" lon="12.361032460594393"><ele>241.0</ele><time>2026-04-11T08:50:50Z</time></trkpt><trkpt lat="43.290066179910355" lon="12.361083786117925"><ele>241.0</ele><time>2026-04-11T08:50:51Z</time></trkpt><trkpt lat="43.29012827301353" lon="12.361156556417912"><ele>241.0</ele><time>2026-04-11T08:50:52Z</time></trkpt><trkpt lat="43.29020573959353" lon="12.361209696367203"><ele>240.99999999999997</ele><time>2026-04-11T08:50:53Z</time></trkpt><trkpt lat="43.29028167723858" lon="12.36125970382225"><ele>241.0</ele><time>2026-04-11T08:50:54Z</time></trkpt><trkpt lat="43.29036654504334" lon="12.361298408663544"><ele>241.0</ele><time>2026-04-11T08:50:55Z</time></trkpt><trkpt lat="43.290454977935234" lon="12.361336718535382"><ele>241.00000000000003</ele><time>2026-04-11T08:50:56Z</time></trkpt><trkpt lat="43.290552994846536" lon="12.361357027203367"><ele>241.00000000000003</ele><time>2026-04-11T08:50:57Z</time></trkpt><trkpt lat="43.290644026947355" lon="12.361409869605792"><ele>241.0</ele><time>2026-04-11T08:50:58Z</time></trkpt><trkpt lat="43.29073800605459" lon="12.361446837175103"><ele>241.0</ele><time>2026-04-11T08:50:59Z</time></trkpt><trkpt lat="43.29083107693694" lon="12.36148623688069"><ele>240.8</ele><time>2026-04-11T08:51:00Z</time></trkpt><trkpt lat="43.29092504631373" lon="12.361527306613414"><ele>240.60000000000002</ele><time>2026-04-11T08:51:01Z</time></trkpt><trkpt lat="43.29101590401636" lon="12.361568617737484"><ele>240.4</ele><time>2026-04-11T08:51:02Z</time></trkpt><trkpt lat="43.29110343563555" lon="12.361612784863325"><ele>240.2</ele><time>2026-04-11T08:51:03Z</time></trkpt><trkpt lat="43.291188125558556" lon="12.361664161746871"><ele>240.0</ele><time>2026-04-11T08:51:04.001Z</time></trkpt><trkpt lat="43.2912738305992" lon="12.361718609066216"><ele>240.0</ele><time>2026-04-11T08:51:05.001Z</time></trkpt><trkpt lat="43.291361503349464" lon="12.36175550796558"><ele>240.0</ele><time>2026-04-11T08:51:06.001Z</time></trkpt><trkpt lat="43.291443719474394" lon="12.361791587203733"><ele>240.0</ele><time>2026-04-11T08:51:07.001Z</time></trkpt><trkpt lat="43.29153444548953" lon="12.361792077954227"><ele>240.0</ele><time>2026-04-11T08:51:08.001Z</time></trkpt><trkpt lat="43.291615909179995" lon="12.361774204846197"><ele>240.0</ele><time>2026-04-11T08:51:09.001Z</time></trkpt><trkpt lat="43.291700114028394" lon="12.361765530139781"><ele>240.0</ele><time>2026-04-11T08:51:10.001Z</time></trkpt><trkpt lat="43.29176889407994" lon="12.361799248900036"><ele>239.8</ele><time>2026-04-11T08:51:11.001Z</time></trkpt><trkpt lat="43.29182040480382" lon="12.361891433133446"><ele>239.6</ele><time>2026-04-11T08:51:12.001Z</time></trkpt><trkpt lat="43.29189939054121" lon="12.361976225409991"><ele>239.39999999999998</ele><time>2026-04-11T08:51:13.001Z</time></trkpt><trkpt lat="43.29197872823597" lon="12.362089240407029"><ele>239.2</ele><time>2026-04-11T08:51:14.001Z</time></trkpt><trkpt lat="43.292055904399085" lon="12.362197454088488"><ele>239.0</ele><time>2026-04-11T08:51:15.001Z</time></trkpt><trkpt lat="43.292127485465414" lon="12.36230265098873"><ele>239.0</ele><time>2026-04-11T08:51:16.001Z</time></trkpt><trkpt lat="43.29220435788207" lon="12.362399538707225"><ele>238.99999999999997</ele><time>2026-04-11T08:51:17.001Z</time></trkpt><trkpt lat="43.29226692395458" lon="12.362515726853816"><ele>238.99999999999997</ele><time>2026-04-11T08:51:18.001Z</time></trkpt><trkpt lat="43.29234168948326" lon="12.36262123357762"><ele>239.0</ele><time>2026-04-11T08:51:19.001Z</time></trkpt><trkpt lat="43.292420379943735" lon="12.362735224853713"><ele>239.0</ele><time>2026-04-11T08:51:20.001Z</time></trkpt><trkpt lat="43.2924974322283" lon="12.362850897478795"><ele>240.0</ele><time>2026-04-11T08:51:21.001Z</time></trkpt><trkpt lat="43.29257191081004" lon="12.362962706458303"><ele>241.0</ele><time>2026-04-11T08:51:22.001Z</time></trkpt><trkpt lat="43.29265990177896" lon="12.363061843455906"><ele>242.0</ele><time>2026-04-11T08:51:23.001Z</time></trkpt><trkpt lat="43.29272825292842" lon="12.36319803928599"><ele>243.0</ele><time>2026-04-11T08:51:24.001Z</time></trkpt><trkpt lat="43.29281029918764" lon="12.36332493398364"><ele>243.0</ele><time>2026-04-11T08:51:25.001Z</time></trkpt><trkpt lat="43.2928898232135" lon="12.363447927739"><ele>243.0</ele><time>2026-04-11T08:51:26.001Z</time></trkpt><trkpt lat="43.292969499012145" lon="12.363570628878312"><ele>243.0</ele><time>2026-04-11T08:51:27.001Z</time></trkpt><trkpt lat="43.293045001667736" lon="12.36368633961578"><ele>243.0</ele><time>2026-04-11T08:51:28.001Z</time></trkpt><trkpt lat="43.29312478552756" lon="12.363774096687886"><ele>243.33333333333334</ele><time>2026-04-11T08:51:29Z</time></trkpt><trkpt lat="43.29317895485038" lon="12.363847103994246"><ele>243.66666666666669</ele><time>2026-04-11T08:51:30Z</time></trkpt><trkpt lat="43.293223203353726" lon="12.363927723639188"><ele>244.0</ele><time>2026-04-11T08:51:31Z</time></trkpt><trkpt lat="43.293288947344465" lon="12.364043329384648"><ele>244.33333333333334</ele><time>2026-04-11T08:51:32Z</time></trkpt><trkpt lat="43.29335203175388" lon="12.364140333293902"><ele>244.66666666666669</ele><time>2026-04-11T08:51:33Z</time></trkpt><trkpt lat="43.29338807206815" lon="12.364249643628193"><ele>245.0</ele><time>2026-04-11T08:51:34Z</time></trkpt><trkpt lat="43.29338889444213" lon="12.364354330790231"><ele>245.0</ele><time>2026-04-11T08:51:35Z</time></trkpt><trkpt lat="43.293365410893124" lon="12.364451495897997"><ele>245.0</ele><time>2026-04-11T08:51:36Z</time></trkpt><trkpt lat="43.29331929192027" lon="12.364552553614137"><ele>245.0</ele><time>2026-04-11T08:51:38Z</time></trkpt><trkpt lat="43.29340418642873" lon="12.364728237441959"><ele>245.0</ele><time>2026-04-11T08:51:40Z</time></trkpt><trkpt lat="43.29347755270628" lon="12.364819190858313"><ele>245.0</ele><time>2026-04-11T08:51:41Z</time></trkpt><trkpt lat="43.293555013939084" lon="12.364940527116508"><ele>245.0</ele><time>2026-04-11T08:51:42Z</time></trkpt><trkpt lat="43.29366804851592" lon="12.365031468708077"><ele>245.0</ele><time>2026-04-11T08:51:43Z</time></trkpt><trkpt lat="43.29382396821363" lon="12.365083823085458"><ele>245.0</ele><time>2026-04-11T08:51:44Z</time></trkpt><trkpt lat="43.29395694311677" lon="12.365095685761723"><ele>245.0</ele><time>2026-04-11T08:51:45Z</time></trkpt><trkpt lat="43.29407183758561" lon="12.365147483358903"><ele>245.0</ele><time>2026-04-11T08:51:46Z</time></trkpt><trkpt lat="43.29416730102447" lon="12.365256358201975"><ele>245.0</ele><time>2026-04-11T08:51:47Z</time></trkpt><trkpt lat="43.294278966815305" lon="12.365385927915812"><ele>245.0</ele><time>2026-04-11T08:51:48Z</time></trkpt><trkpt lat="43.29440847531661" lon="12.365534857650278"><ele>245.0</ele><time>2026-04-11T08:51:49Z</time></trkpt><trkpt lat="43.29456943218462" lon="12.36569697482712"><ele>245.0</ele><time>2026-04-11T08:51:50Z</time></trkpt><trkpt lat="43.29473842752658" lon="12.36584014447389"><ele>245.0</ele><time>2026-04-11T08:51:51Z</time></trkpt><trkpt lat="43.294878192425955" lon="12.36595686832266"><ele>245.0</ele><time>2026-04-11T08:51:52Z</time></trkpt><trkpt lat="43.29499315406441" lon="12.366063152302488"><ele>245.25</ele><time>2026-04-11T08:51:53Z</time></trkpt><trkpt lat="43.29508557347278" lon="12.366195772553576"><ele>245.5</ele><time>2026-04-11T08:51:54Z</time></trkpt><trkpt lat="43.295148080809646" lon="12.366343098185464"><ele>245.75</ele><time>2026-04-11T08:51:55Z</time></trkpt><trkpt lat="43.2951954555286" lon="12.366497417628553"><ele>246.0</ele><time>2026-04-11T08:51:56Z</time></trkpt><trkpt lat="43.29523804271156" lon="12.366663964886083"><ele>246.0</ele><time>2026-04-11T08:51:57Z</time></trkpt><trkpt lat="43.29529008928938" lon="12.366814186284426"><ele>246.00000000000003</ele><time>2026-04-11T08:51:58Z</time></trkpt><trkpt lat="43.29532575127291" lon="12.366960995418651"><ele>246.00000000000003</ele><time>2026-04-11T08:51:59Z</time></trkpt><trkpt lat="43.29535392549056" lon="12.367079358641552"><ele>246.0</ele><time>2026-04-11T08:52:00Z</time></trkpt><trkpt lat="43.29540448289418" lon="12.36717257513384"><ele>246.0</ele><time>2026-04-11T08:52:01Z</time></trkpt><trkpt lat="43.29543831289223" lon="12.36726799903673"><ele>246.0</ele><time>2026-04-11T08:52:02Z</time></trkpt><trkpt lat="43.295492197021005" lon="12.367348519465569"><ele>246.0</ele><time>2026-04-11T08:52:03Z</time></trkpt><trkpt lat="43.295545455281164" lon="12.367417813568784"><ele>246.0</ele><time>2026-04-11T08:52:04Z</time></trkpt><trkpt lat="43.29560435718149" lon="12.367488513000135"><ele>246.0</ele><time>2026-04-11T08:52:05Z</time></trkpt><trkpt lat="43.295665457017876" lon="12.367560044474049"><ele>246.0</ele><time>2026-04-11T08:52:06Z</time></trkpt><trkpt lat="43.29572982056278" lon="12.367635396936345"><ele>246.0</ele><time>2026-04-11T08:52:07Z</time></trkpt><trkpt lat="43.2958009903524" lon="12.367717384225989"><ele>246.0</ele><time>2026-04-11T08:52:08Z</time></trkpt><trkpt lat="43.295875143700215" lon="12.367802130934091"><ele>246.00000000000003</ele><time>2026-04-11T08:52:09Z</time></trkpt><trkpt lat="43.295954394207776" lon="12.36786430263538"><ele>246.00000000000003</ele><time>2026-04-11T08:52:10Z</time></trkpt><trkpt lat="43.29601996442704" lon="12.36794744821577"><ele>246.0</ele><time>2026-04-11T08:52:11Z</time></trkpt><trkpt lat="43.2960907647615" lon="12.368038420276626"><ele>246.0</ele><time>2026-04-11T08:52:12Z</time></trkpt><trkpt lat="43.296162613125425" lon="12.368124653637917"><ele>246.0</ele><time>2026-04-11T08:52:13Z</time></trkpt><trkpt lat="43.29622761707255" lon="12.368201402256284"><ele>246.0</ele><time>2026-04-11T08:52:14Z</time></trkpt><trkpt lat="43.29629581571127" lon="12.36827856557424"><ele>246.0</ele><time>2026-04-11T08:52:15Z</time></trkpt><trkpt lat="43.29636705944078" lon="12.368353393407453"><ele>246.0</ele><time>2026-04-11T08:52:16Z</time></trkpt><trkpt lat="43.29643440099113" lon="12.368423900952505"><ele>246.0</ele><time>2026-04-11T08:52:17Z</time></trkpt><trkpt lat="43.29649862533817" lon="12.368498947953501"><ele>246.0</ele><time>2026-04-11T08:52:18Z</time></trkpt><trkpt lat="43.29655801940283" lon="12.368569713987911"><ele>245.83333333333334</ele><time>2026-04-11T08:52:19Z</time></trkpt><trkpt lat="43.29661859637761" lon="12.368642012564507"><ele>245.66666666666669</ele><time>2026-04-11T08:52:20Z</time></trkpt><trkpt lat="43.29668484584048" lon="12.368713497979254"><ele>245.5</ele><time>2026-04-11T08:52:21Z</time></trkpt><trkpt lat="43.29674534156239" lon="12.368786096497962"><ele>245.33333333333334</ele><time>2026-04-11T08:52:22Z</time></trkpt><trkpt lat="43.29679836736222" lon="12.368867547693704"><ele>245.16666666666669</ele><time>2026-04-11T08:52:23Z</time></trkpt><trkpt lat="43.296823469478944" lon="12.368961251942153"><ele>245.0</ele><time>2026-04-11T08:52:24Z</time></trkpt><trkpt lat="43.296805485885066" lon="12.369158767068805"><ele>245.00000000000003</ele><time>2026-04-11T08:52:26Z</time></trkpt><trkpt lat="43.296806193921" lon="12.369259604592346"><ele>245.0</ele><time>2026-04-11T08:52:27Z</time></trkpt><trkpt lat="43.29683324872218" lon="12.369350274368106"><ele>245.0</ele><time>2026-04-11T08:52:28Z</time></trkpt><trkpt lat="43.296879068290465" lon="12.36942078885089"><ele>245.0</ele><time>2026-04-11T08:52:29Z</time></trkpt><trkpt lat="43.29692858811926" lon="12.369482901094136"><ele>245.00000000000003</ele><time>2026-04-11T08:52:30Z</time></trkpt><trkpt lat="43.297021218167544" lon="12.369487643231125"><ele>245.0</ele><time>2026-04-11T08:52:31Z</time></trkpt><trkpt lat="43.297101093128155" lon="12.369442187352186"><ele>245.0</ele><time>2026-04-11T08:52:32Z</time></trkpt><trkpt lat="43.297180398031195" lon="12.369421019870936"><ele>245.0</ele><time>2026-04-11T08:52:33Z</time></trkpt><trkpt lat="43.29725621194874" lon="12.36942888075427"><ele>245.0</ele><time>2026-04-11T08:52:34Z</time></trkpt><trkpt lat="43.29734076944112" lon="12.369472454851511"><ele>245.0</ele><time>2026-04-11T08:52:35Z</time></trkpt><trkpt lat="43.297437514390175" lon="12.369529196042706"><ele>245.0</ele><time>2026-04-11T08:52:36Z</time></trkpt><trkpt lat="43.29752570184075" lon="12.369586491732454"><ele>245.50000000000003</ele><time>2026-04-11T08:52:37Z</time></trkpt><trkpt lat="43.297601178191776" lon="12.36964756613285"><ele>246.0</ele><time>2026-04-11T08:52:38Z</time></trkpt><trkpt lat="43.29768165129956" lon="12.369703403926898"><ele>246.5</ele><time>2026-04-11T08:52:39Z</time></trkpt><trkpt lat="43.29775934826629" lon="12.369757791386634"><ele>247.0</ele><time>2026-04-11T08:52:40Z</time></trkpt><trkpt lat="43.29783801407518" lon="12.369813240657832"><ele>247.50000000000003</ele><time>2026-04-11T08:52:41Z</time></trkpt><trkpt lat="43.297919261360036" lon="12.36986643929389"><ele>248.0</ele><time>2026-04-11T08:52:42Z</time></trkpt><trkpt lat="43.297994516118386" lon="12.369920763200646"><ele>248.00000000000003</ele><time>2026-04-11T08:52:43Z</time></trkpt><trkpt lat="43.29807267617514" lon="12.3699808771596"><ele>248.0</ele><time>2026-04-11T08:52:44Z</time></trkpt><trkpt lat="43.29815904734964" lon="12.370040788179436"><ele>248.0</ele><time>2026-04-11T08:52:45Z</time></trkpt><trkpt lat="43.29823846582631" lon="12.370094475920983"><ele>248.0</ele><time>2026-04-11T08:52:46Z</time></trkpt><trkpt lat="43.298315192163855" lon="12.370144672949289"><ele>248.00000000000003</ele><time>2026-04-11T08:52:47.001Z</time></trkpt><trkpt lat="43.298387420751126" lon="12.370195475241555"><ele>248.0</ele><time>2026-04-11T08:52:48.001Z</time></trkpt><trkpt lat="43.29845863232915" lon="12.370256146764524"><ele>248.16666666666669</ele><time>2026-04-11T08:52:49.001Z</time></trkpt><trkpt lat="43.2985313553459" lon="12.370300716624362"><ele>248.33333333333334</ele><time>2026-04-11T08:52:50.001Z</time></trkpt><trkpt lat="43.29860199051124" lon="12.370350619223688"><ele>248.5</ele><time>2026-04-11T08:52:51.001Z</time></trkpt><trkpt lat="43.29867661011278" lon="12.37040304512262"><ele>248.66666666666669</ele><time>2026-04-11T08:52:52.001Z</time></trkpt><trkpt lat="43.29875717546711" lon="12.370456795595207"><ele>248.83333333333334</ele><time>2026-04-11T08:52:53.001Z</time></trkpt><trkpt lat="43.298837322811295" lon="12.370510526322867"><ele>249.0</ele><time>2026-04-11T08:52:54.001Z</time></trkpt><trkpt lat="43.298909418961046" lon="12.370561521785731"><ele>249.66666666666666</ele><time>2026-04-11T08:52:55.001Z</time></trkpt><trkpt lat="43.29897610390082" lon="12.370607156520256"><ele>250.33333333333331</ele><time>2026-04-11T08:52:56.001Z</time></trkpt><trkpt lat="43.29903138618238" lon="12.370682021162922"><ele>251.0</ele><time>2026-04-11T08:52:57.001Z</time></trkpt><trkpt lat="43.29910295896382" lon="12.370732179409709"><ele>251.66666666666666</ele><time>2026-04-11T08:52:58.001Z</time></trkpt><trkpt lat="43.29917906029841" lon="12.370786523153606"><ele>252.33333333333331</ele><time>2026-04-11T08:52:59.001Z</time></trkpt><trkpt lat="43.2992538092506" lon="12.370840958263276"><ele>253.0</ele><time>2026-04-11T08:53:00.001Z</time></trkpt><trkpt lat="43.299333179808386" lon="12.3708987590716"><ele>252.99999999999997</ele><time>2026-04-11T08:53:01.001Z</time></trkpt><trkpt lat="43.29941277143437" lon="12.370956720827756"><ele>253.0</ele><time>2026-04-11T08:53:02.001Z</time></trkpt><trkpt lat="43.29949351501017" lon="12.37101552149548"><ele>253.0</ele><time>2026-04-11T08:53:03.001Z</time></trkpt><trkpt lat="43.29957333750521" lon="12.371071713978253"><ele>253.0</ele><time>2026-04-11T08:53:04.001Z</time></trkpt><trkpt lat="43.299651578804585" lon="12.37112668326007"><ele>252.99999999999997</ele><time>2026-04-11T08:53:05.001Z</time></trkpt><trkpt lat="43.29973182857853" lon="12.371182188844127"><ele>253.0</ele><time>2026-04-11T08:53:06.001Z</time></trkpt><trkpt lat="43.2998132405749" lon="12.371238236517682"><ele>253.33333333333331</ele><time>2026-04-11T08:53:07.001Z</time></trkpt><trkpt lat="43.29989097415693" lon="12.37129175173447"><ele>253.66666666666666</ele><time>2026-04-11T08:53:08.001Z</time></trkpt><trkpt lat="43.299973317111494" lon="12.371323108880503"><ele>254.0</ele><time>2026-04-11T08:53:09.001Z</time></trkpt><trkpt lat="43.300050055444686" lon="12.371379232350593"><ele>254.33333333333331</ele><time>2026-04-11T08:53:10.001Z</time></trkpt><trkpt lat="43.300127385860264" lon="12.371437868940054"><ele>254.66666666666666</ele><time>2026-04-11T08:53:11.001Z</time></trkpt><trkpt lat="43.3002083127511" lon="12.371489819436066"><ele>255.0</ele><time>2026-04-11T08:53:12.001Z</time></trkpt><trkpt lat="43.30028748611838" lon="12.371549126957081"><ele>254.8</ele><time>2026-04-11T08:53:13.001Z</time></trkpt><trkpt lat="43.30037116563593" lon="12.371606227640342"><ele>254.6</ele><time>2026-04-11T08:53:14.001Z</time></trkpt><trkpt lat="43.30045062753018" lon="12.371661626533875"><ele>254.39999999999998</ele><time>2026-04-11T08:53:15.001Z</time></trkpt><trkpt lat="43.300532192053446" lon="12.371715836166814"><ele>254.2</ele><time>2026-04-11T08:53:16.001Z</time></trkpt><trkpt lat="43.30061225132182" lon="12.371767214252307"><ele>254.0</ele><time>2026-04-11T08:53:17.001Z</time></trkpt><trkpt lat="43.30069269745649" lon="12.371818238537832"><ele>254.0</ele><time>2026-04-11T08:53:18.001Z</time></trkpt><trkpt lat="43.300779300178256" lon="12.37187277863482"><ele>253.99999999999997</ele><time>2026-04-11T08:53:19.001Z</time></trkpt><trkpt lat="43.300874462606444" lon="12.37193265818085"><ele>253.99999999999997</ele><time>2026-04-11T08:53:20.001Z</time></trkpt><trkpt lat="43.30097424623014" lon="12.371997087721606"><ele>254.0</ele><time>2026-04-11T08:53:21.001Z</time></trkpt><trkpt lat="43.30106912668431" lon="12.372052142900198"><ele>254.0</ele><time>2026-04-11T08:53:22.001Z</time></trkpt><trkpt lat="43.301160504834286" lon="12.372097547417768"><ele>254.0</ele><time>2026-04-11T08:53:23.001Z</time></trkpt><trkpt lat="43.30125039310804" lon="12.372136789544642"><ele>253.99999999999997</ele><time>2026-04-11T08:53:24.001Z</time></trkpt><trkpt lat="43.301331689508594" lon="12.372197456789921"><ele>253.99999999999997</ele><time>2026-04-11T08:53:25.001Z</time></trkpt><trkpt lat="43.30142040039986" lon="12.372227044619908"><ele>254.0</ele><time>2026-04-11T08:53:26.001Z</time></trkpt><trkpt lat="43.301516818096516" lon="12.372248815056604"><ele>254.0</ele><time>2026-04-11T08:53:27.001Z</time></trkpt><trkpt lat="43.301620061064284" lon="12.37226226178045"><ele>254.2</ele><time>2026-04-11T08:53:28.001Z</time></trkpt><trkpt lat="43.30172313493956" lon="12.372269927084382"><ele>254.39999999999998</ele><time>2026-04-11T08:53:29.001Z</time></trkpt><trkpt lat="43.301827690147874" lon="12.372276191050672"><ele>254.6</ele><time>2026-04-11T08:53:30.001Z</time></trkpt><trkpt lat="43.30193397648682" lon="12.372280787215374"><ele>254.8</ele><time>2026-04-11T08:53:31.001Z</time></trkpt><trkpt lat="43.3020404890685" lon="12.37228539316472"><ele>255.0</ele><time>2026-04-11T08:53:32.001Z</time></trkpt><trkpt lat="43.30214737699583" lon="12.372290015344225"><ele>254.8</ele><time>2026-04-11T08:53:33.001Z</time></trkpt><trkpt lat="43.302253415039985" lon="12.372294600773138"><ele>254.6</ele><time>2026-04-11T08:53:34.001Z</time></trkpt><trkpt lat="43.30235893623924" lon="12.37229916385546"><ele>254.39999999999998</ele><time>2026-04-11T08:53:35Z</time></trkpt><trkpt lat="43.30246504101987" lon="12.372303752166387"><ele>254.2</ele><time>2026-04-11T08:53:36Z</time></trkpt><trkpt lat="43.30257136115485" lon="12.372308349796931"><ele>254.0</ele><time>2026-04-11T08:53:37Z</time></trkpt><trkpt lat="43.302670994737205" lon="12.372315244520253"><ele>254.0</ele><time>2026-04-11T08:53:38Z</time></trkpt><trkpt lat="43.302771990456606" lon="12.37232260046545"><ele>253.99999999999997</ele><time>2026-04-11T08:53:39Z</time></trkpt><trkpt lat="43.30287074770421" lon="12.372329793374602"><ele>253.99999999999997</ele><time>2026-04-11T08:53:40Z</time></trkpt><trkpt lat="43.302965283925" lon="12.372336678840512"><ele>254.0</ele><time>2026-04-11T08:53:41Z</time></trkpt><trkpt lat="43.303061816928476" lon="12.372343321792973"><ele>254.0</ele><time>2026-04-11T08:53:42Z</time></trkpt><trkpt lat="43.30316520903154" lon="12.37232757786569"><ele>254.79999999999998</ele><time>2026-04-11T08:53:43Z</time></trkpt><trkpt lat="43.30326819060136" lon="12.372330223484406"><ele>255.59999999999997</ele><time>2026-04-11T08:53:44Z</time></trkpt><trkpt lat="43.30336978948906" lon="12.372336144765438"><ele>256.4</ele><time>2026-04-11T08:53:45Z</time></trkpt><trkpt lat="43.30347276187338" lon="12.37234005689395"><ele>257.2</ele><time>2026-04-11T08:53:46Z</time></trkpt><trkpt lat="43.3035754713626" lon="12.372340751193258"><ele>258.0</ele><time>2026-04-11T08:53:47Z</time></trkpt><trkpt lat="43.30367430054112" lon="12.372338965398024"><ele>258.0</ele><time>2026-04-11T08:53:48Z</time></trkpt><trkpt lat="43.30377132532588" lon="12.372343478988851"><ele>258.0</ele><time>2026-04-11T08:53:49Z</time></trkpt><trkpt lat="43.303867855492015" lon="12.372352895296125"><ele>258.0</ele><time>2026-04-11T08:53:50Z</time></trkpt><trkpt lat="43.30396325350044" lon="12.372362682953703"><ele>258.0</ele><time>2026-04-11T08:53:51Z</time></trkpt><trkpt lat="43.304057078312425" lon="12.372367321641828"><ele>258.0</ele><time>2026-04-11T08:53:52Z</time></trkpt><trkpt lat="43.30414912962997" lon="12.372376397528322"><ele>258.4</ele><time>2026-04-11T08:53:53Z</time></trkpt><trkpt lat="43.3042418415433" lon="12.372380073184218"><ele>258.8</ele><time>2026-04-11T08:53:54Z</time></trkpt><trkpt lat="43.304334902076306" lon="12.372392640850524"><ele>259.2</ele><time>2026-04-11T08:53:55Z</time></trkpt><trkpt lat="43.30442566973487" lon="12.372393056103835"><ele>259.6</ele><time>2026-04-11T08:53:56Z</time></trkpt><trkpt lat="43.30451590855887" lon="12.372390667534203"><ele>260.0</ele><time>2026-04-11T08:53:57Z</time></trkpt><trkpt lat="43.30461308105104" lon="12.372391142815085"><ele>260.0</ele><time>2026-04-11T08:53:58Z</time></trkpt><trkpt lat="43.304706272361074" lon="12.372412018625267"><ele>260.0</ele><time>2026-04-11T08:53:59Z</time></trkpt><trkpt lat="43.30480177600248" lon="12.37241364962439"><ele>260.0</ele><time>2026-04-11T08:54:00Z</time></trkpt><trkpt lat="43.30489716728018" lon="12.372419233176307"><ele>260.0</ele><time>2026-04-11T08:54:01Z</time></trkpt><trkpt lat="43.3049838222063" lon="12.372406782793306"><ele>260.0</ele><time>2026-04-11T08:54:02Z</time></trkpt><trkpt lat="43.30507075825766" lon="12.372432250927524"><ele>259.6</ele><time>2026-04-11T08:54:03Z</time></trkpt><trkpt lat="43.30516240701861" lon="12.372441926551007"><ele>259.2</ele><time>2026-04-11T08:54:04Z</time></trkpt><trkpt lat="43.305255182246455" lon="12.372451721114897"><ele>258.8</ele><time>2026-04-11T08:54:05Z</time></trkpt><trkpt lat="43.30535295524675" lon="12.372462378882709"><ele>258.4</ele><time>2026-04-11T08:54:06Z</time></trkpt><trkpt lat="43.30545204750317" lon="12.372473653689195"><ele>258.0</ele><time>2026-04-11T08:54:07Z</time></trkpt><trkpt lat="43.3055500800704" lon="12.372488758346519"><ele>258.6</ele><time>2026-04-11T08:54:08Z</time></trkpt><trkpt lat="43.3056570698588" lon="12.372509232701969"><ele>259.20000000000005</ele><time>2026-04-11T08:54:09Z</time></trkpt><trkpt lat="43.30576546470346" lon="12.372533977567475"><ele>259.8</ele><time>2026-04-11T08:54:10Z</time></trkpt><trkpt lat="43.30586738141945" lon="12.372539682362996"><ele>260.40000000000003</ele><time>2026-04-11T08:54:11Z</time></trkpt><trkpt lat="43.30596622466544" lon="12.372567860826912"><ele>261.0</ele><time>2026-04-11T08:54:12Z</time></trkpt><trkpt lat="43.30606195994165" lon="12.372592092393312"><ele>261.0</ele><time>2026-04-11T08:54:13Z</time></trkpt><trkpt lat="43.30615412024782" lon="12.372616740394239"><ele>261.0</ele><time>2026-04-11T08:54:14Z</time></trkpt><trkpt lat="43.306248987297174" lon="12.372645755726708"><ele>261.0</ele><time>2026-04-11T08:54:15Z</time></trkpt><trkpt lat="43.30634149322315" lon="12.37269894177094"><ele>261.0</ele><time>2026-04-11T08:54:16Z</time></trkpt><trkpt lat="43.306442991310725" lon="12.372713967059756"><ele>261.0</ele><time>2026-04-11T08:54:17Z</time></trkpt><trkpt lat="43.30654644319689" lon="12.372756700210267"><ele>262.0</ele><time>2026-04-11T08:54:18Z</time></trkpt><trkpt lat="43.30664717354289" lon="12.372788120311672"><ele>263.0</ele><time>2026-04-11T08:54:19Z</time></trkpt><trkpt lat="43.30674755547062" lon="12.372817133230155"><ele>264.0</ele><time>2026-04-11T08:54:20Z</time></trkpt><trkpt lat="43.30685125095564" lon="12.372842504967839"><ele>265.0</ele><time>2026-04-11T08:54:21Z</time></trkpt><trkpt lat="43.30694594726075" lon="12.372896663618729"><ele>266.0</ele><time>2026-04-11T08:54:22Z</time></trkpt><trkpt lat="43.30704849489824" lon="12.372938865063274"><ele>266.0</ele><time>2026-04-11T08:54:23Z</time></trkpt><trkpt lat="43.307145906669916" lon="12.3730009812711"><ele>266.0</ele><time>2026-04-11T08:54:24Z</time></trkpt><trkpt lat="43.30726709365365" lon="12.373089960197415"><ele>266.0</ele><time>2026-04-11T08:54:25Z</time></trkpt><trkpt lat="43.307389077286274" lon="12.373193977012695"><ele>266.0</ele><time>2026-04-11T08:54:26Z</time></trkpt><trkpt lat="43.307494745346276" lon="12.373294644757024"><ele>266.0</ele><time>2026-04-11T08:54:27Z</time></trkpt><trkpt lat="43.307597777624046" lon="12.373398148088803"><ele>266.0</ele><time>2026-04-11T08:54:28Z</time></trkpt><trkpt lat="43.307701251226696" lon="12.37351073293919"><ele>266.0</ele><time>2026-04-11T08:54:29Z</time></trkpt><trkpt lat="43.307805415467286" lon="12.373605324652424"><ele>266.0</ele><time>2026-04-11T08:54:30Z</time></trkpt><trkpt lat="43.30788974358919" lon="12.37371387989937"><ele>266.0</ele><time>2026-04-11T08:54:31Z</time></trkpt><trkpt lat="43.30796765135821" lon="12.373839281366724"><ele>266.0</ele><time>2026-04-11T08:54:32Z</time></trkpt><trkpt lat="43.308073804176274" lon="12.373934370214428"><ele>266.0</ele><time>2026-04-11T08:54:33Z</time></trkpt><trkpt lat="43.30816659119285" lon="12.374053436450106"><ele>266.0</ele><time>2026-04-11T08:54:34Z</time></trkpt><trkpt lat="43.308270291363755" lon="12.374145994609963"><ele>265.75</ele><time>2026-04-11T08:54:35Z</time></trkpt><trkpt lat="43.308369353718106" lon="12.374245122213914"><ele>265.5</ele><time>2026-04-11T08:54:36Z</time></trkpt><trkpt lat="43.30846482368747" lon="12.37434649384708"><ele>265.25</ele><time>2026-04-11T08:54:37Z</time></trkpt><trkpt lat="43.30855858186402" lon="12.374451125580148"><ele>265.0</ele><time>2026-04-11T08:54:38Z</time></trkpt><trkpt lat="43.308652433581315" lon="12.374552218566343"><ele>265.0</ele><time>2026-04-11T08:54:39Z</time></trkpt><trkpt lat="43.30875621587604" lon="12.374650150837134"><ele>265.0</ele><time>2026-04-11T08:54:40Z</time></trkpt><trkpt lat="43.30886269175554" lon="12.374751539246159"><ele>265.0</ele><time>2026-04-11T08:54:41.001Z</time></trkpt><trkpt lat="43.308956767239344" lon="12.374865122591837"><ele>265.0</ele><time>2026-04-11T08:54:42.001Z</time></trkpt><trkpt lat="43.309067146951335" lon="12.374968684827717"><ele>264.75</ele><time>2026-04-11T08:54:43.001Z</time></trkpt><trkpt lat="43.30918011706992" lon="12.375083485060252"><ele>264.5</ele><time>2026-04-11T08:54:44.001Z</time></trkpt><trkpt lat="43.3092918969579" lon="12.375203664239663"><ele>264.25</ele><time>2026-04-11T08:54:45.001Z</time></trkpt><trkpt lat="43.30939742532305" lon="12.375341466024487"><ele>264.0</ele><time>2026-04-11T08:54:46.001Z</time></trkpt><trkpt lat="43.3095126909328" lon="12.375441591129428"><ele>264.0</ele><time>2026-04-11T08:54:47.001Z</time></trkpt><trkpt lat="43.309621672110296" lon="12.37555938615865"><ele>264.0</ele><time>2026-04-11T08:54:48.001Z</time></trkpt><trkpt lat="43.30973160667276" lon="12.375673408713805"><ele>264.0</ele><time>2026-04-11T08:54:49.001Z</time></trkpt><trkpt lat="43.309840995449726" lon="12.375790743897086"><ele>264.0</ele><time>2026-04-11T08:54:50.001Z</time></trkpt><trkpt lat="43.30994614942958" lon="12.37590660804701"><ele>264.0</ele><time>2026-04-11T08:54:51.001Z</time></trkpt><trkpt lat="43.3100481589008" lon="12.37601365105406"><ele>264.0</ele><time>2026-04-11T08:54:52.001Z</time></trkpt><trkpt lat="43.310145595868384" lon="12.376130554360381"><ele>264.0</ele><time>2026-04-11T08:54:53.001Z</time></trkpt><trkpt lat="43.310243617421385" lon="12.37623452246065"><ele>264.0</ele><time>2026-04-11T08:54:54.001Z</time></trkpt><trkpt lat="43.31033798487453" lon="12.376331583057642"><ele>263.8</ele><time>2026-04-11T08:54:55.001Z</time></trkpt><trkpt lat="43.31042891233875" lon="12.376423245176289"><ele>263.59999999999997</ele><time>2026-04-11T08:54:56.001Z</time></trkpt><trkpt lat="43.31051384287725" lon="12.376512005644377"><ele>263.4</ele><time>2026-04-11T08:54:57.001Z</time></trkpt><trkpt lat="43.31059190439214" lon="12.376589849396726"><ele>263.2</ele><time>2026-04-11T08:54:58.001Z</time></trkpt><trkpt lat="43.31065968207795" lon="12.376655211062314"><ele>263.0</ele><time>2026-04-11T08:54:59.001Z</time></trkpt><trkpt lat="43.31071311847507" lon="12.376705736863515"><ele>263.0</ele><time>2026-04-11T08:55:00.001Z</time></trkpt><trkpt lat="43.31078598101311" lon="12.376777257603736"><ele>263.0</ele><time>2026-04-11T08:55:02.001Z</time></trkpt><trkpt lat="43.310832111480075" lon="12.37684605985095"><ele>263.0</ele><time>2026-04-11T08:56:47.001Z</time></trkpt><trkpt lat="43.31088741909557" lon="12.376902736031994"><ele>263.0</ele><time>2026-04-11T08:56:49.001Z</time></trkpt><trkpt lat="43.31095731386956" lon="12.376974360351056"><ele>263.0</ele><time>2026-04-11T08:56:51.001Z</time></trkpt><trkpt lat="43.31105430973682" lon="12.377073129235441"><ele>263.0</ele><time>2026-04-11T08:56:53.001Z</time></trkpt><trkpt lat="43.31111702922402" lon="12.377135499717905"><ele>262.6666666666667</ele><time>2026-04-11T08:56:54.001Z</time></trkpt><trkpt lat="43.31118105576653" lon="12.377199169977933"><ele>262.33333333333337</ele><time>2026-04-11T08:56:55.001Z</time></trkpt><trkpt lat="43.31124295754291" lon="12.37726072728162"><ele>262.0</ele><time>2026-04-11T08:56:56.001Z</time></trkpt><trkpt lat="43.31131070874611" lon="12.377328101534484"><ele>261.6666666666667</ele><time>2026-04-11T08:56:57.001Z</time></trkpt><trkpt lat="43.31137422430226" lon="12.37739126355809"><ele>261.3333333333333</ele><time>2026-04-11T08:56:58.001Z</time></trkpt><trkpt lat="43.3114462404287" lon="12.377462878996864"><ele>261.0</ele><time>2026-04-11T08:56:59.001Z</time></trkpt><trkpt lat="43.31152548989574" lon="12.37754168743439"><ele>261.8</ele><time>2026-04-11T08:57:00.001Z</time></trkpt><trkpt lat="43.31160508337" lon="12.377620838004486"><ele>262.6</ele><time>2026-04-11T08:57:01.001Z</time></trkpt><trkpt lat="43.31168519472567" lon="12.377700812675938"><ele>263.4</ele><time>2026-04-11T08:57:02.001Z</time></trkpt><trkpt lat="43.31176313032144" lon="12.377778909406366"><ele>264.2</ele><time>2026-04-11T08:57:03.001Z</time></trkpt><trkpt lat="43.311839609646704" lon="12.377855546820834"><ele>265.0</ele><time>2026-04-11T08:57:04.001Z</time></trkpt><trkpt lat="43.311921908704505" lon="12.377938016031736"><ele>265.0</ele><time>2026-04-11T08:57:05.001Z</time></trkpt><trkpt lat="43.3120015593771" lon="12.378017180766676"><ele>265.0</ele><time>2026-04-11T08:57:06.001Z</time></trkpt><trkpt lat="43.31209709742609" lon="12.378085865942483"><ele>265.0</ele><time>2026-04-11T08:57:07.001Z</time></trkpt><trkpt lat="43.31217889361626" lon="12.378166406087189"><ele>265.0</ele><time>2026-04-11T08:57:08.001Z</time></trkpt><trkpt lat="43.312257081504974" lon="12.37825290815935"><ele>265.0</ele><time>2026-04-11T08:57:09.001Z</time></trkpt><trkpt lat="43.31234086330752" lon="12.378329496115617"><ele>264.8</ele><time>2026-04-11T08:57:10.001Z</time></trkpt><trkpt lat="43.312427693860826" lon="12.378414645159824"><ele>264.6</ele><time>2026-04-11T08:57:11.001Z</time></trkpt><trkpt lat="43.312516885754654" lon="12.378496820317222"><ele>264.4</ele><time>2026-04-11T08:57:12.001Z</time></trkpt><trkpt lat="43.31260405841543" lon="12.378576692091986"><ele>264.2</ele><time>2026-04-11T08:57:13.001Z</time></trkpt><trkpt lat="43.312690644108194" lon="12.378659362521615"><ele>264.0</ele><time>2026-04-11T08:57:14.001Z</time></trkpt><trkpt lat="43.31278563555474" lon="12.378752357106386"><ele>264.0</ele><time>2026-04-11T08:57:15.001Z</time></trkpt><trkpt lat="43.31289848739723" lon="12.378828726151905"><ele>264.0</ele><time>2026-04-11T08:57:16.001Z</time></trkpt><trkpt lat="43.31300506798021" lon="12.378913794031611"><ele>264.0</ele><time>2026-04-11T08:57:17.001Z</time></trkpt><trkpt lat="43.31310199087208" lon="12.37899880242032"><ele>264.0</ele><time>2026-04-11T08:57:18.001Z</time></trkpt><trkpt lat="43.313210855647164" lon="12.379064353099068"><ele>264.0</ele><time>2026-04-11T08:57:19.001Z</time></trkpt><trkpt lat="43.31331958986076" lon="12.379144897787855"><ele>264.0</ele><time>2026-04-11T08:57:20.001Z</time></trkpt><trkpt lat="43.31342365663679" lon="12.37922157507693"><ele>264.0</ele><time>2026-04-11T08:57:21.001Z</time></trkpt><trkpt lat="43.31352332539272" lon="12.379298392776976"><ele>264.0</ele><time>2026-04-11T08:57:22.001Z</time></trkpt><trkpt lat="43.313625852203046" lon="12.379375221572785"><ele>264.0</ele><time>2026-04-11T08:57:23.001Z</time></trkpt><trkpt lat="43.31373171602623" lon="12.379451510817914"><ele>264.0</ele><time>2026-04-11T08:57:24.001Z</time></trkpt><trkpt lat="43.31384341187137" lon="12.37953171759366"><ele>264.0</ele><time>2026-04-11T08:57:25.001Z</time></trkpt><trkpt lat="43.3139571774323" lon="12.379626121025424"><ele>264.0</ele><time>2026-04-11T08:57:26.001Z</time></trkpt><trkpt lat="43.314066466190624" lon="12.379722169939884"><ele>264.5</ele><time>2026-04-11T08:57:27.001Z</time></trkpt><trkpt lat="43.314181341595706" lon="12.379798143728696"><ele>265.0</ele><time>2026-04-11T08:57:28.001Z</time></trkpt><trkpt lat="43.31428789130361" lon="12.379870563431176"><ele>265.5</ele><time>2026-04-11T08:57:29.001Z</time></trkpt><trkpt lat="43.314388646451214" lon="12.379936175307282"><ele>266.0</ele><time>2026-04-11T08:57:30.001Z</time></trkpt><trkpt lat="43.314480956867705" lon="12.380018957804698"><ele>266.0</ele><time>2026-04-11T08:57:31.001Z</time></trkpt><trkpt lat="43.314579154593794" lon="12.380063486936756"><ele>266.0</ele><time>2026-04-11T08:57:32.001Z</time></trkpt><trkpt lat="43.31465656814388" lon="12.38012362192656"><ele>266.0</ele><time>2026-04-11T08:57:33.001Z</time></trkpt><trkpt lat="43.31472288741066" lon="12.380192461584077"><ele>266.0</ele><time>2026-04-11T08:57:34.001Z</time></trkpt><trkpt lat="43.31475788678338" lon="12.380299762758662"><ele>266.0</ele><time>2026-04-11T08:57:35.001Z</time></trkpt><trkpt lat="43.31473876969293" lon="12.380437378275074"><ele>265.6666666666667</ele><time>2026-04-11T08:57:36.001Z</time></trkpt><trkpt lat="43.31474804368046" lon="12.380559222333337"><ele>265.33333333333337</ele><time>2026-04-11T08:57:37.001Z</time></trkpt><trkpt lat="43.31475932550411" lon="12.380661398466147"><ele>265.0</ele><time>2026-04-11T08:57:38.001Z</time></trkpt><trkpt lat="43.31479246866627" lon="12.380748013406128"><ele>264.6666666666667</ele><time>2026-04-11T08:57:39.001Z</time></trkpt><trkpt lat="43.314891554392055" lon="12.380814832150369"><ele>264.3333333333333</ele><time>2026-04-11T08:57:41.001Z</time></trkpt><trkpt lat="43.3149691160579" lon="12.380822042407434"><ele>264.0</ele><time>2026-04-11T08:57:42.001Z</time></trkpt><trkpt lat="43.31506922904506" lon="12.380806940170835"><ele>264.0</ele><time>2026-04-11T08:57:43.001Z</time></trkpt><trkpt lat="43.3151618865929" lon="12.380813925717938"><ele>264.0</ele><time>2026-04-11T08:57:44.001Z</time></trkpt><trkpt lat="43.315240720666885" lon="12.380792465359324"><ele>264.0</ele><time>2026-04-11T08:57:45.001Z</time></trkpt><trkpt lat="43.31531960189897" lon="12.380743649035336"><ele>264.0</ele><time>2026-04-11T08:57:46.001Z</time></trkpt><trkpt lat="43.31538832945691" lon="12.380676459718115"><ele>264.0</ele><time>2026-04-11T08:57:47Z</time></trkpt><trkpt lat="43.31544604697856" lon="12.380602341232715"><ele>264.0</ele><time>2026-04-11T08:57:48Z</time></trkpt><trkpt lat="43.315502593777026" lon="12.380507382049196"><ele>264.75</ele><time>2026-04-11T08:57:49Z</time></trkpt><trkpt lat="43.31552895333438" lon="12.380387802386611"><ele>265.5</ele><time>2026-04-11T08:57:50Z</time></trkpt><trkpt lat="43.31553334936135" lon="12.380256046307219"><ele>266.25</ele><time>2026-04-11T08:57:51Z</time></trkpt><trkpt lat="43.31554259168898" lon="12.380077993073776"><ele>267.0</ele><time>2026-04-11T08:57:52Z</time></trkpt><trkpt lat="43.3155592470176" lon="12.379867696063423"><ele>268.3333333333333</ele><time>2026-04-11T08:57:53Z</time></trkpt><trkpt lat="43.31557967548989" lon="12.379620607710429"><ele>269.66666666666663</ele><time>2026-04-11T08:57:54Z</time></trkpt><trkpt lat="43.31560097469518" lon="12.379343996495287"><ele>271.0</ele><time>2026-04-11T08:57:55Z</time></trkpt><trkpt lat="43.31560412374045" lon="12.37910953482438"><ele>271.0</ele><time>2026-04-11T08:57:56Z</time></trkpt><trkpt lat="43.315620346752354" lon="12.378917861620767"><ele>271.0</ele><time>2026-04-11T08:57:57Z</time></trkpt><trkpt lat="43.315642706309205" lon="12.3787452437513"><ele>271.0</ele><time>2026-04-11T08:57:58Z</time></trkpt><trkpt lat="43.315659212791914" lon="12.378579467817165"><ele>271.0</ele><time>2026-04-11T08:57:59Z</time></trkpt><trkpt lat="43.3156734105544" lon="12.378424467747385"><ele>272.2</ele><time>2026-04-11T08:58:00Z</time></trkpt><trkpt lat="43.315677510901466" lon="12.378288347931635"><ele>273.40000000000003</ele><time>2026-04-11T08:58:01Z</time></trkpt><trkpt lat="43.31565169740384" lon="12.378175210307106"><ele>274.6</ele><time>2026-04-11T08:58:02Z</time></trkpt><trkpt lat="43.31560614347257" lon="12.378051426196796"><ele>275.8</ele><time>2026-04-11T08:58:03Z</time></trkpt><trkpt lat="43.31553881848657" lon="12.377912191150573"><ele>277.0</ele><time>2026-04-11T08:58:04Z</time></trkpt><trkpt lat="43.31544679930753" lon="12.377740566548782"><ele>278.3333333333333</ele><time>2026-04-11T08:58:05Z</time></trkpt><trkpt lat="43.315357169696206" lon="12.377561085269567"><ele>279.6666666666667</ele><time>2026-04-11T08:58:06Z</time></trkpt><trkpt lat="43.3152699511016" lon="12.377382357270992"><ele>281.0</ele><time>2026-04-11T08:58:07Z</time></trkpt><trkpt lat="43.31518688581032" lon="12.377208172132317"><ele>284.75</ele><time>2026-04-11T08:58:08Z</time></trkpt><trkpt lat="43.31510791341927" lon="12.377051106327261"><ele>288.5</ele><time>2026-04-11T08:58:09Z</time></trkpt><trkpt lat="43.315018999702104" lon="12.376900653053733"><ele>292.25</ele><time>2026-04-11T08:58:10Z</time></trkpt><trkpt lat="43.31491444090651" lon="12.376751463767988"><ele>296.0</ele><time>2026-04-11T08:58:11Z</time></trkpt><trkpt lat="43.314813354363324" lon="12.376610215059594"><ele>295.8</ele><time>2026-04-11T08:58:12Z</time></trkpt><trkpt lat="43.31473413246297" lon="12.37648474017664"><ele>295.6</ele><time>2026-04-11T08:58:13Z</time></trkpt><trkpt lat="43.314647843413624" lon="12.376373690962415"><ele>295.4</ele><time>2026-04-11T08:58:14Z</time></trkpt><trkpt lat="43.31456548712486" lon="12.376298474111435"><ele>295.2</ele><time>2026-04-11T08:58:15Z</time></trkpt><trkpt lat="43.31448521832655" lon="12.376238286134093"><ele>295.0</ele><time>2026-04-11T08:58:16Z</time></trkpt><trkpt lat="43.31441895265472" lon="12.376183845848006"><ele>295.0</ele><time>2026-04-11T08:58:17Z</time></trkpt><trkpt lat="43.31436718226359" lon="12.37612095619251"><ele>295.0</ele><time>2026-04-11T08:58:18Z</time></trkpt><trkpt lat="43.31435449422062" lon="12.37602725119003"><ele>295.0</ele><time>2026-04-11T08:58:19Z</time></trkpt><trkpt lat="43.31438263791756" lon="12.375937575573777"><ele>295.0</ele><time>2026-04-11T08:58:20Z</time></trkpt><trkpt lat="43.31445933951276" lon="12.37589383408715"><ele>295.0</ele><time>2026-04-11T08:58:21Z</time></trkpt><trkpt lat="43.31452206151204" lon="12.375919280759094"><ele>295.0</ele><time>2026-04-11T08:58:22Z</time></trkpt><trkpt lat="43.31466012172843" lon="12.376034883339937"><ele>299.0</ele><time>2026-04-11T08:58:24Z</time></trkpt><trkpt lat="43.31478374750222" lon="12.376104452544793"><ele>303.0</ele><time>2026-04-11T08:58:25Z</time></trkpt><trkpt lat="43.31492186134621" lon="12.376174745965441"><ele>307.0</ele><time>2026-04-11T08:58:26Z</time></trkpt><trkpt lat="43.315068370372764" lon="12.376248157763262"><ele>311.0</ele><time>2026-04-11T08:58:27Z</time></trkpt><trkpt lat="43.31519572066633" lon="12.37630633982464"><ele>311.0</ele><time>2026-04-11T08:58:28Z</time></trkpt><trkpt lat="43.3153063176296" lon="12.376343911152091"><ele>311.0</ele><time>2026-04-11T08:58:29Z</time></trkpt><trkpt lat="43.31538611912131" lon="12.376419501770897"><ele>311.0</ele><time>2026-04-11T08:58:30Z</time></trkpt><trkpt lat="43.31546963073935" lon="12.376460460269552"><ele>311.0</ele><time>2026-04-11T08:58:31Z</time></trkpt><trkpt lat="43.315559646992234" lon="12.376477977912439"><ele>311.0</ele><time>2026-04-11T08:58:32Z</time></trkpt><trkpt lat="43.31565537689921" lon="12.376434369194433"><ele>310.75</ele><time>2026-04-11T08:58:33Z</time></trkpt><trkpt lat="43.31575402652746" lon="12.376367728102101"><ele>310.5</ele><time>2026-04-11T08:58:34.001Z</time></trkpt><trkpt lat="43.3158681778483" lon="12.376290941194542"><ele>310.25</ele><time>2026-04-11T08:58:35.001Z</time></trkpt><trkpt lat="43.31598644066336" lon="12.376208906864743"><ele>310.0</ele><time>2026-04-11T08:58:36.001Z</time></trkpt><trkpt lat="43.3160840137491" lon="12.376161127743813"><ele>312.3333333333333</ele><time>2026-04-11T08:58:37.001Z</time></trkpt><trkpt lat="43.31616865518772" lon="12.376149442059061"><ele>314.66666666666663</ele><time>2026-04-11T08:58:38.001Z</time></trkpt><trkpt lat="43.31623855116108" lon="12.376155622447486"><ele>317.0</ele><time>2026-04-11T08:58:39.001Z</time></trkpt><trkpt lat="43.31631423087695" lon="12.376141590819236"><ele>319.3333333333333</ele><time>2026-04-11T08:58:40.001Z</time></trkpt><trkpt lat="43.316381721798" lon="12.376111552489649"><ele>321.6666666666667</ele><time>2026-04-11T08:58:41.001Z</time></trkpt><trkpt lat="43.31643719925153" lon="12.376033128564229"><ele>324.0</ele><time>2026-04-11T08:58:42.001Z</time></trkpt><trkpt lat="43.31645932224554" lon="12.375913343025712"><ele>324.0</ele><time>2026-04-11T08:58:43.001Z</time></trkpt><trkpt lat="43.31643745097576" lon="12.375795464942577"><ele>324.0</ele><time>2026-04-11T08:58:44.001Z</time></trkpt><trkpt lat="43.31636450787129" lon="12.375702585201541"><ele>324.0</ele><time>2026-04-11T08:58:45.001Z</time></trkpt><trkpt lat="43.31633984826976" lon="12.375591887546582"><ele>324.0</ele><time>2026-04-11T08:58:46.001Z</time></trkpt><trkpt lat="43.31624685101326" lon="12.375519230471358"><ele>324.0</ele><time>2026-04-11T08:58:47.001Z</time></trkpt><trkpt lat="43.31617508109064" lon="12.375430682577804"><ele>326.0</ele><time>2026-04-11T08:58:48.001Z</time></trkpt><trkpt lat="43.31610381444359" lon="12.375327688150183"><ele>328.0</ele><time>2026-04-11T08:58:49.001Z</time></trkpt><trkpt lat="43.31605397040176" lon="12.375197134577162"><ele>330.0</ele><time>2026-04-11T08:58:50.001Z</time></trkpt><trkpt lat="43.31602680941018" lon="12.375028839706342"><ele>332.0</ele><time>2026-04-11T08:58:51.001Z</time></trkpt><trkpt lat="43.316018258581785" lon="12.374822922288464"><ele>335.0</ele><time>2026-04-11T08:58:52.001Z</time></trkpt><trkpt lat="43.316011288493534" lon="12.374612944191593"><ele>338.0</ele><time>2026-04-11T08:58:53.001Z</time></trkpt><trkpt lat="43.315998708125925" lon="12.374442287114729"><ele>341.0</ele><time>2026-04-11T08:58:54.001Z</time></trkpt><trkpt lat="43.315989962449144" lon="12.374307715205981"><ele>344.0</ele><time>2026-04-11T08:58:55.001Z</time></trkpt><trkpt lat="43.31593459781219" lon="12.374179592425259"><ele>344.0</ele><time>2026-04-11T08:58:56.001Z</time></trkpt><trkpt lat="43.31586800899394" lon="12.3740628738078"><ele>344.0</ele><time>2026-04-11T08:58:57.001Z</time></trkpt><trkpt lat="43.315778960626155" lon="12.373960527213182"><ele>344.0</ele><time>2026-04-11T08:58:58.001Z</time></trkpt><trkpt lat="43.315688213336884" lon="12.373851224578523"><ele>344.0</ele><time>2026-04-11T08:58:59.001Z</time></trkpt><trkpt lat="43.31559283191272" lon="12.373715293409395"><ele>345.5</ele><time>2026-04-11T08:59:00.001Z</time></trkpt><trkpt lat="43.31549715676898" lon="12.373571620900485"><ele>347.0</ele><time>2026-04-11T08:59:01.001Z</time></trkpt><trkpt lat="43.31540606745962" lon="12.373476691477295"><ele>348.5</ele><time>2026-04-11T08:59:02.001Z</time></trkpt><trkpt lat="43.31530911595172" lon="12.373425620342946"><ele>350.0</ele><time>2026-04-11T08:59:03.001Z</time></trkpt><trkpt lat="43.31519241781304" lon="12.37338214535453"><ele>350.0</ele><time>2026-04-11T08:59:04.001Z</time></trkpt><trkpt lat="43.31507981986514" lon="12.373322241482532"><ele>350.0</ele><time>2026-04-11T08:59:05.001Z</time></trkpt><trkpt lat="43.31500343193405" lon="12.373223774561232"><ele>350.0</ele><time>2026-04-11T08:59:06.001Z</time></trkpt><trkpt lat="43.314906807765524" lon="12.373110639006784"><ele>350.0</ele><time>2026-04-11T08:59:07.001Z</time></trkpt><trkpt lat="43.314816825720364" lon="12.37297125209755"><ele>354.0</ele><time>2026-04-11T08:59:08.001Z</time></trkpt><trkpt lat="43.31475927723852" lon="12.372881850056741"><ele>358.0</ele><time>2026-04-11T08:59:09.001Z</time></trkpt><trkpt lat="43.314780749220105" lon="12.372766236763976"><ele>362.0</ele><time>2026-04-11T08:59:11.001Z</time></trkpt><trkpt lat="43.31484781093233" lon="12.372830715256486"><ele>366.0</ele><time>2026-04-11T08:59:13.001Z</time></trkpt><trkpt lat="43.31490768898937" lon="12.372873790248397"><ele>370.0</ele><time>2026-04-11T08:59:15.001Z</time></trkpt><trkpt lat="43.31500035033452" lon="12.37291035276108"><ele>374.0</ele><time>2026-04-11T08:59:16.001Z</time></trkpt><trkpt lat="43.31512929807099" lon="12.372968091941413"><ele>372.79999999999995</ele><time>2026-04-11T08:59:17.001Z</time></trkpt><trkpt lat="43.31523836542353" lon="12.373031974832543"><ele>371.59999999999997</ele><time>2026-04-11T08:59:18.001Z</time></trkpt><trkpt lat="43.31533059549284" lon="12.373092108569042"><ele>370.4</ele><time>2026-04-11T08:59:19.001Z</time></trkpt><trkpt lat="43.315416993802465" lon="12.373146798285473"><ele>369.2</ele><time>2026-04-11T08:59:20.001Z</time></trkpt><trkpt lat="43.315518066488096" lon="12.373191441020362"><ele>368.0</ele><time>2026-04-11T08:59:21.001Z</time></trkpt><trkpt lat="43.315634010554426" lon="12.373208018020184"><ele>368.0</ele><time>2026-04-11T08:59:22.001Z</time></trkpt><trkpt lat="43.315772989740644" lon="12.373206237834411"><ele>368.0</ele><time>2026-04-11T08:59:23.001Z</time></trkpt><trkpt lat="43.315925125031384" lon="12.373212629060284"><ele>368.0</ele><time>2026-04-11T08:59:24.001Z</time></trkpt><trkpt lat="43.31607336171137" lon="12.373238290535783"><ele>368.0</ele><time>2026-04-11T08:59:25.001Z</time></trkpt><trkpt lat="43.31622051328772" lon="12.373290360800818"><ele>368.0</ele><time>2026-04-11T08:59:26.001Z</time></trkpt><trkpt lat="43.31636410567007" lon="12.373350197174094"><ele>368.0</ele><time>2026-04-11T08:59:27.001Z</time></trkpt><trkpt lat="43.316498700276384" lon="12.373408825523114"><ele>368.0</ele><time>2026-04-11T08:59:28.001Z</time></trkpt><trkpt lat="43.31662061610024" lon="12.373476321191974"><ele>368.0</ele><time>2026-04-11T08:59:29.001Z</time></trkpt><trkpt lat="43.316729630939534" lon="12.373585194916956"><ele>367.5</ele><time>2026-04-11T08:59:30.001Z</time></trkpt><trkpt lat="43.31683220873299" lon="12.373711185294443"><ele>367.0</ele><time>2026-04-11T08:59:31.001Z</time></trkpt><trkpt lat="43.316928950345485" lon="12.37385321018163"><ele>366.5</ele><time>2026-04-11T08:59:32.001Z</time></trkpt><trkpt lat="43.317002699460005" lon="12.37399706493445"><ele>366.0</ele><time>2026-04-11T08:59:33.001Z</time></trkpt><trkpt lat="43.31707638041636" lon="12.374105704936522"><ele>366.0</ele><time>2026-04-11T08:59:34.001Z</time></trkpt><trkpt lat="43.317137528714994" lon="12.374176173401501"><ele>366.0</ele><time>2026-04-11T08:59:35.001Z</time></trkpt><trkpt lat="43.317250129249025" lon="12.37423722843991"><ele>366.0</ele><time>2026-04-11T08:59:37.001Z</time></trkpt><trkpt lat="43.317294226570986" lon="12.374331729265753"><ele>366.0</ele><time>2026-04-11T08:59:38.001Z</time></trkpt><trkpt lat="43.31736484828925" lon="12.374488894123704"><ele>366.0</ele><time>2026-04-11T08:59:39.001Z</time></trkpt><trkpt lat="43.31746288847093" lon="12.374674858570398"><ele>370.0</ele><time>2026-04-11T08:59:40.001Z</time></trkpt><trkpt lat="43.31762211827129" lon="12.374840467026894"><ele>374.0</ele><time>2026-04-11T08:59:41.001Z</time></trkpt><trkpt lat="43.31777913666831" lon="12.375022572851064"><ele>378.0</ele><time>2026-04-11T08:59:42.001Z</time></trkpt><trkpt lat="43.31793346047427" lon="12.375161086023047"><ele>378.0</ele><time>2026-04-11T08:59:43.001Z</time></trkpt><trkpt lat="43.31804590166612" lon="12.375275379410345"><ele>378.0</ele><time>2026-04-11T08:59:44.001Z</time></trkpt><trkpt lat="43.31813895266747" lon="12.375351058972498"><ele>378.0</ele><time>2026-04-11T08:59:45.001Z</time></trkpt><trkpt lat="43.31822287211814" lon="12.375473253518829"><ele>378.0</ele><time>2026-04-11T08:59:46.001Z</time></trkpt><trkpt lat="43.31829465768754" lon="12.37560150508202"><ele>379.0</ele><time>2026-04-11T08:59:47.001Z</time></trkpt><trkpt lat="43.318345451291776" lon="12.375760209811387"><ele>380.0</ele><time>2026-04-11T08:59:48.001Z</time></trkpt><trkpt lat="43.3183749572743" lon="12.375940898251095"><ele>381.0</ele><time>2026-04-11T08:59:49.001Z</time></trkpt><trkpt lat="43.31840289393398" lon="12.376097420539987"><ele>382.0</ele><time>2026-04-11T08:59:50.001Z</time></trkpt><trkpt lat="43.318433356068155" lon="12.376239456739544"><ele>379.8</ele><time>2026-04-11T08:59:51.001Z</time></trkpt><trkpt lat="43.31846562628093" lon="12.376376695128778"><ele>377.6</ele><time>2026-04-11T08:59:52.001Z</time></trkpt><trkpt lat="43.31851236915526" lon="12.37649707714378"><ele>375.40000000000003</ele><time>2026-04-11T08:59:53Z</time></trkpt><trkpt lat="43.31857724980936" lon="12.37660065651986"><ele>373.20000000000005</ele><time>2026-04-11T08:59:54Z</time></trkpt><trkpt lat="43.31864842137218" lon="12.376701557655124"><ele>371.0</ele><time>2026-04-11T08:59:55Z</time></trkpt><trkpt lat="43.31875977456786" lon="12.376757294500095"><ele>371.0</ele><time>2026-04-11T08:59:56Z</time></trkpt><trkpt lat="43.31887556970899" lon="12.37679788728445"><ele>371.0</ele><time>2026-04-11T08:59:57Z</time></trkpt><trkpt lat="43.31899355400979" lon="12.376825842258311"><ele>371.0</ele><time>2026-04-11T08:59:58Z</time></trkpt><trkpt lat="43.31910278446962" lon="12.376899255933678"><ele>371.0</ele><time>2026-04-11T08:59:59Z</time></trkpt><trkpt lat="43.31921331499469" lon="12.376978909129422"><ele>370.0</ele><time>2026-04-11T09:00:00Z</time></trkpt><trkpt lat="43.31930760992717" lon="12.377096797321085"><ele>369.0</ele><time>2026-04-11T09:00:01Z</time></trkpt><trkpt lat="43.3193992511699" lon="12.377207755257801"><ele>368.0</ele><time>2026-04-11T09:00:02Z</time></trkpt><trkpt lat="43.31948093097865" lon="12.377311861470556"><ele>367.0</ele><time>2026-04-11T09:00:03Z</time></trkpt><trkpt lat="43.31956633543424" lon="12.377412813992537"><ele>367.0</ele><time>2026-04-11T09:00:04Z</time></trkpt><trkpt lat="43.319654458743045" lon="12.377517198921684"><ele>367.0</ele><time>2026-04-11T09:00:05Z</time></trkpt><trkpt lat="43.319748925031334" lon="12.377613005193782"><ele>367.0</ele><time>2026-04-11T09:00:06Z</time></trkpt><trkpt lat="43.319839886447205" lon="12.377710130869481"><ele>367.0</ele><time>2026-04-11T09:00:07Z</time></trkpt><trkpt lat="43.31993268536563" lon="12.377811556537333"><ele>365.75</ele><time>2026-04-11T09:00:08Z</time></trkpt><trkpt lat="43.320024478508344" lon="12.377922084781934"><ele>364.5</ele><time>2026-04-11T09:00:09Z</time></trkpt><trkpt lat="43.32011142797127" lon="12.378039832271696"><ele>363.25</ele><time>2026-04-11T09:00:10Z</time></trkpt><trkpt lat="43.320194926323175" lon="12.37816200925161"><ele>362.0</ele><time>2026-04-11T09:00:11Z</time></trkpt><trkpt lat="43.320272591298135" lon="12.3782898122825"><ele>362.0</ele><time>2026-04-11T09:00:12Z</time></trkpt><trkpt lat="43.32034544880506" lon="12.3784206242334"><ele>362.0</ele><time>2026-04-11T09:00:13Z</time></trkpt><trkpt lat="43.32041120652535" lon="12.378561846378378"><ele>362.0</ele><time>2026-04-11T09:00:14Z</time></trkpt><trkpt lat="43.32046747237835" lon="12.37871222957839"><ele>362.0</ele><time>2026-04-11T09:00:15Z</time></trkpt><trkpt lat="43.32051029586231" lon="12.378870470575489"><ele>364.0</ele><time>2026-04-11T09:00:16Z</time></trkpt><trkpt lat="43.32053867251331" lon="12.379030390145681"><ele>366.0</ele><time>2026-04-11T09:00:17Z</time></trkpt><trkpt lat="43.32056237889121" lon="12.379171933566834"><ele>368.0</ele><time>2026-04-11T09:00:18Z</time></trkpt><trkpt lat="43.32059732855192" lon="12.379308329466266"><ele>370.0</ele><time>2026-04-11T09:00:19Z</time></trkpt><trkpt lat="43.32066324808209" lon="12.37945313170524"><ele>370.0</ele><time>2026-04-11T09:00:20Z</time></trkpt><trkpt lat="43.32074771130176" lon="12.379585024907037"><ele>370.0</ele><time>2026-04-11T09:00:21Z</time></trkpt><trkpt lat="43.32083732958401" lon="12.379705297171565"><ele>370.0</ele><time>2026-04-11T09:00:22Z</time></trkpt><trkpt lat="43.320945996950535" lon="12.379816198458151"><ele>370.0</ele><time>2026-04-11T09:00:23Z</time></trkpt><trkpt lat="43.32107076481354" lon="12.379911586741692"><ele>368.66666666666663</ele><time>2026-04-11T09:00:24Z</time></trkpt><trkpt lat="43.32122246446472" lon="12.379970252839126"><ele>367.3333333333333</ele><time>2026-04-11T09:00:25Z</time></trkpt><trkpt lat="43.321386470981565" lon="12.37996974985953"><ele>366.0</ele><time>2026-04-11T09:00:26Z</time></trkpt><trkpt lat="43.32155564747687" lon="12.38001495671658"><ele>366.0</ele><time>2026-04-11T09:00:27Z</time></trkpt><trkpt lat="43.321709316414896" lon="12.380039886430614"><ele>366.0</ele><time>2026-04-11T09:00:28Z</time></trkpt><trkpt lat="43.32186393488412" lon="12.380066182453254"><ele>366.0</ele><time>2026-04-11T09:00:29Z</time></trkpt><trkpt lat="43.32201298336227" lon="12.380104277170892"><ele>366.0</ele><time>2026-04-11T09:00:30Z</time></trkpt><trkpt lat="43.32215617861408" lon="12.380157792857393"><ele>366.0</ele><time>2026-04-11T09:00:31Z</time></trkpt><trkpt lat="43.322266595227624" lon="12.380283376012297"><ele>366.0</ele><time>2026-04-11T09:00:32Z</time></trkpt><trkpt lat="43.322352938484165" lon="12.38045152388148"><ele>366.0</ele><time>2026-04-11T09:00:33Z</time></trkpt><trkpt lat="43.32242179896589" lon="12.380644432298777"><ele>362.25</ele><time>2026-04-11T09:00:34Z</time></trkpt><trkpt lat="43.32248680566564" lon="12.380833800413217"><ele>358.5</ele><time>2026-04-11T09:00:35Z</time></trkpt><trkpt lat="43.32255071230185" lon="12.381000462863037"><ele>354.75</ele><time>2026-04-11T09:00:36Z</time></trkpt><trkpt lat="43.32262542925554" lon="12.381141332902734"><ele>351.0</ele><time>2026-04-11T09:00:37Z</time></trkpt><trkpt lat="43.32272049725384" lon="12.381241135908027"><ele>351.0</ele><time>2026-04-11T09:00:38Z</time></trkpt><trkpt lat="43.32283251396319" lon="12.381294641234339"><ele>351.0</ele><time>2026-04-11T09:00:39Z</time></trkpt><trkpt lat="43.32295055878169" lon="12.381265317749452"><ele>351.0</ele><time>2026-04-11T09:00:40Z</time></trkpt><trkpt lat="43.32306127524099" lon="12.381178895500637"><ele>351.0</ele><time>2026-04-11T09:00:41Z</time></trkpt><trkpt lat="43.32317811306573" lon="12.381051536007439"><ele>352.0</ele><time>2026-04-11T09:00:42Z</time></trkpt><trkpt lat="43.32328006384807" lon="12.380940251817034"><ele>353.0</ele><time>2026-04-11T09:00:43Z</time></trkpt><trkpt lat="43.3233648452678" lon="12.380863006717153"><ele>354.0</ele><time>2026-04-11T09:00:44Z</time></trkpt><trkpt lat="43.32347582907051" lon="12.380799416039771"><ele>355.0</ele><time>2026-04-11T09:00:45Z</time></trkpt><trkpt lat="43.32358887801631" lon="12.380840607858353"><ele>355.0</ele><time>2026-04-11T09:00:46Z</time></trkpt><trkpt lat="43.32366280962266" lon="12.38095398768326"><ele>355.0</ele><time>2026-04-11T09:00:47Z</time></trkpt><trkpt lat="43.323729719120216" lon="12.381114208257909"><ele>355.0</ele><time>2026-04-11T09:00:48Z</time></trkpt><trkpt lat="43.32378922421514" lon="12.3812773680053"><ele>355.0</ele><time>2026-04-11T09:00:49.001Z</time></trkpt><trkpt lat="43.323848289808794" lon="12.381406784865826"><ele>351.8</ele><time>2026-04-11T09:00:50.001Z</time></trkpt><trkpt lat="43.323919987318945" lon="12.38151641502312"><ele>348.6</ele><time>2026-04-11T09:00:51.001Z</time></trkpt><trkpt lat="43.32398366601967" lon="12.381614109038315"><ele>345.4</ele><time>2026-04-11T09:00:52.001Z</time></trkpt><trkpt lat="43.324086553493856" lon="12.38165337268168"><ele>342.2</ele><time>2026-04-11T09:00:53.001Z</time></trkpt><trkpt lat="43.324203513572435" lon="12.381555174023125"><ele>339.0</ele><time>2026-04-11T09:00:54.001Z</time></trkpt><trkpt lat="43.32433779153356" lon="12.381483378123503"><ele>339.0</ele><time>2026-04-11T09:00:55.001Z</time></trkpt><trkpt lat="43.32446176411993" lon="12.381379897986406"><ele>339.0</ele><time>2026-04-11T09:00:56.001Z</time></trkpt><trkpt lat="43.324562031151004" lon="12.381330766738905"><ele>339.0</ele><time>2026-04-11T09:00:57.001Z</time></trkpt><trkpt lat="43.32465332522814" lon="12.381346425395593"><ele>339.0</ele><time>2026-04-11T09:00:58.001Z</time></trkpt><trkpt lat="43.324731705878435" lon="12.381436484273028"><ele>339.0</ele><time>2026-04-11T09:00:59.001Z</time></trkpt><trkpt lat="43.32480941637464" lon="12.381557268120305"><ele>341.5</ele><time>2026-04-11T09:01:00.001Z</time></trkpt><trkpt lat="43.32489319373213" lon="12.381750659861039"><ele>344.0</ele><time>2026-04-11T09:01:01.001Z</time></trkpt><trkpt lat="43.32498007865175" lon="12.38191427769271"><ele>346.5</ele><time>2026-04-11T09:01:02.001Z</time></trkpt><trkpt lat="43.32506450512216" lon="12.38205385940735"><ele>349.0</ele><time>2026-04-11T09:01:03.001Z</time></trkpt><trkpt lat="43.325143153148886" lon="12.382190028493518"><ele>345.5</ele><time>2026-04-11T09:01:04.001Z</time></trkpt><trkpt lat="43.325266012915364" lon="12.382266954843253"><ele>342.0</ele><time>2026-04-11T09:01:05.001Z</time></trkpt><trkpt lat="43.32539568461046" lon="12.38234461141762"><ele>338.5</ele><time>2026-04-11T09:01:06.001Z</time></trkpt><trkpt lat="43.32551456138747" lon="12.382432711814642"><ele>335.0</ele><time>2026-04-11T09:01:07.001Z</time></trkpt><trkpt lat="43.32563972919539" lon="12.38249710986236"><ele>335.0</ele><time>2026-04-11T09:01:08.001Z</time></trkpt><trkpt lat="43.32576160648441" lon="12.38255357832384"><ele>335.0</ele><time>2026-04-11T09:01:09.001Z</time></trkpt><trkpt lat="43.32588856101215" lon="12.38258867112616"><ele>335.0</ele><time>2026-04-11T09:01:10.001Z</time></trkpt><trkpt lat="43.326010215847255" lon="12.382554895695732"><ele>335.0</ele><time>2026-04-11T09:01:11.001Z</time></trkpt><trkpt lat="43.326122051369715" lon="12.382538254770333"><ele>335.0</ele><time>2026-04-11T09:01:12.001Z</time></trkpt><trkpt lat="43.326211597818464" lon="12.38249349123464"><ele>335.0</ele><time>2026-04-11T09:01:13.001Z</time></trkpt><trkpt lat="43.32629729412041" lon="12.382450452139075"><ele>335.0</ele><time>2026-04-11T09:01:14.001Z</time></trkpt><trkpt lat="43.326376271246346" lon="12.382411886921316"><ele>335.0</ele><time>2026-04-11T09:01:15.001Z</time></trkpt><trkpt lat="43.32645455974598" lon="12.3823858785059"><ele>335.0</ele><time>2026-04-11T09:01:16.001Z</time></trkpt><trkpt lat="43.32653356846617" lon="12.382383860562797"><ele>335.0</ele><time>2026-04-11T09:01:17.001Z</time></trkpt><trkpt lat="43.326624979391056" lon="12.382416495603977"><ele>335.2</ele><time>2026-04-11T09:01:18.001Z</time></trkpt><trkpt lat="43.32669758943981" lon="12.382509583366627"><ele>335.4</ele><time>2026-04-11T09:01:19.001Z</time></trkpt><trkpt lat="43.32675793566999" lon="12.38263082693205"><ele>335.6</ele><time>2026-04-11T09:01:20.001Z</time></trkpt><trkpt lat="43.32678782470375" lon="12.382763270184348"><ele>335.8</ele><time>2026-04-11T09:01:21.001Z</time></trkpt><trkpt lat="43.326768695529125" lon="12.382895269201567"><ele>336.0</ele><time>2026-04-11T09:01:22.001Z</time></trkpt><trkpt lat="43.3267006400141" lon="12.383029454281754"><ele>335.25</ele><time>2026-04-11T09:01:23.001Z</time></trkpt><trkpt lat="43.32660716469872" lon="12.38316324083955"><ele>334.5</ele><time>2026-04-11T09:01:24.001Z</time></trkpt><trkpt lat="43.326528118287854" lon="12.383274254256216"><ele>333.75</ele><time>2026-04-11T09:01:25.001Z</time></trkpt><trkpt lat="43.32645509832213" lon="12.383392413906547"><ele>333.0</ele><time>2026-04-11T09:01:26.001Z</time></trkpt><trkpt lat="43.32638753023574" lon="12.383506438432757"><ele>329.4</ele><time>2026-04-11T09:01:27.001Z</time></trkpt><trkpt lat="43.32632388926061" lon="12.383610543209825"><ele>325.79999999999995</ele><time>2026-04-11T09:01:28.001Z</time></trkpt><trkpt lat="43.326271178264186" lon="12.38371736083893"><ele>322.2</ele><time>2026-04-11T09:01:29.001Z</time></trkpt><trkpt lat="43.32623870603244" lon="12.383834396973278"><ele>318.6</ele><time>2026-04-11T09:01:30.001Z</time></trkpt><trkpt lat="43.32623775656524" lon="12.383957752590124"><ele>315.0</ele><time>2026-04-11T09:01:31.001Z</time></trkpt><trkpt lat="43.3262586873896" lon="12.384101789706802"><ele>317.75</ele><time>2026-04-11T09:01:32.001Z</time></trkpt><trkpt lat="43.32633703586748" lon="12.384239471191966"><ele>320.5</ele><time>2026-04-11T09:01:33.001Z</time></trkpt><trkpt lat="43.32645612313314" lon="12.384334376170342"><ele>323.25</ele><time>2026-04-11T09:01:34.001Z</time></trkpt><trkpt lat="43.326572052388" lon="12.384393263394907"><ele>326.0</ele><time>2026-04-11T09:01:35.001Z</time></trkpt><trkpt lat="43.32667841028381" lon="12.384444582959636"><ele>326.0</ele><time>2026-04-11T09:01:36.001Z</time></trkpt><trkpt lat="43.32677828042401" lon="12.384490445800399"><ele>326.0</ele><time>2026-04-11T09:01:37.001Z</time></trkpt><trkpt lat="43.326868755871146" lon="12.384552558623817"><ele>326.0</ele><time>2026-04-11T09:01:38.001Z</time></trkpt><trkpt lat="43.3269349494762" lon="12.384647563284272"><ele>326.0</ele><time>2026-04-11T09:01:39.001Z</time></trkpt><trkpt lat="43.326970241111646" lon="12.384779500997048"><ele>326.0</ele><time>2026-04-11T09:01:40.001Z</time></trkpt><trkpt lat="43.326939270867314" lon="12.384921100469795"><ele>323.25</ele><time>2026-04-11T09:01:41.001Z</time></trkpt><trkpt lat="43.32686552806805" lon="12.38505215827365"><ele>320.5</ele><time>2026-04-11T09:01:42.001Z</time></trkpt><trkpt lat="43.32677071453922" lon="12.385155159377078"><ele>317.75</ele><time>2026-04-11T09:01:43.001Z</time></trkpt><trkpt lat="43.32667732537893" lon="12.385246532431214"><ele>315.0</ele><time>2026-04-11T09:01:44.001Z</time></trkpt><trkpt lat="43.32660222656102" lon="12.385361015652586"><ele>315.0</ele><time>2026-04-11T09:01:45.001Z</time></trkpt><trkpt lat="43.32654471163885" lon="12.38549938529614"><ele>315.0</ele><time>2026-04-11T09:01:46.001Z</time></trkpt><trkpt lat="43.32650882617404" lon="12.385648478799405"><ele>315.0</ele><time>2026-04-11T09:01:47.001Z</time></trkpt><trkpt lat="43.32650837096094" lon="12.385819016273064"><ele>315.0</ele><time>2026-04-11T09:01:48.001Z</time></trkpt><trkpt lat="43.32653628236637" lon="12.38600059789924"><ele>315.0</ele><time>2026-04-11T09:01:49.001Z</time></trkpt><trkpt lat="43.32657745782325" lon="12.386183526442931"><ele>315.0</ele><time>2026-04-11T09:01:50.001Z</time></trkpt><trkpt lat="43.326588975299764" lon="12.386367764009211"><ele>315.0</ele><time>2026-04-11T09:01:51.001Z</time></trkpt><trkpt lat="43.32661767685389" lon="12.386550444741122"><ele>315.0</ele><time>2026-04-11T09:01:52.001Z</time></trkpt><trkpt lat="43.32662334616966" lon="12.386742165332006"><ele>312.75</ele><time>2026-04-11T09:01:53.001Z</time></trkpt><trkpt lat="43.326621844138145" lon="12.3869506811877"><ele>310.5</ele><time>2026-04-11T09:01:54.001Z</time></trkpt><trkpt lat="43.3266222532986" lon="12.387156743288015"><ele>308.25</ele><time>2026-04-11T09:01:55.001Z</time></trkpt><trkpt lat="43.32662527603771" lon="12.387357609589664"><ele>306.0</ele><time>2026-04-11T09:01:56.001Z</time></trkpt><trkpt lat="43.32663151246103" lon="12.387555525693752"><ele>304.25</ele><time>2026-04-11T09:01:57.001Z</time></trkpt><trkpt lat="43.32664078349406" lon="12.387748435558489"><ele>302.5</ele><time>2026-04-11T09:01:58.001Z</time></trkpt><trkpt lat="43.32664519882296" lon="12.38794412482239"><ele>300.75</ele><time>2026-04-11T09:01:59Z</time></trkpt><trkpt lat="43.32664261942546" lon="12.388127124884171"><ele>299.0</ele><time>2026-04-11T09:02:00Z</time></trkpt><trkpt lat="43.32663803796521" lon="12.388290679960559"><ele>298.75</ele><time>2026-04-11T09:02:01Z</time></trkpt><trkpt lat="43.326654603065876" lon="12.388440635158423"><ele>298.5</ele><time>2026-04-11T09:02:02Z</time></trkpt><trkpt lat="43.3266822758728" lon="12.388593529342131"><ele>298.25</ele><time>2026-04-11T09:02:03Z</time></trkpt><trkpt lat="43.3267627316155" lon="12.388739180395616"><ele>298.0</ele><time>2026-04-11T09:02:04Z</time></trkpt><trkpt lat="43.326860094359006" lon="12.388850915918828"><ele>296.25</ele><time>2026-04-11T09:02:05Z</time></trkpt><trkpt lat="43.3269523315455" lon="12.388956897361282"><ele>294.5</ele><time>2026-04-11T09:02:06Z</time></trkpt><trkpt lat="43.32703107974719" lon="12.389068645573593"><ele>292.75</ele><time>2026-04-11T09:02:07Z</time></trkpt><trkpt lat="43.32708630648284" lon="12.389202040566804"><ele>291.0</ele><time>2026-04-11T09:02:08Z</time></trkpt><trkpt lat="43.32706827595606" lon="12.389364574455216"><ele>291.0</ele><time>2026-04-11T09:02:09Z</time></trkpt><trkpt lat="43.32700001663783" lon="12.389517313550344"><ele>291.0</ele><time>2026-04-11T09:02:10Z</time></trkpt><trkpt lat="43.32691269115121" lon="12.389677896078208"><ele>291.0</ele><time>2026-04-11T09:02:11Z</time></trkpt><trkpt lat="43.32683458401135" lon="12.389853436357805"><ele>291.0</ele><time>2026-04-11T09:02:12Z</time></trkpt><trkpt lat="43.32677263201829" lon="12.390035208609945"><ele>291.0</ele><time>2026-04-11T09:02:13Z</time></trkpt><trkpt lat="43.32671562770412" lon="12.390211785647686"><ele>291.0</ele><time>2026-04-11T09:02:14Z</time></trkpt><trkpt lat="43.32666551014898" lon="12.39039105568555"><ele>291.0</ele><time>2026-04-11T09:02:15Z</time></trkpt><trkpt lat="43.32662300413965" lon="12.390574592497233"><ele>291.0</ele><time>2026-04-11T09:02:16Z</time></trkpt><trkpt lat="43.32658465713056" lon="12.390759564847473"><ele>291.0</ele><time>2026-04-11T09:02:17Z</time></trkpt><trkpt lat="43.32654656191048" lon="12.390941783819642"><ele>291.0</ele><time>2026-04-11T09:02:18Z</time></trkpt><trkpt lat="43.3265084684098" lon="12.391119787856725"><ele>291.0</ele><time>2026-04-11T09:02:19Z</time></trkpt><trkpt lat="43.3264746735027" lon="12.391298418942894"><ele>291.0</ele><time>2026-04-11T09:02:20Z</time></trkpt><trkpt lat="43.32644122761518" lon="12.391472214840906"><ele>290.8</ele><time>2026-04-11T09:02:21Z</time></trkpt><trkpt lat="43.32640978410153" lon="12.39162445825663"><ele>290.6</ele><time>2026-04-11T09:02:22Z</time></trkpt><trkpt lat="43.326385127367054" lon="12.391758289393072"><ele>290.4</ele><time>2026-04-11T09:02:23Z</time></trkpt><trkpt lat="43.326362594066964" lon="12.391877589767711"><ele>290.2</ele><time>2026-04-11T09:02:24Z</time></trkpt><trkpt lat="43.32634562175721" lon="12.39197813081863"><ele>290.0</ele><time>2026-04-11T09:02:25Z</time></trkpt><trkpt lat="43.32630109275716" lon="12.392125134349525"><ele>288.4</ele><time>2026-04-11T09:02:27Z</time></trkpt><trkpt lat="43.326267239422464" lon="12.39220470439226"><ele>286.8</ele><time>2026-04-11T09:02:28Z</time></trkpt><trkpt lat="43.32622904042525" lon="12.392319967273947"><ele>285.2</ele><time>2026-04-11T09:02:29Z</time></trkpt><trkpt lat="43.32619722062033" lon="12.392479635959615"><ele>283.6</ele><time>2026-04-11T09:02:30Z</time></trkpt><trkpt lat="43.326177733482005" lon="12.392665702967248"><ele>282.0</ele><time>2026-04-11T09:02:31Z</time></trkpt><trkpt lat="43.326165210696885" lon="12.392864976844043"><ele>282.25</ele><time>2026-04-11T09:02:32Z</time></trkpt><trkpt lat="43.32614703064317" lon="12.393066105213622"><ele>282.5</ele><time>2026-04-11T09:02:33Z</time></trkpt><trkpt lat="43.32613088638055" lon="12.393271669618342"><ele>282.75</ele><time>2026-04-11T09:02:34Z</time></trkpt><trkpt lat="43.32611536104895" lon="12.393478413288342"><ele>283.0</ele><time>2026-04-11T09:02:35Z</time></trkpt><trkpt lat="43.32609891570973" lon="12.39368674251014"><ele>283.0</ele><time>2026-04-11T09:02:36Z</time></trkpt><trkpt lat="43.326081917983295" lon="12.393892136199746"><ele>283.0</ele><time>2026-04-11T09:02:37Z</time></trkpt><trkpt lat="43.32606638435009" lon="12.394101086370416"><ele>283.0</ele><time>2026-04-11T09:02:38Z</time></trkpt><trkpt lat="43.326051899052004" lon="12.394311798700368"><ele>283.0</ele><time>2026-04-11T09:02:39Z</time></trkpt><trkpt lat="43.326037221329024" lon="12.39451967789645"><ele>283.0</ele><time>2026-04-11T09:02:40Z</time></trkpt><trkpt lat="43.32601920417815" lon="12.394733251029185"><ele>283.0</ele><time>2026-04-11T09:02:41Z</time></trkpt><trkpt lat="43.3260012343405" lon="12.394945953593195"><ele>282.66666666666663</ele><time>2026-04-11T09:02:42Z</time></trkpt><trkpt lat="43.32598355201682" lon="12.395168803721825"><ele>282.3333333333333</ele><time>2026-04-11T09:02:43Z</time></trkpt><trkpt lat="43.32596688676328" lon="12.395394764128815"><ele>282.0</ele><time>2026-04-11T09:02:44Z</time></trkpt><trkpt lat="43.32595124469782" lon="12.39562011942939"><ele>282.0</ele><time>2026-04-11T09:02:45Z</time></trkpt><trkpt lat="43.32593435637982" lon="12.39584367484337"><ele>282.0</ele><time>2026-04-11T09:02:46Z</time></trkpt><trkpt lat="43.32591623816727" lon="12.396067349017702"><ele>282.0</ele><time>2026-04-11T09:02:47Z</time></trkpt><trkpt lat="43.325897714208885" lon="12.396288420176841"><ele>281.6666666666667</ele><time>2026-04-11T09:02:48Z</time></trkpt><trkpt lat="43.325864569559954" lon="12.396507607706969"><ele>281.33333333333337</ele><time>2026-04-11T09:02:49Z</time></trkpt><trkpt lat="43.32584694976608" lon="12.396728142566003"><ele>281.0</ele><time>2026-04-11T09:02:50Z</time></trkpt><trkpt lat="43.32582853092621" lon="12.396952766730264"><ele>281.6666666666667</ele><time>2026-04-11T09:02:51Z</time></trkpt><trkpt lat="43.32581054702156" lon="12.39717289515879"><ele>282.3333333333333</ele><time>2026-04-11T09:02:52Z</time></trkpt><trkpt lat="43.32579255632497" lon="12.39739310670213"><ele>283.0</ele><time>2026-04-11T09:02:53Z</time></trkpt><trkpt lat="43.32577457514869" lon="12.397613201721924"><ele>283.0</ele><time>2026-04-11T09:02:54Z</time></trkpt><trkpt lat="43.32575641558058" lon="12.397835480309059"><ele>283.0</ele><time>2026-04-11T09:02:55Z</time></trkpt><trkpt lat="43.32575386200718" lon="12.398062113719337"><ele>283.0</ele><time>2026-04-11T09:02:56Z</time></trkpt><trkpt lat="43.32573285054438" lon="12.398287396825417"><ele>283.3333333333333</ele><time>2026-04-11T09:02:57Z</time></trkpt><trkpt lat="43.32571489762299" lon="12.39850296808397"><ele>283.6666666666667</ele><time>2026-04-11T09:02:58Z</time></trkpt><trkpt lat="43.325700270395295" lon="12.398713421404887"><ele>284.0</ele><time>2026-04-11T09:02:59Z</time></trkpt><trkpt lat="43.32567033442674" lon="12.398917021918809"><ele>285.33333333333337</ele><time>2026-04-11T09:03:00.001Z</time></trkpt><trkpt lat="43.32565964443917" lon="12.399127502557581"><ele>286.6666666666667</ele><time>2026-04-11T09:03:01.001Z</time></trkpt><trkpt lat="43.325658023525506" lon="12.399353233097363"><ele>288.0</ele><time>2026-04-11T09:03:02.001Z</time></trkpt><trkpt lat="43.32566926608641" lon="12.399590178986758"><ele>288.0</ele><time>2026-04-11T09:03:03.001Z</time></trkpt><trkpt lat="43.32569907297738" lon="12.399839028879196"><ele>288.0</ele><time>2026-04-11T09:03:04.001Z</time></trkpt><trkpt lat="43.325734033914735" lon="12.400081110016428"><ele>288.0</ele><time>2026-04-11T09:03:05.001Z</time></trkpt><trkpt lat="43.325767847676595" lon="12.40031124733055"><ele>289.0</ele><time>2026-04-11T09:03:06.001Z</time></trkpt><trkpt lat="43.32581558868326" lon="12.400529789716085"><ele>290.0</ele><time>2026-04-11T09:03:07.001Z</time></trkpt><trkpt lat="43.32584801696913" lon="12.400753973610701"><ele>291.0</ele><time>2026-04-11T09:03:08.001Z</time></trkpt><trkpt lat="43.32588839917914" lon="12.400982594641498"><ele>291.0</ele><time>2026-04-11T09:03:09.001Z</time></trkpt><trkpt lat="43.32594367050583" lon="12.401208602838338"><ele>291.0</ele><time>2026-04-11T09:03:10.001Z</time></trkpt><trkpt lat="43.32602854872922" lon="12.401426963644747"><ele>291.0</ele><time>2026-04-11T09:03:11.001Z</time></trkpt><trkpt lat="43.3261418713536" lon="12.401623410197422"><ele>291.6666666666667</ele><time>2026-04-11T09:03:12.001Z</time></trkpt><trkpt lat="43.32628190882591" lon="12.40179712503499"><ele>292.33333333333337</ele><time>2026-04-11T09:03:13.001Z</time></trkpt><trkpt lat="43.3264340560015" lon="12.401958768502581"><ele>293.0</ele><time>2026-04-11T09:03:14.001Z</time></trkpt><trkpt lat="43.326588521832406" lon="12.402117453698374"><ele>293.33333333333337</ele><time>2026-04-11T09:03:15.001Z</time></trkpt><trkpt lat="43.326743372254974" lon="12.402280012072515"><ele>293.6666666666667</ele><time>2026-04-11T09:03:16.001Z</time></trkpt><trkpt lat="43.32690114172609" lon="12.402428953914217"><ele>294.0</ele><time>2026-04-11T09:03:17.001Z</time></trkpt><trkpt lat="43.327072222950356" lon="12.40255736669126"><ele>296.6666666666667</ele><time>2026-04-11T09:03:18.001Z</time></trkpt><trkpt lat="43.327248876550875" lon="12.402677867242186"><ele>299.33333333333337</ele><time>2026-04-11T09:03:19.001Z</time></trkpt><trkpt lat="43.327434494824494" lon="12.40275900942919"><ele>302.0</ele><time>2026-04-11T09:03:20.001Z</time></trkpt><trkpt lat="43.32761923171066" lon="12.40282914285185"><ele>302.0</ele><time>2026-04-11T09:03:21.001Z</time></trkpt><trkpt lat="43.327795364357485" lon="12.402897362146437"><ele>302.0</ele><time>2026-04-11T09:03:22.001Z</time></trkpt><trkpt lat="43.32796389091494" lon="12.402968829477924"><ele>302.0</ele><time>2026-04-11T09:03:23.001Z</time></trkpt><trkpt lat="43.32812530107391" lon="12.403054191697922"><ele>299.6666666666667</ele><time>2026-04-11T09:03:24.001Z</time></trkpt><trkpt lat="43.328282187650366" lon="12.403162792359783"><ele>297.3333333333333</ele><time>2026-04-11T09:03:25.001Z</time></trkpt><trkpt lat="43.32842597028784" lon="12.403300362671361"><ele>295.0</ele><time>2026-04-11T09:03:26.001Z</time></trkpt><trkpt lat="43.32856722425656" lon="12.403454549505708"><ele>295.0</ele><time>2026-04-11T09:03:27.001Z</time></trkpt><trkpt lat="43.328695117475306" lon="12.403628066300401"><ele>295.0</ele><time>2026-04-11T09:03:28.001Z</time></trkpt><trkpt lat="43.32881348135153" lon="12.403818657139155"><ele>295.0</ele><time>2026-04-11T09:03:29.001Z</time></trkpt><trkpt lat="43.32892157906512" lon="12.404016776389163"><ele>296.0</ele><time>2026-04-11T09:03:30.001Z</time></trkpt><trkpt lat="43.329002467648046" lon="12.40423116160588"><ele>297.0</ele><time>2026-04-11T09:03:31.001Z</time></trkpt><trkpt lat="43.32906384285945" lon="12.404463253571569"><ele>298.0</ele><time>2026-04-11T09:03:32.001Z</time></trkpt><trkpt lat="43.329123488065214" lon="12.404705152964059"><ele>298.0</ele><time>2026-04-11T09:03:33.001Z</time></trkpt><trkpt lat="43.32916327132117" lon="12.404946834837766"><ele>298.0</ele><time>2026-04-11T09:03:34.001Z</time></trkpt><trkpt lat="43.32920462386558" lon="12.405186460668986"><ele>298.0</ele><time>2026-04-11T09:03:35.001Z</time></trkpt><trkpt lat="43.3292380418302" lon="12.405433818521427"><ele>297.0</ele><time>2026-04-11T09:03:36.001Z</time></trkpt><trkpt lat="43.32932254870424" lon="12.405664673846767"><ele>296.0</ele><time>2026-04-11T09:03:37.001Z</time></trkpt><trkpt lat="43.32941803753064" lon="12.405896267230295"><ele>295.0</ele><time>2026-04-11T09:03:38.001Z</time></trkpt><trkpt lat="43.32953699288661" lon="12.406109040012355"><ele>295.0</ele><time>2026-04-11T09:03:39.001Z</time></trkpt><trkpt lat="43.32967268325602" lon="12.406323193610833"><ele>295.0</ele><time>2026-04-11T09:03:40.001Z</time></trkpt><trkpt lat="43.329848927604246" lon="12.406499984811541"><ele>295.0</ele><time>2026-04-11T09:03:41.001Z</time></trkpt><trkpt lat="43.33004393414112" lon="12.40667499749906"><ele>296.66666666666663</ele><time>2026-04-11T09:03:42.001Z</time></trkpt><trkpt lat="43.330239231883596" lon="12.406842676362484"><ele>298.3333333333333</ele><time>2026-04-11T09:03:43.001Z</time></trkpt><trkpt lat="43.33042468600824" lon="12.406997877851335"><ele>300.0</ele><time>2026-04-11T09:03:44.001Z</time></trkpt><trkpt lat="43.33060607711963" lon="12.407145224884657"><ele>300.0</ele><time>2026-04-11T09:03:45.001Z</time></trkpt><trkpt lat="43.33078699533909" lon="12.4072904322788"><ele>300.0</ele><time>2026-04-11T09:03:46.001Z</time></trkpt><trkpt lat="43.330961435846014" lon="12.407432434129568"><ele>300.0</ele><time>2026-04-11T09:03:47.001Z</time></trkpt><trkpt lat="43.33112996431138" lon="12.407571663701376"><ele>300.0</ele><time>2026-04-11T09:03:48.001Z</time></trkpt><trkpt lat="43.331290077081185" lon="12.407718245102577"><ele>300.0</ele><time>2026-04-11T09:03:49.001Z</time></trkpt><trkpt lat="43.33142941613001" lon="12.40789566820032"><ele>300.0</ele><time>2026-04-11T09:03:50.001Z</time></trkpt><trkpt lat="43.33156867442994" lon="12.408089370093128"><ele>301.3333333333333</ele><time>2026-04-11T09:03:51.001Z</time></trkpt><trkpt lat="43.3317067375692" lon="12.408287180628257"><ele>302.66666666666663</ele><time>2026-04-11T09:03:52.001Z</time></trkpt><trkpt lat="43.331846610917275" lon="12.408489350240108"><ele>304.0</ele><time>2026-04-11T09:03:53.001Z</time></trkpt><trkpt lat="43.331987596808176" lon="12.40869117671531"><ele>303.3333333333333</ele><time>2026-04-11T09:03:54.001Z</time></trkpt><trkpt lat="43.332126829688036" lon="12.408890041122717"><ele>302.6666666666667</ele><time>2026-04-11T09:03:55.001Z</time></trkpt><trkpt lat="43.33226323943388" lon="12.409084873360136"><ele>302.0</ele><time>2026-04-11T09:03:56.001Z</time></trkpt><trkpt lat="43.33239798153183" lon="12.409277323753095"><ele>302.6666666666667</ele><time>2026-04-11T09:03:57.001Z</time></trkpt><trkpt lat="43.332533267070446" lon="12.409466592160742"><ele>303.3333333333333</ele><time>2026-04-11T09:03:58.001Z</time></trkpt><trkpt lat="43.332675524324905" lon="12.409653702642157"><ele>304.0</ele><time>2026-04-11T09:03:59.001Z</time></trkpt><trkpt lat="43.33283071781077" lon="12.409832736301976"><ele>304.0</ele><time>2026-04-11T09:04:00.001Z</time></trkpt><trkpt lat="43.33299100100284" lon="12.410014396746078"><ele>304.0</ele><time>2026-04-11T09:04:01.001Z</time></trkpt><trkpt lat="43.33315029091827" lon="12.410190572298314"><ele>304.0</ele><time>2026-04-11T09:04:02.001Z</time></trkpt><trkpt lat="43.33330348383077" lon="12.410358324635306"><ele>305.3333333333333</ele><time>2026-04-11T09:04:03.001Z</time></trkpt><trkpt lat="43.33344713835167" lon="12.41053101305101"><ele>306.6666666666667</ele><time>2026-04-11T09:04:04.001Z</time></trkpt><trkpt lat="43.33358287634617" lon="12.41070062795101"><ele>308.0</ele><time>2026-04-11T09:04:05Z</time></trkpt><trkpt lat="43.33370775300396" lon="12.41087571388202"><ele>308.0</ele><time>2026-04-11T09:04:06Z</time></trkpt><trkpt lat="43.33382110057655" lon="12.411050296080798"><ele>308.0</ele><time>2026-04-11T09:04:07Z</time></trkpt><trkpt lat="43.33392423599347" lon="12.411227537097133"><ele>308.0</ele><time>2026-04-11T09:04:08Z</time></trkpt><trkpt lat="43.33403811577332" lon="12.411383071063632"><ele>310.33333333333337</ele><time>2026-04-11T09:04:09Z</time></trkpt><trkpt lat="43.33412503823362" lon="12.411563316507591"><ele>312.6666666666667</ele><time>2026-04-11T09:04:10Z</time></trkpt><trkpt lat="43.334206369941136" lon="12.411738505094425"><ele>315.0</ele><time>2026-04-11T09:04:11Z</time></trkpt><trkpt lat="43.334285160007276" lon="12.411904675105667"><ele>315.0</ele><time>2026-04-11T09:04:12Z</time></trkpt><trkpt lat="43.33436343729744" lon="12.412065029433332"><ele>315.0</ele><time>2026-04-11T09:04:13Z</time></trkpt><trkpt lat="43.334438539519404" lon="12.412219674751295"><ele>315.0</ele><time>2026-04-11T09:04:14Z</time></trkpt><trkpt lat="43.334509132237244" lon="12.412365528022937"><ele>315.0</ele><time>2026-04-11T09:04:15Z</time></trkpt><trkpt lat="43.334554091634736" lon="12.41249504874918"><ele>313.5</ele><time>2026-04-11T09:04:16Z</time></trkpt><trkpt lat="43.334592184042116" lon="12.412574538501131"><ele>312.0</ele><time>2026-04-11T09:04:17Z</time></trkpt><trkpt lat="43.33464999339999" lon="12.412683616130181"><ele>310.5</ele><time>2026-04-11T09:04:19Z</time></trkpt><trkpt lat="43.3346073203659" lon="12.4127828466864"><ele>309.0</ele><time>2026-04-11T09:04:21Z</time></trkpt><trkpt lat="43.334534583218186" lon="12.412796973997931"><ele>307.5</ele><time>2026-04-11T09:04:22Z</time></trkpt><trkpt lat="43.334485384226426" lon="12.412875662490793"><ele>306.0</ele><time>2026-04-11T09:04:23Z</time></trkpt><trkpt lat="43.33443119101541" lon="12.412946143743774"><ele>305.3333333333333</ele><time>2026-04-11T09:04:24Z</time></trkpt><trkpt lat="43.33436489219828" lon="12.413004396995891"><ele>304.6666666666667</ele><time>2026-04-11T09:04:25Z</time></trkpt><trkpt lat="43.33431390719019" lon="12.41307035696424"><ele>304.0</ele><time>2026-04-11T09:04:26Z</time></trkpt><trkpt lat="43.33426508541052" lon="12.413129673672552"><ele>303.33333333333337</ele><time>2026-04-11T09:04:27Z</time></trkpt><trkpt lat="43.33421594202348" lon="12.413185682242258"><ele>302.6666666666667</ele><time>2026-04-11T09:04:28Z</time></trkpt><trkpt lat="43.33413791396164" lon="12.413320813577956"><ele>302.0</ele><time>2026-04-11T09:04:30Z</time></trkpt><trkpt lat="43.33406277693728" lon="12.413459661075159"><ele>302.0</ele><time>2026-04-11T09:04:32Z</time></trkpt><trkpt lat="43.334004901417934" lon="12.413608548105913"><ele>302.0</ele><time>2026-04-11T09:04:34Z</time></trkpt><trkpt lat="43.333957561695" lon="12.413742038176027"><ele>302.0</ele><time>2026-04-11T09:04:36Z</time></trkpt><trkpt lat="43.33389587631869" lon="12.413854725688626"><ele>302.0</ele><time>2026-04-11T09:04:38Z</time></trkpt><trkpt lat="43.333824832139385" lon="12.413942239197572"><ele>302.0</ele><time>2026-04-11T09:04:40Z</time></trkpt><trkpt lat="43.333756487836716" lon="12.414025801626389"><ele>303.5</ele><time>2026-04-11T09:04:42Z</time></trkpt><trkpt lat="43.3336609031116" lon="12.414086985648405"><ele>305.0</ele><time>2026-04-11T09:04:44Z</time></trkpt><trkpt lat="43.33358714773361" lon="12.414117578981296"><ele>306.5</ele><time>2026-04-11T09:04:46Z</time></trkpt><trkpt lat="43.33352618424961" lon="12.414140395484315"><ele>308.0</ele><time>2026-04-11T09:04:48Z</time></trkpt><trkpt lat="43.333466974907665" lon="12.41417863167423"><ele>309.5</ele><time>2026-04-11T09:04:51Z</time></trkpt><trkpt lat="43.33342030817775" lon="12.414257930221607"><ele>311.0</ele><time>2026-04-11T09:06:51Z</time></trkpt><trkpt lat="43.33344971829001" lon="12.414352067748695"><ele>311.0</ele><time>2026-04-11T09:08:30Z</time></trkpt><trkpt lat="43.33343520132627" lon="12.414480175350006"><ele>311.0</ele><time>2026-04-11T09:08:32Z</time></trkpt><trkpt lat="43.333377557049516" lon="12.414624584042661"><ele>311.0</ele><time>2026-04-11T09:08:34Z</time></trkpt><trkpt lat="43.33329291569657" lon="12.41474013636076"><ele>311.0</ele><time>2026-04-11T09:08:36Z</time></trkpt><trkpt lat="43.3332399879339" lon="12.414799241553741"><ele>311.0</ele><time>2026-04-11T09:08:37Z</time></trkpt><trkpt lat="43.33317744599176" lon="12.414825063227577"><ele>312.1666666666667</ele><time>2026-04-11T09:08:38Z</time></trkpt><trkpt lat="43.33309400879862" lon="12.414826518827592"><ele>313.33333333333337</ele><time>2026-04-11T09:08:39Z</time></trkpt><trkpt lat="43.33301099310225" lon="12.41484572610321"><ele>314.5</ele><time>2026-04-11T09:08:40Z</time></trkpt><trkpt lat="43.33291631455083" lon="12.414828017465403"><ele>315.6666666666667</ele><time>2026-04-11T09:08:41Z</time></trkpt><trkpt lat="43.3328361115235" lon="12.414800063501046"><ele>316.8333333333333</ele><time>2026-04-11T09:08:42Z</time></trkpt><trkpt lat="43.33275525964571" lon="12.414797811553493"><ele>318.0</ele><time>2026-04-11T09:08:43Z</time></trkpt><trkpt lat="43.332648230461146" lon="12.414821889081129"><ele>318.2</ele><time>2026-04-11T09:08:44Z</time></trkpt><trkpt lat="43.332547833727226" lon="12.414861742748814"><ele>318.4</ele><time>2026-04-11T09:08:45Z</time></trkpt><trkpt lat="43.332464528781514" lon="12.414929057477279"><ele>318.59999999999997</ele><time>2026-04-11T09:08:46Z</time></trkpt><trkpt lat="43.33238504286676" lon="12.415036321942482"><ele>318.8</ele><time>2026-04-11T09:08:47Z</time></trkpt><trkpt lat="43.33229552532431" lon="12.415159424446443"><ele>319.0</ele><time>2026-04-11T09:08:48Z</time></trkpt><trkpt lat="43.33220511093358" lon="12.41526374537004"><ele>319.0</ele><time>2026-04-11T09:08:49Z</time></trkpt><trkpt lat="43.3321099490797" lon="12.415351781996709"><ele>319.0</ele><time>2026-04-11T09:08:50Z</time></trkpt><trkpt lat="43.332027976612935" lon="12.415441790684346"><ele>319.0</ele><time>2026-04-11T09:08:51Z</time></trkpt><trkpt lat="43.331936558869494" lon="12.415538349835645"><ele>319.0</ele><time>2026-04-11T09:08:52Z</time></trkpt><trkpt lat="43.33184673097289" lon="12.4156135237628"><ele>319.0</ele><time>2026-04-11T09:08:53Z</time></trkpt><trkpt lat="43.33174370456746" lon="12.415627133651814"><ele>323.0</ele><time>2026-04-11T09:08:54Z</time></trkpt><trkpt lat="43.33162896975762" lon="12.415624844481915"><ele>327.0</ele><time>2026-04-11T09:08:55Z</time></trkpt><trkpt lat="43.331492871800855" lon="12.41563561983922"><ele>331.0</ele><time>2026-04-11T09:08:56Z</time></trkpt><trkpt lat="43.33135956733581" lon="12.41564008056873"><ele>335.0</ele><time>2026-04-11T09:08:57Z</time></trkpt><trkpt lat="43.331215970693734" lon="12.415660999937696"><ele>335.0</ele><time>2026-04-11T09:08:58Z</time></trkpt><trkpt lat="43.33107785323659" lon="12.41570442138898"><ele>335.0</ele><time>2026-04-11T09:08:59Z</time></trkpt><trkpt lat="43.33096099913189" lon="12.415750862884801"><ele>335.0</ele><time>2026-04-11T09:09:00Z</time></trkpt><trkpt lat="43.33086740696215" lon="12.415783974297494"><ele>335.0</ele><time>2026-04-11T09:09:01Z</time></trkpt><trkpt lat="43.330790022171385" lon="12.415812507476685"><ele>335.0</ele><time>2026-04-11T09:09:02Z</time></trkpt><trkpt lat="43.3307340509766" lon="12.415852219315537"><ele>334.99999999999994</ele><time>2026-04-11T09:09:03Z</time></trkpt><trkpt lat="43.33069220878949" lon="12.415920314673205"><ele>335.0</ele><time>2026-04-11T09:09:04Z</time></trkpt><trkpt lat="43.33065857450248" lon="12.41599370194566"><ele>335.0</ele><time>2026-04-11T09:09:05Z</time></trkpt><trkpt lat="43.330687431740095" lon="12.416099279803483"><ele>335.0</ele><time>2026-04-11T09:09:06Z</time></trkpt><trkpt lat="43.33075817379921" lon="12.416156131003394"><ele>335.0</ele><time>2026-04-11T09:09:07Z</time></trkpt><trkpt lat="43.33083293155097" lon="12.416151161386919"><ele>334.99999999999994</ele><time>2026-04-11T09:09:08Z</time></trkpt><trkpt lat="43.33088615605952" lon="12.416104179621852"><ele>335.0</ele><time>2026-04-11T09:09:09Z</time></trkpt><trkpt lat="43.330944007051464" lon="12.416065242297385"><ele>335.0</ele><time>2026-04-11T09:09:10Z</time></trkpt><trkpt lat="43.331023492047024" lon="12.41607000913713"><ele>335.0</ele><time>2026-04-11T09:09:11Z</time></trkpt><trkpt lat="43.33111239988848" lon="12.416083021364226"><ele>335.0</ele><time>2026-04-11T09:09:12Z</time></trkpt><trkpt lat="43.331209344786316" lon="12.416107002873296"><ele>335.0</ele><time>2026-04-11T09:09:13.001Z</time></trkpt><trkpt lat="43.3313085222302" lon="12.416164919272015"><ele>335.0</ele><time>2026-04-11T09:09:14.001Z</time></trkpt><trkpt lat="43.33141933677719" lon="12.41624419886419"><ele>341.25</ele><time>2026-04-11T09:09:15.001Z</time></trkpt><trkpt lat="43.33153451912201" lon="12.41633353961654"><ele>347.5</ele><time>2026-04-11T09:09:16.001Z</time></trkpt><trkpt lat="43.33165324039865" lon="12.416431975433856"><ele>353.75</ele><time>2026-04-11T09:09:17.001Z</time></trkpt><trkpt lat="43.33176129765661" lon="12.41652655000137"><ele>360.0</ele><time>2026-04-11T09:09:18.001Z</time></trkpt><trkpt lat="43.3318702465079" lon="12.416605369341662"><ele>360.0</ele><time>2026-04-11T09:09:19.001Z</time></trkpt><trkpt lat="43.33196127935765" lon="12.416700716916633"><ele>360.0</ele><time>2026-04-11T09:09:20.001Z</time></trkpt><trkpt lat="43.33202813123653" lon="12.416816066386806"><ele>360.0</ele><time>2026-04-11T09:09:21.001Z</time></trkpt><trkpt lat="43.33209164616067" lon="12.416898520778078"><ele>360.0</ele><time>2026-04-11T09:09:22.001Z</time></trkpt><trkpt lat="43.332109664924815" lon="12.416999231035023"><ele>360.0</ele><time>2026-04-11T09:09:23.001Z</time></trkpt><trkpt lat="43.332097363311284" lon="12.417106409415446"><ele>363.4</ele><time>2026-04-11T09:09:24.001Z</time></trkpt><trkpt lat="43.33205206404294" lon="12.417211039344046"><ele>366.8</ele><time>2026-04-11T09:09:25.001Z</time></trkpt><trkpt lat="43.33197339814199" lon="12.417303398692031"><ele>370.20000000000005</ele><time>2026-04-11T09:09:26.001Z</time></trkpt><trkpt lat="43.33189713942134" lon="12.417435188831538"><ele>373.6</ele><time>2026-04-11T09:09:27.001Z</time></trkpt><trkpt lat="43.331797838865434" lon="12.41754987447392"><ele>377.0</ele><time>2026-04-11T09:09:28.001Z</time></trkpt><trkpt lat="43.331684316014986" lon="12.417680759641733"><ele>377.0</ele><time>2026-04-11T09:09:29.001Z</time></trkpt><trkpt lat="43.331595878971356" lon="12.417799060406843"><ele>377.0</ele><time>2026-04-11T09:09:30.001Z</time></trkpt><trkpt lat="43.331535753260106" lon="12.417901389389275"><ele>377.0</ele><time>2026-04-11T09:09:31.001Z</time></trkpt><trkpt lat="43.331496554281095" lon="12.418013358009887"><ele>377.0</ele><time>2026-04-11T09:09:32.001Z</time></trkpt><trkpt lat="43.33146059206452" lon="12.418166245181174"><ele>377.0</ele><time>2026-04-11T09:09:33.001Z</time></trkpt><trkpt lat="43.33141784195677" lon="12.418337391944585"><ele>375.6666666666667</ele><time>2026-04-11T09:09:34.001Z</time></trkpt><trkpt lat="43.33138444594862" lon="12.418538619723046"><ele>374.3333333333333</ele><time>2026-04-11T09:09:35.001Z</time></trkpt><trkpt lat="43.331361066363215" lon="12.418743605452029"><ele>373.0</ele><time>2026-04-11T09:09:36.001Z</time></trkpt><trkpt lat="43.33132953852662" lon="12.418949940050839"><ele>376.66666666666663</ele><time>2026-04-11T09:09:37.001Z</time></trkpt><trkpt lat="43.331303938950406" lon="12.419168916409449"><ele>380.3333333333333</ele><time>2026-04-11T09:09:38.001Z</time></trkpt><trkpt lat="43.331277485133974" lon="12.419392736942466"><ele>384.0</ele><time>2026-04-11T09:09:39.001Z</time></trkpt><trkpt lat="43.33123101169385" lon="12.419607657476295"><ele>387.75</ele><time>2026-04-11T09:09:40.001Z</time></trkpt><trkpt lat="43.331192636203305" lon="12.419831092991368"><ele>391.5</ele><time>2026-04-11T09:09:41.001Z</time></trkpt><trkpt lat="43.33115539611885" lon="12.420018971537212"><ele>395.25</ele><time>2026-04-11T09:09:42.001Z</time></trkpt><trkpt lat="43.331123633591154" lon="12.420169564909367"><ele>399.0</ele><time>2026-04-11T09:09:43.001Z</time></trkpt><trkpt lat="43.331072652290445" lon="12.42025146819316"><ele>399.0</ele><time>2026-04-11T09:09:44.001Z</time></trkpt><trkpt lat="43.33098040564088" lon="12.42033170609522"><ele>399.0</ele><time>2026-04-11T09:09:45.001Z</time></trkpt><trkpt lat="43.33088057187651" lon="12.420356907982946"><ele>399.0</ele><time>2026-04-11T09:09:46.001Z</time></trkpt><trkpt lat="43.33077147242284" lon="12.420385007813126"><ele>399.0</ele><time>2026-04-11T09:09:47.001Z</time></trkpt><trkpt lat="43.33064061582576" lon="12.420403937241911"><ele>400.2</ele><time>2026-04-11T09:09:48.001Z</time></trkpt><trkpt lat="43.33052983674195" lon="12.420399539908452"><ele>401.4</ele><time>2026-04-11T09:09:49.001Z</time></trkpt><trkpt lat="43.3304525432956" lon="12.420414763969669"><ele>402.6</ele><time>2026-04-11T09:09:50.001Z</time></trkpt><trkpt lat="43.33037858520216" lon="12.420491381697063"><ele>403.8</ele><time>2026-04-11T09:09:51.001Z</time></trkpt><trkpt lat="43.33032030998493" lon="12.42061798538048"><ele>405.0</ele><time>2026-04-11T09:09:52.001Z</time></trkpt><trkpt lat="43.330267171313864" lon="12.420755840488617"><ele>405.0</ele><time>2026-04-11T09:09:53.001Z</time></trkpt><trkpt lat="43.330226117482056" lon="12.420905001455242"><ele>405.0</ele><time>2026-04-11T09:09:54.001Z</time></trkpt><trkpt lat="43.3301827925506" lon="12.42105337069947"><ele>405.0</ele><time>2026-04-11T09:09:55.001Z</time></trkpt><trkpt lat="43.33017799823665" lon="12.42120918371835"><ele>405.0</ele><time>2026-04-11T09:09:56.001Z</time></trkpt><trkpt lat="43.33015085719762" lon="12.421341578637145"><ele>405.0</ele><time>2026-04-11T09:09:57.001Z</time></trkpt><trkpt lat="43.33013031034112" lon="12.421482622277525"><ele>406.4</ele><time>2026-04-11T09:09:58.001Z</time></trkpt><trkpt lat="43.33010222198167" lon="12.421607465383438"><ele>407.8</ele><time>2026-04-11T09:09:59.001Z</time></trkpt><trkpt lat="43.330097181311466" lon="12.421732182934651"><ele>409.20000000000005</ele><time>2026-04-11T09:10:00.001Z</time></trkpt><trkpt lat="43.33013030229581" lon="12.421842035867499"><ele>410.6</ele><time>2026-04-11T09:10:01.001Z</time></trkpt><trkpt lat="43.330173203468384" lon="12.421954171293502"><ele>412.0</ele><time>2026-04-11T09:10:02.001Z</time></trkpt><trkpt lat="43.33022901700136" lon="12.422099953046018"><ele>411.25</ele><time>2026-04-11T09:10:03.001Z</time></trkpt><trkpt lat="43.330274547944" lon="12.422272771083263"><ele>410.5</ele><time>2026-04-11T09:10:04.001Z</time></trkpt><trkpt lat="43.33029996689642" lon="12.422443832767579"><ele>409.75</ele><time>2026-04-11T09:10:05.001Z</time></trkpt><trkpt lat="43.33029811512707" lon="12.422616371717822"><ele>409.0</ele><time>2026-04-11T09:10:06.001Z</time></trkpt><trkpt lat="43.33029790671808" lon="12.422789643217502"><ele>409.0</ele><time>2026-04-11T09:10:07.001Z</time></trkpt><trkpt lat="43.33028310905277" lon="12.422959329890942"><ele>409.0</ele><time>2026-04-11T09:10:08.001Z</time></trkpt><trkpt lat="43.33027644875222" lon="12.423087019998173"><ele>409.0</ele><time>2026-04-11T09:10:09.001Z</time></trkpt><trkpt lat="43.33026740841025" lon="12.423214489453503"><ele>409.0</ele><time>2026-04-11T09:10:10.001Z</time></trkpt><trkpt lat="43.33026992252105" lon="12.423329231754659"><ele>409.0</ele><time>2026-04-11T09:10:11.001Z</time></trkpt><trkpt lat="43.33029260866197" lon="12.423433920918557"><ele>408.4</ele><time>2026-04-11T09:10:12.001Z</time></trkpt><trkpt lat="43.33031967739189" lon="12.423534961496028"><ele>407.79999999999995</ele><time>2026-04-11T09:10:13.001Z</time></trkpt><trkpt lat="43.330368677738775" lon="12.42363716614248"><ele>407.20000000000005</ele><time>2026-04-11T09:10:14.001Z</time></trkpt><trkpt lat="43.33043417716756" lon="12.423753118129724"><ele>406.6</ele><time>2026-04-11T09:10:15.001Z</time></trkpt><trkpt lat="43.33050478576633" lon="12.423851648129371"><ele>406.0</ele><time>2026-04-11T09:10:16.001Z</time></trkpt><trkpt lat="43.33055298943679" lon="12.423952552029071"><ele>411.33333333333337</ele><time>2026-04-11T09:10:17.001Z</time></trkpt><trkpt lat="43.3305692818617" lon="12.424084638205226"><ele>416.6666666666667</ele><time>2026-04-11T09:10:18.001Z</time></trkpt><trkpt lat="43.3305930761766" lon="12.424213755180093"><ele>422.0</ele><time>2026-04-11T09:10:19.001Z</time></trkpt><trkpt lat="43.33062458537684" lon="12.424326356467335"><ele>427.33333333333337</ele><time>2026-04-11T09:10:20.001Z</time></trkpt><trkpt lat="43.33062889768693" lon="12.424438982829468"><ele>432.6666666666667</ele><time>2026-04-11T09:10:21.001Z</time></trkpt><trkpt lat="43.330654581095125" lon="12.424549422148422"><ele>438.0</ele><time>2026-04-11T09:10:22.001Z</time></trkpt><trkpt lat="43.33068977172825" lon="12.424643415770039"><ele>436.0</ele><time>2026-04-11T09:10:23Z</time></trkpt><trkpt lat="43.33073352404012" lon="12.424729259223078"><ele>434.0</ele><time>2026-04-11T09:10:24Z</time></trkpt><trkpt lat="43.330796958162196" lon="12.424797050623729"><ele>432.0</ele><time>2026-04-11T09:10:25Z</time></trkpt><trkpt lat="43.33085096328111" lon="12.424863576027366"><ele>430.0</ele><time>2026-04-11T09:10:26Z</time></trkpt><trkpt lat="43.33091243382314" lon="12.42492902421597"><ele>428.0</ele><time>2026-04-11T09:10:27Z</time></trkpt><trkpt lat="43.330975390309575" lon="12.424982411602599"><ele>426.0</ele><time>2026-04-11T09:10:28Z</time></trkpt><trkpt lat="43.3310388882365" lon="12.425036082349637"><ele>425.99999999999994</ele><time>2026-04-11T09:10:29Z</time></trkpt><trkpt lat="43.33109193613165" lon="12.425107624689188"><ele>426.0</ele><time>2026-04-11T09:10:30Z</time></trkpt><trkpt lat="43.33115297876667" lon="12.42516712821924"><ele>426.0</ele><time>2026-04-11T09:10:31Z</time></trkpt><trkpt lat="43.3312164462473" lon="12.425222844706546"><ele>426.0</ele><time>2026-04-11T09:10:32Z</time></trkpt><trkpt lat="43.33127287508203" lon="12.425289107693114"><ele>426.0</ele><time>2026-04-11T09:10:33Z</time></trkpt><trkpt lat="43.33130772039979" lon="12.425372685100342"><ele>425.99999999999994</ele><time>2026-04-11T09:10:34Z</time></trkpt><trkpt lat="43.33136108862713" lon="12.425426509063325"><ele>426.0</ele><time>2026-04-11T09:10:35Z</time></trkpt><trkpt lat="43.33139800590056" lon="12.425512220977499"><ele>430.4</ele><time>2026-04-11T09:10:36Z</time></trkpt><trkpt lat="43.33147664552723" lon="12.425638055531772"><ele>434.8</ele><time>2026-04-11T09:10:38Z</time></trkpt><trkpt lat="43.33153111446086" lon="12.425721919328167"><ele>439.19999999999993</ele><time>2026-04-11T09:10:40Z</time></trkpt><trkpt lat="43.33157630924" lon="12.425807308461058"><ele>443.59999999999997</ele><time>2026-04-11T09:16:34.001Z</time></trkpt><trkpt lat="43.33165681850237" lon="12.425912785954072"><ele>448.0</ele><time>2026-04-11T09:16:37.001Z</time></trkpt><trkpt lat="43.33172746409008" lon="12.426023401262245"><ele>448.0</ele><time>2026-04-11T09:16:39.001Z</time></trkpt><trkpt lat="43.33174214587507" lon="12.426200941366197"><ele>447.99999999999994</ele><time>2026-04-11T09:16:41Z</time></trkpt><trkpt lat="43.331727000609405" lon="12.426311045759615"><ele>447.99999999999994</ele><time>2026-04-11T09:16:42Z</time></trkpt><trkpt lat="43.331701120197806" lon="12.426423812964755"><ele>448.0</ele><time>2026-04-11T09:16:43Z</time></trkpt><trkpt lat="43.33167014728787" lon="12.426533898048966"><ele>448.0</ele><time>2026-04-11T09:16:44Z</time></trkpt><trkpt lat="43.33163004216673" lon="12.42666200472361"><ele>448.1666666666667</ele><time>2026-04-11T09:16:45Z</time></trkpt><trkpt lat="43.33158780347173" lon="12.426796461216641"><ele>448.33333333333337</ele><time>2026-04-11T09:16:46Z</time></trkpt><trkpt lat="43.33152601204147" lon="12.426892969640287"><ele>448.5</ele><time>2026-04-11T09:16:47Z</time></trkpt><trkpt lat="43.33146074461724" lon="12.426964415231847"><ele>448.66666666666663</ele><time>2026-04-11T09:16:48Z</time></trkpt><trkpt lat="43.331399918500885" lon="12.427038622073905"><ele>448.8333333333333</ele><time>2026-04-11T09:16:49Z</time></trkpt><trkpt lat="43.331349008920064" lon="12.427113183117154"><ele>449.0</ele><time>2026-04-11T09:16:50Z</time></trkpt><trkpt lat="43.33131361767655" lon="12.427199568650057"><ele>451.2</ele><time>2026-04-11T09:16:51Z</time></trkpt><trkpt lat="43.33128433719123" lon="12.427282137237317"><ele>453.4</ele><time>2026-04-11T09:16:52Z</time></trkpt><trkpt lat="43.331277980025725" lon="12.42739982591782"><ele>455.6</ele><time>2026-04-11T09:16:53Z</time></trkpt><trkpt lat="43.33131930514735" lon="12.42753309878953"><ele>457.8</ele><time>2026-04-11T09:16:54Z</time></trkpt><trkpt lat="43.331364188090966" lon="12.427669541728756"><ele>460.0</ele><time>2026-04-11T09:16:55Z</time></trkpt><trkpt lat="43.33142170259493" lon="12.427805553578798"><ele>460.0</ele><time>2026-04-11T09:16:56Z</time></trkpt><trkpt lat="43.33146036328356" lon="12.427971360087362"><ele>460.0</ele><time>2026-04-11T09:16:57Z</time></trkpt><trkpt lat="43.33150668323821" lon="12.428124775843303"><ele>460.0</ele><time>2026-04-11T09:16:58Z</time></trkpt><trkpt lat="43.33154552197834" lon="12.428270003768388"><ele>460.0</ele><time>2026-04-11T09:16:59Z</time></trkpt><trkpt lat="43.331594887253345" lon="12.428417133488786"><ele>460.5</ele><time>2026-04-11T09:17:00Z</time></trkpt><trkpt lat="43.331638877987935" lon="12.428555235702948"><ele>461.0</ele><time>2026-04-11T09:17:01Z</time></trkpt><trkpt lat="43.33168968524278" lon="12.428698238503014"><ele>461.5</ele><time>2026-04-11T09:17:02Z</time></trkpt><trkpt lat="43.331749411998125" lon="12.428856031212215"><ele>462.0</ele><time>2026-04-11T09:17:03Z</time></trkpt><trkpt lat="43.33181403642624" lon="12.42901996902006"><ele>460.8</ele><time>2026-04-11T09:17:04Z</time></trkpt><trkpt lat="43.33187092877582" lon="12.429161222319141"><ele>459.6</ele><time>2026-04-11T09:17:05Z</time></trkpt><trkpt lat="43.33191497494509" lon="12.429293312874291"><ele>458.40000000000003</ele><time>2026-04-11T09:17:06Z</time></trkpt><trkpt lat="43.331943191973835" lon="12.42942577085594"><ele>457.20000000000005</ele><time>2026-04-11T09:17:07Z</time></trkpt><trkpt lat="43.33198908803386" lon="12.429548958476264"><ele>456.0</ele><time>2026-04-11T09:17:08Z</time></trkpt><trkpt lat="43.33203609135882" lon="12.429665050502681"><ele>455.4</ele><time>2026-04-11T09:17:09Z</time></trkpt><trkpt lat="43.332085660569625" lon="12.429756071844318"><ele>454.8</ele><time>2026-04-11T09:17:10Z</time></trkpt><trkpt lat="43.3321337343185" lon="12.429854916218915"><ele>454.19999999999993</ele><time>2026-04-11T09:17:11Z</time></trkpt><trkpt lat="43.332223107845515" lon="12.429927758570448"><ele>453.59999999999997</ele><time>2026-04-11T09:17:12Z</time></trkpt><trkpt lat="43.332332184931985" lon="12.429956438168166"><ele>453.0</ele><time>2026-04-11T09:17:13Z</time></trkpt><trkpt lat="43.332443284406466" lon="12.42997521949512"><ele>457.5</ele><time>2026-04-11T09:17:14Z</time></trkpt><trkpt lat="43.33254491511193" lon="12.429970194586884"><ele>462.0</ele><time>2026-04-11T09:17:15Z</time></trkpt><trkpt lat="43.332618170221146" lon="12.42998683860754"><ele>466.5</ele><time>2026-04-11T09:17:16Z</time></trkpt><trkpt lat="43.33271821392784" lon="12.43004903540717"><ele>471.0</ele><time>2026-04-11T09:17:18Z</time></trkpt><trkpt lat="43.33272685419149" lon="12.430145187489067"><ele>475.5</ele><time>2026-04-11T09:17:19Z</time></trkpt><trkpt lat="43.332677066163384" lon="12.430219722718677"><ele>480.0</ele><time>2026-04-11T09:17:20Z</time></trkpt><trkpt lat="43.33260522476152" lon="12.430351140086008"><ele>480.0</ele><time>2026-04-11T09:17:22Z</time></trkpt><trkpt lat="43.33258178407682" lon="12.430438102864898"><ele>480.0</ele><time>2026-04-11T09:17:23Z</time></trkpt><trkpt lat="43.33256388477431" lon="12.43053834440349"><ele>480.0</ele><time>2026-04-11T09:17:24Z</time></trkpt><trkpt lat="43.332590266847006" lon="12.430670055444965"><ele>480.0</ele><time>2026-04-11T09:17:25Z</time></trkpt><trkpt lat="43.33263084224523" lon="12.430805871276412"><ele>480.0</ele><time>2026-04-11T09:17:26Z</time></trkpt><trkpt lat="43.33269278302801" lon="12.430920577146106"><ele>481.0</ele><time>2026-04-11T09:17:27Z</time></trkpt><trkpt lat="43.33272439646762" lon="12.43106373261582"><ele>482.0</ele><time>2026-04-11T09:17:28Z</time></trkpt><trkpt lat="43.332726672069256" lon="12.431202680420911"><ele>483.0</ele><time>2026-04-11T09:17:29Z</time></trkpt><trkpt lat="43.33272176017449" lon="12.431328883804136"><ele>484.0</ele><time>2026-04-11T09:17:30Z</time></trkpt><trkpt lat="43.33269403928947" lon="12.431446015077276"><ele>485.0</ele><time>2026-04-11T09:17:31Z</time></trkpt><trkpt lat="43.332702630795666" lon="12.431551928251983"><ele>488.2</ele><time>2026-04-11T09:17:32Z</time></trkpt><trkpt lat="43.33273436282566" lon="12.431641832163587"><ele>491.4</ele><time>2026-04-11T09:17:33Z</time></trkpt><trkpt lat="43.33279890635678" lon="12.431709457916874"><ele>494.6</ele><time>2026-04-11T09:17:34Z</time></trkpt><trkpt lat="43.33290656951293" lon="12.431732353902735"><ele>497.8</ele><time>2026-04-11T09:17:35Z</time></trkpt><trkpt lat="43.33302452225928" lon="12.43165616058732"><ele>501.0</ele><time>2026-04-11T09:17:36Z</time></trkpt><trkpt lat="43.33311638927597" lon="12.431614121430316"><ele>501.8333333333333</ele><time>2026-04-11T09:17:37Z</time></trkpt><trkpt lat="43.33319705458062" lon="12.431615099675234"><ele>502.66666666666663</ele><time>2026-04-11T09:17:38Z</time></trkpt><trkpt lat="43.333278721160724" lon="12.431634202537305"><ele>503.5</ele><time>2026-04-11T09:17:39Z</time></trkpt><trkpt lat="43.333339697337344" lon="12.431721513658424"><ele>504.3333333333333</ele><time>2026-04-11T09:17:40Z</time></trkpt><trkpt lat="43.33336466483006" lon="12.431823144815406"><ele>505.16666666666663</ele><time>2026-04-11T09:17:41Z</time></trkpt><trkpt lat="43.333421336771536" lon="12.431931748171536"><ele>506.0</ele><time>2026-04-11T09:17:42Z</time></trkpt><trkpt lat="43.33348952131834" lon="12.432062363760037"><ele>506.99999999999994</ele><time>2026-04-11T09:17:43Z</time></trkpt><trkpt lat="43.3335453298111" lon="12.432181809389586"><ele>508.0</ele><time>2026-04-11T09:17:44Z</time></trkpt><trkpt lat="43.33358546728497" lon="12.432291045004913"><ele>509.0</ele><time>2026-04-11T09:17:45Z</time></trkpt><trkpt lat="43.33361217027261" lon="12.432394154741202"><ele>510.0</ele><time>2026-04-11T09:17:46Z</time></trkpt><trkpt lat="43.33362736762701" lon="12.432484120902748"><ele>510.99999999999994</ele><time>2026-04-11T09:17:47Z</time></trkpt><trkpt lat="43.33363461300155" lon="12.432585979915588"><ele>512.0</ele><time>2026-04-11T09:17:48Z</time></trkpt><trkpt lat="43.333632630433186" lon="12.432690803132077"><ele>511.99999999999994</ele><time>2026-04-11T09:17:49Z</time></trkpt><trkpt lat="43.33360675974403" lon="12.432789479278705"><ele>512.0</ele><time>2026-04-11T09:17:50Z</time></trkpt><trkpt lat="43.333545797890636" lon="12.432868361269474"><ele>512.0</ele><time>2026-04-11T09:17:51Z</time></trkpt><trkpt lat="43.33348369757687" lon="12.43294840945419"><ele>512.0</ele><time>2026-04-11T09:17:52Z</time></trkpt><trkpt lat="43.33341391447277" lon="12.433045094756828"><ele>511.99999999999994</ele><time>2026-04-11T09:17:53Z</time></trkpt><trkpt lat="43.33333860598867" lon="12.433144964798634"><ele>512.0</ele><time>2026-04-11T09:17:54Z</time></trkpt><trkpt lat="43.33325554390036" lon="12.433253449684413"><ele>513.25</ele><time>2026-04-11T09:17:55Z</time></trkpt><trkpt lat="43.3331642959382" lon="12.433353726577945"><ele>514.5</ele><time>2026-04-11T09:17:56Z</time></trkpt><trkpt lat="43.33306662099937" lon="12.43343387063974"><ele>515.75</ele><time>2026-04-11T09:17:57Z</time></trkpt><trkpt lat="43.332953023232065" lon="12.433487206220388"><ele>517.0</ele><time>2026-04-11T09:17:58Z</time></trkpt><trkpt lat="43.332837578218175" lon="12.433516879923644"><ele>519.25</ele><time>2026-04-11T09:17:59Z</time></trkpt><trkpt lat="43.33271967210939" lon="12.433481693698697"><ele>521.5</ele><time>2026-04-11T09:18:00Z</time></trkpt><trkpt lat="43.33259129179178" lon="12.433440777928537"><ele>523.75</ele><time>2026-04-11T09:18:01Z</time></trkpt><trkpt lat="43.33245605604323" lon="12.433378328108038"><ele>526.0</ele><time>2026-04-11T09:18:02Z</time></trkpt><trkpt lat="43.33232182553624" lon="12.433317488963397"><ele>527.0</ele><time>2026-04-11T09:18:03Z</time></trkpt><trkpt lat="43.33220834242004" lon="12.4332647749396"><ele>528.0</ele><time>2026-04-11T09:18:04Z</time></trkpt><trkpt lat="43.33211488809356" lon="12.43323285104785"><ele>529.0</ele><time>2026-04-11T09:18:05Z</time></trkpt><trkpt lat="43.33203332536087" lon="12.433199658010748"><ele>530.0</ele><time>2026-04-11T09:18:06Z</time></trkpt><trkpt lat="43.33196596984094" lon="12.43319534944869"><ele>531.0</ele><time>2026-04-11T09:18:07Z</time></trkpt><trkpt lat="43.33189158383818" lon="12.433214000129324"><ele>532.0</ele><time>2026-04-11T09:18:08.001Z</time></trkpt><trkpt lat="43.33180928604725" lon="12.433246092515628"><ele>532.0</ele><time>2026-04-11T09:18:09.001Z</time></trkpt><trkpt lat="43.33171808628678" lon="12.43329759121443"><ele>532.0</ele><time>2026-04-11T09:18:10.001Z</time></trkpt><trkpt lat="43.33163794952063" lon="12.433358118987167"><ele>532.0</ele><time>2026-04-11T09:18:11.001Z</time></trkpt><trkpt lat="43.33158518702169" lon="12.433416493644026"><ele>532.0</ele><time>2026-04-11T09:18:12.001Z</time></trkpt><trkpt lat="43.331548811307144" lon="12.43349984258877"><ele>532.0</ele><time>2026-04-11T09:18:13.001Z</time></trkpt><trkpt lat="43.33152833619389" lon="12.433608735906741"><ele>532.0</ele><time>2026-04-11T09:18:14.001Z</time></trkpt><trkpt lat="43.33151815322191" lon="12.433764593886329"><ele>534.0</ele><time>2026-04-11T09:18:15.001Z</time></trkpt><trkpt lat="43.331522920295534" lon="12.433954759105474"><ele>536.0</ele><time>2026-04-11T09:18:16.001Z</time></trkpt><trkpt lat="43.331534646986135" lon="12.434184272058818"><ele>538.0</ele><time>2026-04-11T09:18:17.001Z</time></trkpt><trkpt lat="43.33153057547703" lon="12.43441197704401"><ele>538.0</ele><time>2026-04-11T09:18:18.001Z</time></trkpt><trkpt lat="43.331533249628805" lon="12.434598836034526"><ele>538.0</ele><time>2026-04-11T09:18:19.001Z</time></trkpt><trkpt lat="43.3315277526105" lon="12.434776348720842"><ele>538.0</ele><time>2026-04-11T09:18:20.001Z</time></trkpt><trkpt lat="43.33151425171014" lon="12.434941970119759"><ele>538.0</ele><time>2026-04-11T09:18:21.001Z</time></trkpt><trkpt lat="43.331508237736074" lon="12.435086007027856"><ele>539.0</ele><time>2026-04-11T09:18:22.001Z</time></trkpt><trkpt lat="43.33151058612308" lon="12.435236628834904"><ele>540.0</ele><time>2026-04-11T09:18:23.001Z</time></trkpt><trkpt lat="43.33153151931656" lon="12.435398650980158"><ele>541.0</ele><time>2026-04-11T09:18:24.001Z</time></trkpt><trkpt lat="43.33157273604546" lon="12.43556169057222"><ele>542.0</ele><time>2026-04-11T09:18:25.001Z</time></trkpt><trkpt lat="43.33164214555205" lon="12.435701798123265"><ele>542.0</ele><time>2026-04-11T09:18:26.001Z</time></trkpt><trkpt lat="43.33171151305386" lon="12.435827028006626"><ele>542.0</ele><time>2026-04-11T09:18:27.001Z</time></trkpt><trkpt lat="43.33177913714527" lon="12.435955676729955"><ele>542.0</ele><time>2026-04-11T09:18:28.001Z</time></trkpt><trkpt lat="43.331823430617476" lon="12.436090294674983"><ele>542.0</ele><time>2026-04-11T09:18:29.001Z</time></trkpt><trkpt lat="43.33183130758054" lon="12.436243026216058"><ele>542.0</ele><time>2026-04-11T09:18:30.001Z</time></trkpt><trkpt lat="43.33176187145441" lon="12.436379270918305"><ele>542.5</ele><time>2026-04-11T09:18:31.001Z</time></trkpt><trkpt lat="43.331712182932606" lon="12.436508215512461"><ele>543.0</ele><time>2026-04-11T09:18:32.001Z</time></trkpt><trkpt lat="43.3316025553732" lon="12.43662184067648"><ele>543.5</ele><time>2026-04-11T09:18:33.001Z</time></trkpt><trkpt lat="43.33148755690828" lon="12.43673237278291"><ele>544.0</ele><time>2026-04-11T09:18:34.001Z</time></trkpt><trkpt lat="43.33140499387623" lon="12.436852218488546"><ele>539.25</ele><time>2026-04-11T09:18:35.001Z</time></trkpt><trkpt lat="43.33132425802859" lon="12.43694622913782"><ele>534.5</ele><time>2026-04-11T09:18:36.001Z</time></trkpt><trkpt lat="43.331246448538664" lon="12.437083482885932"><ele>529.75</ele><time>2026-04-11T09:18:37.001Z</time></trkpt><trkpt lat="43.33117473362324" lon="12.437239309362978"><ele>525.0</ele><time>2026-04-11T09:18:38.001Z</time></trkpt><trkpt lat="43.33112621854966" lon="12.437403587356014"><ele>525.0</ele><time>2026-04-11T09:18:39.001Z</time></trkpt><trkpt lat="43.33106930504705" lon="12.437555031710344"><ele>525.0</ele><time>2026-04-11T09:18:40.001Z</time></trkpt><trkpt lat="43.331057386659516" lon="12.437695155951529"><ele>525.0</ele><time>2026-04-11T09:18:41.001Z</time></trkpt><trkpt lat="43.33107254742579" lon="12.437849283747424"><ele>525.0</ele><time>2026-04-11T09:18:42.001Z</time></trkpt><trkpt lat="43.331119664236766" lon="12.438008227609794"><ele>526.6666666666666</ele><time>2026-04-11T09:18:43.001Z</time></trkpt><trkpt lat="43.33118430176262" lon="12.43817106551746"><ele>528.3333333333333</ele><time>2026-04-11T09:18:44.001Z</time></trkpt><trkpt lat="43.331276459781925" lon="12.438348440383933"><ele>530.0</ele><time>2026-04-11T09:18:45.001Z</time></trkpt><trkpt lat="43.33138351798073" lon="12.438518900570022"><ele>535.0</ele><time>2026-04-11T09:18:46.001Z</time></trkpt><trkpt lat="43.33147548219428" lon="12.438664074127898"><ele>540.0</ele><time>2026-04-11T09:18:47Z</time></trkpt><trkpt lat="43.3315526433103" lon="12.438788327121634"><ele>545.0</ele><time>2026-04-11T09:18:48Z</time></trkpt><trkpt lat="43.33161266072365" lon="12.4388870645943"><ele>550.0</ele><time>2026-04-11T09:18:49Z</time></trkpt><trkpt lat="43.33165403237587" lon="12.43897290554767"><ele>555.0</ele><time>2026-04-11T09:18:50Z</time></trkpt><trkpt lat="43.331662062395644" lon="12.439072289503525"><ele>555.0</ele><time>2026-04-11T09:18:51Z</time></trkpt><trkpt lat="43.33164677623366" lon="12.439161602139965"><ele>555.0</ele><time>2026-04-11T09:18:52Z</time></trkpt><trkpt lat="43.33158710857006" lon="12.439213224049203"><ele>555.0</ele><time>2026-04-11T09:18:53Z</time></trkpt><trkpt lat="43.33150567163102" lon="12.43923805848095"><ele>555.0</ele><time>2026-04-11T09:18:54Z</time></trkpt><trkpt lat="43.331394460412724" lon="12.439243392743913"><ele>555.0</ele><time>2026-04-11T09:18:55Z</time></trkpt><trkpt lat="43.33125501612401" lon="12.439232691018372"><ele>551.75</ele><time>2026-04-11T09:18:56Z</time></trkpt><trkpt lat="43.3311230987636" lon="12.439236467025438"><ele>548.5</ele><time>2026-04-11T09:18:57Z</time></trkpt><trkpt lat="43.331026786870396" lon="12.439263668847607"><ele>545.25</ele><time>2026-04-11T09:18:58Z</time></trkpt><trkpt lat="43.33093518341362" lon="12.439329055511198"><ele>542.0</ele><time>2026-04-11T09:18:59Z</time></trkpt><trkpt lat="43.33083494324847" lon="12.439419275393373"><ele>542.0</ele><time>2026-04-11T09:19:00Z</time></trkpt><trkpt lat="43.33072567019925" lon="12.439536599108244"><ele>542.0</ele><time>2026-04-11T09:19:01Z</time></trkpt><trkpt lat="43.330601471967356" lon="12.439666641004793"><ele>542.0</ele><time>2026-04-11T09:19:02Z</time></trkpt><trkpt lat="43.33047905690814" lon="12.439789113728654"><ele>542.0</ele><time>2026-04-11T09:19:03Z</time></trkpt><trkpt lat="43.330376109228425" lon="12.4398873537062"><ele>545.4</ele><time>2026-04-11T09:19:04Z</time></trkpt><trkpt lat="43.33028484524107" lon="12.439978204233418"><ele>548.8000000000001</ele><time>2026-04-11T09:19:05Z</time></trkpt><trkpt lat="43.33020497964427" lon="12.440062107605387"><ele>552.2</ele><time>2026-04-11T09:19:06Z</time></trkpt><trkpt lat="43.330161260164964" lon="12.44014150634283"><ele>555.6</ele><time>2026-04-11T09:19:07Z</time></trkpt><trkpt lat="43.33010790692958" lon="12.440283944316693"><ele>559.0</ele><time>2026-04-11T09:19:09Z</time></trkpt><trkpt lat="43.33014082049709" lon="12.440397321222713"><ele>559.0</ele><time>2026-04-11T09:19:10Z</time></trkpt><trkpt lat="43.330225423046485" lon="12.440485101442944"><ele>559.0</ele><time>2026-04-11T09:19:11Z</time></trkpt><trkpt lat="43.330332164839" lon="12.440533501872986"><ele>559.0</ele><time>2026-04-11T09:19:12Z</time></trkpt><trkpt lat="43.330444824567486" lon="12.440589104464337"><ele>559.0</ele><time>2026-04-11T09:19:13Z</time></trkpt><trkpt lat="43.33057421974388" lon="12.440682889265208"><ele>564.0</ele><time>2026-04-11T09:19:14Z</time></trkpt><trkpt lat="43.33067469069378" lon="12.440776141280061"><ele>569.0</ele><time>2026-04-11T09:19:15Z</time></trkpt><trkpt lat="43.330756139310836" lon="12.44088599725762"><ele>574.0</ele><time>2026-04-11T09:19:16Z</time></trkpt><trkpt lat="43.330829774744764" lon="12.441014443487854"><ele>579.0</ele><time>2026-04-11T09:19:17Z</time></trkpt><trkpt lat="43.33089949753545" lon="12.441158613722783"><ele>577.75</ele><time>2026-04-11T09:19:18Z</time></trkpt><trkpt lat="43.33094001545002" lon="12.441340210842291"><ele>576.5</ele><time>2026-04-11T09:19:19Z</time></trkpt><trkpt lat="43.33097332690118" lon="12.44153235782946"><ele>575.25</ele><time>2026-04-11T09:19:20Z</time></trkpt><trkpt lat="43.33099754321668" lon="12.44171595209909"><ele>574.0</ele><time>2026-04-11T09:19:21Z</time></trkpt><trkpt lat="43.331005522314335" lon="12.44189450398302"><ele>574.0</ele><time>2026-04-11T09:19:22Z</time></trkpt><trkpt lat="43.330983152097524" lon="12.442081124328462"><ele>574.0</ele><time>2026-04-11T09:19:23Z</time></trkpt><trkpt lat="43.33096816181018" lon="12.442277579862921"><ele>574.0</ele><time>2026-04-11T09:19:24Z</time></trkpt><trkpt lat="43.33094219170892" lon="12.442471156566091"><ele>574.0</ele><time>2026-04-11T09:19:25Z</time></trkpt><trkpt lat="43.33091454625639" lon="12.442650336224295"><ele>574.0</ele><time>2026-04-11T09:19:26Z</time></trkpt><trkpt lat="43.330900447098095" lon="12.442818148939626"><ele>574.0</ele><time>2026-04-11T09:19:27Z</time></trkpt><trkpt lat="43.330866478731295" lon="12.442935942968086"><ele>574.0</ele><time>2026-04-11T09:19:28Z</time></trkpt><trkpt lat="43.33086744073952" lon="12.443060882040893"><ele>574.0</ele><time>2026-04-11T09:19:29Z</time></trkpt><trkpt lat="43.330910186280974" lon="12.443178607710552"><ele>574.0</ele><time>2026-04-11T09:19:30Z</time></trkpt><trkpt lat="43.33098571934373" lon="12.44327964481111"><ele>574.0</ele><time>2026-04-11T09:19:31Z</time></trkpt><trkpt lat="43.331086643827895" lon="12.443366525949903"><ele>574.0</ele><time>2026-04-11T09:19:32Z</time></trkpt><trkpt lat="43.33120167730411" lon="12.443417401691907"><ele>574.0</ele><time>2026-04-11T09:19:33Z</time></trkpt><trkpt lat="43.331327629740755" lon="12.443493104179465"><ele>574.0</ele><time>2026-04-11T09:19:34Z</time></trkpt><trkpt lat="43.33145785582862" lon="12.44356605659967"><ele>578.0</ele><time>2026-04-11T09:19:35Z</time></trkpt><trkpt lat="43.331566669267694" lon="12.443638858078698"><ele>582.0</ele><time>2026-04-11T09:19:36Z</time></trkpt><trkpt lat="43.33166822781853" lon="12.44370747966059"><ele>586.0</ele><time>2026-04-11T09:19:37Z</time></trkpt><trkpt lat="43.33174033043042" lon="12.443816641944885"><ele>590.0</ele><time>2026-04-11T09:19:38Z</time></trkpt><trkpt lat="43.33179497355661" lon="12.443927086181334"><ele>594.0</ele><time>2026-04-11T09:19:39Z</time></trkpt><trkpt lat="43.33182191638851" lon="12.44403248700784"><ele>594.0</ele><time>2026-04-11T09:19:40Z</time></trkpt><trkpt lat="43.331795226794746" lon="12.444140786471403"><ele>594.0</ele><time>2026-04-11T09:19:41Z</time></trkpt><trkpt lat="43.33173250893131" lon="12.44420227955847"><ele>594.0</ele><time>2026-04-11T09:19:42Z</time></trkpt><trkpt lat="43.33167729391478" lon="12.444306473640667"><ele>594.0</ele><time>2026-04-11T09:19:43Z</time></trkpt><trkpt lat="43.331590948415425" lon="12.44442308712587"><ele>594.0</ele><time>2026-04-11T09:19:44Z</time></trkpt><trkpt lat="43.33150524639532" lon="12.444555376052834"><ele>592.4</ele><time>2026-04-11T09:19:45Z</time></trkpt><trkpt lat="43.33143905083525" lon="12.44467961293629"><ele>590.8</ele><time>2026-04-11T09:19:46Z</time></trkpt><trkpt lat="43.33137313232413" lon="12.44478073196231"><ele>589.2</ele><time>2026-04-11T09:19:47Z</time></trkpt><trkpt lat="43.33133612317706" lon="12.444887485518064"><ele>587.6</ele><time>2026-04-11T09:19:48Z</time></trkpt><trkpt lat="43.331315823096034" lon="12.44499676672715"><ele>586.0</ele><time>2026-04-11T09:19:49Z</time></trkpt><trkpt lat="43.331318376490785" lon="12.445147438360252"><ele>586.0</ele><time>2026-04-11T09:19:50Z</time></trkpt><trkpt lat="43.331376376023904" lon="12.44531657021733"><ele>586.0</ele><time>2026-04-11T09:19:51Z</time></trkpt><trkpt lat="43.33144496374404" lon="12.445490311035838"><ele>586.0</ele><time>2026-04-11T09:19:52Z</time></trkpt><trkpt lat="43.33151410107175" lon="12.445656556688508"><ele>586.0</ele><time>2026-04-11T09:19:53Z</time></trkpt><trkpt lat="43.331562103377046" lon="12.445803714300727"><ele>590.5</ele><time>2026-04-11T09:19:54Z</time></trkpt><trkpt lat="43.331587003881474" lon="12.445954194604889"><ele>595.0</ele><time>2026-04-11T09:19:55Z</time></trkpt><trkpt lat="43.331562450758994" lon="12.4461053641699"><ele>599.5</ele><time>2026-04-11T09:19:56Z</time></trkpt><trkpt lat="43.331515582187855" lon="12.446269676274172"><ele>604.0</ele><time>2026-04-11T09:19:57Z</time></trkpt><trkpt lat="43.3314782980632" lon="12.446483736311059"><ele>606.3333333333334</ele><time>2026-04-11T09:19:58Z</time></trkpt><trkpt lat="43.33147318706359" lon="12.446713502786343"><ele>608.6666666666666</ele><time>2026-04-11T09:19:59Z</time></trkpt><trkpt lat="43.33145835003744" lon="12.446949485303323"><ele>611.0</ele><time>2026-04-11T09:20:00Z</time></trkpt><trkpt lat="43.33143984470391" lon="12.447201282477232"><ele>615.0</ele><time>2026-04-11T09:20:01Z</time></trkpt><trkpt lat="43.3314055477809" lon="12.447452138182195"><ele>619.0</ele><time>2026-04-11T09:20:02Z</time></trkpt><trkpt lat="43.33138470686954" lon="12.447655334863226"><ele>623.0</ele><time>2026-04-11T09:20:03Z</time></trkpt><trkpt lat="43.33136158174168" lon="12.447822366181908"><ele>620.6</ele><time>2026-04-11T09:20:04Z</time></trkpt><trkpt lat="43.33133501325279" lon="12.447978858339656"><ele>618.1999999999999</ele><time>2026-04-11T09:20:05Z</time></trkpt><trkpt lat="43.33130025865886" lon="12.448133007612276"><ele>615.8</ele><time>2026-04-11T09:20:06Z</time></trkpt><trkpt lat="43.331264805074504" lon="12.448261876233328"><ele>613.4</ele><time>2026-04-11T09:20:07Z</time></trkpt><trkpt lat="43.33122813944387" lon="12.448373456176123"><ele>611.0</ele><time>2026-04-11T09:20:08Z</time></trkpt><trkpt lat="43.33118837196993" lon="12.448482839423903"><ele>611.0</ele><time>2026-04-11T09:20:09Z</time></trkpt><trkpt lat="43.331132009993865" lon="12.448600686757663"><ele>611.0</ele><time>2026-04-11T09:20:10Z</time></trkpt><trkpt lat="43.33107705780352" lon="12.448715653544957"><ele>611.0</ele><time>2026-04-11T09:20:11Z</time></trkpt><trkpt lat="43.33101943594726" lon="12.448842570135765"><ele>611.0</ele><time>2026-04-11T09:20:12Z</time></trkpt><trkpt lat="43.33096305906683" lon="12.44896744411561"><ele>611.0</ele><time>2026-04-11T09:20:13Z</time></trkpt><trkpt lat="43.33091192142913" lon="12.449112137437277"><ele>614.25</ele><time>2026-04-11T09:20:14Z</time></trkpt><trkpt lat="43.33086528247482" lon="12.449255336879936"><ele>617.5</ele><time>2026-04-11T09:20:15Z</time></trkpt><trkpt lat="43.330819785250405" lon="12.449393855789005"><ele>620.75</ele><time>2026-04-11T09:20:16Z</time></trkpt><trkpt lat="43.33077429874058" lon="12.449544593250234"><ele>624.0</ele><time>2026-04-11T09:20:17.001Z</time></trkpt><trkpt lat="43.330724360496276" lon="12.44969744016799"><ele>623.25</ele><time>2026-04-11T09:20:18.001Z</time></trkpt><trkpt lat="43.330680199552894" lon="12.449859328542985"><ele>622.5</ele><time>2026-04-11T09:20:19.001Z</time></trkpt><trkpt lat="43.33062802103382" lon="12.450018187711427"><ele>621.75</ele><time>2026-04-11T09:20:20.001Z</time></trkpt><trkpt lat="43.3305840261889" lon="12.45019437456447"><ele>621.0</ele><time>2026-04-11T09:20:21.001Z</time></trkpt><trkpt lat="43.33053549243041" lon="12.450374040999495"><ele>625.5</ele><time>2026-04-11T09:20:22.001Z</time></trkpt><trkpt lat="43.33049231262114" lon="12.450541205282628"><ele>630.0</ele><time>2026-04-11T09:20:23.001Z</time></trkpt><trkpt lat="43.33045227308008" lon="12.450696538279942"><ele>634.5</ele><time>2026-04-11T09:20:24.001Z</time></trkpt><trkpt lat="43.330393552218155" lon="12.45084240441364"><ele>639.0</ele><time>2026-04-11T09:20:25.001Z</time></trkpt><trkpt lat="43.33035626125409" lon="12.450996328490795"><ele>639.0</ele><time>2026-04-11T09:20:26.001Z</time></trkpt><trkpt lat="43.33030652682892" lon="12.451125880220234"><ele>639.0</ele><time>2026-04-11T09:20:27.001Z</time></trkpt><trkpt lat="43.33025076910911" lon="12.451244010146402"><ele>639.0</ele><time>2026-04-11T09:20:28.001Z</time></trkpt><trkpt lat="43.330195025112566" lon="12.451351599057519"><ele>639.0</ele><time>2026-04-11T09:20:29.001Z</time></trkpt><trkpt lat="43.33013517870457" lon="12.45146231973212"><ele>639.0</ele><time>2026-04-11T09:20:30.001Z</time></trkpt><trkpt lat="43.33006790385113" lon="12.45156486747956"><ele>640.6</ele><time>2026-04-11T09:20:31.001Z</time></trkpt><trkpt lat="43.32999853767012" lon="12.451679625592307"><ele>642.2</ele><time>2026-04-11T09:20:32.001Z</time></trkpt><trkpt lat="43.329930760811344" lon="12.451783232043994"><ele>643.8000000000001</ele><time>2026-04-11T09:20:33.001Z</time></trkpt><trkpt lat="43.32987524489142" lon="12.451880184549518"><ele>645.4</ele><time>2026-04-11T09:20:34.001Z</time></trkpt><trkpt lat="43.32982174191851" lon="12.451955199828399"><ele>647.0</ele><time>2026-04-11T09:20:35.001Z</time></trkpt><trkpt lat="43.32977668850316" lon="12.45204592309519"><ele>644.4</ele><time>2026-04-11T09:20:36.001Z</time></trkpt><trkpt lat="43.32975117099545" lon="12.452157974428204"><ele>641.8000000000001</ele><time>2026-04-11T09:20:37.001Z</time></trkpt><trkpt lat="43.32975957852218" lon="12.452295656393327"><ele>639.2</ele><time>2026-04-11T09:20:38.001Z</time></trkpt><trkpt lat="43.329794514905885" lon="12.452447405794874"><ele>636.6</ele><time>2026-04-11T09:20:39.001Z</time></trkpt><trkpt lat="43.32984270425877" lon="12.452615799726553"><ele>634.0</ele><time>2026-04-11T09:20:40.001Z</time></trkpt><trkpt lat="43.32989987284185" lon="12.45281194743579"><ele>631.5</ele><time>2026-04-11T09:20:41.001Z</time></trkpt><trkpt lat="43.329955210989475" lon="12.452985150021242"><ele>629.0</ele><time>2026-04-11T09:20:42.001Z</time></trkpt><trkpt lat="43.32998909948827" lon="12.453162179310512"><ele>626.5</ele><time>2026-04-11T09:20:43.001Z</time></trkpt><trkpt lat="43.329982640792295" lon="12.453334241898368"><ele>624.0</ele><time>2026-04-11T09:20:44.001Z</time></trkpt><trkpt lat="43.32997003991127" lon="12.45351309655714"><ele>624.0</ele><time>2026-04-11T09:20:45.001Z</time></trkpt><trkpt lat="43.329971618467006" lon="12.453696239948155"><ele>624.0</ele><time>2026-04-11T09:20:46.001Z</time></trkpt><trkpt lat="43.329965076181914" lon="12.45388115839941"><ele>624.0</ele><time>2026-04-11T09:20:47.001Z</time></trkpt><trkpt lat="43.32997746534309" lon="12.454070422580514"><ele>624.0</ele><time>2026-04-11T09:20:48.001Z</time></trkpt><trkpt lat="43.33000768194894" lon="12.454267956441532"><ele>621.0</ele><time>2026-04-11T09:20:49.001Z</time></trkpt><trkpt lat="43.33005594559149" lon="12.454481293995594"><ele>618.0</ele><time>2026-04-11T09:20:50.001Z</time></trkpt><trkpt lat="43.33010823652162" lon="12.45468749985789"><ele>615.0</ele><time>2026-04-11T09:20:51.001Z</time></trkpt><trkpt lat="43.33012331081913" lon="12.45489609637661"><ele>613.6666666666666</ele><time>2026-04-11T09:20:52.001Z</time></trkpt><trkpt lat="43.33014404065696" lon="12.455121238377444"><ele>612.3333333333333</ele><time>2026-04-11T09:20:53Z</time></trkpt><trkpt lat="43.33015872561673" lon="12.455358538454766"><ele>611.0</ele><time>2026-04-11T09:20:54Z</time></trkpt><trkpt lat="43.33018067291929" lon="12.455582391938451"><ele>611.0</ele><time>2026-04-11T09:20:55Z</time></trkpt><trkpt lat="43.33017869973009" lon="12.455789803675705"><ele>611.0</ele><time>2026-04-11T09:20:56Z</time></trkpt><trkpt lat="43.330176892603156" lon="12.456001471084974"><ele>611.0</ele><time>2026-04-11T09:20:57Z</time></trkpt><trkpt lat="43.33014677320318" lon="12.456232257069564"><ele>610.6666666666666</ele><time>2026-04-11T09:20:58Z</time></trkpt><trkpt lat="43.33011813834056" lon="12.456474479627504"><ele>610.3333333333334</ele><time>2026-04-11T09:20:59Z</time></trkpt><trkpt lat="43.33008826197932" lon="12.456713334879684"><ele>610.0</ele><time>2026-04-11T09:21:00Z</time></trkpt><trkpt lat="43.3300734012305" lon="12.456928803759917"><ele>611.75</ele><time>2026-04-11T09:21:01Z</time></trkpt><trkpt lat="43.330046680661056" lon="12.457120918480339"><ele>613.5</ele><time>2026-04-11T09:21:02Z</time></trkpt><trkpt lat="43.33000694593306" lon="12.457306344051233"><ele>615.25</ele><time>2026-04-11T09:21:03Z</time></trkpt><trkpt lat="43.32996518042218" lon="12.457474610645363"><ele>617.0</ele><time>2026-04-11T09:21:04Z</time></trkpt><trkpt lat="43.32990749646419" lon="12.457629095950912"><ele>617.0</ele><time>2026-04-11T09:21:05Z</time></trkpt><trkpt lat="43.32984615193961" lon="12.457761370870776"><ele>617.0</ele><time>2026-04-11T09:21:06Z</time></trkpt><trkpt lat="43.32976571952853" lon="12.457843115454798"><ele>617.0</ele><time>2026-04-11T09:21:07Z</time></trkpt><trkpt lat="43.329700876719826" lon="12.457861638724454"><ele>617.0</ele><time>2026-04-11T09:21:09Z</time></trkpt><trkpt lat="43.32963596200467" lon="12.45793847238393"><ele>617.0</ele><time>2026-04-11T09:21:16Z</time></trkpt><trkpt lat="43.329558945263805" lon="12.458009436832212"><ele>620.2</ele><time>2026-04-11T09:21:17Z</time></trkpt><trkpt lat="43.329467184790936" lon="12.458044687211983"><ele>623.4000000000001</ele><time>2026-04-11T09:21:18Z</time></trkpt><trkpt lat="43.32934427520789" lon="12.45811272794437"><ele>626.5999999999999</ele><time>2026-04-11T09:21:19Z</time></trkpt><trkpt lat="43.329232594625104" lon="12.458150671970206"><ele>629.8</ele><time>2026-04-11T09:21:20Z</time></trkpt><trkpt lat="43.32915182933053" lon="12.458203314247362"><ele>633.0</ele><time>2026-04-11T09:21:21Z</time></trkpt><trkpt lat="43.32909483024614" lon="12.458263364210692"><ele>633.0</ele><time>2026-04-11T09:21:22Z</time></trkpt><trkpt lat="43.32905235889849" lon="12.458335137798484"><ele>633.0</ele><time>2026-04-11T09:21:23Z</time></trkpt><trkpt lat="43.329024319764784" lon="12.458431509303779"><ele>633.0</ele><time>2026-04-11T09:21:24Z</time></trkpt><trkpt lat="43.329013149888894" lon="12.458547599043603"><ele>633.0</ele><time>2026-04-11T09:21:25Z</time></trkpt><trkpt lat="43.32904912462389" lon="12.458660421686547"><ele>633.0</ele><time>2026-04-11T09:21:26Z</time></trkpt><trkpt lat="43.32910469214975" lon="12.458739840201996"><ele>633.0</ele><time>2026-04-11T09:21:27Z</time></trkpt><trkpt lat="43.329172411270775" lon="12.4587794193203"><ele>633.0</ele><time>2026-04-11T09:21:28Z</time></trkpt><trkpt lat="43.3292657845106" lon="12.45872019469105"><ele>633.0</ele><time>2026-04-11T09:21:29Z</time></trkpt><trkpt lat="43.32930510440382" lon="12.458617641656796"><ele>633.0</ele><time>2026-04-11T09:21:30Z</time></trkpt><trkpt lat="43.32936803473784" lon="12.458532543665347"><ele>633.0</ele><time>2026-04-11T09:21:31Z</time></trkpt><trkpt lat="43.32942327681695" lon="12.45844032187839"><ele>633.0</ele><time>2026-04-11T09:21:32Z</time></trkpt><trkpt lat="43.329488314586094" lon="12.458413550989"><ele>633.0</ele><time>2026-04-11T09:21:33Z</time></trkpt><trkpt lat="43.32959768505833" lon="12.458435708936905"><ele>634.0</ele><time>2026-04-11T09:21:35Z</time></trkpt><trkpt lat="43.32973511567949" lon="12.458498058253857"><ele>635.0</ele><time>2026-04-11T09:21:37Z</time></trkpt><trkpt lat="43.32982583538343" lon="12.458552708760667"><ele>636.0</ele><time>2026-04-11T09:21:38Z</time></trkpt><trkpt lat="43.32994495367942" lon="12.45864633044976"><ele>637.0</ele><time>2026-04-11T09:21:39Z</time></trkpt><trkpt lat="43.33006275895522" lon="12.45874425738829"><ele>640.6</ele><time>2026-04-11T09:21:40Z</time></trkpt><trkpt lat="43.33017085969302" lon="12.45883620224309"><ele>644.2</ele><time>2026-04-11T09:21:41Z</time></trkpt><trkpt lat="43.330271989813724" lon="12.458923827397486"><ele>647.8</ele><time>2026-04-11T09:21:42Z</time></trkpt><trkpt lat="43.33036029659838" lon="12.459001602695254"><ele>651.4</ele><time>2026-04-11T09:21:43Z</time></trkpt><trkpt lat="43.33044157242467" lon="12.459075770488486"><ele>655.0</ele><time>2026-04-11T09:21:44Z</time></trkpt><trkpt lat="43.330522995267806" lon="12.459157085203573"><ele>653.75</ele><time>2026-04-11T09:21:45Z</time></trkpt><trkpt lat="43.33061178196187" lon="12.459263322265446"><ele>652.5</ele><time>2026-04-11T09:21:46Z</time></trkpt><trkpt lat="43.33067453674083" lon="12.459405195275561"><ele>651.25</ele><time>2026-04-11T09:21:47Z</time></trkpt><trkpt lat="43.330727764696476" lon="12.459540507789821"><ele>650.0</ele><time>2026-04-11T09:21:48Z</time></trkpt><trkpt lat="43.33075584321318" lon="12.459679230853782"><ele>650.0</ele><time>2026-04-11T09:21:49Z</time></trkpt><trkpt lat="43.33077917707401" lon="12.459812529010014"><ele>650.0</ele><time>2026-04-11T09:21:50Z</time></trkpt><trkpt lat="43.330787809389165" lon="12.45998004023075"><ele>650.0</ele><time>2026-04-11T09:21:51Z</time></trkpt><trkpt lat="43.330784173580284" lon="12.460195363436602"><ele>650.0</ele><time>2026-04-11T09:21:52Z</time></trkpt><trkpt lat="43.33079434231408" lon="12.46044670256311"><ele>652.3333333333333</ele><time>2026-04-11T09:21:53Z</time></trkpt><trkpt lat="43.33084828229955" lon="12.460661981803758"><ele>654.6666666666666</ele><time>2026-04-11T09:21:54Z</time></trkpt><trkpt lat="43.33090575293758" lon="12.460878975554689"><ele>657.0</ele><time>2026-04-11T09:21:55Z</time></trkpt><trkpt lat="43.33097133961014" lon="12.461094359906353"><ele>657.25</ele><time>2026-04-11T09:21:56Z</time></trkpt><trkpt lat="43.33104046184473" lon="12.461293801417174"><ele>657.5</ele><time>2026-04-11T09:21:57Z</time></trkpt><trkpt lat="43.331103305038916" lon="12.461467317703061"><ele>657.75</ele><time>2026-04-11T09:21:58Z</time></trkpt><trkpt lat="43.3311597769504" lon="12.461617633592086"><ele>658.0</ele><time>2026-04-11T09:21:59Z</time></trkpt><trkpt lat="43.33122227414076" lon="12.461768371157877"><ele>658.0</ele><time>2026-04-11T09:22:00Z</time></trkpt><trkpt lat="43.33129054018043" lon="12.461933198024923"><ele>658.0</ele><time>2026-04-11T09:22:01Z</time></trkpt><trkpt lat="43.33136371232158" lon="12.462108972609196"><ele>658.0</ele><time>2026-04-11T09:22:02Z</time></trkpt><trkpt lat="43.33144417449718" lon="12.46230069101053"><ele>658.0</ele><time>2026-04-11T09:22:03Z</time></trkpt><trkpt lat="43.33151869461285" lon="12.462497113192144"><ele>659.6666666666667</ele><time>2026-04-11T09:22:04Z</time></trkpt><trkpt lat="43.331579826684376" lon="12.462699159543789"><ele>661.3333333333334</ele><time>2026-04-11T09:22:05Z</time></trkpt><trkpt lat="43.33163190995709" lon="12.462906969159405"><ele>663.0</ele><time>2026-04-11T09:22:06Z</time></trkpt><trkpt lat="43.33167628498695" lon="12.46311538236056"><ele>663.0</ele><time>2026-04-11T09:22:07Z</time></trkpt><trkpt lat="43.33171162092848" lon="12.463311015261326"><ele>663.0</ele><time>2026-04-11T09:22:08Z</time></trkpt><trkpt lat="43.33173413082436" lon="12.46349051511944"><ele>663.0</ele><time>2026-04-11T09:22:09Z</time></trkpt><trkpt lat="43.33175623316123" lon="12.463643912584272"><ele>663.0</ele><time>2026-04-11T09:22:10Z</time></trkpt><trkpt lat="43.331782930308975" lon="12.463777444768267"><ele>662.5</ele><time>2026-04-11T09:22:11Z</time></trkpt><trkpt lat="43.33182186014873" lon="12.463924705589372"><ele>662.0</ele><time>2026-04-11T09:22:12Z</time></trkpt><trkpt lat="43.33187900911076" lon="12.464077899214471"><ele>661.5</ele><time>2026-04-11T09:22:13Z</time></trkpt><trkpt lat="43.33195716843536" lon="12.464223349606018"><ele>661.0</ele><time>2026-04-11T09:22:14Z</time></trkpt><trkpt lat="43.33202607260271" lon="12.464350125609318"><ele>661.0</ele><time>2026-04-11T09:22:15Z</time></trkpt><trkpt lat="43.3320735554114" lon="12.464477479265877"><ele>661.0</ele><time>2026-04-11T09:22:16Z</time></trkpt><trkpt lat="43.332092868473644" lon="12.464617411815315"><ele>661.0</ele><time>2026-04-11T09:22:17Z</time></trkpt><trkpt lat="43.33208289899429" lon="12.46477733944333"><ele>661.0</ele><time>2026-04-11T09:22:18Z</time></trkpt><trkpt lat="43.33206458356019" lon="12.464951531607161"><ele>661.8</ele><time>2026-04-11T09:22:19Z</time></trkpt><trkpt lat="43.33203261422198" lon="12.465107545387111"><ele>662.5999999999999</ele><time>2026-04-11T09:22:20Z</time></trkpt><trkpt lat="43.3319962075415" lon="12.465244421270258"><ele>663.4</ele><time>2026-04-11T09:22:21Z</time></trkpt><trkpt lat="43.331948728722196" lon="12.46536733257664"><ele>664.2</ele><time>2026-04-11T09:22:22Z</time></trkpt><trkpt lat="43.331890834697" lon="12.465487712695445"><ele>665.0</ele><time>2026-04-11T09:22:23Z</time></trkpt><trkpt lat="43.331813084067385" lon="12.465575278005044"><ele>667.2</ele><time>2026-04-11T09:22:24Z</time></trkpt><trkpt lat="43.331766510857946" lon="12.465667400996042"><ele>669.4</ele><time>2026-04-11T09:22:25Z</time></trkpt><trkpt lat="43.331732673713034" lon="12.465780513775945"><ele>671.5999999999999</ele><time>2026-04-11T09:22:26Z</time></trkpt><trkpt lat="43.331701902680685" lon="12.465897674699962"><ele>673.8</ele><time>2026-04-11T09:22:27Z</time></trkpt><trkpt lat="43.33171764668175" lon="12.466067104944077"><ele>676.0</ele><time>2026-04-11T09:22:28Z</time></trkpt><trkpt lat="43.331752603993415" lon="12.466256873840347"><ele>676.3333333333334</ele><time>2026-04-11T09:22:29Z</time></trkpt><trkpt lat="43.33180177119412" lon="12.466480031473402"><ele>676.6666666666666</ele><time>2026-04-11T09:22:30Z</time></trkpt><trkpt lat="43.331851598071864" lon="12.46668611022787"><ele>677.0</ele><time>2026-04-11T09:22:31.001Z</time></trkpt><trkpt lat="43.33192003550006" lon="12.466871013173568"><ele>677.0</ele><time>2026-04-11T09:22:32.001Z</time></trkpt><trkpt lat="43.331960244994306" lon="12.467028782454234"><ele>677.0</ele><time>2026-04-11T09:22:33.001Z</time></trkpt><trkpt lat="43.33198555063659" lon="12.467182011711367"><ele>677.0</ele><time>2026-04-11T09:22:34.001Z</time></trkpt><trkpt lat="43.3320108089785" lon="12.467335647663546"><ele>677.0</ele><time>2026-04-11T09:22:35.001Z</time></trkpt><trkpt lat="43.33202290766654" lon="12.467486137359764"><ele>676.8</ele><time>2026-04-11T09:22:36.001Z</time></trkpt><trkpt lat="43.332016453806254" lon="12.46763824379022"><ele>676.6</ele><time>2026-04-11T09:22:37.001Z</time></trkpt><trkpt lat="43.33197730995002" lon="12.467778495561422"><ele>676.4</ele><time>2026-04-11T09:22:38.001Z</time></trkpt><trkpt lat="43.331923518636806" lon="12.467907183518589"><ele>676.1999999999999</ele><time>2026-04-11T09:22:39.001Z</time></trkpt><trkpt lat="43.331879151110165" lon="12.468034116822329"><ele>676.0</ele><time>2026-04-11T09:22:40.001Z</time></trkpt><trkpt lat="43.33186051545283" lon="12.468164293772404"><ele>676.0</ele><time>2026-04-11T09:22:41.001Z</time></trkpt><trkpt lat="43.33184584392811" lon="12.46827449405451"><ele>676.0</ele><time>2026-04-11T09:22:42.001Z</time></trkpt><trkpt lat="43.33183870121501" lon="12.46838422036131"><ele>676.0</ele><time>2026-04-11T09:22:43.001Z</time></trkpt><trkpt lat="43.331838257329956" lon="12.468473515411485"><ele>676.0</ele><time>2026-04-11T09:22:44.001Z</time></trkpt><trkpt lat="43.33182523650987" lon="12.46859176228167"><ele>676.0</ele><time>2026-04-11T09:22:46.001Z</time></trkpt><trkpt lat="43.33199794943779" lon="12.468608546206132"><ele>676.0</ele><time>2026-04-11T09:23:24Z</time></trkpt><trkpt lat="43.33208740276741" lon="12.468573819740735"><ele>676.0</ele><time>2026-04-11T09:23:26Z</time></trkpt><trkpt lat="43.332212870939756" lon="12.46849795140841"><ele>676.0</ele><time>2026-04-11T09:23:28Z</time></trkpt><trkpt lat="43.33227671295972" lon="12.468460860976949"><ele>676.0</ele><time>2026-04-11T09:23:29Z</time></trkpt><trkpt lat="43.33234859654888" lon="12.468419098616947"><ele>676.0</ele><time>2026-04-11T09:23:30Z</time></trkpt><trkpt lat="43.332434665776766" lon="12.46836909478654"><ele>677.0</ele><time>2026-04-11T09:23:31Z</time></trkpt><trkpt lat="43.33251127247862" lon="12.468300612428486"><ele>678.0</ele><time>2026-04-11T09:23:32Z</time></trkpt><trkpt lat="43.33260693284564" lon="12.468245728543604"><ele>679.0</ele><time>2026-04-11T09:23:33Z</time></trkpt><trkpt lat="43.33270909470786" lon="12.468184434418738"><ele>680.0</ele><time>2026-04-11T09:23:34Z</time></trkpt><trkpt lat="43.332810986506196" lon="12.46812158700925"><ele>681.0</ele><time>2026-04-11T09:23:35Z</time></trkpt><trkpt lat="43.332913658872826" lon="12.46805900586161"><ele>681.0</ele><time>2026-04-11T09:23:36Z</time></trkpt><trkpt lat="43.33302838968864" lon="12.468047684863505"><ele>681.0</ele><time>2026-04-11T09:23:37Z</time></trkpt><trkpt lat="43.33313402588986" lon="12.46802001726608"><ele>681.0</ele><time>2026-04-11T09:23:38Z</time></trkpt><trkpt lat="43.33323097797049" lon="12.467981457414478"><ele>681.0</ele><time>2026-04-11T09:23:39Z</time></trkpt><trkpt lat="43.3333303319328" lon="12.46791330726949"><ele>681.0</ele><time>2026-04-11T09:23:40Z</time></trkpt><trkpt lat="43.3334191555977" lon="12.467841625857156"><ele>683.1999999999999</ele><time>2026-04-11T09:23:41Z</time></trkpt><trkpt lat="43.33350467257414" lon="12.467768824037792"><ele>685.4</ele><time>2026-04-11T09:23:42Z</time></trkpt><trkpt lat="43.33359197175942" lon="12.46769907592951"><ele>687.6</ele><time>2026-04-11T09:23:43Z</time></trkpt><trkpt lat="43.333681367927426" lon="12.46763998366174"><ele>689.8</ele><time>2026-04-11T09:23:44Z</time></trkpt><trkpt lat="43.333770999323896" lon="12.467617113854331"><ele>692.0</ele><time>2026-04-11T09:23:45Z</time></trkpt><trkpt lat="43.33385347708348" lon="12.467596108992025"><ele>689.0</ele><time>2026-04-11T09:23:46Z</time></trkpt><trkpt lat="43.33392855114031" lon="12.467563803833357"><ele>686.0</ele><time>2026-04-11T09:23:47Z</time></trkpt><trkpt lat="43.33398004855921" lon="12.467476401379031"><ele>683.0</ele><time>2026-04-11T09:23:48Z</time></trkpt><trkpt lat="43.3340224572911" lon="12.467396252120135"><ele>680.0</ele><time>2026-04-11T09:23:49Z</time></trkpt><trkpt lat="43.33405355054651" lon="12.46730243815387"><ele>677.0</ele><time>2026-04-11T09:23:50Z</time></trkpt><trkpt lat="43.33404265001508" lon="12.467189965769103"><ele>674.0</ele><time>2026-04-11T09:23:51Z</time></trkpt><trkpt lat="43.33403067501014" lon="12.467052751003513"><ele>674.0</ele><time>2026-04-11T09:23:52Z</time></trkpt><trkpt lat="43.334033136440894" lon="12.466895151034953"><ele>674.0</ele><time>2026-04-11T09:23:53Z</time></trkpt><trkpt lat="43.334026483648046" lon="12.466744984969559"><ele>674.0</ele><time>2026-04-11T09:23:54Z</time></trkpt><trkpt lat="43.33404185448781" lon="12.466587618763121"><ele>674.0</ele><time>2026-04-11T09:23:55Z</time></trkpt><trkpt lat="43.33407707185124" lon="12.4664351564751"><ele>674.0</ele><time>2026-04-11T09:23:56Z</time></trkpt><trkpt lat="43.33413042471562" lon="12.466288828132924"><ele>674.0</ele><time>2026-04-11T09:23:57Z</time></trkpt><trkpt lat="43.334183123428424" lon="12.466146636951269"><ele>674.0</ele><time>2026-04-11T09:23:58Z</time></trkpt><trkpt lat="43.33423028039906" lon="12.466003191385155"><ele>674.0</ele><time>2026-04-11T09:23:59Z</time></trkpt><trkpt lat="43.3342881253878" lon="12.465871846023825"><ele>673.5</ele><time>2026-04-11T09:24:00Z</time></trkpt><trkpt lat="43.334349296256896" lon="12.465763190118425"><ele>673.0</ele><time>2026-04-11T09:24:01Z</time></trkpt><trkpt lat="43.33440410698338" lon="12.465662611730403"><ele>672.5</ele><time>2026-04-11T09:24:02Z</time></trkpt><trkpt lat="43.334447797795576" lon="12.465557121538778"><ele>672.0</ele><time>2026-04-11T09:24:03Z</time></trkpt><trkpt lat="43.33448720393467" lon="12.465453876444121"><ele>671.5</ele><time>2026-04-11T09:24:04Z</time></trkpt><trkpt lat="43.334545022866315" lon="12.465369684304981"><ele>671.0</ele><time>2026-04-11T09:24:05Z</time></trkpt><trkpt lat="43.33459245191277" lon="12.465280936120585"><ele>669.1666666666666</ele><time>2026-04-11T09:24:06Z</time></trkpt><trkpt lat="43.33464123461674" lon="12.465190815901908"><ele>667.3333333333333</ele><time>2026-04-11T09:24:07Z</time></trkpt><trkpt lat="43.334678605982354" lon="12.46509258997388"><ele>665.5</ele><time>2026-04-11T09:24:08Z</time></trkpt><trkpt lat="43.33472114907584" lon="12.465001801818309"><ele>663.6666666666666</ele><time>2026-04-11T09:24:09Z</time></trkpt><trkpt lat="43.33476523814494" lon="12.464918777295807"><ele>661.8333333333334</ele><time>2026-04-11T09:24:10Z</time></trkpt><trkpt lat="43.33481376720455" lon="12.464833994624344"><ele>660.0</ele><time>2026-04-11T09:24:11Z</time></trkpt><trkpt lat="43.33488540335568" lon="12.464773149360827"><ele>660.0</ele><time>2026-04-11T09:24:12Z</time></trkpt><trkpt lat="43.334960136987824" lon="12.464726983766909"><ele>660.0</ele><time>2026-04-11T09:24:13Z</time></trkpt><trkpt lat="43.33503880505469" lon="12.464674722765922"><ele>660.0</ele><time>2026-04-11T09:24:14Z</time></trkpt><trkpt lat="43.3351144193584" lon="12.46463697158465"><ele>660.0</ele><time>2026-04-11T09:24:15Z</time></trkpt><trkpt lat="43.33519626404335" lon="12.46461352669698"><ele>660.0</ele><time>2026-04-11T09:24:16Z</time></trkpt><trkpt lat="43.335281546978784" lon="12.464627061519664"><ele>660.0</ele><time>2026-04-11T09:24:17Z</time></trkpt><trkpt lat="43.33536699305875" lon="12.464664158987118"><ele>660.0</ele><time>2026-04-11T09:24:18Z</time></trkpt><trkpt lat="43.33545099962967" lon="12.464740767546761"><ele>660.0</ele><time>2026-04-11T09:24:19Z</time></trkpt><trkpt lat="43.33554058537784" lon="12.46481530875103"><ele>660.0</ele><time>2026-04-11T09:24:20Z</time></trkpt><trkpt lat="43.335643560343634" lon="12.464888256290608"><ele>660.0</ele><time>2026-04-11T09:24:21Z</time></trkpt><trkpt lat="43.33574244462631" lon="12.464924434733401"><ele>660.0</ele><time>2026-04-11T09:24:22Z</time></trkpt><trkpt lat="43.335828472638866" lon="12.46497027512731"><ele>657.8333333333334</ele><time>2026-04-11T09:24:23Z</time></trkpt><trkpt lat="43.335899394154026" lon="12.465022122488628"><ele>655.6666666666666</ele><time>2026-04-11T09:24:24Z</time></trkpt><trkpt lat="43.335955699434734" lon="12.46508537797985"><ele>653.5</ele><time>2026-04-11T09:24:25.001Z</time></trkpt><trkpt lat="43.33604783072949" lon="12.465162810048273"><ele>651.3333333333333</ele><time>2026-04-11T09:24:27.001Z</time></trkpt><trkpt lat="43.33614121182157" lon="12.46514791749536"><ele>649.1666666666666</ele><time>2026-04-11T09:24:29.001Z</time></trkpt><trkpt lat="43.336149559382505" lon="12.465052812651077"><ele>647.0</ele><time>2026-04-11T09:24:30.001Z</time></trkpt><trkpt lat="43.3360889720522" lon="12.464932962348755"><ele>647.0</ele><time>2026-04-11T09:24:32.001Z</time></trkpt><trkpt lat="43.33603554352126" lon="12.464838033772384"><ele>647.0</ele><time>2026-04-11T09:24:33.001Z</time></trkpt><trkpt lat="43.335955693747586" lon="12.464749025503899"><ele>647.0</ele><time>2026-04-11T09:24:34.001Z</time></trkpt><trkpt lat="43.335885977839155" lon="12.464666031044123"><ele>647.0</ele><time>2026-04-11T09:24:35.001Z</time></trkpt><trkpt lat="43.33581354279643" lon="12.46458504396963"><ele>647.0</ele><time>2026-04-11T09:24:36.001Z</time></trkpt><trkpt lat="43.33574099979509" lon="12.46449760574209"><ele>645.0</ele><time>2026-04-11T09:24:37.001Z</time></trkpt><trkpt lat="43.33568278300478" lon="12.464390200947095"><ele>643.0</ele><time>2026-04-11T09:24:38.001Z</time></trkpt><trkpt lat="43.33564548119496" lon="12.464270960353257"><ele>641.0</ele><time>2026-04-11T09:24:39.001Z</time></trkpt><trkpt lat="43.335617334312445" lon="12.464146462851613"><ele>639.0</ele><time>2026-04-11T09:24:40.001Z</time></trkpt><trkpt lat="43.33558519772421" lon="12.464027767199623"><ele>637.0</ele><time>2026-04-11T09:24:41.001Z</time></trkpt><trkpt lat="43.33554482980002" lon="12.463908307211534"><ele>637.0</ele><time>2026-04-11T09:24:42.001Z</time></trkpt><trkpt lat="43.33551118930624" lon="12.463785461391554"><ele>637.0</ele><time>2026-04-11T09:24:43.001Z</time></trkpt><trkpt lat="43.33549167692773" lon="12.463666175277563"><ele>637.0</ele><time>2026-04-11T09:24:44.001Z</time></trkpt><trkpt lat="43.33549274512672" lon="12.463545441014297"><ele>637.0</ele><time>2026-04-11T09:24:45.001Z</time></trkpt><trkpt lat="43.33551603747791" lon="12.463416184146725"><ele>637.0</ele><time>2026-04-11T09:24:46.001Z</time></trkpt><trkpt lat="43.335546395381435" lon="12.46328829547693"><ele>632.2</ele><time>2026-04-11T09:24:47.001Z</time></trkpt><trkpt lat="43.33558567516271" lon="12.463166401567124"><ele>627.4000000000001</ele><time>2026-04-11T09:24:48.001Z</time></trkpt><trkpt lat="43.33563915202681" lon="12.463059053210795"><ele>622.5999999999999</ele><time>2026-04-11T09:24:49.001Z</time></trkpt><trkpt lat="43.335704870162004" lon="12.462955108457448"><ele>617.8</ele><time>2026-04-11T09:24:50.001Z</time></trkpt><trkpt lat="43.33577297172132" lon="12.462860708553855"><ele>613.0</ele><time>2026-04-11T09:24:51.001Z</time></trkpt><trkpt lat="43.335825277058284" lon="12.462757443047085"><ele>611.3333333333334</ele><time>2026-04-11T09:24:52.001Z</time></trkpt><trkpt lat="43.335838017546735" lon="12.462626939942973"><ele>609.6666666666667</ele><time>2026-04-11T09:24:53.001Z</time></trkpt><trkpt lat="43.335874293280305" lon="12.462503047624448"><ele>608.0</ele><time>2026-04-11T09:24:54.001Z</time></trkpt><trkpt lat="43.335897129717345" lon="12.462377643880501"><ele>606.3333333333334</ele><time>2026-04-11T09:24:55.001Z</time></trkpt><trkpt lat="43.33593534802404" lon="12.462269996203531"><ele>604.6666666666666</ele><time>2026-04-11T09:24:56.001Z</time></trkpt><trkpt lat="43.335986356090814" lon="12.46219590646529"><ele>603.0</ele><time>2026-04-11T09:24:57.001Z</time></trkpt><trkpt lat="43.336059849599536" lon="12.462137138596031"><ele>603.0</ele><time>2026-04-11T09:24:58.001Z</time></trkpt><trkpt lat="43.336147852035005" lon="12.4621213450929"><ele>603.0</ele><time>2026-04-11T09:24:59.001Z</time></trkpt><trkpt lat="43.3362311419061" lon="12.462125035488585"><ele>603.0</ele><time>2026-04-11T09:25:00.001Z</time></trkpt><trkpt lat="43.33630851982257" lon="12.462159444744001"><ele>603.0</ele><time>2026-04-11T09:25:01.001Z</time></trkpt><trkpt lat="43.336419749686804" lon="12.462203133501506"><ele>603.0</ele><time>2026-04-11T09:25:03.001Z</time></trkpt><trkpt lat="43.336528297142195" lon="12.462143001726801"><ele>600.1999999999999</ele><time>2026-04-11T09:25:05Z</time></trkpt><trkpt lat="43.33658549903439" lon="12.461972451803048"><ele>597.4</ele><time>2026-04-11T09:25:07Z</time></trkpt><trkpt lat="43.336606962292706" lon="12.46184515552913"><ele>594.5999999999999</ele><time>2026-04-11T09:25:08Z</time></trkpt><trkpt lat="43.3366453815139" lon="12.461729689823803"><ele>591.8</ele><time>2026-04-11T09:25:09Z</time></trkpt><trkpt lat="43.336696007560555" lon="12.461625366351214"><ele>589.0</ele><time>2026-04-11T09:25:10Z</time></trkpt><trkpt lat="43.33676545081772" lon="12.461543527033134"><ele>589.0</ele><time>2026-04-11T09:25:11Z</time></trkpt><trkpt lat="43.336809036084894" lon="12.461441351725508"><ele>589.0</ele><time>2026-04-11T09:25:12Z</time></trkpt><trkpt lat="43.33685357030029" lon="12.461357673266955"><ele>589.0</ele><time>2026-04-11T09:25:13Z</time></trkpt><trkpt lat="43.33690909752655" lon="12.461257136102603"><ele>589.0</ele><time>2026-04-11T09:25:15Z</time></trkpt><trkpt lat="43.33695021161532" lon="12.461455950742012"><ele>589.0</ele><time>2026-04-11T09:25:20Z</time></trkpt><trkpt lat="43.33690827729821" lon="12.46156993366848"><ele>589.0</ele><time>2026-04-11T09:25:22Z</time></trkpt><trkpt lat="43.336878500918644" lon="12.461699685906394"><ele>589.0</ele><time>2026-04-11T09:25:24Z</time></trkpt><trkpt lat="43.33685167352423" lon="12.461847171192794"><ele>589.0</ele><time>2026-04-11T09:25:26Z</time></trkpt><trkpt lat="43.33687997577442" lon="12.462019054231474"><ele>589.0</ele><time>2026-04-11T09:25:28Z</time></trkpt><trkpt lat="43.3369240726375" lon="12.462094515430858"><ele>589.0</ele><time>2026-04-11T09:25:29Z</time></trkpt><trkpt lat="43.336969771234266" lon="12.462155538205554"><ele>590.4</ele><time>2026-04-11T09:25:30Z</time></trkpt><trkpt lat="43.33705498436647" lon="12.462263457481813"><ele>591.8</ele><time>2026-04-11T09:25:32Z</time></trkpt><trkpt lat="43.3371254691936" lon="12.462398167872601"><ele>593.2</ele><time>2026-04-11T09:25:34Z</time></trkpt><trkpt lat="43.337127162965565" lon="12.462570009486157"><ele>594.6</ele><time>2026-04-11T09:25:36Z</time></trkpt><trkpt lat="43.33710008394604" lon="12.46265541100056"><ele>596.0</ele><time>2026-04-11T09:25:37Z</time></trkpt><trkpt lat="43.33706098107009" lon="12.462734072285784"><ele>596.0</ele><time>2026-04-11T09:25:38Z</time></trkpt><trkpt lat="43.33701265128418" lon="12.462809330397265"><ele>596.0</ele><time>2026-04-11T09:25:39Z</time></trkpt><trkpt lat="43.336968322861196" lon="12.462901256761143"><ele>596.0</ele><time>2026-04-11T09:25:40Z</time></trkpt><trkpt lat="43.33692379445999" lon="12.46300968271204"><ele>596.0</ele><time>2026-04-11T09:25:41Z</time></trkpt><trkpt lat="43.33688078492058" lon="12.463117487290706"><ele>596.0</ele><time>2026-04-11T09:25:42Z</time></trkpt><trkpt lat="43.336848457390865" lon="12.463212485208825"><ele>596.0</ele><time>2026-04-11T09:25:43Z</time></trkpt><trkpt lat="43.33682032192057" lon="12.463291420434677"><ele>595.8</ele><time>2026-04-11T09:25:44Z</time></trkpt><trkpt lat="43.33682367217256" lon="12.463428565002475"><ele>595.6</ele><time>2026-04-11T09:25:46Z</time></trkpt><trkpt lat="43.33693523100563" lon="12.463507231096006"><ele>595.4</ele><time>2026-04-11T09:25:48Z</time></trkpt><trkpt lat="43.33702357926383" lon="12.463540916880465"><ele>595.2</ele><time>2026-04-11T09:25:49Z</time></trkpt><trkpt lat="43.33712730966334" lon="12.463584387287518"><ele>595.0</ele><time>2026-04-11T09:25:50Z</time></trkpt><trkpt lat="43.337224102598135" lon="12.463622946899815"><ele>593.2</ele><time>2026-04-11T09:25:51Z</time></trkpt><trkpt lat="43.33731206442611" lon="12.46366341890641"><ele>591.4</ele><time>2026-04-11T09:25:52Z</time></trkpt><trkpt lat="43.33739592210708" lon="12.463709129474605"><ele>589.6</ele><time>2026-04-11T09:25:53Z</time></trkpt><trkpt lat="43.33748167284826" lon="12.463751438474283"><ele>587.8</ele><time>2026-04-11T09:25:54Z</time></trkpt><trkpt lat="43.33755264852818" lon="12.463786260398807"><ele>586.0</ele><time>2026-04-11T09:25:55Z</time></trkpt><trkpt lat="43.33765171748721" lon="12.463873253061703"><ele>586.0</ele><time>2026-04-11T09:25:57Z</time></trkpt><trkpt lat="43.337715799441085" lon="12.464038249677627"><ele>586.0</ele><time>2026-04-11T09:25:59Z</time></trkpt><trkpt lat="43.33773252996442" lon="12.46414569428405"><ele>586.0</ele><time>2026-04-11T09:26:00Z</time></trkpt><trkpt lat="43.3377409968557" lon="12.464258487563127"><ele>586.0</ele><time>2026-04-11T09:26:01Z</time></trkpt><trkpt lat="43.337747786532674" lon="12.464357688397449"><ele>586.0</ele><time>2026-04-11T09:26:02Z</time></trkpt><trkpt lat="43.33776498704547" lon="12.464443642583417"><ele>586.0</ele><time>2026-04-11T09:26:03Z</time></trkpt><trkpt lat="43.33785558013773" lon="12.46454893814115"><ele>586.0</ele><time>2026-04-11T09:26:05Z</time></trkpt><trkpt lat="43.33797799921671" lon="12.464534355988288"><ele>586.0</ele><time>2026-04-11T09:26:07Z</time></trkpt><trkpt lat="43.33804410688473" lon="12.464553293188294"><ele>586.0</ele><time>2026-04-11T09:26:08Z</time></trkpt><trkpt lat="43.338106798239465" lon="12.464603114654894"><ele>586.0</ele><time>2026-04-11T09:26:09Z</time></trkpt><trkpt lat="43.338169203188905" lon="12.464651650242219"><ele>586.0</ele><time>2026-04-11T09:26:10Z</time></trkpt><trkpt lat="43.33823628365381" lon="12.464649334338752"><ele>586.0</ele><time>2026-04-11T09:26:11Z</time></trkpt><trkpt lat="43.338325850891174" lon="12.464612041739164"><ele>582.6</ele><time>2026-04-11T09:26:12Z</time></trkpt><trkpt lat="43.33842800388941" lon="12.46457010030662"><ele>579.2</ele><time>2026-04-11T09:26:13Z</time></trkpt><trkpt lat="43.33852435642789" lon="12.464501996256953"><ele>575.8</ele><time>2026-04-11T09:26:14Z</time></trkpt><trkpt lat="43.33860737641082" lon="12.464425576603047"><ele>572.4</ele><time>2026-04-11T09:26:15Z</time></trkpt><trkpt lat="43.338679862125105" lon="12.464368990416245"><ele>569.0</ele><time>2026-04-11T09:26:16Z</time></trkpt><trkpt lat="43.33875516992902" lon="12.464337770718839"><ele>569.0</ele><time>2026-04-11T09:26:17Z</time></trkpt><trkpt lat="43.338831081737794" lon="12.464330132465221"><ele>569.0</ele><time>2026-04-11T09:26:18Z</time></trkpt><trkpt lat="43.33892280485265" lon="12.464338270954975"><ele>569.0</ele><time>2026-04-11T09:26:19Z</time></trkpt><trkpt lat="43.33902427584702" lon="12.464339246153507"><ele>569.0</ele><time>2026-04-11T09:26:20Z</time></trkpt><trkpt lat="43.33911149857811" lon="12.464335054524431"><ele>569.0</ele><time>2026-04-11T09:26:21Z</time></trkpt><trkpt lat="43.33919225399625" lon="12.464339600822125"><ele>569.0</ele><time>2026-04-11T09:26:22Z</time></trkpt><trkpt lat="43.33926661507533" lon="12.464376143678383"><ele>570.0</ele><time>2026-04-11T09:26:23Z</time></trkpt><trkpt lat="43.33933750551961" lon="12.464450229324818"><ele>571.0</ele><time>2026-04-11T09:26:24Z</time></trkpt><trkpt lat="43.33941310347704" lon="12.46456269466947"><ele>572.0</ele><time>2026-04-11T09:26:25Z</time></trkpt><trkpt lat="43.33949539686045" lon="12.464712228045242"><ele>573.0</ele><time>2026-04-11T09:26:26Z</time></trkpt><trkpt lat="43.339578636022495" lon="12.464848359095324"><ele>575.5</ele><time>2026-04-11T09:26:27Z</time></trkpt><trkpt lat="43.33966365325203" lon="12.464959850974138"><ele>578.0</ele><time>2026-04-11T09:26:28Z</time></trkpt><trkpt lat="43.33976726316974" lon="12.465041133970553"><ele>580.5</ele><time>2026-04-11T09:26:29Z</time></trkpt><trkpt lat="43.339879101470224" lon="12.465094967709048"><ele>583.0</ele><time>2026-04-11T09:26:30Z</time></trkpt><trkpt lat="43.34000110264195" lon="12.465144270649159"><ele>583.0</ele><time>2026-04-11T09:26:31Z</time></trkpt><trkpt lat="43.340104794976426" lon="12.465190773269626"><ele>583.0</ele><time>2026-04-11T09:26:32.001Z</time></trkpt><trkpt lat="43.340198352009175" lon="12.465259839460131"><ele>583.0</ele><time>2026-04-11T09:26:33.001Z</time></trkpt><trkpt lat="43.34028613149475" lon="12.465339705086189"><ele>583.0</ele><time>2026-04-11T09:26:34.001Z</time></trkpt><trkpt lat="43.34037301717313" lon="12.465424279870145"><ele>583.0</ele><time>2026-04-11T09:26:35.001Z</time></trkpt><trkpt lat="43.340462208117025" lon="12.46551985349601"><ele>583.8</ele><time>2026-04-11T09:26:36.001Z</time></trkpt><trkpt lat="43.3405407413908" lon="12.465618491835581"><ele>584.5999999999999</ele><time>2026-04-11T09:26:37.001Z</time></trkpt><trkpt lat="43.340612248678575" lon="12.465711095895676"><ele>585.4000000000001</ele><time>2026-04-11T09:26:38.001Z</time></trkpt><trkpt lat="43.34069149770243" lon="12.465811571376628"><ele>586.2</ele><time>2026-04-11T09:26:39.001Z</time></trkpt><trkpt lat="43.340751776705055" lon="12.465925324242116"><ele>587.0</ele><time>2026-04-11T09:26:40.001Z</time></trkpt><trkpt lat="43.34080780076823" lon="12.46605181518875"><ele>587.0</ele><time>2026-04-11T09:26:41.001Z</time></trkpt><trkpt lat="43.34085333352145" lon="12.466195989664591"><ele>587.0</ele><time>2026-04-11T09:26:42.001Z</time></trkpt><trkpt lat="43.34088804292961" lon="12.466342020344271"><ele>587.0</ele><time>2026-04-11T09:26:43.001Z</time></trkpt><trkpt lat="43.34090781658536" lon="12.466481662066984"><ele>587.0</ele><time>2026-04-11T09:26:44.001Z</time></trkpt><trkpt lat="43.34091881926173" lon="12.466616334290197"><ele>587.0</ele><time>2026-04-11T09:26:45.001Z</time></trkpt><trkpt lat="43.340917211546994" lon="12.466747178610602"><ele>587.75</ele><time>2026-04-11T09:26:46.001Z</time></trkpt><trkpt lat="43.34088299777106" lon="12.466887390578952"><ele>588.5</ele><time>2026-04-11T09:26:47.001Z</time></trkpt><trkpt lat="43.34084271869428" lon="12.467038316272015"><ele>589.25</ele><time>2026-04-11T09:26:48.001Z</time></trkpt><trkpt lat="43.34080750970823" lon="12.46719261219649"><ele>590.0</ele><time>2026-04-11T09:26:49.001Z</time></trkpt><trkpt lat="43.3407817500492" lon="12.467337282049801"><ele>588.0</ele><time>2026-04-11T09:26:50.001Z</time></trkpt><trkpt lat="43.34078351179113" lon="12.467479939399007"><ele>586.0</ele><time>2026-04-11T09:26:51.001Z</time></trkpt><trkpt lat="43.34078778361589" lon="12.467610215429563"><ele>584.0</ele><time>2026-04-11T09:26:52.001Z</time></trkpt><trkpt lat="43.340785042444345" lon="12.467725054723205"><ele>582.0</ele><time>2026-04-11T09:26:53.001Z</time></trkpt><trkpt lat="43.34077181186461" lon="12.46783771508939"><ele>580.0</ele><time>2026-04-11T09:26:54.001Z</time></trkpt><trkpt lat="43.34073770699994" lon="12.46796399506284"><ele>579.2</ele><time>2026-04-11T09:26:55.001Z</time></trkpt><trkpt lat="43.340687034925956" lon="12.468067483525882"><ele>578.4</ele><time>2026-04-11T09:26:56.001Z</time></trkpt><trkpt lat="43.34062043860707" lon="12.468152295398244"><ele>577.6</ele><time>2026-04-11T09:26:57.001Z</time></trkpt><trkpt lat="43.340534518702896" lon="12.468228176218439"><ele>576.8</ele><time>2026-04-11T09:26:58.001Z</time></trkpt><trkpt lat="43.340426625321086" lon="12.468299963231768"><ele>576.0</ele><time>2026-04-11T09:26:59.001Z</time></trkpt><trkpt lat="43.34031732671831" lon="12.468398584072776"><ele>576.0</ele><time>2026-04-11T09:27:00.001Z</time></trkpt><trkpt lat="43.340213877033705" lon="12.468506732703137"><ele>576.0</ele><time>2026-04-11T09:27:01.001Z</time></trkpt><trkpt lat="43.34011882540088" lon="12.46862425010137"><ele>576.0</ele><time>2026-04-11T09:27:02.001Z</time></trkpt><trkpt lat="43.340029195714955" lon="12.468731664071594"><ele>576.0</ele><time>2026-04-11T09:27:03.001Z</time></trkpt><trkpt lat="43.33995414366163" lon="12.468822401765243"><ele>573.2</ele><time>2026-04-11T09:27:04.001Z</time></trkpt><trkpt lat="43.339884083150075" lon="12.468961885849382"><ele>570.4000000000001</ele><time>2026-04-11T09:27:06.001Z</time></trkpt><trkpt lat="43.33987690398306" lon="12.469056972557338"><ele>567.6</ele><time>2026-04-11T09:27:07.001Z</time></trkpt><trkpt lat="43.33987006255782" lon="12.469163455336487"><ele>564.8000000000001</ele><time>2026-04-11T09:27:08.001Z</time></trkpt><trkpt lat="43.33991436422598" lon="12.46929240915008"><ele>562.0</ele><time>2026-04-11T09:27:09.001Z</time></trkpt><trkpt lat="43.33994123910623" lon="12.469409221582813"><ele>562.0</ele><time>2026-04-11T09:27:10.001Z</time></trkpt><trkpt lat="43.33994808519936" lon="12.469513065824412"><ele>562.0</ele><time>2026-04-11T09:27:11Z</time></trkpt><trkpt lat="43.33996506568775" lon="12.469619062268029"><ele>562.0</ele><time>2026-04-11T09:27:12Z</time></trkpt><trkpt lat="43.33997804218912" lon="12.469720044658821"><ele>562.0</ele><time>2026-04-11T09:27:13Z</time></trkpt><trkpt lat="43.34001384186797" lon="12.469823111781869"><ele>562.0</ele><time>2026-04-11T09:27:14Z</time></trkpt><trkpt lat="43.34002513847114" lon="12.469985378860367"><ele>562.0</ele><time>2026-04-11T09:27:16Z</time></trkpt><trkpt lat="43.34000557878554" lon="12.470071354191385"><ele>560.4</ele><time>2026-04-11T09:27:17Z</time></trkpt><trkpt lat="43.33995112521903" lon="12.470162647220667"><ele>558.8000000000001</ele><time>2026-04-11T09:27:18Z</time></trkpt><trkpt lat="43.33987389438583" lon="12.47026845827176"><ele>557.2</ele><time>2026-04-11T09:27:19Z</time></trkpt><trkpt lat="43.33979263475621" lon="12.470387044529703"><ele>555.6</ele><time>2026-04-11T09:27:20Z</time></trkpt><trkpt lat="43.3397339745441" lon="12.470529642470915"><ele>554.0</ele><time>2026-04-11T09:27:21Z</time></trkpt><trkpt lat="43.33967336447298" lon="12.470654877423954"><ele>554.0</ele><time>2026-04-11T09:27:22Z</time></trkpt><trkpt lat="43.33961199612261" lon="12.470776770739649"><ele>554.0</ele><time>2026-04-11T09:27:23Z</time></trkpt><trkpt lat="43.33953914713146" lon="12.470886724909613"><ele>554.0</ele><time>2026-04-11T09:27:24Z</time></trkpt><trkpt lat="43.339442727668846" lon="12.470972891728684"><ele>554.0</ele><time>2026-04-11T09:27:25Z</time></trkpt><trkpt lat="43.339344451830776" lon="12.47104916911199"><ele>554.0</ele><time>2026-04-11T09:27:26Z</time></trkpt><trkpt lat="43.33926958962824" lon="12.471116333195692"><ele>554.0</ele><time>2026-04-11T09:27:27Z</time></trkpt><trkpt lat="43.339215880085746" lon="12.471178372133298"><ele>554.0</ele><time>2026-04-11T09:27:28Z</time></trkpt><trkpt lat="43.33917597090202" lon="12.471274745290994"><ele>554.0</ele><time>2026-04-11T09:27:29Z</time></trkpt><trkpt lat="43.33915668325059" lon="12.471431378512358"><ele>554.0</ele><time>2026-04-11T09:27:31Z</time></trkpt><trkpt lat="43.339215295225706" lon="12.471520335039733"><ele>554.0</ele><time>2026-04-11T09:27:33Z</time></trkpt><trkpt lat="43.339291326707624" lon="12.471532618261163"><ele>554.0</ele><time>2026-04-11T09:27:34Z</time></trkpt><trkpt lat="43.339365268923366" lon="12.471570644065716"><ele>552.8333333333333</ele><time>2026-04-11T09:27:35Z</time></trkpt><trkpt lat="43.3394341397861" lon="12.471631558159782"><ele>551.6666666666666</ele><time>2026-04-11T09:27:36Z</time></trkpt><trkpt lat="43.3395044561307" lon="12.471712698690293"><ele>550.5</ele><time>2026-04-11T09:27:37Z</time></trkpt><trkpt lat="43.33955268075003" lon="12.47179688706736"><ele>549.3333333333334</ele><time>2026-04-11T09:27:38Z</time></trkpt><trkpt lat="43.33964994833882" lon="12.471866618557954"><ele>548.1666666666667</ele><time>2026-04-11T09:27:40Z</time></trkpt><trkpt lat="43.339722684812024" lon="12.471848793662593"><ele>547.0</ele><time>2026-04-11T09:27:41Z</time></trkpt><trkpt lat="43.339788928372684" lon="12.471801366522353"><ele>546.75</ele><time>2026-04-11T09:27:42Z</time></trkpt><trkpt lat="43.33988162254023" lon="12.471755084077488"><ele>546.5</ele><time>2026-04-11T09:27:43Z</time></trkpt><trkpt lat="43.33999569167444" lon="12.471728538347648"><ele>546.25</ele><time>2026-04-11T09:27:44Z</time></trkpt><trkpt lat="43.3401243412321" lon="12.471688073112512"><ele>546.0</ele><time>2026-04-11T09:27:45Z</time></trkpt><trkpt lat="43.340231467371225" lon="12.47165578862304"><ele>546.0</ele><time>2026-04-11T09:27:46Z</time></trkpt><trkpt lat="43.34030204931051" lon="12.47161903398433"><ele>546.0</ele><time>2026-04-11T09:27:47Z</time></trkpt><trkpt lat="43.34038349758754" lon="12.471618620230538"><ele>546.0</ele><time>2026-04-11T09:27:48Z</time></trkpt><trkpt lat="43.34046327059292" lon="12.471640409357017"><ele>546.0</ele><time>2026-04-11T09:27:49Z</time></trkpt><trkpt lat="43.34056908658032" lon="12.471683339930001"><ele>546.0</ele><time>2026-04-11T09:27:50Z</time></trkpt><trkpt lat="43.34070365550311" lon="12.471732200779384"><ele>547.0</ele><time>2026-04-11T09:27:51Z</time></trkpt><trkpt lat="43.34082928934461" lon="12.471782299828599"><ele>548.0</ele><time>2026-04-11T09:27:52Z</time></trkpt><trkpt lat="43.340944223158196" lon="12.471808007725468"><ele>549.0</ele><time>2026-04-11T09:27:53Z</time></trkpt><trkpt lat="43.341055555872735" lon="12.471823589517546"><ele>550.0</ele><time>2026-04-11T09:27:54Z</time></trkpt><trkpt lat="43.341169751181056" lon="12.471800918929478"><ele>550.0</ele><time>2026-04-11T09:27:55Z</time></trkpt><trkpt lat="43.34126870135116" lon="12.471760361761675"><ele>550.0</ele><time>2026-04-11T09:27:56Z</time></trkpt><trkpt lat="43.34135562352109" lon="12.471717800111511"><ele>550.0</ele><time>2026-04-11T09:27:57Z</time></trkpt><trkpt lat="43.34143851297855" lon="12.471696763798912"><ele>550.0</ele><time>2026-04-11T09:27:58Z</time></trkpt><trkpt lat="43.34150449348565" lon="12.471709886598116"><ele>550.0</ele><time>2026-04-11T09:27:59Z</time></trkpt><trkpt lat="43.34157166994979" lon="12.471763458511486"><ele>550.0</ele><time>2026-04-11T09:28:00Z</time></trkpt><trkpt lat="43.34163450603949" lon="12.47184367328237"><ele>550.0</ele><time>2026-04-11T09:28:01Z</time></trkpt><trkpt lat="43.34170807501444" lon="12.47195669868617"><ele>550.0</ele><time>2026-04-11T09:28:02Z</time></trkpt><trkpt lat="43.34179925528303" lon="12.472102721775597"><ele>550.0</ele><time>2026-04-11T09:28:03Z</time></trkpt><trkpt lat="43.3418673888316" lon="12.472269715773002"><ele>550.0</ele><time>2026-04-11T09:28:04Z</time></trkpt><trkpt lat="43.34190992822865" lon="12.472413620841646"><ele>553.4</ele><time>2026-04-11T09:28:05Z</time></trkpt><trkpt lat="43.34194185382921" lon="12.472514090801544"><ele>556.8</ele><time>2026-04-11T09:28:06Z</time></trkpt><trkpt lat="43.341975879030706" lon="12.472597505323156"><ele>560.2</ele><time>2026-04-11T09:28:07Z</time></trkpt><trkpt lat="43.34203760067548" lon="12.472704665297545"><ele>563.6</ele><time>2026-04-11T09:28:09Z</time></trkpt><trkpt lat="43.34215422374487" lon="12.472678354163842"><ele>567.0</ele><time>2026-04-11T09:28:11Z</time></trkpt><trkpt lat="43.34222106772227" lon="12.472607974298679"><ele>567.0</ele><time>2026-04-11T09:28:12Z</time></trkpt><trkpt lat="43.34229436052354" lon="12.472546934661054"><ele>567.0</ele><time>2026-04-11T09:28:13Z</time></trkpt><trkpt lat="43.34237745824631" lon="12.47253699890731"><ele>567.0</ele><time>2026-04-11T09:28:14Z</time></trkpt><trkpt lat="43.34246012337053" lon="12.472578044228635"><ele>567.0</ele><time>2026-04-11T09:28:15Z</time></trkpt><trkpt lat="43.34255281141345" lon="12.472650015776198"><ele>567.0</ele><time>2026-04-11T09:28:16Z</time></trkpt><trkpt lat="43.34263426771677" lon="12.472711232128791"><ele>567.0</ele><time>2026-04-11T09:28:17Z</time></trkpt><trkpt lat="43.34270269609486" lon="12.472738334976386"><ele>567.0</ele><time>2026-04-11T09:28:18Z</time></trkpt><trkpt lat="43.34276647776773" lon="12.472711898412634"><ele>567.0</ele><time>2026-04-11T09:28:20Z</time></trkpt><trkpt lat="43.34279741604213" lon="12.4725996668009"><ele>567.0</ele><time>2026-04-11T09:28:22Z</time></trkpt><trkpt lat="43.342824808330995" lon="12.472440069029082"><ele>567.0</ele><time>2026-04-11T09:28:24.001Z</time></trkpt><trkpt lat="43.342855523851995" lon="12.472303449356032"><ele>567.0</ele><time>2026-04-11T09:28:26.001Z</time></trkpt><trkpt lat="43.34294316477754" lon="12.472311995238853"><ele>567.0</ele><time>2026-04-11T09:28:28.001Z</time></trkpt><trkpt lat="43.34301484630473" lon="12.472415884638007"><ele>567.0</ele><time>2026-04-11T09:28:30.001Z</time></trkpt><trkpt lat="43.34307191689611" lon="12.472521506628555"><ele>567.0</ele><time>2026-04-11T09:28:31.001Z</time></trkpt><trkpt lat="43.34313333529607" lon="12.472646554030755"><ele>567.0</ele><time>2026-04-11T09:28:32.001Z</time></trkpt><trkpt lat="43.34321599134574" lon="12.472788158170548"><ele>567.0</ele><time>2026-04-11T09:28:33.001Z</time></trkpt><trkpt lat="43.34327050050233" lon="12.472922205998804"><ele>569.4</ele><time>2026-04-11T09:28:34.001Z</time></trkpt><trkpt lat="43.34330622957047" lon="12.473069296403104"><ele>571.8000000000001</ele><time>2026-04-11T09:28:35.001Z</time></trkpt><trkpt lat="43.34333166726139" lon="12.473224566173746"><ele>574.2</ele><time>2026-04-11T09:28:36.001Z</time></trkpt><trkpt lat="43.34334799320047" lon="12.473379999918327"><ele>576.6</ele><time>2026-04-11T09:28:37.001Z</time></trkpt><trkpt lat="43.34335965895618" lon="12.473519075030058"><ele>579.0</ele><time>2026-04-11T09:28:38.001Z</time></trkpt><trkpt lat="43.34334761232945" lon="12.473664159415597"><ele>579.8333333333334</ele><time>2026-04-11T09:28:39.001Z</time></trkpt><trkpt lat="43.343320188435015" lon="12.473817366394906"><ele>580.6666666666666</ele><time>2026-04-11T09:28:40.001Z</time></trkpt><trkpt lat="43.343282338997994" lon="12.473953005251538"><ele>581.5</ele><time>2026-04-11T09:28:41.001Z</time></trkpt><trkpt lat="43.343243542059305" lon="12.474059999028816"><ele>582.3333333333333</ele><time>2026-04-11T09:28:42.001Z</time></trkpt><trkpt lat="43.34320201844175" lon="12.474129151926672"><ele>583.1666666666666</ele><time>2026-04-11T09:28:43.001Z</time></trkpt><trkpt lat="43.343149823828576" lon="12.474180208205977"><ele>584.0</ele><time>2026-04-11T09:28:44.001Z</time></trkpt><trkpt lat="43.343083956159326" lon="12.474220360802383"><ele>584.2</ele><time>2026-04-11T09:28:45.001Z</time></trkpt><trkpt lat="43.34300955599195" lon="12.47427739462119"><ele>584.4</ele><time>2026-04-11T09:28:46.001Z</time></trkpt><trkpt lat="43.342956310953674" lon="12.474349763538578"><ele>584.6</ele><time>2026-04-11T09:28:47.001Z</time></trkpt><trkpt lat="43.34293254318586" lon="12.474456682368585"><ele>584.8</ele><time>2026-04-11T09:28:48.001Z</time></trkpt><trkpt lat="43.3429175251696" lon="12.474600573002219"><ele>585.0</ele><time>2026-04-11T09:28:49.001Z</time></trkpt><trkpt lat="43.34290770212797" lon="12.474779935887357"><ele>587.0</ele><time>2026-04-11T09:28:50.001Z</time></trkpt><trkpt lat="43.342919729455815" lon="12.47494571117915"><ele>589.0</ele><time>2026-04-11T09:28:51.001Z</time></trkpt><trkpt lat="43.34293956043267" lon="12.475092055104353"><ele>591.0</ele><time>2026-04-11T09:28:52.001Z</time></trkpt><trkpt lat="43.34294780541149" lon="12.475220733234325"><ele>593.0</ele><time>2026-04-11T09:28:53.001Z</time></trkpt><trkpt lat="43.34293060916363" lon="12.475350797404388"><ele>595.0</ele><time>2026-04-11T09:28:54.001Z</time></trkpt><trkpt lat="43.34290208880651" lon="12.475457503206998"><ele>596.75</ele><time>2026-04-11T09:28:55.001Z</time></trkpt><trkpt lat="43.34284947765236" lon="12.475535462272937"><ele>598.5</ele><time>2026-04-11T09:28:56.001Z</time></trkpt><trkpt lat="43.34272092759827" lon="12.475539207966355"><ele>600.25</ele><time>2026-04-11T09:28:57.001Z</time></trkpt><trkpt lat="43.342666498633164" lon="12.475684352004293"><ele>602.0</ele><time>2026-04-11T09:28:59.001Z</time></trkpt><trkpt lat="43.342616817718344" lon="12.475859265576133"><ele>602.0</ele><time>2026-04-11T09:29:01.001Z</time></trkpt><trkpt lat="43.34259405150406" lon="12.475978354502336"><ele>602.0</ele><time>2026-04-11T09:29:02.001Z</time></trkpt><trkpt lat="43.342570653457265" lon="12.476092522751365"><ele>602.0</ele><time>2026-04-11T09:29:03.001Z</time></trkpt><trkpt lat="43.342545311242475" lon="12.476199008605523"><ele>602.0</ele><time>2026-04-11T09:29:04.001Z</time></trkpt><trkpt lat="43.34249874769349" lon="12.476272300764249"><ele>602.0</ele><time>2026-04-11T09:29:05.001Z</time></trkpt><trkpt lat="43.34243797345933" lon="12.476333524363465"><ele>602.0</ele><time>2026-04-11T09:29:06.001Z</time></trkpt><trkpt lat="43.342382594937995" lon="12.476374984227506"><ele>603.0</ele><time>2026-04-11T09:29:07.001Z</time></trkpt><trkpt lat="43.342330644349325" lon="12.476447713834384"><ele>604.0</ele><time>2026-04-11T09:29:08.001Z</time></trkpt><trkpt lat="43.34229618193701" lon="12.476559619154626"><ele>605.0</ele><time>2026-04-11T09:29:09.001Z</time></trkpt><trkpt lat="43.342273999643076" lon="12.476709602104483"><ele>606.0</ele><time>2026-04-11T09:29:10.001Z</time></trkpt><trkpt lat="43.3422444802258" lon="12.476892400866493"><ele>607.0</ele><time>2026-04-11T09:29:11.001Z</time></trkpt><trkpt lat="43.34222269599668" lon="12.47708987443201"><ele>610.0</ele><time>2026-04-11T09:29:12.001Z</time></trkpt><trkpt lat="43.34220788696512" lon="12.477272057230714"><ele>613.0</ele><time>2026-04-11T09:29:13.001Z</time></trkpt><trkpt lat="43.34220065268192" lon="12.477422841663891"><ele>616.0</ele><time>2026-04-11T09:29:14.001Z</time></trkpt><trkpt lat="43.34218794463798" lon="12.47756819949863"><ele>619.0</ele><time>2026-04-11T09:29:15.001Z</time></trkpt><trkpt lat="43.34215814734416" lon="12.477695998400618"><ele>622.0</ele><time>2026-04-11T09:29:16.001Z</time></trkpt><trkpt lat="43.342129179828035" lon="12.47782499447897"><ele>625.0</ele><time>2026-04-11T09:29:17Z</time></trkpt><trkpt lat="43.34207508261393" lon="12.477976087201064"><ele>628.0</ele><time>2026-04-11T09:29:18Z</time></trkpt><trkpt lat="43.34200537893575" lon="12.478131638116887"><ele>631.0</ele><time>2026-04-11T09:29:19Z</time></trkpt><trkpt lat="43.34194677977313" lon="12.478253006967506"><ele>634.0</ele><time>2026-04-11T09:29:20Z</time></trkpt><trkpt lat="43.34189783023689" lon="12.47837101614478"><ele>634.0</ele><time>2026-04-11T09:29:21Z</time></trkpt><trkpt lat="43.341865201920896" lon="12.478518944609188"><ele>634.0</ele><time>2026-04-11T09:29:22Z</time></trkpt><trkpt lat="43.34185115343088" lon="12.478692455743179"><ele>634.0</ele><time>2026-04-11T09:29:23Z</time></trkpt><trkpt lat="43.341850058538775" lon="12.47887619924538"><ele>634.0</ele><time>2026-04-11T09:29:24Z</time></trkpt><trkpt lat="43.34185630674979" lon="12.479077321486749"><ele>637.25</ele><time>2026-04-11T09:29:25Z</time></trkpt><trkpt lat="43.34186034891373" lon="12.479271646793121"><ele>640.5</ele><time>2026-04-11T09:29:26Z</time></trkpt><trkpt lat="43.341891615615886" lon="12.479447113339942"><ele>643.75</ele><time>2026-04-11T09:29:27Z</time></trkpt><trkpt lat="43.34190546370416" lon="12.479618909429133"><ele>647.0</ele><time>2026-04-11T09:29:28Z</time></trkpt><trkpt lat="43.3419243282916" lon="12.479763563898368"><ele>648.5</ele><time>2026-04-11T09:29:29Z</time></trkpt><trkpt lat="43.34195732804437" lon="12.479897676931206"><ele>650.0</ele><time>2026-04-11T09:29:30Z</time></trkpt><trkpt lat="43.342008511843" lon="12.480010956473595"><ele>651.5</ele><time>2026-04-11T09:29:31Z</time></trkpt><trkpt lat="43.34204672632329" lon="12.480113372688386"><ele>653.0</ele><time>2026-04-11T09:29:32Z</time></trkpt><trkpt lat="43.34205898500329" lon="12.480209096636539"><ele>654.5</ele><time>2026-04-11T09:29:33Z</time></trkpt><trkpt lat="43.34203502161411" lon="12.480307767458982"><ele>656.0</ele><time>2026-04-11T09:29:34Z</time></trkpt><trkpt lat="43.34197491123173" lon="12.480400868041446"><ele>657.1999999999999</ele><time>2026-04-11T09:29:35Z</time></trkpt><trkpt lat="43.3419371000314" lon="12.48053282171925"><ele>658.4</ele><time>2026-04-11T09:29:36Z</time></trkpt><trkpt lat="43.34193283046104" lon="12.480697672676099"><ele>659.6</ele><time>2026-04-11T09:29:37Z</time></trkpt><trkpt lat="43.34192416230899" lon="12.480850337236735"><ele>660.8</ele><time>2026-04-11T09:29:38Z</time></trkpt><trkpt lat="43.34190013984239" lon="12.480999107570344"><ele>662.0</ele><time>2026-04-11T09:29:39Z</time></trkpt><trkpt lat="43.341888019715554" lon="12.481161783383367"><ele>664.8</ele><time>2026-04-11T09:29:40Z</time></trkpt><trkpt lat="43.34191567908465" lon="12.481304832298308"><ele>667.6</ele><time>2026-04-11T09:29:41Z</time></trkpt><trkpt lat="43.34192090148355" lon="12.481420005643113"><ele>670.4</ele><time>2026-04-11T09:29:42Z</time></trkpt><trkpt lat="43.341967590765165" lon="12.481504197974562"><ele>673.1999999999999</ele><time>2026-04-11T09:29:43Z</time></trkpt><trkpt lat="43.34205407185152" lon="12.481531001222617"><ele>676.0</ele><time>2026-04-11T09:29:44Z</time></trkpt><trkpt lat="43.342143287066285" lon="12.481573590545414"><ele>671.5</ele><time>2026-04-11T09:29:45Z</time></trkpt><trkpt lat="43.34224524062576" lon="12.481612527620971"><ele>667.0</ele><time>2026-04-11T09:29:46Z</time></trkpt><trkpt lat="43.34234644897344" lon="12.481673073889267"><ele>662.5</ele><time>2026-04-11T09:29:47Z</time></trkpt><trkpt lat="43.342431717942" lon="12.481786599507155"><ele>658.0</ele><time>2026-04-11T09:29:48Z</time></trkpt><trkpt lat="43.34254501276048" lon="12.481879042934638"><ele>658.0</ele><time>2026-04-11T09:29:49Z</time></trkpt><trkpt lat="43.342666012319256" lon="12.48192541422569"><ele>658.0</ele><time>2026-04-11T09:29:50Z</time></trkpt><trkpt lat="43.3427766287148" lon="12.481968561569573"><ele>658.0</ele><time>2026-04-11T09:29:51Z</time></trkpt><trkpt lat="43.342875510235366" lon="12.482005254896862"><ele>658.0</ele><time>2026-04-11T09:29:52Z</time></trkpt><trkpt lat="43.34293715700354" lon="12.482093909740303"><ele>658.0</ele><time>2026-04-11T09:29:53Z</time></trkpt><trkpt lat="43.343023083211115" lon="12.482174338900489"><ele>660.5</ele><time>2026-04-11T09:29:54Z</time></trkpt><trkpt lat="43.343130073940806" lon="12.482224322620688"><ele>663.0</ele><time>2026-04-11T09:29:55Z</time></trkpt><trkpt lat="43.34324756248526" lon="12.48227746995777"><ele>665.5</ele><time>2026-04-11T09:29:56Z</time></trkpt><trkpt lat="43.343369406995684" lon="12.482306922428913"><ele>668.0</ele><time>2026-04-11T09:29:57Z</time></trkpt><trkpt lat="43.34346812047417" lon="12.482373078206459"><ele>668.0</ele><time>2026-04-11T09:29:58Z</time></trkpt><trkpt lat="43.34355793336261" lon="12.482469322646587"><ele>668.0</ele><time>2026-04-11T09:29:59Z</time></trkpt><trkpt lat="43.343662225974604" lon="12.482564125038856"><ele>668.0</ele><time>2026-04-11T09:30:00Z</time></trkpt><trkpt lat="43.34375422715885" lon="12.482620553052783"><ele>668.0</ele><time>2026-04-11T09:30:01Z</time></trkpt><trkpt lat="43.34384898073956" lon="12.482625686224806"><ele>668.0</ele><time>2026-04-11T09:30:02Z</time></trkpt><trkpt lat="43.343926878219676" lon="12.482657297319074"><ele>666.3333333333333</ele><time>2026-04-11T09:30:03Z</time></trkpt><trkpt lat="43.34399314900479" lon="12.482678252526126"><ele>664.6666666666666</ele><time>2026-04-11T09:30:04Z</time></trkpt><trkpt lat="43.344065798303035" lon="12.482733798040028"><ele>663.0</ele><time>2026-04-11T09:30:06Z</time></trkpt><trkpt lat="43.344040906345555" lon="12.482823219211285"><ele>661.3333333333334</ele><time>2026-04-11T09:30:10Z</time></trkpt><trkpt lat="43.34410615453511" lon="12.48273862606913"><ele>659.6666666666667</ele><time>2026-04-11T09:30:29Z</time></trkpt><trkpt lat="43.3440156295999" lon="12.482795151619483"><ele>658.0</ele><time>2026-04-11T09:30:32Z</time></trkpt><trkpt lat="43.344156045849445" lon="12.482710771188456"><ele>658.0</ele><time>2026-04-11T09:30:50Z</time></trkpt><trkpt lat="43.34424711794082" lon="12.482644668819793"><ele>658.0</ele><time>2026-04-11T09:30:52Z</time></trkpt><trkpt lat="43.34435736953586" lon="12.482550379170444"><ele>658.0</ele><time>2026-04-11T09:30:54.001Z</time></trkpt><trkpt lat="43.344428919482866" lon="12.482490997441221"><ele>658.0</ele><time>2026-04-11T09:30:55.001Z</time></trkpt><trkpt lat="43.34449442261377" lon="12.482411036977025"><ele>658.0</ele><time>2026-04-11T09:30:56.001Z</time></trkpt><trkpt lat="43.344577808254456" lon="12.48233863916991"><ele>658.0</ele><time>2026-04-11T09:30:57.001Z</time></trkpt><trkpt lat="43.344661765481646" lon="12.482285005839548"><ele>658.0</ele><time>2026-04-11T09:30:58.001Z</time></trkpt><trkpt lat="43.34474591344237" lon="12.482249110470471"><ele>658.0</ele><time>2026-04-11T09:30:59.001Z</time></trkpt><trkpt lat="43.344837752008154" lon="12.48222213444964"><ele>658.0</ele><time>2026-04-11T09:31:00.001Z</time></trkpt><trkpt lat="43.34493770258217" lon="12.482186672891729"><ele>658.0</ele><time>2026-04-11T09:31:01.001Z</time></trkpt><trkpt lat="43.345036958768944" lon="12.482152274072076"><ele>657.4</ele><time>2026-04-11T09:31:02.001Z</time></trkpt><trkpt lat="43.345131670285234" lon="12.482123672475522"><ele>656.8</ele><time>2026-04-11T09:31:03.001Z</time></trkpt><trkpt lat="43.34522276105016" lon="12.482085685765291"><ele>656.2</ele><time>2026-04-11T09:31:04.001Z</time></trkpt><trkpt lat="43.3453052886108" lon="12.482041162432608"><ele>655.6</ele><time>2026-04-11T09:31:05.001Z</time></trkpt><trkpt lat="43.34538226010334" lon="12.481986952210212"><ele>655.0</ele><time>2026-04-11T09:31:06.001Z</time></trkpt><trkpt lat="43.34545502159018" lon="12.481911936865442"><ele>655.0</ele><time>2026-04-11T09:31:07.001Z</time></trkpt><trkpt lat="43.34552402687758" lon="12.481808586876104"><ele>655.0</ele><time>2026-04-11T09:31:08.001Z</time></trkpt><trkpt lat="43.34560501800262" lon="12.481706891817387"><ele>655.0</ele><time>2026-04-11T09:31:09.001Z</time></trkpt><trkpt lat="43.34567898308711" lon="12.481592084380706"><ele>655.0</ele><time>2026-04-11T09:31:10.001Z</time></trkpt><trkpt lat="43.34575319388051" lon="12.481470937675859"><ele>655.0</ele><time>2026-04-11T09:31:11.001Z</time></trkpt><trkpt lat="43.345818443287556" lon="12.481358278429878"><ele>650.2</ele><time>2026-04-11T09:31:12.001Z</time></trkpt><trkpt lat="43.345859976280636" lon="12.481248245351336"><ele>645.4</ele><time>2026-04-11T09:31:13.001Z</time></trkpt><trkpt lat="43.345919379888784" lon="12.481144944873517"><ele>640.6</ele><time>2026-04-11T09:31:14.001Z</time></trkpt><trkpt lat="43.34598154622815" lon="12.481051303652977"><ele>635.8</ele><time>2026-04-11T09:31:15.001Z</time></trkpt><trkpt lat="43.34602574295214" lon="12.480932942002205"><ele>631.0</ele><time>2026-04-11T09:31:16.001Z</time></trkpt><trkpt lat="43.346063306694326" lon="12.480800100313969"><ele>631.0</ele><time>2026-04-11T09:31:17.001Z</time></trkpt><trkpt lat="43.34609973127468" lon="12.480650087458425"><ele>631.0</ele><time>2026-04-11T09:31:18.001Z</time></trkpt><trkpt lat="43.34613534121483" lon="12.480498684293122"><ele>631.0</ele><time>2026-04-11T09:31:19.001Z</time></trkpt><trkpt lat="43.346166000502635" lon="12.480343135259902"><ele>631.0</ele><time>2026-04-11T09:31:20.001Z</time></trkpt><trkpt lat="43.346195360702886" lon="12.480172080021067"><ele>629.5</ele><time>2026-04-11T09:31:21.001Z</time></trkpt><trkpt lat="43.34622964850889" lon="12.47998023334904"><ele>628.0</ele><time>2026-04-11T09:31:22.001Z</time></trkpt><trkpt lat="43.34627098459759" lon="12.47979864846715"><ele>626.5</ele><time>2026-04-11T09:31:23Z</time></trkpt><trkpt lat="43.34631717582863" lon="12.479619295028007"><ele>625.0</ele><time>2026-04-11T09:31:24Z</time></trkpt><trkpt lat="43.34636072837788" lon="12.479446729178981"><ele>625.75</ele><time>2026-04-11T09:31:25Z</time></trkpt><trkpt lat="43.34641073814192" lon="12.479260971862793"><ele>626.5</ele><time>2026-04-11T09:31:26Z</time></trkpt><trkpt lat="43.34645935656779" lon="12.479076267856287"><ele>627.25</ele><time>2026-04-11T09:31:27Z</time></trkpt><trkpt lat="43.34649751956925" lon="12.478898717227278"><ele>628.0</ele><time>2026-04-11T09:31:28Z</time></trkpt><trkpt lat="43.346529716757864" lon="12.47873452367182"><ele>628.0</ele><time>2026-04-11T09:31:29Z</time></trkpt><trkpt lat="43.34654144493751" lon="12.478557627478805"><ele>628.0</ele><time>2026-04-11T09:31:30Z</time></trkpt><trkpt lat="43.346547269413456" lon="12.478386233971493"><ele>628.0</ele><time>2026-04-11T09:31:31Z</time></trkpt><trkpt lat="43.34653971833218" lon="12.478213898569148"><ele>628.0</ele><time>2026-04-11T09:31:32Z</time></trkpt><trkpt lat="43.34653200330023" lon="12.478044358551328"><ele>629.25</ele><time>2026-04-11T09:31:33Z</time></trkpt><trkpt lat="43.346534358269004" lon="12.477865425469513"><ele>630.5</ele><time>2026-04-11T09:31:34Z</time></trkpt><trkpt lat="43.3465436149278" lon="12.47768166015178"><ele>631.75</ele><time>2026-04-11T09:31:35Z</time></trkpt><trkpt lat="43.34654288970753" lon="12.47751054443891"><ele>633.0</ele><time>2026-04-11T09:31:36Z</time></trkpt><trkpt lat="43.34654135126282" lon="12.477352770644188"><ele>633.0</ele><time>2026-04-11T09:31:37Z</time></trkpt><trkpt lat="43.34656458275732" lon="12.477205933008705"><ele>633.0</ele><time>2026-04-11T09:31:38Z</time></trkpt><trkpt lat="43.34659233294726" lon="12.477081833251418"><ele>633.0</ele><time>2026-04-11T09:31:39Z</time></trkpt><trkpt lat="43.34663366697157" lon="12.476963946207297"><ele>633.0</ele><time>2026-04-11T09:31:40Z</time></trkpt><trkpt lat="43.34670142968391" lon="12.476891309979294"><ele>633.0</ele><time>2026-04-11T09:31:41Z</time></trkpt><trkpt lat="43.34678868691842" lon="12.476800178153303"><ele>631.0</ele><time>2026-04-11T09:31:42Z</time></trkpt><trkpt lat="43.34691923932098" lon="12.476695706878443"><ele>629.0</ele><time>2026-04-11T09:31:43Z</time></trkpt><trkpt lat="43.347046722304675" lon="12.47660006475378"><ele>627.0</ele><time>2026-04-11T09:31:44Z</time></trkpt><trkpt lat="43.34718139364357" lon="12.476501985035203"><ele>625.0</ele><time>2026-04-11T09:31:45Z</time></trkpt><trkpt lat="43.3473207844645" lon="12.476407827578404"><ele>625.0</ele><time>2026-04-11T09:31:46Z</time></trkpt><trkpt lat="43.34746274261883" lon="12.476312420502598"><ele>625.0</ele><time>2026-04-11T09:31:47Z</time></trkpt><trkpt lat="43.34760674466042" lon="12.476200813867607"><ele>625.0</ele><time>2026-04-11T09:31:48Z</time></trkpt><trkpt lat="43.347745349518945" lon="12.476071819353448"><ele>623.6666666666667</ele><time>2026-04-11T09:31:49Z</time></trkpt><trkpt lat="43.34788380112677" lon="12.47594151883791"><ele>622.3333333333334</ele><time>2026-04-11T09:31:50Z</time></trkpt><trkpt lat="43.34801550703302" lon="12.475817222560213"><ele>621.0</ele><time>2026-04-11T09:31:51Z</time></trkpt><trkpt lat="43.34814232282543" lon="12.475706162946421"><ele>623.5</ele><time>2026-04-11T09:31:52Z</time></trkpt><trkpt lat="43.34825291316525" lon="12.475617103827886"><ele>626.0</ele><time>2026-04-11T09:31:53Z</time></trkpt><trkpt lat="43.348377219803" lon="12.475531303648031"><ele>628.5</ele><time>2026-04-11T09:31:54Z</time></trkpt><trkpt lat="43.348496642782976" lon="12.475478883513933"><ele>631.0</ele><time>2026-04-11T09:31:55Z</time></trkpt><trkpt lat="43.34860237698371" lon="12.475462946268275"><ele>631.0</ele><time>2026-04-11T09:31:56Z</time></trkpt><trkpt lat="43.34869065075964" lon="12.475481535505812"><ele>631.0</ele><time>2026-04-11T09:31:57Z</time></trkpt><trkpt lat="43.348770736508435" lon="12.475512625398618"><ele>631.0</ele><time>2026-04-11T09:31:58Z</time></trkpt><trkpt lat="43.34887808511207" lon="12.475575828095225"><ele>631.0</ele><time>2026-04-11T09:31:59Z</time></trkpt><trkpt lat="43.3490013179391" lon="12.475676181390545"><ele>631.0</ele><time>2026-04-11T09:32:00Z</time></trkpt><trkpt lat="43.34912021939108" lon="12.475760117779428"><ele>632.25</ele><time>2026-04-11T09:32:01Z</time></trkpt><trkpt lat="43.349231385373386" lon="12.47581894649466"><ele>633.5</ele><time>2026-04-11T09:32:02Z</time></trkpt><trkpt lat="43.34934642672954" lon="12.47584673017987"><ele>634.75</ele><time>2026-04-11T09:32:03Z</time></trkpt><trkpt lat="43.34946100775482" lon="12.475837280025859"><ele>636.0</ele><time>2026-04-11T09:32:04Z</time></trkpt><trkpt lat="43.34956797291417" lon="12.475781041525385"><ele>636.0</ele><time>2026-04-11T09:32:05Z</time></trkpt><trkpt lat="43.34968019353823" lon="12.475713885358184"><ele>636.0</ele><time>2026-04-11T09:32:06Z</time></trkpt><trkpt lat="43.34977908312746" lon="12.475630734034727"><ele>636.0</ele><time>2026-04-11T09:32:07Z</time></trkpt><trkpt lat="43.34986321256917" lon="12.475552178211611"><ele>636.0</ele><time>2026-04-11T09:32:08Z</time></trkpt><trkpt lat="43.349950686054804" lon="12.475541884771841"><ele>636.0</ele><time>2026-04-11T09:32:09Z</time></trkpt><trkpt lat="43.35004189502298" lon="12.475541265510508"><ele>636.6</ele><time>2026-04-11T09:32:10Z</time></trkpt><trkpt lat="43.35013166878406" lon="12.475620805270294"><ele>637.2</ele><time>2026-04-11T09:32:11Z</time></trkpt><trkpt lat="43.3502503392414" lon="12.4756839460917"><ele>637.8</ele><time>2026-04-11T09:32:12Z</time></trkpt><trkpt lat="43.350350978152036" lon="12.475733033367886"><ele>638.4</ele><time>2026-04-11T09:32:13Z</time></trkpt><trkpt lat="43.350446671126285" lon="12.475770628204845"><ele>639.0</ele><time>2026-04-11T09:32:14Z</time></trkpt><trkpt lat="43.35054586831233" lon="12.475782400116042"><ele>637.0</ele><time>2026-04-11T09:32:15Z</time></trkpt><trkpt lat="43.35063422904326" lon="12.47574464688489"><ele>635.0</ele><time>2026-04-11T09:32:16Z</time></trkpt><trkpt lat="43.3507206957862" lon="12.475709701137951"><ele>633.0</ele><time>2026-04-11T09:32:17Z</time></trkpt><trkpt lat="43.35080266097859" lon="12.475626440602252"><ele>631.0</ele><time>2026-04-11T09:32:18Z</time></trkpt><trkpt lat="43.35087799661916" lon="12.475500277233639"><ele>629.0</ele><time>2026-04-11T09:32:19Z</time></trkpt><trkpt lat="43.35096245684241" lon="12.4753392020618"><ele>628.75</ele><time>2026-04-11T09:32:20Z</time></trkpt><trkpt lat="43.35105720972991" lon="12.475170839512522"><ele>628.5</ele><time>2026-04-11T09:32:21Z</time></trkpt><trkpt lat="43.351155049847506" lon="12.475017288868521"><ele>628.25</ele><time>2026-04-11T09:32:22Z</time></trkpt><trkpt lat="43.35125133976527" lon="12.4748823746106"><ele>628.0</ele><time>2026-04-11T09:32:23Z</time></trkpt><trkpt lat="43.35136865325828" lon="12.474805132709529"><ele>627.75</ele><time>2026-04-11T09:32:24Z</time></trkpt><trkpt lat="43.35147434447862" lon="12.474726784078085"><ele>627.5</ele><time>2026-04-11T09:32:25Z</time></trkpt><trkpt lat="43.35158853133143" lon="12.474621428653249"><ele>627.25</ele><time>2026-04-11T09:32:26Z</time></trkpt><trkpt lat="43.351693614939116" lon="12.47454676993619"><ele>627.0</ele><time>2026-04-11T09:32:27Z</time></trkpt><trkpt lat="43.35180009311258" lon="12.474480680518699"><ele>627.0</ele><time>2026-04-11T09:32:28Z</time></trkpt><trkpt lat="43.351904916789096" lon="12.474404342279716"><ele>627.0</ele><time>2026-04-11T09:32:29Z</time></trkpt><trkpt lat="43.35200892377747" lon="12.474334587558182"><ele>627.0</ele><time>2026-04-11T09:32:30Z</time></trkpt><trkpt lat="43.352119989228115" lon="12.474259125680701"><ele>627.0</ele><time>2026-04-11T09:32:31Z</time></trkpt><trkpt lat="43.35223186425045" lon="12.474177152663243"><ele>625.25</ele><time>2026-04-11T09:32:32Z</time></trkpt><trkpt lat="43.35234319305982" lon="12.474095899673593"><ele>623.5</ele><time>2026-04-11T09:32:33Z</time></trkpt><trkpt lat="43.35244862638981" lon="12.474011404176451"><ele>621.75</ele><time>2026-04-11T09:32:34Z</time></trkpt><trkpt lat="43.35255012796792" lon="12.473923811600674"><ele>620.0</ele><time>2026-04-11T09:32:35Z</time></trkpt><trkpt lat="43.35265393862039" lon="12.47385139171228"><ele>618.5</ele><time>2026-04-11T09:32:36Z</time></trkpt><trkpt lat="43.35275391486558" lon="12.47376634959151"><ele>617.0</ele><time>2026-04-11T09:32:37Z</time></trkpt><trkpt lat="43.35286478605666" lon="12.473682699815567"><ele>615.5</ele><time>2026-04-11T09:32:38Z</time></trkpt><trkpt lat="43.3529729655972" lon="12.47360721079911"><ele>614.0</ele><time>2026-04-11T09:32:39Z</time></trkpt><trkpt lat="43.353079246884846" lon="12.473531979153284"><ele>614.0</ele><time>2026-04-11T09:32:40Z</time></trkpt><trkpt lat="43.35318254243461" lon="12.473445086971276"><ele>614.0</ele><time>2026-04-11T09:32:41Z</time></trkpt><trkpt lat="43.35328691798612" lon="12.47336815458935"><ele>614.0</ele><time>2026-04-11T09:32:42Z</time></trkpt><trkpt lat="43.35338932835707" lon="12.473295962831362"><ele>614.0</ele><time>2026-04-11T09:32:43Z</time></trkpt><trkpt lat="43.35349594584082" lon="12.473231665964933"><ele>614.0</ele><time>2026-04-11T09:32:44Z</time></trkpt><trkpt lat="43.35361189577884" lon="12.473207716903072"><ele>614.0</ele><time>2026-04-11T09:32:45Z</time></trkpt><trkpt lat="43.353726854946835" lon="12.473182451821286"><ele>614.0</ele><time>2026-04-11T09:32:46Z</time></trkpt><trkpt lat="43.353848891025194" lon="12.473158916067803"><ele>614.0</ele><time>2026-04-11T09:32:47Z</time></trkpt><trkpt lat="43.3539896774" lon="12.473101281291942"><ele>616.25</ele><time>2026-04-11T09:32:48Z</time></trkpt><trkpt lat="43.35414179944448" lon="12.473076545883696"><ele>618.5</ele><time>2026-04-11T09:32:49Z</time></trkpt><trkpt lat="43.35428199549145" lon="12.473053018884944"><ele>620.75</ele><time>2026-04-11T09:32:50Z</time></trkpt><trkpt lat="43.35440566187" lon="12.473076949463518"><ele>623.0</ele><time>2026-04-11T09:32:51Z</time></trkpt><trkpt lat="43.35451570205725" lon="12.473110283146193"><ele>623.0</ele><time>2026-04-11T09:32:52Z</time></trkpt><trkpt lat="43.35463484026014" lon="12.473135616605921"><ele>623.0</ele><time>2026-04-11T09:32:53.001Z</time></trkpt><trkpt lat="43.354770441051826" lon="12.473142716649232"><ele>623.0</ele><time>2026-04-11T09:32:54.001Z</time></trkpt><trkpt lat="43.35490309762414" lon="12.473114894798988"><ele>623.0</ele><time>2026-04-11T09:32:55.001Z</time></trkpt><trkpt lat="43.35504009455306" lon="12.47306630210097"><ele>625.75</ele><time>2026-04-11T09:32:56.001Z</time></trkpt><trkpt lat="43.35516324564717" lon="12.473006749729377"><ele>628.5</ele><time>2026-04-11T09:32:57.001Z</time></trkpt><trkpt lat="43.355279727554816" lon="12.472956029369525"><ele>631.25</ele><time>2026-04-11T09:32:58.001Z</time></trkpt><trkpt lat="43.35538977132324" lon="12.47291726717966"><ele>634.0</ele><time>2026-04-11T09:32:59.001Z</time></trkpt><trkpt lat="43.35549920895104" lon="12.472859787481385"><ele>638.4</ele><time>2026-04-11T09:33:00.001Z</time></trkpt><trkpt lat="43.355611487359916" lon="12.472836070231903"><ele>642.8</ele><time>2026-04-11T09:33:01.001Z</time></trkpt><trkpt lat="43.35571884879781" lon="12.472801589507828"><ele>647.1999999999999</ele><time>2026-04-11T09:33:02.001Z</time></trkpt><trkpt lat="43.355820790772626" lon="12.472787843487449"><ele>651.5999999999999</ele><time>2026-04-11T09:33:03.001Z</time></trkpt><trkpt lat="43.355898655382504" lon="12.472794214807505"><ele>656.0</ele><time>2026-04-11T09:33:04.001Z</time></trkpt><trkpt lat="43.355977803051175" lon="12.472817563300577"><ele>656.0</ele><time>2026-04-11T09:33:05.001Z</time></trkpt><trkpt lat="43.35605372178165" lon="12.472873581968212"><ele>656.0</ele><time>2026-04-11T09:33:06.001Z</time></trkpt><trkpt lat="43.35614529567542" lon="12.472924441211235"><ele>656.0</ele><time>2026-04-11T09:33:07.001Z</time></trkpt><trkpt lat="43.35623377414106" lon="12.472970138166819"><ele>656.0</ele><time>2026-04-11T09:33:08.001Z</time></trkpt><trkpt lat="43.35632532425686" lon="12.473017421542782"><ele>656.0</ele><time>2026-04-11T09:33:09.001Z</time></trkpt><trkpt lat="43.35642007737107" lon="12.473068302622789"><ele>655.75</ele><time>2026-04-11T09:33:10.001Z</time></trkpt><trkpt lat="43.356523292283995" lon="12.47312769338157"><ele>655.5</ele><time>2026-04-11T09:33:11.001Z</time></trkpt><trkpt lat="43.35662675949405" lon="12.473189963120591"><ele>655.25</ele><time>2026-04-11T09:33:12.001Z</time></trkpt><trkpt lat="43.35673192706278" lon="12.47325305404331"><ele>655.0</ele><time>2026-04-11T09:33:13.001Z</time></trkpt><trkpt lat="43.35684263659432" lon="12.4733188968652"><ele>655.0</ele><time>2026-04-11T09:33:14.001Z</time></trkpt><trkpt lat="43.35693980431357" lon="12.473376685920286"><ele>655.0</ele><time>2026-04-11T09:33:15.001Z</time></trkpt><trkpt lat="43.35703363274406" lon="12.473430311931745"><ele>655.0</ele><time>2026-04-11T09:33:16.001Z</time></trkpt><trkpt lat="43.35713282411956" lon="12.473482206346363"><ele>655.0</ele><time>2026-04-11T09:33:17.001Z</time></trkpt><trkpt lat="43.35724485618529" lon="12.473535697776082"><ele>655.0</ele><time>2026-04-11T09:33:18.001Z</time></trkpt><trkpt lat="43.357355135585095" lon="12.473586164702205"><ele>656.25</ele><time>2026-04-11T09:33:19.001Z</time></trkpt><trkpt lat="43.357465998455474" lon="12.473628843820523"><ele>657.5</ele><time>2026-04-11T09:33:20.001Z</time></trkpt><trkpt lat="43.35757565790228" lon="12.473663907475474"><ele>658.75</ele><time>2026-04-11T09:33:21.001Z</time></trkpt><trkpt lat="43.35769003120212" lon="12.47368156230809"><ele>660.0</ele><time>2026-04-11T09:33:22.001Z</time></trkpt><trkpt lat="43.357819438161975" lon="12.473691789459119"><ele>660.0</ele><time>2026-04-11T09:33:23.001Z</time></trkpt><trkpt lat="43.35796071928439" lon="12.473694018419819"><ele>660.0</ele><time>2026-04-11T09:33:24.001Z</time></trkpt><trkpt lat="43.358100222611974" lon="12.473692997040509"><ele>660.0</ele><time>2026-04-11T09:33:25.001Z</time></trkpt><trkpt lat="43.35823766142317" lon="12.473689511006873"><ele>660.0</ele><time>2026-04-11T09:33:26.001Z</time></trkpt><trkpt lat="43.35837110876682" lon="12.47366768469159"><ele>659.25</ele><time>2026-04-11T09:33:27.001Z</time></trkpt><trkpt lat="43.3585006252436" lon="12.473666511703671"><ele>658.5</ele><time>2026-04-11T09:33:28.001Z</time></trkpt><trkpt lat="43.35862514690127" lon="12.473665645075014"><ele>657.75</ele><time>2026-04-11T09:33:29Z</time></trkpt><trkpt lat="43.35874615138817" lon="12.473660052253914"><ele>657.0</ele><time>2026-04-11T09:33:30Z</time></trkpt><trkpt lat="43.358865060515996" lon="12.473660646685452"><ele>655.6</ele><time>2026-04-11T09:33:31Z</time></trkpt><trkpt lat="43.358980039550744" lon="12.473679892579021"><ele>654.2</ele><time>2026-04-11T09:33:32Z</time></trkpt><trkpt lat="43.35908859196973" lon="12.473656252559174"><ele>652.8</ele><time>2026-04-11T09:33:33Z</time></trkpt><trkpt lat="43.35919163691722" lon="12.473649718741775"><ele>651.4</ele><time>2026-04-11T09:33:34Z</time></trkpt><trkpt lat="43.359296039130065" lon="12.473639504339053"><ele>650.0</ele><time>2026-04-11T09:33:35Z</time></trkpt><trkpt lat="43.35939517912971" lon="12.473634416101772"><ele>650.0</ele><time>2026-04-11T09:33:36Z</time></trkpt><trkpt lat="43.359479593779845" lon="12.473632631210673"><ele>650.0</ele><time>2026-04-11T09:33:37Z</time></trkpt><trkpt lat="43.35955025247669" lon="12.473633068856895"><ele>650.0</ele><time>2026-04-11T09:33:38Z</time></trkpt><trkpt lat="43.359655132268024" lon="12.47366918016311"><ele>650.0</ele><time>2026-04-11T09:33:40Z</time></trkpt><trkpt lat="43.359712710373294" lon="12.473717565757845"><ele>650.0</ele><time>2026-04-11T09:33:42Z</time></trkpt><trkpt lat="43.35972346689524" lon="12.473537089922685"><ele>650.0</ele><time>2026-04-11T09:33:47Z</time></trkpt><trkpt lat="43.359656573339315" lon="12.47341153577739"><ele>650.0</ele><time>2026-04-11T09:33:49Z</time></trkpt><trkpt lat="43.35961979432002" lon="12.473333638446691"><ele>650.0</ele><time>2026-04-11T09:33:50Z</time></trkpt><trkpt lat="43.35957499048941" lon="12.473265444681543"><ele>650.0</ele><time>2026-04-11T09:33:51Z</time></trkpt><trkpt lat="43.35948092349231" lon="12.473154634651355"><ele>650.0</ele><time>2026-04-11T09:33:53Z</time></trkpt><trkpt lat="43.359387484710325" lon="12.473058014597012"><ele>650.0</ele><time>2026-04-11T09:33:55Z</time></trkpt><trkpt lat="43.35933798023268" lon="12.47299994867999"><ele>650.0</ele><time>2026-04-11T09:33:56Z</time></trkpt><trkpt lat="43.35928144510425" lon="12.472937723830677"><ele>650.0</ele><time>2026-04-11T09:33:57Z</time></trkpt><trkpt lat="43.359213409931805" lon="12.472870973948556"><ele>650.0</ele><time>2026-04-11T09:33:58Z</time></trkpt><trkpt lat="43.35914510788652" lon="12.47279454369092"><ele>650.0</ele><time>2026-04-11T09:33:59Z</time></trkpt><trkpt lat="43.359081086488196" lon="12.472708265144819"><ele>650.0</ele><time>2026-04-11T09:34:00Z</time></trkpt><trkpt lat="43.35902207927615" lon="12.472611812198217"><ele>649.4</ele><time>2026-04-11T09:34:01Z</time></trkpt><trkpt lat="43.35895981353324" lon="12.47251238189109"><ele>648.8</ele><time>2026-04-11T09:34:02Z</time></trkpt><trkpt lat="43.35889914710716" lon="12.47240702904391"><ele>648.2</ele><time>2026-04-11T09:34:03Z</time></trkpt><trkpt lat="43.35884017113223" lon="12.472296435549698"><ele>647.6</ele><time>2026-04-11T09:34:04Z</time></trkpt><trkpt lat="43.35878437899558" lon="12.472191541700163"><ele>647.0</ele><time>2026-04-11T09:34:05Z</time></trkpt><trkpt lat="43.35873089244838" lon="12.472096629374473"><ele>645.5</ele><time>2026-04-11T09:34:06Z</time></trkpt><trkpt lat="43.35867783388911" lon="12.472009812067402"><ele>644.0</ele><time>2026-04-11T09:34:07Z</time></trkpt><trkpt lat="43.358626945227925" lon="12.471916870959857"><ele>642.5</ele><time>2026-04-11T09:34:08Z</time></trkpt><trkpt lat="43.358579565065405" lon="12.471826484582802"><ele>641.0</ele><time>2026-04-11T09:34:09Z</time></trkpt><trkpt lat="43.358535684201094" lon="12.471728270166487"><ele>639.5</ele><time>2026-04-11T09:34:10Z</time></trkpt><trkpt lat="43.35850078577503" lon="12.471618862265148"><ele>638.0</ele><time>2026-04-11T09:34:11Z</time></trkpt><trkpt lat="43.35847285525098" lon="12.47152488062821"><ele>638.0</ele><time>2026-04-11T09:34:12Z</time></trkpt><trkpt lat="43.35850584218516" lon="12.471410040878457"><ele>638.0</ele><time>2026-04-11T09:34:13Z</time></trkpt><trkpt lat="43.358557239848345" lon="12.471288250929305"><ele>638.0</ele><time>2026-04-11T09:34:14Z</time></trkpt><trkpt lat="43.35863224647181" lon="12.471176600002098"><ele>638.0</ele><time>2026-04-11T09:34:15Z</time></trkpt><trkpt lat="43.35873358623611" lon="12.471083391250462"><ele>638.0</ele><time>2026-04-11T09:34:16Z</time></trkpt><trkpt lat="43.35884847520706" lon="12.471033387301883"><ele>636.75</ele><time>2026-04-11T09:34:17Z</time></trkpt><trkpt lat="43.358989271427625" lon="12.470942406537704"><ele>635.5</ele><time>2026-04-11T09:34:18Z</time></trkpt><trkpt lat="43.35910757118609" lon="12.470847484149646"><ele>634.25</ele><time>2026-04-11T09:34:19Z</time></trkpt><trkpt lat="43.359205607593196" lon="12.470718882301345"><ele>633.0</ele><time>2026-04-11T09:34:20Z</time></trkpt><trkpt lat="43.35930864182096" lon="12.47060416032246"><ele>633.0</ele><time>2026-04-11T09:34:21Z</time></trkpt><trkpt lat="43.35941462194405" lon="12.470496445149376"><ele>633.0</ele><time>2026-04-11T09:34:22Z</time></trkpt><trkpt lat="43.359517843580676" lon="12.470371989985644"><ele>633.0</ele><time>2026-04-11T09:34:23Z</time></trkpt><trkpt lat="43.359609991918894" lon="12.470256907375175"><ele>633.0</ele><time>2026-04-11T09:34:24Z</time></trkpt><trkpt lat="43.35969167319497" lon="12.470141817376334"><ele>631.8</ele><time>2026-04-11T09:34:25Z</time></trkpt><trkpt lat="43.35975923512895" lon="12.470032236437245"><ele>630.5999999999999</ele><time>2026-04-11T09:34:26Z</time></trkpt><trkpt lat="43.35980428123642" lon="12.469931677338039"><ele>629.4000000000001</ele><time>2026-04-11T09:34:27Z</time></trkpt><trkpt lat="43.359833582093216" lon="12.46981952797153"><ele>628.2</ele><time>2026-04-11T09:34:28Z</time></trkpt><trkpt lat="43.359844738612374" lon="12.46970848081822"><ele>627.0</ele><time>2026-04-11T09:34:29Z</time></trkpt><trkpt lat="43.359837206466764" lon="12.469583673355858"><ele>627.0</ele><time>2026-04-11T09:34:30Z</time></trkpt><trkpt lat="43.35981220436161" lon="12.469442170499985"><ele>627.0</ele><time>2026-04-11T09:34:31Z</time></trkpt><trkpt lat="43.3597758430021" lon="12.469296662348542"><ele>627.0</ele><time>2026-04-11T09:34:32Z</time></trkpt><trkpt lat="43.35972710390307" lon="12.469139885855146"><ele>627.0</ele><time>2026-04-11T09:34:33Z</time></trkpt><trkpt lat="43.359652389423495" lon="12.468953250092378"><ele>628.6666666666666</ele><time>2026-04-11T09:34:34Z</time></trkpt><trkpt lat="43.359564608534555" lon="12.468739308532056"><ele>630.3333333333333</ele><time>2026-04-11T09:34:35Z</time></trkpt><trkpt lat="43.35948289858514" lon="12.46853242782707"><ele>632.0</ele><time>2026-04-11T09:34:36Z</time></trkpt><trkpt lat="43.35941757555217" lon="12.468342635342482"><ele>632.0</ele><time>2026-04-11T09:34:37Z</time></trkpt><trkpt lat="43.35936353622833" lon="12.468167301038216"><ele>632.0</ele><time>2026-04-11T09:34:38Z</time></trkpt><trkpt lat="43.35931585690507" lon="12.468002056333976"><ele>632.0</ele><time>2026-04-11T09:34:39Z</time></trkpt><trkpt lat="43.35927104246199" lon="12.467857793634268"><ele>632.0</ele><time>2026-04-11T09:34:40Z</time></trkpt><trkpt lat="43.35923856642551" lon="12.467721307471002"><ele>631.8000000000001</ele><time>2026-04-11T09:34:41Z</time></trkpt><trkpt lat="43.35924497069237" lon="12.467578989997254"><ele>631.6</ele><time>2026-04-11T09:34:42Z</time></trkpt><trkpt lat="43.35931367818224" lon="12.467443597726223"><ele>631.4000000000001</ele><time>2026-04-11T09:34:43Z</time></trkpt><trkpt lat="43.35932828120981" lon="12.467317381074256"><ele>631.2</ele><time>2026-04-11T09:34:44Z</time></trkpt><trkpt lat="43.35936666126425" lon="12.467217351323846"><ele>631.0</ele><time>2026-04-11T09:34:45Z</time></trkpt><trkpt lat="43.35934873765258" lon="12.467056366104917"><ele>631.0</ele><time>2026-04-11T09:34:47Z</time></trkpt><trkpt lat="43.35927028162451" lon="12.467031388988135"><ele>631.0</ele><time>2026-04-11T09:34:48Z</time></trkpt><trkpt lat="43.35919742835465" lon="12.466997766274485"><ele>631.0</ele><time>2026-04-11T09:34:49Z</time></trkpt><trkpt lat="43.359090940564236" lon="12.466976534029868"><ele>631.0</ele><time>2026-04-11T09:34:50Z</time></trkpt><trkpt lat="43.35897787249344" lon="12.466936002045133"><ele>631.0</ele><time>2026-04-11T09:34:51Z</time></trkpt><trkpt lat="43.35885641805025" lon="12.466869855841022"><ele>631.5</ele><time>2026-04-11T09:34:52Z</time></trkpt><trkpt lat="43.35872388813271" lon="12.46678312762527"><ele>632.0</ele><time>2026-04-11T09:34:53Z</time></trkpt><trkpt lat="43.358609566656995" lon="12.466670808682284"><ele>632.5</ele><time>2026-04-11T09:34:54Z</time></trkpt><trkpt lat="43.35850852953659" lon="12.466580640298988"><ele>633.0</ele><time>2026-04-11T09:34:55Z</time></trkpt><trkpt lat="43.35841930441699" lon="12.466484021427394"><ele>633.0</ele><time>2026-04-11T09:34:56Z</time></trkpt><trkpt lat="43.35834525958293" lon="12.466382244823095"><ele>633.0</ele><time>2026-04-11T09:34:57Z</time></trkpt><trkpt lat="43.358278592160964" lon="12.466265787764305"><ele>633.0</ele><time>2026-04-11T09:34:58Z</time></trkpt><trkpt lat="43.35822438801821" lon="12.466133702475407"><ele>633.0</ele><time>2026-04-11T09:34:59Z</time></trkpt><trkpt lat="43.358176152682475" lon="12.46599382377568"><ele>633.0</ele><time>2026-04-11T09:35:00Z</time></trkpt><trkpt lat="43.358125832743404" lon="12.465849859593721"><ele>633.0</ele><time>2026-04-11T09:35:01Z</time></trkpt><trkpt lat="43.35806540207916" lon="12.465713124602297"><ele>633.0</ele><time>2026-04-11T09:35:02Z</time></trkpt><trkpt lat="43.35799524328203" lon="12.465606990597005"><ele>633.0</ele><time>2026-04-11T09:35:03Z</time></trkpt><trkpt lat="43.35791516632823" lon="12.465531353799486"><ele>633.0</ele><time>2026-04-11T09:35:04Z</time></trkpt><trkpt lat="43.357829847232566" lon="12.46547003562984"><ele>633.0</ele><time>2026-04-11T09:35:05Z</time></trkpt><trkpt lat="43.35774422003543" lon="12.465424871863922"><ele>633.8</ele><time>2026-04-11T09:35:06Z</time></trkpt><trkpt lat="43.35765051525805" lon="12.465385704474356"><ele>634.5999999999999</ele><time>2026-04-11T09:35:07Z</time></trkpt><trkpt lat="43.35756357740187" lon="12.465339793873925"><ele>635.4000000000001</ele><time>2026-04-11T09:35:08Z</time></trkpt><trkpt lat="43.35746540570092" lon="12.465264761675524"><ele>636.2</ele><time>2026-04-11T09:35:09Z</time></trkpt><trkpt lat="43.35738115209628" lon="12.465167156970551"><ele>637.0</ele><time>2026-04-11T09:35:10Z</time></trkpt><trkpt lat="43.35731020733964" lon="12.465050391613874"><ele>637.0</ele><time>2026-04-11T09:35:11Z</time></trkpt><trkpt lat="43.357259446899185" lon="12.464917131377593"><ele>637.0</ele><time>2026-04-11T09:35:12Z</time></trkpt><trkpt lat="43.357224954828006" lon="12.464772119882216"><ele>637.0</ele><time>2026-04-11T09:35:13Z</time></trkpt><trkpt lat="43.357200543828235" lon="12.464624474387543"><ele>637.0</ele><time>2026-04-11T09:35:14Z</time></trkpt><trkpt lat="43.35718291912588" lon="12.46448530739822"><ele>637.0</ele><time>2026-04-11T09:35:15Z</time></trkpt><trkpt lat="43.35716887624889" lon="12.464350565987463"><ele>636.5</ele><time>2026-04-11T09:35:16Z</time></trkpt><trkpt lat="43.35716460822715" lon="12.46420353674903"><ele>636.0</ele><time>2026-04-11T09:35:17Z</time></trkpt><trkpt lat="43.35718088046169" lon="12.464053280826557"><ele>635.5</ele><time>2026-04-11T09:35:18Z</time></trkpt><trkpt lat="43.35721815421637" lon="12.463897353479348"><ele>635.0</ele><time>2026-04-11T09:35:19Z</time></trkpt><trkpt lat="43.357248618732214" lon="12.463727295177971"><ele>635.8</ele><time>2026-04-11T09:35:20Z</time></trkpt><trkpt lat="43.35727292165245" lon="12.463587728619146"><ele>636.6</ele><time>2026-04-11T09:35:21Z</time></trkpt><trkpt lat="43.357295567524126" lon="12.463452053048192"><ele>637.4</ele><time>2026-04-11T09:35:22Z</time></trkpt><trkpt lat="43.3573166737061" lon="12.463322015972919"><ele>638.2</ele><time>2026-04-11T09:35:23.001Z</time></trkpt><trkpt lat="43.357335177415656" lon="12.463188966426333"><ele>639.0</ele><time>2026-04-11T09:35:24.001Z</time></trkpt><trkpt lat="43.357361951601064" lon="12.463056496360544"><ele>640.4</ele><time>2026-04-11T09:35:25.001Z</time></trkpt><trkpt lat="43.35736257188551" lon="12.462912420169474"><ele>641.8</ele><time>2026-04-11T09:35:26.001Z</time></trkpt><trkpt lat="43.357370977188296" lon="12.462767323800186"><ele>643.1999999999999</ele><time>2026-04-11T09:35:27.001Z</time></trkpt><trkpt lat="43.35737490115462" lon="12.462628871949498"><ele>644.5999999999999</ele><time>2026-04-11T09:35:28.001Z</time></trkpt><trkpt lat="43.357375153811326" lon="12.462483335852504"><ele>646.0</ele><time>2026-04-11T09:35:29.001Z</time></trkpt><trkpt lat="43.357366611694445" lon="12.462352199513361"><ele>646.0</ele><time>2026-04-11T09:35:30.001Z</time></trkpt><trkpt lat="43.35734661345072" lon="12.46222547805462"><ele>646.0</ele><time>2026-04-11T09:35:31.001Z</time></trkpt><trkpt lat="43.35731286869494" lon="12.462092363389337"><ele>646.0</ele><time>2026-04-11T09:35:32.001Z</time></trkpt><trkpt lat="43.35728204703303" lon="12.461942885269124"><ele>646.0</ele><time>2026-04-11T09:35:33.001Z</time></trkpt><trkpt lat="43.35723228505813" lon="12.461785673921224"><ele>646.0</ele><time>2026-04-11T09:35:34.001Z</time></trkpt><trkpt lat="43.35716756166269" lon="12.461643841963456"><ele>644.5</ele><time>2026-04-11T09:35:35Z</time></trkpt><trkpt lat="43.357121150482556" lon="12.461484796977837"><ele>643.0</ele><time>2026-04-11T09:35:36Z</time></trkpt><trkpt lat="43.357067400853964" lon="12.46132741423432"><ele>641.5</ele><time>2026-04-11T09:35:37Z</time></trkpt><trkpt lat="43.357012031379995" lon="12.461182653318831"><ele>640.0</ele><time>2026-04-11T09:35:38Z</time></trkpt><trkpt lat="43.356945465564266" lon="12.461062094165683"><ele>644.5</ele><time>2026-04-11T09:35:39Z</time></trkpt><trkpt lat="43.35685485370918" lon="12.460963993133316"><ele>649.0</ele><time>2026-04-11T09:35:40Z</time></trkpt><trkpt lat="43.3567541966284" lon="12.46089156272682"><ele>653.5</ele><time>2026-04-11T09:35:41Z</time></trkpt><trkpt lat="43.35664643177032" lon="12.460863096905186"><ele>658.0</ele><time>2026-04-11T09:35:42Z</time></trkpt><trkpt lat="43.35652380146952" lon="12.460853009945458"><ele>658.0</ele><time>2026-04-11T09:35:43Z</time></trkpt><trkpt lat="43.35640343746491" lon="12.460844549643992"><ele>658.0</ele><time>2026-04-11T09:35:44Z</time></trkpt><trkpt lat="43.35628713147514" lon="12.460792167308337"><ele>658.0</ele><time>2026-04-11T09:35:45Z</time></trkpt><trkpt lat="43.35618926917042" lon="12.46070258489349"><ele>658.0</ele><time>2026-04-11T09:35:46Z</time></trkpt><trkpt lat="43.35609742683009" lon="12.46059956000942"><ele>659.25</ele><time>2026-04-11T09:35:47Z</time></trkpt><trkpt lat="43.35601361007176" lon="12.460469751099895"><ele>660.5</ele><time>2026-04-11T09:35:48Z</time></trkpt><trkpt lat="43.35593451395621" lon="12.460325011395877"><ele>661.75</ele><time>2026-04-11T09:35:49Z</time></trkpt><trkpt lat="43.35585141074883" lon="12.460210706434925"><ele>663.0</ele><time>2026-04-11T09:35:50Z</time></trkpt><trkpt lat="43.35575621973048" lon="12.46013125287322"><ele>663.0</ele><time>2026-04-11T09:35:51Z</time></trkpt><trkpt lat="43.3556498856538" lon="12.460079601473954"><ele>663.0</ele><time>2026-04-11T09:35:52Z</time></trkpt><trkpt lat="43.355549726516124" lon="12.46005167843012"><ele>663.0</ele><time>2026-04-11T09:35:53Z</time></trkpt><trkpt lat="43.355444836933756" lon="12.460063790413187"><ele>663.0</ele><time>2026-04-11T09:35:54Z</time></trkpt><trkpt lat="43.35534226417862" lon="12.460101593492224"><ele>663.0</ele><time>2026-04-11T09:35:55Z</time></trkpt><trkpt lat="43.35522616092704" lon="12.460157675171475"><ele>662.5999999999999</ele><time>2026-04-11T09:35:56Z</time></trkpt><trkpt lat="43.355117194076406" lon="12.460194366133878"><ele>662.1999999999999</ele><time>2026-04-11T09:35:57Z</time></trkpt><trkpt lat="43.3550202152374" lon="12.460238869917319"><ele>661.8</ele><time>2026-04-11T09:35:58Z</time></trkpt><trkpt lat="43.354918864085306" lon="12.460260360458932"><ele>661.4</ele><time>2026-04-11T09:35:59Z</time></trkpt><trkpt lat="43.354827169183984" lon="12.460243432359496"><ele>661.0</ele><time>2026-04-11T09:36:00Z</time></trkpt><trkpt lat="43.354734113304914" lon="12.460196923295168"><ele>657.75</ele><time>2026-04-11T09:36:01Z</time></trkpt><trkpt lat="43.35465308074297" lon="12.46011460515862"><ele>654.5</ele><time>2026-04-11T09:36:02Z</time></trkpt><trkpt lat="43.354578478987825" lon="12.460003217321303"><ele>651.25</ele><time>2026-04-11T09:36:03Z</time></trkpt><trkpt lat="43.35451668609892" lon="12.459863866328389"><ele>648.0</ele><time>2026-04-11T09:36:04Z</time></trkpt><trkpt lat="43.354451076331934" lon="12.459703784326829"><ele>650.0</ele><time>2026-04-11T09:36:05Z</time></trkpt><trkpt lat="43.35438024890662" lon="12.459559460959401"><ele>652.0</ele><time>2026-04-11T09:36:06Z</time></trkpt><trkpt lat="43.35429755933692" lon="12.459434849400598"><ele>654.0</ele><time>2026-04-11T09:36:07Z</time></trkpt><trkpt lat="43.35420830331994" lon="12.459324785846272"><ele>656.0</ele><time>2026-04-11T09:36:08Z</time></trkpt><trkpt lat="43.354134634864835" lon="12.459227087427315"><ele>656.0</ele><time>2026-04-11T09:36:09Z</time></trkpt><trkpt lat="43.35406020960558" lon="12.459127815513693"><ele>656.0</ele><time>2026-04-11T09:36:10Z</time></trkpt><trkpt lat="43.35399498004744" lon="12.459029710660493"><ele>656.0</ele><time>2026-04-11T09:36:11Z</time></trkpt><trkpt lat="43.353916326349704" lon="12.45894133629861"><ele>656.0</ele><time>2026-04-11T09:36:12Z</time></trkpt><trkpt lat="43.353821114372366" lon="12.45888693596155"><ele>656.0</ele><time>2026-04-11T09:36:13Z</time></trkpt><trkpt lat="43.353746821133605" lon="12.458801352056511"><ele>656.0</ele><time>2026-04-11T09:36:14Z</time></trkpt><trkpt lat="43.35365971370039" lon="12.458740575522853"><ele>656.0</ele><time>2026-04-11T09:36:15Z</time></trkpt><trkpt lat="43.353567894942145" lon="12.45867843649336"><ele>656.0</ele><time>2026-04-11T09:36:16Z</time></trkpt><trkpt lat="43.353495076023805" lon="12.45862828496126"><ele>656.0</ele><time>2026-04-11T09:36:17Z</time></trkpt><trkpt lat="43.35342458601846" lon="12.458587777495142"><ele>656.0</ele><time>2026-04-11T09:36:18Z</time></trkpt><trkpt lat="43.3533516770513" lon="12.458565465280103"><ele>656.0</ele><time>2026-04-11T09:36:19Z</time></trkpt><trkpt lat="43.35328659312857" lon="12.458544488870205"><ele>656.0</ele><time>2026-04-11T09:36:20Z</time></trkpt><trkpt lat="43.353227389673535" lon="12.458514519960467"><ele>656.0</ele><time>2026-04-11T09:36:21Z</time></trkpt><trkpt lat="43.353224936626745" lon="12.458376645575447"><ele>656.0</ele><time>2026-04-11T09:36:24Z</time></trkpt><trkpt lat="43.35332282283149" lon="12.458319571464145"><ele>656.0</ele><time>2026-04-11T09:36:26Z</time></trkpt><trkpt lat="43.3533921437662" lon="12.458265867068478"><ele>656.0</ele><time>2026-04-11T09:36:27Z</time></trkpt><trkpt lat="43.35345074236438" lon="12.458220470332527"><ele>656.0</ele><time>2026-04-11T09:36:28Z</time></trkpt><trkpt lat="43.35355970259698" lon="12.458131436901944"><ele>656.0</ele><time>2026-04-11T09:36:30Z</time></trkpt><trkpt lat="43.35362370975189" lon="12.458081114948634"><ele>656.0</ele><time>2026-04-11T09:36:31Z</time></trkpt><trkpt lat="43.3536961788035" lon="12.458016481838094"><ele>656.0</ele><time>2026-04-11T09:36:32Z</time></trkpt><trkpt lat="43.35375889491579" lon="12.457946219998643"><ele>656.0</ele><time>2026-04-11T09:36:33Z</time></trkpt><trkpt lat="43.353817631586125" lon="12.457867390640253"><ele>656.0</ele><time>2026-04-11T09:36:34Z</time></trkpt><trkpt lat="43.35389319642062" lon="12.457781658810594"><ele>656.0</ele><time>2026-04-11T09:36:35Z</time></trkpt><trkpt lat="43.3539771361492" lon="12.457698145903574"><ele>654.1999999999999</ele><time>2026-04-11T09:36:36Z</time></trkpt><trkpt lat="43.35406359046595" lon="12.457625645807775"><ele>652.4</ele><time>2026-04-11T09:36:37Z</time></trkpt><trkpt lat="43.35415465327837" lon="12.457583388151283"><ele>650.6</ele><time>2026-04-11T09:36:38Z</time></trkpt><trkpt lat="43.35425787450139" lon="12.457533211721026"><ele>648.8</ele><time>2026-04-11T09:36:39Z</time></trkpt><trkpt lat="43.35437125910788" lon="12.457489578598535"><ele>647.0</ele><time>2026-04-11T09:36:40Z</time></trkpt><trkpt lat="43.3544898559489" lon="12.457450687803194"><ele>647.0</ele><time>2026-04-11T09:36:41Z</time></trkpt><trkpt lat="43.35461948678932" lon="12.457410356413575"><ele>647.0</ele><time>2026-04-11T09:36:42Z</time></trkpt><trkpt lat="43.354750089771535" lon="12.457394352158591"><ele>647.0</ele><time>2026-04-11T09:36:43Z</time></trkpt><trkpt lat="43.35487195747445" lon="12.457350173422007"><ele>647.0</ele><time>2026-04-11T09:36:44Z</time></trkpt><trkpt lat="43.35499469651602" lon="12.457327907102634"><ele>647.75</ele><time>2026-04-11T09:36:45Z</time></trkpt><trkpt lat="43.355111432616376" lon="12.457308741675268"><ele>648.5</ele><time>2026-04-11T09:36:46Z</time></trkpt><trkpt lat="43.35522791376677" lon="12.457276230902101"><ele>649.25</ele><time>2026-04-11T09:36:47Z</time></trkpt><trkpt lat="43.35535190240364" lon="12.457258093522803"><ele>650.0</ele><time>2026-04-11T09:36:48Z</time></trkpt><trkpt lat="43.35547612846599" lon="12.457224656312038"><ele>650.75</ele><time>2026-04-11T09:36:49Z</time></trkpt><trkpt lat="43.355592775681096" lon="12.45719715774456"><ele>651.5</ele><time>2026-04-11T09:36:50Z</time></trkpt><trkpt lat="43.35570758726634" lon="12.457169445417335"><ele>652.25</ele><time>2026-04-11T09:36:51Z</time></trkpt><trkpt lat="43.355825292652796" lon="12.457114522729352"><ele>653.0</ele><time>2026-04-11T09:36:52Z</time></trkpt><trkpt lat="43.3559422890757" lon="12.45703510219709"><ele>651.5</ele><time>2026-04-11T09:36:53Z</time></trkpt><trkpt lat="43.35607542024313" lon="12.456957474415068"><ele>650.0</ele><time>2026-04-11T09:36:54Z</time></trkpt><trkpt lat="43.35618367721716" lon="12.456891866265334"><ele>648.5</ele><time>2026-04-11T09:36:55Z</time></trkpt><trkpt lat="43.35627637317409" lon="12.456816400166705"><ele>647.0</ele><time>2026-04-11T09:36:56Z</time></trkpt><trkpt lat="43.356361974559576" lon="12.456747460595496"><ele>647.8</ele><time>2026-04-11T09:36:57Z</time></trkpt><trkpt lat="43.35644187318807" lon="12.456670217981772"><ele>648.6</ele><time>2026-04-11T09:36:58Z</time></trkpt><trkpt lat="43.356497404279246" lon="12.456605085535358"><ele>649.4</ele><time>2026-04-11T09:36:59Z</time></trkpt><trkpt lat="43.35653395111811" lon="12.456531018397644"><ele>650.1999999999999</ele><time>2026-04-11T09:37:00Z</time></trkpt><trkpt lat="43.356589091835424" lon="12.456394516834116"><ele>651.0</ele><time>2026-04-11T09:37:02Z</time></trkpt><trkpt lat="43.356593243732014" lon="12.456223959211824"><ele>651.8333333333334</ele><time>2026-04-11T09:37:04Z</time></trkpt><trkpt lat="43.3565896144136" lon="12.456123853608405"><ele>652.6666666666666</ele><time>2026-04-11T09:37:05Z</time></trkpt><trkpt lat="43.35658373863521" lon="12.455997813910738"><ele>653.5</ele><time>2026-04-11T09:37:06Z</time></trkpt><trkpt lat="43.35657828259198" lon="12.45588720656405"><ele>654.3333333333333</ele><time>2026-04-11T09:37:07Z</time></trkpt><trkpt lat="43.35657771165732" lon="12.455768300733224"><ele>655.1666666666666</ele><time>2026-04-11T09:37:08Z</time></trkpt><trkpt lat="43.35658800652991" lon="12.45562626029836"><ele>656.0</ele><time>2026-04-11T09:37:09Z</time></trkpt><trkpt lat="43.35658443477135" lon="12.455511279412487"><ele>656.6666666666666</ele><time>2026-04-11T09:37:10Z</time></trkpt><trkpt lat="43.35658459121556" lon="12.455418515588953"><ele>657.3333333333333</ele><time>2026-04-11T09:37:11Z</time></trkpt><trkpt lat="43.356604895653746" lon="12.455317376163176"><ele>658.0</ele><time>2026-04-11T09:37:12Z</time></trkpt><trkpt lat="43.356639791732924" lon="12.455203363760788"><ele>658.6666666666666</ele><time>2026-04-11T09:37:13Z</time></trkpt><trkpt lat="43.35668510967579" lon="12.45507193314583"><ele>659.3333333333334</ele><time>2026-04-11T09:37:14Z</time></trkpt><trkpt lat="43.35672764211763" lon="12.454955147414559"><ele>660.0</ele><time>2026-04-11T09:37:15Z</time></trkpt><trkpt lat="43.35676499351759" lon="12.454850032748347"><ele>660.0</ele><time>2026-04-11T09:37:16Z</time></trkpt><trkpt lat="43.35680835792644" lon="12.454748125785722"><ele>660.0</ele><time>2026-04-11T09:37:17Z</time></trkpt><trkpt lat="43.35684836080943" lon="12.45464753142355"><ele>660.0</ele><time>2026-04-11T09:37:18Z</time></trkpt><trkpt lat="43.35689719607479" lon="12.454564602146295"><ele>660.0</ele><time>2026-04-11T09:37:19Z</time></trkpt><trkpt lat="43.35696512374466" lon="12.45447546276882"><ele>660.0</ele><time>2026-04-11T09:37:20Z</time></trkpt><trkpt lat="43.35705293496323" lon="12.454429058805667"><ele>660.0</ele><time>2026-04-11T09:37:21Z</time></trkpt><trkpt lat="43.35712755880626" lon="12.454391738708262"><ele>659.6666666666666</ele><time>2026-04-11T09:37:22Z</time></trkpt><trkpt lat="43.3572013477989" lon="12.454366565116853"><ele>659.3333333333334</ele><time>2026-04-11T09:37:23Z</time></trkpt><trkpt lat="43.35727656563856" lon="12.45435958082147"><ele>659.0</ele><time>2026-04-11T09:37:24Z</time></trkpt><trkpt lat="43.357354957678474" lon="12.454351061224509"><ele>658.6666666666667</ele><time>2026-04-11T09:37:25Z</time></trkpt><trkpt lat="43.35743887376405" lon="12.454345024824587"><ele>658.3333333333334</ele><time>2026-04-11T09:37:26Z</time></trkpt><trkpt lat="43.35752059744199" lon="12.45434056978018"><ele>658.0</ele><time>2026-04-11T09:37:27Z</time></trkpt><trkpt lat="43.35759296098472" lon="12.454335697205508"><ele>658.0</ele><time>2026-04-11T09:37:28Z</time></trkpt><trkpt lat="43.3577024681217" lon="12.454312183054938"><ele>658.0</ele><time>2026-04-11T09:37:30Z</time></trkpt><trkpt lat="43.35777493506076" lon="12.454319895316475"><ele>658.0</ele><time>2026-04-11T09:37:32Z</time></trkpt><trkpt lat="43.35784024921348" lon="12.454315518946927"><ele>658.0</ele><time>2026-04-11T09:43:14Z</time></trkpt><trkpt lat="43.35793676559265" lon="12.454319580577758"><ele>658.0</ele><time>2026-04-11T09:43:18Z</time></trkpt><trkpt lat="43.35802105684918" lon="12.454325362099151"><ele>658.0</ele><time>2026-04-11T09:43:20Z</time></trkpt><trkpt lat="43.358115665693475" lon="12.454305229825744"><ele>656.5999999999999</ele><time>2026-04-11T09:43:22Z</time></trkpt><trkpt lat="43.358206444028056" lon="12.454268646565874"><ele>655.1999999999999</ele><time>2026-04-11T09:43:24Z</time></trkpt><trkpt lat="43.35829868759054" lon="12.4542302854558"><ele>653.8</ele><time>2026-04-11T09:43:26Z</time></trkpt><trkpt lat="43.35839593246886" lon="12.454239661816501"><ele>652.4</ele><time>2026-04-11T09:43:28Z</time></trkpt><trkpt lat="43.35849707036019" lon="12.454254656702657"><ele>651.0</ele><time>2026-04-11T09:43:30Z</time></trkpt><trkpt lat="43.35860758006584" lon="12.454284451509805"><ele>651.0</ele><time>2026-04-11T09:43:32Z</time></trkpt><trkpt lat="43.35867243442579" lon="12.454311545944382"><ele>651.0</ele><time>2026-04-11T09:43:33Z</time></trkpt><trkpt lat="43.35873786002506" lon="12.454331589859025"><ele>651.0</ele><time>2026-04-11T09:43:34Z</time></trkpt><trkpt lat="43.35880420859329" lon="12.454351916527056"><ele>651.0</ele><time>2026-04-11T09:43:35Z</time></trkpt><trkpt lat="43.358924314656655" lon="12.454395171250056"><ele>651.0</ele><time>2026-04-11T09:43:37Z</time></trkpt><trkpt lat="43.35902962915896" lon="12.454449963823853"><ele>651.0</ele><time>2026-04-11T09:43:39Z</time></trkpt><trkpt lat="43.35913808610319" lon="12.454506538571971"><ele>649.1999999999999</ele><time>2026-04-11T09:43:41Z</time></trkpt><trkpt lat="43.359197090338085" lon="12.454536802796937"><ele>647.4</ele><time>2026-04-11T09:43:42Z</time></trkpt><trkpt lat="43.359307475728414" lon="12.454592076259052"><ele>645.6</ele><time>2026-04-11T09:43:44Z</time></trkpt><trkpt lat="43.35937156340471" lon="12.454596787089441"><ele>643.8</ele><time>2026-04-11T09:43:45Z</time></trkpt><trkpt lat="43.35947971857153" lon="12.454653710395325"><ele>642.0</ele><time>2026-04-11T09:43:47Z</time></trkpt><trkpt lat="43.35958518283374" lon="12.454688409550364"><ele>642.0</ele><time>2026-04-11T09:43:49Z</time></trkpt><trkpt lat="43.35967988246803" lon="12.454723613413119"><ele>642.0</ele><time>2026-04-11T09:43:51Z</time></trkpt><trkpt lat="43.359764480679125" lon="12.454792899509647"><ele>642.0</ele><time>2026-04-11T09:43:53Z</time></trkpt><trkpt lat="43.35985733127694" lon="12.45485816168826"><ele>642.0</ele><time>2026-04-11T09:43:55Z</time></trkpt><trkpt lat="43.35994908368297" lon="12.454929360451198"><ele>642.0</ele><time>2026-04-11T09:43:57Z</time></trkpt><trkpt lat="43.36003735640117" lon="12.455002369483783"><ele>640.0</ele><time>2026-04-11T09:43:59Z</time></trkpt><trkpt lat="43.36012390629097" lon="12.455074764327957"><ele>638.0</ele><time>2026-04-11T09:44:01Z</time></trkpt><trkpt lat="43.36021184377675" lon="12.455148319800385"><ele>636.0</ele><time>2026-04-11T09:44:03Z</time></trkpt><trkpt lat="43.360293267010064" lon="12.45519254789326"><ele>634.0</ele><time>2026-04-11T09:44:05Z</time></trkpt><trkpt lat="43.36035975260486" lon="12.455253043300518"><ele>632.0</ele><time>2026-04-11T09:44:07Z</time></trkpt><trkpt lat="43.36042014785323" lon="12.455326110295102"><ele>632.0</ele><time>2026-04-11T09:44:10Z</time></trkpt><trkpt lat="43.360480163730614" lon="12.455372942668047"><ele>632.0</ele><time>2026-04-11T09:44:16Z</time></trkpt><trkpt lat="43.36055363539191" lon="12.455423707863497"><ele>632.0</ele><time>2026-04-11T09:44:18Z</time></trkpt><trkpt lat="43.360624933835005" lon="12.455524014841627"><ele>632.0</ele><time>2026-04-11T09:44:20Z</time></trkpt><trkpt lat="43.360712977063926" lon="12.45562668384434"><ele>632.0</ele><time>2026-04-11T09:44:22Z</time></trkpt><trkpt lat="43.360804576455706" lon="12.45573349969263"><ele>629.0</ele><time>2026-04-11T09:44:24Z</time></trkpt><trkpt lat="43.36085598020797" lon="12.455793442571085"><ele>626.0</ele><time>2026-04-11T09:44:25Z</time></trkpt><trkpt lat="43.36090637581464" lon="12.45584637210898"><ele>623.0</ele><time>2026-04-11T09:44:26Z</time></trkpt><trkpt lat="43.36097259781092" lon="12.455896191176532"><ele>620.0</ele><time>2026-04-11T09:44:27Z</time></trkpt><trkpt lat="43.361028217319436" lon="12.455947812389022"><ele>617.0</ele><time>2026-04-11T09:44:28Z</time></trkpt><trkpt lat="43.3611572629573" lon="12.455996141064519"><ele>614.0</ele><time>2026-04-11T09:44:30Z</time></trkpt><trkpt lat="43.36123848955223" lon="12.456011709954478"><ele>614.0</ele><time>2026-04-11T09:44:31Z</time></trkpt><trkpt lat="43.36133390506785" lon="12.456036658344145"><ele>614.0</ele><time>2026-04-11T09:44:32Z</time></trkpt><trkpt lat="43.3614303040287" lon="12.45609421109209"><ele>614.0</ele><time>2026-04-11T09:44:33Z</time></trkpt><trkpt lat="43.36152702074077" lon="12.456132846606225"><ele>614.0</ele><time>2026-04-11T09:44:34Z</time></trkpt><trkpt lat="43.36161176041171" lon="12.456169546863968"><ele>614.0</ele><time>2026-04-11T09:44:35Z</time></trkpt><trkpt lat="43.36169064603036" lon="12.456205207402292"><ele>612.6</ele><time>2026-04-11T09:44:36Z</time></trkpt><trkpt lat="43.36176360864212" lon="12.456234877237577"><ele>611.2</ele><time>2026-04-11T09:44:37Z</time></trkpt><trkpt lat="43.36183260125586" lon="12.456266027888422"><ele>609.8000000000001</ele><time>2026-04-11T09:44:38Z</time></trkpt><trkpt lat="43.36195111391407" lon="12.456329577464793"><ele>608.4</ele><time>2026-04-11T09:44:40Z</time></trkpt><trkpt lat="43.36205577523158" lon="12.456372304010092"><ele>607.0</ele><time>2026-04-11T09:44:42Z</time></trkpt><trkpt lat="43.36213380371342" lon="12.45640491696189"><ele>604.5</ele><time>2026-04-11T09:44:44Z</time></trkpt><trkpt lat="43.362216559740666" lon="12.45644097887872"><ele>602.0</ele><time>2026-04-11T09:44:46Z</time></trkpt><trkpt lat="43.362280867672744" lon="12.456463860058355"><ele>599.5</ele><time>2026-04-11T09:44:47Z</time></trkpt><trkpt lat="43.36238505130835" lon="12.456508028344818"><ele>597.0</ele><time>2026-04-11T09:44:49Z</time></trkpt><trkpt lat="43.36246529610869" lon="12.45656501706096"><ele>594.5</ele><time>2026-04-11T09:44:51Z</time></trkpt><trkpt lat="43.36255306691017" lon="12.456612556234212"><ele>592.0</ele><time>2026-04-11T09:44:53Z</time></trkpt><trkpt lat="43.362619727453676" lon="12.456644236072652"><ele>592.0</ele><time>2026-04-11T09:44:55Z</time></trkpt><trkpt lat="43.36270204943406" lon="12.456677803264384"><ele>592.0</ele><time>2026-04-11T09:44:57Z</time></trkpt><trkpt lat="43.36277604712801" lon="12.45669327199372"><ele>592.0</ele><time>2026-04-11T09:44:59Z</time></trkpt><trkpt lat="43.362866838204376" lon="12.45669838653185"><ele>592.0</ele><time>2026-04-11T09:45:01Z</time></trkpt><trkpt lat="43.36295570595669" lon="12.45669168715431"><ele>592.0</ele><time>2026-04-11T09:45:03Z</time></trkpt><trkpt lat="43.36302655105889" lon="12.456660769775404"><ele>592.0</ele><time>2026-04-11T09:45:05Z</time></trkpt><trkpt lat="43.36311405860119" lon="12.456623134643962"><ele>589.5</ele><time>2026-04-11T09:45:07Z</time></trkpt><trkpt lat="43.36319754730681" lon="12.456584865896753"><ele>587.0</ele><time>2026-04-11T09:45:09Z</time></trkpt><trkpt lat="43.3632845020186" lon="12.456564010218457"><ele>584.5</ele><time>2026-04-11T09:45:11Z</time></trkpt><trkpt lat="43.36338934192561" lon="12.456575531554082"><ele>582.0</ele><time>2026-04-11T09:45:13Z</time></trkpt><trkpt lat="43.36347536258621" lon="12.45659116126269"><ele>579.5</ele><time>2026-04-11T09:45:15Z</time></trkpt><trkpt lat="43.36354553891314" lon="12.456609537942334"><ele>577.0</ele><time>2026-04-11T09:45:17Z</time></trkpt><trkpt lat="43.36364090954505" lon="12.456628443705458"><ele>577.0</ele><time>2026-04-11T09:45:19Z</time></trkpt><trkpt lat="43.36371994503282" lon="12.456609447391141"><ele>577.0</ele><time>2026-04-11T09:45:21Z</time></trkpt><trkpt lat="43.36381657195874" lon="12.456531800612158"><ele>577.0</ele><time>2026-04-11T09:45:23Z</time></trkpt><trkpt lat="43.36387358279121" lon="12.456442249568672"><ele>577.0</ele><time>2026-04-11T09:45:25Z</time></trkpt><trkpt lat="43.36390076286272" lon="12.456302743562746"><ele>577.0</ele><time>2026-04-11T09:45:27Z</time></trkpt><trkpt lat="43.36387119203289" lon="12.456163708582123"><ele>578.0</ele><time>2026-04-11T09:45:29Z</time></trkpt><trkpt lat="43.36386036396752" lon="12.456042371060631"><ele>579.0</ele><time>2026-04-11T09:45:31Z</time></trkpt><trkpt lat="43.36390463618977" lon="12.45589263451386"><ele>580.0</ele><time>2026-04-11T09:45:33Z</time></trkpt><trkpt lat="43.36394150793512" lon="12.455820834301786"><ele>581.0</ele><time>2026-04-11T09:45:34Z</time></trkpt><trkpt lat="43.36405149182752" lon="12.455748284184661"><ele>582.0</ele><time>2026-04-11T09:45:36Z</time></trkpt><trkpt lat="43.36413688947677" lon="12.45574540540106"><ele>576.4</ele><time>2026-04-11T09:45:38Z</time></trkpt><trkpt lat="43.364178801693214" lon="12.455831433403228"><ele>570.8000000000001</ele><time>2026-04-11T09:45:41Z</time></trkpt><trkpt lat="43.36423022971936" lon="12.455964626221409"><ele>565.2</ele><time>2026-04-11T09:45:43Z</time></trkpt><trkpt lat="43.364280394550214" lon="12.45609889342811"><ele>559.6</ele><time>2026-04-11T09:45:45Z</time></trkpt><trkpt lat="43.36430394167783" lon="12.456247984033647"><ele>554.0</ele><time>2026-04-11T09:45:47Z</time></trkpt><trkpt lat="43.364312552315475" lon="12.456387555461557"><ele>554.0</ele><time>2026-04-11T09:45:49Z</time></trkpt><trkpt lat="43.36434415574979" lon="12.45654675935229"><ele>554.0</ele><time>2026-04-11T09:45:51Z</time></trkpt><trkpt lat="43.36437160500319" lon="12.456631054272519"><ele>554.0</ele><time>2026-04-11T09:45:52Z</time></trkpt><trkpt lat="43.364411889883584" lon="12.456761931011187"><ele>554.0</ele><time>2026-04-11T09:45:54Z</time></trkpt><trkpt lat="43.36445788551963" lon="12.456913182998006"><ele>554.0</ele><time>2026-04-11T09:45:56Z</time></trkpt><trkpt lat="43.364497095666" lon="12.457052490727635"><ele>551.6</ele><time>2026-04-11T09:45:58Z</time></trkpt><trkpt lat="43.36451013621708" lon="12.457193675204767"><ele>549.2</ele><time>2026-04-11T09:46:00Z</time></trkpt><trkpt lat="43.3644967458037" lon="12.457321598057382"><ele>546.8000000000001</ele><time>2026-04-11T09:46:02Z</time></trkpt><trkpt lat="43.3644585246256" lon="12.457454818512618"><ele>544.4</ele><time>2026-04-11T09:46:04Z</time></trkpt><trkpt lat="43.364405012151934" lon="12.457605898654554"><ele>542.0</ele><time>2026-04-11T09:46:06Z</time></trkpt><trkpt lat="43.36438911214135" lon="12.457716774820147"><ele>542.0</ele><time>2026-04-11T09:46:09Z</time></trkpt><trkpt lat="43.36445747325987" lon="12.45777785408099"><ele>542.0</ele><time>2026-04-11T09:46:11Z</time></trkpt><trkpt lat="43.36455369773922" lon="12.457716286059375"><ele>542.0</ele><time>2026-04-11T09:46:13Z</time></trkpt><trkpt lat="43.364645096685756" lon="12.457624962976565"><ele>542.0</ele><time>2026-04-11T09:46:15Z</time></trkpt><trkpt lat="43.36473997162029" lon="12.457544917288324"><ele>542.0</ele><time>2026-04-11T09:46:17Z</time></trkpt><trkpt lat="43.36480275091552" lon="12.457497263166484"><ele>539.3333333333333</ele><time>2026-04-11T09:46:18Z</time></trkpt><trkpt lat="43.36486972137584" lon="12.457435325755014"><ele>536.6666666666666</ele><time>2026-04-11T09:46:19Z</time></trkpt><trkpt lat="43.3649452599861" lon="12.457393634358281"><ele>534.0</ele><time>2026-04-11T09:46:20Z</time></trkpt><trkpt lat="43.36500390097416" lon="12.457346275195842"><ele>531.3333333333334</ele><time>2026-04-11T09:46:21Z</time></trkpt><trkpt lat="43.365059712425456" lon="12.45729562107793"><ele>528.6666666666667</ele><time>2026-04-11T09:46:22Z</time></trkpt><trkpt lat="43.36513916833107" lon="12.457196737853831"><ele>526.0</ele><time>2026-04-11T09:46:24Z</time></trkpt><trkpt lat="43.36519041247781" lon="12.457136291649915"><ele>526.4285714285714</ele><time>2026-04-11T09:46:26Z</time></trkpt><trkpt lat="43.36520711058185" lon="12.457034485134333"><ele>526.8571428571428</ele><time>2026-04-11T09:47:26Z</time></trkpt><trkpt lat="43.36522700491425" lon="12.456941032309468"><ele>527.2857142857142</ele><time>2026-04-11T09:47:28Z</time></trkpt><trkpt lat="43.36523958960949" lon="12.456842647649434"><ele>527.7142857142857</ele><time>2026-04-11T09:47:30Z</time></trkpt><trkpt lat="43.36525255615096" lon="12.456757321356744"><ele>528.1428571428571</ele><time>2026-04-11T09:47:32Z</time></trkpt><trkpt lat="43.36526555710758" lon="12.45666005371945"><ele>528.5714285714286</ele><time>2026-04-11T09:47:36Z</time></trkpt><trkpt lat="43.365299744619755" lon="12.456539758616758"><ele>529.0</ele><time>2026-04-11T09:47:47Z</time></trkpt><trkpt lat="43.36535246729659" lon="12.456432318075429"><ele>529.0</ele><time>2026-04-11T09:47:49Z</time></trkpt><trkpt lat="43.36543260480309" lon="12.456290797630261"><ele>529.0</ele><time>2026-04-11T09:47:51Z</time></trkpt><trkpt lat="43.36549410994961" lon="12.45622280887954"><ele>529.0</ele><time>2026-04-11T09:47:52Z</time></trkpt><trkpt lat="43.36553752455968" lon="12.456138152454908"><ele>529.0</ele><time>2026-04-11T09:47:53Z</time></trkpt><trkpt lat="43.36559225493473" lon="12.4560571499982"><ele>529.0</ele><time>2026-04-11T09:47:54Z</time></trkpt><trkpt lat="43.36565150107386" lon="12.455986705471396"><ele>529.0</ele><time>2026-04-11T09:47:55Z</time></trkpt><trkpt lat="43.36570647538418" lon="12.455926890210984"><ele>527.0</ele><time>2026-04-11T09:47:56Z</time></trkpt><trkpt lat="43.365759517369206" lon="12.45586015404108"><ele>525.0</ele><time>2026-04-11T09:47:57Z</time></trkpt><trkpt lat="43.36583846295427" lon="12.455742544097264"><ele>523.0</ele><time>2026-04-11T09:47:59Z</time></trkpt><trkpt lat="43.365917245097236" lon="12.455626244166641"><ele>521.0</ele><time>2026-04-11T09:48:01Z</time></trkpt><trkpt lat="43.366001985695824" lon="12.455548257046301"><ele>519.0</ele><time>2026-04-11T09:48:03Z</time></trkpt><trkpt lat="43.36609088209785" lon="12.455438910361448"><ele>519.0</ele><time>2026-04-11T09:48:05Z</time></trkpt><trkpt lat="43.36618644117797" lon="12.455335061580264"><ele>519.0</ele><time>2026-04-11T09:48:07Z</time></trkpt><trkpt lat="43.36627915055082" lon="12.455267452029377"><ele>519.0</ele><time>2026-04-11T09:48:09Z</time></trkpt><trkpt lat="43.36636851381878" lon="12.455215629772983"><ele>519.0</ele><time>2026-04-11T09:48:11Z</time></trkpt><trkpt lat="43.3664391236122" lon="12.455169741382273"><ele>519.0</ele><time>2026-04-11T09:48:13Z</time></trkpt><trkpt lat="43.36651022390163" lon="12.45510522875774"><ele>513.6</ele><time>2026-04-11T09:48:15Z</time></trkpt><trkpt lat="43.3665756191179" lon="12.45501689396648"><ele>508.2</ele><time>2026-04-11T09:48:17Z</time></trkpt><trkpt lat="43.36660671310599" lon="12.454911913984933"><ele>502.80000000000007</ele><time>2026-04-11T09:48:19Z</time></trkpt><trkpt lat="43.3666461695294" lon="12.454813716090209"><ele>497.40000000000003</ele><time>2026-04-11T09:48:21Z</time></trkpt><trkpt lat="43.36669302162736" lon="12.45469202835004"><ele>492.0</ele><time>2026-04-11T09:48:23Z</time></trkpt><trkpt lat="43.36672551300052" lon="12.454558672568602"><ele>490.8</ele><time>2026-04-11T09:48:25Z</time></trkpt><trkpt lat="43.366731129931715" lon="12.454406293667793"><ele>489.6</ele><time>2026-04-11T09:48:27Z</time></trkpt><trkpt lat="43.36669359479227" lon="12.454265579298227"><ele>488.40000000000003</ele><time>2026-04-11T09:48:29Z</time></trkpt><trkpt lat="43.366679440909046" lon="12.454120730548624"><ele>487.20000000000005</ele><time>2026-04-11T09:48:31Z</time></trkpt><trkpt lat="43.36673885463362" lon="12.45407605061381"><ele>486.0</ele><time>2026-04-11T09:48:32Z</time></trkpt><trkpt lat="43.3668356269978" lon="12.454028764091033"><ele>486.0</ele><time>2026-04-11T09:48:34Z</time></trkpt><trkpt lat="43.36693191853728" lon="12.454024802693421"><ele>486.0</ele><time>2026-04-11T09:48:36Z</time></trkpt><trkpt lat="43.36698881780553" lon="12.454094048991992"><ele>486.0</ele><time>2026-04-11T09:48:38Z</time></trkpt><trkpt lat="43.367062176461005" lon="12.454189923241048"><ele>486.0</ele><time>2026-04-11T09:48:40Z</time></trkpt><trkpt lat="43.36711858767582" lon="12.454276242127397"><ele>486.0</ele><time>2026-04-11T09:48:42Z</time></trkpt><trkpt lat="43.36718337664586" lon="12.454332944271652"><ele>486.0</ele><time>2026-04-11T09:48:44Z</time></trkpt><trkpt lat="43.367238159899" lon="12.454139848353925"><ele>482.5</ele><time>2026-04-11T09:48:49Z</time></trkpt><trkpt lat="43.36721977940005" lon="12.45404554096405"><ele>479.0</ele><time>2026-04-11T09:48:50Z</time></trkpt><trkpt lat="43.36722177393097" lon="12.453949322341442"><ele>475.5</ele><time>2026-04-11T09:48:51Z</time></trkpt><trkpt lat="43.367239312572465" lon="12.453845171764419"><ele>472.0</ele><time>2026-04-11T09:48:52Z</time></trkpt><trkpt lat="43.36722940046463" lon="12.453751974790974"><ele>468.5</ele><time>2026-04-11T09:48:53Z</time></trkpt><trkpt lat="43.367175334030144" lon="12.453619174423464"><ele>465.0</ele><time>2026-04-11T09:48:55Z</time></trkpt><trkpt lat="43.367211432164716" lon="12.453691678771115"><ele>465.0</ele><time>2026-04-11T09:49:24Z</time></trkpt><trkpt lat="43.36723760164696" lon="12.453775237789865"><ele>465.0</ele><time>2026-04-11T09:49:34Z</time></trkpt><trkpt lat="43.367230952637186" lon="12.453904710481444"><ele>465.0</ele><time>2026-04-11T09:49:37Z</time></trkpt><trkpt lat="43.36721836845645" lon="12.454018245027681"><ele>465.0</ele><time>2026-04-11T09:49:39Z</time></trkpt><trkpt lat="43.367357413292886" lon="12.454410842434731"><ele>465.0</ele><time>2026-04-11T09:49:40Z</time></trkpt><trkpt lat="43.3674187798186" lon="12.454451725035273"><ele>465.0</ele><time>2026-04-11T09:49:41Z</time></trkpt><trkpt lat="43.36747955409803" lon="12.454492208522796"><ele>465.0</ele><time>2026-04-11T09:49:42Z</time></trkpt><trkpt lat="43.36759983430092" lon="12.454572772440406"><ele>465.0</ele><time>2026-04-11T09:49:44Z</time></trkpt><trkpt lat="43.36766457252302" lon="12.454632546412347"><ele>465.0</ele><time>2026-04-11T09:49:45Z</time></trkpt><trkpt lat="43.36772718014768" lon="12.454706634122067"><ele>465.0</ele><time>2026-04-11T09:49:46Z</time></trkpt><trkpt lat="43.36779199067475" lon="12.4547905309569"><ele>465.6</ele><time>2026-04-11T09:49:47Z</time></trkpt><trkpt lat="43.3678586218153" lon="12.454880317787328"><ele>466.2</ele><time>2026-04-11T09:49:48Z</time></trkpt><trkpt lat="43.36792883989373" lon="12.45497435758528"><ele>466.79999999999995</ele><time>2026-04-11T09:49:49Z</time></trkpt><trkpt lat="43.3680016351596" lon="12.45506457078471"><ele>467.4</ele><time>2026-04-11T09:49:50Z</time></trkpt><trkpt lat="43.3680625782655" lon="12.455140096083362"><ele>468.0</ele><time>2026-04-11T09:49:51Z</time></trkpt><trkpt lat="43.368127877242436" lon="12.455212788331904"><ele>465.6666666666667</ele><time>2026-04-11T09:49:52Z</time></trkpt><trkpt lat="43.368191760813765" lon="12.455270026783266"><ele>463.33333333333337</ele><time>2026-04-11T09:49:53Z</time></trkpt><trkpt lat="43.36825481953745" lon="12.455318735400077"><ele>461.0</ele><time>2026-04-11T09:49:54Z</time></trkpt><trkpt lat="43.368314846183836" lon="12.455386024338564"><ele>458.6666666666667</ele><time>2026-04-11T09:49:55Z</time></trkpt><trkpt lat="43.368380083918154" lon="12.455471377773982"><ele>456.33333333333337</ele><time>2026-04-11T09:49:56Z</time></trkpt><trkpt lat="43.368446200912146" lon="12.455567059549368"><ele>454.0</ele><time>2026-04-11T09:49:57Z</time></trkpt><trkpt lat="43.36850742527495" lon="12.455660903057623"><ele>454.00000000000006</ele><time>2026-04-11T09:49:58Z</time></trkpt><trkpt lat="43.368561803567076" lon="12.455747930375114"><ele>454.0</ele><time>2026-04-11T09:49:59Z</time></trkpt><trkpt lat="43.36860880344104" lon="12.455836322256895"><ele>454.0</ele><time>2026-04-11T09:50:00Z</time></trkpt><trkpt lat="43.36865641579724" lon="12.455934809366845"><ele>454.0</ele><time>2026-04-11T09:50:01Z</time></trkpt><trkpt lat="43.368697587661416" lon="12.45603900367845"><ele>454.00000000000006</ele><time>2026-04-11T09:50:02Z</time></trkpt><trkpt lat="43.36873752371036" lon="12.456151020691639"><ele>454.0</ele><time>2026-04-11T09:50:03Z</time></trkpt><trkpt lat="43.36875664137466" lon="12.456257837449987"><ele>454.33333333333337</ele><time>2026-04-11T09:50:04Z</time></trkpt><trkpt lat="43.36877209012142" lon="12.456368771376297"><ele>454.6666666666667</ele><time>2026-04-11T09:50:05Z</time></trkpt><trkpt lat="43.36877975768407" lon="12.456470444688007"><ele>455.0</ele><time>2026-04-11T09:50:06Z</time></trkpt><trkpt lat="43.3687918059382" lon="12.45656998201077"><ele>455.33333333333337</ele><time>2026-04-11T09:50:07Z</time></trkpt><trkpt lat="43.36880821718485" lon="12.456677791386202"><ele>455.6666666666667</ele><time>2026-04-11T09:50:08Z</time></trkpt><trkpt lat="43.3688250518905" lon="12.45678838240053"><ele>456.0</ele><time>2026-04-11T09:50:09Z</time></trkpt><trkpt lat="43.36884322615732" lon="12.456903876553428"><ele>450.3333333333333</ele><time>2026-04-11T09:50:10Z</time></trkpt><trkpt lat="43.368874009584815" lon="12.457036194117464"><ele>444.66666666666663</ele><time>2026-04-11T09:50:11Z</time></trkpt><trkpt lat="43.36891367634968" lon="12.457160057931615"><ele>439.0</ele><time>2026-04-11T09:50:12Z</time></trkpt><trkpt lat="43.36895723917287" lon="12.457263252183251"><ele>433.3333333333333</ele><time>2026-04-11T09:50:13Z</time></trkpt><trkpt lat="43.36899295919677" lon="12.45736374499639"><ele>427.66666666666663</ele><time>2026-04-11T09:50:14Z</time></trkpt><trkpt lat="43.36901366210942" lon="12.457464290252915"><ele>422.0</ele><time>2026-04-11T09:50:15Z</time></trkpt><trkpt lat="43.36904614883321" lon="12.457569034595338"><ele>422.0</ele><time>2026-04-11T09:50:16Z</time></trkpt><trkpt lat="43.36906330104174" lon="12.457653554149214"><ele>422.0</ele><time>2026-04-11T09:50:17Z</time></trkpt><trkpt lat="43.36908545781928" lon="12.45780416533407"><ele>422.0</ele><time>2026-04-11T09:50:19Z</time></trkpt><trkpt lat="43.36910631969763" lon="12.457926003134041"><ele>422.0</ele><time>2026-04-11T09:50:21Z</time></trkpt><trkpt lat="43.36916476172794" lon="12.458024729099522"><ele>422.0</ele><time>2026-04-11T09:50:23Z</time></trkpt><trkpt lat="43.369278951969996" lon="12.457987968948691"><ele>421.99999999999994</ele><time>2026-04-11T09:50:25Z</time></trkpt><trkpt lat="43.36932267079901" lon="12.457881983336437"><ele>422.0</ele><time>2026-04-11T09:50:26Z</time></trkpt><trkpt lat="43.369350702558336" lon="12.457800916269017"><ele>422.0</ele><time>2026-04-11T09:50:27Z</time></trkpt><trkpt lat="43.36938769127193" lon="12.457675312369572"><ele>422.0</ele><time>2026-04-11T09:50:29Z</time></trkpt><trkpt lat="43.36945766717289" lon="12.45760296779616"><ele>421.99999999999994</ele><time>2026-04-11T09:50:31Z</time></trkpt><trkpt lat="43.369535407946465" lon="12.457657265593289"><ele>422.0</ele><time>2026-04-11T09:50:33Z</time></trkpt><trkpt lat="43.36956330869498" lon="12.457743871667999"><ele>422.0</ele><time>2026-04-11T09:50:34Z</time></trkpt><trkpt lat="43.36960551254303" lon="12.45786564422014"><ele>422.0</ele><time>2026-04-11T09:50:35Z</time></trkpt><trkpt lat="43.369644837677136" lon="12.457975491356889"><ele>422.0</ele><time>2026-04-11T09:50:36Z</time></trkpt><trkpt lat="43.36967722322101" lon="12.458065174419124"><ele>422.0</ele><time>2026-04-11T09:50:37Z</time></trkpt><trkpt lat="43.36970702234351" lon="12.458147695087268"><ele>422.0</ele><time>2026-04-11T09:50:38Z</time></trkpt><trkpt lat="43.36977119616729" lon="12.458293766507834"><ele>418.3333333333333</ele><time>2026-04-11T09:50:40Z</time></trkpt><trkpt lat="43.36982056720417" lon="12.45836269804411"><ele>414.66666666666663</ele><time>2026-04-11T09:50:41Z</time></trkpt><trkpt lat="43.36989456820682" lon="12.458430625714325"><ele>411.0</ele><time>2026-04-11T09:50:42Z</time></trkpt><trkpt lat="43.369955149667526" lon="12.458473789380745"><ele>407.33333333333337</ele><time>2026-04-11T09:50:43Z</time></trkpt><trkpt lat="43.37006169373005" lon="12.458433362597692"><ele>403.6666666666667</ele><time>2026-04-11T09:50:45Z</time></trkpt><trkpt lat="43.370116571441976" lon="12.458300009041102"><ele>400.0</ele><time>2026-04-11T09:50:47Z</time></trkpt><trkpt lat="43.37012580385694" lon="12.458176499047292"><ele>400.0</ele><time>2026-04-11T09:50:48Z</time></trkpt><trkpt lat="43.370162952046" lon="12.458064860257913"><ele>400.0</ele><time>2026-04-11T09:50:49Z</time></trkpt><trkpt lat="43.37021597655697" lon="12.457951688636715"><ele>400.0</ele><time>2026-04-11T09:50:50Z</time></trkpt><trkpt lat="43.3702669345432" lon="12.457842155783679"><ele>400.0</ele><time>2026-04-11T09:50:51Z</time></trkpt><trkpt lat="43.3703091130448" lon="12.457727383795847"><ele>400.0</ele><time>2026-04-11T09:50:52Z</time></trkpt><trkpt lat="43.37034578056462" lon="12.45760846699039"><ele>399.2</ele><time>2026-04-11T09:50:53Z</time></trkpt><trkpt lat="43.37037545459184" lon="12.457499217041885"><ele>398.4</ele><time>2026-04-11T09:50:54Z</time></trkpt><trkpt lat="43.37039824010811" lon="12.457403141247559"><ele>397.6</ele><time>2026-04-11T09:50:55Z</time></trkpt><trkpt lat="43.37044854002739" lon="12.457278869752576"><ele>396.8</ele><time>2026-04-11T09:50:57Z</time></trkpt><trkpt lat="43.370564281532204" lon="12.457330265144686"><ele>396.0</ele><time>2026-04-11T09:50:59Z</time></trkpt><trkpt lat="43.370639100186516" lon="12.45737036523775"><ele>392.3333333333333</ele><time>2026-04-11T09:51:00Z</time></trkpt><trkpt lat="43.37073291868006" lon="12.457420039529106"><ele>388.6666666666667</ele><time>2026-04-11T09:51:01Z</time></trkpt><trkpt lat="43.370823594116274" lon="12.457471824452128"><ele>385.0</ele><time>2026-04-11T09:51:02Z</time></trkpt><trkpt lat="43.370895604008375" lon="12.457531287628964"><ele>381.33333333333337</ele><time>2026-04-11T09:51:03Z</time></trkpt><trkpt lat="43.37095083585664" lon="12.457604480594085"><ele>377.6666666666667</ele><time>2026-04-11T09:51:04Z</time></trkpt><trkpt lat="43.37098297298788" lon="12.457694040789997"><ele>374.0</ele><time>2026-04-11T09:51:05Z</time></trkpt><trkpt lat="43.3709956575904" lon="12.457800382799718"><ele>374.0</ele><time>2026-04-11T09:51:06Z</time></trkpt><trkpt lat="43.37101173189116" lon="12.457954023644213"><ele>374.0</ele><time>2026-04-11T09:51:07Z</time></trkpt><trkpt lat="43.371028957260556" lon="12.458112544739055"><ele>374.0</ele><time>2026-04-11T09:51:08Z</time></trkpt><trkpt lat="43.37104940281465" lon="12.458256108356412"><ele>374.0</ele><time>2026-04-11T09:51:09Z</time></trkpt><trkpt lat="43.371080712095264" lon="12.458374010434362"><ele>374.0</ele><time>2026-04-11T09:51:10Z</time></trkpt><trkpt lat="43.371121368770105" lon="12.458470115784179"><ele>374.0</ele><time>2026-04-11T09:51:11Z</time></trkpt><trkpt lat="43.371218483186226" lon="12.458491713764904"><ele>374.0</ele><time>2026-04-11T09:51:12Z</time></trkpt><trkpt lat="43.371280398204995" lon="12.458510523202188"><ele>374.0</ele><time>2026-04-11T09:51:13Z</time></trkpt><trkpt lat="43.371357641045726" lon="12.458525264450143"><ele>374.0</ele><time>2026-04-11T09:51:14Z</time></trkpt><trkpt lat="43.37144496692228" lon="12.45855220799882"><ele>374.0</ele><time>2026-04-11T09:51:15Z</time></trkpt><trkpt lat="43.37151681138028" lon="12.45862738000238"><ele>374.0</ele><time>2026-04-11T09:51:16Z</time></trkpt><trkpt lat="43.37158983381314" lon="12.458647908554473"><ele>373.1666666666667</ele><time>2026-04-11T09:51:17Z</time></trkpt><trkpt lat="43.37165813858119" lon="12.45866713422146"><ele>372.33333333333337</ele><time>2026-04-11T09:51:18Z</time></trkpt><trkpt lat="43.371727643497614" lon="12.458684702907464"><ele>371.5</ele><time>2026-04-11T09:51:19Z</time></trkpt><trkpt lat="43.37180328644395" lon="12.458702013939426"><ele>370.6666666666667</ele><time>2026-04-11T09:51:20Z</time></trkpt><trkpt lat="43.37186729642281" lon="12.458714179864588"><ele>369.8333333333333</ele><time>2026-04-11T09:51:21Z</time></trkpt><trkpt lat="43.37196724840072" lon="12.458767603804223"><ele>369.0</ele><time>2026-04-11T09:51:23Z</time></trkpt><trkpt lat="43.37193279697637" lon="12.458850063289121"><ele>369.0</ele><time>2026-04-11T09:51:24Z</time></trkpt><trkpt lat="43.37196186756114" lon="12.459010029229507"><ele>369.0</ele><time>2026-04-11T09:51:26Z</time></trkpt><trkpt lat="43.37197781845601" lon="12.459097804717524"><ele>369.0</ele><time>2026-04-11T09:51:27Z</time></trkpt><trkpt lat="43.37200171278588" lon="12.459189600891145"><ele>369.0</ele><time>2026-04-11T09:51:28Z</time></trkpt><trkpt lat="43.37203254886019" lon="12.4593317469839"><ele>369.0</ele><time>2026-04-11T09:51:30Z</time></trkpt><trkpt lat="43.37205589247109" lon="12.459446253747178"><ele>369.0</ele><time>2026-04-11T09:51:32Z</time></trkpt><trkpt lat="43.372075905674414" lon="12.459531964400043"><ele>369.0</ele><time>2026-04-11T09:51:34Z</time></trkpt><trkpt lat="43.37210575138327" lon="12.459620132621895"><ele>369.0</ele><time>2026-04-11T09:51:48Z</time></trkpt><trkpt lat="43.37220179587525" lon="12.459735577114163"><ele>369.0</ele><time>2026-04-11T09:51:50Z</time></trkpt><trkpt lat="43.37220687742012" lon="12.459839956439552"><ele>369.0</ele><time>2026-04-11T09:51:51Z</time></trkpt><trkpt lat="43.37222163220512" lon="12.459991559671712"><ele>373.79999999999995</ele><time>2026-04-11T09:51:52Z</time></trkpt><trkpt lat="43.37222724062152" lon="12.460147485319574"><ele>378.59999999999997</ele><time>2026-04-11T09:51:53Z</time></trkpt><trkpt lat="43.372226325698385" lon="12.460299802145295"><ele>383.4</ele><time>2026-04-11T09:51:54Z</time></trkpt><trkpt lat="43.372220144738236" lon="12.460441665366224"><ele>388.2</ele><time>2026-04-11T09:51:55Z</time></trkpt><trkpt lat="43.37220854999811" lon="12.460585098672542"><ele>393.0</ele><time>2026-04-11T09:51:56Z</time></trkpt><trkpt lat="43.3721956900821" lon="12.460738821801737"><ele>386.75</ele><time>2026-04-11T09:51:57Z</time></trkpt><trkpt lat="43.3721828900484" lon="12.460901479636751"><ele>380.5</ele><time>2026-04-11T09:51:58Z</time></trkpt><trkpt lat="43.37216963375506" lon="12.461069935374555"><ele>374.25</ele><time>2026-04-11T09:51:59Z</time></trkpt><trkpt lat="43.372157130395145" lon="12.461244186965262"><ele>368.0</ele><time>2026-04-11T09:52:00Z</time></trkpt><trkpt lat="43.3721475707221" lon="12.461446714635207"><ele>368.0</ele><time>2026-04-11T09:52:01Z</time></trkpt><trkpt lat="43.37215563864199" lon="12.461677589932567"><ele>368.0</ele><time>2026-04-11T09:52:02Z</time></trkpt><trkpt lat="43.37218268048377" lon="12.461918317055309"><ele>368.0</ele><time>2026-04-11T09:52:03Z</time></trkpt><trkpt lat="43.37222997906608" lon="12.462145576471574"><ele>372.6666666666667</ele><time>2026-04-11T09:52:04Z</time></trkpt><trkpt lat="43.37229746867945" lon="12.46235517295467"><ele>377.3333333333333</ele><time>2026-04-11T09:52:05Z</time></trkpt><trkpt lat="43.372368017544595" lon="12.462542849399597"><ele>382.0</ele><time>2026-04-11T09:52:06Z</time></trkpt><trkpt lat="43.37244082212503" lon="12.462719331238977"><ele>382.0</ele><time>2026-04-11T09:52:07Z</time></trkpt><trkpt lat="43.372516566428445" lon="12.462888315559985"><ele>382.0</ele><time>2026-04-11T09:52:08Z</time></trkpt><trkpt lat="43.372601728850505" lon="12.463046415262673"><ele>382.0</ele><time>2026-04-11T09:52:09Z</time></trkpt><trkpt lat="43.37270644954094" lon="12.46318399240487"><ele>382.0</ele><time>2026-04-11T09:52:10Z</time></trkpt><trkpt lat="43.372826218477236" lon="12.463288703439579"><ele>382.25</ele><time>2026-04-11T09:52:11Z</time></trkpt><trkpt lat="43.372961801969204" lon="12.463346412653056"><ele>382.5</ele><time>2026-04-11T09:52:12Z</time></trkpt><trkpt lat="43.373098046385685" lon="12.463384576934283"><ele>382.75</ele><time>2026-04-11T09:52:13Z</time></trkpt><trkpt lat="43.37323808109515" lon="12.463417126819676"><ele>383.0</ele><time>2026-04-11T09:52:14Z</time></trkpt><trkpt lat="43.37337186509919" lon="12.463469122880374"><ele>383.0</ele><time>2026-04-11T09:52:15Z</time></trkpt><trkpt lat="43.373506948453944" lon="12.463537370944707"><ele>383.0</ele><time>2026-04-11T09:52:16Z</time></trkpt><trkpt lat="43.3736430778707" lon="12.463613191492707"><ele>383.0</ele><time>2026-04-11T09:52:17Z</time></trkpt><trkpt lat="43.373778174876364" lon="12.463690896492418"><ele>383.0</ele><time>2026-04-11T09:52:18Z</time></trkpt><trkpt lat="43.37391028794034" lon="12.463766885358206"><ele>381.0</ele><time>2026-04-11T09:52:19Z</time></trkpt><trkpt lat="43.37404447663183" lon="12.463844067663581"><ele>379.0</ele><time>2026-04-11T09:52:20Z</time></trkpt><trkpt lat="43.37416876379246" lon="12.463920260536696"><ele>377.0</ele><time>2026-04-11T09:52:21Z</time></trkpt><trkpt lat="43.374285778713684" lon="12.464011062555926"><ele>375.0</ele><time>2026-04-11T09:52:22Z</time></trkpt><trkpt lat="43.37437610944122" lon="12.46413930737328"><ele>375.0</ele><time>2026-04-11T09:52:23Z</time></trkpt><trkpt lat="43.37447068244762" lon="12.464288881096456"><ele>375.0</ele><time>2026-04-11T09:52:24Z</time></trkpt><trkpt lat="43.37451604755074" lon="12.464486647812237"><ele>375.0</ele><time>2026-04-11T09:52:25Z</time></trkpt><trkpt lat="43.37454693756929" lon="12.46469685936358"><ele>373.6666666666667</ele><time>2026-04-11T09:52:26Z</time></trkpt><trkpt lat="43.37457630161376" lon="12.464918923488938"><ele>372.33333333333337</ele><time>2026-04-11T09:52:27Z</time></trkpt><trkpt lat="43.374574044568234" lon="12.465151210488285"><ele>371.0</ele><time>2026-04-11T09:52:28Z</time></trkpt><trkpt lat="43.37460991297835" lon="12.465373113975739"><ele>371.33333333333337</ele><time>2026-04-11T09:52:29Z</time></trkpt><trkpt lat="43.37464538102974" lon="12.465592540340953"><ele>371.6666666666667</ele><time>2026-04-11T09:52:30Z</time></trkpt><trkpt lat="43.37468135806571" lon="12.465816216445091"><ele>372.0</ele><time>2026-04-11T09:52:31Z</time></trkpt><trkpt lat="43.37471673692683" lon="12.466038129409652"><ele>378.0</ele><time>2026-04-11T09:52:32Z</time></trkpt><trkpt lat="43.374752969528735" lon="12.466262507362138"><ele>384.0</ele><time>2026-04-11T09:52:33Z</time></trkpt><trkpt lat="43.3747897247158" lon="12.466485019731659"><ele>390.0</ele><time>2026-04-11T09:52:34Z</time></trkpt><trkpt lat="43.3748256543451" lon="12.466702534902964"><ele>390.0</ele><time>2026-04-11T09:52:35Z</time></trkpt><trkpt lat="43.37486302209303" lon="12.466928755881126"><ele>390.0</ele><time>2026-04-11T09:52:36Z</time></trkpt><trkpt lat="43.37490073194033" lon="12.467157048013576"><ele>390.0</ele><time>2026-04-11T09:52:37Z</time></trkpt><trkpt lat="43.37493897895693" lon="12.46738859214448"><ele>390.0</ele><time>2026-04-11T09:52:38Z</time></trkpt><trkpt lat="43.374975772758575" lon="12.467625632889337"><ele>390.0</ele><time>2026-04-11T09:52:39Z</time></trkpt><trkpt lat="43.37500381943243" lon="12.4678558971051"><ele>390.0</ele><time>2026-04-11T09:52:40Z</time></trkpt><trkpt lat="43.37500828242165" lon="12.468085040125093"><ele>391.0</ele><time>2026-04-11T09:52:41Z</time></trkpt><trkpt lat="43.37498388816681" lon="12.46832870882434"><ele>392.0</ele><time>2026-04-11T09:52:42Z</time></trkpt><trkpt lat="43.374939331357425" lon="12.468561708048625"><ele>393.0</ele><time>2026-04-11T09:52:43Z</time></trkpt><trkpt lat="43.37488798652018" lon="12.468778718619616"><ele>393.0</ele><time>2026-04-11T09:52:44Z</time></trkpt><trkpt lat="43.37486125263654" lon="12.468992956380035"><ele>393.0</ele><time>2026-04-11T09:52:45Z</time></trkpt><trkpt lat="43.37486103506838" lon="12.46921159244027"><ele>393.0</ele><time>2026-04-11T09:52:46Z</time></trkpt><trkpt lat="43.37489204500037" lon="12.469427881476964"><ele>390.33333333333337</ele><time>2026-04-11T09:52:47Z</time></trkpt><trkpt lat="43.37495496488973" lon="12.46964575508315"><ele>387.6666666666667</ele><time>2026-04-11T09:52:48Z</time></trkpt><trkpt lat="43.37504118309602" lon="12.469863041323586"><ele>385.0</ele><time>2026-04-11T09:52:49Z</time></trkpt><trkpt lat="43.37513985173751" lon="12.470041857017918"><ele>385.0</ele><time>2026-04-11T09:52:50Z</time></trkpt><trkpt lat="43.37525481842425" lon="12.470189388475413"><ele>385.0</ele><time>2026-04-11T09:52:51Z</time></trkpt><trkpt lat="43.3753684738335" lon="12.470317001085208"><ele>385.0</ele><time>2026-04-11T09:52:52Z</time></trkpt><trkpt lat="43.37547533368744" lon="12.470434622914663"><ele>385.0</ele><time>2026-04-11T09:52:53Z</time></trkpt><trkpt lat="43.375571577276084" lon="12.47055730735213"><ele>388.0</ele><time>2026-04-11T09:52:54Z</time></trkpt><trkpt lat="43.3756581515381" lon="12.47070031634732"><ele>391.0</ele><time>2026-04-11T09:52:55Z</time></trkpt><trkpt lat="43.37572886262259" lon="12.470859720442567"><ele>394.0</ele><time>2026-04-11T09:52:56Z</time></trkpt><trkpt lat="43.37576247962003" lon="12.47103066705659"><ele>397.0</ele><time>2026-04-11T09:52:57Z</time></trkpt><trkpt lat="43.375769056177816" lon="12.471208631634346"><ele>395.0</ele><time>2026-04-11T09:52:58Z</time></trkpt><trkpt lat="43.375786219713405" lon="12.4714184765256"><ele>393.0</ele><time>2026-04-11T09:52:59Z</time></trkpt><trkpt lat="43.37576696490744" lon="12.471654184266978"><ele>391.0</ele><time>2026-04-11T09:53:00Z</time></trkpt><trkpt lat="43.37574959254025" lon="12.471912929204525"><ele>393.33333333333337</ele><time>2026-04-11T09:53:01Z</time></trkpt><trkpt lat="43.37573186831277" lon="12.472184198206891"><ele>395.66666666666663</ele><time>2026-04-11T09:53:02Z</time></trkpt><trkpt lat="43.37568539053828" lon="12.472448597512663"><ele>398.0</ele><time>2026-04-11T09:53:03Z</time></trkpt><trkpt lat="43.37566698626303" lon="12.472708289401705"><ele>399.3333333333333</ele><time>2026-04-11T09:53:04Z</time></trkpt><trkpt lat="43.375648584808864" lon="12.47296794158273"><ele>400.66666666666663</ele><time>2026-04-11T09:53:05Z</time></trkpt><trkpt lat="43.37563066157143" lon="12.473220845784233"><ele>402.0</ele><time>2026-04-11T09:53:06Z</time></trkpt><trkpt lat="43.37561235194969" lon="12.473479202121991"><ele>402.0</ele><time>2026-04-11T09:53:07Z</time></trkpt><trkpt lat="43.37559433649449" lon="12.473745350430388"><ele>402.0</ele><time>2026-04-11T09:53:08Z</time></trkpt><trkpt lat="43.375575870348115" lon="12.474018455124387"><ele>402.0</ele><time>2026-04-11T09:53:09Z</time></trkpt><trkpt lat="43.375557719238266" lon="12.474286900541042"><ele>403.66666666666663</ele><time>2026-04-11T09:53:10Z</time></trkpt><trkpt lat="43.37553966545501" lon="12.47455390649264"><ele>405.3333333333333</ele><time>2026-04-11T09:53:11Z</time></trkpt><trkpt lat="43.37552305311372" lon="12.474801220025102"><ele>407.0</ele><time>2026-04-11T09:53:12Z</time></trkpt><trkpt lat="43.3755061165388" lon="12.475053568067086"><ele>399.3333333333333</ele><time>2026-04-11T09:53:13Z</time></trkpt><trkpt lat="43.37548969799926" lon="12.475298079326844"><ele>391.66666666666663</ele><time>2026-04-11T09:53:14Z</time></trkpt><trkpt lat="43.375473459822345" lon="12.475534081179937"><ele>384.0</ele><time>2026-04-11T09:53:15Z</time></trkpt><trkpt lat="43.37545792127859" lon="12.475759131081078"><ele>384.0</ele><time>2026-04-11T09:53:16Z</time></trkpt><trkpt lat="43.37544221488405" lon="12.475975165839309"><ele>384.0</ele><time>2026-04-11T09:53:17Z</time></trkpt><trkpt lat="43.375425724686544" lon="12.476182980088074"><ele>384.0</ele><time>2026-04-11T09:53:18Z</time></trkpt><trkpt lat="43.375406879005574" lon="12.476387764651655"><ele>384.0</ele><time>2026-04-11T09:53:19Z</time></trkpt><trkpt lat="43.37537805222835" lon="12.476594849120458"><ele>384.0</ele><time>2026-04-11T09:53:20Z</time></trkpt><trkpt lat="43.37532544571361" lon="12.476807429743298"><ele>384.0</ele><time>2026-04-11T09:53:21Z</time></trkpt><trkpt lat="43.37526525489841" lon="12.477031442740094"><ele>388.66666666666663</ele><time>2026-04-11T09:53:22Z</time></trkpt><trkpt lat="43.375173247123755" lon="12.477235750109825"><ele>393.3333333333333</ele><time>2026-04-11T09:53:23Z</time></trkpt><trkpt lat="43.37507378635888" lon="12.477422206787725"><ele>398.0</ele><time>2026-04-11T09:53:24Z</time></trkpt><trkpt lat="43.3749645522317" lon="12.477597809383548"><ele>398.0</ele><time>2026-04-11T09:53:25Z</time></trkpt><trkpt lat="43.374852429301015" lon="12.477766776353777"><ele>398.0</ele><time>2026-04-11T09:53:26Z</time></trkpt><trkpt lat="43.37473131751293" lon="12.477931757145935"><ele>398.0</ele><time>2026-04-11T09:53:27Z</time></trkpt><trkpt lat="43.37460348641807" lon="12.478088187628328"><ele>396.66666666666663</ele><time>2026-04-11T09:53:28Z</time></trkpt><trkpt lat="43.37446095814358" lon="12.47824901692669"><ele>395.33333333333337</ele><time>2026-04-11T09:53:29Z</time></trkpt><trkpt lat="43.37432295671815" lon="12.478401421871895"><ele>394.0</ele><time>2026-04-11T09:53:30Z</time></trkpt><trkpt lat="43.3741872000261" lon="12.478554469367051"><ele>394.0</ele><time>2026-04-11T09:53:31Z</time></trkpt><trkpt lat="43.37405378218864" lon="12.478706016691667"><ele>394.0</ele><time>2026-04-11T09:53:32Z</time></trkpt><trkpt lat="43.37392300065671" lon="12.478851855557132"><ele>394.0</ele><time>2026-04-11T09:53:33Z</time></trkpt><trkpt lat="43.37379769351943" lon="12.479001285885545"><ele>393.0</ele><time>2026-04-11T09:53:34Z</time></trkpt><trkpt lat="43.37367886843245" lon="12.479163837926759"><ele>392.0</ele><time>2026-04-11T09:53:35Z</time></trkpt><trkpt lat="43.37356726546441" lon="12.479328596256968"><ele>391.0</ele><time>2026-04-11T09:53:36Z</time></trkpt><trkpt lat="43.37346343769362" lon="12.479493856402396"><ele>395.0</ele><time>2026-04-11T09:53:37Z</time></trkpt><trkpt lat="43.37337072240084" lon="12.479663090741989"><ele>399.0</ele><time>2026-04-11T09:53:38Z</time></trkpt><trkpt lat="43.37327331179476" lon="12.479826358198318"><ele>403.0</ele><time>2026-04-11T09:53:39Z</time></trkpt><trkpt lat="43.37320361000145" lon="12.48002022140471"><ele>403.0</ele><time>2026-04-11T09:53:40Z</time></trkpt><trkpt lat="43.37315243220115" lon="12.480231660676308"><ele>403.0</ele><time>2026-04-11T09:53:41Z</time></trkpt><trkpt lat="43.37312999350883" lon="12.480460510913856"><ele>403.0</ele><time>2026-04-11T09:53:42Z</time></trkpt><trkpt lat="43.373141843440614" lon="12.480693529099721"><ele>402.6666666666667</ele><time>2026-04-11T09:53:43Z</time></trkpt><trkpt lat="43.37319254970406" lon="12.4809256031377"><ele>402.33333333333337</ele><time>2026-04-11T09:53:44Z</time></trkpt><trkpt lat="43.3732681471446" lon="12.481134552355037"><ele>402.0</ele><time>2026-04-11T09:53:45Z</time></trkpt><trkpt lat="43.373378184377806" lon="12.481319360198714"><ele>400.0</ele><time>2026-04-11T09:53:46Z</time></trkpt><trkpt lat="43.3735127130757" lon="12.481473368965862"><ele>398.0</ele><time>2026-04-11T09:53:47Z</time></trkpt><trkpt lat="43.373644868372764" lon="12.481607223046645"><ele>396.0</ele><time>2026-04-11T09:53:48Z</time></trkpt><trkpt lat="43.37377469949454" lon="12.48173030115479"><ele>396.66666666666663</ele><time>2026-04-11T09:53:49Z</time></trkpt><trkpt lat="43.373906907378284" lon="12.48185511331933"><ele>397.3333333333333</ele><time>2026-04-11T09:53:50Z</time></trkpt><trkpt lat="43.374035542006304" lon="12.48197655212417"><ele>398.0</ele><time>2026-04-11T09:53:51Z</time></trkpt><trkpt lat="43.37415979445789" lon="12.482099950010072"><ele>398.0</ele><time>2026-04-11T09:53:52Z</time></trkpt><trkpt lat="43.37428710105412" lon="12.482232302229011"><ele>398.0</ele><time>2026-04-11T09:53:53Z</time></trkpt><trkpt lat="43.3744237596569" lon="12.482365881180124"><ele>398.0</ele><time>2026-04-11T09:53:54Z</time></trkpt><trkpt lat="43.374533912453394" lon="12.482546515292531"><ele>398.0</ele><time>2026-04-11T09:53:55Z</time></trkpt><trkpt lat="43.37464348736649" lon="12.482710900285074"><ele>398.0</ele><time>2026-04-11T09:53:56Z</time></trkpt><trkpt lat="43.37474615044044" lon="12.482878845540215"><ele>398.0</ele><time>2026-04-11T09:53:57Z</time></trkpt><trkpt lat="43.37484988714789" lon="12.483053436556302"><ele>399.3333333333333</ele><time>2026-04-11T09:53:58Z</time></trkpt><trkpt lat="43.3749546448365" lon="12.483230661101"><ele>400.66666666666663</ele><time>2026-04-11T09:53:59Z</time></trkpt><trkpt lat="43.375062309804605" lon="12.483413561771217"><ele>402.0</ele><time>2026-04-11T09:54:00Z</time></trkpt><trkpt lat="43.37516836121267" lon="12.483593721571866"><ele>400.33333333333337</ele><time>2026-04-11T09:54:01Z</time></trkpt><trkpt lat="43.37526950618758" lon="12.483765371741233"><ele>398.6666666666667</ele><time>2026-04-11T09:54:02Z</time></trkpt><trkpt lat="43.37537489580727" lon="12.48394305994998"><ele>397.0</ele><time>2026-04-11T09:54:03Z</time></trkpt><trkpt lat="43.37548164485425" lon="12.484123040203126"><ele>397.33333333333337</ele><time>2026-04-11T09:54:04Z</time></trkpt><trkpt lat="43.37558826086152" lon="12.484302796115253"><ele>397.66666666666663</ele><time>2026-04-11T09:54:05Z</time></trkpt><trkpt lat="43.37569341382697" lon="12.484480085391004"><ele>398.0</ele><time>2026-04-11T09:54:06Z</time></trkpt><trkpt lat="43.37579435240836" lon="12.484650269114674"><ele>398.0</ele><time>2026-04-11T09:54:07Z</time></trkpt><trkpt lat="43.3758972768871" lon="12.484823801003726"><ele>398.0</ele><time>2026-04-11T09:54:08Z</time></trkpt><trkpt lat="43.37600245309471" lon="12.485001129480587"><ele>398.0</ele><time>2026-04-11T09:54:09Z</time></trkpt><trkpt lat="43.37610707040028" lon="12.4851775156296"><ele>398.0</ele><time>2026-04-11T09:54:10Z</time></trkpt><trkpt lat="43.37621118013758" lon="12.485353045914838"><ele>398.0</ele><time>2026-04-11T09:54:11Z</time></trkpt><trkpt lat="43.37631382854529" lon="12.485526112399116"><ele>398.0</ele><time>2026-04-11T09:54:12Z</time></trkpt><trkpt lat="43.37641475864082" lon="12.485696281848865"><ele>398.66666666666663</ele><time>2026-04-11T09:54:13Z</time></trkpt><trkpt lat="43.376513677534376" lon="12.4858630603796"><ele>399.33333333333337</ele><time>2026-04-11T09:54:14Z</time></trkpt><trkpt lat="43.376608489552495" lon="12.48602291490611"><ele>400.0</ele><time>2026-04-11T09:54:15Z</time></trkpt><trkpt lat="43.376701096494365" lon="12.48617905414071"><ele>400.0</ele><time>2026-04-11T09:54:16Z</time></trkpt><trkpt lat="43.37679490651746" lon="12.4863372207955"><ele>400.0</ele><time>2026-04-11T09:54:17Z</time></trkpt><trkpt lat="43.376892790097344" lon="12.486502255275353"><ele>400.0</ele><time>2026-04-11T09:54:18Z</time></trkpt><trkpt lat="43.37699014714258" lon="12.486666402331986"><ele>400.0</ele><time>2026-04-11T09:54:19Z</time></trkpt><trkpt lat="43.37708995635049" lon="12.486834683748798"><ele>400.0</ele><time>2026-04-11T09:54:20Z</time></trkpt><trkpt lat="43.3771859893739" lon="12.486996854980426"><ele>400.0</ele><time>2026-04-11T09:54:21Z</time></trkpt><trkpt lat="43.37727926757139" lon="12.487152331518356"><ele>400.5</ele><time>2026-04-11T09:54:22Z</time></trkpt><trkpt lat="43.37736883242796" lon="12.487300675430227"><ele>401.0</ele><time>2026-04-11T09:54:23Z</time></trkpt><trkpt lat="43.37745173385809" lon="12.487448807606672"><ele>401.5</ele><time>2026-04-11T09:54:24Z</time></trkpt><trkpt lat="43.377527575666754" lon="12.487608377721028"><ele>402.0</ele><time>2026-04-11T09:54:25Z</time></trkpt><trkpt lat="43.377584498791364" lon="12.487774581663379"><ele>402.0</ele><time>2026-04-11T09:54:26Z</time></trkpt><trkpt lat="43.37761858711634" lon="12.487954989325534"><ele>402.0</ele><time>2026-04-11T09:54:27Z</time></trkpt><trkpt lat="43.37762856290029" lon="12.48814119828784"><ele>402.0</ele><time>2026-04-11T09:54:28Z</time></trkpt><trkpt lat="43.377615595517916" lon="12.488321060734316"><ele>402.0</ele><time>2026-04-11T09:54:29Z</time></trkpt><trkpt lat="43.37758230439647" lon="12.48850517015292"><ele>402.0</ele><time>2026-04-11T09:54:30Z</time></trkpt><trkpt lat="43.37754669128867" lon="12.48869905425055"><ele>402.0</ele><time>2026-04-11T09:54:31Z</time></trkpt><trkpt lat="43.37751035611108" lon="12.488890025951253"><ele>402.0</ele><time>2026-04-11T09:54:32Z</time></trkpt><trkpt lat="43.37747484925908" lon="12.489076644226135"><ele>402.0</ele><time>2026-04-11T09:54:33Z</time></trkpt><trkpt lat="43.37743952236216" lon="12.48926260530526"><ele>402.5</ele><time>2026-04-11T09:54:34Z</time></trkpt><trkpt lat="43.37740325144016" lon="12.489454334412237"><ele>403.0</ele><time>2026-04-11T09:54:35Z</time></trkpt><trkpt lat="43.37736815428181" lon="12.489639858983809"><ele>403.5</ele><time>2026-04-11T09:54:36Z</time></trkpt><trkpt lat="43.3773322136469" lon="12.489826952071034"><ele>404.0</ele><time>2026-04-11T09:54:37Z</time></trkpt><trkpt lat="43.377295409100064" lon="12.490017294207526"><ele>405.0</ele><time>2026-04-11T09:54:38Z</time></trkpt><trkpt lat="43.37725827608831" lon="12.490210281062616"><ele>406.0</ele><time>2026-04-11T09:54:39Z</time></trkpt><trkpt lat="43.3772222606718" lon="12.490401691956478"><ele>407.0</ele><time>2026-04-11T09:54:40Z</time></trkpt><trkpt lat="43.37718727008475" lon="12.490602000812931"><ele>408.0</ele><time>2026-04-11T09:54:41Z</time></trkpt><trkpt lat="43.37716552000936" lon="12.4908175253003"><ele>408.33333333333337</ele><time>2026-04-11T09:54:42Z</time></trkpt><trkpt lat="43.377167268176464" lon="12.491026963147618"><ele>408.6666666666667</ele><time>2026-04-11T09:54:43Z</time></trkpt><trkpt lat="43.377190789491536" lon="12.491242177069408"><ele>409.0</ele><time>2026-04-11T09:54:44Z</time></trkpt><trkpt lat="43.377248405529045" lon="12.491447404374972"><ele>409.33333333333337</ele><time>2026-04-11T09:54:45Z</time></trkpt><trkpt lat="43.37731113605773" lon="12.491636417394233"><ele>409.66666666666663</ele><time>2026-04-11T09:54:46Z</time></trkpt><trkpt lat="43.3773810211648" lon="12.491824351556016"><ele>410.0</ele><time>2026-04-11T09:54:47Z</time></trkpt><trkpt lat="43.377449790232774" lon="12.49200965028237"><ele>410.0</ele><time>2026-04-11T09:54:48Z</time></trkpt><trkpt lat="43.37751982342438" lon="12.492198355041104"><ele>410.0</ele><time>2026-04-11T09:54:49Z</time></trkpt><trkpt lat="43.377590449562355" lon="12.492388657766138"><ele>410.0</ele><time>2026-04-11T09:54:50Z</time></trkpt><trkpt lat="43.37765975507982" lon="12.49257540201634"><ele>410.0</ele><time>2026-04-11T09:54:51Z</time></trkpt><trkpt lat="43.37772933776105" lon="12.492763332288403"><ele>410.0</ele><time>2026-04-11T09:54:52Z</time></trkpt><trkpt lat="43.37780174912407" lon="12.492959916109285"><ele>410.0</ele><time>2026-04-11T09:54:53Z</time></trkpt><trkpt lat="43.377875801061805" lon="12.493161270561341"><ele>410.66666666666663</ele><time>2026-04-11T09:54:54Z</time></trkpt><trkpt lat="43.377950733176185" lon="12.493364949314499"><ele>411.33333333333337</ele><time>2026-04-11T09:54:55Z</time></trkpt><trkpt lat="43.37802538613226" lon="12.493573598630071"><ele>412.0</ele><time>2026-04-11T09:54:56Z</time></trkpt><trkpt lat="43.37810052502489" lon="12.493780983798635"><ele>412.33333333333337</ele><time>2026-04-11T09:54:57Z</time></trkpt><trkpt lat="43.37817211831304" lon="12.493978582900409"><ele>412.66666666666663</ele><time>2026-04-11T09:54:58Z</time></trkpt><trkpt lat="43.378235811887905" lon="12.49416594300315"><ele>413.0</ele><time>2026-04-11T09:54:59Z</time></trkpt><trkpt lat="43.37829801409664" lon="12.494349000869187"><ele>413.0</ele><time>2026-04-11T09:55:00Z</time></trkpt><trkpt lat="43.37835754966632" lon="12.494524210614994"><ele>413.0</ele><time>2026-04-11T09:55:01Z</time></trkpt><trkpt lat="43.37842156896776" lon="12.49470158839532"><ele>413.0</ele><time>2026-04-11T09:55:02Z</time></trkpt><trkpt lat="43.378487003986116" lon="12.494881187767271"><ele>413.0</ele><time>2026-04-11T09:55:03Z</time></trkpt><trkpt lat="43.378555628988266" lon="12.495066468919768"><ele>413.0</ele><time>2026-04-11T09:55:04Z</time></trkpt><trkpt lat="43.37862810094437" lon="12.49526032330711"><ele>413.0</ele><time>2026-04-11T09:55:05Z</time></trkpt><trkpt lat="43.37869953772335" lon="12.495451087411205"><ele>413.0</ele><time>2026-04-11T09:55:06Z</time></trkpt><trkpt lat="43.378768308481966" lon="12.495634605193228"><ele>413.0</ele><time>2026-04-11T09:55:07Z</time></trkpt><trkpt lat="43.3788345373068" lon="12.49580967271769"><ele>413.0</ele><time>2026-04-11T09:55:08Z</time></trkpt><trkpt lat="43.37890288131397" lon="12.495990331748262"><ele>413.0</ele><time>2026-04-11T09:55:09Z</time></trkpt><trkpt lat="43.37897471012556" lon="12.496180202332543"><ele>413.0</ele><time>2026-04-11T09:55:10Z</time></trkpt><trkpt lat="43.37904095192094" lon="12.496355301017559"><ele>414.0</ele><time>2026-04-11T09:55:11Z</time></trkpt><trkpt lat="43.37910350622775" lon="12.496526896734037"><ele>415.0</ele><time>2026-04-11T09:55:12Z</time></trkpt><trkpt lat="43.37916323268159" lon="12.49669243824051"><ele>416.0</ele><time>2026-04-11T09:55:13Z</time></trkpt><trkpt lat="43.37922093998038" lon="12.496853087681249"><ele>417.0</ele><time>2026-04-11T09:55:14Z</time></trkpt><trkpt lat="43.379277781021514" lon="12.497011326279925"><ele>417.0</ele><time>2026-04-11T09:55:15Z</time></trkpt><trkpt lat="43.37933072935768" lon="12.497159200478489"><ele>417.0</ele><time>2026-04-11T09:55:16Z</time></trkpt><trkpt lat="43.37937556305852" lon="12.497286762074193"><ele>417.0</ele><time>2026-04-11T09:55:17Z</time></trkpt><trkpt lat="43.37941481386548" lon="12.497402457934559"><ele>417.0</ele><time>2026-04-11T09:55:18Z</time></trkpt><trkpt lat="43.3794487945656" lon="12.497504860136829"><ele>417.0</ele><time>2026-04-11T09:55:19Z</time></trkpt><trkpt lat="43.37947649446827" lon="12.497593854137872"><ele>417.0</ele><time>2026-04-11T09:55:20Z</time></trkpt><trkpt lat="43.37951685405454" lon="12.497739261530839"><ele>417.0</ele><time>2026-04-11T09:55:22Z</time></trkpt><trkpt lat="43.379537247094945" lon="12.497848995773852"><ele>417.0</ele><time>2026-04-11T09:55:24Z</time></trkpt><trkpt lat="43.379548010222095" lon="12.497936708831253"><ele>417.0</ele><time>2026-04-11T09:55:26Z</time></trkpt><trkpt lat="43.37970239435811" lon="12.497882525723218"><ele>417.0</ele><time>2026-04-11T09:55:28Z</time></trkpt><trkpt lat="43.37978096653871" lon="12.497889364931039"><ele>417.6666666666667</ele><time>2026-04-11T09:55:30Z</time></trkpt><trkpt lat="43.379902067050914" lon="12.497956069954848"><ele>418.33333333333337</ele><time>2026-04-11T09:55:32Z</time></trkpt><trkpt lat="43.37996549888623" lon="12.497993929782615"><ele>419.0</ele><time>2026-04-11T09:55:33Z</time></trkpt><trkpt lat="43.38002169863021" lon="12.498045157480183"><ele>419.6666666666667</ele><time>2026-04-11T09:55:34Z</time></trkpt><trkpt lat="43.3800931504404" lon="12.498099046672117"><ele>420.33333333333337</ele><time>2026-04-11T09:55:35Z</time></trkpt><trkpt lat="43.38016908429583" lon="12.498157689875713"><ele>421.0</ele><time>2026-04-11T09:55:36Z</time></trkpt><trkpt lat="43.380253544307855" lon="12.498223951015312"><ele>421.0</ele><time>2026-04-11T09:55:37Z</time></trkpt><trkpt lat="43.38037296767781" lon="12.49823135283081"><ele>421.0</ele><time>2026-04-11T09:55:38Z</time></trkpt><trkpt lat="43.3804757307563" lon="12.49831243705911"><ele>421.0</ele><time>2026-04-11T09:55:39Z</time></trkpt><trkpt lat="43.38058495815053" lon="12.498395000121203"><ele>421.0</ele><time>2026-04-11T09:55:40Z</time></trkpt><trkpt lat="43.38068530393711" lon="12.498480941049689"><ele>421.75</ele><time>2026-04-11T09:55:41Z</time></trkpt><trkpt lat="43.38076509412882" lon="12.498624753000295"><ele>422.5</ele><time>2026-04-11T09:55:42Z</time></trkpt><trkpt lat="43.38087817813026" lon="12.4987133265017"><ele>423.25</ele><time>2026-04-11T09:55:43Z</time></trkpt><trkpt lat="43.38098239091414" lon="12.498794951474373"><ele>424.0</ele><time>2026-04-11T09:55:44Z</time></trkpt><trkpt lat="43.381081798419736" lon="12.49887281279282"><ele>424.0</ele><time>2026-04-11T09:55:45Z</time></trkpt><trkpt lat="43.3811810231695" lon="12.498954267621437"><ele>424.0</ele><time>2026-04-11T09:55:46Z</time></trkpt><trkpt lat="43.381279776359506" lon="12.499036741819513"><ele>424.0</ele><time>2026-04-11T09:55:47Z</time></trkpt><trkpt lat="43.381375696534484" lon="12.499123235136453"><ele>424.0</ele><time>2026-04-11T09:55:48Z</time></trkpt><trkpt lat="43.3814727773275" lon="12.499227790795375"><ele>424.25</ele><time>2026-04-11T09:55:49Z</time></trkpt><trkpt lat="43.381571458372825" lon="12.499342386663631"><ele>424.5</ele><time>2026-04-11T09:55:50Z</time></trkpt><trkpt lat="43.3816702964232" lon="12.499463887588762"><ele>424.75</ele><time>2026-04-11T09:55:51Z</time></trkpt><trkpt lat="43.38176539633105" lon="12.499582434058729"><ele>425.0</ele><time>2026-04-11T09:55:52Z</time></trkpt><trkpt lat="43.38186051734661" lon="12.499703584943418"><ele>425.75</ele><time>2026-04-11T09:55:53Z</time></trkpt><trkpt lat="43.3819568484996" lon="12.499826277106992"><ele>426.5</ele><time>2026-04-11T09:55:54Z</time></trkpt><trkpt lat="43.38205686615591" lon="12.49995243804952"><ele>427.25</ele><time>2026-04-11T09:55:55Z</time></trkpt><trkpt lat="43.38216069394052" lon="12.50007875523398"><ele>428.0</ele><time>2026-04-11T09:55:56Z</time></trkpt><trkpt lat="43.3822698876544" lon="12.500203211005154"><ele>428.0</ele><time>2026-04-11T09:55:57Z</time></trkpt><trkpt lat="43.382381208647026" lon="12.500322500203115"><ele>428.0</ele><time>2026-04-11T09:55:58Z</time></trkpt><trkpt lat="43.382496126594795" lon="12.500445311734888"><ele>428.0</ele><time>2026-04-11T09:55:59Z</time></trkpt><trkpt lat="43.382611561363795" lon="12.50056894738116"><ele>428.0</ele><time>2026-04-11T09:56:00Z</time></trkpt><trkpt lat="43.382729627785935" lon="12.500685219963447"><ele>428.25</ele><time>2026-04-11T09:56:01Z</time></trkpt><trkpt lat="43.38285926719003" lon="12.500801082663134"><ele>428.5</ele><time>2026-04-11T09:56:02Z</time></trkpt><trkpt lat="43.38298427904687" lon="12.500907390353001"><ele>428.75</ele><time>2026-04-11T09:56:03Z</time></trkpt><trkpt lat="43.38310194065198" lon="12.501005241319392"><ele>429.0</ele><time>2026-04-11T09:56:04Z</time></trkpt><trkpt lat="43.38321559454716" lon="12.50109730222429"><ele>429.25</ele><time>2026-04-11T09:56:05Z</time></trkpt><trkpt lat="43.383326529928674" lon="12.501184308691327"><ele>429.5</ele><time>2026-04-11T09:56:06Z</time></trkpt><trkpt lat="43.38343599243842" lon="12.501269177784303"><ele>429.75</ele><time>2026-04-11T09:56:07Z</time></trkpt><trkpt lat="43.383542699388855" lon="12.50135084620486"><ele>430.0</ele><time>2026-04-11T09:56:08Z</time></trkpt><trkpt lat="43.38365587525497" lon="12.501414174452966"><ele>430.5</ele><time>2026-04-11T09:56:09Z</time></trkpt><trkpt lat="43.38376718780985" lon="12.501509963274207"><ele>431.0</ele><time>2026-04-11T09:56:10Z</time></trkpt><trkpt lat="43.383867315384414" lon="12.501585761453095"><ele>431.5</ele><time>2026-04-11T09:56:11Z</time></trkpt><trkpt lat="43.38395940981341" lon="12.50166007046383"><ele>432.0</ele><time>2026-04-11T09:56:12Z</time></trkpt><trkpt lat="43.38406007847937" lon="12.501728585645179"><ele>432.8</ele><time>2026-04-11T09:56:13Z</time></trkpt><trkpt lat="43.38414858327596" lon="12.501816177131884"><ele>433.6</ele><time>2026-04-11T09:56:14Z</time></trkpt><trkpt lat="43.38424431504567" lon="12.501877135972975"><ele>434.40000000000003</ele><time>2026-04-11T09:56:15Z</time></trkpt><trkpt lat="43.384337431090955" lon="12.501910036237966"><ele>435.20000000000005</ele><time>2026-04-11T09:56:16Z</time></trkpt><trkpt lat="43.38440366803799" lon="12.501960894083957"><ele>436.0</ele><time>2026-04-11T09:56:17Z</time></trkpt><trkpt lat="43.38441271983833" lon="12.502088436314427"><ele>436.50000000000006</ele><time>2026-04-11T09:56:18Z</time></trkpt><trkpt lat="43.384419113419206" lon="12.502181603718801"><ele>437.0</ele><time>2026-04-11T09:56:19Z</time></trkpt><trkpt lat="43.38442908159023" lon="12.502289897194874"><ele>437.5</ele><time>2026-04-11T09:56:20Z</time></trkpt><trkpt lat="43.384435662576855" lon="12.502409580595032"><ele>438.0</ele><time>2026-04-11T09:56:21Z</time></trkpt><trkpt lat="43.38444210013251" lon="12.502526669576095"><ele>438.50000000000006</ele><time>2026-04-11T09:56:22Z</time></trkpt><trkpt lat="43.38444819849833" lon="12.502632744070693"><ele>439.0</ele><time>2026-04-11T09:56:23Z</time></trkpt><trkpt lat="43.384453875992676" lon="12.502732586470326"><ele>439.00000000000006</ele><time>2026-04-11T09:56:24Z</time></trkpt><trkpt lat="43.384457212959695" lon="12.502828720462851"><ele>439.0</ele><time>2026-04-11T09:56:25Z</time></trkpt><trkpt lat="43.384460662852234" lon="12.50292810763879"><ele>439.0</ele><time>2026-04-11T09:56:26Z</time></trkpt><trkpt lat="43.38446389249993" lon="12.50303345614059"><ele>439.0</ele><time>2026-04-11T09:56:27Z</time></trkpt><trkpt lat="43.38446782338346" lon="12.503146588461968"><ele>439.00000000000006</ele><time>2026-04-11T09:56:28Z</time></trkpt><trkpt lat="43.38447437746146" lon="12.50325735153369"><ele>439.0</ele><time>2026-04-11T09:56:29Z</time></trkpt><trkpt lat="43.38448308344397" lon="12.503355725224292"><ele>440.2</ele><time>2026-04-11T09:56:30Z</time></trkpt><trkpt lat="43.38449193944498" lon="12.503444788445808"><ele>441.4</ele><time>2026-04-11T09:56:31Z</time></trkpt><trkpt lat="43.384655461222636" lon="12.503620969063977"><ele>442.6</ele><time>2026-04-11T09:56:33Z</time></trkpt><trkpt lat="43.38472410458128" lon="12.503648813323847"><ele>443.8</ele><time>2026-04-11T09:56:34Z</time></trkpt><trkpt lat="43.3847877772906" lon="12.503674640606139"><ele>445.0</ele><time>2026-04-11T09:56:35Z</time></trkpt><trkpt lat="43.38485033647582" lon="12.503757013189572"><ele>447.50000000000006</ele><time>2026-04-11T09:56:37Z</time></trkpt><trkpt lat="43.3848459627269" lon="12.503888571435407"><ele>450.0</ele><time>2026-04-11T09:56:39Z</time></trkpt><trkpt lat="43.38483349152207" lon="12.503994880877007"><ele>452.5</ele><time>2026-04-11T09:56:40Z</time></trkpt><trkpt lat="43.38481820710489" lon="12.504108973211439"><ele>455.0</ele><time>2026-04-11T09:56:41Z</time></trkpt><trkpt lat="43.38480286112585" lon="12.504223223836448"><ele>457.50000000000006</ele><time>2026-04-11T09:56:42Z</time></trkpt><trkpt lat="43.384788179854496" lon="12.504330062743447"><ele>460.0</ele><time>2026-04-11T09:56:43Z</time></trkpt><trkpt lat="43.38477155749732" lon="12.504445730669532"><ele>460.00000000000006</ele><time>2026-04-11T09:56:44Z</time></trkpt><trkpt lat="43.38475565951833" lon="12.50455635756587"><ele>460.0</ele><time>2026-04-11T09:56:45Z</time></trkpt><trkpt lat="43.38473974751072" lon="12.504665054750634"><ele>460.0</ele><time>2026-04-11T09:56:46Z</time></trkpt><trkpt lat="43.38472684166362" lon="12.504767802740924"><ele>460.0</ele><time>2026-04-11T09:56:47Z</time></trkpt><trkpt lat="43.384713629937266" lon="12.504872986766806"><ele>460.00000000000006</ele><time>2026-04-11T09:56:48Z</time></trkpt><trkpt lat="43.384700606290956" lon="12.50497667331358"><ele>460.0</ele><time>2026-04-11T09:56:49Z</time></trkpt><trkpt lat="43.3846858737581" lon="12.505093964630479"><ele>459.6666666666667</ele><time>2026-04-11T09:56:50Z</time></trkpt><trkpt lat="43.38467008037982" lon="12.505219702118676"><ele>459.33333333333337</ele><time>2026-04-11T09:56:51Z</time></trkpt><trkpt lat="43.38465405169446" lon="12.50534762851133"><ele>459.0</ele><time>2026-04-11T09:56:52Z</time></trkpt><trkpt lat="43.384639503287104" lon="12.505469771716971"><ele>458.66666666666663</ele><time>2026-04-11T09:56:53Z</time></trkpt><trkpt lat="43.384626070656225" lon="12.505582547212674"><ele>458.3333333333333</ele><time>2026-04-11T09:56:54Z</time></trkpt><trkpt lat="43.38462814042619" lon="12.505691403219496"><ele>458.0</ele><time>2026-04-11T09:56:55Z</time></trkpt><trkpt lat="43.38459674576383" lon="12.505797992828215"><ele>460.49999999999994</ele><time>2026-04-11T09:56:56Z</time></trkpt><trkpt lat="43.384603742588624" lon="12.50592576296262"><ele>463.0</ele><time>2026-04-11T09:56:57Z</time></trkpt><trkpt lat="43.38461963562874" lon="12.506062703496056"><ele>465.5</ele><time>2026-04-11T09:56:58Z</time></trkpt><trkpt lat="43.38462925260724" lon="12.506173942171067"><ele>468.0</ele><time>2026-04-11T09:56:59Z</time></trkpt><trkpt lat="43.384635002093084" lon="12.506273879803746"><ele>470.49999999999994</ele><time>2026-04-11T09:57:00Z</time></trkpt><trkpt lat="43.38463489721963" lon="12.506412185564834"><ele>473.0</ele><time>2026-04-11T09:57:02Z</time></trkpt><trkpt lat="43.384633622268154" lon="12.506562269833388"><ele>477.0</ele><time>2026-04-11T09:57:04Z</time></trkpt><trkpt lat="43.38469849260889" lon="12.506717702202033"><ele>480.99999999999994</ele><time>2026-04-11T09:57:06Z</time></trkpt><trkpt lat="43.38478266632573" lon="12.506781229596857"><ele>484.99999999999994</ele><time>2026-04-11T09:57:07Z</time></trkpt><trkpt lat="43.38485529530437" lon="12.50682935307722"><ele>489.0</ele><time>2026-04-11T09:57:08Z</time></trkpt><trkpt lat="43.38498023116182" lon="12.506896012794314"><ele>493.0</ele><time>2026-04-11T09:57:10Z</time></trkpt><trkpt lat="43.385054616882314" lon="12.506923968735485"><ele>493.0</ele><time>2026-04-11T09:57:11Z</time></trkpt><trkpt lat="43.385152520002144" lon="12.5069444224435"><ele>493.0</ele><time>2026-04-11T09:57:12Z</time></trkpt><trkpt lat="43.38527400044262" lon="12.506948765052817"><ele>493.0</ele><time>2026-04-11T09:57:13Z</time></trkpt><trkpt lat="43.385389815557396" lon="12.506941252199388"><ele>493.0</ele><time>2026-04-11T09:57:14Z</time></trkpt><trkpt lat="43.38550599295836" lon="12.50692527081842"><ele>496.75</ele><time>2026-04-11T09:57:15Z</time></trkpt><trkpt lat="43.38563107668765" lon="12.506897031284327"><ele>500.5</ele><time>2026-04-11T09:57:16Z</time></trkpt><trkpt lat="43.385768274975746" lon="12.506850818243201"><ele>504.25</ele><time>2026-04-11T09:57:17Z</time></trkpt><trkpt lat="43.385917630461414" lon="12.506786099741852"><ele>508.0</ele><time>2026-04-11T09:57:18Z</time></trkpt><trkpt lat="43.38607602003006" lon="12.506705984729503"><ele>508.0</ele><time>2026-04-11T09:57:19Z</time></trkpt><trkpt lat="43.38620199654721" lon="12.506639767464964"><ele>507.99999999999994</ele><time>2026-04-11T09:57:20Z</time></trkpt><trkpt lat="43.386303202653906" lon="12.506586616711378"><ele>507.99999999999994</ele><time>2026-04-11T09:57:21Z</time></trkpt><trkpt lat="43.38640231848158" lon="12.506538348119195"><ele>508.0</ele><time>2026-04-11T09:57:22Z</time></trkpt><trkpt lat="43.38649238425924" lon="12.506494487024105"><ele>508.0</ele><time>2026-04-11T09:57:23Z</time></trkpt><trkpt lat="43.38657975938603" lon="12.506450649059056"><ele>507.7142857142857</ele><time>2026-04-11T09:57:24Z</time></trkpt><trkpt lat="43.386641751905216" lon="12.506391032881515"><ele>507.42857142857144</ele><time>2026-04-11T09:57:25Z</time></trkpt><trkpt lat="43.386704602694365" lon="12.506355412123487"><ele>507.14285714285717</ele><time>2026-04-11T09:57:26Z</time></trkpt><trkpt lat="43.38677160034658" lon="12.50632886693753"><ele>506.8571428571429</ele><time>2026-04-11T09:57:27Z</time></trkpt><trkpt lat="43.38682333954106" lon="12.506268044201338"><ele>506.57142857142856</ele><time>2026-04-11T09:57:30Z</time></trkpt><trkpt lat="43.38686338900759" lon="12.506183722031105"><ele>506.28571428571433</ele><time>2026-04-11T09:58:12Z</time></trkpt><trkpt lat="43.38692963558115" lon="12.506135342153078"><ele>506.00000000000006</ele><time>2026-04-11T09:58:14Z</time></trkpt><trkpt lat="43.38701594448393" lon="12.506141692561766"><ele>505.99999999999994</ele><time>2026-04-11T09:58:16Z</time></trkpt><trkpt lat="43.38710047123741" lon="12.50619746971271"><ele>506.0</ele><time>2026-04-11T09:58:18Z</time></trkpt><trkpt lat="43.38720477440213" lon="12.506296231774753"><ele>506.0</ele><time>2026-04-11T09:58:20Z</time></trkpt><trkpt lat="43.38726518748916" lon="12.506347547634455"><ele>506.0</ele><time>2026-04-11T09:58:21Z</time></trkpt><trkpt lat="43.38732353551365" lon="12.506397109298097"><ele>505.99999999999994</ele><time>2026-04-11T09:58:22Z</time></trkpt><trkpt lat="43.38738455841105" lon="12.50644735518401"><ele>506.0</ele><time>2026-04-11T09:58:23Z</time></trkpt><trkpt lat="43.38745550682959" lon="12.506500772256718"><ele>510.49999999999994</ele><time>2026-04-11T09:58:24Z</time></trkpt><trkpt lat="43.38752462616882" lon="12.506545216448737"><ele>515.0</ele><time>2026-04-11T09:58:25Z</time></trkpt><trkpt lat="43.38759716730668" lon="12.506587138833215"><ele>519.5</ele><time>2026-04-11T09:58:26Z</time></trkpt><trkpt lat="43.38768170106667" lon="12.506630143068888"><ele>524.0</ele><time>2026-04-11T09:58:27Z</time></trkpt><trkpt lat="43.3877635116265" lon="12.506669402970372"><ele>528.5</ele><time>2026-04-11T09:58:28Z</time></trkpt><trkpt lat="43.387851284941156" lon="12.506706804239844"><ele>533.0</ele><time>2026-04-11T09:58:29Z</time></trkpt><trkpt lat="43.3879468699099" lon="12.506722001514216"><ele>528.1999999999999</ele><time>2026-04-11T09:58:30Z</time></trkpt><trkpt lat="43.38804407420894" lon="12.506755440184847"><ele>523.4</ele><time>2026-04-11T09:58:31Z</time></trkpt><trkpt lat="43.38815079317951" lon="12.506795265146335"><ele>518.5999999999999</ele><time>2026-04-11T09:58:32Z</time></trkpt><trkpt lat="43.3882564523554" lon="12.506814662209711"><ele>513.8</ele><time>2026-04-11T09:58:33Z</time></trkpt><trkpt lat="43.38837235262804" lon="12.506842062241846"><ele>509.0</ele><time>2026-04-11T09:58:34Z</time></trkpt><trkpt lat="43.38848740262845" lon="12.506859259875656"><ele>509.0</ele><time>2026-04-11T09:58:35Z</time></trkpt><trkpt lat="43.38860625613455" lon="12.506896283948244"><ele>509.0</ele><time>2026-04-11T09:58:36Z</time></trkpt><trkpt lat="43.38871387161763" lon="12.506954496879105"><ele>509.0</ele><time>2026-04-11T09:58:37Z</time></trkpt><trkpt lat="43.38882841892471" lon="12.507027549644281"><ele>509.0</ele><time>2026-04-11T09:58:38Z</time></trkpt><trkpt lat="43.388951548259634" lon="12.507105456260714"><ele>515.5</ele><time>2026-04-11T09:58:39Z</time></trkpt><trkpt lat="43.38906551345494" lon="12.507176562504213"><ele>522.0</ele><time>2026-04-11T09:58:40Z</time></trkpt><trkpt lat="43.389180335989785" lon="12.507223029954636"><ele>528.5</ele><time>2026-04-11T09:58:41Z</time></trkpt><trkpt lat="43.3892859058249" lon="12.507235171935084"><ele>535.0</ele><time>2026-04-11T09:58:42Z</time></trkpt><trkpt lat="43.389396670923134" lon="12.507260229765162"><ele>535.0</ele><time>2026-04-11T09:58:43Z</time></trkpt><trkpt lat="43.38951526506388" lon="12.50724664209769"><ele>535.0</ele><time>2026-04-11T09:58:44Z</time></trkpt><trkpt lat="43.38963189069012" lon="12.507278276827712"><ele>535.0</ele><time>2026-04-11T09:58:45Z</time></trkpt><trkpt lat="43.38975994672733" lon="12.507343922086166"><ele>535.0</ele><time>2026-04-11T09:58:46Z</time></trkpt><trkpt lat="43.38988107997598" lon="12.5073798377601"><ele>533.75</ele><time>2026-04-11T09:58:47Z</time></trkpt><trkpt lat="43.39001662846574" lon="12.507353584228758"><ele>532.5</ele><time>2026-04-11T09:58:48Z</time></trkpt><trkpt lat="43.39012048882909" lon="12.507348411383909"><ele>531.25</ele><time>2026-04-11T09:58:49Z</time></trkpt><trkpt lat="43.390218554894304" lon="12.507334671074087"><ele>530.0</ele><time>2026-04-11T09:58:50Z</time></trkpt><trkpt lat="43.390346534174725" lon="12.507338742983903"><ele>530.0</ele><time>2026-04-11T09:58:51Z</time></trkpt><trkpt lat="43.390469279244975" lon="12.507318626330672"><ele>530.0</ele><time>2026-04-11T09:58:52Z</time></trkpt><trkpt lat="43.39058788516077" lon="12.507284235871289"><ele>530.0</ele><time>2026-04-11T09:58:53Z</time></trkpt><trkpt lat="43.390706034538375" lon="12.507227640849651"><ele>530.0</ele><time>2026-04-11T09:58:54Z</time></trkpt><trkpt lat="43.39085289715602" lon="12.507182638494928"><ele>532.25</ele><time>2026-04-11T09:58:55Z</time></trkpt><trkpt lat="43.39098232707599" lon="12.507099162294114"><ele>534.5</ele><time>2026-04-11T09:58:56Z</time></trkpt><trkpt lat="43.391111198591574" lon="12.507023558425171"><ele>536.75</ele><time>2026-04-11T09:58:57Z</time></trkpt><trkpt lat="43.3912331857404" lon="12.506975107678233"><ele>539.0</ele><time>2026-04-11T09:58:58Z</time></trkpt><trkpt lat="43.3913502853127" lon="12.50693035091221"><ele>533.0</ele><time>2026-04-11T09:58:59Z</time></trkpt><trkpt lat="43.39146953188934" lon="12.506884664109187"><ele>527.0</ele><time>2026-04-11T09:59:00Z</time></trkpt><trkpt lat="43.39159415975929" lon="12.506862264298992"><ele>521.0</ele><time>2026-04-11T09:59:01Z</time></trkpt><trkpt lat="43.391723865622694" lon="12.506884982346106"><ele>515.0</ele><time>2026-04-11T09:59:02Z</time></trkpt><trkpt lat="43.39185527908063" lon="12.506878625821246"><ele>515.0</ele><time>2026-04-11T09:59:03Z</time></trkpt><trkpt lat="43.39198927344281" lon="12.506911079498389"><ele>515.0</ele><time>2026-04-11T09:59:04Z</time></trkpt><trkpt lat="43.39210616443062" lon="12.506936361950995"><ele>515.0</ele><time>2026-04-11T09:59:05Z</time></trkpt><trkpt lat="43.39220894913851" lon="12.506977289002284"><ele>515.0</ele><time>2026-04-11T09:59:06Z</time></trkpt><trkpt lat="43.392316515764605" lon="12.506978183889485"><ele>516.2</ele><time>2026-04-11T09:59:07Z</time></trkpt><trkpt lat="43.39241700419574" lon="12.506979257233603"><ele>517.4</ele><time>2026-04-11T09:59:08Z</time></trkpt><trkpt lat="43.39252783910933" lon="12.506958490440406"><ele>518.6</ele><time>2026-04-11T09:59:09Z</time></trkpt><trkpt lat="43.3926265190552" lon="12.506933876511571"><ele>519.8</ele><time>2026-04-11T09:59:10Z</time></trkpt><trkpt lat="43.392723782504305" lon="12.50690530140616"><ele>521.0</ele><time>2026-04-11T09:59:11Z</time></trkpt><trkpt lat="43.392814927549445" lon="12.506882104961875"><ele>521.0</ele><time>2026-04-11T09:59:12Z</time></trkpt><trkpt lat="43.39289164536983" lon="12.506835851710862"><ele>521.0</ele><time>2026-04-11T09:59:13Z</time></trkpt><trkpt lat="43.39297150561057" lon="12.506789827324248"><ele>521.0</ele><time>2026-04-11T09:59:14Z</time></trkpt><trkpt lat="43.39306736830743" lon="12.506750611314589"><ele>521.0</ele><time>2026-04-11T09:59:15Z</time></trkpt><trkpt lat="43.39316957522567" lon="12.506713416278622"><ele>521.0</ele><time>2026-04-11T09:59:16Z</time></trkpt><trkpt lat="43.3932809791038" lon="12.506690303875528"><ele>522.0</ele><time>2026-04-11T09:59:17Z</time></trkpt><trkpt lat="43.39340059843879" lon="12.506704586189013"><ele>523.0</ele><time>2026-04-11T09:59:18Z</time></trkpt><trkpt lat="43.393531143937494" lon="12.506765899758589"><ele>524.0</ele><time>2026-04-11T09:59:19Z</time></trkpt><trkpt lat="43.393685073264336" lon="12.50679176953804"><ele>525.0</ele><time>2026-04-11T09:59:20Z</time></trkpt><trkpt lat="43.39383599697064" lon="12.50678955300808"><ele>524.0</ele><time>2026-04-11T09:59:21Z</time></trkpt><trkpt lat="43.393963303751796" lon="12.506805953960018"><ele>523.0</ele><time>2026-04-11T09:59:22Z</time></trkpt><trkpt lat="43.39407555247607" lon="12.506826957946659"><ele>522.0</ele><time>2026-04-11T09:59:23Z</time></trkpt><trkpt lat="43.3941889779851" lon="12.506862599346775"><ele>521.0</ele><time>2026-04-11T09:59:24Z</time></trkpt><trkpt lat="43.394292931738114" lon="12.506907493119986"><ele>521.0</ele><time>2026-04-11T09:59:25Z</time></trkpt><trkpt lat="43.394387919882114" lon="12.50700498464505"><ele>521.0</ele><time>2026-04-11T09:59:26Z</time></trkpt><trkpt lat="43.394495681007115" lon="12.507112930950356"><ele>521.0</ele><time>2026-04-11T09:59:27Z</time></trkpt><trkpt lat="43.39460738461628" lon="12.507245062040047"><ele>521.0</ele><time>2026-04-11T09:59:28Z</time></trkpt><trkpt lat="43.39472560827043" lon="12.50736298940574"><ele>522.75</ele><time>2026-04-11T09:59:29Z</time></trkpt><trkpt lat="43.394833156432156" lon="12.507461241906014"><ele>524.5</ele><time>2026-04-11T09:59:30Z</time></trkpt><trkpt lat="43.394927310658325" lon="12.507572990804194"><ele>526.25</ele><time>2026-04-11T09:59:31Z</time></trkpt><trkpt lat="43.39500540718832" lon="12.507704438649103"><ele>528.0</ele><time>2026-04-11T09:59:32Z</time></trkpt><trkpt lat="43.39509670015144" lon="12.507826194317072"><ele>530.0</ele><time>2026-04-11T09:59:33Z</time></trkpt><trkpt lat="43.39518525059651" lon="12.507939544196235"><ele>532.0</ele><time>2026-04-11T09:59:34Z</time></trkpt><trkpt lat="43.39529471173643" lon="12.508048597455213"><ele>534.0</ele><time>2026-04-11T09:59:35Z</time></trkpt><trkpt lat="43.39543311022491" lon="12.508133268963004"><ele>536.0</ele><time>2026-04-11T09:59:36Z</time></trkpt><trkpt lat="43.3955831601859" lon="12.508235005355571"><ele>536.0</ele><time>2026-04-11T09:59:37Z</time></trkpt><trkpt lat="43.3957401480987" lon="12.508342701435218"><ele>536.0</ele><time>2026-04-11T09:59:38Z</time></trkpt><trkpt lat="43.39589367062731" lon="12.508442780531901"><ele>536.0</ele><time>2026-04-11T09:59:39Z</time></trkpt><trkpt lat="43.39605838007993" lon="12.508535822612536"><ele>536.0</ele><time>2026-04-11T09:59:40Z</time></trkpt><trkpt lat="43.396227761678254" lon="12.508602639004668"><ele>536.0</ele><time>2026-04-11T09:59:41Z</time></trkpt><trkpt lat="43.39637364134687" lon="12.508677573071266"><ele>536.0</ele><time>2026-04-11T09:59:42Z</time></trkpt><trkpt lat="43.39651276373449" lon="12.508723986342499"><ele>545.0</ele><time>2026-04-11T09:59:43Z</time></trkpt><trkpt lat="43.39664787040274" lon="12.508758023528264"><ele>554.0</ele><time>2026-04-11T09:59:44Z</time></trkpt><trkpt lat="43.396786016334886" lon="12.50877813298371"><ele>563.0</ele><time>2026-04-11T09:59:45Z</time></trkpt><trkpt lat="43.396935025136315" lon="12.5087840258937"><ele>572.0</ele><time>2026-04-11T09:59:46Z</time></trkpt><trkpt lat="43.39709220650679" lon="12.508787575990437"><ele>573.5</ele><time>2026-04-11T09:59:47Z</time></trkpt><trkpt lat="43.39724575583609" lon="12.508791211083464"><ele>575.0</ele><time>2026-04-11T09:59:48Z</time></trkpt><trkpt lat="43.39738528644873" lon="12.508799316102879"><ele>576.5</ele><time>2026-04-11T09:59:49Z</time></trkpt><trkpt lat="43.39749707421501" lon="12.508824532900647"><ele>578.0</ele><time>2026-04-11T09:59:50Z</time></trkpt><trkpt lat="43.39762759668968" lon="12.508856106850594"><ele>578.0</ele><time>2026-04-11T09:59:51Z</time></trkpt><trkpt lat="43.39776135328972" lon="12.508866476556221"><ele>578.0</ele><time>2026-04-11T09:59:52Z</time></trkpt><trkpt lat="43.397903745563326" lon="12.508861499721617"><ele>578.0</ele><time>2026-04-11T09:59:53Z</time></trkpt><trkpt lat="43.398051158651676" lon="12.508832122666313"><ele>578.0</ele><time>2026-04-11T09:59:54Z</time></trkpt><trkpt lat="43.39818939359061" lon="12.508843875078389"><ele>577.8</ele><time>2026-04-11T09:59:55Z</time></trkpt><trkpt lat="43.39831080993422" lon="12.508884241688795"><ele>577.5999999999999</ele><time>2026-04-11T09:59:56Z</time></trkpt><trkpt lat="43.39843025266842" lon="12.508912887842113"><ele>577.4000000000001</ele><time>2026-04-11T09:59:57Z</time></trkpt><trkpt lat="43.398529940729574" lon="12.508931021412147"><ele>577.2</ele><time>2026-04-11T09:59:58Z</time></trkpt><trkpt lat="43.398632557284564" lon="12.50893719199778"><ele>577.0</ele><time>2026-04-11T09:59:59Z</time></trkpt><trkpt lat="43.398719741876455" lon="12.508922256221606"><ele>577.0</ele><time>2026-04-11T10:00:00Z</time></trkpt><trkpt lat="43.3988172557221" lon="12.508910668196888"><ele>577.0</ele><time>2026-04-11T10:00:01Z</time></trkpt><trkpt lat="43.39891953520636" lon="12.50889910828374"><ele>577.0</ele><time>2026-04-11T10:00:02Z</time></trkpt><trkpt lat="43.399012997374875" lon="12.508878461110855"><ele>577.0</ele><time>2026-04-11T10:00:03Z</time></trkpt><trkpt lat="43.39909113315888" lon="12.508827161660768"><ele>577.0</ele><time>2026-04-11T10:00:04Z</time></trkpt><trkpt lat="43.3991516347495" lon="12.508801923577378"><ele>577.0</ele><time>2026-04-11T10:00:05Z</time></trkpt><trkpt lat="43.399218431556264" lon="12.508780106241218"><ele>576.2</ele><time>2026-04-11T10:00:06Z</time></trkpt><trkpt lat="43.39928383007315" lon="12.508755188831032"><ele>575.4000000000001</ele><time>2026-04-11T10:00:07Z</time></trkpt><trkpt lat="43.3993653517683" lon="12.508742646167828"><ele>574.5999999999999</ele><time>2026-04-11T10:00:08Z</time></trkpt><trkpt lat="43.39947014842493" lon="12.508767569922888"><ele>573.8</ele><time>2026-04-11T10:00:09Z</time></trkpt><trkpt lat="43.39958889249478" lon="12.508762983069555"><ele>573.0</ele><time>2026-04-11T10:00:10Z</time></trkpt><trkpt lat="43.39970806199504" lon="12.508750093261334"><ele>566.0</ele><time>2026-04-11T10:00:11Z</time></trkpt><trkpt lat="43.399812250646384" lon="12.508731002850507"><ele>559.0</ele><time>2026-04-11T10:00:12Z</time></trkpt><trkpt lat="43.3999231813017" lon="12.50868019834008"><ele>552.0</ele><time>2026-04-11T10:00:13Z</time></trkpt><trkpt lat="43.40003024341834" lon="12.508677567099864"><ele>545.0</ele><time>2026-04-11T10:00:14Z</time></trkpt><trkpt lat="43.40012253643414" lon="12.508638303810887"><ele>538.0</ele><time>2026-04-11T10:00:15Z</time></trkpt><trkpt lat="43.400218856831124" lon="12.508588425573999"><ele>538.0</ele><time>2026-04-11T10:00:16Z</time></trkpt><trkpt lat="43.40029844267174" lon="12.50854204128197"><ele>538.0</ele><time>2026-04-11T10:00:17Z</time></trkpt><trkpt lat="43.40036846860818" lon="12.508482435011347"><ele>538.0</ele><time>2026-04-11T10:00:18Z</time></trkpt><trkpt lat="43.40048691669134" lon="12.508476361900494"><ele>538.0</ele><time>2026-04-11T10:00:20Z</time></trkpt><trkpt lat="43.40055778760253" lon="12.508614505320706"><ele>538.0</ele><time>2026-04-11T10:00:22Z</time></trkpt><trkpt lat="43.40060482266913" lon="12.508707268534794"><ele>539.8</ele><time>2026-04-11T10:00:23Z</time></trkpt><trkpt lat="43.400658292094235" lon="12.508822165090539"><ele>541.5999999999999</ele><time>2026-04-11T10:00:24Z</time></trkpt><trkpt lat="43.400713672280446" lon="12.508953350647957"><ele>543.4000000000001</ele><time>2026-04-11T10:00:25Z</time></trkpt><trkpt lat="43.40077082060597" lon="12.50908767277249"><ele>545.2</ele><time>2026-04-11T10:00:26Z</time></trkpt><trkpt lat="43.40082717672398" lon="12.5092194362727"><ele>547.0</ele><time>2026-04-11T10:00:27Z</time></trkpt><trkpt lat="43.40088507798627" lon="12.509353043588277"><ele>547.0</ele><time>2026-04-11T10:00:28Z</time></trkpt><trkpt lat="43.400947475220995" lon="12.509490261825254"><ele>547.0</ele><time>2026-04-11T10:00:29Z</time></trkpt><trkpt lat="43.40101443854866" lon="12.509628919108"><ele>547.0</ele><time>2026-04-11T10:00:30Z</time></trkpt><trkpt lat="43.401082853072715" lon="12.509770038943866"><ele>547.0</ele><time>2026-04-11T10:00:31Z</time></trkpt><trkpt lat="43.401156682785135" lon="12.50989386490856"><ele>549.25</ele><time>2026-04-11T10:00:32Z</time></trkpt><trkpt lat="43.401216342759426" lon="12.510045417928218"><ele>551.5</ele><time>2026-04-11T10:00:33Z</time></trkpt><trkpt lat="43.40130857831467" lon="12.510173310474386"><ele>553.75</ele><time>2026-04-11T10:00:34Z</time></trkpt><trkpt lat="43.40137272163696" lon="12.510311528305275"><ele>556.0</ele><time>2026-04-11T10:00:35Z</time></trkpt><trkpt lat="43.40142929894103" lon="12.510450335017273"><ele>548.0</ele><time>2026-04-11T10:00:36Z</time></trkpt><trkpt lat="43.401490198121444" lon="12.510588708986242"><ele>540.0</ele><time>2026-04-11T10:00:37Z</time></trkpt><trkpt lat="43.40152988410787" lon="12.510729623383925"><ele>532.0</ele><time>2026-04-11T10:00:38Z</time></trkpt><trkpt lat="43.401555814818366" lon="12.51089168406942"><ele>524.0</ele><time>2026-04-11T10:00:39Z</time></trkpt><trkpt lat="43.40158271248115" lon="12.511075518666768"><ele>525.0</ele><time>2026-04-11T10:00:40Z</time></trkpt><trkpt lat="43.40162258872639" lon="12.511251167327538"><ele>526.0</ele><time>2026-04-11T10:00:41Z</time></trkpt><trkpt lat="43.40166454434475" lon="12.511405665198303"><ele>527.0</ele><time>2026-04-11T10:00:42Z</time></trkpt><trkpt lat="43.40170671788613" lon="12.51154542376632"><ele>528.0</ele><time>2026-04-11T10:00:43Z</time></trkpt><trkpt lat="43.401767414803466" lon="12.511670804131596"><ele>528.0</ele><time>2026-04-11T10:00:44Z</time></trkpt><trkpt lat="43.401834752218335" lon="12.511757347740982"><ele>528.0</ele><time>2026-04-11T10:00:45Z</time></trkpt><trkpt lat="43.40189525621222" lon="12.51184006739229"><ele>528.0</ele><time>2026-04-11T10:00:46Z</time></trkpt><trkpt lat="43.40194913313302" lon="12.51192842903195"><ele>528.0</ele><time>2026-04-11T10:00:47Z</time></trkpt><trkpt lat="43.40200298502561" lon="12.512027363740316"><ele>528.0</ele><time>2026-04-11T10:00:48Z</time></trkpt><trkpt lat="43.402059223728976" lon="12.512121373575495"><ele>528.0</ele><time>2026-04-11T10:00:49Z</time></trkpt><trkpt lat="43.40210169550976" lon="12.512219157859347"><ele>529.1666666666666</ele><time>2026-04-11T10:00:50Z</time></trkpt><trkpt lat="43.402144944910766" lon="12.512317903228722"><ele>530.3333333333334</ele><time>2026-04-11T10:00:51Z</time></trkpt><trkpt lat="43.4021812245276" lon="12.512430991805642"><ele>531.5</ele><time>2026-04-11T10:00:52Z</time></trkpt><trkpt lat="43.40221032903651" lon="12.51254074350509"><ele>532.6666666666667</ele><time>2026-04-11T10:00:53Z</time></trkpt><trkpt lat="43.402220604401066" lon="12.512675779009442"><ele>533.8333333333334</ele><time>2026-04-11T10:00:54Z</time></trkpt><trkpt lat="43.40222868191473" lon="12.512792717326437"><ele>535.0</ele><time>2026-04-11T10:00:55Z</time></trkpt><trkpt lat="43.40223802242253" lon="12.512878845324416"><ele>530.8</ele><time>2026-04-11T10:00:56Z</time></trkpt><trkpt lat="43.40229606655958" lon="12.513003586029074"><ele>526.6</ele><time>2026-04-11T10:00:58Z</time></trkpt><trkpt lat="43.402430156001664" lon="12.513038657054294"><ele>522.4</ele><time>2026-04-11T10:01:00Z</time></trkpt><trkpt lat="43.40249990907623" lon="12.512993335782735"><ele>518.2</ele><time>2026-04-11T10:01:01Z</time></trkpt><trkpt lat="43.40255740417841" lon="12.512947880593353"><ele>514.0</ele><time>2026-04-11T10:01:02Z</time></trkpt><trkpt lat="43.40262717462773" lon="12.512836678270812"><ele>513.6</ele><time>2026-04-11T10:01:04Z</time></trkpt><trkpt lat="43.402677656380014" lon="12.512696680673649"><ele>513.2</ele><time>2026-04-11T10:01:06Z</time></trkpt><trkpt lat="43.402709731272175" lon="12.512575910193972"><ele>512.8000000000001</ele><time>2026-04-11T10:01:07Z</time></trkpt><trkpt lat="43.402744456761944" lon="12.512441003943147"><ele>512.4</ele><time>2026-04-11T10:01:08Z</time></trkpt><trkpt lat="43.40279170866084" lon="12.512278135327296"><ele>512.0</ele><time>2026-04-11T10:01:09Z</time></trkpt><trkpt lat="43.40285211800692" lon="12.512081679294694"><ele>511.75</ele><time>2026-04-11T10:01:10Z</time></trkpt><trkpt lat="43.40290967304803" lon="12.51188835610938"><ele>511.5</ele><time>2026-04-11T10:01:11Z</time></trkpt><trkpt lat="43.40295038271739" lon="12.511737554220929"><ele>511.25</ele><time>2026-04-11T10:01:12Z</time></trkpt><trkpt lat="43.402987449567156" lon="12.511608470676933"><ele>511.0</ele><time>2026-04-11T10:01:13Z</time></trkpt><trkpt lat="43.403021959433936" lon="12.511494502996198"><ele>511.83333333333337</ele><time>2026-04-11T10:01:14Z</time></trkpt><trkpt lat="43.4030435067146" lon="12.511384798236064"><ele>512.6666666666667</ele><time>2026-04-11T10:01:15Z</time></trkpt><trkpt lat="43.4030451153965" lon="12.511292441276883"><ele>513.5</ele><time>2026-04-11T10:01:16Z</time></trkpt><trkpt lat="43.40297006745399" lon="12.511168250557413"><ele>514.3333333333334</ele><time>2026-04-11T10:01:18Z</time></trkpt><trkpt lat="43.402911414085956" lon="12.511097976829957"><ele>515.1666666666666</ele><time>2026-04-11T10:01:19Z</time></trkpt><trkpt lat="43.40285670192863" lon="12.511045271941322"><ele>516.0</ele><time>2026-04-11T10:01:20Z</time></trkpt><trkpt lat="43.40277917260007" lon="12.511017558913126"><ele>516.0</ele><time>2026-04-11T10:01:21Z</time></trkpt><trkpt lat="43.40270900365229" lon="12.510988303160705"><ele>516.0</ele><time>2026-04-11T10:01:22Z</time></trkpt><trkpt lat="43.402639262718196" lon="12.510874000282485"><ele>516.0</ele><time>2026-04-11T10:01:24Z</time></trkpt><trkpt lat="43.40267144191101" lon="12.510696904716283"><ele>516.0</ele><time>2026-04-11T10:01:26Z</time></trkpt><trkpt lat="43.40271008507255" lon="12.510620141855975"><ele>516.0</ele><time>2026-04-11T10:01:27Z</time></trkpt><trkpt lat="43.402826674883684" lon="12.510574586520555"><ele>516.0</ele><time>2026-04-11T10:01:29Z</time></trkpt><trkpt lat="43.40289939615744" lon="12.510592669905725"><ele>516.0</ele><time>2026-04-11T10:01:30Z</time></trkpt><trkpt lat="43.40299830750413" lon="12.510645797972535"><ele>516.0</ele><time>2026-04-11T10:01:31Z</time></trkpt><trkpt lat="43.403124821161136" lon="12.51071515738108"><ele>516.0</ele><time>2026-04-11T10:01:32Z</time></trkpt><trkpt lat="43.40325564903477" lon="12.510809805546197"><ele>518.25</ele><time>2026-04-11T10:01:33Z</time></trkpt><trkpt lat="43.40337198219819" lon="12.510919369836497"><ele>520.5</ele><time>2026-04-11T10:01:34Z</time></trkpt><trkpt lat="43.40346436845842" lon="12.511032884156636"><ele>522.75</ele><time>2026-04-11T10:01:35Z</time></trkpt><trkpt lat="43.403520507029874" lon="12.511150028151782"><ele>525.0</ele><time>2026-04-11T10:01:36Z</time></trkpt><trkpt lat="43.40355940932535" lon="12.511298352642395"><ele>525.0</ele><time>2026-04-11T10:01:37Z</time></trkpt><trkpt lat="43.403601186780875" lon="12.511483583564646"><ele>525.0</ele><time>2026-04-11T10:01:38Z</time></trkpt><trkpt lat="43.403634243985884" lon="12.511647054283824"><ele>525.0</ele><time>2026-04-11T10:01:39Z</time></trkpt><trkpt lat="43.40367651425096" lon="12.511779995265396"><ele>525.0</ele><time>2026-04-11T10:01:40Z</time></trkpt><trkpt lat="43.40373369285405" lon="12.511890727776454"><ele>525.0</ele><time>2026-04-11T10:01:41Z</time></trkpt><trkpt lat="43.403798331554505" lon="12.511985700022894"><ele>525.0</ele><time>2026-04-11T10:01:42Z</time></trkpt><trkpt lat="43.40387959196516" lon="12.51208484580358"><ele>525.0</ele><time>2026-04-11T10:01:43Z</time></trkpt><trkpt lat="43.40396941631924" lon="12.512183264806273"><ele>525.0</ele><time>2026-04-11T10:01:44Z</time></trkpt><trkpt lat="43.40406185856701" lon="12.51227634008057"><ele>525.0</ele><time>2026-04-11T10:01:45Z</time></trkpt><trkpt lat="43.40415131024964" lon="12.512333264953954"><ele>527.4</ele><time>2026-04-11T10:01:46Z</time></trkpt><trkpt lat="43.40423410478695" lon="12.51238020240554"><ele>529.8</ele><time>2026-04-11T10:01:47Z</time></trkpt><trkpt lat="43.40431240842981" lon="12.512430875922048"><ele>532.2</ele><time>2026-04-11T10:01:48Z</time></trkpt><trkpt lat="43.40439100169377" lon="12.512485807898681"><ele>534.6</ele><time>2026-04-11T10:01:49Z</time></trkpt><trkpt lat="43.404466023238584" lon="12.512579786723693"><ele>537.0</ele><time>2026-04-11T10:01:50Z</time></trkpt><trkpt lat="43.40452064387387" lon="12.51267921868388"><ele>537.0</ele><time>2026-04-11T10:01:51Z</time></trkpt><trkpt lat="43.404560117684944" lon="12.51279293201893"><ele>537.0</ele><time>2026-04-11T10:01:52Z</time></trkpt><trkpt lat="43.404595466233246" lon="12.512916734768504"><ele>537.0</ele><time>2026-04-11T10:01:53Z</time></trkpt><trkpt lat="43.40461078332921" lon="12.513047834031688"><ele>537.0</ele><time>2026-04-11T10:01:54Z</time></trkpt><trkpt lat="43.40462661547404" lon="12.513196398425563"><ele>537.0</ele><time>2026-04-11T10:01:55Z</time></trkpt><trkpt lat="43.4046357178529" lon="12.513369949717429"><ele>537.5</ele><time>2026-04-11T10:01:56Z</time></trkpt><trkpt lat="43.40463254717228" lon="12.513548527822579"><ele>538.0</ele><time>2026-04-11T10:01:57Z</time></trkpt><trkpt lat="43.404628290025194" lon="12.513724778629674"><ele>538.5</ele><time>2026-04-11T10:01:58Z</time></trkpt><trkpt lat="43.40462923156539" lon="12.513889762630413"><ele>539.0</ele><time>2026-04-11T10:01:59Z</time></trkpt><trkpt lat="43.40462515725521" lon="12.514050287584821"><ele>541.25</ele><time>2026-04-11T10:02:00Z</time></trkpt><trkpt lat="43.40462215793372" lon="12.514201339851304"><ele>543.5</ele><time>2026-04-11T10:02:01Z</time></trkpt><trkpt lat="43.404619584739436" lon="12.514359372560818"><ele>545.75</ele><time>2026-04-11T10:02:02Z</time></trkpt><trkpt lat="43.40461803993625" lon="12.514523879102185"><ele>548.0</ele><time>2026-04-11T10:02:03Z</time></trkpt><trkpt lat="43.4046156591028" lon="12.514696946872068"><ele>549.25</ele><time>2026-04-11T10:02:04Z</time></trkpt><trkpt lat="43.40460933120953" lon="12.514859515676713"><ele>550.5</ele><time>2026-04-11T10:02:05Z</time></trkpt><trkpt lat="43.40458359130336" lon="12.515016262105155"><ele>551.75</ele><time>2026-04-11T10:02:06Z</time></trkpt><trkpt lat="43.40453113562331" lon="12.51516384301189"><ele>553.0</ele><time>2026-04-11T10:02:07Z</time></trkpt><trkpt lat="43.40446148556054" lon="12.515308487204589"><ele>554.6</ele><time>2026-04-11T10:02:08Z</time></trkpt><trkpt lat="43.40440059604794" lon="12.515454660694969"><ele>556.1999999999999</ele><time>2026-04-11T10:02:09Z</time></trkpt><trkpt lat="43.404355801001536" lon="12.515594277365963"><ele>557.8</ele><time>2026-04-11T10:02:10Z</time></trkpt><trkpt lat="43.4043336969979" lon="12.515725595524536"><ele>559.4</ele><time>2026-04-11T10:02:11Z</time></trkpt><trkpt lat="43.40434236830283" lon="12.515853625288878"><ele>561.0</ele><time>2026-04-11T10:02:12Z</time></trkpt><trkpt lat="43.40437106573961" lon="12.515974522091144"><ele>561.0</ele><time>2026-04-11T10:02:13Z</time></trkpt><trkpt lat="43.404415792086795" lon="12.516107344009939"><ele>561.0</ele><time>2026-04-11T10:02:14Z</time></trkpt><trkpt lat="43.40446262559803" lon="12.516255819605842"><ele>561.0</ele><time>2026-04-11T10:02:15Z</time></trkpt><trkpt lat="43.40451278190576" lon="12.516417204206933"><ele>561.0</ele><time>2026-04-11T10:02:16Z</time></trkpt><trkpt lat="43.40455775160591" lon="12.516582648607441"><ele>561.0</ele><time>2026-04-11T10:02:17Z</time></trkpt><trkpt lat="43.40459825833629" lon="12.516745025274648"><ele>561.0</ele><time>2026-04-11T10:02:18Z</time></trkpt><trkpt lat="43.404649802619794" lon="12.516920449578238"><ele>561.0</ele><time>2026-04-11T10:02:19Z</time></trkpt><trkpt lat="43.40471230880959" lon="12.51710323251316"><ele>561.0</ele><time>2026-04-11T10:02:20Z</time></trkpt><trkpt lat="43.40477741774793" lon="12.517295445483674"><ele>560.3333333333334</ele><time>2026-04-11T10:02:21Z</time></trkpt><trkpt lat="43.40484575230792" lon="12.517494347686911"><ele>559.6666666666667</ele><time>2026-04-11T10:02:22Z</time></trkpt><trkpt lat="43.40490393863675" lon="12.517689457078562"><ele>559.0</ele><time>2026-04-11T10:02:23Z</time></trkpt><trkpt lat="43.404939872108216" lon="12.517886055362954"><ele>560.0</ele><time>2026-04-11T10:02:24Z</time></trkpt><trkpt lat="43.40495552735089" lon="12.51806782623304"><ele>561.0</ele><time>2026-04-11T10:02:25Z</time></trkpt><trkpt lat="43.40496556256595" lon="12.518233873794626"><ele>562.0</ele><time>2026-04-11T10:02:26Z</time></trkpt><trkpt lat="43.40497292408046" lon="12.51837731062739"><ele>563.0</ele><time>2026-04-11T10:02:27Z</time></trkpt><trkpt lat="43.404990182398755" lon="12.518510661616254"><ele>563.0</ele><time>2026-04-11T10:02:28Z</time></trkpt><trkpt lat="43.40500383112889" lon="12.51863422673102"><ele>563.0</ele><time>2026-04-11T10:02:29Z</time></trkpt><trkpt lat="43.40501913924044" lon="12.518769951343721"><ele>563.0</ele><time>2026-04-11T10:02:30Z</time></trkpt><trkpt lat="43.405035039814116" lon="12.518932154288024"><ele>563.0</ele><time>2026-04-11T10:02:31Z</time></trkpt><trkpt lat="43.40504597692283" lon="12.519086589548715"><ele>563.0</ele><time>2026-04-11T10:02:32Z</time></trkpt><trkpt lat="43.40505083177493" lon="12.519243638230238"><ele>562.8</ele><time>2026-04-11T10:02:33Z</time></trkpt><trkpt lat="43.405042185970096" lon="12.519395217481735"><ele>562.5999999999999</ele><time>2026-04-11T10:02:34Z</time></trkpt><trkpt lat="43.40501542970409" lon="12.519538961113225"><ele>562.4000000000001</ele><time>2026-04-11T10:02:35Z</time></trkpt><trkpt lat="43.40497739630272" lon="12.519682921932256"><ele>562.2</ele><time>2026-04-11T10:02:36Z</time></trkpt><trkpt lat="43.40493715751625" lon="12.519813158267706"><ele>562.0</ele><time>2026-04-11T10:02:37Z</time></trkpt><trkpt lat="43.40490455090707" lon="12.519943922868098"><ele>560.4</ele><time>2026-04-11T10:02:38Z</time></trkpt><trkpt lat="43.40487970311806" lon="12.520080636711706"><ele>558.8000000000001</ele><time>2026-04-11T10:02:39Z</time></trkpt><trkpt lat="43.40486447246466" lon="12.520210514555565"><ele>557.2</ele><time>2026-04-11T10:02:40Z</time></trkpt><trkpt lat="43.404842463689036" lon="12.520333256914146"><ele>555.6</ele><time>2026-04-11T10:02:41Z</time></trkpt><trkpt lat="43.40481020714738" lon="12.52044835474795"><ele>554.0</ele><time>2026-04-11T10:02:42Z</time></trkpt><trkpt lat="43.40477283193676" lon="12.520565400543415"><ele>554.8</ele><time>2026-04-11T10:02:43Z</time></trkpt><trkpt lat="43.40473538858086" lon="12.520684753953683"><ele>555.5999999999999</ele><time>2026-04-11T10:02:44Z</time></trkpt><trkpt lat="43.404690293630566" lon="12.520799981476731"><ele>556.4</ele><time>2026-04-11T10:02:45Z</time></trkpt><trkpt lat="43.404641803823786" lon="12.520899377251572"><ele>557.1999999999999</ele><time>2026-04-11T10:02:46Z</time></trkpt><trkpt lat="43.40458985661234" lon="12.521018254188014"><ele>558.0</ele><time>2026-04-11T10:02:47Z</time></trkpt><trkpt lat="43.404546951038604" lon="12.521135564563092"><ele>559.0</ele><time>2026-04-11T10:02:48Z</time></trkpt><trkpt lat="43.40451873378094" lon="12.52126656722567"><ele>560.0</ele><time>2026-04-11T10:02:49Z</time></trkpt><trkpt lat="43.40450081210565" lon="12.52141691087796"><ele>561.0</ele><time>2026-04-11T10:02:50Z</time></trkpt><trkpt lat="43.404500021418926" lon="12.521590327158668"><ele>562.0</ele><time>2026-04-11T10:02:51Z</time></trkpt><trkpt lat="43.404514921221505" lon="12.521756406794292"><ele>562.0</ele><time>2026-04-11T10:02:52Z</time></trkpt><trkpt lat="43.40453126745663" lon="12.521934375175816"><ele>562.0</ele><time>2026-04-11T10:02:53Z</time></trkpt><trkpt lat="43.404540238704335" lon="12.522104347305138"><ele>562.0</ele><time>2026-04-11T10:02:54Z</time></trkpt><trkpt lat="43.40454950962607" lon="12.522281518554983"><ele>562.0</ele><time>2026-04-11T10:02:55Z</time></trkpt><trkpt lat="43.404555314544055" lon="12.522470363069509"><ele>563.25</ele><time>2026-04-11T10:02:56Z</time></trkpt><trkpt lat="43.40455746337546" lon="12.522683724677847"><ele>564.5</ele><time>2026-04-11T10:02:57Z</time></trkpt><trkpt lat="43.40455366304581" lon="12.52288293310082"><ele>565.75</ele><time>2026-04-11T10:02:58Z</time></trkpt><trkpt lat="43.40454854721232" lon="12.523059733888683"><ele>567.0</ele><time>2026-04-11T10:02:59Z</time></trkpt><trkpt lat="43.404537775645096" lon="12.523212692642797"><ele>569.3333333333334</ele><time>2026-04-11T10:03:00Z</time></trkpt><trkpt lat="43.404521317606765" lon="12.523337907808319"><ele>571.6666666666666</ele><time>2026-04-11T10:03:01Z</time></trkpt><trkpt lat="43.40448817146471" lon="12.523429134154142"><ele>574.0</ele><time>2026-04-11T10:03:02Z</time></trkpt><trkpt lat="43.40442256960238" lon="12.523510595403486"><ele>576.3333333333333</ele><time>2026-04-11T10:03:03Z</time></trkpt><trkpt lat="43.40434527225" lon="12.52356642707562"><ele>578.6666666666666</ele><time>2026-04-11T10:03:04Z</time></trkpt><trkpt lat="43.40425563467988" lon="12.523586265800184"><ele>581.0</ele><time>2026-04-11T10:03:05Z</time></trkpt><trkpt lat="43.40416949999508" lon="12.523587411220129"><ele>581.0</ele><time>2026-04-11T10:03:06Z</time></trkpt><trkpt lat="43.40406574904025" lon="12.523577912308609"><ele>581.0</ele><time>2026-04-11T10:03:07Z</time></trkpt><trkpt lat="43.40396268247619" lon="12.523568566086874"><ele>581.0</ele><time>2026-04-11T10:03:08Z</time></trkpt><trkpt lat="43.403861358704376" lon="12.523550326590463"><ele>581.0</ele><time>2026-04-11T10:03:09Z</time></trkpt><trkpt lat="43.40376808119466" lon="12.523522503246138"><ele>581.0</ele><time>2026-04-11T10:03:10Z</time></trkpt><trkpt lat="43.403660842592245" lon="12.523511045347584"><ele>583.6</ele><time>2026-04-11T10:03:11Z</time></trkpt><trkpt lat="43.403554794213036" lon="12.523505927171001"><ele>586.2</ele><time>2026-04-11T10:03:12Z</time></trkpt><trkpt lat="43.403439172743326" lon="12.52351328584773"><ele>588.8</ele><time>2026-04-11T10:03:13Z</time></trkpt><trkpt lat="43.40332863892574" lon="12.523525094747475"><ele>591.4</ele><time>2026-04-11T10:03:14Z</time></trkpt><trkpt lat="43.40321560856296" lon="12.523553428708901"><ele>594.0</ele><time>2026-04-11T10:03:15Z</time></trkpt><trkpt lat="43.40312629797207" lon="12.52358545808445"><ele>594.0</ele><time>2026-04-11T10:03:16Z</time></trkpt><trkpt lat="43.40305101978666" lon="12.523630943132488"><ele>594.0</ele><time>2026-04-11T10:03:17Z</time></trkpt><trkpt lat="43.402980761462935" lon="12.523698296694842"><ele>594.0</ele><time>2026-04-11T10:03:18Z</time></trkpt><trkpt lat="43.40290577179424" lon="12.52378474976464"><ele>594.0</ele><time>2026-04-11T10:03:19Z</time></trkpt><trkpt lat="43.40281711155096" lon="12.523878077034713"><ele>594.0</ele><time>2026-04-11T10:03:20Z</time></trkpt><trkpt lat="43.40271674952808" lon="12.523978160847046"><ele>598.25</ele><time>2026-04-11T10:03:21Z</time></trkpt><trkpt lat="43.40259802086028" lon="12.524078273570705"><ele>602.5</ele><time>2026-04-11T10:03:22Z</time></trkpt><trkpt lat="43.402471261425426" lon="12.524171019545939"><ele>606.75</ele><time>2026-04-11T10:03:23Z</time></trkpt><trkpt lat="43.40235423662452" lon="12.524250253682466"><ele>611.0</ele><time>2026-04-11T10:03:24Z</time></trkpt><trkpt lat="43.402252996432026" lon="12.524304862589972"><ele>610.6666666666666</ele><time>2026-04-11T10:03:25Z</time></trkpt><trkpt lat="43.40215449457583" lon="12.524365539378572"><ele>610.3333333333333</ele><time>2026-04-11T10:03:26Z</time></trkpt><trkpt lat="43.402059243136286" lon="12.524404724019238"><ele>610.0</ele><time>2026-04-11T10:03:27Z</time></trkpt><trkpt lat="43.40198252577509" lon="12.524441395146846"><ele>609.6666666666666</ele><time>2026-04-11T10:03:28Z</time></trkpt><trkpt lat="43.401919035319715" lon="12.524485973406044"><ele>609.3333333333334</ele><time>2026-04-11T10:03:29Z</time></trkpt><trkpt lat="43.40185903213622" lon="12.52456291006089"><ele>609.0</ele><time>2026-04-11T10:03:30Z</time></trkpt><trkpt lat="43.40181376074169" lon="12.524656623500174"><ele>611.4</ele><time>2026-04-11T10:03:31Z</time></trkpt><trkpt lat="43.40179125615571" lon="12.5247518374219"><ele>613.8</ele><time>2026-04-11T10:03:32Z</time></trkpt><trkpt lat="43.40178127263952" lon="12.524867041485363"><ele>616.2</ele><time>2026-04-11T10:03:33Z</time></trkpt><trkpt lat="43.401788365484855" lon="12.524998861783711"><ele>618.6</ele><time>2026-04-11T10:03:34Z</time></trkpt><trkpt lat="43.40178441499854" lon="12.525139247932508"><ele>621.0</ele><time>2026-04-11T10:03:35Z</time></trkpt><trkpt lat="43.4017776912159" lon="12.525275065562905"><ele>623.8</ele><time>2026-04-11T10:03:36Z</time></trkpt><trkpt lat="43.40176734631691" lon="12.52541653246822"><ele>626.6</ele><time>2026-04-11T10:03:37Z</time></trkpt><trkpt lat="43.40175513664992" lon="12.52555576008986"><ele>629.4</ele><time>2026-04-11T10:03:38Z</time></trkpt><trkpt lat="43.40173995398723" lon="12.525695649959802"><ele>632.2</ele><time>2026-04-11T10:03:39Z</time></trkpt><trkpt lat="43.40171682502357" lon="12.525831577431537"><ele>635.0</ele><time>2026-04-11T10:03:40Z</time></trkpt><trkpt lat="43.40168166036715" lon="12.52594414282196"><ele>635.0</ele><time>2026-04-11T10:03:41Z</time></trkpt><trkpt lat="43.40164748939143" lon="12.526045195206013"><ele>635.0</ele><time>2026-04-11T10:03:42Z</time></trkpt><trkpt lat="43.40164007677596" lon="12.526146889729038"><ele>635.0</ele><time>2026-04-11T10:03:43Z</time></trkpt><trkpt lat="43.40164681456153" lon="12.526277301473254"><ele>635.0</ele><time>2026-04-11T10:03:44Z</time></trkpt><trkpt lat="43.40167225115347" lon="12.526402763800197"><ele>635.0</ele><time>2026-04-11T10:03:45Z</time></trkpt><trkpt lat="43.40169294940519" lon="12.526525224645008"><ele>635.0</ele><time>2026-04-11T10:03:46Z</time></trkpt><trkpt lat="43.40168854453993" lon="12.526640988412298"><ele>637.8</ele><time>2026-04-11T10:03:47Z</time></trkpt><trkpt lat="43.401650578251456" lon="12.526744334581359"><ele>640.6</ele><time>2026-04-11T10:03:48Z</time></trkpt><trkpt lat="43.4015826457324" lon="12.526819694155703"><ele>643.4000000000001</ele><time>2026-04-11T10:03:49Z</time></trkpt><trkpt lat="43.40150225790427" lon="12.526901683644114"><ele>646.2</ele><time>2026-04-11T10:03:50Z</time></trkpt><trkpt lat="43.40142435431722" lon="12.526989378349821"><ele>649.0</ele><time>2026-04-11T10:03:51Z</time></trkpt><trkpt lat="43.40136104031228" lon="12.52707452103854"><ele>648.6</ele><time>2026-04-11T10:03:52Z</time></trkpt><trkpt lat="43.401295157377355" lon="12.527160423154823"><ele>648.2</ele><time>2026-04-11T10:03:53Z</time></trkpt><trkpt lat="43.401231934178654" lon="12.52724438834902"><ele>647.8000000000001</ele><time>2026-04-11T10:03:54Z</time></trkpt><trkpt lat="43.40116810420655" lon="12.527336721106252"><ele>647.4000000000001</ele><time>2026-04-11T10:03:55Z</time></trkpt><trkpt lat="43.40109866010883" lon="12.527436342736804"><ele>647.0</ele><time>2026-04-11T10:03:56Z</time></trkpt><trkpt lat="43.401024851524696" lon="12.527550559230777"><ele>647.0</ele><time>2026-04-11T10:03:57Z</time></trkpt><trkpt lat="43.400946313786065" lon="12.527654364520615"><ele>647.0</ele><time>2026-04-11T10:03:58Z</time></trkpt><trkpt lat="43.40087126183433" lon="12.527756899090946"><ele>647.0</ele><time>2026-04-11T10:03:59Z</time></trkpt><trkpt lat="43.40080223760354" lon="12.527852928214593"><ele>647.0</ele><time>2026-04-11T10:04:00Z</time></trkpt><trkpt lat="43.400732571535166" lon="12.527940501950825"><ele>647.0</ele><time>2026-04-11T10:04:01Z</time></trkpt><trkpt lat="43.40067661369103" lon="12.528027826854997"><ele>650.0</ele><time>2026-04-11T10:04:02Z</time></trkpt><trkpt lat="43.40063600732588" lon="12.528123516684422"><ele>653.0</ele><time>2026-04-11T10:04:03Z</time></trkpt><trkpt lat="43.40060314909235" lon="12.528251848883212"><ele>656.0</ele><time>2026-04-11T10:04:04Z</time></trkpt><trkpt lat="43.400577114089714" lon="12.528398455717818"><ele>659.0</ele><time>2026-04-11T10:04:05Z</time></trkpt><trkpt lat="43.40055561406512" lon="12.528561560772356"><ele>662.0</ele><time>2026-04-11T10:04:06Z</time></trkpt><trkpt lat="43.400539986016774" lon="12.528722855473172"><ele>660.75</ele><time>2026-04-11T10:04:07Z</time></trkpt><trkpt lat="43.400506598693774" lon="12.528887624666561"><ele>659.5</ele><time>2026-04-11T10:04:08Z</time></trkpt><trkpt lat="43.400454985290665" lon="12.529055573867765"><ele>658.25</ele><time>2026-04-11T10:04:09Z</time></trkpt><trkpt lat="43.40038446936284" lon="12.52924692963106"><ele>657.0</ele><time>2026-04-11T10:04:10Z</time></trkpt><trkpt lat="43.40031218827668" lon="12.529418184485404"><ele>657.0</ele><time>2026-04-11T10:04:11Z</time></trkpt><trkpt lat="43.4002613765384" lon="12.529556545623969"><ele>657.0</ele><time>2026-04-11T10:04:12Z</time></trkpt><trkpt lat="43.40020100676369" lon="12.529699290626988"><ele>657.0</ele><time>2026-04-11T10:04:13Z</time></trkpt><trkpt lat="43.400121096957434" lon="12.529838874496903"><ele>657.0</ele><time>2026-04-11T10:04:14Z</time></trkpt><trkpt lat="43.40003393193559" lon="12.529964240382467"><ele>661.5</ele><time>2026-04-11T10:04:15Z</time></trkpt><trkpt lat="43.399950965859375" lon="12.530094063940869"><ele>666.0</ele><time>2026-04-11T10:04:16Z</time></trkpt><trkpt lat="43.39987745457726" lon="12.530221229804308"><ele>670.5</ele><time>2026-04-11T10:04:17Z</time></trkpt><trkpt lat="43.3998032208818" lon="12.53035858853409"><ele>675.0</ele><time>2026-04-11T10:04:18Z</time></trkpt><trkpt lat="43.3997398927468" lon="12.530468111538074"><ele>675.2</ele><time>2026-04-11T10:04:19Z</time></trkpt><trkpt lat="43.3996858487145" lon="12.530578979236601"><ele>675.4</ele><time>2026-04-11T10:04:20Z</time></trkpt><trkpt lat="43.39964107963459" lon="12.530678063163872"><ele>675.5999999999999</ele><time>2026-04-11T10:04:21Z</time></trkpt><trkpt lat="43.3995853348988" lon="12.530819937448397"><ele>675.8</ele><time>2026-04-11T10:04:22Z</time></trkpt><trkpt lat="43.399553155886494" lon="12.530963340707347"><ele>676.0</ele><time>2026-04-11T10:04:23Z</time></trkpt><trkpt lat="43.39951030635509" lon="12.531103700229558"><ele>676.0</ele><time>2026-04-11T10:04:24Z</time></trkpt><trkpt lat="43.39943872285794" lon="12.53121072221202"><ele>676.0</ele><time>2026-04-11T10:04:25Z</time></trkpt><trkpt lat="43.399352497851275" lon="12.531278816248088"><ele>676.0</ele><time>2026-04-11T10:04:26Z</time></trkpt><trkpt lat="43.39924133764603" lon="12.531317632891808"><ele>676.0</ele><time>2026-04-11T10:04:27Z</time></trkpt><trkpt lat="43.3991323051894" lon="12.531352992833819"><ele>676.0</ele><time>2026-04-11T10:04:28Z</time></trkpt><trkpt lat="43.39901806573707" lon="12.531384639635807"><ele>677.8</ele><time>2026-04-11T10:04:29Z</time></trkpt><trkpt lat="43.39893937465458" lon="12.531436289963002"><ele>679.5999999999999</ele><time>2026-04-11T10:04:30Z</time></trkpt><trkpt lat="43.39886460067284" lon="12.531511036687567"><ele>681.4</ele><time>2026-04-11T10:04:31Z</time></trkpt><trkpt lat="43.39878351703506" lon="12.531606611508288"><ele>683.2</ele><time>2026-04-11T10:04:32Z</time></trkpt><trkpt lat="43.39870890462008" lon="12.53171273936002"><ele>685.0</ele><time>2026-04-11T10:04:33Z</time></trkpt><trkpt lat="43.39864407242408" lon="12.531832497933618"><ele>685.0</ele><time>2026-04-11T10:04:34Z</time></trkpt><trkpt lat="43.39859069040636" lon="12.53193391065939"><ele>685.0</ele><time>2026-04-11T10:04:35Z</time></trkpt><trkpt lat="43.39853023618291" lon="12.532055041793939"><ele>685.0</ele><time>2026-04-11T10:04:36Z</time></trkpt><trkpt lat="43.3984552360043" lon="12.532181753175733"><ele>685.0</ele><time>2026-04-11T10:04:37Z</time></trkpt><trkpt lat="43.39838015031675" lon="12.532308532022284"><ele>685.0</ele><time>2026-04-11T10:04:38Z</time></trkpt><trkpt lat="43.39831503453823" lon="12.532424397409935"><ele>685.8</ele><time>2026-04-11T10:04:39Z</time></trkpt><trkpt lat="43.39826396456207" lon="12.532531003341449"><ele>686.6</ele><time>2026-04-11T10:04:40Z</time></trkpt><trkpt lat="43.398213430899276" lon="12.532630270130877"><ele>687.4000000000001</ele><time>2026-04-11T10:04:41Z</time></trkpt><trkpt lat="43.398137256678005" lon="12.532712171204206"><ele>688.2</ele><time>2026-04-11T10:04:42Z</time></trkpt><trkpt lat="43.39803631737094" lon="12.53278464531196"><ele>689.0</ele><time>2026-04-11T10:04:43Z</time></trkpt><trkpt lat="43.397947623335334" lon="12.532843987846988"><ele>692.4000000000001</ele><time>2026-04-11T10:04:44Z</time></trkpt><trkpt lat="43.39786600901562" lon="12.532900333215816"><ele>695.8</ele><time>2026-04-11T10:04:45Z</time></trkpt><trkpt lat="43.397792127301706" lon="12.532979877694759"><ele>699.2</ele><time>2026-04-11T10:04:46Z</time></trkpt><trkpt lat="43.397716655904574" lon="12.533083289033057"><ele>702.5999999999999</ele><time>2026-04-11T10:04:47Z</time></trkpt><trkpt lat="43.39763455182609" lon="12.53320294055875"><ele>706.0</ele><time>2026-04-11T10:04:48Z</time></trkpt><trkpt lat="43.39753869990559" lon="12.533330897134453"><ele>706.0</ele><time>2026-04-11T10:04:49Z</time></trkpt><trkpt lat="43.3974384505604" lon="12.533452938595113"><ele>706.0</ele><time>2026-04-11T10:04:50Z</time></trkpt><trkpt lat="43.39733410832494" lon="12.533563905094894"><ele>706.0</ele><time>2026-04-11T10:04:51Z</time></trkpt><trkpt lat="43.39723628529109" lon="12.533678744914935"><ele>706.0</ele><time>2026-04-11T10:04:52Z</time></trkpt><trkpt lat="43.39713994590827" lon="12.533815281396292"><ele>708.25</ele><time>2026-04-11T10:04:53Z</time></trkpt><trkpt lat="43.39704662751292" lon="12.533963531207794"><ele>710.5</ele><time>2026-04-11T10:04:54Z</time></trkpt><trkpt lat="43.39694677799065" lon="12.534098362078801"><ele>712.75</ele><time>2026-04-11T10:04:55Z</time></trkpt><trkpt lat="43.39686352408663" lon="12.53419675624579"><ele>715.0</ele><time>2026-04-11T10:04:56Z</time></trkpt><trkpt lat="43.39678294549301" lon="12.534282671080932"><ele>715.0</ele><time>2026-04-11T10:04:57Z</time></trkpt><trkpt lat="43.39671225744093" lon="12.53437112113993"><ele>715.0</ele><time>2026-04-11T10:04:58Z</time></trkpt><trkpt lat="43.396650982363866" lon="12.53448220118246"><ele>715.0</ele><time>2026-04-11T10:04:59Z</time></trkpt><trkpt lat="43.3966045733489" lon="12.534609400108003"><ele>715.0</ele><time>2026-04-11T10:05:00Z</time></trkpt><trkpt lat="43.39658303418941" lon="12.534747568705084"><ele>715.0</ele><time>2026-04-11T10:05:01Z</time></trkpt><trkpt lat="43.3965508576353" lon="12.53491519766161"><ele>718.2</ele><time>2026-04-11T10:05:02Z</time></trkpt><trkpt lat="43.396535076646586" lon="12.535054440705261"><ele>721.4</ele><time>2026-04-11T10:05:03Z</time></trkpt><trkpt lat="43.39652789703467" lon="12.53517309574034"><ele>724.5999999999999</ele><time>2026-04-11T10:05:04Z</time></trkpt><trkpt lat="43.396507565754426" lon="12.535299035712036"><ele>727.8</ele><time>2026-04-11T10:05:05Z</time></trkpt><trkpt lat="43.39645419659839" lon="12.53541085164882"><ele>731.0</ele><time>2026-04-11T10:05:06Z</time></trkpt><trkpt lat="43.39639239929764" lon="12.535516329886699"><ele>731.8333333333333</ele><time>2026-04-11T10:05:07Z</time></trkpt><trkpt lat="43.39631502459349" lon="12.535623472615178"><ele>732.6666666666666</ele><time>2026-04-11T10:05:08Z</time></trkpt><trkpt lat="43.39625589876932" lon="12.535687060146289"><ele>733.5</ele><time>2026-04-11T10:05:09Z</time></trkpt><trkpt lat="43.396175709339076" lon="12.535759969087254"><ele>734.3333333333334</ele><time>2026-04-11T10:05:11Z</time></trkpt><trkpt lat="43.39613261156926" lon="12.535826990237087"><ele>735.1666666666667</ele><time>2026-04-11T10:05:14Z</time></trkpt><trkpt lat="43.39619972749298" lon="12.53584404553947"><ele>736.0</ele><time>2026-04-11T10:05:42Z</time></trkpt><trkpt lat="43.39628304264877" lon="12.535799275636709"><ele>737.3333333333334</ele><time>2026-04-11T10:05:44Z</time></trkpt><trkpt lat="43.396346198668375" lon="12.53572204938568"><ele>738.6666666666667</ele><time>2026-04-11T10:05:45Z</time></trkpt><trkpt lat="43.39641034033885" lon="12.535654236654585"><ele>740.0</ele><time>2026-04-11T10:05:46Z</time></trkpt><trkpt lat="43.39646962143421" lon="12.535597006736236"><ele>741.3333333333334</ele><time>2026-04-11T10:05:47Z</time></trkpt><trkpt lat="43.39652293262424" lon="12.535543901161335"><ele>742.6666666666666</ele><time>2026-04-11T10:05:48Z</time></trkpt><trkpt lat="43.39662864294453" lon="12.535441747375854"><ele>744.0</ele><time>2026-04-11T10:05:50Z</time></trkpt><trkpt lat="43.39668839261751" lon="12.535395082084255"><ele>741.4000000000001</ele><time>2026-04-11T10:05:51Z</time></trkpt><trkpt lat="43.39674060719446" lon="12.535334255217844"><ele>738.8</ele><time>2026-04-11T10:05:52Z</time></trkpt><trkpt lat="43.396795387364314" lon="12.53519077906473"><ele>736.2</ele><time>2026-04-11T10:05:54Z</time></trkpt><trkpt lat="43.39686035609449" lon="12.53503733876524"><ele>733.5999999999999</ele><time>2026-04-11T10:05:56Z</time></trkpt><trkpt lat="43.39691694481478" lon="12.534956421730106"><ele>731.0</ele><time>2026-04-11T10:05:57Z</time></trkpt><trkpt lat="43.39697930506522" lon="12.53486339361934"><ele>731.0</ele><time>2026-04-11T10:05:58Z</time></trkpt><trkpt lat="43.39703465347211" lon="12.534782931404932"><ele>731.0</ele><time>2026-04-11T10:05:59Z</time></trkpt><trkpt lat="43.397080414966865" lon="12.534694688834435"><ele>731.0</ele><time>2026-04-11T10:06:00Z</time></trkpt><trkpt lat="43.3971381609696" lon="12.534620298018654"><ele>731.0</ele><time>2026-04-11T10:06:01Z</time></trkpt><trkpt lat="43.39721092304894" lon="12.534561077719584"><ele>731.0</ele><time>2026-04-11T10:06:02Z</time></trkpt><trkpt lat="43.39729048412522" lon="12.534498351934637"><ele>731.0</ele><time>2026-04-11T10:06:03Z</time></trkpt><trkpt lat="43.39737469569091" lon="12.534452650771243"><ele>732.0</ele><time>2026-04-11T10:06:04Z</time></trkpt><trkpt lat="43.39746016603826" lon="12.5344182509729"><ele>733.0</ele><time>2026-04-11T10:06:05Z</time></trkpt><trkpt lat="43.3975350274116" lon="12.534371182843746"><ele>734.0</ele><time>2026-04-11T10:06:06Z</time></trkpt><trkpt lat="43.397609031676986" lon="12.534357641344473"><ele>735.0</ele><time>2026-04-11T10:06:07Z</time></trkpt><trkpt lat="43.39768272956555" lon="12.534358389707455"><ele>736.0</ele><time>2026-04-11T10:06:08Z</time></trkpt><trkpt lat="43.397809508759856" lon="12.53438754682957"><ele>737.0</ele><time>2026-04-11T10:06:10Z</time></trkpt><trkpt lat="43.39787717218883" lon="12.534364788405219"><ele>737.0</ele><time>2026-04-11T10:06:11Z</time></trkpt><trkpt lat="43.39794778862132" lon="12.534332676972632"><ele>737.0</ele><time>2026-04-11T10:06:12Z</time></trkpt><trkpt lat="43.39802001630501" lon="12.534314733887513"><ele>737.0</ele><time>2026-04-11T10:06:13Z</time></trkpt><trkpt lat="43.398097566429705" lon="12.534309430986813"><ele>737.0</ele><time>2026-04-11T10:06:14Z</time></trkpt><trkpt lat="43.39817796861872" lon="12.534325572326713"><ele>737.0</ele><time>2026-04-11T10:06:15Z</time></trkpt><trkpt lat="43.39825445591007" lon="12.534366689980368"><ele>737.0</ele><time>2026-04-11T10:06:16Z</time></trkpt><trkpt lat="43.3983240756177" lon="12.53441478847769"><ele>739.5</ele><time>2026-04-11T10:06:17Z</time></trkpt><trkpt lat="43.39841123177039" lon="12.534494495914949"><ele>742.0</ele><time>2026-04-11T10:06:18Z</time></trkpt><trkpt lat="43.39847538457544" lon="12.534563886674087"><ele>744.5</ele><time>2026-04-11T10:06:19Z</time></trkpt><trkpt lat="43.39854514828582" lon="12.534622553746464"><ele>747.0</ele><time>2026-04-11T10:06:20Z</time></trkpt><trkpt lat="43.398620946034384" lon="12.534671169473409"><ele>749.5</ele><time>2026-04-11T10:06:21Z</time></trkpt><trkpt lat="43.39869165381859" lon="12.534705844391846"><ele>752.0</ele><time>2026-04-11T10:06:22Z</time></trkpt><trkpt lat="43.39882680520672" lon="12.53472598510697"><ele>755.4000000000001</ele><time>2026-04-11T10:06:24Z</time></trkpt><trkpt lat="43.39891078347633" lon="12.53470243923904"><ele>758.8000000000001</ele><time>2026-04-11T10:06:25Z</time></trkpt><trkpt lat="43.39899826421785" lon="12.534645909686322"><ele>762.2</ele><time>2026-04-11T10:06:26Z</time></trkpt><trkpt lat="43.399089814521304" lon="12.534579341087959"><ele>765.6</ele><time>2026-04-11T10:06:27Z</time></trkpt><trkpt lat="43.39915748195207" lon="12.534487865620251"><ele>769.0</ele><time>2026-04-11T10:06:28Z</time></trkpt><trkpt lat="43.39922197020493" lon="12.534417612339537"><ele>769.0</ele><time>2026-04-11T10:06:29Z</time></trkpt><trkpt lat="43.399282844083096" lon="12.534371409206214"><ele>769.0</ele><time>2026-04-11T10:06:30Z</time></trkpt><trkpt lat="43.39934834426115" lon="12.534363276989449"><ele>769.0</ele><time>2026-04-11T10:06:31Z</time></trkpt><trkpt lat="43.39941321681855" lon="12.534397751580443"><ele>769.0</ele><time>2026-04-11T10:06:32Z</time></trkpt><trkpt lat="43.39947575179103" lon="12.534463000744157"><ele>769.0</ele><time>2026-04-11T10:06:33Z</time></trkpt><trkpt lat="43.39952786083806" lon="12.53454496682788"><ele>769.0</ele><time>2026-04-11T10:06:34Z</time></trkpt><trkpt lat="43.399581761885145" lon="12.534626216060241"><ele>769.0</ele><time>2026-04-11T10:06:35Z</time></trkpt><trkpt lat="43.399627492168705" lon="12.534690297843996"><ele>768.9999999999999</ele><time>2026-04-11T10:06:36Z</time></trkpt><trkpt lat="43.39975279445699" lon="12.534713083283467"><ele>769.0</ele><time>2026-04-11T10:06:38Z</time></trkpt><trkpt lat="43.399819985826056" lon="12.534684048410995"><ele>769.0</ele><time>2026-04-11T10:06:39Z</time></trkpt><trkpt lat="43.39987443149586" lon="12.53462959600518"><ele>769.0</ele><time>2026-04-11T10:06:40Z</time></trkpt><trkpt lat="43.3999350273409" lon="12.534591171764133"><ele>768.9999999999999</ele><time>2026-04-11T10:06:41Z</time></trkpt><trkpt lat="43.40000924485288" lon="12.534545759242384"><ele>769.0</ele><time>2026-04-11T10:06:42Z</time></trkpt><trkpt lat="43.40007153121469" lon="12.534508547150724"><ele>769.0</ele><time>2026-04-11T10:06:43Z</time></trkpt><trkpt lat="43.40018802977992" lon="12.534525838228125"><ele>769.0</ele><time>2026-04-11T10:06:45Z</time></trkpt><trkpt lat="43.40024496277788" lon="12.534580800338128"><ele>769.0</ele><time>2026-04-11T10:06:46Z</time></trkpt><trkpt lat="43.40030029752932" lon="12.534637503484436"><ele>769.0</ele><time>2026-04-11T10:06:47Z</time></trkpt><trkpt lat="43.40043996470264" lon="12.534644512787914"><ele>769.0</ele><time>2026-04-11T10:06:49Z</time></trkpt><trkpt lat="43.40050894825009" lon="12.534612041588481"><ele>768.9999999999999</ele><time>2026-04-11T10:06:50Z</time></trkpt><trkpt lat="43.40057955786681" lon="12.534565885292869"><ele>769.0</ele><time>2026-04-11T10:06:51Z</time></trkpt><trkpt lat="43.40066487461631" lon="12.534520910928173"><ele>769.0</ele><time>2026-04-11T10:06:52Z</time></trkpt><trkpt lat="43.400745962743166" lon="12.534465448692984"><ele>769.0</ele><time>2026-04-11T10:06:53Z</time></trkpt><trkpt lat="43.40082317036662" lon="12.534420856352234"><ele>768.9999999999999</ele><time>2026-04-11T10:06:54Z</time></trkpt><trkpt lat="43.40090183653892" lon="12.534395273752937"><ele>769.0</ele><time>2026-04-11T10:06:55Z</time></trkpt><trkpt lat="43.40097659727612" lon="12.534381460013941"><ele>768.9999999999999</ele><time>2026-04-11T10:06:56Z</time></trkpt><trkpt lat="43.40105371130567" lon="12.534381451173628"><ele>769.0</ele><time>2026-04-11T10:06:57Z</time></trkpt><trkpt lat="43.40113045056876" lon="12.53436976256105"><ele>769.0</ele><time>2026-04-11T10:06:58Z</time></trkpt><trkpt lat="43.4012068722474" lon="12.53433901002584"><ele>769.0</ele><time>2026-04-11T10:06:59Z</time></trkpt><trkpt lat="43.40127185856188" lon="12.534301073145373"><ele>768.9999999999999</ele><time>2026-04-11T10:07:00Z</time></trkpt><trkpt lat="43.401337258388835" lon="12.534315791739864"><ele>769.0</ele><time>2026-04-11T10:07:01Z</time></trkpt><trkpt lat="43.40142533222901" lon="12.534381109328464"><ele>769.8333333333333</ele><time>2026-04-11T10:07:03Z</time></trkpt><trkpt lat="43.40146202169504" lon="12.53451258932862"><ele>770.6666666666666</ele><time>2026-04-11T10:07:05Z</time></trkpt><trkpt lat="43.40150747505574" lon="12.534608515609378"><ele>771.5</ele><time>2026-04-11T10:07:06Z</time></trkpt><trkpt lat="43.40155715766677" lon="12.534712928589036"><ele>772.3333333333333</ele><time>2026-04-11T10:07:07Z</time></trkpt><trkpt lat="43.40161652160659" lon="12.534806726644858"><ele>773.1666666666666</ele><time>2026-04-11T10:07:08Z</time></trkpt><trkpt lat="43.401680038684326" lon="12.534854690009542"><ele>774.0</ele><time>2026-04-11T10:07:09Z</time></trkpt><trkpt lat="43.401771051794896" lon="12.534854424187497"><ele>778.2</ele><time>2026-04-11T10:07:10Z</time></trkpt><trkpt lat="43.40185769483072" lon="12.534875462571456"><ele>782.4000000000001</ele><time>2026-04-11T10:07:11Z</time></trkpt><trkpt lat="43.401952504906546" lon="12.534894975446822"><ele>786.6</ele><time>2026-04-11T10:07:12Z</time></trkpt><trkpt lat="43.40206195341458" lon="12.534913804102"><ele>790.8</ele><time>2026-04-11T10:07:13Z</time></trkpt><trkpt lat="43.40217625617081" lon="12.5349339817751"><ele>795.0</ele><time>2026-04-11T10:07:14Z</time></trkpt><trkpt lat="43.40227511290037" lon="12.534952907159923"><ele>795.8333333333334</ele><time>2026-04-11T10:07:15Z</time></trkpt><trkpt lat="43.40235526288892" lon="12.534966385932611"><ele>796.6666666666667</ele><time>2026-04-11T10:07:16Z</time></trkpt><trkpt lat="43.402432952734884" lon="12.534977039315342"><ele>797.5</ele><time>2026-04-11T10:07:17Z</time></trkpt><trkpt lat="43.40250184086161" lon="12.53496456560671"><ele>798.3333333333334</ele><time>2026-04-11T10:07:18Z</time></trkpt><trkpt lat="43.40256657170031" lon="12.534941713462192"><ele>799.1666666666667</ele><time>2026-04-11T10:07:19Z</time></trkpt><trkpt lat="43.40266039751537" lon="12.53483312429626"><ele>800.0</ele><time>2026-04-11T10:07:21Z</time></trkpt><trkpt lat="43.40271627601822" lon="12.534766628815465"><ele>800.0000000000001</ele><time>2026-04-11T10:07:22Z</time></trkpt><trkpt lat="43.40276560340117" lon="12.534709201110832"><ele>800.0</ele><time>2026-04-11T10:07:23Z</time></trkpt><trkpt lat="43.40283301067789" lon="12.534680683792557"><ele>800.0</ele><time>2026-04-11T10:07:24Z</time></trkpt><trkpt lat="43.402926088628874" lon="12.534706368483231"><ele>800.0</ele><time>2026-04-11T10:07:25Z</time></trkpt><trkpt lat="43.40302403070138" lon="12.53467138359611"><ele>800.0000000000001</ele><time>2026-04-11T10:07:26Z</time></trkpt><trkpt lat="43.40311093463515" lon="12.534642682776887"><ele>800.0</ele><time>2026-04-11T10:07:27Z</time></trkpt><trkpt lat="43.403188460701266" lon="12.534585119189991"><ele>797.1666666666667</ele><time>2026-04-11T10:07:28Z</time></trkpt><trkpt lat="43.40326481222377" lon="12.534530589434139"><ele>794.3333333333334</ele><time>2026-04-11T10:07:29Z</time></trkpt><trkpt lat="43.40332620410199" lon="12.53445510716716"><ele>791.5</ele><time>2026-04-11T10:07:30Z</time></trkpt><trkpt lat="43.403390539266084" lon="12.534403070625702"><ele>788.6666666666667</ele><time>2026-04-11T10:07:31Z</time></trkpt><trkpt lat="43.40345707930074" lon="12.53439306097735"><ele>785.8333333333334</ele><time>2026-04-11T10:07:32Z</time></trkpt><trkpt lat="43.40350822533555" lon="12.534479901596908"><ele>783.0</ele><time>2026-04-11T10:07:33Z</time></trkpt><trkpt lat="43.40355926041454" lon="12.534535121956377"><ele>786.4</ele><time>2026-04-11T10:07:34Z</time></trkpt><trkpt lat="43.40360112577585" lon="12.534612572268271"><ele>789.8</ele><time>2026-04-11T10:07:35Z</time></trkpt><trkpt lat="43.4036343765626" lon="12.534696878829095"><ele>793.2</ele><time>2026-04-11T10:07:36Z</time></trkpt><trkpt lat="43.40367369174986" lon="12.53486002808481"><ele>796.6</ele><time>2026-04-11T10:07:38Z</time></trkpt><trkpt lat="43.40359424829659" lon="12.5350248043418"><ele>800.0</ele><time>2026-04-11T10:07:40Z</time></trkpt><trkpt lat="43.40355432519116" lon="12.535155292293203"><ele>800.0</ele><time>2026-04-11T10:07:41Z</time></trkpt><trkpt lat="43.403516051065715" lon="12.535298679531241"><ele>800.0</ele><time>2026-04-11T10:07:42Z</time></trkpt><trkpt lat="43.403489592886125" lon="12.535429072397921"><ele>800.0</ele><time>2026-04-11T10:07:43Z</time></trkpt><trkpt lat="43.403472086864355" lon="12.535559421499341"><ele>800.0</ele><time>2026-04-11T10:07:44Z</time></trkpt><trkpt lat="43.40346685579856" lon="12.535685115779343"><ele>800.0</ele><time>2026-04-11T10:07:45Z</time></trkpt><trkpt lat="43.40347869547573" lon="12.53580986337695"><ele>801.5000000000001</ele><time>2026-04-11T10:07:46Z</time></trkpt><trkpt lat="43.403490229953384" lon="12.535915770169828"><ele>803.0</ele><time>2026-04-11T10:07:47Z</time></trkpt><trkpt lat="43.40351125642556" lon="12.536045097115897"><ele>804.5</ele><time>2026-04-11T10:07:48Z</time></trkpt><trkpt lat="43.403557732554134" lon="12.536152978365097"><ele>806.0</ele><time>2026-04-11T10:07:49Z</time></trkpt><trkpt lat="43.403607219254766" lon="12.536258291952"><ele>807.5000000000001</ele><time>2026-04-11T10:07:50Z</time></trkpt><trkpt lat="43.40366992512381" lon="12.536351098702411"><ele>809.0</ele><time>2026-04-11T10:07:51Z</time></trkpt><trkpt lat="43.40375261441944" lon="12.536449850668614"><ele>810.5000000000001</ele><time>2026-04-11T10:07:52Z</time></trkpt><trkpt lat="43.403802117405775" lon="12.536535420705675"><ele>812.0</ele><time>2026-04-11T10:07:53Z</time></trkpt><trkpt lat="43.40386540168377" lon="12.536623595013179"><ele>813.5</ele><time>2026-04-11T10:07:54Z</time></trkpt><trkpt lat="43.40391760578427" lon="12.53669878923717"><ele>815.0</ele><time>2026-04-11T10:07:55Z</time></trkpt><trkpt lat="43.40398024096611" lon="12.536774850640285"><ele>816.5000000000001</ele><time>2026-04-11T10:07:56Z</time></trkpt><trkpt lat="43.404034241415985" lon="12.536839773137403"><ele>818.0</ele><time>2026-04-11T10:07:57Z</time></trkpt><trkpt lat="43.404078952251574" lon="12.536913338704707"><ele>812.1666666666667</ele><time>2026-04-11T10:07:58Z</time></trkpt><trkpt lat="43.404109034882985" lon="12.536999980974949"><ele>806.3333333333334</ele><time>2026-04-11T10:07:59Z</time></trkpt><trkpt lat="43.404115904128155" lon="12.537089944675074"><ele>800.5</ele><time>2026-04-11T10:08:00Z</time></trkpt><trkpt lat="43.40408088445553" lon="12.537192749048037"><ele>794.6666666666667</ele><time>2026-04-11T10:08:01Z</time></trkpt><trkpt lat="43.40404215948939" lon="12.537269951661658"><ele>788.8333333333334</ele><time>2026-04-11T10:08:02Z</time></trkpt><trkpt lat="43.40398848007161" lon="12.537399900238807"><ele>783.0</ele><time>2026-04-11T10:08:04Z</time></trkpt><trkpt lat="43.40390163953249" lon="12.537558466406525"><ele>787.1666666666666</ele><time>2026-04-11T10:08:06Z</time></trkpt><trkpt lat="43.40382796522582" lon="12.537584306857886"><ele>791.3333333333333</ele><time>2026-04-11T10:08:07Z</time></trkpt><trkpt lat="43.40375298563317" lon="12.537559769571734"><ele>795.5</ele><time>2026-04-11T10:08:08Z</time></trkpt><trkpt lat="43.40367969527449" lon="12.53756057306837"><ele>799.6666666666666</ele><time>2026-04-11T10:08:09Z</time></trkpt><trkpt lat="43.40359871337676" lon="12.537562673865029"><ele>803.8333333333333</ele><time>2026-04-11T10:08:10Z</time></trkpt><trkpt lat="43.40352147268513" lon="12.537575773200134"><ele>808.0</ele><time>2026-04-11T10:08:11Z</time></trkpt><trkpt lat="43.40344836714492" lon="12.537606161028258"><ele>807.9999999999999</ele><time>2026-04-11T10:08:12Z</time></trkpt><trkpt lat="43.40338083357075" lon="12.537670142190132"><ele>808.0</ele><time>2026-04-11T10:08:13Z</time></trkpt><trkpt lat="43.4033161876429" lon="12.537728880980188"><ele>808.0</ele><time>2026-04-11T10:08:14Z</time></trkpt><trkpt lat="43.403248089601554" lon="12.537795552654659"><ele>808.0</ele><time>2026-04-11T10:08:15Z</time></trkpt><trkpt lat="43.403180409727554" lon="12.537867347095926"><ele>807.9999999999999</ele><time>2026-04-11T10:08:16Z</time></trkpt><trkpt lat="43.40311632051288" lon="12.53792757728617"><ele>808.0</ele><time>2026-04-11T10:08:17Z</time></trkpt><trkpt lat="43.403054659675476" lon="12.537998556237389"><ele>808.4999999999999</ele><time>2026-04-11T10:08:18Z</time></trkpt><trkpt lat="43.40298990787811" lon="12.538070124722138"><ele>809.0</ele><time>2026-04-11T10:08:19Z</time></trkpt><trkpt lat="43.402922307197315" lon="12.538130973010535"><ele>809.5</ele><time>2026-04-11T10:08:20Z</time></trkpt><trkpt lat="43.40285256914072" lon="12.538195294113095"><ele>810.0</ele><time>2026-04-11T10:08:21Z</time></trkpt><trkpt lat="43.402787565179416" lon="12.53826883160139"><ele>810.4999999999999</ele><time>2026-04-11T10:08:22Z</time></trkpt><trkpt lat="43.402715223518555" lon="12.538394669009518"><ele>811.0</ele><time>2026-04-11T10:08:24Z</time></trkpt><trkpt lat="43.40272520391931" lon="12.53851533174448"><ele>810.9999999999999</ele><time>2026-04-11T10:08:25Z</time></trkpt><trkpt lat="43.40272250589927" lon="12.538638436680422"><ele>811.0</ele><time>2026-04-11T10:08:26Z</time></trkpt><trkpt lat="43.40271185846455" lon="12.538757354257507"><ele>811.0</ele><time>2026-04-11T10:08:27Z</time></trkpt><trkpt lat="43.40268405637452" lon="12.538848906177481"><ele>811.0</ele><time>2026-04-11T10:08:28Z</time></trkpt><trkpt lat="43.40264621764294" lon="12.538963296469094"><ele>810.9999999999999</ele><time>2026-04-11T10:08:29Z</time></trkpt><trkpt lat="43.40260170666533" lon="12.539053721807127"><ele>811.0</ele><time>2026-04-11T10:08:30Z</time></trkpt><trkpt lat="43.40255811794051" lon="12.539184236941765"><ele>808.5999999999999</ele><time>2026-04-11T10:08:32Z</time></trkpt><trkpt lat="43.40257759056596" lon="12.53933947724914"><ele>806.2</ele><time>2026-04-11T10:08:34Z</time></trkpt><trkpt lat="43.40268388782397" lon="12.539396728065354"><ele>803.8</ele><time>2026-04-11T10:08:35Z</time></trkpt><trkpt lat="43.4027621946021" lon="12.539413643477733"><ele>801.4000000000001</ele><time>2026-04-11T10:08:36Z</time></trkpt><trkpt lat="43.402827078102874" lon="12.539487766845875"><ele>799.0</ele><time>2026-04-11T10:08:37Z</time></trkpt><trkpt lat="43.40288124632859" lon="12.539541600559303"><ele>798.6666666666666</ele><time>2026-04-11T10:08:38Z</time></trkpt><trkpt lat="43.40293430058493" lon="12.53960432049569"><ele>798.3333333333333</ele><time>2026-04-11T10:08:39Z</time></trkpt><trkpt lat="43.402969340938064" lon="12.539679557964616"><ele>798.0</ele><time>2026-04-11T10:08:40Z</time></trkpt><trkpt lat="43.402935715523576" lon="12.539813014338133"><ele>797.6666666666667</ele><time>2026-04-11T10:08:42Z</time></trkpt><trkpt lat="43.40285232095919" lon="12.5399335628607"><ele>797.3333333333334</ele><time>2026-04-11T10:08:44Z</time></trkpt><trkpt lat="43.40281716400497" lon="12.540032654397622"><ele>797.0</ele><time>2026-04-11T10:08:45Z</time></trkpt><trkpt lat="43.40281035091401" lon="12.540184213531493"><ele>797.0</ele><time>2026-04-11T10:08:46Z</time></trkpt><trkpt lat="43.40284319605517" lon="12.540318816592874"><ele>797.0</ele><time>2026-04-11T10:08:47Z</time></trkpt><trkpt lat="43.402875690297776" lon="12.540429784172424"><ele>797.0</ele><time>2026-04-11T10:08:48Z</time></trkpt><trkpt lat="43.402911804903674" lon="12.540531411927105"><ele>797.0</ele><time>2026-04-11T10:08:49Z</time></trkpt><trkpt lat="43.402966263264446" lon="12.540631810995627"><ele>797.0</ele><time>2026-04-11T10:08:50Z</time></trkpt><trkpt lat="43.40303468746466" lon="12.540723341492896"><ele>792.5000000000001</ele><time>2026-04-11T10:08:51Z</time></trkpt><trkpt lat="43.4031039799601" lon="12.54080357357637"><ele>788.0</ele><time>2026-04-11T10:08:52Z</time></trkpt><trkpt lat="43.40315829875755" lon="12.540868591105546"><ele>783.5</ele><time>2026-04-11T10:08:53Z</time></trkpt><trkpt lat="43.4032111272042" lon="12.540940212205362"><ele>779.0</ele><time>2026-04-11T10:08:54Z</time></trkpt><trkpt lat="43.403255806594416" lon="12.541009025708854"><ele>774.5000000000001</ele><time>2026-04-11T10:08:55Z</time></trkpt><trkpt lat="43.40329292611099" lon="12.541079043508987"><ele>770.0</ele><time>2026-04-11T10:08:56Z</time></trkpt><trkpt lat="43.4033123239515" lon="12.541220284920046"><ele>770.0000000000001</ele><time>2026-04-11T10:08:58Z</time></trkpt><trkpt lat="43.40326026874057" lon="12.541337558910707"><ele>770.0</ele><time>2026-04-11T10:09:00Z</time></trkpt><trkpt lat="43.403231978125845" lon="12.541423624802498"><ele>770.0</ele><time>2026-04-11T10:09:04Z</time></trkpt><trkpt lat="43.40320471619813" lon="12.541505285068196"><ele>770.0</ele><time>2026-04-11T10:10:22Z</time></trkpt><trkpt lat="43.40319581146248" lon="12.541623586450267"><ele>770.0000000000001</ele><time>2026-04-11T10:10:53Z</time></trkpt><trkpt lat="43.40326029937653" lon="12.541696043105391"><ele>770.0</ele><time>2026-04-11T10:11:08Z</time></trkpt><trkpt lat="43.403339821875015" lon="12.54168789070608"><ele>770.0000000000001</ele><time>2026-04-11T10:13:32Z</time></trkpt><trkpt lat="43.40328692954165" lon="12.541623002662366"><ele>770.0</ele><time>2026-04-11T10:13:38Z</time></trkpt><trkpt lat="43.40328259437838" lon="12.541524838825472"><ele>770.0</ele><time>2026-04-11T10:13:54Z</time></trkpt><trkpt lat="43.40329887486077" lon="12.541635142604472"><ele>770.0</ele><time>2026-04-11T10:28:07Z</time></trkpt><trkpt lat="43.40334133444479" lon="12.541711284053166"><ele>770.0000000000001</ele><time>2026-04-11T10:31:03Z</time></trkpt><trkpt lat="43.40338734911347" lon="12.541813089572178"><ele>770.0</ele><time>2026-04-11T10:31:07Z</time></trkpt><trkpt lat="43.40342599799374" lon="12.541900267959592"><ele>770.0</ele><time>2026-04-11T10:31:09Z</time></trkpt><trkpt lat="43.40349733317357" lon="12.542035587437079"><ele>770.0</ele><time>2026-04-11T10:31:11Z</time></trkpt><trkpt lat="43.40357688203751" lon="12.542171529646641"><ele>770.0</ele><time>2026-04-11T10:31:13Z</time></trkpt><trkpt lat="43.40359250727554" lon="12.54227756776808"><ele>770.0</ele><time>2026-04-11T10:31:14Z</time></trkpt><trkpt lat="43.40363418527465" lon="12.542360243191418"><ele>770.0</ele><time>2026-04-11T10:31:15Z</time></trkpt><trkpt lat="43.40367417414087" lon="12.542444043030443"><ele>770.4</ele><time>2026-04-11T10:31:16Z</time></trkpt><trkpt lat="43.40373723407047" lon="12.542611058659576"><ele>770.8</ele><time>2026-04-11T10:31:18Z</time></trkpt><trkpt lat="43.403766017954354" lon="12.542690262842326"><ele>771.2</ele><time>2026-04-11T10:31:19Z</time></trkpt><trkpt lat="43.40382250084191" lon="12.542852168887972"><ele>771.6</ele><time>2026-04-11T10:31:21Z</time></trkpt><trkpt lat="43.40386318367491" lon="12.542933325208294"><ele>772.0</ele><time>2026-04-11T10:31:22Z</time></trkpt><trkpt lat="43.403930180634426" lon="12.542993149412045"><ele>772.0</ele><time>2026-04-11T10:31:23Z</time></trkpt><trkpt lat="43.40405177000678" lon="12.543051312831878"><ele>772.0</ele><time>2026-04-11T10:31:25Z</time></trkpt><trkpt lat="43.40412619931078" lon="12.543025783970927"><ele>772.0</ele><time>2026-04-11T10:31:26Z</time></trkpt><trkpt lat="43.40419262757012" lon="12.542988200168129"><ele>772.0</ele><time>2026-04-11T10:31:27Z</time></trkpt><trkpt lat="43.4042982857646" lon="12.542928936322477"><ele>772.0</ele><time>2026-04-11T10:31:29Z</time></trkpt><trkpt lat="43.404390164616174" lon="12.543011295310574"><ele>772.0</ele><time>2026-04-11T10:31:31Z</time></trkpt><trkpt lat="43.404442923426515" lon="12.54309087155978"><ele>772.0</ele><time>2026-04-11T10:31:32Z</time></trkpt><trkpt lat="43.404509027455944" lon="12.543170730324315"><ele>772.0</ele><time>2026-04-11T10:31:33Z</time></trkpt><trkpt lat="43.4045982070933" lon="12.543262666388753"><ele>772.0</ele><time>2026-04-11T10:31:34Z</time></trkpt><trkpt lat="43.404682863571075" lon="12.543342582566758"><ele>772.0</ele><time>2026-04-11T10:31:35Z</time></trkpt><trkpt lat="43.40476643039585" lon="12.543414770376955"><ele>770.9999999999999</ele><time>2026-04-11T10:31:36Z</time></trkpt><trkpt lat="43.40484259913252" lon="12.543471852160742"><ele>770.0</ele><time>2026-04-11T10:31:37Z</time></trkpt><trkpt lat="43.40492164570192" lon="12.543509529548022"><ele>769.0</ele><time>2026-04-11T10:31:38Z</time></trkpt><trkpt lat="43.40500185213222" lon="12.543522954971591"><ele>768.0</ele><time>2026-04-11T10:31:39Z</time></trkpt><trkpt lat="43.40507517746079" lon="12.543519134359354"><ele>767.0</ele><time>2026-04-11T10:31:40Z</time></trkpt><trkpt lat="43.40514784385276" lon="12.5434966549815"><ele>766.0</ele><time>2026-04-11T10:31:41Z</time></trkpt><trkpt lat="43.405206773684334" lon="12.54345287029481"><ele>766.0</ele><time>2026-04-11T10:31:42Z</time></trkpt><trkpt lat="43.4052713020845" lon="12.543427611675275"><ele>766.0</ele><time>2026-04-11T10:31:43Z</time></trkpt><trkpt lat="43.40534474410282" lon="12.54339232564623"><ele>766.0</ele><time>2026-04-11T10:31:44Z</time></trkpt><trkpt lat="43.4053864062007" lon="12.54329654602291"><ele>766.0</ele><time>2026-04-11T10:31:45Z</time></trkpt><trkpt lat="43.40541514199458" lon="12.543190521572312"><ele>766.0</ele><time>2026-04-11T10:31:46Z</time></trkpt><trkpt lat="43.405433779031725" lon="12.543061142455924"><ele>766.0</ele><time>2026-04-11T10:31:47.001Z</time></trkpt><trkpt lat="43.40545271557131" lon="12.542908668722378"><ele>765.4</ele><time>2026-04-11T10:31:48.001Z</time></trkpt><trkpt lat="43.405464701830056" lon="12.542777217910846"><ele>764.8</ele><time>2026-04-11T10:31:49.001Z</time></trkpt><trkpt lat="43.40548432986606" lon="12.542646458799384"><ele>764.1999999999999</ele><time>2026-04-11T10:31:50.001Z</time></trkpt><trkpt lat="43.40549406209591" lon="12.54252060214362"><ele>763.5999999999999</ele><time>2026-04-11T10:31:51.001Z</time></trkpt><trkpt lat="43.40551406348999" lon="12.54239524116167"><ele>763.0</ele><time>2026-04-11T10:31:52.001Z</time></trkpt><trkpt lat="43.40553845292391" lon="12.542282582400698"><ele>763.0</ele><time>2026-04-11T10:31:53.001Z</time></trkpt><trkpt lat="43.405570120153286" lon="12.542179496241141"><ele>763.0</ele><time>2026-04-11T10:31:54.001Z</time></trkpt><trkpt lat="43.40560992760696" lon="12.542095828725248"><ele>763.0</ele><time>2026-04-11T10:31:55.001Z</time></trkpt><trkpt lat="43.40570192380968" lon="12.54198776589542"><ele>763.0</ele><time>2026-04-11T10:31:57.001Z</time></trkpt><trkpt lat="43.405773908994085" lon="12.541988185054306"><ele>763.0</ele><time>2026-04-11T10:31:58.001Z</time></trkpt><trkpt lat="43.40583543824294" lon="12.542020382897604"><ele>763.0</ele><time>2026-04-11T10:31:59.001Z</time></trkpt><trkpt lat="43.405896498391655" lon="12.542063075287981"><ele>763.0</ele><time>2026-04-11T10:32:00.001Z</time></trkpt><trkpt lat="43.40596676167775" lon="12.542120262242824"><ele>763.0</ele><time>2026-04-11T10:32:01.001Z</time></trkpt><trkpt lat="43.40604129196169" lon="12.542167942148092"><ele>763.0</ele><time>2026-04-11T10:32:02.001Z</time></trkpt><trkpt lat="43.406116992942174" lon="12.542236309692615"><ele>763.0</ele><time>2026-04-11T10:32:03.001Z</time></trkpt><trkpt lat="43.406209453676844" lon="12.542315909950062"><ele>763.0</ele><time>2026-04-11T10:32:04.001Z</time></trkpt><trkpt lat="43.406298417498526" lon="12.542398661043165"><ele>760.2</ele><time>2026-04-11T10:32:05.001Z</time></trkpt><trkpt lat="43.40636360133084" lon="12.542483784486985"><ele>757.4</ele><time>2026-04-11T10:32:06.001Z</time></trkpt><trkpt lat="43.40641222460477" lon="12.542566678442823"><ele>754.6</ele><time>2026-04-11T10:32:07.001Z</time></trkpt><trkpt lat="43.40650469536297" lon="12.542625367702968"><ele>751.8000000000001</ele><time>2026-04-11T10:32:08.001Z</time></trkpt><trkpt lat="43.40659306756501" lon="12.542704030954653"><ele>749.0</ele><time>2026-04-11T10:32:09.001Z</time></trkpt><trkpt lat="43.406700796520674" lon="12.542718082683997"><ele>749.0</ele><time>2026-04-11T10:32:10.001Z</time></trkpt><trkpt lat="43.40679581207943" lon="12.542775155021928"><ele>749.0</ele><time>2026-04-11T10:32:11.001Z</time></trkpt><trkpt lat="43.40689928841947" lon="12.542813071697134"><ele>749.0</ele><time>2026-04-11T10:32:12.001Z</time></trkpt><trkpt lat="43.406997461425775" lon="12.542849049867717"><ele>749.0</ele><time>2026-04-11T10:32:13.001Z</time></trkpt><trkpt lat="43.407083538337375" lon="12.542880595097884"><ele>749.0</ele><time>2026-04-11T10:32:14.001Z</time></trkpt><trkpt lat="43.40717371449571" lon="12.542913642624887"><ele>751.8333333333333</ele><time>2026-04-11T10:32:15.001Z</time></trkpt><trkpt lat="43.40725856204636" lon="12.542919839025151"><ele>754.6666666666666</ele><time>2026-04-11T10:32:16.001Z</time></trkpt><trkpt lat="43.40733427600107" lon="12.542959065770734"><ele>757.5</ele><time>2026-04-11T10:32:17Z</time></trkpt><trkpt lat="43.407418948730495" lon="12.542980502358608"><ele>760.3333333333334</ele><time>2026-04-11T10:32:18Z</time></trkpt><trkpt lat="43.407478491763996" lon="12.54303750071974"><ele>763.1666666666667</ele><time>2026-04-11T10:32:19Z</time></trkpt><trkpt lat="43.4075415250493" lon="12.543080106735806"><ele>766.0</ele><time>2026-04-11T10:32:20Z</time></trkpt><trkpt lat="43.40759322670804" lon="12.543146821487639"><ele>766.0</ele><time>2026-04-11T10:32:21Z</time></trkpt><trkpt lat="43.4076347467049" lon="12.543220191271992"><ele>766.0</ele><time>2026-04-11T10:32:22Z</time></trkpt><trkpt lat="43.407688529111745" lon="12.543311495111215"><ele>766.0</ele><time>2026-04-11T10:32:23Z</time></trkpt><trkpt lat="43.40774721552075" lon="12.543417780152497"><ele>766.0</ele><time>2026-04-11T10:32:24Z</time></trkpt><trkpt lat="43.407838950807374" lon="12.543508561557443"><ele>766.0</ele><time>2026-04-11T10:32:25Z</time></trkpt><trkpt lat="43.40792020740638" lon="12.543592807126574"><ele>766.0</ele><time>2026-04-11T10:32:26Z</time></trkpt><trkpt lat="43.40800578286277" lon="12.543663490687056"><ele>766.0</ele><time>2026-04-11T10:32:27Z</time></trkpt><trkpt lat="43.40807559601466" lon="12.543746931417397"><ele>766.0</ele><time>2026-04-11T10:32:28Z</time></trkpt><trkpt lat="43.408127029830624" lon="12.54382579930356"><ele>766.0</ele><time>2026-04-11T10:32:29Z</time></trkpt><trkpt lat="43.40816869925512" lon="12.543993411080411"><ele>766.0</ele><time>2026-04-11T10:32:31Z</time></trkpt><trkpt lat="43.40821038883197" lon="12.544112264515386"><ele>769.1666666666667</ele><time>2026-04-11T10:32:32Z</time></trkpt><trkpt lat="43.408262817908394" lon="12.544218180785961"><ele>772.3333333333334</ele><time>2026-04-11T10:32:33Z</time></trkpt><trkpt lat="43.40831875104355" lon="12.544303630514056"><ele>775.5</ele><time>2026-04-11T10:32:34Z</time></trkpt><trkpt lat="43.40838271605122" lon="12.54437385334018"><ele>778.6666666666667</ele><time>2026-04-11T10:32:35Z</time></trkpt><trkpt lat="43.40847260983931" lon="12.544396338627907"><ele>781.8333333333334</ele><time>2026-04-11T10:32:36Z</time></trkpt><trkpt lat="43.40855873126231" lon="12.544392839811099"><ele>785.0</ele><time>2026-04-11T10:32:37Z</time></trkpt><trkpt lat="43.40863624621594" lon="12.544431227873428"><ele>785.0000000000001</ele><time>2026-04-11T10:32:38Z</time></trkpt><trkpt lat="43.40871374013012" lon="12.544467483670033"><ele>785.0</ele><time>2026-04-11T10:32:39Z</time></trkpt><trkpt lat="43.408789752068685" lon="12.54450979193079"><ele>785.0</ele><time>2026-04-11T10:32:40Z</time></trkpt><trkpt lat="43.40887383907941" lon="12.544558752134684"><ele>785.0</ele><time>2026-04-11T10:32:41Z</time></trkpt><trkpt lat="43.40894804337032" lon="12.544592702214953"><ele>785.0000000000001</ele><time>2026-04-11T10:32:42Z</time></trkpt><trkpt lat="43.409029700639955" lon="12.54459534780301"><ele>785.0</ele><time>2026-04-11T10:32:43Z</time></trkpt><trkpt lat="43.40910397871256" lon="12.54460162511634"><ele>786.5714285714286</ele><time>2026-04-11T10:32:44Z</time></trkpt><trkpt lat="43.409170501348996" lon="12.544577829754436"><ele>788.1428571428571</ele><time>2026-04-11T10:32:45Z</time></trkpt><trkpt lat="43.40923387776278" lon="12.544538738885745"><ele>789.7142857142857</ele><time>2026-04-11T10:32:46Z</time></trkpt><trkpt lat="43.409287246303165" lon="12.544487391415446"><ele>791.2857142857142</ele><time>2026-04-11T10:32:47Z</time></trkpt><trkpt lat="43.40932750698089" lon="12.544419897627375"><ele>792.8571428571429</ele><time>2026-04-11T10:32:48Z</time></trkpt><trkpt lat="43.40936389975219" lon="12.544336609708528"><ele>794.4285714285713</ele><time>2026-04-11T10:32:49Z</time></trkpt><trkpt lat="43.409393665693614" lon="12.544251087185389"><ele>796.0</ele><time>2026-04-11T10:32:50Z</time></trkpt><trkpt lat="43.4094027563628" lon="12.544129098681928"><ele>795.9999999999999</ele><time>2026-04-11T10:32:51Z</time></trkpt><trkpt lat="43.40940194071061" lon="12.544029552509999"><ele>796.0</ele><time>2026-04-11T10:32:52Z</time></trkpt><trkpt lat="43.40938331662197" lon="12.543928890303992"><ele>796.0</ele><time>2026-04-11T10:32:53Z</time></trkpt><trkpt lat="43.40935364279084" lon="12.543801442686327"><ele>796.0</ele><time>2026-04-11T10:32:54Z</time></trkpt><trkpt lat="43.40931863285882" lon="12.543690218284523"><ele>795.9999999999999</ele><time>2026-04-11T10:32:55Z</time></trkpt><trkpt lat="43.40930050168743" lon="12.543569310191481"><ele>796.0</ele><time>2026-04-11T10:32:56Z</time></trkpt><trkpt lat="43.4092951109719" lon="12.543422890670904"><ele>795.6666666666666</ele><time>2026-04-11T10:32:57Z</time></trkpt><trkpt lat="43.40927042144896" lon="12.543285205587535"><ele>795.3333333333333</ele><time>2026-04-11T10:32:58Z</time></trkpt><trkpt lat="43.40924942199877" lon="12.543171853274513"><ele>795.0</ele><time>2026-04-11T10:32:59Z</time></trkpt><trkpt lat="43.40922922342515" lon="12.54307328658724"><ele>794.6666666666667</ele><time>2026-04-11T10:33:00Z</time></trkpt><trkpt lat="43.40923889190224" lon="12.542979332175054"><ele>794.3333333333334</ele><time>2026-04-11T10:33:01Z</time></trkpt><trkpt lat="43.40926885990042" lon="12.54289113687394"><ele>794.0</ele><time>2026-04-11T10:33:02Z</time></trkpt><trkpt lat="43.40932199238379" lon="12.542840466658907"><ele>795.6</ele><time>2026-04-11T10:33:03Z</time></trkpt><trkpt lat="43.40939526418946" lon="12.54282145724043"><ele>797.2</ele><time>2026-04-11T10:33:04Z</time></trkpt><trkpt lat="43.409476153458286" lon="12.542822663107893"><ele>798.8000000000001</ele><time>2026-04-11T10:33:05Z</time></trkpt><trkpt lat="43.40957443426445" lon="12.542832688866856"><ele>800.4000000000001</ele><time>2026-04-11T10:33:06Z</time></trkpt><trkpt lat="43.40968942368706" lon="12.542840161482765"><ele>802.0</ele><time>2026-04-11T10:33:07Z</time></trkpt><trkpt lat="43.409841251990755" lon="12.54284544315438"><ele>801.9999999999999</ele><time>2026-04-11T10:33:08Z</time></trkpt><trkpt lat="43.40996439676826" lon="12.542831683773231"><ele>802.0</ele><time>2026-04-11T10:33:09Z</time></trkpt><trkpt lat="43.410052820874036" lon="12.542836247926314"><ele>802.0</ele><time>2026-04-11T10:33:10Z</time></trkpt><trkpt lat="43.41013329214163" lon="12.542818429497824"><ele>802.0</ele><time>2026-04-11T10:33:11Z</time></trkpt><trkpt lat="43.410201394680506" lon="12.54277854600411"><ele>801.9999999999999</ele><time>2026-04-11T10:33:12Z</time></trkpt><trkpt lat="43.41025650814343" lon="12.542732549504436"><ele>802.0</ele><time>2026-04-11T10:33:13Z</time></trkpt><trkpt lat="43.41035017364514" lon="12.542705051322264"><ele>802.0</ele><time>2026-04-11T10:33:15Z</time></trkpt><trkpt lat="43.41038118589597" lon="12.542794141687999"><ele>802.0</ele><time>2026-04-11T10:33:16Z</time></trkpt><trkpt lat="43.41037398382071" lon="12.542908574130003"><ele>802.0</ele><time>2026-04-11T10:33:17Z</time></trkpt><trkpt lat="43.41041767155159" lon="12.543008645593503"><ele>802.0</ele><time>2026-04-11T10:33:18Z</time></trkpt><trkpt lat="43.410531822835175" lon="12.543098293354076"><ele>802.0</ele><time>2026-04-11T10:33:19Z</time></trkpt><trkpt lat="43.410604928185045" lon="12.543146952460024"><ele>805.4000000000001</ele><time>2026-04-11T10:33:20Z</time></trkpt><trkpt lat="43.41070376807351" lon="12.543208422035558"><ele>808.8000000000001</ele><time>2026-04-11T10:33:21Z</time></trkpt><trkpt lat="43.410804021939676" lon="12.543264345610853"><ele>812.2</ele><time>2026-04-11T10:33:22Z</time></trkpt><trkpt lat="43.41089884396444" lon="12.543292588571124"><ele>815.6</ele><time>2026-04-11T10:33:23Z</time></trkpt><trkpt lat="43.41098905050281" lon="12.543306420457549"><ele>819.0</ele><time>2026-04-11T10:33:24Z</time></trkpt><trkpt lat="43.41108100942957" lon="12.543289935934032"><ele>819.0</ele><time>2026-04-11T10:33:25Z</time></trkpt><trkpt lat="43.411170538079126" lon="12.54330357677103"><ele>819.0</ele><time>2026-04-11T10:33:26Z</time></trkpt><trkpt lat="43.411263604048365" lon="12.543310735311598"><ele>819.0</ele><time>2026-04-11T10:33:27Z</time></trkpt><trkpt lat="43.41134350381387" lon="12.543322364397719"><ele>819.0</ele><time>2026-04-11T10:33:28Z</time></trkpt><trkpt lat="43.41142239555748" lon="12.543331785109784"><ele>819.0</ele><time>2026-04-11T10:33:29Z</time></trkpt><trkpt lat="43.411497213577924" lon="12.543328159610745"><ele>819.0</ele><time>2026-04-11T10:33:30Z</time></trkpt><trkpt lat="43.41156266645458" lon="12.543314555679219"><ele>815.6</ele><time>2026-04-11T10:33:31Z</time></trkpt><trkpt lat="43.41164990779612" lon="12.543335003409247"><ele>812.2</ele><time>2026-04-11T10:33:33Z</time></trkpt><trkpt lat="43.411686305680476" lon="12.543417919680126"><ele>808.8000000000001</ele><time>2026-04-11T10:33:34Z</time></trkpt><trkpt lat="43.4116229531346" lon="12.543608543001326"><ele>805.4000000000001</ele><time>2026-04-11T10:33:36Z</time></trkpt><trkpt lat="43.41158674349026" lon="12.543757430260309"><ele>802.0</ele><time>2026-04-11T10:33:37Z</time></trkpt><trkpt lat="43.41154442759947" lon="12.543914442077233"><ele>802.0</ele><time>2026-04-11T10:33:38Z</time></trkpt><trkpt lat="43.41149637373217" lon="12.544069842329062"><ele>802.0</ele><time>2026-04-11T10:33:39Z</time></trkpt><trkpt lat="43.41146374927935" lon="12.544226701004105"><ele>802.0</ele><time>2026-04-11T10:33:40Z</time></trkpt><trkpt lat="43.41141573149457" lon="12.544368122297206"><ele>802.0</ele><time>2026-04-11T10:33:41Z</time></trkpt><trkpt lat="43.41137311982412" lon="12.544501853044602"><ele>804.0</ele><time>2026-04-11T10:33:42Z</time></trkpt><trkpt lat="43.41136283378658" lon="12.544625842727065"><ele>806.0</ele><time>2026-04-11T10:33:43Z</time></trkpt><trkpt lat="43.41141453875892" lon="12.544747408208607"><ele>808.0</ele><time>2026-04-11T10:33:44Z</time></trkpt><trkpt lat="43.41146089717636" lon="12.54487687477701"><ele>810.0</ele><time>2026-04-11T10:33:45Z</time></trkpt><trkpt lat="43.4115181942089" lon="12.544988233382403"><ele>812.0</ele><time>2026-04-11T10:33:46Z</time></trkpt><trkpt lat="43.41157533828409" lon="12.545073118158491"><ele>812.0</ele><time>2026-04-11T10:33:47Z</time></trkpt><trkpt lat="43.41167424978724" lon="12.545086709767507"><ele>812.0</ele><time>2026-04-11T10:33:48Z</time></trkpt><trkpt lat="43.41177184223411" lon="12.54509739908881"><ele>812.0</ele><time>2026-04-11T10:33:49Z</time></trkpt><trkpt lat="43.41189619063615" lon="12.54510348964188"><ele>812.0</ele><time>2026-04-11T10:33:50Z</time></trkpt><trkpt lat="43.412033190681264" lon="12.545129221359279"><ele>812.0</ele><time>2026-04-11T10:33:51Z</time></trkpt><trkpt lat="43.41215651136554" lon="12.545172893330008"><ele>812.0</ele><time>2026-04-11T10:33:52Z</time></trkpt><trkpt lat="43.41225801445802" lon="12.545222400297861"><ele>812.0</ele><time>2026-04-11T10:33:53Z</time></trkpt><trkpt lat="43.41234910476192" lon="12.545258063733101"><ele>812.0</ele><time>2026-04-11T10:33:54Z</time></trkpt><trkpt lat="43.412442669108046" lon="12.545257948578913"><ele>812.0</ele><time>2026-04-11T10:33:55Z</time></trkpt><trkpt lat="43.41252388063201" lon="12.545247955871151"><ele>814.4000000000001</ele><time>2026-04-11T10:33:56Z</time></trkpt><trkpt lat="43.41259824684568" lon="12.545263003139281"><ele>816.8000000000001</ele><time>2026-04-11T10:33:57Z</time></trkpt><trkpt lat="43.41269375903428" lon="12.54531779437106"><ele>819.2</ele><time>2026-04-11T10:33:59Z</time></trkpt><trkpt lat="43.41274655169851" lon="12.545397616850268"><ele>821.6</ele><time>2026-04-11T10:34:00Z</time></trkpt><trkpt lat="43.41283381123631" lon="12.545457686371769"><ele>824.0</ele><time>2026-04-11T10:34:01Z</time></trkpt><trkpt lat="43.41291706408897" lon="12.545536864874624"><ele>824.0000000000001</ele><time>2026-04-11T10:34:02Z</time></trkpt><trkpt lat="43.412988361391555" lon="12.545608357407135"><ele>824.0</ele><time>2026-04-11T10:34:03Z</time></trkpt><trkpt lat="43.4130844351466" lon="12.54563054523756"><ele>824.0</ele><time>2026-04-11T10:34:04Z</time></trkpt><trkpt lat="43.413168827685595" lon="12.54566297952887"><ele>824.0</ele><time>2026-04-11T10:34:05.001Z</time></trkpt><trkpt lat="43.413254079251004" lon="12.545685250046741"><ele>824.0000000000001</ele><time>2026-04-11T10:34:06.001Z</time></trkpt><trkpt lat="43.41333503168701" lon="12.545688800837443"><ele>824.0</ele><time>2026-04-11T10:34:07.001Z</time></trkpt><trkpt lat="43.41341309306867" lon="12.54566691219819"><ele>819.8333333333334</ele><time>2026-04-11T10:34:08.001Z</time></trkpt><trkpt lat="43.41348031726416" lon="12.54562113435579"><ele>815.6666666666667</ele><time>2026-04-11T10:34:09.001Z</time></trkpt><trkpt lat="43.41353359254915" lon="12.545567892352963"><ele>811.5</ele><time>2026-04-11T10:34:10.001Z</time></trkpt><trkpt lat="43.41363792137833" lon="12.545494329314538"><ele>807.3333333333333</ele><time>2026-04-11T10:34:12.001Z</time></trkpt><trkpt lat="43.41370563917998" lon="12.545517562905216"><ele>803.1666666666666</ele><time>2026-04-11T10:34:13.001Z</time></trkpt><trkpt lat="43.41376882639085" lon="12.5455152296592"><ele>799.0</ele><time>2026-04-11T10:34:14.001Z</time></trkpt><trkpt lat="43.41387476122716" lon="12.54552124830686"><ele>799.0</ele><time>2026-04-11T10:34:16.001Z</time></trkpt><trkpt lat="43.4139389624718" lon="12.545530312973375"><ele>799.0</ele><time>2026-04-11T10:34:18.001Z</time></trkpt><trkpt lat="43.41389658198719" lon="12.54561268039139"><ele>799.0</ele><time>2026-04-11T10:34:31Z</time></trkpt><trkpt lat="43.41385315427663" lon="12.545692731888046"><ele>799.0</ele><time>2026-04-11T10:34:32Z</time></trkpt><trkpt lat="43.41380494554704" lon="12.545783948013232"><ele>799.0</ele><time>2026-04-11T10:34:33Z</time></trkpt><trkpt lat="43.41375877242755" lon="12.545871225902566"><ele>799.0</ele><time>2026-04-11T10:34:34Z</time></trkpt><trkpt lat="43.41371336945251" lon="12.545953878858633"><ele>799.0</ele><time>2026-04-11T10:34:35Z</time></trkpt><trkpt lat="43.413667225240836" lon="12.546048318313558"><ele>799.0</ele><time>2026-04-11T10:34:36Z</time></trkpt><trkpt lat="43.41362771002943" lon="12.546159870780942"><ele>799.0</ele><time>2026-04-11T10:34:37Z</time></trkpt><trkpt lat="43.41359318615359" lon="12.546278769116196"><ele>799.0</ele><time>2026-04-11T10:34:38Z</time></trkpt><trkpt lat="43.4135619520142" lon="12.54640455880293"><ele>799.0</ele><time>2026-04-11T10:34:39Z</time></trkpt><trkpt lat="43.41353487077577" lon="12.546546182403018"><ele>799.0</ele><time>2026-04-11T10:34:40Z</time></trkpt><trkpt lat="43.41351284272766" lon="12.546689094291072"><ele>799.2</ele><time>2026-04-11T10:34:41Z</time></trkpt><trkpt lat="43.41349672456286" lon="12.546831263219197"><ele>799.4000000000001</ele><time>2026-04-11T10:34:42Z</time></trkpt><trkpt lat="43.41348854504705" lon="12.546962986066092"><ele>799.6</ele><time>2026-04-11T10:34:43Z</time></trkpt><trkpt lat="43.413485707553434" lon="12.547090846850317"><ele>799.8</ele><time>2026-04-11T10:34:44Z</time></trkpt><trkpt lat="43.413487531565956" lon="12.54721352783703"><ele>800.0</ele><time>2026-04-11T10:34:45Z</time></trkpt><trkpt lat="43.41349662005246" lon="12.547336666960067"><ele>800.0</ele><time>2026-04-11T10:34:46Z</time></trkpt><trkpt lat="43.4135172130745" lon="12.54744683245216"><ele>800.0</ele><time>2026-04-11T10:34:47Z</time></trkpt><trkpt lat="43.41356836896175" lon="12.547567991435042"><ele>800.0</ele><time>2026-04-11T10:34:48Z</time></trkpt><trkpt lat="43.41364418057291" lon="12.547693602348188"><ele>800.0</ele><time>2026-04-11T10:34:49Z</time></trkpt><trkpt lat="43.413725944409556" lon="12.547807383329872"><ele>800.0</ele><time>2026-04-11T10:34:50Z</time></trkpt><trkpt lat="43.413795216142624" lon="12.547910165213944"><ele>798.75</ele><time>2026-04-11T10:34:51Z</time></trkpt><trkpt lat="43.41386869864935" lon="12.548020064266122"><ele>797.5</ele><time>2026-04-11T10:34:52Z</time></trkpt><trkpt lat="43.413948623287006" lon="12.548144075475593"><ele>796.25</ele><time>2026-04-11T10:34:53Z</time></trkpt><trkpt lat="43.41402408715591" lon="12.548266439342676"><ele>795.0</ele><time>2026-04-11T10:34:54Z</time></trkpt><trkpt lat="43.414090728188576" lon="12.548381009400648"><ele>795.0</ele><time>2026-04-11T10:34:55Z</time></trkpt><trkpt lat="43.41416391245338" lon="12.548506953075977"><ele>795.0</ele><time>2026-04-11T10:34:56Z</time></trkpt><trkpt lat="43.41423953629252" lon="12.548634741224136"><ele>795.0</ele><time>2026-04-11T10:34:57Z</time></trkpt><trkpt lat="43.41431996310514" lon="12.54873232040592"><ele>795.0</ele><time>2026-04-11T10:34:58Z</time></trkpt><trkpt lat="43.414378876121184" lon="12.548855042536346"><ele>793.8</ele><time>2026-04-11T10:34:59Z</time></trkpt><trkpt lat="43.41444439473563" lon="12.548947945194296"><ele>792.6</ele><time>2026-04-11T10:35:00Z</time></trkpt><trkpt lat="43.41451973278806" lon="12.549023010818567"><ele>791.4000000000001</ele><time>2026-04-11T10:35:01Z</time></trkpt><trkpt lat="43.41458038346474" lon="12.549121109277063"><ele>790.2</ele><time>2026-04-11T10:35:02Z</time></trkpt><trkpt lat="43.41466522277516" lon="12.549180651887877"><ele>789.0</ele><time>2026-04-11T10:35:03Z</time></trkpt><trkpt lat="43.41475661266304" lon="12.549219235404712"><ele>788.0</ele><time>2026-04-11T10:35:04Z</time></trkpt><trkpt lat="43.41486344874771" lon="12.549198665552089"><ele>787.0</ele><time>2026-04-11T10:35:05Z</time></trkpt><trkpt lat="43.414961133156574" lon="12.549164188222266"><ele>786.0</ele><time>2026-04-11T10:35:06Z</time></trkpt><trkpt lat="43.415068636863744" lon="12.54909642233976"><ele>785.0</ele><time>2026-04-11T10:35:07Z</time></trkpt><trkpt lat="43.41516881023121" lon="12.549009201545466"><ele>784.0</ele><time>2026-04-11T10:35:08Z</time></trkpt><trkpt lat="43.415268033649944" lon="12.54893010201869"><ele>784.0</ele><time>2026-04-11T10:35:09Z</time></trkpt><trkpt lat="43.4153646948951" lon="12.548840452731811"><ele>784.0</ele><time>2026-04-11T10:35:10Z</time></trkpt><trkpt lat="43.415450559315985" lon="12.54873194162498"><ele>784.0</ele><time>2026-04-11T10:35:11Z</time></trkpt><trkpt lat="43.41553360977412" lon="12.548612205087524"><ele>784.0</ele><time>2026-04-11T10:35:12Z</time></trkpt><trkpt lat="43.41561529715174" lon="12.548486054073855"><ele>782.75</ele><time>2026-04-11T10:35:13Z</time></trkpt><trkpt lat="43.4156994384491" lon="12.54835930689476"><ele>781.5</ele><time>2026-04-11T10:35:14Z</time></trkpt><trkpt lat="43.41578209178402" lon="12.548230298558025"><ele>780.25</ele><time>2026-04-11T10:35:15Z</time></trkpt><trkpt lat="43.41585822383962" lon="12.54809480752368"><ele>779.0</ele><time>2026-04-11T10:35:16Z</time></trkpt><trkpt lat="43.41593302895349" lon="12.547955726773852"><ele>776.75</ele><time>2026-04-11T10:35:17Z</time></trkpt><trkpt lat="43.4160119118771" lon="12.547830619528852"><ele>774.5</ele><time>2026-04-11T10:35:18Z</time></trkpt><trkpt lat="43.4160882206338" lon="12.547701304195828"><ele>772.25</ele><time>2026-04-11T10:35:19Z</time></trkpt><trkpt lat="43.41616220884" lon="12.547575259868074"><ele>770.0</ele><time>2026-04-11T10:35:20Z</time></trkpt><trkpt lat="43.41622872897349" lon="12.547457178196593"><ele>770.0</ele><time>2026-04-11T10:35:21Z</time></trkpt><trkpt lat="43.41628927708168" lon="12.547325452843282"><ele>770.0</ele><time>2026-04-11T10:35:22Z</time></trkpt><trkpt lat="43.416355576046776" lon="12.547200601277405"><ele>770.0</ele><time>2026-04-11T10:35:23Z</time></trkpt><trkpt lat="43.41643116073148" lon="12.547082635051726"><ele>770.0</ele><time>2026-04-11T10:35:24Z</time></trkpt><trkpt lat="43.41651415650345" lon="12.546971077849296"><ele>768.5</ele><time>2026-04-11T10:35:25Z</time></trkpt><trkpt lat="43.4166092177037" lon="12.546873361186515"><ele>767.0</ele><time>2026-04-11T10:35:26Z</time></trkpt><trkpt lat="43.41669614159302" lon="12.546767177383098"><ele>765.5</ele><time>2026-04-11T10:35:27Z</time></trkpt><trkpt lat="43.41677884803826" lon="12.546668447534797"><ele>764.0</ele><time>2026-04-11T10:35:28Z</time></trkpt><trkpt lat="43.4168595825215" lon="12.546571232995069"><ele>764.0</ele><time>2026-04-11T10:35:29Z</time></trkpt><trkpt lat="43.41693721320915" lon="12.546475517002326"><ele>764.0</ele><time>2026-04-11T10:35:30Z</time></trkpt><trkpt lat="43.41700332429666" lon="12.546390124600421"><ele>764.0</ele><time>2026-04-11T10:35:31Z</time></trkpt><trkpt lat="43.41707201856846" lon="12.546298921209978"><ele>764.0</ele><time>2026-04-11T10:35:32Z</time></trkpt><trkpt lat="43.417142530250075" lon="12.546215413516736"><ele>764.0</ele><time>2026-04-11T10:35:33Z</time></trkpt><trkpt lat="43.417232665494424" lon="12.546176801934086"><ele>764.8000000000001</ele><time>2026-04-11T10:35:34Z</time></trkpt><trkpt lat="43.41732918710268" lon="12.546144663655468"><ele>765.6</ele><time>2026-04-11T10:35:35Z</time></trkpt><trkpt lat="43.41742277198829" lon="12.546178425481921"><ele>766.4</ele><time>2026-04-11T10:35:36Z</time></trkpt><trkpt lat="43.41752464317646" lon="12.546214078112152"><ele>767.2</ele><time>2026-04-11T10:35:37Z</time></trkpt><trkpt lat="43.41763461477201" lon="12.546237502393552"><ele>768.0</ele><time>2026-04-11T10:35:38Z</time></trkpt><trkpt lat="43.417756478722374" lon="12.546258672691838"><ele>768.0</ele><time>2026-04-11T10:35:39Z</time></trkpt><trkpt lat="43.417884160017955" lon="12.546250646633068"><ele>768.0</ele><time>2026-04-11T10:35:40Z</time></trkpt><trkpt lat="43.41800631500282" lon="12.546222385285267"><ele>768.0</ele><time>2026-04-11T10:35:41Z</time></trkpt><trkpt lat="43.418135963336994" lon="12.546201187843629"><ele>768.0</ele><time>2026-04-11T10:35:42Z</time></trkpt><trkpt lat="43.41826834411973" lon="12.546158987148763"><ele>762.0</ele><time>2026-04-11T10:35:43Z</time></trkpt><trkpt lat="43.41840662175516" lon="12.546118843149152"><ele>756.0</ele><time>2026-04-11T10:35:44Z</time></trkpt><trkpt lat="43.418549855483356" lon="12.546091478788522"><ele>750.0</ele><time>2026-04-11T10:35:45Z</time></trkpt><trkpt lat="43.41869028273692" lon="12.546040049866999"><ele>744.0</ele><time>2026-04-11T10:35:46Z</time></trkpt><trkpt lat="43.418826563877765" lon="12.546004403127524"><ele>744.0</ele><time>2026-04-11T10:35:47Z</time></trkpt><trkpt lat="43.418953785407005" lon="12.545951153802921"><ele>744.0</ele><time>2026-04-11T10:35:48Z</time></trkpt><trkpt lat="43.4190745045473" lon="12.545902566104216"><ele>744.0</ele><time>2026-04-11T10:35:49Z</time></trkpt><trkpt lat="43.41918795570675" lon="12.545857692453872"><ele>744.0</ele><time>2026-04-11T10:35:50Z</time></trkpt><trkpt lat="43.4193030265741" lon="12.545815210308854"><ele>744.0</ele><time>2026-04-11T10:35:51Z</time></trkpt><trkpt lat="43.41941378326339" lon="12.545773456746884"><ele>744.0</ele><time>2026-04-11T10:35:52Z</time></trkpt><trkpt lat="43.4195273673224" lon="12.54574602347687"><ele>744.0</ele><time>2026-04-11T10:35:53Z</time></trkpt><trkpt lat="43.41964158092076" lon="12.545738156005024"><ele>744.0</ele><time>2026-04-11T10:35:54Z</time></trkpt><trkpt lat="43.41974707056397" lon="12.545747244947293"><ele>743.8333333333334</ele><time>2026-04-11T10:35:55Z</time></trkpt><trkpt lat="43.41984896352318" lon="12.545761766153058"><ele>743.6666666666666</ele><time>2026-04-11T10:35:56Z</time></trkpt><trkpt lat="43.419936468179344" lon="12.545774403548535"><ele>743.5</ele><time>2026-04-11T10:35:57Z</time></trkpt><trkpt lat="43.42001843847128" lon="12.545787717821606"><ele>743.3333333333333</ele><time>2026-04-11T10:35:58Z</time></trkpt><trkpt lat="43.420106245465256" lon="12.545803630373943"><ele>743.1666666666666</ele><time>2026-04-11T10:35:59Z</time></trkpt><trkpt lat="43.42018964644018" lon="12.545823993325326"><ele>743.0</ele><time>2026-04-11T10:36:00Z</time></trkpt><trkpt lat="43.42027244434119" lon="12.54584193892928"><ele>743.0</ele><time>2026-04-11T10:36:01Z</time></trkpt><trkpt lat="43.42034972843612" lon="12.545861163243396"><ele>743.0</ele><time>2026-04-11T10:36:02Z</time></trkpt><trkpt lat="43.42042534239527" lon="12.545881293397787"><ele>743.0</ele><time>2026-04-11T10:36:03Z</time></trkpt><trkpt lat="43.420509571790866" lon="12.545897873337099"><ele>743.0</ele><time>2026-04-11T10:36:04Z</time></trkpt><trkpt lat="43.42058829571288" lon="12.545922043433468"><ele>743.0</ele><time>2026-04-11T10:36:05Z</time></trkpt><trkpt lat="43.42067462597843" lon="12.545905732815774"><ele>743.0</ele><time>2026-04-11T10:36:06Z</time></trkpt><trkpt lat="43.42076314904036" lon="12.545867749534505"><ele>742.2</ele><time>2026-04-11T10:36:07Z</time></trkpt><trkpt lat="43.420849871401394" lon="12.54580659354939"><ele>741.4</ele><time>2026-04-11T10:36:08Z</time></trkpt><trkpt lat="43.42093742255895" lon="12.545734706632581"><ele>740.6</ele><time>2026-04-11T10:36:09Z</time></trkpt><trkpt lat="43.42102985026774" lon="12.545655201725912"><ele>739.8000000000001</ele><time>2026-04-11T10:36:10Z</time></trkpt><trkpt lat="43.421124831709875" lon="12.54558789364143"><ele>739.0</ele><time>2026-04-11T10:36:11Z</time></trkpt><trkpt lat="43.42122958958437" lon="12.545536884228826"><ele>738.5</ele><time>2026-04-11T10:36:12Z</time></trkpt><trkpt lat="43.421345027490915" lon="12.545494569795613"><ele>738.0</ele><time>2026-04-11T10:36:13Z</time></trkpt><trkpt lat="43.4214628654359" lon="12.545459228940002"><ele>737.5</ele><time>2026-04-11T10:36:14Z</time></trkpt><trkpt lat="43.42158021210465" lon="12.54541865609367"><ele>737.0</ele><time>2026-04-11T10:36:15Z</time></trkpt><trkpt lat="43.4216977511408" lon="12.545382860501894"><ele>732.75</ele><time>2026-04-11T10:36:16Z</time></trkpt><trkpt lat="43.421816011225715" lon="12.545351401659588"><ele>728.5</ele><time>2026-04-11T10:36:17Z</time></trkpt><trkpt lat="43.421935861482766" lon="12.545327534065484"><ele>724.25</ele><time>2026-04-11T10:36:18Z</time></trkpt><trkpt lat="43.42205105670133" lon="12.545315586173267"><ele>720.0</ele><time>2026-04-11T10:36:19Z</time></trkpt><trkpt lat="43.42214595158231" lon="12.545326795995162"><ele>718.8</ele><time>2026-04-11T10:36:20Z</time></trkpt><trkpt lat="43.42221847362088" lon="12.545363040589546"><ele>717.6</ele><time>2026-04-11T10:36:21Z</time></trkpt><trkpt lat="43.42229025207988" lon="12.545431173683259"><ele>716.4000000000001</ele><time>2026-04-11T10:36:22Z</time></trkpt><trkpt lat="43.42234521846795" lon="12.545568870106573"><ele>715.2</ele><time>2026-04-11T10:36:23Z</time></trkpt><trkpt lat="43.422437884735245" lon="12.545659951689206"><ele>714.0</ele><time>2026-04-11T10:36:24Z</time></trkpt><trkpt lat="43.42255251831456" lon="12.545758698705534"><ele>720.0</ele><time>2026-04-11T10:36:25Z</time></trkpt><trkpt lat="43.42270133114654" lon="12.545849980799808"><ele>726.0</ele><time>2026-04-11T10:36:26Z</time></trkpt><trkpt lat="43.42285403443634" lon="12.545934632365654"><ele>732.0</ele><time>2026-04-11T10:36:27Z</time></trkpt><trkpt lat="43.42294795813258" lon="12.546048706515299"><ele>732.4000000000001</ele><time>2026-04-11T10:36:28Z</time></trkpt><trkpt lat="43.423012693106145" lon="12.546135714252795"><ele>732.8000000000001</ele><time>2026-04-11T10:36:29Z</time></trkpt><trkpt lat="43.42305249913994" lon="12.546239796522293"><ele>733.2</ele><time>2026-04-11T10:36:30Z</time></trkpt><trkpt lat="43.42310903819806" lon="12.546394947940096"><ele>733.6</ele><time>2026-04-11T10:36:31Z</time></trkpt><trkpt lat="43.42317738714455" lon="12.546555528673593"><ele>734.0</ele><time>2026-04-11T10:36:32Z</time></trkpt><trkpt lat="43.42326703980823" lon="12.546688720969367"><ele>734.0</ele><time>2026-04-11T10:36:33Z</time></trkpt><trkpt lat="43.423365240391476" lon="12.546813093735063"><ele>734.0</ele><time>2026-04-11T10:36:34Z</time></trkpt><trkpt lat="43.4234511046114" lon="12.546934657780598"><ele>734.0</ele><time>2026-04-11T10:36:35Z</time></trkpt><trkpt lat="43.42353182356899" lon="12.547051515124044"><ele>734.0</ele><time>2026-04-11T10:36:36Z</time></trkpt><trkpt lat="43.42362072392121" lon="12.547157786699476"><ele>737.5</ele><time>2026-04-11T10:36:37Z</time></trkpt><trkpt lat="43.42371420963788" lon="12.54723757888488"><ele>741.0</ele><time>2026-04-11T10:36:38Z</time></trkpt><trkpt lat="43.42381842245898" lon="12.547242017714982"><ele>744.5</ele><time>2026-04-11T10:36:39Z</time></trkpt><trkpt lat="43.423951331071684" lon="12.547255054350941"><ele>748.0</ele><time>2026-04-11T10:36:40Z</time></trkpt><trkpt lat="43.42406583399774" lon="12.547244259045085"><ele>748.0</ele><time>2026-04-11T10:36:41Z</time></trkpt><trkpt lat="43.424160068274006" lon="12.54723355845554"><ele>748.0</ele><time>2026-04-11T10:36:42Z</time></trkpt><trkpt lat="43.42424967886834" lon="12.54722746936492"><ele>748.0</ele><time>2026-04-11T10:36:43Z</time></trkpt><trkpt lat="43.42433303204641" lon="12.547245237980752"><ele>748.0</ele><time>2026-04-11T10:36:44Z</time></trkpt><trkpt lat="43.42443002611104" lon="12.547300323345265"><ele>748.0</ele><time>2026-04-11T10:36:45Z</time></trkpt><trkpt lat="43.42452129156305" lon="12.547346426789474"><ele>748.0</ele><time>2026-04-11T10:36:46Z</time></trkpt><trkpt lat="43.42461169978049" lon="12.547408725613755"><ele>748.0</ele><time>2026-04-11T10:36:47Z</time></trkpt><trkpt lat="43.42471878673696" lon="12.5474189406272"><ele>748.0</ele><time>2026-04-11T10:36:48Z</time></trkpt><trkpt lat="43.42481642147552" lon="12.547443228084946"><ele>748.0</ele><time>2026-04-11T10:36:49Z</time></trkpt><trkpt lat="43.42492201684545" lon="12.547461625915966"><ele>748.0</ele><time>2026-04-11T10:36:50Z</time></trkpt><trkpt lat="43.425030158347866" lon="12.547469928675437"><ele>745.5</ele><time>2026-04-11T10:36:51Z</time></trkpt><trkpt lat="43.425126195499985" lon="12.547472043789078"><ele>743.0</ele><time>2026-04-11T10:36:52Z</time></trkpt><trkpt lat="43.42520771355413" lon="12.547487790868228"><ele>740.5</ele><time>2026-04-11T10:36:53Z</time></trkpt><trkpt lat="43.42528053947393" lon="12.547528754006212"><ele>738.0</ele><time>2026-04-11T10:36:54Z</time></trkpt><trkpt lat="43.4253305611727" lon="12.547611485618491"><ele>735.5</ele><time>2026-04-11T10:36:55Z</time></trkpt><trkpt lat="43.42539163954192" lon="12.547672745616111"><ele>733.0</ele><time>2026-04-11T10:36:56Z</time></trkpt><trkpt lat="43.42537586679184" lon="12.547805744821789"><ele>737.4</ele><time>2026-04-11T10:36:57Z</time></trkpt><trkpt lat="43.425384412682966" lon="12.547929858083467"><ele>741.8</ele><time>2026-04-11T10:36:58Z</time></trkpt><trkpt lat="43.42538465037764" lon="12.548063967464904"><ele>746.2</ele><time>2026-04-11T10:36:59Z</time></trkpt><trkpt lat="43.42538101507358" lon="12.548205876392768"><ele>750.6</ele><time>2026-04-11T10:37:00Z</time></trkpt><trkpt lat="43.42538546392176" lon="12.54836207732283"><ele>755.0</ele><time>2026-04-11T10:37:01Z</time></trkpt><trkpt lat="43.42540748703666" lon="12.54849643974976"><ele>755.0</ele><time>2026-04-11T10:37:02Z</time></trkpt><trkpt lat="43.42545184729468" lon="12.548618387129968"><ele>755.0</ele><time>2026-04-11T10:37:03Z</time></trkpt><trkpt lat="43.425508456905504" lon="12.548718469633469"><ele>755.0</ele><time>2026-04-11T10:37:04Z</time></trkpt><trkpt lat="43.42559070675423" lon="12.548808614583361"><ele>755.0</ele><time>2026-04-11T10:37:05Z</time></trkpt><trkpt lat="43.42570443064127" lon="12.548848425480049"><ele>755.0</ele><time>2026-04-11T10:37:06Z</time></trkpt><trkpt lat="43.425810994903415" lon="12.54884981643303"><ele>749.4</ele><time>2026-04-11T10:37:07Z</time></trkpt><trkpt lat="43.42590500402588" lon="12.548878814281734"><ele>743.8</ele><time>2026-04-11T10:37:08Z</time></trkpt><trkpt lat="43.42599871395023" lon="12.548841287478957"><ele>738.2</ele><time>2026-04-11T10:37:09Z</time></trkpt><trkpt lat="43.42609747245013" lon="12.548801636212538"><ele>732.6</ele><time>2026-04-11T10:37:10Z</time></trkpt><trkpt lat="43.42619313593689" lon="12.548735753757523"><ele>727.0</ele><time>2026-04-11T10:37:11Z</time></trkpt><trkpt lat="43.4263102735254" lon="12.548652132911815"><ele>720.75</ele><time>2026-04-11T10:37:12Z</time></trkpt><trkpt lat="43.42642332390781" lon="12.548573503696456"><ele>714.5</ele><time>2026-04-11T10:37:13Z</time></trkpt><trkpt lat="43.426545789762585" lon="12.548495704415783"><ele>708.25</ele><time>2026-04-11T10:37:14Z</time></trkpt><trkpt lat="43.42666787331691" lon="12.548416565607749"><ele>702.0</ele><time>2026-04-11T10:37:15Z</time></trkpt><trkpt lat="43.426786297131784" lon="12.548339533039591"><ele>702.0</ele><time>2026-04-11T10:37:16Z</time></trkpt><trkpt lat="43.426919952601864" lon="12.548251983724787"><ele>702.0</ele><time>2026-04-11T10:37:17Z</time></trkpt><trkpt lat="43.427045838128954" lon="12.548174074731017"><ele>702.0</ele><time>2026-04-11T10:37:18Z</time></trkpt><trkpt lat="43.42716149446711" lon="12.54809730358204"><ele>702.0</ele><time>2026-04-11T10:37:19Z</time></trkpt><trkpt lat="43.42727326089443" lon="12.548024238243071"><ele>701.6</ele><time>2026-04-11T10:37:20Z</time></trkpt><trkpt lat="43.427366017722534" lon="12.547959150109472"><ele>701.2</ele><time>2026-04-11T10:37:21Z</time></trkpt><trkpt lat="43.427451311893776" lon="12.547950352104833"><ele>700.8</ele><time>2026-04-11T10:37:22Z</time></trkpt><trkpt lat="43.42753824466661" lon="12.547957993073707"><ele>700.4</ele><time>2026-04-11T10:37:23Z</time></trkpt><trkpt lat="43.42762056622163" lon="12.548010169904368"><ele>700.0</ele><time>2026-04-11T10:37:24Z</time></trkpt><trkpt lat="43.427704750737355" lon="12.548091816133413"><ele>700.0</ele><time>2026-04-11T10:37:25Z</time></trkpt><trkpt lat="43.42781163313386" lon="12.548191196712096"><ele>700.0</ele><time>2026-04-11T10:37:26Z</time></trkpt><trkpt lat="43.427962924150236" lon="12.548333220979696"><ele>700.0</ele><time>2026-04-11T10:37:27Z</time></trkpt><trkpt lat="43.42809956100571" lon="12.548452470097077"><ele>699.0</ele><time>2026-04-11T10:37:28Z</time></trkpt><trkpt lat="43.42823229153923" lon="12.548551467018337"><ele>698.0</ele><time>2026-04-11T10:37:29Z</time></trkpt><trkpt lat="43.428356273434794" lon="12.548671652562271"><ele>697.0</ele><time>2026-04-11T10:37:30Z</time></trkpt><trkpt lat="43.42848273302709" lon="12.548763396142744"><ele>696.0</ele><time>2026-04-11T10:37:31Z</time></trkpt><trkpt lat="43.42861210491913" lon="12.548836938163593"><ele>696.0</ele><time>2026-04-11T10:37:32Z</time></trkpt><trkpt lat="43.42875592631504" lon="12.548901877589952"><ele>696.0</ele><time>2026-04-11T10:37:33Z</time></trkpt><trkpt lat="43.42890904445651" lon="12.548964540389496"><ele>696.0</ele><time>2026-04-11T10:37:34Z</time></trkpt><trkpt lat="43.429064932451475" lon="12.549031508888008"><ele>692.3333333333334</ele><time>2026-04-11T10:37:35Z</time></trkpt><trkpt lat="43.42922388885948" lon="12.549100049222638"><ele>688.6666666666667</ele><time>2026-04-11T10:37:36Z</time></trkpt><trkpt lat="43.42937956996698" lon="12.549149374802559"><ele>685.0</ele><time>2026-04-11T10:37:37Z</time></trkpt><trkpt lat="43.429516840026515" lon="12.549189503204937"><ele>681.75</ele><time>2026-04-11T10:37:38Z</time></trkpt><trkpt lat="43.429645053791646" lon="12.549232091480537"><ele>678.5</ele><time>2026-04-11T10:37:39Z</time></trkpt><trkpt lat="43.4297627043065" lon="12.54928251388348"><ele>675.25</ele><time>2026-04-11T10:37:40Z</time></trkpt><trkpt lat="43.42985876730171" lon="12.549372794592383"><ele>672.0</ele><time>2026-04-11T10:37:41Z</time></trkpt><trkpt lat="43.42994385000777" lon="12.549481478304303"><ele>675.6</ele><time>2026-04-11T10:37:42Z</time></trkpt><trkpt lat="43.43003063509728" lon="12.549591667970402"><ele>679.2</ele><time>2026-04-11T10:37:43Z</time></trkpt><trkpt lat="43.43010329683102" lon="12.549701512928232"><ele>682.8</ele><time>2026-04-11T10:37:44Z</time></trkpt><trkpt lat="43.43014662106529" lon="12.54981935680661"><ele>686.4</ele><time>2026-04-11T10:37:45Z</time></trkpt><trkpt lat="43.43016886042783" lon="12.549964876799482"><ele>690.0</ele><time>2026-04-11T10:37:46Z</time></trkpt><trkpt lat="43.430182418460404" lon="12.550129978544533"><ele>690.0</ele><time>2026-04-11T10:37:47Z</time></trkpt><trkpt lat="43.43021667822631" lon="12.550286342673514"><ele>690.0</ele><time>2026-04-11T10:37:48Z</time></trkpt><trkpt lat="43.43026871613565" lon="12.550433617371887"><ele>690.0</ele><time>2026-04-11T10:37:49Z</time></trkpt><trkpt lat="43.43033625022911" lon="12.550564798302757"><ele>690.0</ele><time>2026-04-11T10:37:50Z</time></trkpt><trkpt lat="43.43043667615145" lon="12.550654740708833"><ele>689.0</ele><time>2026-04-11T10:37:51Z</time></trkpt><trkpt lat="43.43056539728345" lon="12.550677200225698"><ele>688.0</ele><time>2026-04-11T10:37:52Z</time></trkpt><trkpt lat="43.4307043904661" lon="12.550707267549855"><ele>687.0</ele><time>2026-04-11T10:37:53Z</time></trkpt><trkpt lat="43.43080523453086" lon="12.550738150992998"><ele>686.0</ele><time>2026-04-11T10:37:54Z</time></trkpt><trkpt lat="43.430899864134666" lon="12.550812164557229"><ele>686.0</ele><time>2026-04-11T10:37:55Z</time></trkpt><trkpt lat="43.43101702667768" lon="12.55092400375412"><ele>686.0</ele><time>2026-04-11T10:37:56Z</time></trkpt><trkpt lat="43.4311386328207" lon="12.551047101894246"><ele>686.0</ele><time>2026-04-11T10:37:57Z</time></trkpt><trkpt lat="43.43127526305464" lon="12.551098616721186"><ele>686.0</ele><time>2026-04-11T10:37:58Z</time></trkpt><trkpt lat="43.43140572445867" lon="12.551086381902916"><ele>685.1666666666666</ele><time>2026-04-11T10:37:59Z</time></trkpt><trkpt lat="43.43150802166027" lon="12.551136560409526"><ele>684.3333333333333</ele><time>2026-04-11T10:38:00Z</time></trkpt><trkpt lat="43.43158413036558" lon="12.55118440058166"><ele>683.5</ele><time>2026-04-11T10:38:01Z</time></trkpt><trkpt lat="43.43163674607689" lon="12.551270078131893"><ele>682.6666666666666</ele><time>2026-04-11T10:38:02Z</time></trkpt><trkpt lat="43.431661678881056" lon="12.551373587563948"><ele>681.8333333333334</ele><time>2026-04-11T10:38:03Z</time></trkpt><trkpt lat="43.431621530055956" lon="12.551485912901462"><ele>681.0</ele><time>2026-04-11T10:38:04Z</time></trkpt><trkpt lat="43.43159593269096" lon="12.551671009344908"><ele>681.0</ele><time>2026-04-11T10:38:05Z</time></trkpt><trkpt lat="43.431598236958955" lon="12.551847667540931"><ele>681.0</ele><time>2026-04-11T10:38:06Z</time></trkpt><trkpt lat="43.43163808799804" lon="12.552011138869846"><ele>681.0</ele><time>2026-04-11T10:38:07Z</time></trkpt><trkpt lat="43.4317019682748" lon="12.552170394784925"><ele>681.0</ele><time>2026-04-11T10:38:08Z</time></trkpt><trkpt lat="43.43178667285543" lon="12.552334337155719"><ele>682.5</ele><time>2026-04-11T10:38:09Z</time></trkpt><trkpt lat="43.43188498779121" lon="12.55251672465826"><ele>684.0</ele><time>2026-04-11T10:38:10Z</time></trkpt><trkpt lat="43.43197071088653" lon="12.552667561630376"><ele>685.5</ele><time>2026-04-11T10:38:11Z</time></trkpt><trkpt lat="43.4320566729827" lon="12.55280197619788"><ele>687.0</ele><time>2026-04-11T10:38:12Z</time></trkpt><trkpt lat="43.432144137624284" lon="12.552919478243746"><ele>688.4000000000001</ele><time>2026-04-11T10:38:13Z</time></trkpt><trkpt lat="43.432221511451424" lon="12.55301544843724"><ele>689.8000000000001</ele><time>2026-04-11T10:38:14Z</time></trkpt><trkpt lat="43.432297737266964" lon="12.553105125915677"><ele>691.2</ele><time>2026-04-11T10:38:15Z</time></trkpt><trkpt lat="43.4323943228338" lon="12.55320699510562"><ele>692.6</ele><time>2026-04-11T10:38:16Z</time></trkpt><trkpt lat="43.432497857241906" lon="12.55329666866465"><ele>694.0</ele><time>2026-04-11T10:38:17Z</time></trkpt><trkpt lat="43.432608120168915" lon="12.55334069649136"><ele>694.0</ele><time>2026-04-11T10:38:18Z</time></trkpt><trkpt lat="43.432699237451395" lon="12.55340071993231"><ele>694.0</ele><time>2026-04-11T10:38:19Z</time></trkpt><trkpt lat="43.4327457951955" lon="12.55350853916699"><ele>694.0</ele><time>2026-04-11T10:38:20Z</time></trkpt><trkpt lat="43.43279549677556" lon="12.553612663303946"><ele>694.0</ele><time>2026-04-11T10:38:21Z</time></trkpt><trkpt lat="43.43283693174395" lon="12.553718264628131"><ele>694.0</ele><time>2026-04-11T10:38:22Z</time></trkpt><trkpt lat="43.43287946437024" lon="12.553843667246648"><ele>693.4000000000001</ele><time>2026-04-11T10:38:23Z</time></trkpt><trkpt lat="43.43294429597007" lon="12.553937254256763"><ele>692.8</ele><time>2026-04-11T10:38:24Z</time></trkpt><trkpt lat="43.43304076337823" lon="12.553987900490256"><ele>692.2</ele><time>2026-04-11T10:38:25Z</time></trkpt><trkpt lat="43.43313561395199" lon="12.554033599411481"><ele>691.5999999999999</ele><time>2026-04-11T10:38:26Z</time></trkpt><trkpt lat="43.43322760398592" lon="12.554055282070365"><ele>691.0</ele><time>2026-04-11T10:38:27Z</time></trkpt><trkpt lat="43.43331584016546" lon="12.554053991369184"><ele>691.0</ele><time>2026-04-11T10:38:28Z</time></trkpt><trkpt lat="43.433414671728514" lon="12.554020778734479"><ele>691.0</ele><time>2026-04-11T10:38:29Z</time></trkpt><trkpt lat="43.43351665114427" lon="12.554003010470135"><ele>691.0</ele><time>2026-04-11T10:38:30Z</time></trkpt><trkpt lat="43.433623289596504" lon="12.553960474078584"><ele>691.0</ele><time>2026-04-11T10:38:31Z</time></trkpt><trkpt lat="43.43371653140941" lon="12.553933432988032"><ele>691.0</ele><time>2026-04-11T10:38:32Z</time></trkpt><trkpt lat="43.43380287738969" lon="12.553900701271354"><ele>688.1666666666667</ele><time>2026-04-11T10:38:33Z</time></trkpt><trkpt lat="43.43388855991844" lon="12.553870605154158"><ele>685.3333333333334</ele><time>2026-04-11T10:38:34Z</time></trkpt><trkpt lat="43.433978543899514" lon="12.553845765693618"><ele>682.5</ele><time>2026-04-11T10:38:35Z</time></trkpt><trkpt lat="43.434062681312895" lon="12.553820768226325"><ele>679.6666666666666</ele><time>2026-04-11T10:38:36Z</time></trkpt><trkpt lat="43.43414879716323" lon="12.553790069028944"><ele>676.8333333333333</ele><time>2026-04-11T10:38:37Z</time></trkpt><trkpt lat="43.43422970629738" lon="12.553764493429721"><ele>674.0</ele><time>2026-04-11T10:38:38Z</time></trkpt><trkpt lat="43.43429827558232" lon="12.553756737801773"><ele>674.0</ele><time>2026-04-11T10:38:39Z</time></trkpt><trkpt lat="43.43436487726384" lon="12.553761588685731"><ele>674.0</ele><time>2026-04-11T10:38:40Z</time></trkpt><trkpt lat="43.434426250978674" lon="12.553792274412865"><ele>674.0</ele><time>2026-04-11T10:38:41Z</time></trkpt><trkpt lat="43.43446328111928" lon="12.553870592485023"><ele>674.0</ele><time>2026-04-11T10:38:42Z</time></trkpt><trkpt lat="43.43449302889739" lon="12.553963272337885"><ele>674.0</ele><time>2026-04-11T10:38:43Z</time></trkpt><trkpt lat="43.434516389696704" lon="12.554084093138762"><ele>674.0</ele><time>2026-04-11T10:38:44Z</time></trkpt><trkpt lat="43.434561696487265" lon="12.55420909941518"><ele>674.0</ele><time>2026-04-11T10:38:45Z</time></trkpt><trkpt lat="43.43462447535387" lon="12.55433913435522"><ele>674.0</ele><time>2026-04-11T10:38:46Z</time></trkpt><trkpt lat="43.43470969223043" lon="12.554468745429201"><ele>674.0</ele><time>2026-04-11T10:38:47Z</time></trkpt><trkpt lat="43.434791777042314" lon="12.55458531171973"><ele>674.0</ele><time>2026-04-11T10:38:48Z</time></trkpt><trkpt lat="43.4348721552786" lon="12.554695422483"><ele>672.0</ele><time>2026-04-11T10:38:49Z</time></trkpt><trkpt lat="43.43494806305906" lon="12.554799616685232"><ele>670.0</ele><time>2026-04-11T10:38:50Z</time></trkpt><trkpt lat="43.43502944547559" lon="12.55488749840062"><ele>668.0</ele><time>2026-04-11T10:38:51Z</time></trkpt><trkpt lat="43.4351015236568" lon="12.55498576511968"><ele>666.0</ele><time>2026-04-11T10:38:52Z</time></trkpt><trkpt lat="43.43517232399415" lon="12.555084083403996"><ele>664.0</ele><time>2026-04-11T10:38:53Z</time></trkpt><trkpt lat="43.43524561575034" lon="12.555176222852067"><ele>664.0</ele><time>2026-04-11T10:38:54Z</time></trkpt><trkpt lat="43.435316552693024" lon="12.555269225530928"><ele>664.0</ele><time>2026-04-11T10:38:55Z</time></trkpt><trkpt lat="43.435372738388644" lon="12.555363862549562"><ele>664.0</ele><time>2026-04-11T10:38:56Z</time></trkpt><trkpt lat="43.435393493754624" lon="12.555492232160157"><ele>664.0</ele><time>2026-04-11T10:38:57Z</time></trkpt><trkpt lat="43.43538863386872" lon="12.555616856218736"><ele>664.0</ele><time>2026-04-11T10:38:58Z</time></trkpt><trkpt lat="43.435392209061334" lon="12.555779545006523"><ele>664.0</ele><time>2026-04-11T10:38:59Z</time></trkpt><trkpt lat="43.43541311535289" lon="12.555959565865408"><ele>664.0</ele><time>2026-04-11T10:39:00Z</time></trkpt><trkpt lat="43.43545798217161" lon="12.556119905904533"><ele>664.0</ele><time>2026-04-11T10:39:01Z</time></trkpt><trkpt lat="43.43551964232842" lon="12.556276160122824"><ele>664.0</ele><time>2026-04-11T10:39:02Z</time></trkpt><trkpt lat="43.435607336095785" lon="12.55640893615518"><ele>664.0</ele><time>2026-04-11T10:39:03Z</time></trkpt><trkpt lat="43.435666067006814" lon="12.556562918517724"><ele>664.0</ele><time>2026-04-11T10:39:04Z</time></trkpt><trkpt lat="43.43572971395944" lon="12.556688835222898"><ele>664.0</ele><time>2026-04-11T10:39:05Z</time></trkpt><trkpt lat="43.43578725284755" lon="12.55679799780577"><ele>664.0</ele><time>2026-04-11T10:39:06Z</time></trkpt><trkpt lat="43.43585352701334" lon="12.556884867772135"><ele>664.0</ele><time>2026-04-11T10:39:07Z</time></trkpt><trkpt lat="43.435932344091206" lon="12.556940059900056"><ele>664.0</ele><time>2026-04-11T10:39:08Z</time></trkpt><trkpt lat="43.43601093001638" lon="12.556962925924035"><ele>664.0</ele><time>2026-04-11T10:39:09Z</time></trkpt><trkpt lat="43.436088616814885" lon="12.556953417510362"><ele>664.0</ele><time>2026-04-11T10:39:10Z</time></trkpt><trkpt lat="43.43618812652988" lon="12.556937097231199"><ele>664.0</ele><time>2026-04-11T10:39:11Z</time></trkpt><trkpt lat="43.43629209576439" lon="12.55690940462996"><ele>664.0</ele><time>2026-04-11T10:39:12Z</time></trkpt><trkpt lat="43.43642597569126" lon="12.556880672339465"><ele>663.2</ele><time>2026-04-11T10:39:13Z</time></trkpt><trkpt lat="43.43655746445478" lon="12.556867543474915"><ele>662.4000000000001</ele><time>2026-04-11T10:39:14Z</time></trkpt><trkpt lat="43.43666440002985" lon="12.5568698273877"><ele>661.6</ele><time>2026-04-11T10:39:15Z</time></trkpt><trkpt lat="43.43676164456985" lon="12.55690404272426"><ele>660.8</ele><time>2026-04-11T10:39:16Z</time></trkpt><trkpt lat="43.43685132138072" lon="12.55695986712631"><ele>660.0</ele><time>2026-04-11T10:39:17Z</time></trkpt><trkpt lat="43.43696263780393" lon="12.557032698025445"><ele>663.0</ele><time>2026-04-11T10:39:18Z</time></trkpt><trkpt lat="43.437101015481595" lon="12.557122712608939"><ele>666.0</ele><time>2026-04-11T10:39:19Z</time></trkpt><trkpt lat="43.43721275011939" lon="12.557178234337234"><ele>669.0</ele><time>2026-04-11T10:39:20Z</time></trkpt><trkpt lat="43.43726810844861" lon="12.557260185942745"><ele>672.0</ele><time>2026-04-11T10:39:21Z</time></trkpt><trkpt lat="43.43731216408502" lon="12.55733271734152"><ele>675.0</ele><time>2026-04-11T10:39:22Z</time></trkpt><trkpt lat="43.437345545602135" lon="12.557420519043285"><ele>675.0</ele><time>2026-04-11T10:39:23Z</time></trkpt><trkpt lat="43.43731863868657" lon="12.557519784447086"><ele>675.0</ele><time>2026-04-11T10:39:24Z</time></trkpt><trkpt lat="43.43729086486003" lon="12.55761995304087"><ele>675.0</ele><time>2026-04-11T10:39:25Z</time></trkpt><trkpt lat="43.43717282803229" lon="12.557678247274287"><ele>675.0</ele><time>2026-04-11T10:39:27Z</time></trkpt><trkpt lat="43.43709654357234" lon="12.557680283920678"><ele>675.0</ele><time>2026-04-11T10:39:28Z</time></trkpt><trkpt lat="43.43700974165275" lon="12.557605619896355"><ele>676.2</ele><time>2026-04-11T10:39:29Z</time></trkpt><trkpt lat="43.436909962290095" lon="12.55750701207042"><ele>677.4</ele><time>2026-04-11T10:39:30Z</time></trkpt><trkpt lat="43.436806853850264" lon="12.557419295766842"><ele>678.5999999999999</ele><time>2026-04-11T10:39:31Z</time></trkpt><trkpt lat="43.43671935081236" lon="12.557378310878779"><ele>679.8</ele><time>2026-04-11T10:39:32Z</time></trkpt><trkpt lat="43.4366310838626" lon="12.557377301991119"><ele>681.0</ele><time>2026-04-11T10:39:33Z</time></trkpt><trkpt lat="43.43652751957058" lon="12.557368269491363"><ele>681.0</ele><time>2026-04-11T10:39:34Z</time></trkpt><trkpt lat="43.43639283874469" lon="12.557401307903726"><ele>681.0</ele><time>2026-04-11T10:39:35Z</time></trkpt><trkpt lat="43.43625900640555" lon="12.557470216019668"><ele>681.0</ele><time>2026-04-11T10:39:36Z</time></trkpt><trkpt lat="43.436146041297974" lon="12.557545732878053"><ele>681.0</ele><time>2026-04-11T10:39:37Z</time></trkpt><trkpt lat="43.43604604965953" lon="12.55762443688818"><ele>681.1999999999999</ele><time>2026-04-11T10:39:38Z</time></trkpt><trkpt lat="43.43595387841891" lon="12.557718470935336"><ele>681.4</ele><time>2026-04-11T10:39:39Z</time></trkpt><trkpt lat="43.43588193711672" lon="12.557822730235504"><ele>681.6</ele><time>2026-04-11T10:39:40Z</time></trkpt><trkpt lat="43.4358108457143" lon="12.557905067780846"><ele>681.8</ele><time>2026-04-11T10:39:41Z</time></trkpt><trkpt lat="43.435711134248244" lon="12.557975438387107"><ele>682.0</ele><time>2026-04-11T10:39:42Z</time></trkpt><trkpt lat="43.43558404095062" lon="12.558036701166188"><ele>681.0</ele><time>2026-04-11T10:39:43Z</time></trkpt><trkpt lat="43.4354721985514" lon="12.558091671454095"><ele>680.0</ele><time>2026-04-11T10:39:44Z</time></trkpt><trkpt lat="43.43536500338779" lon="12.55816651791098"><ele>679.0</ele><time>2026-04-11T10:39:45Z</time></trkpt><trkpt lat="43.435253238724165" lon="12.558218579418188"><ele>678.0</ele><time>2026-04-11T10:39:46Z</time></trkpt><trkpt lat="43.43514320110734" lon="12.558273976812702"><ele>680.25</ele><time>2026-04-11T10:39:47Z</time></trkpt><trkpt lat="43.43502776673766" lon="12.55833089010834"><ele>682.5</ele><time>2026-04-11T10:39:48Z</time></trkpt><trkpt lat="43.43491608260982" lon="12.558393972042786"><ele>684.75</ele><time>2026-04-11T10:39:49Z</time></trkpt><trkpt lat="43.43481337831801" lon="12.558466610015126"><ele>687.0</ele><time>2026-04-11T10:39:50Z</time></trkpt><trkpt lat="43.43472114609715" lon="12.558546689544835"><ele>686.4000000000001</ele><time>2026-04-11T10:39:51Z</time></trkpt><trkpt lat="43.434630639200385" lon="12.558591263611365"><ele>685.8000000000001</ele><time>2026-04-11T10:39:52Z</time></trkpt><trkpt lat="43.43455206675062" lon="12.558670199755195"><ele>685.2</ele><time>2026-04-11T10:39:53Z</time></trkpt><trkpt lat="43.43448859374771" lon="12.558756682922247"><ele>684.6</ele><time>2026-04-11T10:39:54Z</time></trkpt><trkpt lat="43.43443601227271" lon="12.558863249072123"><ele>684.0</ele><time>2026-04-11T10:39:55Z</time></trkpt><trkpt lat="43.43440063933597" lon="12.558999159824905"><ele>684.0</ele><time>2026-04-11T10:39:56Z</time></trkpt><trkpt lat="43.43440280441341" lon="12.559154821313316"><ele>684.0</ele><time>2026-04-11T10:39:57Z</time></trkpt><trkpt lat="43.434426427682915" lon="12.559321034569688"><ele>684.0</ele><time>2026-04-11T10:39:58Z</time></trkpt><trkpt lat="43.43444470095165" lon="12.559486304726223"><ele>684.0</ele><time>2026-04-11T10:39:59Z</time></trkpt><trkpt lat="43.434451557108986" lon="12.559635304269205"><ele>679.8000000000001</ele><time>2026-04-11T10:40:00Z</time></trkpt><trkpt lat="43.434438811706386" lon="12.559776385418807"><ele>675.6</ele><time>2026-04-11T10:40:01Z</time></trkpt><trkpt lat="43.434422791951526" lon="12.559917003210465"><ele>671.4</ele><time>2026-04-11T10:40:02Z</time></trkpt><trkpt lat="43.434408643880474" lon="12.560048707605178"><ele>667.2</ele><time>2026-04-11T10:40:03Z</time></trkpt><trkpt lat="43.43439584151446" lon="12.560171117055042"><ele>663.0</ele><time>2026-04-11T10:40:04Z</time></trkpt><trkpt lat="43.43437928626154" lon="12.560278150392728"><ele>660.5</ele><time>2026-04-11T10:40:05Z</time></trkpt><trkpt lat="43.43435606026318" lon="12.560377055572351"><ele>658.0</ele><time>2026-04-11T10:40:06Z</time></trkpt><trkpt lat="43.434315805118416" lon="12.560463763673502"><ele>655.5</ele><time>2026-04-11T10:40:07Z</time></trkpt><trkpt lat="43.43424430294438" lon="12.560524958365232"><ele>653.0</ele><time>2026-04-11T10:40:08Z</time></trkpt><trkpt lat="43.43415388112151" lon="12.56057505786204"><ele>650.5</ele><time>2026-04-11T10:40:09Z</time></trkpt><trkpt lat="43.43403966475416" lon="12.560573087693292"><ele>648.0</ele><time>2026-04-11T10:40:10Z</time></trkpt><trkpt lat="43.43392598487469" lon="12.560537670931897"><ele>648.0</ele><time>2026-04-11T10:40:11Z</time></trkpt><trkpt lat="43.43380825125667" lon="12.560441006418364"><ele>648.0</ele><time>2026-04-11T10:40:12Z</time></trkpt><trkpt lat="43.43365915909831" lon="12.560367990609478"><ele>648.0</ele><time>2026-04-11T10:40:13Z</time></trkpt><trkpt lat="43.4335250728058" lon="12.560287308571409"><ele>648.0</ele><time>2026-04-11T10:40:14Z</time></trkpt><trkpt lat="43.43340356722333" lon="12.560253910725942"><ele>647.2</ele><time>2026-04-11T10:40:15Z</time></trkpt><trkpt lat="43.43328886913013" lon="12.560273708063429"><ele>646.4</ele><time>2026-04-11T10:40:16Z</time></trkpt><trkpt lat="43.433185857442666" lon="12.56030688243223"><ele>645.6</ele><time>2026-04-11T10:40:17Z</time></trkpt><trkpt lat="43.43306783620395" lon="12.56041465290172"><ele>644.8000000000001</ele><time>2026-04-11T10:40:18Z</time></trkpt><trkpt lat="43.432999464930454" lon="12.560468853228423"><ele>644.0</ele><time>2026-04-11T10:40:19Z</time></trkpt><trkpt lat="43.432923227590074" lon="12.560501573616953"><ele>642.6</ele><time>2026-04-11T10:40:20Z</time></trkpt><trkpt lat="43.43284964166958" lon="12.560495008626528"><ele>641.2</ele><time>2026-04-11T10:40:21Z</time></trkpt><trkpt lat="43.432776408263884" lon="12.560399503657793"><ele>639.8000000000001</ele><time>2026-04-11T10:40:22Z</time></trkpt><trkpt lat="43.432671198720186" lon="12.560298035469717"><ele>638.4000000000001</ele><time>2026-04-11T10:40:23Z</time></trkpt><trkpt lat="43.43257232183475" lon="12.560157703756456"><ele>637.0</ele><time>2026-04-11T10:40:24Z</time></trkpt><trkpt lat="43.43248086239269" lon="12.560049106897582"><ele>639.8</ele><time>2026-04-11T10:40:25Z</time></trkpt><trkpt lat="43.432380242789975" lon="12.559974818049993"><ele>642.6</ele><time>2026-04-11T10:40:26Z</time></trkpt><trkpt lat="43.43228167744895" lon="12.559921653828306"><ele>645.4</ele><time>2026-04-11T10:40:27Z</time></trkpt><trkpt lat="43.43218397873879" lon="12.559882626018311"><ele>648.1999999999999</ele><time>2026-04-11T10:40:28Z</time></trkpt><trkpt lat="43.43207889840357" lon="12.559843071835612"><ele>651.0</ele><time>2026-04-11T10:40:29Z</time></trkpt><trkpt lat="43.43197718653112" lon="12.559795325001959"><ele>651.0</ele><time>2026-04-11T10:40:30Z</time></trkpt><trkpt lat="43.431885770945094" lon="12.559732492366452"><ele>651.0</ele><time>2026-04-11T10:40:31Z</time></trkpt><trkpt lat="43.43180937208028" lon="12.55962612257824"><ele>651.0</ele><time>2026-04-11T10:40:32Z</time></trkpt><trkpt lat="43.43172399069115" lon="12.559553919879148"><ele>651.0</ele><time>2026-04-11T10:40:33Z</time></trkpt><trkpt lat="43.43162292843387" lon="12.559524556339962"><ele>651.0</ele><time>2026-04-11T10:40:34Z</time></trkpt><trkpt lat="43.43150612135594" lon="12.55953788880558"><ele>651.0</ele><time>2026-04-11T10:40:35Z</time></trkpt><trkpt lat="43.43139590439466" lon="12.559576056261"><ele>651.0</ele><time>2026-04-11T10:40:36Z</time></trkpt><trkpt lat="43.431287373325596" lon="12.559627814933148"><ele>651.0</ele><time>2026-04-11T10:40:37Z</time></trkpt><trkpt lat="43.43119868901185" lon="12.559721798345112"><ele>651.0</ele><time>2026-04-11T10:40:38Z</time></trkpt><trkpt lat="43.431119341252824" lon="12.559848205755287"><ele>653.0</ele><time>2026-04-11T10:40:39Z</time></trkpt><trkpt lat="43.431051551270336" lon="12.559985096391333"><ele>655.0</ele><time>2026-04-11T10:40:40Z</time></trkpt><trkpt lat="43.43099359318734" lon="12.56009808191433"><ele>657.0</ele><time>2026-04-11T10:40:41Z</time></trkpt><trkpt lat="43.43093718816929" lon="12.560164693188112"><ele>659.0</ele><time>2026-04-11T10:40:42Z</time></trkpt><trkpt lat="43.430867676156" lon="12.560200271170045"><ele>661.0</ele><time>2026-04-11T10:40:43Z</time></trkpt><trkpt lat="43.43079479327972" lon="12.56021724430215"><ele>663.0</ele><time>2026-04-11T10:40:44Z</time></trkpt><trkpt lat="43.430703102069586" lon="12.560167451589978"><ele>663.0</ele><time>2026-04-11T10:40:45Z</time></trkpt><trkpt lat="43.43061500656869" lon="12.560086357752944"><ele>663.0</ele><time>2026-04-11T10:40:46Z</time></trkpt><trkpt lat="43.43054720315323" lon="12.560004600925705"><ele>663.0</ele><time>2026-04-11T10:40:47Z</time></trkpt><trkpt lat="43.43048763012593" lon="12.559945172962713"><ele>663.0</ele><time>2026-04-11T10:40:48Z</time></trkpt><trkpt lat="43.43038624174761" lon="12.559871806256401"><ele>663.0</ele><time>2026-04-11T10:40:50Z</time></trkpt><trkpt lat="43.4302948759311" lon="12.55988111985356"><ele>661.0</ele><time>2026-04-11T10:40:52Z</time></trkpt><trkpt lat="43.43022380672008" lon="12.55989433873829"><ele>659.0</ele><time>2026-04-11T10:40:54Z</time></trkpt><trkpt lat="43.43020292297837" lon="12.559991646238142"><ele>657.0</ele><time>2026-04-11T10:41:36Z</time></trkpt><trkpt lat="43.430261329557794" lon="12.560127947702265"><ele>655.0</ele><time>2026-04-11T10:41:39Z</time></trkpt><trkpt lat="43.43033564634657" lon="12.560289176825327"><ele>653.0</ele><time>2026-04-11T10:41:41Z</time></trkpt><trkpt lat="43.430406765658745" lon="12.560443338905744"><ele>650.5714285714287</ele><time>2026-04-11T10:41:43Z</time></trkpt><trkpt lat="43.430436897312404" lon="12.560525982197674"><ele>648.1428571428571</ele><time>2026-04-11T10:41:44Z</time></trkpt><trkpt lat="43.4304501218282" lon="12.560617721726606"><ele>645.7142857142858</ele><time>2026-04-11T10:41:45Z</time></trkpt><trkpt lat="43.43045610159485" lon="12.560714538865602"><ele>643.2857142857143</ele><time>2026-04-11T10:41:46Z</time></trkpt><trkpt lat="43.43045843752157" lon="12.560819345337881"><ele>640.8571428571429</ele><time>2026-04-11T10:41:47Z</time></trkpt><trkpt lat="43.43045965020404" lon="12.560932490129483"><ele>638.4285714285714</ele><time>2026-04-11T10:41:48Z</time></trkpt><trkpt lat="43.4304590507682" lon="12.561042442271397"><ele>636.0</ele><time>2026-04-11T10:41:49Z</time></trkpt><trkpt lat="43.43045583198144" lon="12.56114413404169"><ele>636.2857142857142</ele><time>2026-04-11T10:41:50Z</time></trkpt><trkpt lat="43.43045326631121" lon="12.561243528006704"><ele>636.5714285714287</ele><time>2026-04-11T10:41:51Z</time></trkpt><trkpt lat="43.43045185582965" lon="12.561340754001334"><ele>636.8571428571429</ele><time>2026-04-11T10:41:52Z</time></trkpt><trkpt lat="43.43045136522166" lon="12.561440262571923"><ele>637.1428571428571</ele><time>2026-04-11T10:41:53Z</time></trkpt><trkpt lat="43.43045392194216" lon="12.561541141542929"><ele>637.4285714285713</ele><time>2026-04-11T10:41:54Z</time></trkpt><trkpt lat="43.43046195234639" lon="12.561637338835032"><ele>637.7142857142858</ele><time>2026-04-11T10:41:55Z</time></trkpt><trkpt lat="43.430479691024594" lon="12.56174200544084"><ele>638.0</ele><time>2026-04-11T10:41:56Z</time></trkpt><trkpt lat="43.43051177874319" lon="12.561857453517328"><ele>638.0</ele><time>2026-04-11T10:41:57Z</time></trkpt><trkpt lat="43.43055493598877" lon="12.561968365071992"><ele>638.0</ele><time>2026-04-11T10:41:58Z</time></trkpt><trkpt lat="43.43060129943767" lon="12.562081830404695"><ele>638.0</ele><time>2026-04-11T10:41:59Z</time></trkpt><trkpt lat="43.43064156463643" lon="12.56218897067436"><ele>638.0</ele><time>2026-04-11T10:42:00Z</time></trkpt><trkpt lat="43.43065672993721" lon="12.562301577407073"><ele>638.0</ele><time>2026-04-11T10:42:01Z</time></trkpt><trkpt lat="43.43068597918069" lon="12.562420119517833"><ele>638.0</ele><time>2026-04-11T10:42:02Z</time></trkpt><trkpt lat="43.43071055149595" lon="12.562525552602915"><ele>637.8333333333333</ele><time>2026-04-11T10:42:03Z</time></trkpt><trkpt lat="43.43072302928227" lon="12.562638290182235"><ele>637.6666666666666</ele><time>2026-04-11T10:42:04Z</time></trkpt><trkpt lat="43.43071853128612" lon="12.562755470725877"><ele>637.5</ele><time>2026-04-11T10:42:05Z</time></trkpt><trkpt lat="43.43069728983351" lon="12.562875217121688"><ele>637.3333333333334</ele><time>2026-04-11T10:42:06Z</time></trkpt><trkpt lat="43.430665457028525" lon="12.562992114174255"><ele>637.1666666666667</ele><time>2026-04-11T10:42:07Z</time></trkpt><trkpt lat="43.43062120681512" lon="12.563107301163715"><ele>637.0</ele><time>2026-04-11T10:42:08Z</time></trkpt><trkpt lat="43.430566864945355" lon="12.563209466073497"><ele>637.0</ele><time>2026-04-11T10:42:09Z</time></trkpt><trkpt lat="43.43050955471076" lon="12.56331116292408"><ele>637.0</ele><time>2026-04-11T10:42:10Z</time></trkpt><trkpt lat="43.430456629862" lon="12.563407276867446"><ele>637.0</ele><time>2026-04-11T10:42:11Z</time></trkpt><trkpt lat="43.430398390663456" lon="12.563516741318084"><ele>637.0</ele><time>2026-04-11T10:42:12Z</time></trkpt><trkpt lat="43.4303365044757" lon="12.56363541843398"><ele>637.0</ele><time>2026-04-11T10:42:13Z</time></trkpt><trkpt lat="43.430278235815365" lon="12.563754974904695"><ele>631.6</ele><time>2026-04-11T10:42:14Z</time></trkpt><trkpt lat="43.43023038201841" lon="12.563865670071499"><ele>626.2</ele><time>2026-04-11T10:42:15Z</time></trkpt><trkpt lat="43.43019074334853" lon="12.56398861155245"><ele>620.8</ele><time>2026-04-11T10:42:16Z</time></trkpt><trkpt lat="43.43016432263032" lon="12.564116505391377"><ele>615.4</ele><time>2026-04-11T10:42:17Z</time></trkpt><trkpt lat="43.430147351924866" lon="12.564247200170978"><ele>610.0</ele><time>2026-04-11T10:42:18Z</time></trkpt><trkpt lat="43.43014202082662" lon="12.564383124401528"><ele>610.0</ele><time>2026-04-11T10:42:19Z</time></trkpt><trkpt lat="43.43015051131644" lon="12.564507120523315"><ele>610.0</ele><time>2026-04-11T10:42:20Z</time></trkpt><trkpt lat="43.43016234119771" lon="12.564631330631014"><ele>610.0</ele><time>2026-04-11T10:42:21Z</time></trkpt><trkpt lat="43.430178959809936" lon="12.564724887791431"><ele>610.0</ele><time>2026-04-11T10:42:22Z</time></trkpt><trkpt lat="43.43020133500752" lon="12.564809645972701"><ele>610.0</ele><time>2026-04-11T10:42:23Z</time></trkpt><trkpt lat="43.43024381905655" lon="12.564892703812912"><ele>610.0</ele><time>2026-04-11T10:42:24Z</time></trkpt><trkpt lat="43.43032274016044" lon="12.564957356781465"><ele>609.0</ele><time>2026-04-11T10:42:25Z</time></trkpt><trkpt lat="43.43040256064305" lon="12.565024349068317"><ele>608.0</ele><time>2026-04-11T10:42:26Z</time></trkpt><trkpt lat="43.43048026361613" lon="12.565098216973857"><ele>607.0</ele><time>2026-04-11T10:42:27Z</time></trkpt><trkpt lat="43.43054895388792" lon="12.565176204864406"><ele>606.0</ele><time>2026-04-11T10:42:28Z</time></trkpt><trkpt lat="43.430603094846475" lon="12.565267362998371"><ele>605.0</ele><time>2026-04-11T10:42:29Z</time></trkpt><trkpt lat="43.43063787483033" lon="12.565381966547585"><ele>603.8</ele><time>2026-04-11T10:42:30Z</time></trkpt><trkpt lat="43.43068076361573" lon="12.565509375596882"><ele>602.6</ele><time>2026-04-11T10:42:31Z</time></trkpt><trkpt lat="43.4307198783975" lon="12.565636938889858"><ele>601.4</ele><time>2026-04-11T10:42:32Z</time></trkpt><trkpt lat="43.430757312416986" lon="12.565760719425786"><ele>600.2</ele><time>2026-04-11T10:42:33Z</time></trkpt><trkpt lat="43.43080079162324" lon="12.565890719290394"><ele>599.0</ele><time>2026-04-11T10:42:34Z</time></trkpt><trkpt lat="43.43084165923251" lon="12.566008727101845"><ele>599.0</ele><time>2026-04-11T10:42:35Z</time></trkpt><trkpt lat="43.43088701473395" lon="12.56611578587927"><ele>599.0</ele><time>2026-04-11T10:42:36Z</time></trkpt><trkpt lat="43.43087887217394" lon="12.566249406809959"><ele>599.0</ele><time>2026-04-11T10:42:37Z</time></trkpt><trkpt lat="43.43091811474299" lon="12.566411855680622"><ele>599.0</ele><time>2026-04-11T10:42:39Z</time></trkpt><trkpt lat="43.43098404135396" lon="12.56649097919013"><ele>599.0</ele><time>2026-04-11T10:42:40Z</time></trkpt><trkpt lat="43.43107242612202" lon="12.566539961946738"><ele>595.75</ele><time>2026-04-11T10:42:41Z</time></trkpt><trkpt lat="43.43115708720165" lon="12.566630831539657"><ele>592.5</ele><time>2026-04-11T10:42:42Z</time></trkpt><trkpt lat="43.43127570439567" lon="12.566698553405175"><ele>589.25</ele><time>2026-04-11T10:42:43Z</time></trkpt><trkpt lat="43.43138896060434" lon="12.566786916999453"><ele>586.0</ele><time>2026-04-11T10:42:44Z</time></trkpt><trkpt lat="43.43148937889767" lon="12.5668911271718"><ele>586.0</ele><time>2026-04-11T10:42:45Z</time></trkpt><trkpt lat="43.431605718568065" lon="12.566983059280307"><ele>586.0</ele><time>2026-04-11T10:42:46Z</time></trkpt><trkpt lat="43.43171761135405" lon="12.567071477460502"><ele>586.0</ele><time>2026-04-11T10:42:47Z</time></trkpt><trkpt lat="43.43181832266049" lon="12.567151431882383"><ele>586.0</ele><time>2026-04-11T10:42:48Z</time></trkpt><trkpt lat="43.43190834241575" lon="12.567224033787765"><ele>583.1666666666667</ele><time>2026-04-11T10:42:49Z</time></trkpt><trkpt lat="43.43199178037786" lon="12.567293954610758"><ele>580.3333333333334</ele><time>2026-04-11T10:42:50Z</time></trkpt><trkpt lat="43.43205825912046" lon="12.567362672880325"><ele>577.5</ele><time>2026-04-11T10:42:51Z</time></trkpt><trkpt lat="43.43210773287298" lon="12.567433990540415"><ele>574.6666666666666</ele><time>2026-04-11T10:42:52Z</time></trkpt><trkpt lat="43.4321295248688" lon="12.567527337211558"><ele>571.8333333333333</ele><time>2026-04-11T10:42:53Z</time></trkpt><trkpt lat="43.43215607510105" lon="12.567622111374718"><ele>569.0</ele><time>2026-04-11T10:42:54Z</time></trkpt><trkpt lat="43.43219539281887" lon="12.567750212789344"><ele>567.0</ele><time>2026-04-11T10:42:55Z</time></trkpt><trkpt lat="43.43223942826007" lon="12.567874275038251"><ele>565.0</ele><time>2026-04-11T10:42:56Z</time></trkpt><trkpt lat="43.432249218899706" lon="12.568003436570095"><ele>563.0</ele><time>2026-04-11T10:42:57Z</time></trkpt><trkpt lat="43.43224393606561" lon="12.568114295081802"><ele>561.0</ele><time>2026-04-11T10:42:58Z</time></trkpt><trkpt lat="43.432231024032255" lon="12.568206162557434"><ele>559.0</ele><time>2026-04-11T10:42:59Z</time></trkpt><trkpt lat="43.43219704530893" lon="12.568338629354631"><ele>557.0</ele><time>2026-04-11T10:43:01Z</time></trkpt><trkpt lat="43.432109159766696" lon="12.568361734443673"><ele>554.1666666666666</ele><time>2026-04-11T10:43:03Z</time></trkpt><trkpt lat="43.43203436810558" lon="12.568340824789203"><ele>551.3333333333333</ele><time>2026-04-11T10:43:04Z</time></trkpt><trkpt lat="43.431966418589376" lon="12.568302574328772"><ele>548.5</ele><time>2026-04-11T10:43:05Z</time></trkpt><trkpt lat="43.43186899846167" lon="12.56829605211883"><ele>545.6666666666666</ele><time>2026-04-11T10:43:07Z</time></trkpt><trkpt lat="43.431813332961035" lon="12.568425328600057"><ele>542.8333333333334</ele><time>2026-04-11T10:43:09Z</time></trkpt><trkpt lat="43.43181193606558" lon="12.568549845681527"><ele>540.0</ele><time>2026-04-11T10:43:10Z</time></trkpt><trkpt lat="43.43181673000937" lon="12.568675780941106"><ele>538.1666666666666</ele><time>2026-04-11T10:43:11Z</time></trkpt><trkpt lat="43.431805617480876" lon="12.568782151647792"><ele>536.3333333333334</ele><time>2026-04-11T10:43:12Z</time></trkpt><trkpt lat="43.43178146903804" lon="12.568886143079643"><ele>534.5</ele><time>2026-04-11T10:43:13Z</time></trkpt><trkpt lat="43.43175178222466" lon="12.568981414344805"><ele>532.6666666666667</ele><time>2026-04-11T10:43:14Z</time></trkpt><trkpt lat="43.431724996547075" lon="12.569079100174266"><ele>530.8333333333334</ele><time>2026-04-11T10:43:15Z</time></trkpt><trkpt lat="43.4316816338137" lon="12.569168802859334"><ele>529.0</ele><time>2026-04-11T10:43:16Z</time></trkpt><trkpt lat="43.43162485550676" lon="12.569220913672465"><ele>529.0</ele><time>2026-04-11T10:43:17Z</time></trkpt><trkpt lat="43.43155111156722" lon="12.569261453928814"><ele>529.0</ele><time>2026-04-11T10:43:18Z</time></trkpt><trkpt lat="43.43147109864892" lon="12.569258602725919"><ele>529.0</ele><time>2026-04-11T10:43:19Z</time></trkpt><trkpt lat="43.43140224424627" lon="12.569213448136763"><ele>529.0</ele><time>2026-04-11T10:43:20Z</time></trkpt><trkpt lat="43.43135510880929" lon="12.569132749105847"><ele>529.0</ele><time>2026-04-11T10:43:21Z</time></trkpt><trkpt lat="43.43133447871224" lon="12.569013430188411"><ele>529.0</ele><time>2026-04-11T10:43:22Z</time></trkpt><trkpt lat="43.431331353464245" lon="12.568871844323843"><ele>529.0</ele><time>2026-04-11T10:43:23Z</time></trkpt><trkpt lat="43.43132047360491" lon="12.568757423360395"><ele>529.0</ele><time>2026-04-11T10:43:24Z</time></trkpt><trkpt lat="43.43127851341595" lon="12.568677273593845"><ele>529.0</ele><time>2026-04-11T10:43:25Z</time></trkpt><trkpt lat="43.431213998526545" lon="12.568649405206452"><ele>529.0</ele><time>2026-04-11T10:43:26Z</time></trkpt><trkpt lat="43.431155040920835" lon="12.568688301898199"><ele>529.0</ele><time>2026-04-11T10:43:27Z</time></trkpt><trkpt lat="43.43110276543134" lon="12.568768768891553"><ele>529.0</ele><time>2026-04-11T10:43:28Z</time></trkpt><trkpt lat="43.43106582556618" lon="12.568872989495857"><ele>530.4</ele><time>2026-04-11T10:43:29Z</time></trkpt><trkpt lat="43.431018109924125" lon="12.568978746649899"><ele>531.8</ele><time>2026-04-11T10:43:30Z</time></trkpt><trkpt lat="43.430954443993826" lon="12.569092538550413"><ele>533.2</ele><time>2026-04-11T10:43:31Z</time></trkpt><trkpt lat="43.43088781594699" lon="12.569207456276127"><ele>534.6</ele><time>2026-04-11T10:43:32Z</time></trkpt><trkpt lat="43.43082048909612" lon="12.569314641085487"><ele>536.0</ele><time>2026-04-11T10:43:33Z</time></trkpt><trkpt lat="43.43076565793109" lon="12.569412254575829"><ele>536.0</ele><time>2026-04-11T10:43:34Z</time></trkpt><trkpt lat="43.43070369519093" lon="12.569496325434804"><ele>536.0</ele><time>2026-04-11T10:43:35Z</time></trkpt><trkpt lat="43.430640617230885" lon="12.569563344303571"><ele>536.0</ele><time>2026-04-11T10:43:36Z</time></trkpt><trkpt lat="43.43057567348258" lon="12.569628989368026"><ele>536.0</ele><time>2026-04-11T10:43:37Z</time></trkpt><trkpt lat="43.43048938920382" lon="12.569683123637638"><ele>536.0</ele><time>2026-04-11T10:43:38Z</time></trkpt><trkpt lat="43.43037139637955" lon="12.56973029423674"><ele>536.75</ele><time>2026-04-11T10:43:39Z</time></trkpt><trkpt lat="43.43023749070959" lon="12.569796842443132"><ele>537.5</ele><time>2026-04-11T10:43:40Z</time></trkpt><trkpt lat="43.430116849569345" lon="12.569873496202943"><ele>538.25</ele><time>2026-04-11T10:43:41Z</time></trkpt><trkpt lat="43.43000070075356" lon="12.56997138921656"><ele>539.0</ele><time>2026-04-11T10:43:42Z</time></trkpt><trkpt lat="43.42990046844296" lon="12.570069017266382"><ele>539.0</ele><time>2026-04-11T10:43:43Z</time></trkpt><trkpt lat="43.42981322704137" lon="12.570151340331924"><ele>539.0</ele><time>2026-04-11T10:43:44Z</time></trkpt><trkpt lat="43.42974048316301" lon="12.57022340576277"><ele>539.0</ele><time>2026-04-11T10:43:45Z</time></trkpt><trkpt lat="43.42968581635595" lon="12.57028611490336"><ele>539.0</ele><time>2026-04-11T10:43:46Z</time></trkpt><trkpt lat="43.42963338278866" lon="12.570336425603735"><ele>539.0</ele><time>2026-04-11T10:43:47Z</time></trkpt><trkpt lat="43.429584168566834" lon="12.570404885814863"><ele>539.0</ele><time>2026-04-11T10:43:48Z</time></trkpt><trkpt lat="43.42954493023891" lon="12.570497028763835"><ele>539.6</ele><time>2026-04-11T10:43:49Z</time></trkpt><trkpt lat="43.42950406737295" lon="12.570600665833243"><ele>540.2</ele><time>2026-04-11T10:43:50Z</time></trkpt><trkpt lat="43.42945661894142" lon="12.570718664807847"><ele>540.8000000000001</ele><time>2026-04-11T10:43:51Z</time></trkpt><trkpt lat="43.429407455583906" lon="12.570834092264548"><ele>541.4</ele><time>2026-04-11T10:43:52Z</time></trkpt><trkpt lat="43.42936982299121" lon="12.570957272751334"><ele>542.0</ele><time>2026-04-11T10:43:53Z</time></trkpt><trkpt lat="43.42934521309506" lon="12.571088058591926"><ele>539.2</ele><time>2026-04-11T10:43:54Z</time></trkpt><trkpt lat="43.42934109157769" lon="12.571222305441205"><ele>536.4000000000001</ele><time>2026-04-11T10:43:55Z</time></trkpt><trkpt lat="43.429348222994996" lon="12.571354964323062"><ele>533.5999999999999</ele><time>2026-04-11T10:43:56Z</time></trkpt><trkpt lat="43.429346525191406" lon="12.571484743989089"><ele>530.8</ele><time>2026-04-11T10:43:57Z</time></trkpt><trkpt lat="43.429325543056436" lon="12.571610211474107"><ele>528.0</ele><time>2026-04-11T10:43:58Z</time></trkpt><trkpt lat="43.42928374287392" lon="12.571722022108228"><ele>528.0</ele><time>2026-04-11T10:43:59Z</time></trkpt><trkpt lat="43.429227669716205" lon="12.571857337712398"><ele>528.0</ele><time>2026-04-11T10:44:00Z</time></trkpt><trkpt lat="43.42913998846052" lon="12.572029341631778"><ele>528.0</ele><time>2026-04-11T10:44:01Z</time></trkpt><trkpt lat="43.42904039503554" lon="12.572188654443439"><ele>528.0</ele><time>2026-04-11T10:44:02Z</time></trkpt><trkpt lat="43.42895768102805" lon="12.572304214389039"><ele>530.6</ele><time>2026-04-11T10:44:03Z</time></trkpt><trkpt lat="43.4288777166108" lon="12.572391645058794"><ele>533.1999999999999</ele><time>2026-04-11T10:44:04Z</time></trkpt><trkpt lat="43.42878846849443" lon="12.572449579700763"><ele>535.8</ele><time>2026-04-11T10:44:05Z</time></trkpt><trkpt lat="43.428695633498066" lon="12.572475530123834"><ele>538.4</ele><time>2026-04-11T10:44:06Z</time></trkpt><trkpt lat="43.42860787885321" lon="12.572471358849766"><ele>541.0</ele><time>2026-04-11T10:44:07Z</time></trkpt><trkpt lat="43.428519792942836" lon="12.572465391924036"><ele>541.0</ele><time>2026-04-11T10:44:08Z</time></trkpt><trkpt lat="43.42843639857569" lon="12.572462003824418"><ele>541.0</ele><time>2026-04-11T10:44:09Z</time></trkpt><trkpt lat="43.42835756265131" lon="12.572448591928532"><ele>541.0</ele><time>2026-04-11T10:44:10Z</time></trkpt><trkpt lat="43.428277129022476" lon="12.57242107844601"><ele>541.0</ele><time>2026-04-11T10:44:11Z</time></trkpt><trkpt lat="43.42820676567712" lon="12.572397677291333"><ele>541.0</ele><time>2026-04-11T10:44:12Z</time></trkpt><trkpt lat="43.42814257005413" lon="12.57240679784181"><ele>541.0</ele><time>2026-04-11T10:44:13Z</time></trkpt><trkpt lat="43.42806524594227" lon="12.572536396529001"><ele>541.0</ele><time>2026-04-11T10:44:15Z</time></trkpt><trkpt lat="43.428034907852734" lon="12.572641241353566"><ele>541.0</ele><time>2026-04-11T10:44:16Z</time></trkpt><trkpt lat="43.427997867874815" lon="12.572777246467897"><ele>541.0</ele><time>2026-04-11T10:44:17Z</time></trkpt><trkpt lat="43.42794902547404" lon="12.572917466979568"><ele>541.0</ele><time>2026-04-11T10:44:18Z</time></trkpt><trkpt lat="43.42788870066249" lon="12.57304096873114"><ele>541.0</ele><time>2026-04-11T10:44:19Z</time></trkpt><trkpt lat="43.42782383546216" lon="12.573172263004478"><ele>540.2</ele><time>2026-04-11T10:44:20Z</time></trkpt><trkpt lat="43.42775969011233" lon="12.57330867390753"><ele>539.4000000000001</ele><time>2026-04-11T10:44:21Z</time></trkpt><trkpt lat="43.42770067636376" lon="12.573430929161574"><ele>538.6</ele><time>2026-04-11T10:44:22Z</time></trkpt><trkpt lat="43.42763380091177" lon="12.573536658948266"><ele>537.8000000000001</ele><time>2026-04-11T10:44:23Z</time></trkpt><trkpt lat="43.42755326612949" lon="12.573641641084809"><ele>537.0</ele><time>2026-04-11T10:44:24Z</time></trkpt><trkpt lat="43.427475034378446" lon="12.57373905714093"><ele>537.0</ele><time>2026-04-11T10:44:25Z</time></trkpt><trkpt lat="43.42740391867148" lon="12.573830512067623"><ele>537.0</ele><time>2026-04-11T10:44:26Z</time></trkpt><trkpt lat="43.42733816831949" lon="12.573916939915875"><ele>537.0</ele><time>2026-04-11T10:44:27Z</time></trkpt><trkpt lat="43.42726445065179" lon="12.574010199453776"><ele>537.0</ele><time>2026-04-11T10:44:28Z</time></trkpt><trkpt lat="43.427192709434834" lon="12.574107514914147"><ele>537.0</ele><time>2026-04-11T10:44:29Z</time></trkpt><trkpt lat="43.427135211121104" lon="12.5742079296784"><ele>537.4</ele><time>2026-04-11T10:44:30Z</time></trkpt><trkpt lat="43.4270683560654" lon="12.574313095999388"><ele>537.8000000000001</ele><time>2026-04-11T10:44:31Z</time></trkpt><trkpt lat="43.427002610829774" lon="12.574420882570474"><ele>538.2</ele><time>2026-04-11T10:44:32Z</time></trkpt><trkpt lat="43.42693759837117" lon="12.57451015700422"><ele>538.6</ele><time>2026-04-11T10:44:33Z</time></trkpt><trkpt lat="43.42688458679628" lon="12.574589021129896"><ele>539.0</ele><time>2026-04-11T10:44:34Z</time></trkpt><trkpt lat="43.42682949292127" lon="12.574669999802415"><ele>539.0</ele><time>2026-04-11T10:44:35Z</time></trkpt><trkpt lat="43.4267601782251" lon="12.574751343910282"><ele>539.0</ele><time>2026-04-11T10:44:36Z</time></trkpt><trkpt lat="43.42668343656284" lon="12.57484240846015"><ele>539.0</ele><time>2026-04-11T10:44:37Z</time></trkpt><trkpt lat="43.42659281989657" lon="12.574910760928985"><ele>539.0</ele><time>2026-04-11T10:44:38Z</time></trkpt><trkpt lat="43.426514475209075" lon="12.574971799480005"><ele>539.0</ele><time>2026-04-11T10:44:39Z</time></trkpt><trkpt lat="43.42644527737341" lon="12.575035244100066"><ele>539.0</ele><time>2026-04-11T10:44:40Z</time></trkpt><trkpt lat="43.426386710450764" lon="12.575108955160005"><ele>539.0</ele><time>2026-04-11T10:44:41Z</time></trkpt><trkpt lat="43.42630799348086" lon="12.575270994398734"><ele>539.0</ele><time>2026-04-11T10:44:43Z</time></trkpt><trkpt lat="43.426282661738355" lon="12.575368264330882"><ele>539.0</ele><time>2026-04-11T10:44:44Z</time></trkpt><trkpt lat="43.42626542527472" lon="12.575465187561647"><ele>539.0</ele><time>2026-04-11T10:44:45Z</time></trkpt><trkpt lat="43.42625534553449" lon="12.575566911703328"><ele>539.0</ele><time>2026-04-11T10:44:46Z</time></trkpt><trkpt lat="43.42625520143297" lon="12.57567616470968"><ele>539.1666666666666</ele><time>2026-04-11T10:44:47Z</time></trkpt><trkpt lat="43.4262626273878" lon="12.575777771976945"><ele>539.3333333333333</ele><time>2026-04-11T10:44:48Z</time></trkpt><trkpt lat="43.42627114831068" lon="12.575876159407514"><ele>539.5</ele><time>2026-04-11T10:44:49Z</time></trkpt><trkpt lat="43.42628141847024" lon="12.575977024575407"><ele>539.6666666666666</ele><time>2026-04-11T10:44:50Z</time></trkpt><trkpt lat="43.42629643167661" lon="12.57608228163283"><ele>539.8333333333334</ele><time>2026-04-11T10:44:51Z</time></trkpt><trkpt lat="43.426314785221415" lon="12.57619547503999"><ele>540.0</ele><time>2026-04-11T10:44:52Z</time></trkpt><trkpt lat="43.426332182528064" lon="12.576316540621198"><ele>535.6</ele><time>2026-04-11T10:44:53Z</time></trkpt><trkpt lat="43.42634763460547" lon="12.5764473280297"><ele>531.2</ele><time>2026-04-11T10:44:54Z</time></trkpt><trkpt lat="43.426367858302" lon="12.576579695965188"><ele>526.8</ele><time>2026-04-11T10:44:55Z</time></trkpt><trkpt lat="43.42638941874274" lon="12.576717680152573"><ele>522.4</ele><time>2026-04-11T10:44:56Z</time></trkpt><trkpt lat="43.426408722851356" lon="12.576851438919475"><ele>518.0</ele><time>2026-04-11T10:44:57Z</time></trkpt><trkpt lat="43.426428119623054" lon="12.576987070386984"><ele>516.0</ele><time>2026-04-11T10:44:58Z</time></trkpt><trkpt lat="43.426449092790094" lon="12.577127689067192"><ele>514.0</ele><time>2026-04-11T10:44:59Z</time></trkpt><trkpt lat="43.42647482753357" lon="12.57726287221098"><ele>511.99999999999994</ele><time>2026-04-11T10:45:00Z</time></trkpt><trkpt lat="43.42649747521631" lon="12.577394655147486"><ele>510.0</ele><time>2026-04-11T10:45:01Z</time></trkpt><trkpt lat="43.42652447304616" lon="12.57752514474931"><ele>508.0</ele><time>2026-04-11T10:45:02Z</time></trkpt><trkpt lat="43.4265400802091" lon="12.5776576794758"><ele>508.0</ele><time>2026-04-11T10:45:03Z</time></trkpt><trkpt lat="43.42655327131699" lon="12.577800690910887"><ele>508.0</ele><time>2026-04-11T10:45:04Z</time></trkpt><trkpt lat="43.426555356301265" lon="12.577953966420038"><ele>508.0</ele><time>2026-04-11T10:45:05Z</time></trkpt><trkpt lat="43.42654401143453" lon="12.578120622552031"><ele>508.0</ele><time>2026-04-11T10:45:06Z</time></trkpt><trkpt lat="43.42653019435388" lon="12.57828497929403"><ele>506.59999999999997</ele><time>2026-04-11T10:45:07Z</time></trkpt><trkpt lat="43.42652449362536" lon="12.578443180650735"><ele>505.19999999999993</ele><time>2026-04-11T10:45:08Z</time></trkpt><trkpt lat="43.426530544651165" lon="12.578595552875477"><ele>503.8</ele><time>2026-04-11T10:45:09Z</time></trkpt><trkpt lat="43.42654340458717" lon="12.57874944305231"><ele>502.4</ele><time>2026-04-11T10:45:10Z</time></trkpt><trkpt lat="43.42655898828685" lon="12.578896760073542"><ele>501.0</ele><time>2026-04-11T10:45:11Z</time></trkpt><trkpt lat="43.42659668868413" lon="12.579028624340227"><ele>500.6</ele><time>2026-04-11T10:45:12Z</time></trkpt><trkpt lat="43.42664370557247" lon="12.579143693115542"><ele>500.20000000000005</ele><time>2026-04-11T10:45:13Z</time></trkpt><trkpt lat="43.42671147267702" lon="12.579242177875873"><ele>499.79999999999995</ele><time>2026-04-11T10:45:14Z</time></trkpt><trkpt lat="43.42679571008667" lon="12.579347445820515"><ele>499.4</ele><time>2026-04-11T10:45:15Z</time></trkpt><trkpt lat="43.42687547735576" lon="12.579445313089904"><ele>499.0</ele><time>2026-04-11T10:45:16Z</time></trkpt><trkpt lat="43.426945379426236" lon="12.579519378182352"><ele>499.00000000000006</ele><time>2026-04-11T10:45:17Z</time></trkpt><trkpt lat="43.42700405384226" lon="12.579594988833493"><ele>499.0</ele><time>2026-04-11T10:45:18Z</time></trkpt><trkpt lat="43.42704849195148" lon="12.579679846099188"><ele>499.0</ele><time>2026-04-11T10:45:19Z</time></trkpt><trkpt lat="43.42707993552583" lon="12.579790301225785"><ele>499.0</ele><time>2026-04-11T10:45:20Z</time></trkpt><trkpt lat="43.42709813633767" lon="12.579919524730547"><ele>499.00000000000006</ele><time>2026-04-11T10:45:21Z</time></trkpt><trkpt lat="43.42710692661088" lon="12.580047457020061"><ele>499.0</ele><time>2026-04-11T10:45:22Z</time></trkpt><trkpt lat="43.42710921069406" lon="12.580173185668905"><ele>499.0</ele><time>2026-04-11T10:45:23Z</time></trkpt><trkpt lat="43.427094407824434" lon="12.580294509462973"><ele>499.0</ele><time>2026-04-11T10:45:24Z</time></trkpt><trkpt lat="43.42705130854152" lon="12.580397417293904"><ele>499.0</ele><time>2026-04-11T10:45:25Z</time></trkpt><trkpt lat="43.42699948866951" lon="12.58050016666191"><ele>499.0</ele><time>2026-04-11T10:45:26Z</time></trkpt><trkpt lat="43.42692528034192" lon="12.580617588679432"><ele>499.0</ele><time>2026-04-11T10:45:27Z</time></trkpt><trkpt lat="43.426836097545426" lon="12.580713311047905"><ele>497.79999999999995</ele><time>2026-04-11T10:45:28Z</time></trkpt><trkpt lat="43.42675442041938" lon="12.58080571775879"><ele>496.59999999999997</ele><time>2026-04-11T10:45:29Z</time></trkpt><trkpt lat="43.426672068385244" lon="12.58091229462596"><ele>495.4</ele><time>2026-04-11T10:45:30Z</time></trkpt><trkpt lat="43.426589615490904" lon="12.58102220957125"><ele>494.2</ele><time>2026-04-11T10:45:31Z</time></trkpt><trkpt lat="43.42650686023548" lon="12.581122420461874"><ele>493.0</ele><time>2026-04-11T10:45:32Z</time></trkpt><trkpt lat="43.42642620326766" lon="12.58121915233875"><ele>493.0</ele><time>2026-04-11T10:45:33Z</time></trkpt><trkpt lat="43.42634681760991" lon="12.58133122828858"><ele>493.0</ele><time>2026-04-11T10:45:34Z</time></trkpt><trkpt lat="43.42626738062753" lon="12.581460794260085"><ele>493.0</ele><time>2026-04-11T10:45:35Z</time></trkpt><trkpt lat="43.426194386053965" lon="12.581601150808426"><ele>493.0</ele><time>2026-04-11T10:45:36Z</time></trkpt><trkpt lat="43.426122310990934" lon="12.581735447670374"><ele>493.25</ele><time>2026-04-11T10:45:37Z</time></trkpt><trkpt lat="43.42605395754113" lon="12.58186907293803"><ele>493.5</ele><time>2026-04-11T10:45:38Z</time></trkpt><trkpt lat="43.42598120114308" lon="12.582009151468391"><ele>493.75</ele><time>2026-04-11T10:45:39Z</time></trkpt><trkpt lat="43.42591147933623" lon="12.582143427018293"><ele>494.0</ele><time>2026-04-11T10:45:40Z</time></trkpt><trkpt lat="43.42583991714845" lon="12.582277899045623"><ele>492.25</ele><time>2026-04-11T10:45:41Z</time></trkpt><trkpt lat="43.425778657271536" lon="12.582425509920963"><ele>490.5</ele><time>2026-04-11T10:45:42Z</time></trkpt><trkpt lat="43.42571354287686" lon="12.58259195551563"><ele>488.75</ele><time>2026-04-11T10:45:43Z</time></trkpt><trkpt lat="43.42564959957378" lon="12.582756957521354"><ele>487.0</ele><time>2026-04-11T10:45:44Z</time></trkpt><trkpt lat="43.42559732907576" lon="12.582917042573158"><ele>487.0</ele><time>2026-04-11T10:45:45Z</time></trkpt><trkpt lat="43.42555003286843" lon="12.583073879945504"><ele>487.0</ele><time>2026-04-11T10:45:46Z</time></trkpt><trkpt lat="43.42550854301602" lon="12.583238516470594"><ele>487.0</ele><time>2026-04-11T10:45:47Z</time></trkpt><trkpt lat="43.425475420953504" lon="12.583404546821455"><ele>487.0</ele><time>2026-04-11T10:45:48Z</time></trkpt><trkpt lat="43.425443218139144" lon="12.583574780913"><ele>490.5</ele><time>2026-04-11T10:45:49Z</time></trkpt><trkpt lat="43.42541397847883" lon="12.583752779078573"><ele>494.0</ele><time>2026-04-11T10:45:50Z</time></trkpt><trkpt lat="43.42538996874545" lon="12.583925085265578"><ele>497.5</ele><time>2026-04-11T10:45:51Z</time></trkpt><trkpt lat="43.425370340645166" lon="12.584101454995126"><ele>501.0</ele><time>2026-04-11T10:45:52Z</time></trkpt><trkpt lat="43.42536092047956" lon="12.584283401134709"><ele>501.0</ele><time>2026-04-11T10:45:53Z</time></trkpt><trkpt lat="43.425355579472665" lon="12.584463784411456"><ele>501.0</ele><time>2026-04-11T10:45:54Z</time></trkpt><trkpt lat="43.425344583858994" lon="12.584621102779257"><ele>501.0</ele><time>2026-04-11T10:45:55Z</time></trkpt><trkpt lat="43.42535309009538" lon="12.584789329340152"><ele>501.0</ele><time>2026-04-11T10:45:56Z</time></trkpt><trkpt lat="43.42535840141403" lon="12.5849541119473"><ele>498.4</ele><time>2026-04-11T10:45:57Z</time></trkpt><trkpt lat="43.425358420344665" lon="12.58511017011077"><ele>495.8</ele><time>2026-04-11T10:45:58Z</time></trkpt><trkpt lat="43.425345542801324" lon="12.5852416215029"><ele>493.19999999999993</ele><time>2026-04-11T10:45:59Z</time></trkpt><trkpt lat="43.42530330690076" lon="12.585330429036267"><ele>490.59999999999997</ele><time>2026-04-11T10:46:00Z</time></trkpt><trkpt lat="43.425241933492984" lon="12.585401748312853"><ele>488.0</ele><time>2026-04-11T10:46:01Z</time></trkpt><trkpt lat="43.42514773350784" lon="12.585489753620381"><ele>488.0</ele><time>2026-04-11T10:46:02Z</time></trkpt><trkpt lat="43.42504004149498" lon="12.585593364206296"><ele>487.99999999999994</ele><time>2026-04-11T10:46:03Z</time></trkpt><trkpt lat="43.42494114001047" lon="12.585662170203944"><ele>487.99999999999994</ele><time>2026-04-11T10:46:04Z</time></trkpt><trkpt lat="43.42485507728781" lon="12.58567254076983"><ele>488.0</ele><time>2026-04-11T10:46:05Z</time></trkpt><trkpt lat="43.42476262533591" lon="12.58566488900103"><ele>488.0</ele><time>2026-04-11T10:46:06Z</time></trkpt><trkpt lat="43.424666756084086" lon="12.585703745352305"><ele>487.0</ele><time>2026-04-11T10:46:07Z</time></trkpt><trkpt lat="43.42455699796978" lon="12.585804369909736"><ele>485.99999999999994</ele><time>2026-04-11T10:46:08Z</time></trkpt><trkpt lat="43.42445570572512" lon="12.585894750729686"><ele>484.99999999999994</ele><time>2026-04-11T10:46:09Z</time></trkpt><trkpt lat="43.424374198400315" lon="12.585965074675032"><ele>484.0</ele><time>2026-04-11T10:46:10Z</time></trkpt><trkpt lat="43.42430808719036" lon="12.586025670864457"><ele>483.0</ele><time>2026-04-11T10:46:11Z</time></trkpt><trkpt lat="43.42425837040513" lon="12.586091580490955"><ele>483.0</ele><time>2026-04-11T10:46:12Z</time></trkpt><trkpt lat="43.424228237580664" lon="12.586170043440685"><ele>483.0</ele><time>2026-04-11T10:46:13Z</time></trkpt><trkpt lat="43.42422390391292" lon="12.586258271698231"><ele>483.0</ele><time>2026-04-11T10:46:14Z</time></trkpt><trkpt lat="43.42424977790367" lon="12.586341041744873"><ele>483.0</ele><time>2026-04-11T10:46:15Z</time></trkpt><trkpt lat="43.42429500738185" lon="12.586424974440492"><ele>483.0</ele><time>2026-04-11T10:46:16Z</time></trkpt><trkpt lat="43.42431848422439" lon="12.586561548454538"><ele>483.0</ele><time>2026-04-11T10:46:18Z</time></trkpt><trkpt lat="43.424188934987505" lon="12.586662286646186"><ele>483.33333333333337</ele><time>2026-04-11T10:46:20Z</time></trkpt><trkpt lat="43.42405947213201" lon="12.586673855759559"><ele>483.6666666666667</ele><time>2026-04-11T10:46:21Z</time></trkpt><trkpt lat="43.42389844465601" lon="12.586704035806948"><ele>484.0</ele><time>2026-04-11T10:46:22Z</time></trkpt><trkpt lat="43.42373060898075" lon="12.586735373583045"><ele>484.0</ele><time>2026-04-11T10:46:23Z</time></trkpt><trkpt lat="43.42357612843939" lon="12.586766879234094"><ele>484.0</ele><time>2026-04-11T10:46:24Z</time></trkpt><trkpt lat="43.42343571845023" lon="12.586836658313224"><ele>484.0</ele><time>2026-04-11T10:46:25Z</time></trkpt><trkpt lat="43.42329864640503" lon="12.586957310844024"><ele>486.6666666666667</ele><time>2026-04-11T10:46:26Z</time></trkpt><trkpt lat="43.42319116559802" lon="12.587117037136466"><ele>489.33333333333337</ele><time>2026-04-11T10:46:27Z</time></trkpt><trkpt lat="43.42311127600209" lon="12.58729269722113"><ele>492.0</ele><time>2026-04-11T10:46:28Z</time></trkpt><trkpt lat="43.423058905328965" lon="12.58748559460334"><ele>492.0</ele><time>2026-04-11T10:46:29Z</time></trkpt><trkpt lat="43.42303283740598" lon="12.587688326184459"><ele>492.0</ele><time>2026-04-11T10:46:30Z</time></trkpt><trkpt lat="43.42304771303799" lon="12.587889961162906"><ele>492.0</ele><time>2026-04-11T10:46:31Z</time></trkpt><trkpt lat="43.42308428706208" lon="12.588094683848768"><ele>491.0</ele><time>2026-04-11T10:46:32Z</time></trkpt><trkpt lat="43.42314341198194" lon="12.588299975800506"><ele>490.0</ele><time>2026-04-11T10:46:33Z</time></trkpt><trkpt lat="43.42320046925219" lon="12.588498965625975"><ele>489.0</ele><time>2026-04-11T10:46:34Z</time></trkpt><trkpt lat="43.42325597564339" lon="12.58869485567318"><ele>487.25</ele><time>2026-04-11T10:46:35Z</time></trkpt><trkpt lat="43.4233095723209" lon="12.588882767776434"><ele>485.5</ele><time>2026-04-11T10:46:36Z</time></trkpt><trkpt lat="43.423362330126395" lon="12.589066831532879"><ele>483.75</ele><time>2026-04-11T10:46:37Z</time></trkpt><trkpt lat="43.423416812244554" lon="12.589245626193364"><ele>482.0</ele><time>2026-04-11T10:46:38Z</time></trkpt><trkpt lat="43.423482018985354" lon="12.589412371483913"><ele>481.0</ele><time>2026-04-11T10:46:39Z</time></trkpt><trkpt lat="43.42356096775026" lon="12.58956558546829"><ele>480.0</ele><time>2026-04-11T10:46:40Z</time></trkpt><trkpt lat="43.42364720723237" lon="12.589707671872754"><ele>479.0</ele><time>2026-04-11T10:46:41Z</time></trkpt><trkpt lat="43.42373201174416" lon="12.58984516287032"><ele>478.0</ele><time>2026-04-11T10:46:42Z</time></trkpt><trkpt lat="43.423810288265365" lon="12.589985824761117"><ele>480.0</ele><time>2026-04-11T10:46:43Z</time></trkpt><trkpt lat="43.42386947375906" lon="12.590139959713948"><ele>482.0</ele><time>2026-04-11T10:46:44Z</time></trkpt><trkpt lat="43.42389181083326" lon="12.590309089675266"><ele>484.0</ele><time>2026-04-11T10:46:45Z</time></trkpt><trkpt lat="43.42387066368133" lon="12.590480057284871"><ele>486.0</ele><time>2026-04-11T10:46:46Z</time></trkpt><trkpt lat="43.42381436318376" lon="12.59063765880338"><ele>484.25</ele><time>2026-04-11T10:46:47Z</time></trkpt><trkpt lat="43.42375151824104" lon="12.590806186367654"><ele>482.5</ele><time>2026-04-11T10:46:48Z</time></trkpt><trkpt lat="43.423684131443295" lon="12.590977223155075"><ele>480.75</ele><time>2026-04-11T10:46:49Z</time></trkpt><trkpt lat="43.423613092481155" lon="12.591148063701059"><ele>479.0</ele><time>2026-04-11T10:46:50Z</time></trkpt><trkpt lat="43.42353741111594" lon="12.59133168149004"><ele>479.0</ele><time>2026-04-11T10:46:51Z</time></trkpt><trkpt lat="43.42346825446781" lon="12.591511471858052"><ele>479.0</ele><time>2026-04-11T10:46:52Z</time></trkpt><trkpt lat="43.423399442219235" lon="12.591686533705927"><ele>479.0</ele><time>2026-04-11T10:46:53Z</time></trkpt><trkpt lat="43.42333372113605" lon="12.591856387465885"><ele>479.0</ele><time>2026-04-11T10:46:54Z</time></trkpt><trkpt lat="43.423268435988504" lon="12.592021961384766"><ele>478.5</ele><time>2026-04-11T10:46:55Z</time></trkpt><trkpt lat="43.423199967209314" lon="12.592181663995206"><ele>478.0</ele><time>2026-04-11T10:46:56Z</time></trkpt><trkpt lat="43.4231292954218" lon="12.592337012066375"><ele>477.5</ele><time>2026-04-11T10:46:57Z</time></trkpt><trkpt lat="43.423068463842874" lon="12.592502899195868"><ele>477.0</ele><time>2026-04-11T10:46:58Z</time></trkpt><trkpt lat="43.423025429886515" lon="12.592672058071647"><ele>477.25</ele><time>2026-04-11T10:46:59Z</time></trkpt><trkpt lat="43.422994848201206" lon="12.592841118184161"><ele>477.5</ele><time>2026-04-11T10:47:00Z</time></trkpt><trkpt lat="43.42297664845419" lon="12.59300951827783"><ele>477.75</ele><time>2026-04-11T10:47:01Z</time></trkpt><trkpt lat="43.42296718266839" lon="12.59316766254651"><ele>478.0</ele><time>2026-04-11T10:47:02Z</time></trkpt><trkpt lat="43.42296284799403" lon="12.593308666611206"><ele>478.00000000000006</ele><time>2026-04-11T10:47:03Z</time></trkpt><trkpt lat="43.42295388902173" lon="12.593422762043678"><ele>478.0</ele><time>2026-04-11T10:47:04Z</time></trkpt><trkpt lat="43.42294340145878" lon="12.59351262892254"><ele>478.0</ele><time>2026-04-11T10:47:05Z</time></trkpt><trkpt lat="43.42291795292079" lon="12.593660965800511"><ele>478.0</ele><time>2026-04-11T10:47:07Z</time></trkpt><trkpt lat="43.4228564839179" lon="12.5937867902552"><ele>478.00000000000006</ele><time>2026-04-11T10:47:09Z</time></trkpt><trkpt lat="43.4228109078858" lon="12.59385947201775"><ele>478.0</ele><time>2026-04-11T10:47:13Z</time></trkpt><trkpt lat="43.422784976829696" lon="12.594008493597556"><ele>477.4</ele><time>2026-04-11T10:47:15Z</time></trkpt><trkpt lat="43.42282373237675" lon="12.594116186362047"><ele>476.79999999999995</ele><time>2026-04-11T10:47:16Z</time></trkpt><trkpt lat="43.422887318457846" lon="12.59423002758986"><ele>476.2</ele><time>2026-04-11T10:47:17Z</time></trkpt><trkpt lat="43.422953779011294" lon="12.594351501370163"><ele>475.6</ele><time>2026-04-11T10:47:18Z</time></trkpt><trkpt lat="43.42301364052144" lon="12.5944960793615"><ele>475.0</ele><time>2026-04-11T10:47:19Z</time></trkpt><trkpt lat="43.423072082900866" lon="12.594651086104431"><ele>474.75</ele><time>2026-04-11T10:47:20Z</time></trkpt><trkpt lat="43.42314097470506" lon="12.594824410367915"><ele>474.5</ele><time>2026-04-11T10:47:21Z</time></trkpt><trkpt lat="43.42320868953494" lon="12.595006760434643"><ele>474.25</ele><time>2026-04-11T10:47:22Z</time></trkpt><trkpt lat="43.42327260997321" lon="12.595188151926859"><ele>474.0</ele><time>2026-04-11T10:47:23Z</time></trkpt><trkpt lat="43.42333436293054" lon="12.595372471458203"><ele>472.66666666666663</ele><time>2026-04-11T10:47:24Z</time></trkpt><trkpt lat="43.423395009197435" lon="12.59556145748469"><ele>471.3333333333333</ele><time>2026-04-11T10:47:25Z</time></trkpt><trkpt lat="43.42345975393874" lon="12.595747982338125"><ele>470.0</ele><time>2026-04-11T10:47:26Z</time></trkpt><trkpt lat="43.4235232161483" lon="12.595938181460975"><ele>470.0</ele><time>2026-04-11T10:47:27Z</time></trkpt><trkpt lat="43.42358723951254" lon="12.59613474393209"><ele>470.0</ele><time>2026-04-11T10:47:28Z</time></trkpt><trkpt lat="43.423651986577" lon="12.596333701130822"><ele>470.0</ele><time>2026-04-11T10:47:29Z</time></trkpt><trkpt lat="43.42372086803165" lon="12.596539863101277"><ele>470.0</ele><time>2026-04-11T10:47:30Z</time></trkpt><trkpt lat="43.42379106225955" lon="12.59674982620436"><ele>470.0</ele><time>2026-04-11T10:47:31Z</time></trkpt><trkpt lat="43.42386240427045" lon="12.596967290562299"><ele>470.0</ele><time>2026-04-11T10:47:32Z</time></trkpt><trkpt lat="43.42393400030597" lon="12.597190714102167"><ele>470.0</ele><time>2026-04-11T10:47:33Z</time></trkpt><trkpt lat="43.42400852070627" lon="12.597415982816216"><ele>470.0</ele><time>2026-04-11T10:47:34Z</time></trkpt><trkpt lat="43.42408624690674" lon="12.597644953307247"><ele>470.0</ele><time>2026-04-11T10:47:35Z</time></trkpt><trkpt lat="43.4241659278042" lon="12.597877502492063"><ele>469.0</ele><time>2026-04-11T10:47:36Z</time></trkpt><trkpt lat="43.42424465587897" lon="12.598112221275716"><ele>468.0</ele><time>2026-04-11T10:47:37Z</time></trkpt><trkpt lat="43.42432559967285" lon="12.598350097805294"><ele>467.0</ele><time>2026-04-11T10:47:38Z</time></trkpt><trkpt lat="43.42440643374932" lon="12.598588382301035"><ele>467.0</ele><time>2026-04-11T10:47:39Z</time></trkpt><trkpt lat="43.424486954790545" lon="12.59882791563745"><ele>467.0</ele><time>2026-04-11T10:47:40Z</time></trkpt><trkpt lat="43.42456748029504" lon="12.599068300916633"><ele>467.0</ele><time>2026-04-11T10:47:41Z</time></trkpt><trkpt lat="43.424646730480056" lon="12.599309529237187"><ele>467.3333333333333</ele><time>2026-04-11T10:47:42Z</time></trkpt><trkpt lat="43.42472737894245" lon="12.599547994697126"><ele>467.66666666666663</ele><time>2026-04-11T10:47:43Z</time></trkpt><trkpt lat="43.42480719067985" lon="12.59977718862918"><ele>468.0</ele><time>2026-04-11T10:47:44Z</time></trkpt><trkpt lat="43.4248822723207" lon="12.599997580110418"><ele>468.0</ele><time>2026-04-11T10:47:45Z</time></trkpt><trkpt lat="43.424954828069396" lon="12.600220142603854"><ele>468.0</ele><time>2026-04-11T10:47:46Z</time></trkpt><trkpt lat="43.425024089493995" lon="12.600436433022942"><ele>468.0</ele><time>2026-04-11T10:47:47Z</time></trkpt><trkpt lat="43.42509357059882" lon="12.600652717498535"><ele>466.0</ele><time>2026-04-11T10:47:48Z</time></trkpt><trkpt lat="43.42516126740984" lon="12.600865495900512"><ele>464.0</ele><time>2026-04-11T10:47:49Z</time></trkpt><trkpt lat="43.42523039574424" lon="12.601078702127642"><ele>462.0</ele><time>2026-04-11T10:47:50Z</time></trkpt><trkpt lat="43.425300246842" lon="12.601288153290087"><ele>462.0</ele><time>2026-04-11T10:47:51Z</time></trkpt><trkpt lat="43.425370236038326" lon="12.601493777547315"><ele>462.0</ele><time>2026-04-11T10:47:52Z</time></trkpt><trkpt lat="43.42543831409517" lon="12.601701216088172"><ele>462.0</ele><time>2026-04-11T10:47:53Z</time></trkpt><trkpt lat="43.42550995676826" lon="12.60192153240486"><ele>464.0</ele><time>2026-04-11T10:47:54Z</time></trkpt><trkpt lat="43.42558175768151" lon="12.602128621914543"><ele>466.0</ele><time>2026-04-11T10:47:55Z</time></trkpt><trkpt lat="43.425649883004844" lon="12.602332404997945"><ele>468.0</ele><time>2026-04-11T10:47:56Z</time></trkpt><trkpt lat="43.425717136524874" lon="12.60252951938011"><ele>468.0</ele><time>2026-04-11T10:47:57Z</time></trkpt><trkpt lat="43.42578255301491" lon="12.602723736291274"><ele>468.0</ele><time>2026-04-11T10:47:58Z</time></trkpt><trkpt lat="43.42584720451979" lon="12.602917492887444"><ele>468.0</ele><time>2026-04-11T10:47:59Z</time></trkpt><trkpt lat="43.42591234281308" lon="12.603124100550792"><ele>466.66666666666663</ele><time>2026-04-11T10:48:00Z</time></trkpt><trkpt lat="43.425978587417255" lon="12.603341619160528"><ele>465.3333333333333</ele><time>2026-04-11T10:48:01Z</time></trkpt><trkpt lat="43.42604795843098" lon="12.603559737775583"><ele>464.0</ele><time>2026-04-11T10:48:02Z</time></trkpt><trkpt lat="43.42612466852176" lon="12.603771961711779"><ele>464.0</ele><time>2026-04-11T10:48:03Z</time></trkpt><trkpt lat="43.42621418769405" lon="12.603977448965297"><ele>464.0</ele><time>2026-04-11T10:48:04Z</time></trkpt><trkpt lat="43.42632234316032" lon="12.604175170005716"><ele>464.0</ele><time>2026-04-11T10:48:05Z</time></trkpt><trkpt lat="43.42644857150181" lon="12.604359512188635"><ele>467.0</ele><time>2026-04-11T10:48:06Z</time></trkpt><trkpt lat="43.426580113972555" lon="12.604540391970671"><ele>470.0</ele><time>2026-04-11T10:48:07Z</time></trkpt><trkpt lat="43.4267216452962" lon="12.604717032949736"><ele>473.0</ele><time>2026-04-11T10:48:08Z</time></trkpt><trkpt lat="43.42685926894798" lon="12.604888884429904"><ele>473.0</ele><time>2026-04-11T10:48:09Z</time></trkpt><trkpt lat="43.426994101949646" lon="12.605064511323818"><ele>473.0</ele><time>2026-04-11T10:48:10Z</time></trkpt><trkpt lat="43.427128265200864" lon="12.60524162104538"><ele>473.0</ele><time>2026-04-11T10:48:11Z</time></trkpt><trkpt lat="43.42725907641197" lon="12.605414881249432"><ele>472.3333333333333</ele><time>2026-04-11T10:48:12Z</time></trkpt><trkpt lat="43.42738588875621" lon="12.60557509451579"><ele>471.66666666666663</ele><time>2026-04-11T10:48:13Z</time></trkpt><trkpt lat="43.42751344248803" lon="12.605737804107667"><ele>471.0</ele><time>2026-04-11T10:48:14Z</time></trkpt><trkpt lat="43.427637723782844" lon="12.605910492779925"><ele>471.0</ele><time>2026-04-11T10:48:15Z</time></trkpt><trkpt lat="43.427752642371594" lon="12.606091086966766"><ele>471.0</ele><time>2026-04-11T10:48:16Z</time></trkpt><trkpt lat="43.4278624399626" lon="12.606272944142917"><ele>471.0</ele><time>2026-04-11T10:48:17Z</time></trkpt><trkpt lat="43.4279739597047" lon="12.606454863188883"><ele>468.33333333333337</ele><time>2026-04-11T10:48:18Z</time></trkpt><trkpt lat="43.42808845076977" lon="12.606635657459561"><ele>465.6666666666667</ele><time>2026-04-11T10:48:19Z</time></trkpt><trkpt lat="43.428209127811975" lon="12.606816603245202"><ele>463.0</ele><time>2026-04-11T10:48:20Z</time></trkpt><trkpt lat="43.4283375506154" lon="12.606991894434476"><ele>469.6666666666667</ele><time>2026-04-11T10:48:21Z</time></trkpt><trkpt lat="43.4284694243736" lon="12.607166084577251"><ele>476.33333333333337</ele><time>2026-04-11T10:48:22Z</time></trkpt><trkpt lat="43.428612222570834" lon="12.60733590911777"><ele>483.0</ele><time>2026-04-11T10:48:23Z</time></trkpt><trkpt lat="43.428761224793526" lon="12.60749598766941"><ele>482.66666666666663</ele><time>2026-04-11T10:48:24Z</time></trkpt><trkpt lat="43.42890566051697" lon="12.607633679027906"><ele>482.3333333333333</ele><time>2026-04-11T10:48:25Z</time></trkpt><trkpt lat="43.42904609397838" lon="12.607776532314041"><ele>482.0</ele><time>2026-04-11T10:48:26Z</time></trkpt><trkpt lat="43.429182153024996" lon="12.607928093297124"><ele>482.0</ele><time>2026-04-11T10:48:27Z</time></trkpt><trkpt lat="43.42931106684158" lon="12.60809586905787"><ele>482.0</ele><time>2026-04-11T10:48:28Z</time></trkpt><trkpt lat="43.429431878647705" lon="12.608268048288446"><ele>482.0</ele><time>2026-04-11T10:48:29Z</time></trkpt><trkpt lat="43.42955173658453" lon="12.608438595927957"><ele>477.66666666666663</ele><time>2026-04-11T10:48:30Z</time></trkpt><trkpt lat="43.429670918548865" lon="12.60860709281315"><ele>473.33333333333337</ele><time>2026-04-11T10:48:31Z</time></trkpt><trkpt lat="43.42978889543947" lon="12.608772261800203"><ele>469.0</ele><time>2026-04-11T10:48:32Z</time></trkpt><trkpt lat="43.42990567603905" lon="12.608936813824167"><ele>469.0</ele><time>2026-04-11T10:48:33Z</time></trkpt><trkpt lat="43.430026207116455" lon="12.609097908011728"><ele>469.0</ele><time>2026-04-11T10:48:34Z</time></trkpt><trkpt lat="43.430153307756214" lon="12.609250191005135"><ele>469.0</ele><time>2026-04-11T10:48:35Z</time></trkpt><trkpt lat="43.430285192622264" lon="12.609395158005864"><ele>467.6666666666667</ele><time>2026-04-11T10:48:36Z</time></trkpt><trkpt lat="43.43041989590592" lon="12.609533113212363"><ele>466.33333333333337</ele><time>2026-04-11T10:48:37Z</time></trkpt><trkpt lat="43.430556516484" lon="12.609669736179878"><ele>465.0</ele><time>2026-04-11T10:48:38Z</time></trkpt><trkpt lat="43.43069310933987" lon="12.609801386909307"><ele>465.0</ele><time>2026-04-11T10:48:39Z</time></trkpt><trkpt lat="43.430832586276345" lon="12.609925825686995"><ele>465.0</ele><time>2026-04-11T10:48:40Z</time></trkpt><trkpt lat="43.43097687922041" lon="12.61004041399865"><ele>465.0</ele><time>2026-04-11T10:48:41Z</time></trkpt><trkpt lat="43.43112322596216" lon="12.610135932657192"><ele>465.0</ele><time>2026-04-11T10:48:42Z</time></trkpt><trkpt lat="43.431278084334046" lon="12.610208425467107"><ele>465.0</ele><time>2026-04-11T10:48:43Z</time></trkpt><trkpt lat="43.43143618684102" lon="12.610264608231683"><ele>465.0</ele><time>2026-04-11T10:48:44Z</time></trkpt><trkpt lat="43.431591633589804" lon="12.61031904361651"><ele>465.25</ele><time>2026-04-11T10:48:45Z</time></trkpt><trkpt lat="43.431743136947" lon="12.610370271799587"><ele>465.5</ele><time>2026-04-11T10:48:46Z</time></trkpt><trkpt lat="43.43188588132988" lon="12.61042279626855"><ele>465.75</ele><time>2026-04-11T10:48:47Z</time></trkpt><trkpt lat="43.432008904302236" lon="12.610485207680327"><ele>466.0</ele><time>2026-04-11T10:48:48Z</time></trkpt><trkpt lat="43.43211267231412" lon="12.610564282931758"><ele>461.5</ele><time>2026-04-11T10:48:49Z</time></trkpt><trkpt lat="43.43221191463256" lon="12.610650693569276"><ele>457.0</ele><time>2026-04-11T10:48:50Z</time></trkpt><trkpt lat="43.43230558535558" lon="12.61073946777506"><ele>452.5</ele><time>2026-04-11T10:48:51Z</time></trkpt><trkpt lat="43.43239940041866" lon="12.610821848352696"><ele>448.0</ele><time>2026-04-11T10:48:52Z</time></trkpt><trkpt lat="43.432495299159804" lon="12.610888483571511"><ele>448.0</ele><time>2026-04-11T10:48:53Z</time></trkpt><trkpt lat="43.43258478387756" lon="12.610938994811542"><ele>447.99999999999994</ele><time>2026-04-11T10:48:54Z</time></trkpt><trkpt lat="43.43266112885596" lon="12.610988070119333"><ele>447.99999999999994</ele><time>2026-04-11T10:48:55Z</time></trkpt><trkpt lat="43.432724699180945" lon="12.61104276349454"><ele>448.0</ele><time>2026-04-11T10:48:56Z</time></trkpt><trkpt lat="43.432808682514064" lon="12.611167872429414"><ele>448.0</ele><time>2026-04-11T10:48:58Z</time></trkpt><trkpt lat="43.43287378018413" lon="12.611311643750948"><ele>447.0</ele><time>2026-04-11T10:49:00Z</time></trkpt><trkpt lat="43.43291874312339" lon="12.611383630033144"><ele>445.99999999999994</ele><time>2026-04-11T10:49:01Z</time></trkpt><trkpt lat="43.432996222416385" lon="12.61150910588269"><ele>444.99999999999994</ele><time>2026-04-11T10:49:03Z</time></trkpt><trkpt lat="43.43307764139467" lon="12.611640897747696"><ele>444.0</ele><time>2026-04-11T10:49:05Z</time></trkpt><trkpt lat="43.43312516915506" lon="12.61171522460607"><ele>443.0</ele><time>2026-04-11T10:49:06Z</time></trkpt><trkpt lat="43.43316609974911" lon="12.611804434609073"><ele>443.0</ele><time>2026-04-11T10:49:07Z</time></trkpt><trkpt lat="43.43320216754449" lon="12.61189695460709"><ele>442.99999999999994</ele><time>2026-04-11T10:49:08Z</time></trkpt><trkpt lat="43.43324520593151" lon="12.612013243995815"><ele>442.99999999999994</ele><time>2026-04-11T10:49:09Z</time></trkpt><trkpt lat="43.433291784671226" lon="12.612126082904913"><ele>443.0</ele><time>2026-04-11T10:49:10Z</time></trkpt><trkpt lat="43.43333914871923" lon="12.612247217364363"><ele>443.0</ele><time>2026-04-11T10:49:11Z</time></trkpt><trkpt lat="43.43338987729582" lon="12.612372664025292"><ele>441.4</ele><time>2026-04-11T10:49:12Z</time></trkpt><trkpt lat="43.43344089643203" lon="12.612497354743963"><ele>439.79999999999995</ele><time>2026-04-11T10:49:13Z</time></trkpt><trkpt lat="43.433490326518985" lon="12.612623491141305"><ele>438.2</ele><time>2026-04-11T10:49:14Z</time></trkpt><trkpt lat="43.43353977437453" lon="12.612745317139849"><ele>436.6</ele><time>2026-04-11T10:49:15Z</time></trkpt><trkpt lat="43.43359634208857" lon="12.612871923191802"><ele>435.0</ele><time>2026-04-11T10:49:16Z</time></trkpt><trkpt lat="43.433658431108796" lon="12.6130011204419"><ele>434.8</ele><time>2026-04-11T10:49:17Z</time></trkpt><trkpt lat="43.433721614063145" lon="12.613122315767745"><ele>434.6</ele><time>2026-04-11T10:49:18Z</time></trkpt><trkpt lat="43.43378630945177" lon="12.613238322509723"><ele>434.4</ele><time>2026-04-11T10:49:19Z</time></trkpt><trkpt lat="43.43385198365371" lon="12.613351158346097"><ele>434.2</ele><time>2026-04-11T10:49:20Z</time></trkpt><trkpt lat="43.43391876803611" lon="12.613455843883301"><ele>434.0</ele><time>2026-04-11T10:49:21Z</time></trkpt><trkpt lat="43.43397963473265" lon="12.61356618360663"><ele>433.79999999999995</ele><time>2026-04-11T10:49:22Z</time></trkpt><trkpt lat="43.434038279551224" lon="12.61368022147322"><ele>433.59999999999997</ele><time>2026-04-11T10:49:23Z</time></trkpt><trkpt lat="43.4340913112877" lon="12.613795126041536"><ele>433.4</ele><time>2026-04-11T10:49:24Z</time></trkpt><trkpt lat="43.434145367144204" lon="12.613912600301427"><ele>433.2</ele><time>2026-04-11T10:49:25Z</time></trkpt><trkpt lat="43.4341716696646" lon="12.61404771482001"><ele>433.0</ele><time>2026-04-11T10:49:26Z</time></trkpt><trkpt lat="43.434207922570884" lon="12.614151251194937"><ele>433.0</ele><time>2026-04-11T10:49:27Z</time></trkpt><trkpt lat="43.43421764143825" lon="12.61425347285224"><ele>432.99999999999994</ele><time>2026-04-11T10:49:28Z</time></trkpt><trkpt lat="43.434213478760064" lon="12.614359479027767"><ele>432.99999999999994</ele><time>2026-04-11T10:49:29Z</time></trkpt><trkpt lat="43.43420544883579" lon="12.614499483757506"><ele>433.0</ele><time>2026-04-11T10:49:30Z</time></trkpt><trkpt lat="43.434197105352574" lon="12.6146402479665"><ele>433.0</ele><time>2026-04-11T10:49:31Z</time></trkpt><trkpt lat="43.43418856343638" lon="12.614772794547576"><ele>432.79999999999995</ele><time>2026-04-11T10:49:32Z</time></trkpt><trkpt lat="43.43417822449943" lon="12.614904443788795"><ele>432.59999999999997</ele><time>2026-04-11T10:49:33Z</time></trkpt><trkpt lat="43.43416546428047" lon="12.615035928530446"><ele>432.40000000000003</ele><time>2026-04-11T10:49:34Z</time></trkpt><trkpt lat="43.43415026274884" lon="12.615164538598647"><ele>432.20000000000005</ele><time>2026-04-11T10:49:35Z</time></trkpt><trkpt lat="43.43412794721304" lon="12.61528215987134"><ele>432.0</ele><time>2026-04-11T10:49:36Z</time></trkpt><trkpt lat="43.43409305468977" lon="12.615404155134632"><ele>431.6</ele><time>2026-04-11T10:49:37Z</time></trkpt><trkpt lat="43.4340393514929" lon="12.615503879136988"><ele>431.20000000000005</ele><time>2026-04-11T10:49:38Z</time></trkpt><trkpt lat="43.433968013374866" lon="12.61560566821371"><ele>430.8</ele><time>2026-04-11T10:49:39Z</time></trkpt><trkpt lat="43.43388148692316" lon="12.615722047635092"><ele>430.4</ele><time>2026-04-11T10:49:40Z</time></trkpt><trkpt lat="43.433792334221444" lon="12.615839338704257"><ele>430.0</ele><time>2026-04-11T10:49:41Z</time></trkpt><trkpt lat="43.43370398006768" lon="12.615955330459803"><ele>430.0</ele><time>2026-04-11T10:49:42Z</time></trkpt><trkpt lat="43.43362939846271" lon="12.61609187415615"><ele>430.0</ele><time>2026-04-11T10:49:43Z</time></trkpt><trkpt lat="43.43353389627525" lon="12.61619373828953"><ele>430.0</ele><time>2026-04-11T10:49:44Z</time></trkpt><trkpt lat="43.43345284936736" lon="12.616309551782184"><ele>430.0</ele><time>2026-04-11T10:49:45Z</time></trkpt><trkpt lat="43.43337749599373" lon="12.616418215525414"><ele>430.1666666666667</ele><time>2026-04-11T10:49:46Z</time></trkpt><trkpt lat="43.433311252505376" lon="12.61653650942971"><ele>430.33333333333337</ele><time>2026-04-11T10:49:47Z</time></trkpt><trkpt lat="43.43326519204267" lon="12.616655575917154"><ele>430.5</ele><time>2026-04-11T10:49:48Z</time></trkpt><trkpt lat="43.43322901354539" lon="12.616770919214343"><ele>430.66666666666663</ele><time>2026-04-11T10:49:49Z</time></trkpt><trkpt lat="43.43320441835133" lon="12.616878448559188"><ele>430.8333333333333</ele><time>2026-04-11T10:49:50Z</time></trkpt><trkpt lat="43.43319737397305" lon="12.61697376367264"><ele>431.0</ele><time>2026-04-11T10:49:51Z</time></trkpt><trkpt lat="43.433203419865436" lon="12.617060439535694"><ele>431.99999999999994</ele><time>2026-04-11T10:49:52Z</time></trkpt><trkpt lat="43.433235468856246" lon="12.617224170965375"><ele>433.0</ele><time>2026-04-11T10:49:54Z</time></trkpt><trkpt lat="43.43326739967472" lon="12.617322825264926"><ele>434.0</ele><time>2026-04-11T10:49:55Z</time></trkpt><trkpt lat="43.4333171351417" lon="12.617418658523228"><ele>435.0</ele><time>2026-04-11T10:49:56Z</time></trkpt><trkpt lat="43.43337038425865" lon="12.617497400932114"><ele>435.99999999999994</ele><time>2026-04-11T10:49:57Z</time></trkpt><trkpt lat="43.43342474390084" lon="12.617563259910549"><ele>437.0</ele><time>2026-04-11T10:49:58Z</time></trkpt><trkpt lat="43.433483071291526" lon="12.61761882327879"><ele>437.0</ele><time>2026-04-11T10:49:59Z</time></trkpt><trkpt lat="43.43357792237586" lon="12.61770796294343"><ele>437.00000000000006</ele><time>2026-04-11T10:50:01Z</time></trkpt><trkpt lat="43.43367366941482" lon="12.617767349439188"><ele>437.00000000000006</ele><time>2026-04-11T10:50:03Z</time></trkpt><trkpt lat="43.43375532792302" lon="12.61784696597247"><ele>437.0</ele><time>2026-04-11T10:50:05Z</time></trkpt><trkpt lat="43.43381205574716" lon="12.617929764711079"><ele>437.0</ele><time>2026-04-11T10:50:07Z</time></trkpt><trkpt lat="43.43385594997605" lon="12.618002484195634"><ele>436.66666666666663</ele><time>2026-04-11T10:50:09Z</time></trkpt><trkpt lat="43.433882598727834" lon="12.618093830817669"><ele>436.3333333333333</ele><time>2026-04-11T10:50:10Z</time></trkpt><trkpt lat="43.433920325850536" lon="12.61818274017381"><ele>436.0</ele><time>2026-04-11T10:50:11Z</time></trkpt><trkpt lat="43.43397119274099" lon="12.618256247549155"><ele>435.66666666666663</ele><time>2026-04-11T10:50:12Z</time></trkpt><trkpt lat="43.43400148706073" lon="12.618339289807443"><ele>435.3333333333333</ele><time>2026-04-11T10:50:13Z</time></trkpt><trkpt lat="43.434009778228784" lon="12.618427895613394"><ele>435.0</ele><time>2026-04-11T10:50:14Z</time></trkpt><trkpt lat="43.43403234141418" lon="12.618604531648348"><ele>435.8333333333333</ele><time>2026-04-11T10:50:16Z</time></trkpt><trkpt lat="43.43406851203156" lon="12.61869021311637"><ele>436.66666666666663</ele><time>2026-04-11T10:50:17Z</time></trkpt><trkpt lat="43.43412628637919" lon="12.618766712966265"><ele>437.5</ele><time>2026-04-11T10:50:18Z</time></trkpt><trkpt lat="43.434179819086815" lon="12.618822474740108"><ele>438.3333333333333</ele><time>2026-04-11T10:50:19Z</time></trkpt><trkpt lat="43.43428739749745" lon="12.618918346792215"><ele>439.16666666666663</ele><time>2026-04-11T10:50:21Z</time></trkpt><trkpt lat="43.43434464011003" lon="12.618965877323364"><ele>440.0</ele><time>2026-04-11T10:50:22Z</time></trkpt><trkpt lat="43.4344021835732" lon="12.619026918656683"><ele>440.0</ele><time>2026-04-11T10:50:23Z</time></trkpt><trkpt lat="43.434463677476764" lon="12.619119966415804"><ele>440.0</ele><time>2026-04-11T10:50:24Z</time></trkpt><trkpt lat="43.434525237680155" lon="12.619235786634036"><ele>440.0</ele><time>2026-04-11T10:50:25Z</time></trkpt><trkpt lat="43.43460202273198" lon="12.619343810174565"><ele>440.0</ele><time>2026-04-11T10:50:26Z</time></trkpt><trkpt lat="43.434679607261536" lon="12.619448025428053"><ele>440.0</ele><time>2026-04-11T10:50:27Z</time></trkpt><trkpt lat="43.434753813968804" lon="12.619547703985122"><ele>438.8</ele><time>2026-04-11T10:50:28Z</time></trkpt><trkpt lat="43.434838586691065" lon="12.619634245415595"><ele>437.6</ele><time>2026-04-11T10:50:29Z</time></trkpt><trkpt lat="43.434915729413646" lon="12.619750867098317"><ele>436.4</ele><time>2026-04-11T10:50:30Z</time></trkpt><trkpt lat="43.43499791864008" lon="12.61985871546041"><ele>435.2</ele><time>2026-04-11T10:50:31Z</time></trkpt><trkpt lat="43.43506043426851" lon="12.619980493304572"><ele>434.0</ele><time>2026-04-11T10:50:32Z</time></trkpt><trkpt lat="43.43512656016105" lon="12.620092643435514"><ele>434.0</ele><time>2026-04-11T10:50:33Z</time></trkpt><trkpt lat="43.43518368777195" lon="12.62020703868342"><ele>434.0</ele><time>2026-04-11T10:50:34Z</time></trkpt><trkpt lat="43.43524396302009" lon="12.620334926634511"><ele>434.0</ele><time>2026-04-11T10:50:35Z</time></trkpt><trkpt lat="43.4353050656513" lon="12.62046799898358"><ele>434.0</ele><time>2026-04-11T10:50:36Z</time></trkpt><trkpt lat="43.43537003542446" lon="12.620578554620565"><ele>434.0</ele><time>2026-04-11T10:50:37Z</time></trkpt><trkpt lat="43.435418221457304" lon="12.62070773179274"><ele>433.2</ele><time>2026-04-11T10:50:38Z</time></trkpt><trkpt lat="43.43548526828383" lon="12.620829202824558"><ele>432.4</ele><time>2026-04-11T10:50:39Z</time></trkpt><trkpt lat="43.43555983428145" lon="12.620942436124905"><ele>431.6</ele><time>2026-04-11T10:50:40Z</time></trkpt><trkpt lat="43.435634682008484" lon="12.621054990002856"><ele>430.8</ele><time>2026-04-11T10:50:41Z</time></trkpt><trkpt lat="43.43570815942946" lon="12.621170916291284"><ele>430.0</ele><time>2026-04-11T10:50:42Z</time></trkpt><trkpt lat="43.43578848875222" lon="12.621284854481196"><ele>430.0</ele><time>2026-04-11T10:50:43Z</time></trkpt><trkpt lat="43.435863255399894" lon="12.621401959170361"><ele>430.0</ele><time>2026-04-11T10:50:44Z</time></trkpt><trkpt lat="43.435936970824194" lon="12.62151953827007"><ele>430.0</ele><time>2026-04-11T10:50:45Z</time></trkpt><trkpt lat="43.43601232112435" lon="12.621639534836428"><ele>430.0</ele><time>2026-04-11T10:50:46Z</time></trkpt><trkpt lat="43.43607900195474" lon="12.621768128666057"><ele>430.0</ele><time>2026-04-11T10:50:47Z</time></trkpt><trkpt lat="43.4361495242513" lon="12.621880477537875"><ele>430.0</ele><time>2026-04-11T10:50:48Z</time></trkpt><trkpt lat="43.43621750258475" lon="12.621985855167965"><ele>430.0</ele><time>2026-04-11T10:50:49Z</time></trkpt><trkpt lat="43.436286181787025" lon="12.622091860775658"><ele>430.0</ele><time>2026-04-11T10:50:50Z</time></trkpt><trkpt lat="43.436355268522256" lon="12.62219770870829"><ele>430.0</ele><time>2026-04-11T10:50:51Z</time></trkpt><trkpt lat="43.436427204662834" lon="12.622303726147525"><ele>429.0</ele><time>2026-04-11T10:50:52Z</time></trkpt><trkpt lat="43.436499626894474" lon="12.622410459963332"><ele>428.0</ele><time>2026-04-11T10:50:53Z</time></trkpt><trkpt lat="43.43657600892971" lon="12.622511179856494"><ele>427.0</ele><time>2026-04-11T10:50:54Z</time></trkpt><trkpt lat="43.43664198967273" lon="12.622626074325021"><ele>426.0</ele><time>2026-04-11T10:50:55Z</time></trkpt><trkpt lat="43.43670267015717" lon="12.622746117419286"><ele>425.0</ele><time>2026-04-11T10:50:56Z</time></trkpt><trkpt lat="43.43674839299163" lon="12.62288238421932"><ele>425.0</ele><time>2026-04-11T10:50:57Z</time></trkpt><trkpt lat="43.43682094249923" lon="12.623003305366076"><ele>425.0</ele><time>2026-04-11T10:50:58Z</time></trkpt><trkpt lat="43.43687781626794" lon="12.623139875659067"><ele>425.0</ele><time>2026-04-11T10:50:59Z</time></trkpt><trkpt lat="43.43693667816439" lon="12.623271393919772"><ele>425.0</ele><time>2026-04-11T10:51:00Z</time></trkpt><trkpt lat="43.436991059198725" lon="12.62340567039168"><ele>425.0</ele><time>2026-04-11T10:51:01Z</time></trkpt><trkpt lat="43.43705815338216" lon="12.62353446702641"><ele>425.0</ele><time>2026-04-11T10:51:02Z</time></trkpt><trkpt lat="43.437124808080824" lon="12.623662511945314"><ele>425.0</ele><time>2026-04-11T10:51:03Z</time></trkpt><trkpt lat="43.437196481609874" lon="12.62377289556018"><ele>425.0</ele><time>2026-04-11T10:51:04Z</time></trkpt><trkpt lat="43.43726400073045" lon="12.623882201421184"><ele>425.0</ele><time>2026-04-11T10:51:05Z</time></trkpt><trkpt lat="43.437322335128506" lon="12.623988149588161"><ele>424.5</ele><time>2026-04-11T10:51:06Z</time></trkpt><trkpt lat="43.43735498488079" lon="12.624118467971808"><ele>424.0</ele><time>2026-04-11T10:51:07Z</time></trkpt><trkpt lat="43.43740758396023" lon="12.624258633042906"><ele>423.5</ele><time>2026-04-11T10:51:08Z</time></trkpt><trkpt lat="43.43746612534541" lon="12.624397911753544"><ele>423.0</ele><time>2026-04-11T10:51:09Z</time></trkpt><trkpt lat="43.43752530986901" lon="12.62454552821691"><ele>424.75</ele><time>2026-04-11T10:51:10Z</time></trkpt><trkpt lat="43.43757733218159" lon="12.624682640083437"><ele>426.5</ele><time>2026-04-11T10:51:11Z</time></trkpt><trkpt lat="43.43761772934301" lon="12.624829666463809"><ele>428.25</ele><time>2026-04-11T10:51:12Z</time></trkpt><trkpt lat="43.43767180484902" lon="12.624964915193596"><ele>430.0</ele><time>2026-04-11T10:51:13Z</time></trkpt><trkpt lat="43.43772699670089" lon="12.625102956205124"><ele>430.0</ele><time>2026-04-11T10:51:14Z</time></trkpt><trkpt lat="43.43778339812856" lon="12.625244022307047"><ele>430.0</ele><time>2026-04-11T10:51:15Z</time></trkpt><trkpt lat="43.43784465515514" lon="12.62539159866614"><ele>430.0</ele><time>2026-04-11T10:51:16Z</time></trkpt><trkpt lat="43.43790831701861" lon="12.625544264353984"><ele>430.0</ele><time>2026-04-11T10:51:17Z</time></trkpt><trkpt lat="43.43796989305929" lon="12.625691928227603"><ele>428.5</ele><time>2026-04-11T10:51:18Z</time></trkpt><trkpt lat="43.438041362053134" lon="12.62583146714757"><ele>427.0</ele><time>2026-04-11T10:51:19Z</time></trkpt><trkpt lat="43.438094154560936" lon="12.625978381857436"><ele>425.5</ele><time>2026-04-11T10:51:20Z</time></trkpt><trkpt lat="43.43814550077088" lon="12.62612632366611"><ele>424.0</ele><time>2026-04-11T10:51:21Z</time></trkpt><trkpt lat="43.438199914473145" lon="12.626277584095844"><ele>424.0</ele><time>2026-04-11T10:51:22Z</time></trkpt><trkpt lat="43.43825946111631" lon="12.626428392871249"><ele>424.0</ele><time>2026-04-11T10:51:23Z</time></trkpt><trkpt lat="43.43830628398212" lon="12.626591072669862"><ele>424.0</ele><time>2026-04-11T10:51:24Z</time></trkpt><trkpt lat="43.43837618194348" lon="12.626742022887479"><ele>424.0</ele><time>2026-04-11T10:51:25Z</time></trkpt><trkpt lat="43.43843590876028" lon="12.626909644271676"><ele>424.5</ele><time>2026-04-11T10:51:26Z</time></trkpt><trkpt lat="43.43849822523233" lon="12.627068576461676"><ele>425.0</ele><time>2026-04-11T10:51:27Z</time></trkpt><trkpt lat="43.43856074262343" lon="12.627228131128543"><ele>425.5</ele><time>2026-04-11T10:51:28Z</time></trkpt><trkpt lat="43.43862778915296" lon="12.627387542939427"><ele>426.0</ele><time>2026-04-11T10:51:29Z</time></trkpt><trkpt lat="43.43869805844834" lon="12.627553221459054"><ele>426.0</ele><time>2026-04-11T10:51:30Z</time></trkpt><trkpt lat="43.43876884456205" lon="12.627727271422817"><ele>426.0</ele><time>2026-04-11T10:51:31Z</time></trkpt><trkpt lat="43.438843602624154" lon="12.627901437056325"><ele>426.0</ele><time>2026-04-11T10:51:32Z</time></trkpt><trkpt lat="43.438914010438246" lon="12.628076790091091"><ele>426.0</ele><time>2026-04-11T10:51:33Z</time></trkpt><trkpt lat="43.43898806735084" lon="12.628256128804543"><ele>425.0</ele><time>2026-04-11T10:51:34Z</time></trkpt><trkpt lat="43.43905946666588" lon="12.628430359741712"><ele>424.0</ele><time>2026-04-11T10:51:35Z</time></trkpt><trkpt lat="43.43913207357591" lon="12.62860216378122"><ele>423.0</ele><time>2026-04-11T10:51:36Z</time></trkpt><trkpt lat="43.43920351407705" lon="12.628769675118981"><ele>422.0</ele><time>2026-04-11T10:51:37Z</time></trkpt><trkpt lat="43.43927721898723" lon="12.628937129778853"><ele>422.0</ele><time>2026-04-11T10:51:38Z</time></trkpt><trkpt lat="43.439349273544515" lon="12.62910434677692"><ele>422.0</ele><time>2026-04-11T10:51:39Z</time></trkpt><trkpt lat="43.43942094805987" lon="12.629273778367288"><ele>422.0</ele><time>2026-04-11T10:51:40Z</time></trkpt><trkpt lat="43.439490421507166" lon="12.629440388125353"><ele>422.0</ele><time>2026-04-11T10:51:41Z</time></trkpt><trkpt lat="43.43955718104727" lon="12.629606051563606"><ele>422.5</ele><time>2026-04-11T10:51:42Z</time></trkpt><trkpt lat="43.43962833893143" lon="12.629769252782848"><ele>423.0</ele><time>2026-04-11T10:51:43Z</time></trkpt><trkpt lat="43.43969699709741" lon="12.629927116295294"><ele>423.5</ele><time>2026-04-11T10:51:44Z</time></trkpt><trkpt lat="43.43975951018024" lon="12.630081915910806"><ele>424.0</ele><time>2026-04-11T10:51:45Z</time></trkpt><trkpt lat="43.43981916476834" lon="12.63023152192406"><ele>420.25</ele><time>2026-04-11T10:51:46Z</time></trkpt><trkpt lat="43.43987714306321" lon="12.630379107486796"><ele>416.5</ele><time>2026-04-11T10:51:47Z</time></trkpt><trkpt lat="43.43993671031349" lon="12.630522560485145"><ele>412.75</ele><time>2026-04-11T10:51:48Z</time></trkpt><trkpt lat="43.439998942161886" lon="12.630666126244384"><ele>409.0</ele><time>2026-04-11T10:51:49Z</time></trkpt><trkpt lat="43.44006071560601" lon="12.630811739111282"><ele>409.0</ele><time>2026-04-11T10:51:50Z</time></trkpt><trkpt lat="43.44012651640387" lon="12.630961469313474"><ele>409.0</ele><time>2026-04-11T10:51:51Z</time></trkpt><trkpt lat="43.44019600243352" lon="12.63112915743055"><ele>409.0</ele><time>2026-04-11T10:51:52Z</time></trkpt><trkpt lat="43.44028139726781" lon="12.631276998690039"><ele>409.0</ele><time>2026-04-11T10:51:53Z</time></trkpt><trkpt lat="43.44036855159755" lon="12.631424725910714"><ele>408.25</ele><time>2026-04-11T10:51:54Z</time></trkpt><trkpt lat="43.440455168601424" lon="12.631553907730225"><ele>407.5</ele><time>2026-04-11T10:51:55Z</time></trkpt><trkpt lat="43.440561552637" lon="12.631657661849795"><ele>406.75</ele><time>2026-04-11T10:51:56Z</time></trkpt><trkpt lat="43.440680434378244" lon="12.631724130961816"><ele>406.0</ele><time>2026-04-11T10:51:57Z</time></trkpt><trkpt lat="43.44080770360527" lon="12.631760089039334"><ele>405.20000000000005</ele><time>2026-04-11T10:51:58Z</time></trkpt><trkpt lat="43.440931671999394" lon="12.63177236159051"><ele>404.40000000000003</ele><time>2026-04-11T10:51:59Z</time></trkpt><trkpt lat="43.441047596192654" lon="12.631760610129144"><ele>403.6</ele><time>2026-04-11T10:52:00Z</time></trkpt><trkpt lat="43.441143376463856" lon="12.631763991035308"><ele>402.8</ele><time>2026-04-11T10:52:01Z</time></trkpt><trkpt lat="43.44123087010394" lon="12.63177215110221"><ele>402.0</ele><time>2026-04-11T10:52:02Z</time></trkpt><trkpt lat="43.44129568707244" lon="12.63179039188064"><ele>401.8</ele><time>2026-04-11T10:52:03Z</time></trkpt><trkpt lat="43.44133267086212" lon="12.63192714206736"><ele>401.6</ele><time>2026-04-11T10:52:05Z</time></trkpt><trkpt lat="43.44137053686641" lon="12.63204387871946"><ele>401.40000000000003</ele><time>2026-04-11T10:52:07Z</time></trkpt><trkpt lat="43.44139255392134" lon="12.632126865252918"><ele>401.20000000000005</ele><time>2026-04-11T10:52:09Z</time></trkpt><trkpt lat="43.44141590169891" lon="12.632237316463735"><ele>401.0</ele><time>2026-04-11T10:52:21Z</time></trkpt><trkpt lat="43.44151876996126" lon="12.632327878490381"><ele>403.75</ele><time>2026-04-11T10:52:23Z</time></trkpt><trkpt lat="43.441624930684284" lon="12.63232020117649"><ele>406.5</ele><time>2026-04-11T10:52:24Z</time></trkpt><trkpt lat="43.44174923651558" lon="12.632329269536326"><ele>409.25</ele><time>2026-04-11T10:52:25Z</time></trkpt><trkpt lat="43.44186327000078" lon="12.632404503410466"><ele>412.0</ele><time>2026-04-11T10:52:26Z</time></trkpt><trkpt lat="43.44196853533293" lon="12.6324823052133"><ele>412.0</ele><time>2026-04-11T10:52:27Z</time></trkpt><trkpt lat="43.44206551171982" lon="12.632564436002895"><ele>412.0</ele><time>2026-04-11T10:52:28Z</time></trkpt><trkpt lat="43.44216501333217" lon="12.632640397687767"><ele>412.0</ele><time>2026-04-11T10:52:29Z</time></trkpt><trkpt lat="43.44224650234682" lon="12.632747623396819"><ele>412.0</ele><time>2026-04-11T10:52:30Z</time></trkpt><trkpt lat="43.442319908605526" lon="12.632859837148962"><ele>412.20000000000005</ele><time>2026-04-11T10:52:31Z</time></trkpt><trkpt lat="43.442391914717284" lon="12.63297143324761"><ele>412.4</ele><time>2026-04-11T10:52:32Z</time></trkpt><trkpt lat="43.44246473727188" lon="12.633077085066967"><ele>412.6</ele><time>2026-04-11T10:52:33Z</time></trkpt><trkpt lat="43.44253596327929" lon="12.633179351796619"><ele>412.79999999999995</ele><time>2026-04-11T10:52:34Z</time></trkpt><trkpt lat="43.442604857852295" lon="12.633280387820928"><ele>413.0</ele><time>2026-04-11T10:52:35Z</time></trkpt><trkpt lat="43.44267261349691" lon="12.633376121923364"><ele>413.0</ele><time>2026-04-11T10:52:36Z</time></trkpt><trkpt lat="43.442743925437114" lon="12.633469988314081"><ele>413.0</ele><time>2026-04-11T10:52:37Z</time></trkpt><trkpt lat="43.442823973333816" lon="12.633572716071045"><ele>413.0</ele><time>2026-04-11T10:52:38Z</time></trkpt><trkpt lat="43.44290890779675" lon="12.633679711444897"><ele>413.0</ele><time>2026-04-11T10:52:39Z</time></trkpt><trkpt lat="43.44299274031538" lon="12.633784023462349"><ele>413.0</ele><time>2026-04-11T10:52:40Z</time></trkpt><trkpt lat="43.44307511452644" lon="12.633887197129928"><ele>411.2</ele><time>2026-04-11T10:52:41Z</time></trkpt><trkpt lat="43.443153996718415" lon="12.633982167454544"><ele>409.4</ele><time>2026-04-11T10:52:42Z</time></trkpt><trkpt lat="43.44323149516433" lon="12.634071930524703"><ele>407.59999999999997</ele><time>2026-04-11T10:52:43Z</time></trkpt><trkpt lat="43.44330606760914" lon="12.634153439384502"><ele>405.79999999999995</ele><time>2026-04-11T10:52:44Z</time></trkpt><trkpt lat="43.44337893220007" lon="12.63423569915134"><ele>404.0</ele><time>2026-04-11T10:52:45Z</time></trkpt><trkpt lat="43.443455411369406" lon="12.634321595848448"><ele>404.0</ele><time>2026-04-11T10:52:46Z</time></trkpt><trkpt lat="43.44353435481017" lon="12.634407653650163"><ele>404.0</ele><time>2026-04-11T10:52:47Z</time></trkpt><trkpt lat="43.44361381286645" lon="12.63448206008768"><ele>404.0</ele><time>2026-04-11T10:52:48Z</time></trkpt><trkpt lat="43.44370032588706" lon="12.634547252355706"><ele>404.0</ele><time>2026-04-11T10:52:49Z</time></trkpt><trkpt lat="43.44379747912362" lon="12.634600355498746"><ele>404.0</ele><time>2026-04-11T10:52:50Z</time></trkpt><trkpt lat="43.4438943624711" lon="12.634636069984818"><ele>404.66666666666663</ele><time>2026-04-11T10:52:51Z</time></trkpt><trkpt lat="43.44398509674218" lon="12.634658002713605"><ele>405.3333333333333</ele><time>2026-04-11T10:52:52Z</time></trkpt><trkpt lat="43.444055680035255" lon="12.634673445086682"><ele>406.0</ele><time>2026-04-11T10:52:53Z</time></trkpt><trkpt lat="43.44415007621362" lon="12.634694694645654"><ele>406.66666666666663</ele><time>2026-04-11T10:52:55Z</time></trkpt><trkpt lat="43.444221637788424" lon="12.634707654515319"><ele>407.3333333333333</ele><time>2026-04-11T10:52:58Z</time></trkpt><trkpt lat="43.444309472239404" lon="12.634761546496485"><ele>408.0</ele><time>2026-04-11T10:53:01Z</time></trkpt><trkpt lat="43.44438195935712" lon="12.634804770691778"><ele>408.0</ele><time>2026-04-11T10:53:03Z</time></trkpt><trkpt lat="43.444481622987134" lon="12.634820650531163"><ele>408.0</ele><time>2026-04-11T10:53:05Z</time></trkpt><trkpt lat="43.44445326629397" lon="12.635246379841687"><ele>408.0</ele><time>2026-04-11T10:53:08Z</time></trkpt><trkpt lat="43.444438022083325" lon="12.635411680651016"><ele>409.0</ele><time>2026-04-11T10:53:10Z</time></trkpt><trkpt lat="43.44444037328061" lon="12.635502648639578"><ele>410.0</ele><time>2026-04-11T10:53:11Z</time></trkpt><trkpt lat="43.4444656414469" lon="12.63560587973038"><ele>411.0</ele><time>2026-04-11T10:53:12Z</time></trkpt><trkpt lat="43.444497896363856" lon="12.635728912135304"><ele>412.0</ele><time>2026-04-11T10:53:13Z</time></trkpt><trkpt lat="43.44455974742546" lon="12.635811063304157"><ele>413.0</ele><time>2026-04-11T10:53:14Z</time></trkpt><trkpt lat="43.444619159601835" lon="12.635883440266154"><ele>414.0</ele><time>2026-04-11T10:53:15Z</time></trkpt><trkpt lat="43.444672307296095" lon="12.635951397115077"><ele>414.0</ele><time>2026-04-11T10:53:16Z</time></trkpt><trkpt lat="43.44473845430008" lon="12.636029727625852"><ele>414.0</ele><time>2026-04-11T10:53:17Z</time></trkpt><trkpt lat="43.44481758001527" lon="12.63611384803308"><ele>414.0</ele><time>2026-04-11T10:53:18Z</time></trkpt><trkpt lat="43.444916278310146" lon="12.63620135900163"><ele>414.0</ele><time>2026-04-11T10:53:19Z</time></trkpt><trkpt lat="43.444986852611336" lon="12.636274551021875"><ele>414.0</ele><time>2026-04-11T10:53:20Z</time></trkpt><trkpt lat="43.44504202581948" lon="12.636347481378497"><ele>416.2</ele><time>2026-04-11T10:53:21Z</time></trkpt><trkpt lat="43.445080166169774" lon="12.63643846132066"><ele>418.4</ele><time>2026-04-11T10:53:22Z</time></trkpt><trkpt lat="43.445088503988515" lon="12.636547885982688"><ele>420.6</ele><time>2026-04-11T10:53:23Z</time></trkpt><trkpt lat="43.4450756857605" lon="12.636688958638508"><ele>422.8</ele><time>2026-04-11T10:53:24Z</time></trkpt><trkpt lat="43.44505366589044" lon="12.63683671886163"><ele>425.0</ele><time>2026-04-11T10:53:25Z</time></trkpt><trkpt lat="43.44505641324953" lon="12.63700087486415"><ele>427.4</ele><time>2026-04-11T10:53:26Z</time></trkpt><trkpt lat="43.44507938544216" lon="12.637160169918342"><ele>429.8</ele><time>2026-04-11T10:53:27Z</time></trkpt><trkpt lat="43.445095373960264" lon="12.637309527859204"><ele>432.20000000000005</ele><time>2026-04-11T10:53:28Z</time></trkpt><trkpt lat="43.44510899996829" lon="12.637425456913139"><ele>434.6</ele><time>2026-04-11T10:53:29Z</time></trkpt><trkpt lat="43.44511212971007" lon="12.637548664561356"><ele>437.0</ele><time>2026-04-11T10:53:30Z</time></trkpt><trkpt lat="43.44513018398821" lon="12.637682851680944"><ele>438.0</ele><time>2026-04-11T10:53:31Z</time></trkpt><trkpt lat="43.44516957530099" lon="12.637821858223294"><ele>439.00000000000006</ele><time>2026-04-11T10:53:32Z</time></trkpt><trkpt lat="43.44521899437611" lon="12.637937751090005"><ele>440.00000000000006</ele><time>2026-04-11T10:53:33Z</time></trkpt><trkpt lat="43.445257055169364" lon="12.638044040176238"><ele>441.0</ele><time>2026-04-11T10:53:34Z</time></trkpt><trkpt lat="43.445292788710496" lon="12.638165715715878"><ele>442.0</ele><time>2026-04-11T10:53:35Z</time></trkpt><trkpt lat="43.44533800586281" lon="12.638267502528498"><ele>442.00000000000006</ele><time>2026-04-11T10:53:36Z</time></trkpt><trkpt lat="43.445395474282336" lon="12.638365190942833"><ele>442.0</ele><time>2026-04-11T10:53:37Z</time></trkpt><trkpt lat="43.44546063659835" lon="12.638447788305019"><ele>442.0</ele><time>2026-04-11T10:53:38Z</time></trkpt><trkpt lat="43.445518499934856" lon="12.63851930832534"><ele>442.0</ele><time>2026-04-11T10:53:39Z</time></trkpt><trkpt lat="43.44557320125565" lon="12.63858802076334"><ele>442.00000000000006</ele><time>2026-04-11T10:53:40Z</time></trkpt><trkpt lat="43.44562505864637" lon="12.638654305852626"><ele>442.0</ele><time>2026-04-11T10:53:41Z</time></trkpt><trkpt lat="43.44564336288727" lon="12.638796186362722"><ele>442.7142857142857</ele><time>2026-04-11T10:53:43Z</time></trkpt><trkpt lat="43.44561093555564" lon="12.638879512423904"><ele>443.42857142857144</ele><time>2026-04-11T10:53:44Z</time></trkpt><trkpt lat="43.44558954941969" lon="12.638966029742258"><ele>444.1428571428571</ele><time>2026-04-11T10:53:45Z</time></trkpt><trkpt lat="43.44556494471138" lon="12.639047948435625"><ele>444.8571428571429</ele><time>2026-04-11T10:53:46Z</time></trkpt><trkpt lat="43.44553159110995" lon="12.639140163330728"><ele>445.57142857142856</ele><time>2026-04-11T10:53:48Z</time></trkpt><trkpt lat="43.445468642740465" lon="12.639164184227315"><ele>446.2857142857143</ele><time>2026-04-11T10:53:50Z</time></trkpt><trkpt lat="43.44536657218868" lon="12.639166515537614"><ele>447.0</ele><time>2026-04-11T10:53:52Z</time></trkpt><trkpt lat="43.445251601628115" lon="12.639176472352382"><ele>447.0</ele><time>2026-04-11T10:53:54Z</time></trkpt><trkpt lat="43.44512405382895" lon="12.639181033852001"><ele>447.0</ele><time>2026-04-11T10:53:56Z</time></trkpt><trkpt lat="43.44505547593761" lon="12.63917050201501"><ele>447.0</ele><time>2026-04-11T10:53:57Z</time></trkpt><trkpt lat="43.444983727830774" lon="12.639147504708395"><ele>447.0</ele><time>2026-04-11T10:53:58Z</time></trkpt><trkpt lat="43.444913101423765" lon="12.639123452348617"><ele>447.0</ele><time>2026-04-11T10:53:59Z</time></trkpt><trkpt lat="43.44484682500504" lon="12.639095179112122"><ele>447.0</ele><time>2026-04-11T10:54:00Z</time></trkpt><trkpt lat="43.44477853571549" lon="12.639059029623256"><ele>446.99999999999994</ele><time>2026-04-11T10:54:01Z</time></trkpt><trkpt lat="43.44471007924052" lon="12.639018597756738"><ele>447.0</ele><time>2026-04-11T10:54:02Z</time></trkpt><trkpt lat="43.444639219785195" lon="12.638973396207044"><ele>447.0</ele><time>2026-04-11T10:54:03Z</time></trkpt><trkpt lat="43.44456701348218" lon="12.638932510154138"><ele>447.0</ele><time>2026-04-11T10:54:04Z</time></trkpt><trkpt lat="43.44449643582197" lon="12.638903408382255"><ele>447.0</ele><time>2026-04-11T10:54:05Z</time></trkpt><trkpt lat="43.44443240814672" lon="12.638875516092094"><ele>446.99999999999994</ele><time>2026-04-11T10:54:06Z</time></trkpt><trkpt lat="43.44437881577129" lon="12.638818673937388"><ele>447.0</ele><time>2026-04-11T10:54:07Z</time></trkpt><trkpt lat="43.44433774523" lon="12.638734760222212"><ele>449.0</ele><time>2026-04-11T10:54:08Z</time></trkpt><trkpt lat="43.44432640659645" lon="12.638636146014345"><ele>451.00000000000006</ele><time>2026-04-11T10:54:09Z</time></trkpt><trkpt lat="43.44434593198523" lon="12.638519929338791"><ele>453.00000000000006</ele><time>2026-04-11T10:54:10Z</time></trkpt><trkpt lat="43.44437981432373" lon="12.638390433631386"><ele>455.0</ele><time>2026-04-11T10:54:11Z</time></trkpt><trkpt lat="43.44442575432873" lon="12.63826570286764"><ele>457.0</ele><time>2026-04-11T10:54:12Z</time></trkpt><trkpt lat="43.44449301514255" lon="12.638159507683248"><ele>457.28571428571433</ele><time>2026-04-11T10:54:13Z</time></trkpt><trkpt lat="43.44455015365396" lon="12.638078490120932"><ele>457.57142857142856</ele><time>2026-04-11T10:54:14Z</time></trkpt><trkpt lat="43.44458381300448" lon="12.637999870948788"><ele>457.8571428571429</ele><time>2026-04-11T10:54:15Z</time></trkpt><trkpt lat="43.444593892503086" lon="12.637914002148442"><ele>458.14285714285717</ele><time>2026-04-11T10:54:16Z</time></trkpt><trkpt lat="43.44456325231092" lon="12.637825336542862"><ele>458.42857142857144</ele><time>2026-04-11T10:54:17Z</time></trkpt><trkpt lat="43.444499212989676" lon="12.63776162777652"><ele>458.7142857142857</ele><time>2026-04-11T10:54:18Z</time></trkpt><trkpt lat="43.44442444529768" lon="12.637723690499634"><ele>459.0</ele><time>2026-04-11T10:54:19Z</time></trkpt><trkpt lat="43.444334323913615" lon="12.63772394195312"><ele>457.25</ele><time>2026-04-11T10:54:20Z</time></trkpt><trkpt lat="43.44423246042861" lon="12.637733049537852"><ele>455.5</ele><time>2026-04-11T10:54:21Z</time></trkpt><trkpt lat="43.444112895329894" lon="12.63772762623191"><ele>453.75</ele><time>2026-04-11T10:54:22Z</time></trkpt><trkpt lat="43.44398672807353" lon="12.637679596478282"><ele>452.0</ele><time>2026-04-11T10:54:23Z</time></trkpt><trkpt lat="43.44385383385158" lon="12.63764282611527"><ele>456.25</ele><time>2026-04-11T10:54:24Z</time></trkpt><trkpt lat="43.44371949491063" lon="12.637611664023469"><ele>460.5</ele><time>2026-04-11T10:54:25Z</time></trkpt><trkpt lat="43.44358509210173" lon="12.637591560011302"><ele>464.75</ele><time>2026-04-11T10:54:26Z</time></trkpt><trkpt lat="43.44346175186815" lon="12.637553004528918"><ele>469.0</ele><time>2026-04-11T10:54:27Z</time></trkpt><trkpt lat="43.44333970304113" lon="12.637510298455297"><ele>469.0</ele><time>2026-04-11T10:54:28Z</time></trkpt><trkpt lat="43.44321359714405" lon="12.637472661596414"><ele>469.0</ele><time>2026-04-11T10:54:29Z</time></trkpt><trkpt lat="43.4430849739881" lon="12.63743683440349"><ele>469.0</ele><time>2026-04-11T10:54:30Z</time></trkpt><trkpt lat="43.44295912735231" lon="12.637390116976986"><ele>469.0</ele><time>2026-04-11T10:54:31Z</time></trkpt><trkpt lat="43.442834882017856" lon="12.637343054138883"><ele>472.2</ele><time>2026-04-11T10:54:32Z</time></trkpt><trkpt lat="43.44271316094926" lon="12.637294176638898"><ele>475.4</ele><time>2026-04-11T10:54:33Z</time></trkpt><trkpt lat="43.442607523620005" lon="12.63724056190648"><ele>478.6</ele><time>2026-04-11T10:54:34Z</time></trkpt><trkpt lat="43.442510293234115" lon="12.637198853056594"><ele>481.8</ele><time>2026-04-11T10:54:35Z</time></trkpt><trkpt lat="43.44241955817207" lon="12.637169215442855"><ele>485.0</ele><time>2026-04-11T10:54:36Z</time></trkpt><trkpt lat="43.4423286437247" lon="12.637162719368481"><ele>484.99999999999994</ele><time>2026-04-11T10:54:37Z</time></trkpt><trkpt lat="43.44223783123705" lon="12.637175557338983"><ele>485.0</ele><time>2026-04-11T10:54:38Z</time></trkpt><trkpt lat="43.44215721797532" lon="12.637184219239598"><ele>485.0</ele><time>2026-04-11T10:54:39Z</time></trkpt><trkpt lat="43.442092683440706" lon="12.637192233761676"><ele>485.0</ele><time>2026-04-11T10:54:40Z</time></trkpt><trkpt lat="43.44201775814572" lon="12.637229371514497"><ele>484.99999999999994</ele><time>2026-04-11T10:54:42Z</time></trkpt><trkpt lat="43.4420282056517" lon="12.637374968040858"><ele>485.0</ele><time>2026-04-11T10:54:44Z</time></trkpt><trkpt lat="43.4421295189504" lon="12.637367490164861"><ele>484.99999999999994</ele><time>2026-04-11T10:54:45Z</time></trkpt><trkpt lat="43.44220163351434" lon="12.637408151476928"><ele>485.0</ele><time>2026-04-11T10:54:46Z</time></trkpt><trkpt lat="43.44226445039421" lon="12.6374324216377"><ele>485.0</ele><time>2026-04-11T10:54:47Z</time></trkpt><trkpt lat="43.44233133848726" lon="12.637487233594394"><ele>485.0</ele><time>2026-04-11T10:54:48Z</time></trkpt><trkpt lat="43.44239464041314" lon="12.637574917572119"><ele>484.99999999999994</ele><time>2026-04-11T10:54:49Z</time></trkpt><trkpt lat="43.44246650852494" lon="12.637671925576685"><ele>485.0</ele><time>2026-04-11T10:54:50Z</time></trkpt><trkpt lat="43.44253174460226" lon="12.637805743126858"><ele>488.5</ele><time>2026-04-11T10:54:51Z</time></trkpt><trkpt lat="43.4425999137123" lon="12.637931450390589"><ele>492.0</ele><time>2026-04-11T10:54:52Z</time></trkpt><trkpt lat="43.44267925742289" lon="12.638047972055697"><ele>495.5</ele><time>2026-04-11T10:54:53Z</time></trkpt><trkpt lat="43.44278207704038" lon="12.638128040604864"><ele>499.0</ele><time>2026-04-11T10:54:54Z</time></trkpt><trkpt lat="43.442887558611595" lon="12.638184888429512"><ele>496.0</ele><time>2026-04-11T10:54:55Z</time></trkpt><trkpt lat="43.442983840986294" lon="12.638228969042604"><ele>493.0</ele><time>2026-04-11T10:54:56Z</time></trkpt><trkpt lat="43.44305586049684" lon="12.638289545589325"><ele>490.0</ele><time>2026-04-11T10:54:57Z</time></trkpt><trkpt lat="43.44310438280587" lon="12.63835761317737"><ele>487.0</ele><time>2026-04-11T10:54:58Z</time></trkpt><trkpt lat="43.44311633669647" lon="12.638495941453378"><ele>484.0</ele><time>2026-04-11T10:55:00Z</time></trkpt><trkpt lat="43.44306341997704" lon="12.638617203640667"><ele>487.5</ele><time>2026-04-11T10:55:02Z</time></trkpt><trkpt lat="43.442918078140714" lon="12.638583135006602"><ele>491.0</ele><time>2026-04-11T10:55:03Z</time></trkpt><trkpt lat="43.44283267556973" lon="12.638629516982382"><ele>494.5</ele><time>2026-04-11T10:55:04Z</time></trkpt><trkpt lat="43.44275137506368" lon="12.638775299605374"><ele>498.0</ele><time>2026-04-11T10:55:05Z</time></trkpt><trkpt lat="43.442703801155226" lon="12.638868462206753"><ele>498.0</ele><time>2026-04-11T10:55:06Z</time></trkpt><trkpt lat="43.44263459106946" lon="12.63894899151568"><ele>497.99999999999994</ele><time>2026-04-11T10:55:07Z</time></trkpt><trkpt lat="43.44255098313583" lon="12.638998849556758"><ele>497.99999999999994</ele><time>2026-04-11T10:55:08Z</time></trkpt><trkpt lat="43.442435648539345" lon="12.639046341678613"><ele>498.0</ele><time>2026-04-11T10:55:09Z</time></trkpt><trkpt lat="43.442348576092265" lon="12.63916260092153"><ele>498.0</ele><time>2026-04-11T10:55:10Z</time></trkpt><trkpt lat="43.44224736877327" lon="12.639223676108411"><ele>498.0</ele><time>2026-04-11T10:55:11Z</time></trkpt><trkpt lat="43.442147534915264" lon="12.639279347209909"><ele>497.99999999999994</ele><time>2026-04-11T10:55:12Z</time></trkpt><trkpt lat="43.44206964606648" lon="12.639379965657687"><ele>497.99999999999994</ele><time>2026-04-11T10:55:13Z</time></trkpt><trkpt lat="43.44196988575482" lon="12.639459471509227"><ele>498.0</ele><time>2026-04-11T10:55:14Z</time></trkpt><trkpt lat="43.44187331179772" lon="12.639549665119333"><ele>498.0</ele><time>2026-04-11T10:55:15Z</time></trkpt><trkpt lat="43.44177955500702" lon="12.639626016314335"><ele>502.0</ele><time>2026-04-11T10:55:16Z</time></trkpt><trkpt lat="43.44168480655953" lon="12.639725615895989"><ele>505.99999999999994</ele><time>2026-04-11T10:55:17Z</time></trkpt><trkpt lat="43.44162120332756" lon="12.6398439721312"><ele>509.99999999999994</ele><time>2026-04-11T10:55:18Z</time></trkpt><trkpt lat="43.441555181335296" lon="12.639940372404396"><ele>514.0</ele><time>2026-04-11T10:55:19Z</time></trkpt><trkpt lat="43.441488317788895" lon="12.640043396999406"><ele>518.0</ele><time>2026-04-11T10:55:20Z</time></trkpt><trkpt lat="43.441418946063266" lon="12.640109102335268"><ele>518.0</ele><time>2026-04-11T10:55:21Z</time></trkpt><trkpt lat="43.441341558461055" lon="12.640173916024033"><ele>518.0</ele><time>2026-04-11T10:55:22Z</time></trkpt><trkpt lat="43.441273549854955" lon="12.640236726117747"><ele>518.0</ele><time>2026-04-11T10:55:23Z</time></trkpt><trkpt lat="43.44119699805045" lon="12.640356997505283"><ele>518.0</ele><time>2026-04-11T10:55:25Z</time></trkpt><trkpt lat="43.44120134989066" lon="12.64045817392235"><ele>518.0</ele><time>2026-04-11T10:55:26Z</time></trkpt><trkpt lat="43.44128336499186" lon="12.640513449015621"><ele>519.8</ele><time>2026-04-11T10:55:27Z</time></trkpt><trkpt lat="43.441358356708186" lon="12.640545534868204"><ele>521.5999999999999</ele><time>2026-04-11T10:55:28Z</time></trkpt><trkpt lat="43.441467192430935" lon="12.640500545051555"><ele>523.4000000000001</ele><time>2026-04-11T10:55:29Z</time></trkpt><trkpt lat="43.44159298706548" lon="12.640470239725534"><ele>525.2</ele><time>2026-04-11T10:55:30Z</time></trkpt><trkpt lat="43.44171147444967" lon="12.640448366512372"><ele>527.0</ele><time>2026-04-11T10:55:31Z</time></trkpt><trkpt lat="43.441823357233616" lon="12.640464671987386"><ele>527.0</ele><time>2026-04-11T10:55:32Z</time></trkpt><trkpt lat="43.441888893074804" lon="12.640481696291396"><ele>527.0</ele><time>2026-04-11T10:55:33Z</time></trkpt><trkpt lat="43.44199820690222" lon="12.64054120156492"><ele>527.0</ele><time>2026-04-11T10:55:35Z</time></trkpt><trkpt lat="43.44206232488016" lon="12.640606344957746"><ele>527.0</ele><time>2026-04-11T10:55:36Z</time></trkpt><trkpt lat="43.4421115433901" lon="12.640702007706833"><ele>527.0</ele><time>2026-04-11T10:55:37Z</time></trkpt><trkpt lat="43.44215886822301" lon="12.64081916199611"><ele>527.0</ele><time>2026-04-11T10:55:38Z</time></trkpt><trkpt lat="43.4422026328092" lon="12.640940382331086"><ele>524.8000000000001</ele><time>2026-04-11T10:55:39Z</time></trkpt><trkpt lat="43.44223435606316" lon="12.641063654933124"><ele>522.6</ele><time>2026-04-11T10:55:40Z</time></trkpt><trkpt lat="43.44224551613538" lon="12.641165592090502"><ele>520.4000000000001</ele><time>2026-04-11T10:55:41Z</time></trkpt><trkpt lat="43.44223260819593" lon="12.64126647876826"><ele>518.2</ele><time>2026-04-11T10:55:42Z</time></trkpt><trkpt lat="43.442250600885956" lon="12.641368318607709"><ele>516.0</ele><time>2026-04-11T10:55:43Z</time></trkpt><trkpt lat="43.442409200394124" lon="12.64140123529398"><ele>519.8333333333334</ele><time>2026-04-11T10:55:45Z</time></trkpt><trkpt lat="43.44248926863364" lon="12.641366770980582"><ele>523.6666666666666</ele><time>2026-04-11T10:55:46Z</time></trkpt><trkpt lat="43.44256154556236" lon="12.64131252879858"><ele>527.5</ele><time>2026-04-11T10:55:47Z</time></trkpt><trkpt lat="43.44263556763835" lon="12.641284320148952"><ele>531.3333333333333</ele><time>2026-04-11T10:55:48Z</time></trkpt><trkpt lat="43.442723374236635" lon="12.641287593704515"><ele>535.1666666666666</ele><time>2026-04-11T10:55:49Z</time></trkpt><trkpt lat="43.44280370692333" lon="12.641325622810452"><ele>539.0</ele><time>2026-04-11T10:55:50Z</time></trkpt><trkpt lat="43.442850422379166" lon="12.641432313997463"><ele>539.0</ele><time>2026-04-11T10:55:51Z</time></trkpt><trkpt lat="43.44291985103653" lon="12.641525029933655"><ele>539.0</ele><time>2026-04-11T10:55:52Z</time></trkpt><trkpt lat="43.442970610260495" lon="12.641610891582516"><ele>539.0</ele><time>2026-04-11T10:55:53Z</time></trkpt><trkpt lat="43.44298632874729" lon="12.641775807927656"><ele>539.0</ele><time>2026-04-11T10:55:55Z</time></trkpt><trkpt lat="43.44292433900232" lon="12.64189406314316"><ele>539.0</ele><time>2026-04-11T10:55:57Z</time></trkpt><trkpt lat="43.442853257978236" lon="12.641879287335554"><ele>539.0</ele><time>2026-04-11T10:55:58Z</time></trkpt><trkpt lat="43.44279738575804" lon="12.641819401952214"><ele>539.0</ele><time>2026-04-11T10:55:59Z</time></trkpt><trkpt lat="43.442710608138924" lon="12.641769951235242"><ele>539.0</ele><time>2026-04-11T10:56:00Z</time></trkpt><trkpt lat="43.442609352093356" lon="12.641726939144052"><ele>539.0</ele><time>2026-04-11T10:56:01Z</time></trkpt><trkpt lat="43.44251530794737" lon="12.64171895247337"><ele>539.0</ele><time>2026-04-11T10:56:02Z</time></trkpt><trkpt lat="43.44241560614656" lon="12.641796710636067"><ele>539.0</ele><time>2026-04-11T10:56:03Z</time></trkpt><trkpt lat="43.44231658541899" lon="12.641878046954345"><ele>539.0</ele><time>2026-04-11T10:56:04Z</time></trkpt><trkpt lat="43.44220557903082" lon="12.641952984894617"><ele>539.0</ele><time>2026-04-11T10:56:05Z</time></trkpt><trkpt lat="43.442098749607624" lon="12.641929248831792"><ele>539.0</ele><time>2026-04-11T10:56:06Z</time></trkpt><trkpt lat="43.44198007752193" lon="12.641899515468806"><ele>541.0</ele><time>2026-04-11T10:56:07Z</time></trkpt><trkpt lat="43.441855627975706" lon="12.641850550057622"><ele>543.0</ele><time>2026-04-11T10:56:08Z</time></trkpt><trkpt lat="43.44175112104543" lon="12.64178708343037"><ele>545.0</ele><time>2026-04-11T10:56:09Z</time></trkpt><trkpt lat="43.441675619877" lon="12.64168092931271"><ele>547.0</ele><time>2026-04-11T10:56:10Z</time></trkpt><trkpt lat="43.44163296934616" lon="12.641562640724464"><ele>549.0</ele><time>2026-04-11T10:56:11Z</time></trkpt><trkpt lat="43.44159388374947" lon="12.641468887420569"><ele>549.0</ele><time>2026-04-11T10:56:12Z</time></trkpt><trkpt lat="43.44153506186176" lon="12.641422884413053"><ele>549.0</ele><time>2026-04-11T10:56:13Z</time></trkpt><trkpt lat="43.44146137293856" lon="12.641382106668878"><ele>549.0</ele><time>2026-04-11T10:56:14Z</time></trkpt><trkpt lat="43.44136659663345" lon="12.641415437801136"><ele>549.0</ele><time>2026-04-11T10:56:15Z</time></trkpt><trkpt lat="43.441269002722024" lon="12.64145790644287"><ele>549.0</ele><time>2026-04-11T10:56:16Z</time></trkpt><trkpt lat="43.441170668991525" lon="12.641467349468503"><ele>549.0</ele><time>2026-04-11T10:56:17Z</time></trkpt><trkpt lat="43.441081825285444" lon="12.641476420992161"><ele>548.6</ele><time>2026-04-11T10:56:18Z</time></trkpt><trkpt lat="43.44099805159748" lon="12.641401744630272"><ele>548.2</ele><time>2026-04-11T10:56:19Z</time></trkpt><trkpt lat="43.44092086938392" lon="12.641294200054652"><ele>547.8000000000001</ele><time>2026-04-11T10:56:20Z</time></trkpt><trkpt lat="43.44083302078631" lon="12.64115842536722"><ele>547.4</ele><time>2026-04-11T10:56:21Z</time></trkpt><trkpt lat="43.440740980937015" lon="12.641102510270047"><ele>547.0</ele><time>2026-04-11T10:56:22Z</time></trkpt><trkpt lat="43.44064924309572" lon="12.641026914071125"><ele>547.0</ele><time>2026-04-11T10:56:23Z</time></trkpt><trkpt lat="43.440541871331696" lon="12.640989159103357"><ele>547.0</ele><time>2026-04-11T10:56:24Z</time></trkpt><trkpt lat="43.440449332712696" lon="12.640989185463882"><ele>547.0</ele><time>2026-04-11T10:56:25Z</time></trkpt><trkpt lat="43.44038124105871" lon="12.640967591993086"><ele>547.0</ele><time>2026-04-11T10:56:26Z</time></trkpt><trkpt lat="43.44032116909858" lon="12.640913108732354"><ele>547.0</ele><time>2026-04-11T10:56:27Z</time></trkpt><trkpt lat="43.44028565221818" lon="12.640814301823669"><ele>547.0</ele><time>2026-04-11T10:56:28Z</time></trkpt><trkpt lat="43.44030628711799" lon="12.640684523767398"><ele>552.6</ele><time>2026-04-11T10:56:29Z</time></trkpt><trkpt lat="43.44028287634607" lon="12.64054795490396"><ele>558.2</ele><time>2026-04-11T10:56:30Z</time></trkpt><trkpt lat="43.44021569707397" lon="12.640415665443118"><ele>563.8</ele><time>2026-04-11T10:56:31Z</time></trkpt><trkpt lat="43.440145363620395" lon="12.640306538453126"><ele>569.4</ele><time>2026-04-11T10:56:32Z</time></trkpt><trkpt lat="43.44007071664639" lon="12.64019727866019"><ele>575.0</ele><time>2026-04-11T10:56:33Z</time></trkpt><trkpt lat="43.44004019651801" lon="12.640045988227218"><ele>575.0</ele><time>2026-04-11T10:56:34Z</time></trkpt><trkpt lat="43.44000164526807" lon="12.639892642570764"><ele>575.0</ele><time>2026-04-11T10:56:35Z</time></trkpt><trkpt lat="43.43999336983436" lon="12.639753017440572"><ele>575.0</ele><time>2026-04-11T10:56:36Z</time></trkpt><trkpt lat="43.44001804324063" lon="12.639654767835221"><ele>575.0</ele><time>2026-04-11T10:56:37Z</time></trkpt><trkpt lat="43.440101567750965" lon="12.639621359822758"><ele>575.0</ele><time>2026-04-11T10:56:38Z</time></trkpt><trkpt lat="43.44014578672039" lon="12.639520596545045"><ele>575.8</ele><time>2026-04-11T10:56:39Z</time></trkpt><trkpt lat="43.44024059268063" lon="12.639412770214353"><ele>576.6</ele><time>2026-04-11T10:56:40Z</time></trkpt><trkpt lat="43.44030041640391" lon="12.63930095781596"><ele>577.4</ele><time>2026-04-11T10:56:41Z</time></trkpt><trkpt lat="43.440354294142416" lon="12.639199160714334"><ele>578.2</ele><time>2026-04-11T10:56:42Z</time></trkpt><trkpt lat="43.440375606660254" lon="12.639098178254677"><ele>579.0</ele><time>2026-04-11T10:56:43Z</time></trkpt><trkpt lat="43.44037933066292" lon="12.639006457867259"><ele>579.0</ele><time>2026-04-11T10:56:44Z</time></trkpt><trkpt lat="43.440316196542796" lon="12.638884691817825"><ele>579.0</ele><time>2026-04-11T10:56:46Z</time></trkpt><trkpt lat="43.44025176613543" lon="12.638870833505814"><ele>579.0</ele><time>2026-04-11T10:56:47Z</time></trkpt><trkpt lat="43.440109666972724" lon="12.638960506088546"><ele>579.0</ele><time>2026-04-11T10:56:49Z</time></trkpt><trkpt lat="43.44003431784986" lon="12.639051282359988"><ele>579.0</ele><time>2026-04-11T10:56:50Z</time></trkpt><trkpt lat="43.439949889078726" lon="12.639147836008602"><ele>579.0</ele><time>2026-04-11T10:56:51Z</time></trkpt><trkpt lat="43.43983376102529" lon="12.63926746312486"><ele>579.0</ele><time>2026-04-11T10:56:52Z</time></trkpt><trkpt lat="43.43972384205946" lon="12.639357025531304"><ele>579.0</ele><time>2026-04-11T10:56:53Z</time></trkpt><trkpt lat="43.43962478186734" lon="12.63939707080456"><ele>579.0</ele><time>2026-04-11T10:56:54Z</time></trkpt><trkpt lat="43.4395072959378" lon="12.639411098518941"><ele>580.75</ele><time>2026-04-11T10:56:55Z</time></trkpt><trkpt lat="43.43935777632858" lon="12.639412658678237"><ele>582.5</ele><time>2026-04-11T10:56:56Z</time></trkpt><trkpt lat="43.43920444006303" lon="12.639405208067235"><ele>584.25</ele><time>2026-04-11T10:56:57Z</time></trkpt><trkpt lat="43.43910026477377" lon="12.639381277618726"><ele>586.0</ele><time>2026-04-11T10:56:58Z</time></trkpt><trkpt lat="43.43902877933641" lon="12.63936371041503"><ele>586.0</ele><time>2026-04-11T10:56:59Z</time></trkpt><trkpt lat="43.43891947226149" lon="12.63936808114166"><ele>586.0</ele><time>2026-04-11T10:57:01Z</time></trkpt><trkpt lat="43.43884758540791" lon="12.639476493701288"><ele>586.0</ele><time>2026-04-11T10:57:03Z</time></trkpt><trkpt lat="43.438891949737716" lon="12.639587538914721"><ele>586.0</ele><time>2026-04-11T10:57:04Z</time></trkpt><trkpt lat="43.4389917992899" lon="12.63964048964564"><ele>586.0</ele><time>2026-04-11T10:57:05Z</time></trkpt><trkpt lat="43.439049997317895" lon="12.63971997767166"><ele>588.4</ele><time>2026-04-11T10:57:06Z</time></trkpt><trkpt lat="43.43911085303614" lon="12.63984370339172"><ele>590.8</ele><time>2026-04-11T10:57:07Z</time></trkpt><trkpt lat="43.43918358447738" lon="12.63998841527956"><ele>593.1999999999999</ele><time>2026-04-11T10:57:08Z</time></trkpt><trkpt lat="43.43924030087409" lon="12.64010893658503"><ele>595.6</ele><time>2026-04-11T10:57:09Z</time></trkpt><trkpt lat="43.43927759649342" lon="12.640221986533172"><ele>598.0</ele><time>2026-04-11T10:57:10Z</time></trkpt><trkpt lat="43.43930165256088" lon="12.640341524545871"><ele>600.25</ele><time>2026-04-11T10:57:11Z</time></trkpt><trkpt lat="43.43929539104354" lon="12.64045709777868"><ele>602.5</ele><time>2026-04-11T10:57:12Z</time></trkpt><trkpt lat="43.43927606030196" lon="12.6406028800551"><ele>604.75</ele><time>2026-04-11T10:57:13Z</time></trkpt><trkpt lat="43.439247966256694" lon="12.640787691837039"><ele>607.0</ele><time>2026-04-11T10:57:14Z</time></trkpt><trkpt lat="43.43921896504574" lon="12.640984701353135"><ele>607.6</ele><time>2026-04-11T10:57:15Z</time></trkpt><trkpt lat="43.43923142523549" lon="12.641173147260666"><ele>608.2</ele><time>2026-04-11T10:57:16Z</time></trkpt><trkpt lat="43.439229693701606" lon="12.641291103601294"><ele>608.8</ele><time>2026-04-11T10:57:17Z</time></trkpt><trkpt lat="43.439214703037386" lon="12.641385068165162"><ele>609.4</ele><time>2026-04-11T10:57:18Z</time></trkpt><trkpt lat="43.43916789020359" lon="12.641509160016385"><ele>610.0</ele><time>2026-04-11T10:57:19Z</time></trkpt><trkpt lat="43.43910047840076" lon="12.641673647019353"><ele>610.0</ele><time>2026-04-11T10:57:20Z</time></trkpt><trkpt lat="43.4390202792692" lon="12.641868317317199"><ele>610.0</ele><time>2026-04-11T10:57:21Z</time></trkpt><trkpt lat="43.43896364803605" lon="12.642072845878312"><ele>610.0</ele><time>2026-04-11T10:57:22Z</time></trkpt><trkpt lat="43.43888817985734" lon="12.642213151617145"><ele>610.0</ele><time>2026-04-11T10:57:23Z</time></trkpt><trkpt lat="43.43881353742094" lon="12.642321023573505"><ele>610.8333333333334</ele><time>2026-04-11T10:57:24Z</time></trkpt><trkpt lat="43.438723622398754" lon="12.642387616170506"><ele>611.6666666666667</ele><time>2026-04-11T10:57:25Z</time></trkpt><trkpt lat="43.43862763931544" lon="12.642442636511408"><ele>612.5</ele><time>2026-04-11T10:57:26Z</time></trkpt><trkpt lat="43.43856331765455" lon="12.642507242360681"><ele>613.3333333333334</ele><time>2026-04-11T10:57:27Z</time></trkpt><trkpt lat="43.4384919782549" lon="12.642538713176869"><ele>614.1666666666666</ele><time>2026-04-11T10:57:28Z</time></trkpt><trkpt lat="43.43844182715683" lon="12.642636273853647"><ele>615.0</ele><time>2026-04-11T10:57:29Z</time></trkpt><trkpt lat="43.438444734648435" lon="12.642754849833365"><ele>617.6666666666666</ele><time>2026-04-11T10:57:30Z</time></trkpt><trkpt lat="43.43850375834396" lon="12.642832667666083"><ele>620.3333333333334</ele><time>2026-04-11T10:57:31Z</time></trkpt><trkpt lat="43.438583320002444" lon="12.64287383315482"><ele>623.0</ele><time>2026-04-11T10:57:32Z</time></trkpt><trkpt lat="43.438666714239766" lon="12.64283866334619"><ele>625.6666666666667</ele><time>2026-04-11T10:57:33Z</time></trkpt><trkpt lat="43.438749635113" lon="12.642870441088315"><ele>628.3333333333334</ele><time>2026-04-11T10:57:34Z</time></trkpt><trkpt lat="43.438832775293065" lon="12.642930492020186"><ele>631.0</ele><time>2026-04-11T10:57:35Z</time></trkpt><trkpt lat="43.438935584994795" lon="12.643001300026938"><ele>632.0</ele><time>2026-04-11T10:57:36Z</time></trkpt><trkpt lat="43.43906267580577" lon="12.64303589326235"><ele>633.0</ele><time>2026-04-11T10:57:37Z</time></trkpt><trkpt lat="43.43917248260078" lon="12.643126608003309"><ele>634.0</ele><time>2026-04-11T10:57:38Z</time></trkpt><trkpt lat="43.439266695888115" lon="12.64320027838863"><ele>635.0</ele><time>2026-04-11T10:57:39Z</time></trkpt><trkpt lat="43.4393513873222" lon="12.643270665502143"><ele>635.0</ele><time>2026-04-11T10:57:40Z</time></trkpt><trkpt lat="43.43942150484741" lon="12.643337437958966"><ele>635.0</ele><time>2026-04-11T10:57:41Z</time></trkpt><trkpt lat="43.439449104077475" lon="12.643420069215168"><ele>635.0</ele><time>2026-04-11T10:57:42Z</time></trkpt><trkpt lat="43.43942736508473" lon="12.643501902292225"><ele>635.0</ele><time>2026-04-11T10:57:43Z</time></trkpt><trkpt lat="43.43938449594222" lon="12.643573014205638"><ele>635.0</ele><time>2026-04-11T10:57:44Z</time></trkpt><trkpt lat="43.43931304691702" lon="12.64365566378057"><ele>635.0</ele><time>2026-04-11T10:57:45Z</time></trkpt><trkpt lat="43.439235913440854" lon="12.643801982763696"><ele>635.4</ele><time>2026-04-11T10:57:46Z</time></trkpt><trkpt lat="43.439180961789816" lon="12.643968241556973"><ele>635.8</ele><time>2026-04-11T10:57:47Z</time></trkpt><trkpt lat="43.439140288286005" lon="12.644102684661851"><ele>636.2</ele><time>2026-04-11T10:57:48Z</time></trkpt><trkpt lat="43.439096757990484" lon="12.644185673359747"><ele>636.6</ele><time>2026-04-11T10:57:49Z</time></trkpt><trkpt lat="43.43903712262705" lon="12.644221873106291"><ele>637.0</ele><time>2026-04-11T10:57:51Z</time></trkpt><trkpt lat="43.438974382418984" lon="12.644062744764128"><ele>637.0</ele><time>2026-04-11T10:57:53Z</time></trkpt><trkpt lat="43.43897293929347" lon="12.643963658915842"><ele>637.0</ele><time>2026-04-11T10:57:54Z</time></trkpt><trkpt lat="43.438910882069386" lon="12.643889971183079"><ele>637.0</ele><time>2026-04-11T10:57:55Z</time></trkpt><trkpt lat="43.43884645118552" lon="12.643840255054883"><ele>637.0</ele><time>2026-04-11T10:57:56Z</time></trkpt><trkpt lat="43.4387365037759" lon="12.643855506536344"><ele>637.0</ele><time>2026-04-11T10:57:57Z</time></trkpt><trkpt lat="43.438601817667355" lon="12.643817939981211"><ele>639.6</ele><time>2026-04-11T10:57:58Z</time></trkpt><trkpt lat="43.43847485252072" lon="12.643772890858001"><ele>642.2</ele><time>2026-04-11T10:57:59Z</time></trkpt><trkpt lat="43.43836797696123" lon="12.643762965999981"><ele>644.8</ele><time>2026-04-11T10:58:00Z</time></trkpt><trkpt lat="43.43828769228195" lon="12.643752213054004"><ele>647.4</ele><time>2026-04-11T10:58:01Z</time></trkpt><trkpt lat="43.43822061664277" lon="12.643730294248432"><ele>650.0</ele><time>2026-04-11T10:58:02Z</time></trkpt><trkpt lat="43.43811157290274" lon="12.643814943962086"><ele>650.0</ele><time>2026-04-11T10:58:04Z</time></trkpt><trkpt lat="43.43811873653379" lon="12.643915933153483"><ele>650.0</ele><time>2026-04-11T10:58:05Z</time></trkpt><trkpt lat="43.43817191802993" lon="12.643996741513844"><ele>650.0</ele><time>2026-04-11T10:58:06Z</time></trkpt><trkpt lat="43.438261813250044" lon="12.643982111812488"><ele>650.0</ele><time>2026-04-11T10:58:07Z</time></trkpt><trkpt lat="43.438343787964776" lon="12.644001710961293"><ele>650.0</ele><time>2026-04-11T10:58:08Z</time></trkpt><trkpt lat="43.43841764773217" lon="12.644076598891782"><ele>650.0</ele><time>2026-04-11T10:58:09Z</time></trkpt><trkpt lat="43.43847139647274" lon="12.644167898946469"><ele>650.0</ele><time>2026-04-11T10:58:10Z</time></trkpt><trkpt lat="43.43851471483271" lon="12.644269396941377"><ele>650.0</ele><time>2026-04-11T10:58:11Z</time></trkpt><trkpt lat="43.43851345024098" lon="12.644375923929676"><ele>650.0</ele><time>2026-04-11T10:58:12Z</time></trkpt><trkpt lat="43.43849423144121" lon="12.644484411836617"><ele>650.0</ele><time>2026-04-11T10:58:13Z</time></trkpt><trkpt lat="43.43843651542652" lon="12.644570038313935"><ele>650.0</ele><time>2026-04-11T10:58:14Z</time></trkpt><trkpt lat="43.43836234009767" lon="12.644652249521673"><ele>650.0</ele><time>2026-04-11T10:58:15Z</time></trkpt><trkpt lat="43.43825880891923" lon="12.644735771446806"><ele>650.5</ele><time>2026-04-11T10:58:16Z</time></trkpt><trkpt lat="43.43814250377512" lon="12.64482149604152"><ele>651.0</ele><time>2026-04-11T10:58:17Z</time></trkpt><trkpt lat="43.43803949490444" lon="12.644896078851268"><ele>651.5</ele><time>2026-04-11T10:58:18Z</time></trkpt><trkpt lat="43.43794083568731" lon="12.644995906720506"><ele>652.0</ele><time>2026-04-11T10:58:19Z</time></trkpt><trkpt lat="43.437874783435504" lon="12.645124164481716"><ele>654.75</ele><time>2026-04-11T10:58:20Z</time></trkpt><trkpt lat="43.43780697803279" lon="12.645271872035192"><ele>657.5</ele><time>2026-04-11T10:58:21Z</time></trkpt><trkpt lat="43.437724836839145" lon="12.64544893064604"><ele>660.25</ele><time>2026-04-11T10:58:22Z</time></trkpt><trkpt lat="43.43766862441241" lon="12.6456308482664"><ele>663.0</ele><time>2026-04-11T10:58:23Z</time></trkpt><trkpt lat="43.437630003596155" lon="12.645775279066253"><ele>663.0</ele><time>2026-04-11T10:58:24Z</time></trkpt><trkpt lat="43.43758413431029" lon="12.6458763496468"><ele>663.0</ele><time>2026-04-11T10:58:25Z</time></trkpt><trkpt lat="43.437506023911304" lon="12.645952168648947"><ele>663.0</ele><time>2026-04-11T10:58:26Z</time></trkpt><trkpt lat="43.43740145448143" lon="12.646060808447347"><ele>663.0</ele><time>2026-04-11T10:58:27Z</time></trkpt><trkpt lat="43.437294486269295" lon="12.646171417778866"><ele>663.0</ele><time>2026-04-11T10:58:28Z</time></trkpt><trkpt lat="43.4372068634107" lon="12.646241884351664"><ele>663.8333333333334</ele><time>2026-04-11T10:58:29Z</time></trkpt><trkpt lat="43.437117523178415" lon="12.646297729151609"><ele>664.6666666666666</ele><time>2026-04-11T10:58:30Z</time></trkpt><trkpt lat="43.43703993658374" lon="12.646345754351321"><ele>665.5</ele><time>2026-04-11T10:58:31Z</time></trkpt><trkpt lat="43.4369879966625" lon="12.64640072037654"><ele>666.3333333333333</ele><time>2026-04-11T10:58:32Z</time></trkpt><trkpt lat="43.436917932718245" lon="12.646495915839617"><ele>667.1666666666666</ele><time>2026-04-11T10:58:34Z</time></trkpt><trkpt lat="43.43694342581644" lon="12.646609762724395"><ele>668.0</ele><time>2026-04-11T10:58:35Z</time></trkpt><trkpt lat="43.437010803307004" lon="12.646693628704032"><ele>669.25</ele><time>2026-04-11T10:58:36Z</time></trkpt><trkpt lat="43.43714419797412" lon="12.646654299899351"><ele>670.5</ele><time>2026-04-11T10:58:37Z</time></trkpt><trkpt lat="43.4372505260604" lon="12.646669006936904"><ele>671.75</ele><time>2026-04-11T10:58:38Z</time></trkpt><trkpt lat="43.43738046316765" lon="12.646722027133954"><ele>673.0</ele><time>2026-04-11T10:58:39Z</time></trkpt><trkpt lat="43.437524277858735" lon="12.646708893279284"><ele>673.0</ele><time>2026-04-11T10:58:40Z</time></trkpt><trkpt lat="43.43764009356293" lon="12.646692400849291"><ele>673.0</ele><time>2026-04-11T10:58:41Z</time></trkpt><trkpt lat="43.437748932840364" lon="12.646654828017933"><ele>673.0</ele><time>2026-04-11T10:58:42Z</time></trkpt><trkpt lat="43.4378440986775" lon="12.646651948838496"><ele>673.0</ele><time>2026-04-11T10:58:43Z</time></trkpt><trkpt lat="43.437938983053144" lon="12.646666742055809"><ele>673.0</ele><time>2026-04-11T10:58:44Z</time></trkpt><trkpt lat="43.438043953870284" lon="12.646714297304873"><ele>673.3333333333334</ele><time>2026-04-11T10:58:45Z</time></trkpt><trkpt lat="43.43816285060563" lon="12.646811277352011"><ele>673.6666666666666</ele><time>2026-04-11T10:58:46Z</time></trkpt><trkpt lat="43.438319008126726" lon="12.646895293321464"><ele>674.0</ele><time>2026-04-11T10:58:47Z</time></trkpt><trkpt lat="43.438477190442185" lon="12.646961395571845"><ele>674.75</ele><time>2026-04-11T10:58:48Z</time></trkpt><trkpt lat="43.43861175013177" lon="12.6470155784962"><ele>675.5</ele><time>2026-04-11T10:58:49Z</time></trkpt><trkpt lat="43.43871505293532" lon="12.647072989565281"><ele>676.25</ele><time>2026-04-11T10:58:50Z</time></trkpt><trkpt lat="43.43879971668342" lon="12.647140834418604"><ele>677.0</ele><time>2026-04-11T10:58:51Z</time></trkpt><trkpt lat="43.4388846361942" lon="12.647228562692652"><ele>677.0</ele><time>2026-04-11T10:58:52Z</time></trkpt><trkpt lat="43.43896483335579" lon="12.647343368010006"><ele>677.0</ele><time>2026-04-11T10:58:53Z</time></trkpt><trkpt lat="43.43902059151354" lon="12.647482621339595"><ele>677.0</ele><time>2026-04-11T10:58:54Z</time></trkpt><trkpt lat="43.43908554985815" lon="12.647654287020993"><ele>677.0</ele><time>2026-04-11T10:58:55Z</time></trkpt><trkpt lat="43.43914701888472" lon="12.647812303880702"><ele>680.0</ele><time>2026-04-11T10:58:56Z</time></trkpt><trkpt lat="43.43921632248691" lon="12.647949877619828"><ele>683.0</ele><time>2026-04-11T10:58:57Z</time></trkpt><trkpt lat="43.43934014534197" lon="12.648036502076854"><ele>686.0</ele><time>2026-04-11T10:58:58Z</time></trkpt><trkpt lat="43.43941393285946" lon="12.648108342492637"><ele>689.0</ele><time>2026-04-11T10:58:59Z</time></trkpt><trkpt lat="43.439474025132675" lon="12.648195131557081"><ele>692.0</ele><time>2026-04-11T10:59:00Z</time></trkpt><trkpt lat="43.439480341744165" lon="12.648299017822819"><ele>692.0</ele><time>2026-04-11T10:59:01Z</time></trkpt><trkpt lat="43.43947676612577" lon="12.648400388219562"><ele>692.0</ele><time>2026-04-11T10:59:02Z</time></trkpt><trkpt lat="43.439456998626845" lon="12.648493655091736"><ele>692.0</ele><time>2026-04-11T10:59:03Z</time></trkpt><trkpt lat="43.439405631606064" lon="12.648557704209923"><ele>692.0</ele><time>2026-04-11T10:59:05Z</time></trkpt><trkpt lat="43.439325039820005" lon="12.648437922026602"><ele>692.0</ele><time>2026-04-11T10:59:07Z</time></trkpt><trkpt lat="43.43925128846716" lon="12.648383266616294"><ele>692.0</ele><time>2026-04-11T10:59:08Z</time></trkpt><trkpt lat="43.439181127709084" lon="12.648314786383843"><ele>692.0</ele><time>2026-04-11T10:59:09Z</time></trkpt><trkpt lat="43.43908879104019" lon="12.648260094828093"><ele>692.0</ele><time>2026-04-11T10:59:10Z</time></trkpt><trkpt lat="43.43896879498176" lon="12.648285741988573"><ele>692.0</ele><time>2026-04-11T10:59:11Z</time></trkpt><trkpt lat="43.43885692880375" lon="12.648294950026518"><ele>692.0</ele><time>2026-04-11T10:59:12Z</time></trkpt><trkpt lat="43.43875795261764" lon="12.648291735586762"><ele>692.0</ele><time>2026-04-11T10:59:13Z</time></trkpt><trkpt lat="43.4386599920049" lon="12.648318787494542"><ele>693.4000000000001</ele><time>2026-04-11T10:59:14Z</time></trkpt><trkpt lat="43.43859307505452" lon="12.648398858075636"><ele>694.8000000000001</ele><time>2026-04-11T10:59:15Z</time></trkpt><trkpt lat="43.4385234061248" lon="12.648438123917435"><ele>696.2</ele><time>2026-04-11T10:59:16Z</time></trkpt><trkpt lat="43.438467620487124" lon="12.64851231558467"><ele>697.6</ele><time>2026-04-11T10:59:17Z</time></trkpt><trkpt lat="43.43842820571462" lon="12.648625355884318"><ele>699.0</ele><time>2026-04-11T10:59:18Z</time></trkpt><trkpt lat="43.43844739053107" lon="12.648804760478754"><ele>701.0</ele><time>2026-04-11T10:59:19Z</time></trkpt><trkpt lat="43.43845549442209" lon="12.648971581740033"><ele>703.0</ele><time>2026-04-11T10:59:20Z</time></trkpt><trkpt lat="43.43842215051667" lon="12.649094798267999"><ele>705.0</ele><time>2026-04-11T10:59:21Z</time></trkpt><trkpt lat="43.43836732751083" lon="12.649224507102343"><ele>707.0</ele><time>2026-04-11T10:59:22Z</time></trkpt><trkpt lat="43.438278341690506" lon="12.649351987864556"><ele>709.5</ele><time>2026-04-11T10:59:23Z</time></trkpt><trkpt lat="43.43816992597635" lon="12.649503507587847"><ele>712.0</ele><time>2026-04-11T10:59:24Z</time></trkpt><trkpt lat="43.43807631270917" lon="12.649629520306863"><ele>714.5</ele><time>2026-04-11T10:59:25Z</time></trkpt><trkpt lat="43.43799331466966" lon="12.649729151648405"><ele>717.0</ele><time>2026-04-11T10:59:26Z</time></trkpt><trkpt lat="43.43791307719" lon="12.64980135858438"><ele>717.0</ele><time>2026-04-11T10:59:27Z</time></trkpt><trkpt lat="43.437832956500515" lon="12.64985466861682"><ele>717.0</ele><time>2026-04-11T10:59:28Z</time></trkpt><trkpt lat="43.437758908637896" lon="12.649867799308135"><ele>717.0</ele><time>2026-04-11T10:59:29Z</time></trkpt><trkpt lat="43.437666579753255" lon="12.649849337034151"><ele>717.0</ele><time>2026-04-11T10:59:30Z</time></trkpt><trkpt lat="43.43759706851503" lon="12.649788378909484"><ele>717.0</ele><time>2026-04-11T10:59:31Z</time></trkpt><trkpt lat="43.437568540822326" lon="12.649651229814973"><ele>717.0</ele><time>2026-04-11T10:59:32Z</time></trkpt><trkpt lat="43.437513752951105" lon="12.64956536364878"><ele>717.0</ele><time>2026-04-11T10:59:33Z</time></trkpt><trkpt lat="43.43747299559967" lon="12.649468903985387"><ele>717.0</ele><time>2026-04-11T10:59:34Z</time></trkpt><trkpt lat="43.43741197601742" lon="12.649443827806854"><ele>717.0</ele><time>2026-04-11T10:59:35Z</time></trkpt><trkpt lat="43.4373458194418" lon="12.64943251865097"><ele>717.0</ele><time>2026-04-11T10:59:36Z</time></trkpt><trkpt lat="43.43725182205615" lon="12.649500443483598"><ele>717.0</ele><time>2026-04-11T10:59:37Z</time></trkpt><trkpt lat="43.43713861872972" lon="12.64954390395119"><ele>717.0</ele><time>2026-04-11T10:59:38Z</time></trkpt><trkpt lat="43.43704882713103" lon="12.649552409167987"><ele>716.5</ele><time>2026-04-11T10:59:39Z</time></trkpt><trkpt lat="43.43696620998356" lon="12.649509373209947"><ele>716.0</ele><time>2026-04-11T10:59:40Z</time></trkpt><trkpt lat="43.43690007099167" lon="12.649428075062465"><ele>715.5</ele><time>2026-04-11T10:59:41Z</time></trkpt><trkpt lat="43.43684920708607" lon="12.649321975599854"><ele>715.0</ele><time>2026-04-11T10:59:42Z</time></trkpt><trkpt lat="43.436782763912596" lon="12.649248095270375"><ele>714.5</ele><time>2026-04-11T10:59:43Z</time></trkpt><trkpt lat="43.43670592740623" lon="12.64917222787125"><ele>714.0</ele><time>2026-04-11T10:59:44Z</time></trkpt><trkpt lat="43.436620990484094" lon="12.6491627630802"><ele>714.0</ele><time>2026-04-11T10:59:45Z</time></trkpt><trkpt lat="43.43649070186835" lon="12.649170153092916"><ele>714.0</ele><time>2026-04-11T10:59:46Z</time></trkpt><trkpt lat="43.43634803765194" lon="12.64917899492901"><ele>714.0</ele><time>2026-04-11T10:59:47Z</time></trkpt><trkpt lat="43.43621817402688" lon="12.649181451316336"><ele>714.0</ele><time>2026-04-11T10:59:48Z</time></trkpt><trkpt lat="43.43610624179159" lon="12.649191455162276"><ele>714.6</ele><time>2026-04-11T10:59:49Z</time></trkpt><trkpt lat="43.43599799473473" lon="12.64915229437277"><ele>715.2</ele><time>2026-04-11T10:59:50Z</time></trkpt><trkpt lat="43.4359021436564" lon="12.649091122347844"><ele>715.8000000000001</ele><time>2026-04-11T10:59:51Z</time></trkpt><trkpt lat="43.43579598092836" lon="12.64908509262903"><ele>716.4000000000001</ele><time>2026-04-11T10:59:52Z</time></trkpt><trkpt lat="43.43568597428226" lon="12.649106733174833"><ele>717.0</ele><time>2026-04-11T10:59:53Z</time></trkpt><trkpt lat="43.43558092618738" lon="12.649138444250461"><ele>717.0</ele><time>2026-04-11T10:59:54Z</time></trkpt><trkpt lat="43.43548353280145" lon="12.649151792346117"><ele>717.0</ele><time>2026-04-11T10:59:55Z</time></trkpt><trkpt lat="43.43539528381787" lon="12.649144285659851"><ele>717.0</ele><time>2026-04-11T10:59:56Z</time></trkpt><trkpt lat="43.43531502243448" lon="12.649061556183986"><ele>717.0</ele><time>2026-04-11T10:59:57Z</time></trkpt><trkpt lat="43.43525789384766" lon="12.64896137507893"><ele>717.0</ele><time>2026-04-11T10:59:58Z</time></trkpt><trkpt lat="43.43520262708608" lon="12.648813576755261"><ele>716.6</ele><time>2026-04-11T10:59:59Z</time></trkpt><trkpt lat="43.43514352797227" lon="12.648660920446243"><ele>716.2</ele><time>2026-04-11T11:00:00Z</time></trkpt><trkpt lat="43.435094331312165" lon="12.648556236673288"><ele>715.8</ele><time>2026-04-11T11:00:01Z</time></trkpt><trkpt lat="43.43504640028473" lon="12.648466849343095"><ele>715.4</ele><time>2026-04-11T11:00:02Z</time></trkpt><trkpt lat="43.434999689995564" lon="12.648391541419304"><ele>715.0</ele><time>2026-04-11T11:00:03Z</time></trkpt><trkpt lat="43.434918083395395" lon="12.648316673095472"><ele>715.0</ele><time>2026-04-11T11:00:05Z</time></trkpt><trkpt lat="43.434814149406996" lon="12.648434639807558"><ele>715.0</ele><time>2026-04-11T11:00:07Z</time></trkpt><trkpt lat="43.43483962346083" lon="12.648556725758755"><ele>715.0</ele><time>2026-04-11T11:00:08Z</time></trkpt><trkpt lat="43.43489809871276" lon="12.648651687713672"><ele>715.0</ele><time>2026-04-11T11:00:09Z</time></trkpt><trkpt lat="43.434940723235805" lon="12.648758791086676"><ele>715.0</ele><time>2026-04-11T11:00:10Z</time></trkpt><trkpt lat="43.434947887314756" lon="12.648896331743982"><ele>717.75</ele><time>2026-04-11T11:00:11Z</time></trkpt><trkpt lat="43.43495239692805" lon="12.649074634335978"><ele>720.5</ele><time>2026-04-11T11:00:12Z</time></trkpt><trkpt lat="43.4349643160237" lon="12.649269347016835"><ele>723.25</ele><time>2026-04-11T11:00:13Z</time></trkpt><trkpt lat="43.43498963000295" lon="12.649454564620761"><ele>726.0</ele><time>2026-04-11T11:00:14Z</time></trkpt><trkpt lat="43.435044770064565" lon="12.649640522429937"><ele>726.25</ele><time>2026-04-11T11:00:15Z</time></trkpt><trkpt lat="43.43509161936545" lon="12.649828985955969"><ele>726.5</ele><time>2026-04-11T11:00:16Z</time></trkpt><trkpt lat="43.435138064327376" lon="12.650036248421785"><ele>726.75</ele><time>2026-04-11T11:00:17Z</time></trkpt><trkpt lat="43.43518370300524" lon="12.650227657142926"><ele>727.0</ele><time>2026-04-11T11:00:18Z</time></trkpt><trkpt lat="43.43522538476952" lon="12.650386829363214"><ele>726.1666666666667</ele><time>2026-04-11T11:00:19Z</time></trkpt><trkpt lat="43.435258679312334" lon="12.650522402637073"><ele>725.3333333333334</ele><time>2026-04-11T11:00:20Z</time></trkpt><trkpt lat="43.4352839642404" lon="12.65063638569682"><ele>724.5</ele><time>2026-04-11T11:00:21Z</time></trkpt><trkpt lat="43.43531480728991" lon="12.650732907148921"><ele>723.6666666666666</ele><time>2026-04-11T11:00:22Z</time></trkpt><trkpt lat="43.43533445982828" lon="12.6508229695112"><ele>722.8333333333333</ele><time>2026-04-11T11:00:23Z</time></trkpt><trkpt lat="43.43536665203398" lon="12.650903513904096"><ele>722.0</ele><time>2026-04-11T11:00:24Z</time></trkpt><trkpt lat="43.435409261137856" lon="12.65101432313652"><ele>722.0</ele><time>2026-04-11T11:00:26Z</time></trkpt><trkpt lat="43.43546680713303" lon="12.651101221163966"><ele>722.0</ele><time>2026-04-11T11:00:29Z</time></trkpt><trkpt lat="43.43555873589268" lon="12.651111250704535"><ele>722.0</ele><time>2026-04-11T11:01:41Z</time></trkpt><trkpt lat="43.43562025586602" lon="12.651092554723109"><ele>722.0</ele><time>2026-04-11T11:01:42Z</time></trkpt><trkpt lat="43.43570971422342" lon="12.651086028988466"><ele>722.0</ele><time>2026-04-11T11:01:43Z</time></trkpt><trkpt lat="43.435790486306196" lon="12.651076597666302"><ele>722.0</ele><time>2026-04-11T11:01:44Z</time></trkpt><trkpt lat="43.435869562967824" lon="12.651067995409091"><ele>723.1666666666666</ele><time>2026-04-11T11:01:45Z</time></trkpt><trkpt lat="43.435943918617525" lon="12.651065163978322"><ele>724.3333333333333</ele><time>2026-04-11T11:01:46Z</time></trkpt><trkpt lat="43.436026016389874" lon="12.651068507838694"><ele>725.5</ele><time>2026-04-11T11:01:47Z</time></trkpt><trkpt lat="43.436114283958126" lon="12.651078247183348"><ele>726.6666666666666</ele><time>2026-04-11T11:01:48Z</time></trkpt><trkpt lat="43.436199076737395" lon="12.65109020934921"><ele>727.8333333333334</ele><time>2026-04-11T11:01:49Z</time></trkpt><trkpt lat="43.43628407306419" lon="12.651109815513847"><ele>729.0</ele><time>2026-04-11T11:01:50Z</time></trkpt><trkpt lat="43.4363749714816" lon="12.651141225107455"><ele>729.0</ele><time>2026-04-11T11:01:51Z</time></trkpt><trkpt lat="43.43646570051293" lon="12.65118813990092"><ele>729.0</ele><time>2026-04-11T11:01:52Z</time></trkpt><trkpt lat="43.436559550939066" lon="12.651249213209297"><ele>729.0</ele><time>2026-04-11T11:01:53Z</time></trkpt><trkpt lat="43.43665438723602" lon="12.651318721499466"><ele>729.0</ele><time>2026-04-11T11:01:54Z</time></trkpt><trkpt lat="43.436737705032485" lon="12.651391027344404"><ele>729.0</ele><time>2026-04-11T11:01:55Z</time></trkpt><trkpt lat="43.43682285332636" lon="12.651475717437908"><ele>729.0</ele><time>2026-04-11T11:01:56Z</time></trkpt><trkpt lat="43.43688921973146" lon="12.651566592976003"><ele>729.0</ele><time>2026-04-11T11:01:57Z</time></trkpt><trkpt lat="43.43695903517267" lon="12.6516610030124"><ele>729.0</ele><time>2026-04-11T11:01:58Z</time></trkpt><trkpt lat="43.43704128565622" lon="12.651732358580272"><ele>729.0</ele><time>2026-04-11T11:01:59Z</time></trkpt><trkpt lat="43.43713385247484" lon="12.651770143414595"><ele>729.0</ele><time>2026-04-11T11:02:00Z</time></trkpt><trkpt lat="43.43724706621376" lon="12.651753200611886"><ele>732.75</ele><time>2026-04-11T11:02:01Z</time></trkpt><trkpt lat="43.43735782249409" lon="12.651712557065071"><ele>736.5</ele><time>2026-04-11T11:02:02Z</time></trkpt><trkpt lat="43.43747597466709" lon="12.651757976266591"><ele>740.25</ele><time>2026-04-11T11:02:03Z</time></trkpt><trkpt lat="43.43760930225426" lon="12.651814569643724"><ele>744.0</ele><time>2026-04-11T11:02:04Z</time></trkpt><trkpt lat="43.43776258429711" lon="12.651856506564688"><ele>744.0</ele><time>2026-04-11T11:02:05Z</time></trkpt><trkpt lat="43.437911026315675" lon="12.651899302995945"><ele>744.0</ele><time>2026-04-11T11:02:06Z</time></trkpt><trkpt lat="43.4380635381229" lon="12.651934888777662"><ele>744.0</ele><time>2026-04-11T11:02:07Z</time></trkpt><trkpt lat="43.438212260133085" lon="12.652000038519178"><ele>749.5</ele><time>2026-04-11T11:02:08Z</time></trkpt><trkpt lat="43.438357725485645" lon="12.652056473242725"><ele>755.0</ele><time>2026-04-11T11:02:09Z</time></trkpt><trkpt lat="43.43850493319317" lon="12.652108177693519"><ele>760.5</ele><time>2026-04-11T11:02:10Z</time></trkpt><trkpt lat="43.43864271971649" lon="12.652147410640666"><ele>766.0</ele><time>2026-04-11T11:02:11Z</time></trkpt><trkpt lat="43.43877087335297" lon="12.652178158211896"><ele>764.0</ele><time>2026-04-11T11:02:12Z</time></trkpt><trkpt lat="43.438887668977976" lon="12.65220833923803"><ele>762.0</ele><time>2026-04-11T11:02:13Z</time></trkpt><trkpt lat="43.43898781472769" lon="12.65223288057201"><ele>760.0</ele><time>2026-04-11T11:02:14Z</time></trkpt><trkpt lat="43.4390578519152" lon="12.652247195599287"><ele>758.0</ele><time>2026-04-11T11:02:15Z</time></trkpt><trkpt lat="43.43911554983979" lon="12.652331273142018"><ele>756.0</ele><time>2026-04-11T11:02:17Z</time></trkpt><trkpt lat="43.43913329950403" lon="12.652440840885014"><ele>756.0</ele><time>2026-04-11T11:02:43Z</time></trkpt><trkpt lat="43.43907904430488" lon="12.652493761509422"><ele>756.0</ele><time>2026-04-11T11:02:47Z</time></trkpt><trkpt lat="43.439003404595724" lon="12.652492083627912"><ele>756.0</ele><time>2026-04-11T11:02:51Z</time></trkpt><trkpt lat="43.438925690830715" lon="12.652475243026014"><ele>756.0</ele><time>2026-04-11T11:02:54Z</time></trkpt><trkpt lat="43.43883623568369" lon="12.652489797556784"><ele>756.0</ele><time>2026-04-11T11:02:57Z</time></trkpt><trkpt lat="43.438764898043374" lon="12.652526265962337"><ele>756.0</ele><time>2026-04-11T11:03:00Z</time></trkpt><trkpt lat="43.43869806808091" lon="12.652567955942125"><ele>757.6666666666666</ele><time>2026-04-11T11:03:03Z</time></trkpt><trkpt lat="43.438633543454394" lon="12.652639142861261"><ele>759.3333333333334</ele><time>2026-04-11T11:03:06Z</time></trkpt><trkpt lat="43.43855948722244" lon="12.652689259870767"><ele>761.0</ele><time>2026-04-11T11:03:09Z</time></trkpt><trkpt lat="43.438477595645075" lon="12.652743146720045"><ele>762.6666666666667</ele><time>2026-04-11T11:03:12Z</time></trkpt><trkpt lat="43.4383903543475" lon="12.652780364533907"><ele>764.3333333333334</ele><time>2026-04-11T11:03:15Z</time></trkpt><trkpt lat="43.438330539091474" lon="12.65282845829232"><ele>766.0</ele><time>2026-04-11T11:03:17Z</time></trkpt><trkpt lat="43.43827533023243" lon="12.652900295042937"><ele>768.5</ele><time>2026-04-11T11:03:19Z</time></trkpt><trkpt lat="43.43821534885338" lon="12.652947302725417"><ele>771.0</ele><time>2026-04-11T11:03:21Z</time></trkpt><trkpt lat="43.438143030802706" lon="12.653018848452584"><ele>773.5</ele><time>2026-04-11T11:03:24Z</time></trkpt><trkpt lat="43.4380729100565" lon="12.65307027630727"><ele>776.0</ele><time>2026-04-11T11:03:26Z</time></trkpt><trkpt lat="43.438029826125316" lon="12.653164361135042"><ele>778.4999999999999</ele><time>2026-04-11T11:03:28Z</time></trkpt><trkpt lat="43.438021424897464" lon="12.653261947264156"><ele>781.0</ele><time>2026-04-11T11:03:30Z</time></trkpt><trkpt lat="43.43804752652129" lon="12.65337141307783"><ele>781.0</ele><time>2026-04-11T11:03:32Z</time></trkpt><trkpt lat="43.438083535823345" lon="12.653467499994814"><ele>781.0</ele><time>2026-04-11T11:03:34Z</time></trkpt><trkpt lat="43.43811325267054" lon="12.653550428937434"><ele>781.0</ele><time>2026-04-11T11:03:36Z</time></trkpt><trkpt lat="43.43814977392207" lon="12.653651837227219"><ele>781.0</ele><time>2026-04-11T11:03:39.001Z</time></trkpt><trkpt lat="43.438182348703634" lon="12.65373260553822"><ele>781.0</ele><time>2026-04-11T11:03:41.001Z</time></trkpt><trkpt lat="43.438232511889986" lon="12.653802262823557"><ele>781.0</ele><time>2026-04-11T11:03:43.001Z</time></trkpt><trkpt lat="43.438269386519515" lon="12.653881764965094"><ele>781.0</ele><time>2026-04-11T11:03:45.001Z</time></trkpt><trkpt lat="43.438282332659604" lon="12.653973374296184"><ele>781.9999999999999</ele><time>2026-04-11T11:03:47Z</time></trkpt><trkpt lat="43.43830011690526" lon="12.65406105730595"><ele>783.0</ele><time>2026-04-11T11:03:49Z</time></trkpt><trkpt lat="43.43830967433434" lon="12.65417910343773"><ele>784.0</ele><time>2026-04-11T11:03:52Z</time></trkpt><trkpt lat="43.43830202645499" lon="12.654267871749516"><ele>785.0</ele><time>2026-04-11T11:03:54Z</time></trkpt><trkpt lat="43.438281991484665" lon="12.654374576352845"><ele>785.9999999999999</ele><time>2026-04-11T11:03:56Z</time></trkpt><trkpt lat="43.43825084078592" lon="12.65449873436243"><ele>787.0</ele><time>2026-04-11T11:03:58Z</time></trkpt><trkpt lat="43.438222522245155" lon="12.654651107389896"><ele>788.2</ele><time>2026-04-11T11:04:00Z</time></trkpt><trkpt lat="43.438204677524155" lon="12.654801214757766"><ele>789.4000000000001</ele><time>2026-04-11T11:04:02Z</time></trkpt><trkpt lat="43.43820896019744" lon="12.654889241063234"><ele>790.5999999999999</ele><time>2026-04-11T11:04:03Z</time></trkpt><trkpt lat="43.43821499334985" lon="12.655031348991942"><ele>791.8</ele><time>2026-04-11T11:04:05Z</time></trkpt><trkpt lat="43.43821038196283" lon="12.655175051787433"><ele>793.0</ele><time>2026-04-11T11:04:07Z</time></trkpt><trkpt lat="43.438199664331194" lon="12.655328763005741"><ele>794.0</ele><time>2026-04-11T11:04:09Z</time></trkpt><trkpt lat="43.43821818386278" lon="12.65549934705535"><ele>795.0</ele><time>2026-04-11T11:04:11Z</time></trkpt><trkpt lat="43.438246252251574" lon="12.655661462964835"><ele>796.0</ele><time>2026-04-11T11:04:13Z</time></trkpt><trkpt lat="43.438271092379765" lon="12.655792560251841"><ele>797.0</ele><time>2026-04-11T11:04:15Z</time></trkpt><trkpt lat="43.43829015869889" lon="12.655916995900311"><ele>798.0</ele><time>2026-04-11T11:04:17Z</time></trkpt><trkpt lat="43.43830212238623" lon="12.656054051824395"><ele>802.0</ele><time>2026-04-11T11:04:19Z</time></trkpt><trkpt lat="43.43828277393994" lon="12.6561977469105"><ele>806.0</ele><time>2026-04-11T11:04:21Z</time></trkpt><trkpt lat="43.43825293241971" lon="12.656339821956763"><ele>810.0</ele><time>2026-04-11T11:04:23Z</time></trkpt><trkpt lat="43.438226085272305" lon="12.656475904030899"><ele>814.0</ele><time>2026-04-11T11:04:25Z</time></trkpt><trkpt lat="43.43821636907869" lon="12.656622729185562"><ele>818.0</ele><time>2026-04-11T11:04:27Z</time></trkpt><trkpt lat="43.4382165978789" lon="12.656782296780637"><ele>818.0000000000001</ele><time>2026-04-11T11:04:29Z</time></trkpt><trkpt lat="43.43821529437602" lon="12.656870660862124"><ele>818.0</ele><time>2026-04-11T11:04:30Z</time></trkpt><trkpt lat="43.43822678612214" lon="12.656963091592402"><ele>818.0</ele><time>2026-04-11T11:04:31Z</time></trkpt><trkpt lat="43.43825431251248" lon="12.657050001980531"><ele>818.0</ele><time>2026-04-11T11:04:32Z</time></trkpt><trkpt lat="43.43828839108761" lon="12.657203482588677"><ele>818.0000000000001</ele><time>2026-04-11T11:04:34Z</time></trkpt><trkpt lat="43.438285119494815" lon="12.657357208401166"><ele>818.0</ele><time>2026-04-11T11:04:36Z</time></trkpt><trkpt lat="43.43826011181355" lon="12.657518740029907"><ele>813.75</ele><time>2026-04-11T11:04:38Z</time></trkpt><trkpt lat="43.4382364575861" lon="12.657683842262326"><ele>809.5</ele><time>2026-04-11T11:04:40Z</time></trkpt><trkpt lat="43.43822883949851" lon="12.65783436495503"><ele>805.25</ele><time>2026-04-11T11:04:42Z</time></trkpt><trkpt lat="43.438234736967836" lon="12.657990856400358"><ele>801.0</ele><time>2026-04-11T11:04:44Z</time></trkpt><trkpt lat="43.43825203940887" lon="12.658147251929268"><ele>800.0</ele><time>2026-04-11T11:04:46Z</time></trkpt><trkpt lat="43.438272670643514" lon="12.658304178992296"><ele>799.0</ele><time>2026-04-11T11:04:48Z</time></trkpt><trkpt lat="43.438293548765486" lon="12.658461486976362"><ele>798.0</ele><time>2026-04-11T11:04:50Z</time></trkpt><trkpt lat="43.43831180323613" lon="12.658615075006868"><ele>797.0</ele><time>2026-04-11T11:04:52Z</time></trkpt><trkpt lat="43.43833609615076" lon="12.65869546808691"><ele>796.0</ele><time>2026-04-11T11:04:53Z</time></trkpt><trkpt lat="43.43835520611022" lon="12.658862882479747"><ele>793.1666666666666</ele><time>2026-04-11T11:04:55Z</time></trkpt><trkpt lat="43.438383916419" lon="12.659029000969817"><ele>790.3333333333333</ele><time>2026-04-11T11:04:57Z</time></trkpt><trkpt lat="43.438428052370135" lon="12.659176615092138"><ele>787.5</ele><time>2026-04-11T11:04:59Z</time></trkpt><trkpt lat="43.438472679170346" lon="12.65923978196222"><ele>784.6666666666667</ele><time>2026-04-11T11:05:00Z</time></trkpt><trkpt lat="43.438523298423476" lon="12.659300707220499"><ele>781.8333333333334</ele><time>2026-04-11T11:05:01Z</time></trkpt><trkpt lat="43.43856949708103" lon="12.659381970587843"><ele>779.0</ele><time>2026-04-11T11:05:02Z</time></trkpt><trkpt lat="43.43863301208126" lon="12.659439538484513"><ele>775.0000000000001</ele><time>2026-04-11T11:05:03Z</time></trkpt><trkpt lat="43.43869063860232" lon="12.659508753440969"><ele>771.0</ele><time>2026-04-11T11:05:04Z</time></trkpt><trkpt lat="43.43874656175438" lon="12.65958271654171"><ele>767.0</ele><time>2026-04-11T11:05:05Z</time></trkpt><trkpt lat="43.43880984782444" lon="12.659648441811658"><ele>763.0</ele><time>2026-04-11T11:05:06Z</time></trkpt><trkpt lat="43.43887249855264" lon="12.659720039189553"><ele>759.0</ele><time>2026-04-11T11:05:07Z</time></trkpt><trkpt lat="43.43893113491003" lon="12.659799448186913"><ele>755.0</ele><time>2026-04-11T11:05:08Z</time></trkpt><trkpt lat="43.43898265505171" lon="12.659890167724006"><ele>762.1666666666666</ele><time>2026-04-11T11:05:09Z</time></trkpt><trkpt lat="43.43902096916579" lon="12.659995928112636"><ele>769.3333333333333</ele><time>2026-04-11T11:05:10Z</time></trkpt><trkpt lat="43.43902769374938" lon="12.660111485814916"><ele>776.5</ele><time>2026-04-11T11:05:11Z</time></trkpt><trkpt lat="43.43904702748307" lon="12.660224280717136"><ele>783.6666666666666</ele><time>2026-04-11T11:05:12Z</time></trkpt><trkpt lat="43.439068368572364" lon="12.660330564280793"><ele>790.8333333333334</ele><time>2026-04-11T11:05:13Z</time></trkpt><trkpt lat="43.43908318091967" lon="12.66043570955973"><ele>798.0</ele><time>2026-04-11T11:05:14Z</time></trkpt><trkpt lat="43.43909339349251" lon="12.660539001071328"><ele>798.0</ele><time>2026-04-11T11:05:15Z</time></trkpt><trkpt lat="43.43909344701351" lon="12.660642762045525"><ele>798.0</ele><time>2026-04-11T11:05:16Z</time></trkpt><trkpt lat="43.43908402586346" lon="12.660742781435792"><ele>798.0</ele><time>2026-04-11T11:05:17Z</time></trkpt><trkpt lat="43.43906357435996" lon="12.660835321465226"><ele>798.0</ele><time>2026-04-11T11:05:18Z</time></trkpt><trkpt lat="43.439042023108904" lon="12.660930431288469"><ele>798.0</ele><time>2026-04-11T11:05:19Z</time></trkpt><trkpt lat="43.43901650349684" lon="12.661022914370395"><ele>798.0</ele><time>2026-04-11T11:05:20Z</time></trkpt><trkpt lat="43.43900272735088" lon="12.661131644715047"><ele>798.0</ele><time>2026-04-11T11:05:21Z</time></trkpt><trkpt lat="43.43900375792119" lon="12.661228948733472"><ele>798.1428571428571</ele><time>2026-04-11T11:05:22Z</time></trkpt><trkpt lat="43.43900875254981" lon="12.661320023715772"><ele>798.2857142857142</ele><time>2026-04-11T11:05:23Z</time></trkpt><trkpt lat="43.43901635184079" lon="12.66141364034806"><ele>798.4285714285714</ele><time>2026-04-11T11:05:24Z</time></trkpt><trkpt lat="43.43902486747427" lon="12.66150339387876"><ele>798.5714285714286</ele><time>2026-04-11T11:05:25Z</time></trkpt><trkpt lat="43.43903764802116" lon="12.661598341354729"><ele>798.7142857142857</ele><time>2026-04-11T11:05:26Z</time></trkpt><trkpt lat="43.43905304308042" lon="12.66169334612306"><ele>798.8571428571429</ele><time>2026-04-11T11:05:27Z</time></trkpt><trkpt lat="43.43907061800771" lon="12.661787900463196"><ele>799.0</ele><time>2026-04-11T11:05:28Z</time></trkpt><trkpt lat="43.43908943071662" lon="12.661883452485714"><ele>796.9999999999999</ele><time>2026-04-11T11:05:29Z</time></trkpt><trkpt lat="43.43910780711064" lon="12.661976788621894"><ele>795.0</ele><time>2026-04-11T11:05:30Z</time></trkpt><trkpt lat="43.43914046893795" lon="12.662137412385263"><ele>793.0</ele><time>2026-04-11T11:05:32Z</time></trkpt><trkpt lat="43.43915782423024" lon="12.662221330774557"><ele>791.0</ele><time>2026-04-11T11:05:33Z</time></trkpt><trkpt lat="43.439177394335786" lon="12.662313800793877"><ele>788.9999999999999</ele><time>2026-04-11T11:05:34Z</time></trkpt><trkpt lat="43.43920024301428" lon="12.662416228683968"><ele>787.0</ele><time>2026-04-11T11:05:35Z</time></trkpt><trkpt lat="43.439225294647734" lon="12.662518342831332"><ele>786.9999999999999</ele><time>2026-04-11T11:05:36Z</time></trkpt><trkpt lat="43.43926621038443" lon="12.662612528316698"><ele>787.0</ele><time>2026-04-11T11:05:37Z</time></trkpt><trkpt lat="43.43929179956123" lon="12.662720290501252"><ele>787.0</ele><time>2026-04-11T11:05:38Z</time></trkpt><trkpt lat="43.439315256041134" lon="12.66283531638597"><ele>787.0</ele><time>2026-04-11T11:05:39Z</time></trkpt><trkpt lat="43.43934662819743" lon="12.662948256876772"><ele>786.9999999999999</ele><time>2026-04-11T11:05:40Z</time></trkpt><trkpt lat="43.43936779761779" lon="12.663069599924956"><ele>787.0</ele><time>2026-04-11T11:05:41Z</time></trkpt><trkpt lat="43.439397961758644" lon="12.663181570610691"><ele>785.4999999999999</ele><time>2026-04-11T11:05:42Z</time></trkpt><trkpt lat="43.43942339167169" lon="12.663291765748811"><ele>784.0</ele><time>2026-04-11T11:05:43Z</time></trkpt><trkpt lat="43.43944063506108" lon="12.663401920722585"><ele>782.5</ele><time>2026-04-11T11:05:44Z</time></trkpt><trkpt lat="43.43946815394087" lon="12.663498058114303"><ele>781.0</ele><time>2026-04-11T11:05:45Z</time></trkpt><trkpt lat="43.43948166590406" lon="12.66360071503176"><ele>779.4999999999999</ele><time>2026-04-11T11:05:46Z</time></trkpt><trkpt lat="43.43946516048772" lon="12.663697379619384"><ele>778.0</ele><time>2026-04-11T11:05:47Z</time></trkpt><trkpt lat="43.439472751759" lon="12.663793182392265"><ele>777.8</ele><time>2026-04-11T11:05:48Z</time></trkpt><trkpt lat="43.439460481407515" lon="12.663912517619435"><ele>777.5999999999999</ele><time>2026-04-11T11:05:49Z</time></trkpt><trkpt lat="43.439450251966576" lon="12.664034086837194"><ele>777.4000000000001</ele><time>2026-04-11T11:05:50Z</time></trkpt><trkpt lat="43.439461061819735" lon="12.664156031450137"><ele>777.2</ele><time>2026-04-11T11:05:51Z</time></trkpt><trkpt lat="43.43947510368334" lon="12.664284416286447"><ele>777.0</ele><time>2026-04-11T11:05:52Z</time></trkpt><trkpt lat="43.43950720261217" lon="12.664409535338477"><ele>776.0</ele><time>2026-04-11T11:05:53Z</time></trkpt><trkpt lat="43.43951885520517" lon="12.664541492469152"><ele>775.0</ele><time>2026-04-11T11:05:54Z</time></trkpt><trkpt lat="43.43954022000563" lon="12.664668314464478"><ele>774.0</ele><time>2026-04-11T11:05:55Z</time></trkpt><trkpt lat="43.439562177292665" lon="12.664796963394952"><ele>773.0</ele><time>2026-04-11T11:05:56Z</time></trkpt><trkpt lat="43.43957723882123" lon="12.664926043872375"><ele>772.0</ele><time>2026-04-11T11:05:57Z</time></trkpt><trkpt lat="43.439593034278566" lon="12.665059136638195"><ele>772.0</ele><time>2026-04-11T11:05:58Z</time></trkpt><trkpt lat="43.43961388263077" lon="12.665193700981762"><ele>772.0</ele><time>2026-04-11T11:05:59Z</time></trkpt><trkpt lat="43.439636907971845" lon="12.665328995404346"><ele>772.0</ele><time>2026-04-11T11:06:00Z</time></trkpt><trkpt lat="43.43965831473139" lon="12.665468696164167"><ele>772.0</ele><time>2026-04-11T11:06:01Z</time></trkpt><trkpt lat="43.43968396874598" lon="12.665605081908017"><ele>772.0</ele><time>2026-04-11T11:06:02Z</time></trkpt><trkpt lat="43.439711634269386" lon="12.665747148798092"><ele>778.0</ele><time>2026-04-11T11:06:03Z</time></trkpt><trkpt lat="43.43974236370515" lon="12.665888969799935"><ele>784.0</ele><time>2026-04-11T11:06:04Z</time></trkpt><trkpt lat="43.439775445141635" lon="12.66602343530747"><ele>790.0</ele><time>2026-04-11T11:06:05Z</time></trkpt><trkpt lat="43.439805735513545" lon="12.666159562710597"><ele>796.0</ele><time>2026-04-11T11:06:06Z</time></trkpt><trkpt lat="43.43983941990751" lon="12.666298758199419"><ele>802.0</ele><time>2026-04-11T11:06:07Z</time></trkpt><trkpt lat="43.439878201850696" lon="12.666435544594107"><ele>802.0</ele><time>2026-04-11T11:06:08Z</time></trkpt><trkpt lat="43.439918493599514" lon="12.666575720110504"><ele>802.0</ele><time>2026-04-11T11:06:09Z</time></trkpt><trkpt lat="43.43996144660261" lon="12.666717923975614"><ele>802.0</ele><time>2026-04-11T11:06:10Z</time></trkpt><trkpt lat="43.43999730643234" lon="12.66687210809851"><ele>802.0</ele><time>2026-04-11T11:06:11Z</time></trkpt><trkpt lat="43.44004114863332" lon="12.667026474022332"><ele>798.75</ele><time>2026-04-11T11:06:12Z</time></trkpt><trkpt lat="43.44008055583979" lon="12.66717779263853"><ele>795.5</ele><time>2026-04-11T11:06:13Z</time></trkpt><trkpt lat="43.440117057346384" lon="12.667328459132658"><ele>792.25</ele><time>2026-04-11T11:06:14Z</time></trkpt><trkpt lat="43.44015271634633" lon="12.667479987084004"><ele>789.0</ele><time>2026-04-11T11:06:15Z</time></trkpt><trkpt lat="43.44018698368402" lon="12.667623441243052"><ele>789.0</ele><time>2026-04-11T11:06:16Z</time></trkpt><trkpt lat="43.44021360516933" lon="12.667772265962057"><ele>789.0</ele><time>2026-04-11T11:06:17Z</time></trkpt><trkpt lat="43.44024059989396" lon="12.667922987047755"><ele>789.0</ele><time>2026-04-11T11:06:18Z</time></trkpt><trkpt lat="43.44026561912263" lon="12.668076525223578"><ele>789.0</ele><time>2026-04-11T11:06:19Z</time></trkpt><trkpt lat="43.44028623028291" lon="12.668229279600654"><ele>788.8000000000001</ele><time>2026-04-11T11:06:20Z</time></trkpt><trkpt lat="43.440305189118824" lon="12.668378468902933"><ele>788.6</ele><time>2026-04-11T11:06:21Z</time></trkpt><trkpt lat="43.4403200408851" lon="12.668522257892274"><ele>788.4</ele><time>2026-04-11T11:06:22Z</time></trkpt><trkpt lat="43.44033220222796" lon="12.668660329389986"><ele>788.2</ele><time>2026-04-11T11:06:23Z</time></trkpt><trkpt lat="43.44033912503588" lon="12.668788709920038"><ele>788.0</ele><time>2026-04-11T11:06:24Z</time></trkpt><trkpt lat="43.44034146244308" lon="12.66890119570127"><ele>789.2</ele><time>2026-04-11T11:06:25Z</time></trkpt><trkpt lat="43.44034520246578" lon="12.668994802447832"><ele>790.4</ele><time>2026-04-11T11:06:26Z</time></trkpt><trkpt lat="43.44035384745851" lon="12.669159228442478"><ele>791.6</ele><time>2026-04-11T11:06:28Z</time></trkpt><trkpt lat="43.44035418234017" lon="12.669313440178678"><ele>792.8000000000001</ele><time>2026-04-11T11:06:30Z</time></trkpt><trkpt lat="43.44034613701642" lon="12.669448089135797"><ele>794.0</ele><time>2026-04-11T11:06:32Z</time></trkpt><trkpt lat="43.44032745914543" lon="12.669548704685"><ele>795.1666666666667</ele><time>2026-04-11T11:06:34Z</time></trkpt><trkpt lat="43.44030980669434" lon="12.669666486519532"><ele>796.3333333333334</ele><time>2026-04-11T11:06:38Z</time></trkpt><trkpt lat="43.4402437620797" lon="12.669677038345318"><ele>797.5</ele><time>2026-04-11T11:08:38Z</time></trkpt><trkpt lat="43.44030849204782" lon="12.669682494267573"><ele>798.6666666666667</ele><time>2026-04-11T11:19:41.001Z</time></trkpt><trkpt lat="43.44039466882347" lon="12.669660931745089"><ele>799.8333333333334</ele><time>2026-04-11T11:19:44.001Z</time></trkpt><trkpt lat="43.44046825072662" lon="12.669576520842346"><ele>801.0</ele><time>2026-04-11T11:19:46.002Z</time></trkpt><trkpt lat="43.44055402979048" lon="12.669503009298019"><ele>800.75</ele><time>2026-04-11T11:19:48.002Z</time></trkpt><trkpt lat="43.44064807417387" lon="12.669417088464288"><ele>800.5</ele><time>2026-04-11T11:19:50.002Z</time></trkpt><trkpt lat="43.440744142574204" lon="12.669315659882239"><ele>800.25</ele><time>2026-04-11T11:19:52.002Z</time></trkpt><trkpt lat="43.4408366716664" lon="12.669208915715721"><ele>800.0</ele><time>2026-04-11T11:19:54.002Z</time></trkpt><trkpt lat="43.44093352192101" lon="12.669084495277078"><ele>800.0</ele><time>2026-04-11T11:19:56.002Z</time></trkpt><trkpt lat="43.44098697112759" lon="12.6690309825603"><ele>800.0</ele><time>2026-04-11T11:19:57.002Z</time></trkpt><trkpt lat="43.441037621512876" lon="12.668972166717191"><ele>800.0</ele><time>2026-04-11T11:19:58.002Z</time></trkpt><trkpt lat="43.441130605975175" lon="12.668874802349118"><ele>800.0</ele><time>2026-04-11T11:20:00.002Z</time></trkpt><trkpt lat="43.441236910552306" lon="12.668767978603176"><ele>800.0</ele><time>2026-04-11T11:20:02.002Z</time></trkpt><trkpt lat="43.44129417704046" lon="12.668687973223706"><ele>798.1666666666667</ele><time>2026-04-11T11:20:03.002Z</time></trkpt><trkpt lat="43.441344249646235" lon="12.668605991304446"><ele>796.3333333333334</ele><time>2026-04-11T11:20:04.002Z</time></trkpt><trkpt lat="43.44139635921086" lon="12.668531122488595"><ele>794.5</ele><time>2026-04-11T11:20:05.002Z</time></trkpt><trkpt lat="43.44145287120661" lon="12.668447855432946"><ele>792.6666666666667</ele><time>2026-04-11T11:20:06.002Z</time></trkpt><trkpt lat="43.44151146884918" lon="12.66836889569304"><ele>790.8333333333334</ele><time>2026-04-11T11:20:07.002Z</time></trkpt><trkpt lat="43.44157216262109" lon="12.668284827729128"><ele>789.0</ele><time>2026-04-11T11:20:08.002Z</time></trkpt><trkpt lat="43.44163602619508" lon="12.66820444715232"><ele>789.0</ele><time>2026-04-11T11:20:09.002Z</time></trkpt><trkpt lat="43.44170250203611" lon="12.668129937815664"><ele>789.0</ele><time>2026-04-11T11:20:10.002Z</time></trkpt><trkpt lat="43.441765891623945" lon="12.668062281550018"><ele>789.0</ele><time>2026-04-11T11:20:11.002Z</time></trkpt><trkpt lat="43.44183382318663" lon="12.667998778164675"><ele>789.0</ele><time>2026-04-11T11:20:12.002Z</time></trkpt><trkpt lat="43.44190492854619" lon="12.667929294352117"><ele>789.0</ele><time>2026-04-11T11:20:13.002Z</time></trkpt><trkpt lat="43.4419682788747" lon="12.667865476811505"><ele>789.0</ele><time>2026-04-11T11:20:14.002Z</time></trkpt><trkpt lat="43.44202340358721" lon="12.66780478765454"><ele>786.0</ele><time>2026-04-11T11:20:15.002Z</time></trkpt><trkpt lat="43.44207129584333" lon="12.667742128472089"><ele>783.0</ele><time>2026-04-11T11:20:16.002Z</time></trkpt><trkpt lat="43.44216558324995" lon="12.667639678067458"><ele>780.0</ele><time>2026-04-11T11:20:18.002Z</time></trkpt><trkpt lat="43.442227475992695" lon="12.667605136911394"><ele>777.0</ele><time>2026-04-11T11:20:19.002Z</time></trkpt><trkpt lat="43.44231834428585" lon="12.667657545495395"><ele>774.0</ele><time>2026-04-11T11:20:22.002Z</time></trkpt><trkpt lat="43.4423278718235" lon="12.66775043278843"><ele>771.0</ele><time>2026-04-11T11:20:24.002Z</time></trkpt><trkpt lat="43.442268102761" lon="12.667802706090919"><ele>774.5999999999999</ele><time>2026-04-11T11:20:25.002Z</time></trkpt><trkpt lat="43.442218603974084" lon="12.667887065165147"><ele>778.2</ele><time>2026-04-11T11:20:26.002Z</time></trkpt><trkpt lat="43.442159708394854" lon="12.668017980628631"><ele>781.8</ele><time>2026-04-11T11:20:27.002Z</time></trkpt><trkpt lat="43.44212766517563" lon="12.668155090100981"><ele>785.4000000000001</ele><time>2026-04-11T11:20:28.002Z</time></trkpt><trkpt lat="43.44207085185584" lon="12.668268988678877"><ele>789.0</ele><time>2026-04-11T11:20:29.002Z</time></trkpt><trkpt lat="43.442026981357444" lon="12.668399213493524"><ele>789.0</ele><time>2026-04-11T11:20:30.002Z</time></trkpt><trkpt lat="43.44198078521734" lon="12.66853634147161"><ele>789.0</ele><time>2026-04-11T11:20:31.002Z</time></trkpt><trkpt lat="43.441935391546075" lon="12.668673126088082"><ele>789.0</ele><time>2026-04-11T11:20:32.002Z</time></trkpt><trkpt lat="43.44189394296378" lon="12.668809073374591"><ele>789.0</ele><time>2026-04-11T11:20:33.002Z</time></trkpt><trkpt lat="43.441878548227756" lon="12.668931313984857"><ele>789.0</ele><time>2026-04-11T11:20:34.002Z</time></trkpt><trkpt lat="43.441853233970114" lon="12.669043028034979"><ele>785.1666666666666</ele><time>2026-04-11T11:20:35.002Z</time></trkpt><trkpt lat="43.44181333212018" lon="12.669146982853919"><ele>781.3333333333334</ele><time>2026-04-11T11:20:36.002Z</time></trkpt><trkpt lat="43.44176825668416" lon="12.66924360426964"><ele>777.5</ele><time>2026-04-11T11:20:37.002Z</time></trkpt><trkpt lat="43.44170766810531" lon="12.669322529374496"><ele>773.6666666666667</ele><time>2026-04-11T11:20:38.001Z</time></trkpt><trkpt lat="43.44165650169886" lon="12.669422611907686"><ele>769.8333333333334</ele><time>2026-04-11T11:20:39.001Z</time></trkpt><trkpt lat="43.44159867928103" lon="12.669543226328635"><ele>766.0</ele><time>2026-04-11T11:20:40.001Z</time></trkpt><trkpt lat="43.44153804888084" lon="12.669674945052986"><ele>765.1999999999999</ele><time>2026-04-11T11:20:41.001Z</time></trkpt><trkpt lat="43.44149590005926" lon="12.669817871002854"><ele>764.4</ele><time>2026-04-11T11:20:42.001Z</time></trkpt><trkpt lat="43.44144516919927" lon="12.669954904945682"><ele>763.6</ele><time>2026-04-11T11:20:43.001Z</time></trkpt><trkpt lat="43.44138613485323" lon="12.670079286815264"><ele>762.8</ele><time>2026-04-11T11:20:44.001Z</time></trkpt><trkpt lat="43.44134500314611" lon="12.67021556440004"><ele>762.0</ele><time>2026-04-11T11:20:45.001Z</time></trkpt><trkpt lat="43.441272055422694" lon="12.670319863209366"><ele>762.0</ele><time>2026-04-11T11:20:46.001Z</time></trkpt><trkpt lat="43.441206648960915" lon="12.670437628343734"><ele>762.0</ele><time>2026-04-11T11:20:47.001Z</time></trkpt><trkpt lat="43.44115080496084" lon="12.670553658333262"><ele>762.0</ele><time>2026-04-11T11:20:48.001Z</time></trkpt><trkpt lat="43.44110417258545" lon="12.670688060532951"><ele>762.0</ele><time>2026-04-11T11:20:49.001Z</time></trkpt><trkpt lat="43.44106880122461" lon="12.670827407356887"><ele>762.0</ele><time>2026-04-11T11:20:50.001Z</time></trkpt><trkpt lat="43.441042247477284" lon="12.670971688992543"><ele>762.0</ele><time>2026-04-11T11:20:51.001Z</time></trkpt><trkpt lat="43.44101573114922" lon="12.671101264715224"><ele>762.0</ele><time>2026-04-11T11:20:52.001Z</time></trkpt><trkpt lat="43.44098727482097" lon="12.671225258248175"><ele>762.0</ele><time>2026-04-11T11:20:53.001Z</time></trkpt><trkpt lat="43.44095975682908" lon="12.671345163298945"><ele>762.0</ele><time>2026-04-11T11:20:54.001Z</time></trkpt><trkpt lat="43.44093237710681" lon="12.671464465588588"><ele>762.0</ele><time>2026-04-11T11:20:55.001Z</time></trkpt><trkpt lat="43.440920080559835" lon="12.671583842298833"><ele>757.8333333333334</ele><time>2026-04-11T11:20:56.001Z</time></trkpt><trkpt lat="43.44088797673607" lon="12.671695714541649"><ele>753.6666666666666</ele><time>2026-04-11T11:20:57.001Z</time></trkpt><trkpt lat="43.440845739947264" lon="12.671801996857143"><ele>749.5</ele><time>2026-04-11T11:20:58.001Z</time></trkpt><trkpt lat="43.440809778626694" lon="12.671907687187312"><ele>745.3333333333333</ele><time>2026-04-11T11:20:59.001Z</time></trkpt><trkpt lat="43.4407702121328" lon="12.672010274347473"><ele>741.1666666666666</ele><time>2026-04-11T11:21:00.001Z</time></trkpt><trkpt lat="43.44072873087104" lon="12.67210300572352"><ele>737.0</ele><time>2026-04-11T11:21:01.001Z</time></trkpt><trkpt lat="43.44068390230568" lon="12.672205202654844"><ele>733.4000000000001</ele><time>2026-04-11T11:21:02.001Z</time></trkpt><trkpt lat="43.440641636801416" lon="12.67231365940656"><ele>729.8000000000001</ele><time>2026-04-11T11:21:03.001Z</time></trkpt><trkpt lat="43.44060204090818" lon="12.672407934322894"><ele>726.2</ele><time>2026-04-11T11:21:04.001Z</time></trkpt><trkpt lat="43.44056476133465" lon="12.672508656391148"><ele>722.6</ele><time>2026-04-11T11:21:05.001Z</time></trkpt><trkpt lat="43.44052467290358" lon="12.672623243393687"><ele>719.0</ele><time>2026-04-11T11:21:06.001Z</time></trkpt><trkpt lat="43.4404650904691" lon="12.672745467165965"><ele>724.75</ele><time>2026-04-11T11:21:07.001Z</time></trkpt><trkpt lat="43.440422332067456" lon="12.672893766427828"><ele>730.5</ele><time>2026-04-11T11:21:08.001Z</time></trkpt><trkpt lat="43.44039661707714" lon="12.673047309414233"><ele>736.25</ele><time>2026-04-11T11:21:09.001Z</time></trkpt><trkpt lat="43.44035580471223" lon="12.673188548427058"><ele>742.0</ele><time>2026-04-11T11:21:10.001Z</time></trkpt><trkpt lat="43.44031726587297" lon="12.673339793830856"><ele>742.0</ele><time>2026-04-11T11:21:11.001Z</time></trkpt><trkpt lat="43.440283089325675" lon="12.673495275072957"><ele>742.0</ele><time>2026-04-11T11:21:12.001Z</time></trkpt><trkpt lat="43.44026690881602" lon="12.673626328825593"><ele>742.0</ele><time>2026-04-11T11:21:13.001Z</time></trkpt><trkpt lat="43.440228887977995" lon="12.673777919385369"><ele>742.0</ele><time>2026-04-11T11:21:14.001Z</time></trkpt><trkpt lat="43.440215276453614" lon="12.673919546207326"><ele>742.0</ele><time>2026-04-11T11:21:15.001Z</time></trkpt><trkpt lat="43.44017682921713" lon="12.674053476309469"><ele>738.8</ele><time>2026-04-11T11:21:16.001Z</time></trkpt><trkpt lat="43.44015517423676" lon="12.674195535632844"><ele>735.6</ele><time>2026-04-11T11:21:17.001Z</time></trkpt><trkpt lat="43.44012116694074" lon="12.674321684904873"><ele>732.4</ele><time>2026-04-11T11:21:18.001Z</time></trkpt><trkpt lat="43.44010113258449" lon="12.674454687754784"><ele>729.1999999999999</ele><time>2026-04-11T11:21:19.001Z</time></trkpt><trkpt lat="43.44008817730181" lon="12.674579970645697"><ele>726.0</ele><time>2026-04-11T11:21:20.001Z</time></trkpt><trkpt lat="43.44008097587436" lon="12.674716791274816"><ele>723.4</ele><time>2026-04-11T11:21:21.001Z</time></trkpt><trkpt lat="43.44008313474249" lon="12.674855213044655"><ele>720.8</ele><time>2026-04-11T11:21:22.001Z</time></trkpt><trkpt lat="43.440095261237474" lon="12.67499413167285"><ele>718.1999999999999</ele><time>2026-04-11T11:21:23.001Z</time></trkpt><trkpt lat="43.440095474975685" lon="12.67514195752042"><ele>715.5999999999999</ele><time>2026-04-11T11:21:24.001Z</time></trkpt><trkpt lat="43.44010483267831" lon="12.675281395737116"><ele>713.0</ele><time>2026-04-11T11:21:25.001Z</time></trkpt><trkpt lat="43.440112823984684" lon="12.675426122465014"><ele>711.8</ele><time>2026-04-11T11:21:26.001Z</time></trkpt><trkpt lat="43.44011996224603" lon="12.675575562787106"><ele>710.5999999999999</ele><time>2026-04-11T11:21:27.001Z</time></trkpt><trkpt lat="43.44012699329079" lon="12.675725384314097"><ele>709.4000000000001</ele><time>2026-04-11T11:21:28.001Z</time></trkpt><trkpt lat="43.4401335552184" lon="12.67587257149902"><ele>708.2</ele><time>2026-04-11T11:21:29.001Z</time></trkpt><trkpt lat="43.44013982392351" lon="12.676024797417842"><ele>707.0</ele><time>2026-04-11T11:21:30.001Z</time></trkpt><trkpt lat="43.44014579904418" lon="12.676176857109082"><ele>706.6</ele><time>2026-04-11T11:21:31.001Z</time></trkpt><trkpt lat="43.440151370064335" lon="12.6763312926991"><ele>706.2</ele><time>2026-04-11T11:21:32.001Z</time></trkpt><trkpt lat="43.440171260632795" lon="12.676477347858084"><ele>705.8</ele><time>2026-04-11T11:21:33.001Z</time></trkpt><trkpt lat="43.44017197867633" lon="12.676616247442142"><ele>705.4</ele><time>2026-04-11T11:21:34.001Z</time></trkpt><trkpt lat="43.440177561412405" lon="12.676745237266044"><ele>705.0</ele><time>2026-04-11T11:21:35.001Z</time></trkpt><trkpt lat="43.440183896958644" lon="12.67686709384653"><ele>703.4</ele><time>2026-04-11T11:21:36.001Z</time></trkpt><trkpt lat="43.44017678618637" lon="12.676994806497664"><ele>701.8</ele><time>2026-04-11T11:21:37.001Z</time></trkpt><trkpt lat="43.44017944398955" lon="12.677126090457184"><ele>700.2</ele><time>2026-04-11T11:21:38.001Z</time></trkpt><trkpt lat="43.44017907922335" lon="12.677262079624196"><ele>698.6</ele><time>2026-04-11T11:21:39.001Z</time></trkpt><trkpt lat="43.44016495357993" lon="12.67738719069268"><ele>697.0</ele><time>2026-04-11T11:21:40.001Z</time></trkpt><trkpt lat="43.44017248896208" lon="12.677504233154316"><ele>697.0</ele><time>2026-04-11T11:21:41.001Z</time></trkpt><trkpt lat="43.44015851456044" lon="12.677623868765535"><ele>697.0</ele><time>2026-04-11T11:21:42.001Z</time></trkpt><trkpt lat="43.440137485638076" lon="12.677741916913144"><ele>697.0</ele><time>2026-04-11T11:21:43.001Z</time></trkpt><trkpt lat="43.44011928994404" lon="12.677860352979366"><ele>697.0</ele><time>2026-04-11T11:21:44.001Z</time></trkpt><trkpt lat="43.44010084048919" lon="12.677978093498504"><ele>697.0</ele><time>2026-04-11T11:21:45.001Z</time></trkpt><trkpt lat="43.440071656373945" lon="12.678085322757935"><ele>697.0</ele><time>2026-04-11T11:21:46.001Z</time></trkpt><trkpt lat="43.440061606326715" lon="12.678217105332976"><ele>695.4000000000001</ele><time>2026-04-11T11:21:47.001Z</time></trkpt><trkpt lat="43.44002123541279" lon="12.678347317410587"><ele>693.8000000000001</ele><time>2026-04-11T11:21:48.001Z</time></trkpt><trkpt lat="43.43999860397663" lon="12.678479623337411"><ele>692.2</ele><time>2026-04-11T11:21:49.001Z</time></trkpt><trkpt lat="43.439985555383906" lon="12.67860755568659"><ele>690.6</ele><time>2026-04-11T11:21:50.001Z</time></trkpt><trkpt lat="43.439966307343745" lon="12.67875298751163"><ele>689.0</ele><time>2026-04-11T11:21:51.001Z</time></trkpt><trkpt lat="43.43995760244418" lon="12.678913277703742"><ele>686.0</ele><time>2026-04-11T11:21:52.001Z</time></trkpt><trkpt lat="43.43996092845267" lon="12.679063387546785"><ele>683.0</ele><time>2026-04-11T11:21:53.001Z</time></trkpt><trkpt lat="43.43996281476732" lon="12.679231384985783"><ele>680.0</ele><time>2026-04-11T11:21:54.001Z</time></trkpt><trkpt lat="43.43995105163809" lon="12.679405162058124"><ele>677.0</ele><time>2026-04-11T11:21:55.001Z</time></trkpt><trkpt lat="43.43996340994434" lon="12.679583597479972"><ele>676.75</ele><time>2026-04-11T11:21:56.001Z</time></trkpt><trkpt lat="43.43997349455589" lon="12.67975035206281"><ele>676.5</ele><time>2026-04-11T11:21:57.001Z</time></trkpt><trkpt lat="43.439984372703975" lon="12.67990885585754"><ele>676.25</ele><time>2026-04-11T11:21:58.001Z</time></trkpt><trkpt lat="43.44000076924811" lon="12.680062352770001"><ele>676.0</ele><time>2026-04-11T11:21:59.001Z</time></trkpt><trkpt lat="43.440014542444054" lon="12.68020620740179"><ele>675.4</ele><time>2026-04-11T11:22:00.001Z</time></trkpt><trkpt lat="43.44002361111702" lon="12.680336644023877"><ele>674.8</ele><time>2026-04-11T11:22:01.001Z</time></trkpt><trkpt lat="43.44004134782927" lon="12.680478056604127"><ele>674.1999999999999</ele><time>2026-04-11T11:22:02.001Z</time></trkpt><trkpt lat="43.4400635261556" lon="12.680619900177524"><ele>673.5999999999999</ele><time>2026-04-11T11:22:03.001Z</time></trkpt><trkpt lat="43.44008823335187" lon="12.680761468015982"><ele>673.0</ele><time>2026-04-11T11:22:04.001Z</time></trkpt><trkpt lat="43.44010486090331" lon="12.680874103807993"><ele>673.0</ele><time>2026-04-11T11:22:05.001Z</time></trkpt><trkpt lat="43.440083388614426" lon="12.68099787534581"><ele>673.0</ele><time>2026-04-11T11:22:06.001Z</time></trkpt><trkpt lat="43.4400490162887" lon="12.681116063087371"><ele>673.0</ele><time>2026-04-11T11:22:07.001Z</time></trkpt><trkpt lat="43.44002416341131" lon="12.681276129276151"><ele>673.0</ele><time>2026-04-11T11:22:08.001Z</time></trkpt><trkpt lat="43.439995725908" lon="12.681469719155803"><ele>673.0</ele><time>2026-04-11T11:22:09.001Z</time></trkpt><trkpt lat="43.43997849935086" lon="12.681657119697192"><ele>671.0</ele><time>2026-04-11T11:22:10.001Z</time></trkpt><trkpt lat="43.439961773485585" lon="12.681830734655476"><ele>669.0</ele><time>2026-04-11T11:22:11.001Z</time></trkpt><trkpt lat="43.439958555229175" lon="12.68198939306106"><ele>667.0</ele><time>2026-04-11T11:22:12.001Z</time></trkpt><trkpt lat="43.439921471740426" lon="12.682142197835402"><ele>665.0</ele><time>2026-04-11T11:22:13.001Z</time></trkpt><trkpt lat="43.43988641566485" lon="12.682297976508474"><ele>663.8</ele><time>2026-04-11T11:22:14.001Z</time></trkpt><trkpt lat="43.43986089302039" lon="12.682451776244845"><ele>662.6</ele><time>2026-04-11T11:22:15.001Z</time></trkpt><trkpt lat="43.43986136959668" lon="12.682586045408536"><ele>661.4000000000001</ele><time>2026-04-11T11:22:16.001Z</time></trkpt><trkpt lat="43.439845699030364" lon="12.682688510774996"><ele>660.2</ele><time>2026-04-11T11:22:17.001Z</time></trkpt><trkpt lat="43.439849209986434" lon="12.682816660742251"><ele>659.0</ele><time>2026-04-11T11:22:18.001Z</time></trkpt><trkpt lat="43.43987969848287" lon="12.682933324760922"><ele>659.0</ele><time>2026-04-11T11:22:19.001Z</time></trkpt><trkpt lat="43.439930042378876" lon="12.683019668766198"><ele>659.0</ele><time>2026-04-11T11:22:20.001Z</time></trkpt><trkpt lat="43.43998154004525" lon="12.683081680723438"><ele>659.0</ele><time>2026-04-11T11:22:21.001Z</time></trkpt><trkpt lat="43.440055454745206" lon="12.68315548167805"><ele>659.0</ele><time>2026-04-11T11:22:23.001Z</time></trkpt><trkpt lat="43.440088821247265" lon="12.683245654589868"><ele>659.0</ele><time>2026-04-11T11:23:10.001Z</time></trkpt><trkpt lat="43.44001516054985" lon="12.683358072511469"><ele>659.0</ele><time>2026-04-11T11:23:13.001Z</time></trkpt><trkpt lat="43.43995643863655" lon="12.68342771474605"><ele>659.0</ele><time>2026-04-11T11:23:14.001Z</time></trkpt><trkpt lat="43.43990284110157" lon="12.68351538346343"><ele>659.0</ele><time>2026-04-11T11:23:15.001Z</time></trkpt><trkpt lat="43.43982203317596" lon="12.68359278120269"><ele>659.0</ele><time>2026-04-11T11:23:16.001Z</time></trkpt><trkpt lat="43.43974401106641" lon="12.683697437922676"><ele>659.0</ele><time>2026-04-11T11:23:17.001Z</time></trkpt><trkpt lat="43.439665205186365" lon="12.683808644195732"><ele>659.0</ele><time>2026-04-11T11:23:18.001Z</time></trkpt><trkpt lat="43.43959593025879" lon="12.68393147211044"><ele>660.75</ele><time>2026-04-11T11:23:19.001Z</time></trkpt><trkpt lat="43.439518508089684" lon="12.684063160310405"><ele>662.5</ele><time>2026-04-11T11:23:20.001Z</time></trkpt><trkpt lat="43.439438854708975" lon="12.684186785114294"><ele>664.25</ele><time>2026-04-11T11:23:21.001Z</time></trkpt><trkpt lat="43.439363022458934" lon="12.684308986328105"><ele>666.0</ele><time>2026-04-11T11:23:22.001Z</time></trkpt><trkpt lat="43.4392928897084" lon="12.684425431364506"><ele>664.25</ele><time>2026-04-11T11:23:23.001Z</time></trkpt><trkpt lat="43.4392205513542" lon="12.684537827137817"><ele>662.5</ele><time>2026-04-11T11:23:24.001Z</time></trkpt><trkpt lat="43.439141818735976" lon="12.68466531879357"><ele>660.75</ele><time>2026-04-11T11:23:25.001Z</time></trkpt><trkpt lat="43.439044791839166" lon="12.684796373199465"><ele>659.0</ele><time>2026-04-11T11:23:26.001Z</time></trkpt><trkpt lat="43.43894684937475" lon="12.684941041899435"><ele>659.0</ele><time>2026-04-11T11:23:27.001Z</time></trkpt><trkpt lat="43.43885166322215" lon="12.685094685203067"><ele>659.0</ele><time>2026-04-11T11:23:28.001Z</time></trkpt><trkpt lat="43.438751263166075" lon="12.685249069980902"><ele>659.0</ele><time>2026-04-11T11:23:29.001Z</time></trkpt><trkpt lat="43.4386589944587" lon="12.685409519260123"><ele>659.0</ele><time>2026-04-11T11:23:30.001Z</time></trkpt><trkpt lat="43.438572963135194" lon="12.685565852274285"><ele>658.25</ele><time>2026-04-11T11:23:31.001Z</time></trkpt><trkpt lat="43.438489985836426" lon="12.685723348128993"><ele>657.5</ele><time>2026-04-11T11:23:32.001Z</time></trkpt><trkpt lat="43.43840081282157" lon="12.685883173822889"><ele>656.75</ele><time>2026-04-11T11:23:33.001Z</time></trkpt><trkpt lat="43.438306150125506" lon="12.686059638773294"><ele>656.0</ele><time>2026-04-11T11:23:34.001Z</time></trkpt><trkpt lat="43.43817994292772" lon="12.686251856551886"><ele>658.6666666666666</ele><time>2026-04-11T11:23:35.001Z</time></trkpt><trkpt lat="43.438056127218196" lon="12.686489758457835"><ele>661.3333333333334</ele><time>2026-04-11T11:23:36.001Z</time></trkpt><trkpt lat="43.43795297641418" lon="12.686712313142152"><ele>664.0</ele><time>2026-04-11T11:23:37.001Z</time></trkpt><trkpt lat="43.43785823156407" lon="12.686922077990074"><ele>659.0</ele><time>2026-04-11T11:23:38.001Z</time></trkpt><trkpt lat="43.43778434042531" lon="12.687142172397756"><ele>654.0</ele><time>2026-04-11T11:23:39.001Z</time></trkpt><trkpt lat="43.437694898171124" lon="12.687346030895707"><ele>649.0</ele><time>2026-04-11T11:23:40.001Z</time></trkpt><trkpt lat="43.437589210751256" lon="12.687531712813666"><ele>649.0</ele><time>2026-04-11T11:23:41.001Z</time></trkpt><trkpt lat="43.437489127120315" lon="12.687718566676601"><ele>649.0</ele><time>2026-04-11T11:23:42.001Z</time></trkpt><trkpt lat="43.437405407168896" lon="12.68790838512868"><ele>649.0</ele><time>2026-04-11T11:23:43.001Z</time></trkpt><trkpt lat="43.43731054941125" lon="12.68809752090482"><ele>650.6666666666667</ele><time>2026-04-11T11:23:44.001Z</time></trkpt><trkpt lat="43.43720923223682" lon="12.68827512856948"><ele>652.3333333333334</ele><time>2026-04-11T11:23:45.001Z</time></trkpt><trkpt lat="43.43711874977935" lon="12.688467152463108"><ele>654.0</ele><time>2026-04-11T11:23:46.001Z</time></trkpt><trkpt lat="43.437031627101696" lon="12.688652045033322"><ele>649.0</ele><time>2026-04-11T11:23:47.001Z</time></trkpt><trkpt lat="43.43694481313422" lon="12.688836322773614"><ele>644.0</ele><time>2026-04-11T11:23:48.001Z</time></trkpt><trkpt lat="43.43687138177783" lon="12.689033711999187"><ele>639.0</ele><time>2026-04-11T11:23:49.001Z</time></trkpt><trkpt lat="43.436771328580654" lon="12.689208784896714"><ele>639.0</ele><time>2026-04-11T11:23:50.001Z</time></trkpt><trkpt lat="43.436687970013566" lon="12.689394440874691"><ele>639.0</ele><time>2026-04-11T11:23:51.001Z</time></trkpt><trkpt lat="43.436591374620335" lon="12.689572653213451"><ele>639.0</ele><time>2026-04-11T11:23:52.001Z</time></trkpt><trkpt lat="43.43648804815052" lon="12.689758058409156"><ele>640.3333333333334</ele><time>2026-04-11T11:23:53.001Z</time></trkpt><trkpt lat="43.43637676574893" lon="12.689924594009476"><ele>641.6666666666667</ele><time>2026-04-11T11:23:54.001Z</time></trkpt><trkpt lat="43.43626478506954" lon="12.690095467093423"><ele>643.0</ele><time>2026-04-11T11:23:55.001Z</time></trkpt><trkpt lat="43.436157692909575" lon="12.690263456719064"><ele>638.0</ele><time>2026-04-11T11:23:56.001Z</time></trkpt><trkpt lat="43.4360510836712" lon="12.69042609493382"><ele>633.0</ele><time>2026-04-11T11:23:57.001Z</time></trkpt><trkpt lat="43.435953090906025" lon="12.69060793352057"><ele>628.0</ele><time>2026-04-11T11:23:58.001Z</time></trkpt><trkpt lat="43.43588262157126" lon="12.690822349095757"><ele>628.0</ele><time>2026-04-11T11:23:59.001Z</time></trkpt><trkpt lat="43.43582590972946" lon="12.691053278644633"><ele>628.0</ele><time>2026-04-11T11:24:00.001Z</time></trkpt><trkpt lat="43.43578171182309" lon="12.691297464359993"><ele>628.0</ele><time>2026-04-11T11:24:01.001Z</time></trkpt><trkpt lat="43.435750039931804" lon="12.691537157513231"><ele>624.6666666666667</ele><time>2026-04-11T11:24:02.001Z</time></trkpt><trkpt lat="43.43571905806799" lon="12.69176938577783"><ele>621.3333333333334</ele><time>2026-04-11T11:24:03.001Z</time></trkpt><trkpt lat="43.43568985010659" lon="12.69199837541729"><ele>618.0</ele><time>2026-04-11T11:24:04.001Z</time></trkpt><trkpt lat="43.43566694326884" lon="12.692220961629882"><ele>618.0</ele><time>2026-04-11T11:24:05.001Z</time></trkpt><trkpt lat="43.43565115994652" lon="12.69244632639168"><ele>618.0</ele><time>2026-04-11T11:24:06.001Z</time></trkpt><trkpt lat="43.43565032349695" lon="12.692666206598592"><ele>618.0</ele><time>2026-04-11T11:24:07.001Z</time></trkpt><trkpt lat="43.43566015756711" lon="12.692884529728007"><ele>618.3333333333334</ele><time>2026-04-11T11:24:08.001Z</time></trkpt><trkpt lat="43.435668385885364" lon="12.693098141399668"><ele>618.6666666666667</ele><time>2026-04-11T11:24:09.001Z</time></trkpt><trkpt lat="43.43567904297019" lon="12.693304737508477"><ele>619.0</ele><time>2026-04-11T11:24:10.001Z</time></trkpt><trkpt lat="43.43568699751324" lon="12.693507605874377"><ele>617.75</ele><time>2026-04-11T11:24:11.001Z</time></trkpt><trkpt lat="43.43567952624236" lon="12.693700248592029"><ele>616.5</ele><time>2026-04-11T11:24:12.001Z</time></trkpt><trkpt lat="43.435646392083065" lon="12.693903053137184"><ele>615.25</ele><time>2026-04-11T11:24:13.001Z</time></trkpt><trkpt lat="43.435595567779956" lon="12.694096642457144"><ele>614.0</ele><time>2026-04-11T11:24:14.001Z</time></trkpt><trkpt lat="43.43553120236764" lon="12.694297535964449"><ele>618.0</ele><time>2026-04-11T11:24:15.001Z</time></trkpt><trkpt lat="43.4354364644035" lon="12.694505070556422"><ele>622.0</ele><time>2026-04-11T11:24:16.001Z</time></trkpt><trkpt lat="43.43535630555515" lon="12.694715600029777"><ele>626.0</ele><time>2026-04-11T11:24:17.001Z</time></trkpt><trkpt lat="43.43527697470693" lon="12.694916912051552"><ele>626.0</ele><time>2026-04-11T11:24:18.001Z</time></trkpt><trkpt lat="43.435194939124635" lon="12.695106962339398"><ele>626.0</ele><time>2026-04-11T11:24:19.001Z</time></trkpt><trkpt lat="43.43510448674997" lon="12.695276371024173"><ele>626.0</ele><time>2026-04-11T11:24:20.001Z</time></trkpt><trkpt lat="43.43500111905215" lon="12.695419700148584"><ele>623.75</ele><time>2026-04-11T11:24:21.001Z</time></trkpt><trkpt lat="43.43489191732946" lon="12.695537098195425"><ele>621.5</ele><time>2026-04-11T11:24:22.001Z</time></trkpt><trkpt lat="43.43478450216935" lon="12.695627870967408"><ele>619.25</ele><time>2026-04-11T11:24:23.001Z</time></trkpt><trkpt lat="43.43469856580444" lon="12.695753141951286"><ele>617.0</ele><time>2026-04-11T11:24:24.001Z</time></trkpt><trkpt lat="43.434672250102594" lon="12.695976526313421"><ele>616.0</ele><time>2026-04-11T11:24:25.001Z</time></trkpt><trkpt lat="43.4347148454887" lon="12.696145666876737"><ele>615.0</ele><time>2026-04-11T11:24:26.001Z</time></trkpt><trkpt lat="43.43471111360504" lon="12.696295260720337"><ele>614.0</ele><time>2026-04-11T11:24:27.001Z</time></trkpt><trkpt lat="43.43466148893701" lon="12.696428597394885"><ele>613.0</ele><time>2026-04-11T11:24:28.001Z</time></trkpt><trkpt lat="43.43458446740196" lon="12.69661509342816"><ele>615.0</ele><time>2026-04-11T11:24:29.001Z</time></trkpt><trkpt lat="43.43450799631367" lon="12.696824115694191"><ele>617.0</ele><time>2026-04-11T11:24:30.001Z</time></trkpt><trkpt lat="43.434451306354134" lon="12.697048471074199"><ele>619.0</ele><time>2026-04-11T11:24:31.001Z</time></trkpt><trkpt lat="43.43440498061613" lon="12.697256828262628"><ele>619.0</ele><time>2026-04-11T11:24:32.001Z</time></trkpt><trkpt lat="43.43433672585771" lon="12.697453422528366"><ele>619.0</ele><time>2026-04-11T11:24:33.001Z</time></trkpt><trkpt lat="43.434282395191616" lon="12.69764933909328"><ele>619.0</ele><time>2026-04-11T11:24:34.001Z</time></trkpt><trkpt lat="43.43420213436287" lon="12.697824509505214"><ele>617.5</ele><time>2026-04-11T11:24:35.001Z</time></trkpt><trkpt lat="43.43415829497232" lon="12.698022822497112"><ele>616.0</ele><time>2026-04-11T11:24:36.001Z</time></trkpt><trkpt lat="43.43419025410231" lon="12.698224919208295"><ele>614.5</ele><time>2026-04-11T11:24:37.001Z</time></trkpt><trkpt lat="43.43418615007725" lon="12.698410001311938"><ele>613.0</ele><time>2026-04-11T11:24:38.001Z</time></trkpt><trkpt lat="43.434152859113134" lon="12.69858657306646"><ele>610.75</ele><time>2026-04-11T11:24:39.001Z</time></trkpt><trkpt lat="43.43411375522981" lon="12.698784491336067"><ele>608.5</ele><time>2026-04-11T11:24:40.001Z</time></trkpt><trkpt lat="43.43408941103822" lon="12.698976250056466"><ele>606.25</ele><time>2026-04-11T11:24:41.001Z</time></trkpt><trkpt lat="43.43404182752693" lon="12.69915714536098"><ele>604.0</ele><time>2026-04-11T11:24:42.001Z</time></trkpt><trkpt lat="43.4339779974974" lon="12.699326868133998"><ele>600.75</ele><time>2026-04-11T11:24:43.001Z</time></trkpt><trkpt lat="43.4339144888998" lon="12.699496073451703"><ele>597.5</ele><time>2026-04-11T11:24:44.001Z</time></trkpt><trkpt lat="43.43387407548081" lon="12.69967603776755"><ele>594.25</ele><time>2026-04-11T11:24:45.001Z</time></trkpt><trkpt lat="43.433857714030026" lon="12.69985122560232"><ele>591.0</ele><time>2026-04-11T11:24:46.001Z</time></trkpt><trkpt lat="43.43388383778723" lon="12.700029917475694"><ele>591.0</ele><time>2026-04-11T11:24:47Z</time></trkpt><trkpt lat="43.4339329646968" lon="12.700207425631982"><ele>591.0</ele><time>2026-04-11T11:24:48Z</time></trkpt><trkpt lat="43.43398589820007" lon="12.700374850615624"><ele>591.0</ele><time>2026-04-11T11:24:49Z</time></trkpt><trkpt lat="43.433989620092476" lon="12.700546928267478"><ele>591.0</ele><time>2026-04-11T11:24:50Z</time></trkpt><trkpt lat="43.43392252421442" lon="12.700741958475549"><ele>589.3333333333334</ele><time>2026-04-11T11:24:51Z</time></trkpt><trkpt lat="43.433809215264304" lon="12.700941481494892"><ele>587.6666666666667</ele><time>2026-04-11T11:24:52Z</time></trkpt><trkpt lat="43.43370075483175" lon="12.701120448068595"><ele>586.0</ele><time>2026-04-11T11:24:53Z</time></trkpt><trkpt lat="43.433602045123976" lon="12.701303079689"><ele>586.0</ele><time>2026-04-11T11:24:54Z</time></trkpt><trkpt lat="43.433549028323654" lon="12.70151476862173"><ele>586.0</ele><time>2026-04-11T11:24:55Z</time></trkpt><trkpt lat="43.43352106052561" lon="12.701728923931363"><ele>586.0</ele><time>2026-04-11T11:24:56Z</time></trkpt><trkpt lat="43.43347675001914" lon="12.701929942551212"><ele>582.0</ele><time>2026-04-11T11:24:57Z</time></trkpt><trkpt lat="43.43339394665526" lon="12.702123610594796"><ele>578.0</ele><time>2026-04-11T11:24:58Z</time></trkpt><trkpt lat="43.433287967566045" lon="12.702326152556127"><ele>574.0</ele><time>2026-04-11T11:24:59Z</time></trkpt><trkpt lat="43.43316346114422" lon="12.702541981817115"><ele>574.0</ele><time>2026-04-11T11:25:00Z</time></trkpt><trkpt lat="43.4330433195357" lon="12.702740793178654"><ele>574.0</ele><time>2026-04-11T11:25:01Z</time></trkpt><trkpt lat="43.43292266356141" lon="12.702925559459844"><ele>574.0</ele><time>2026-04-11T11:25:02Z</time></trkpt><trkpt lat="43.43281588234838" lon="12.703114894136585"><ele>572.0</ele><time>2026-04-11T11:25:03Z</time></trkpt><trkpt lat="43.43272681320991" lon="12.703314473571222"><ele>570.0</ele><time>2026-04-11T11:25:04Z</time></trkpt><trkpt lat="43.4326468154089" lon="12.70352163051015"><ele>568.0</ele><time>2026-04-11T11:25:05Z</time></trkpt><trkpt lat="43.43256580283188" lon="12.703718045994568"><ele>568.0</ele><time>2026-04-11T11:25:06Z</time></trkpt><trkpt lat="43.43247445757197" lon="12.703902860428311"><ele>568.0</ele><time>2026-04-11T11:25:07Z</time></trkpt><trkpt lat="43.43238000432031" lon="12.70407900690081"><ele>568.0</ele><time>2026-04-11T11:25:08Z</time></trkpt><trkpt lat="43.43227697117911" lon="12.704239742192406"><ele>568.0</ele><time>2026-04-11T11:25:09Z</time></trkpt><trkpt lat="43.432153694509964" lon="12.704384112844304"><ele>568.0</ele><time>2026-04-11T11:25:10Z</time></trkpt><trkpt lat="43.43201021809906" lon="12.704508944035874"><ele>568.0</ele><time>2026-04-11T11:25:11Z</time></trkpt><trkpt lat="43.43188723608099" lon="12.704657056823265"><ele>568.6666666666667</ele><time>2026-04-11T11:25:12Z</time></trkpt><trkpt lat="43.43177642296887" lon="12.704824052308783"><ele>569.3333333333334</ele><time>2026-04-11T11:25:13Z</time></trkpt><trkpt lat="43.43166790703159" lon="12.704989669414399"><ele>570.0</ele><time>2026-04-11T11:25:14Z</time></trkpt><trkpt lat="43.43156305728183" lon="12.705156587841545"><ele>570.6666666666666</ele><time>2026-04-11T11:25:15Z</time></trkpt><trkpt lat="43.43146686615109" lon="12.705324263647896"><ele>571.3333333333333</ele><time>2026-04-11T11:25:16Z</time></trkpt><trkpt lat="43.43136353173724" lon="12.705494131360618"><ele>572.0</ele><time>2026-04-11T11:25:17Z</time></trkpt><trkpt lat="43.43125977320953" lon="12.705658725470634"><ele>572.0</ele><time>2026-04-11T11:25:18Z</time></trkpt><trkpt lat="43.43115500492224" lon="12.705824127732711"><ele>572.0</ele><time>2026-04-11T11:25:19Z</time></trkpt><trkpt lat="43.43105905082269" lon="12.705990689256655"><ele>572.0</ele><time>2026-04-11T11:25:20Z</time></trkpt><trkpt lat="43.43095740259329" lon="12.7061563883748"><ele>563.6666666666666</ele><time>2026-04-11T11:25:21Z</time></trkpt><trkpt lat="43.43084927802018" lon="12.706309453146378"><ele>555.3333333333334</ele><time>2026-04-11T11:25:22Z</time></trkpt><trkpt lat="43.430737405244855" lon="12.706452470528964"><ele>547.0</ele><time>2026-04-11T11:25:23Z</time></trkpt><trkpt lat="43.430627550027516" lon="12.706590815987152"><ele>547.0</ele><time>2026-04-11T11:25:24Z</time></trkpt><trkpt lat="43.430515447377225" lon="12.706736069034063"><ele>547.0</ele><time>2026-04-11T11:25:25Z</time></trkpt><trkpt lat="43.43040291631786" lon="12.706880581657439"><ele>547.0</ele><time>2026-04-11T11:25:26Z</time></trkpt><trkpt lat="43.430293068926865" lon="12.707019837755968"><ele>546.5</ele><time>2026-04-11T11:25:27Z</time></trkpt><trkpt lat="43.43017980003884" lon="12.707146773454218"><ele>546.0</ele><time>2026-04-11T11:25:28Z</time></trkpt><trkpt lat="43.43004894849579" lon="12.707236534218534"><ele>545.5</ele><time>2026-04-11T11:25:29Z</time></trkpt><trkpt lat="43.429907960351585" lon="12.707313874953277"><ele>545.0</ele><time>2026-04-11T11:25:30Z</time></trkpt><trkpt lat="43.42974165865265" lon="12.70737442121482"><ele>546.3333333333333</ele><time>2026-04-11T11:25:31Z</time></trkpt><trkpt lat="43.42958023294435" lon="12.707419516322028"><ele>547.6666666666666</ele><time>2026-04-11T11:25:32Z</time></trkpt><trkpt lat="43.42941986345254" lon="12.70746114017443"><ele>549.0</ele><time>2026-04-11T11:25:33Z</time></trkpt><trkpt lat="43.4292670269316" lon="12.707537598790116"><ele>549.0</ele><time>2026-04-11T11:25:34Z</time></trkpt><trkpt lat="43.42911242706936" lon="12.707638852330989"><ele>549.0</ele><time>2026-04-11T11:25:35Z</time></trkpt><trkpt lat="43.42896565939457" lon="12.70773054484753"><ele>549.0</ele><time>2026-04-11T11:25:36Z</time></trkpt><trkpt lat="43.42882106757295" lon="12.707822070761438"><ele>545.75</ele><time>2026-04-11T11:25:37Z</time></trkpt><trkpt lat="43.42868225617188" lon="12.707912334868977"><ele>542.5</ele><time>2026-04-11T11:25:38Z</time></trkpt><trkpt lat="43.42855401558038" lon="12.707994266506361"><ele>539.25</ele><time>2026-04-11T11:25:39Z</time></trkpt><trkpt lat="43.4284247240402" lon="12.708040510601053"><ele>536.0</ele><time>2026-04-11T11:25:40Z</time></trkpt><trkpt lat="43.42828782186504" lon="12.70803008517847"><ele>536.0</ele><time>2026-04-11T11:25:41Z</time></trkpt><trkpt lat="43.42815899515317" lon="12.707974554182476"><ele>536.0</ele><time>2026-04-11T11:25:42Z</time></trkpt><trkpt lat="43.428018184649346" lon="12.70795301904733"><ele>536.0</ele><time>2026-04-11T11:25:43Z</time></trkpt><trkpt lat="43.427883860982945" lon="12.70798711982501"><ele>536.0</ele><time>2026-04-11T11:25:44Z</time></trkpt><trkpt lat="43.42775225246161" lon="12.708079042784517"><ele>534.75</ele><time>2026-04-11T11:25:45Z</time></trkpt><trkpt lat="43.42762503276629" lon="12.70819433719244"><ele>533.5</ele><time>2026-04-11T11:25:46Z</time></trkpt><trkpt lat="43.42750777715593" lon="12.708307815491834"><ele>532.25</ele><time>2026-04-11T11:25:47Z</time></trkpt><trkpt lat="43.4273826027325" lon="12.708388876703046"><ele>531.0</ele><time>2026-04-11T11:25:48Z</time></trkpt><trkpt lat="43.427238306020705" lon="12.708426853971002"><ele>533.6666666666666</ele><time>2026-04-11T11:25:49Z</time></trkpt><trkpt lat="43.42706700178795" lon="12.708432511553626"><ele>536.3333333333333</ele><time>2026-04-11T11:25:50Z</time></trkpt><trkpt lat="43.426908907083174" lon="12.708440831706177"><ele>539.0</ele><time>2026-04-11T11:25:51Z</time></trkpt><trkpt lat="43.426758896716755" lon="12.708459005031058"><ele>539.0</ele><time>2026-04-11T11:25:52Z</time></trkpt><trkpt lat="43.42661840987168" lon="12.708516153648725"><ele>539.0</ele><time>2026-04-11T11:25:53Z</time></trkpt><trkpt lat="43.4264991710253" lon="12.708627297496223"><ele>539.0</ele><time>2026-04-11T11:25:54Z</time></trkpt><trkpt lat="43.42639745013128" lon="12.708775007928105"><ele>539.0</ele><time>2026-04-11T11:25:55Z</time></trkpt><trkpt lat="43.42630952876862" lon="12.708945592979719"><ele>537.3333333333333</ele><time>2026-04-11T11:25:56Z</time></trkpt><trkpt lat="43.42620545310521" lon="12.709103849975982"><ele>535.6666666666666</ele><time>2026-04-11T11:25:57Z</time></trkpt><trkpt lat="43.42606948449144" lon="12.70926587063726"><ele>534.0</ele><time>2026-04-11T11:25:58.001Z</time></trkpt><trkpt lat="43.425918564297355" lon="12.709432467697235"><ele>532.3333333333334</ele><time>2026-04-11T11:25:59.001Z</time></trkpt><trkpt lat="43.42578703319513" lon="12.709600293158108"><ele>530.6666666666667</ele><time>2026-04-11T11:26:00.001Z</time></trkpt><trkpt lat="43.4256703868012" lon="12.709774494436203"><ele>529.0</ele><time>2026-04-11T11:26:01.001Z</time></trkpt><trkpt lat="43.42556934671614" lon="12.70994339086458"><ele>529.0</ele><time>2026-04-11T11:26:02.001Z</time></trkpt><trkpt lat="43.425494030891436" lon="12.710103459042971"><ele>529.0</ele><time>2026-04-11T11:26:03.001Z</time></trkpt><trkpt lat="43.425439826048716" lon="12.710239695744411"><ele>529.0</ele><time>2026-04-11T11:26:04.001Z</time></trkpt><trkpt lat="43.42539291726665" lon="12.710348177412621"><ele>529.0</ele><time>2026-04-11T11:26:05.001Z</time></trkpt><trkpt lat="43.42534612786708" lon="12.710442523295123"><ele>529.0</ele><time>2026-04-11T11:26:06.001Z</time></trkpt><trkpt lat="43.42530259928832" lon="12.710518437237933"><ele>527.4</ele><time>2026-04-11T11:26:07.001Z</time></trkpt><trkpt lat="43.425239249739974" lon="12.710634175049217"><ele>525.8</ele><time>2026-04-11T11:26:09.001Z</time></trkpt><trkpt lat="43.42517374998731" lon="12.710701488184517"><ele>524.2</ele><time>2026-04-11T11:26:11.001Z</time></trkpt><trkpt lat="43.425059743714435" lon="12.710662959954057"><ele>522.6</ele><time>2026-04-11T11:26:13.001Z</time></trkpt><trkpt lat="43.42497442670177" lon="12.710606400902787"><ele>521.0</ele><time>2026-04-11T11:26:14.001Z</time></trkpt><trkpt lat="43.424880492258495" lon="12.71055373841295"><ele>521.0</ele><time>2026-04-11T11:26:15.001Z</time></trkpt><trkpt lat="43.42479629793041" lon="12.710511020348108"><ele>521.0</ele><time>2026-04-11T11:26:16.001Z</time></trkpt><trkpt lat="43.424708035207054" lon="12.710459106195206"><ele>521.0</ele><time>2026-04-11T11:26:17.001Z</time></trkpt><trkpt lat="43.42461029258369" lon="12.710403304432798"><ele>521.0</ele><time>2026-04-11T11:26:18.001Z</time></trkpt><trkpt lat="43.424507015071725" lon="12.710351470593931"><ele>521.0</ele><time>2026-04-11T11:26:19.001Z</time></trkpt><trkpt lat="43.42440749636874" lon="12.71029475194534"><ele>522.75</ele><time>2026-04-11T11:26:20.001Z</time></trkpt><trkpt lat="43.42430462074567" lon="12.71023466935984"><ele>524.5</ele><time>2026-04-11T11:26:21.001Z</time></trkpt><trkpt lat="43.42420690648713" lon="12.710168165049577"><ele>526.25</ele><time>2026-04-11T11:26:22.001Z</time></trkpt><trkpt lat="43.42410843884777" lon="12.710080100888106"><ele>528.0</ele><time>2026-04-11T11:26:23.001Z</time></trkpt><trkpt lat="43.424006498723124" lon="12.709969706360832"><ele>528.0</ele><time>2026-04-11T11:26:24.001Z</time></trkpt><trkpt lat="43.42391501920348" lon="12.709845461373764"><ele>528.0</ele><time>2026-04-11T11:26:25.001Z</time></trkpt><trkpt lat="43.423840755511705" lon="12.709707917329922"><ele>528.0</ele><time>2026-04-11T11:26:26.001Z</time></trkpt><trkpt lat="43.423786469099454" lon="12.709559688398883"><ele>528.0</ele><time>2026-04-11T11:26:27.001Z</time></trkpt><trkpt lat="43.42375195225035" lon="12.709388005412254"><ele>527.75</ele><time>2026-04-11T11:26:28.001Z</time></trkpt><trkpt lat="43.42374170093251" lon="12.709192717231339"><ele>527.5</ele><time>2026-04-11T11:26:29.001Z</time></trkpt><trkpt lat="43.423725593134414" lon="12.70901613002235"><ele>527.25</ele><time>2026-04-11T11:26:30.001Z</time></trkpt><trkpt lat="43.423678519917075" lon="12.708848835576713"><ele>527.0</ele><time>2026-04-11T11:26:31.001Z</time></trkpt><trkpt lat="43.423594858277866" lon="12.708689452317547"><ele>530.25</ele><time>2026-04-11T11:26:32.001Z</time></trkpt><trkpt lat="43.42350852234742" lon="12.708551952314181"><ele>533.5</ele><time>2026-04-11T11:26:33.001Z</time></trkpt><trkpt lat="43.42340994124021" lon="12.708424820250533"><ele>536.75</ele><time>2026-04-11T11:26:34.001Z</time></trkpt><trkpt lat="43.42329502892451" lon="12.708325726199444"><ele>540.0</ele><time>2026-04-11T11:26:35.001Z</time></trkpt><trkpt lat="43.423165907971864" lon="12.708264630923955"><ele>540.0</ele><time>2026-04-11T11:26:36.001Z</time></trkpt><trkpt lat="43.42302763168614" lon="12.708220810013787"><ele>540.0</ele><time>2026-04-11T11:26:37.001Z</time></trkpt><trkpt lat="43.4228886816436" lon="12.708163714462843"><ele>540.0</ele><time>2026-04-11T11:26:38.001Z</time></trkpt><trkpt lat="43.4227551473881" lon="12.708068355881956"><ele>540.0</ele><time>2026-04-11T11:26:39.001Z</time></trkpt><trkpt lat="43.42262236934065" lon="12.707932509588534"><ele>538.25</ele><time>2026-04-11T11:26:40.001Z</time></trkpt><trkpt lat="43.42249349705275" lon="12.707796548561799"><ele>536.5</ele><time>2026-04-11T11:26:41.001Z</time></trkpt><trkpt lat="43.42237395107032" lon="12.707709491787881"><ele>534.75</ele><time>2026-04-11T11:26:42.001Z</time></trkpt><trkpt lat="43.42223441734458" lon="12.707688586383311"><ele>533.0</ele><time>2026-04-11T11:26:43.001Z</time></trkpt><trkpt lat="43.42210350982167" lon="12.70773656395006"><ele>533.25</ele><time>2026-04-11T11:26:44.001Z</time></trkpt><trkpt lat="43.421974660967734" lon="12.707817122722144"><ele>533.5</ele><time>2026-04-11T11:26:45.001Z</time></trkpt><trkpt lat="43.421838016027706" lon="12.707855429338949"><ele>533.75</ele><time>2026-04-11T11:26:46.001Z</time></trkpt><trkpt lat="43.42169209738734" lon="12.707835231752156"><ele>534.0</ele><time>2026-04-11T11:26:47.001Z</time></trkpt><trkpt lat="43.42155778810685" lon="12.707745514183253"><ele>539.5</ele><time>2026-04-11T11:26:48.001Z</time></trkpt><trkpt lat="43.42144618442896" lon="12.7076324375764"><ele>545.0</ele><time>2026-04-11T11:26:49.001Z</time></trkpt><trkpt lat="43.42132521848693" lon="12.70757744492297"><ele>550.5</ele><time>2026-04-11T11:26:50.001Z</time></trkpt><trkpt lat="43.421190328716335" lon="12.707603616538437"><ele>556.0</ele><time>2026-04-11T11:26:51.001Z</time></trkpt><trkpt lat="43.421049977860875" lon="12.707687674339088"><ele>549.6666666666667</ele><time>2026-04-11T11:26:52.001Z</time></trkpt><trkpt lat="43.42090718314648" lon="12.707802741318103"><ele>543.3333333333334</ele><time>2026-04-11T11:26:53Z</time></trkpt><trkpt lat="43.42076648428651" lon="12.707952542912151"><ele>537.0</ele><time>2026-04-11T11:26:54Z</time></trkpt><trkpt lat="43.420650931192576" lon="12.708120754255367"><ele>537.0</ele><time>2026-04-11T11:26:55Z</time></trkpt><trkpt lat="43.42053688064973" lon="12.708268206908384"><ele>537.0</ele><time>2026-04-11T11:26:56Z</time></trkpt><trkpt lat="43.42043720811351" lon="12.708431373238737"><ele>537.0</ele><time>2026-04-11T11:26:57Z</time></trkpt><trkpt lat="43.42030128753387" lon="12.708549311087136"><ele>536.25</ele><time>2026-04-11T11:26:58Z</time></trkpt><trkpt lat="43.42016639804606" lon="12.708642223204324"><ele>535.5</ele><time>2026-04-11T11:26:59Z</time></trkpt><trkpt lat="43.420026580115774" lon="12.708689704262383"><ele>534.75</ele><time>2026-04-11T11:27:00Z</time></trkpt><trkpt lat="43.41988707760606" lon="12.708717561120736"><ele>534.0</ele><time>2026-04-11T11:27:01Z</time></trkpt><trkpt lat="43.41976479814029" lon="12.70863939901258"><ele>536.0</ele><time>2026-04-11T11:27:02Z</time></trkpt><trkpt lat="43.41965268754727" lon="12.708504867529617"><ele>538.0</ele><time>2026-04-11T11:27:03Z</time></trkpt><trkpt lat="43.41954704678451" lon="12.708342900164668"><ele>540.0</ele><time>2026-04-11T11:27:04Z</time></trkpt><trkpt lat="43.41946228341636" lon="12.708172596727497"><ele>540.0</ele><time>2026-04-11T11:27:05Z</time></trkpt><trkpt lat="43.41941038912549" lon="12.707979885343287"><ele>540.0</ele><time>2026-04-11T11:27:06Z</time></trkpt><trkpt lat="43.419391062995125" lon="12.707762414210068"><ele>540.0</ele><time>2026-04-11T11:27:07Z</time></trkpt><trkpt lat="43.41938248010654" lon="12.70754383629057"><ele>540.3333333333334</ele><time>2026-04-11T11:27:08Z</time></trkpt><trkpt lat="43.41936582546398" lon="12.707339686480232"><ele>540.6666666666667</ele><time>2026-04-11T11:27:09Z</time></trkpt><trkpt lat="43.41930650359553" lon="12.707140585023984"><ele>541.0</ele><time>2026-04-11T11:27:10Z</time></trkpt><trkpt lat="43.419214056768595" lon="12.70695698940496"><ele>546.6666666666667</ele><time>2026-04-11T11:27:11Z</time></trkpt><trkpt lat="43.41910142202963" lon="12.706797766857118"><ele>552.3333333333334</ele><time>2026-04-11T11:27:12Z</time></trkpt><trkpt lat="43.41896665463723" lon="12.706659374701644"><ele>558.0</ele><time>2026-04-11T11:27:13Z</time></trkpt><trkpt lat="43.41882239362091" lon="12.706543771424368"><ele>553.6666666666666</ele><time>2026-04-11T11:27:14Z</time></trkpt><trkpt lat="43.4186776109511" lon="12.706455085862666"><ele>549.3333333333333</ele><time>2026-04-11T11:27:15Z</time></trkpt><trkpt lat="43.41852624993416" lon="12.706379089658137"><ele>545.0</ele><time>2026-04-11T11:27:16Z</time></trkpt><trkpt lat="43.41836813644575" lon="12.706339068154717"><ele>545.0</ele><time>2026-04-11T11:27:17Z</time></trkpt><trkpt lat="43.41820405484228" lon="12.706339315330423"><ele>545.0</ele><time>2026-04-11T11:27:18Z</time></trkpt><trkpt lat="43.418039968213286" lon="12.706380929681515"><ele>545.0</ele><time>2026-04-11T11:27:19Z</time></trkpt><trkpt lat="43.41786795433428" lon="12.706447044297073"><ele>547.0</ele><time>2026-04-11T11:27:20Z</time></trkpt><trkpt lat="43.417704762465036" lon="12.70652549811081"><ele>549.0</ele><time>2026-04-11T11:27:21Z</time></trkpt><trkpt lat="43.41755168774687" lon="12.706588642199257"><ele>551.0</ele><time>2026-04-11T11:27:22Z</time></trkpt><trkpt lat="43.41740360111627" lon="12.706652036177825"><ele>551.0</ele><time>2026-04-11T11:27:23Z</time></trkpt><trkpt lat="43.41726090534933" lon="12.70671749613105"><ele>551.0</ele><time>2026-04-11T11:27:24Z</time></trkpt><trkpt lat="43.41712373654087" lon="12.706772347344048"><ele>551.0</ele><time>2026-04-11T11:27:25Z</time></trkpt><trkpt lat="43.416991956323805" lon="12.70678908037036"><ele>551.0</ele><time>2026-04-11T11:27:26Z</time></trkpt><trkpt lat="43.41687125289554" lon="12.706733210977255"><ele>549.0</ele><time>2026-04-11T11:27:27Z</time></trkpt><trkpt lat="43.416782649731424" lon="12.706602091986642"><ele>547.0</ele><time>2026-04-11T11:27:28Z</time></trkpt><trkpt lat="43.416682596671265" lon="12.706453772651823"><ele>545.0</ele><time>2026-04-11T11:27:29Z</time></trkpt><trkpt lat="43.41655984213988" lon="12.706345344237286"><ele>543.0</ele><time>2026-04-11T11:27:30Z</time></trkpt><trkpt lat="43.41644015326276" lon="12.706243597108427"><ele>543.0</ele><time>2026-04-11T11:27:31Z</time></trkpt><trkpt lat="43.416322259333604" lon="12.706123064375058"><ele>543.0</ele><time>2026-04-11T11:27:32Z</time></trkpt><trkpt lat="43.416218045171014" lon="12.705985005409728"><ele>543.0</ele><time>2026-04-11T11:27:33Z</time></trkpt><trkpt lat="43.416129360072375" lon="12.705828551740934"><ele>543.0</ele><time>2026-04-11T11:27:34Z</time></trkpt><trkpt lat="43.41606570536591" lon="12.705650326090318"><ele>543.3333333333334</ele><time>2026-04-11T11:27:35Z</time></trkpt><trkpt lat="43.41602037903022" lon="12.705449307691206"><ele>543.6666666666667</ele><time>2026-04-11T11:27:36Z</time></trkpt><trkpt lat="43.41597759369064" lon="12.705237627006456"><ele>544.0</ele><time>2026-04-11T11:27:37Z</time></trkpt><trkpt lat="43.415934293103064" lon="12.705029007326688"><ele>544.5</ele><time>2026-04-11T11:27:38Z</time></trkpt><trkpt lat="43.41589409615019" lon="12.70483393226476"><ele>545.0</ele><time>2026-04-11T11:27:39Z</time></trkpt><trkpt lat="43.415854393267466" lon="12.704650027106418"><ele>545.5</ele><time>2026-04-11T11:27:40Z</time></trkpt><trkpt lat="43.41581403620335" lon="12.704467882064737"><ele>546.0</ele><time>2026-04-11T11:27:41Z</time></trkpt><trkpt lat="43.41577188614641" lon="12.704282888650658"><ele>546.0</ele><time>2026-04-11T11:27:42Z</time></trkpt><trkpt lat="43.415730929132145" lon="12.704093438715459"><ele>546.0</ele><time>2026-04-11T11:27:43Z</time></trkpt><trkpt lat="43.415690696379784" lon="12.703899495226063"><ele>546.0</ele><time>2026-04-11T11:27:44Z</time></trkpt><trkpt lat="43.41565741358198" lon="12.703715222527329"><ele>546.0</ele><time>2026-04-11T11:27:45Z</time></trkpt><trkpt lat="43.415643811327584" lon="12.703535468133358"><ele>547.0</ele><time>2026-04-11T11:27:46Z</time></trkpt><trkpt lat="43.415665664898384" lon="12.703355978038402"><ele>548.0</ele><time>2026-04-11T11:27:47Z</time></trkpt><trkpt lat="43.415724941076114" lon="12.703192932695504"><ele>549.0</ele><time>2026-04-11T11:27:48Z</time></trkpt><trkpt lat="43.415810931700896" lon="12.703049840684837"><ele>550.0</ele><time>2026-04-11T11:27:49Z</time></trkpt><trkpt lat="43.415915047177776" lon="12.702905993316065"><ele>550.0</ele><time>2026-04-11T11:27:50Z</time></trkpt><trkpt lat="43.41603305466613" lon="12.702763742816137"><ele>550.0</ele><time>2026-04-11T11:27:51Z</time></trkpt><trkpt lat="43.41612806999173" lon="12.702618381827563"><ele>550.0</ele><time>2026-04-11T11:27:52Z</time></trkpt><trkpt lat="43.41621264112177" lon="12.702455975321874"><ele>550.0</ele><time>2026-04-11T11:27:53Z</time></trkpt><trkpt lat="43.41628150715951" lon="12.7022661976688"><ele>549.25</ele><time>2026-04-11T11:27:54Z</time></trkpt><trkpt lat="43.41632519545006" lon="12.702064953120628"><ele>548.5</ele><time>2026-04-11T11:27:55Z</time></trkpt><trkpt lat="43.41633816867103" lon="12.70186485514941"><ele>547.75</ele><time>2026-04-11T11:27:56Z</time></trkpt><trkpt lat="43.41632272327576" lon="12.701669053058078"><ele>547.0</ele><time>2026-04-11T11:27:57Z</time></trkpt><trkpt lat="43.41626277970877" lon="12.701480348928417"><ele>547.0</ele><time>2026-04-11T11:27:58Z</time></trkpt><trkpt lat="43.416169554538605" lon="12.701300404698365"><ele>547.0</ele><time>2026-04-11T11:27:59Z</time></trkpt><trkpt lat="43.41605081195176" lon="12.701142603482776"><ele>547.0</ele><time>2026-04-11T11:28:00Z</time></trkpt><trkpt lat="43.415914589327286" lon="12.701008785932263"><ele>554.0</ele><time>2026-04-11T11:28:01Z</time></trkpt><trkpt lat="43.41578066912271" lon="12.700898762945455"><ele>561.0</ele><time>2026-04-11T11:28:02Z</time></trkpt><trkpt lat="43.415639616900805" lon="12.700816984929453"><ele>568.0</ele><time>2026-04-11T11:28:03Z</time></trkpt><trkpt lat="43.4154909123411" lon="12.700750831619615"><ele>563.25</ele><time>2026-04-11T11:28:04Z</time></trkpt><trkpt lat="43.415345595175545" lon="12.70070323798927"><ele>558.5</ele><time>2026-04-11T11:28:05Z</time></trkpt><trkpt lat="43.41520280723524" lon="12.700660209943209"><ele>553.75</ele><time>2026-04-11T11:28:06Z</time></trkpt><trkpt lat="43.415076067097715" lon="12.70060110140228"><ele>549.0</ele><time>2026-04-11T11:28:07Z</time></trkpt><trkpt lat="43.414981514440576" lon="12.700492682146656"><ele>549.0</ele><time>2026-04-11T11:28:08Z</time></trkpt><trkpt lat="43.4149198241426" lon="12.700348393422562"><ele>549.0</ele><time>2026-04-11T11:28:09Z</time></trkpt><trkpt lat="43.4148913616797" lon="12.700158807541271"><ele>549.0</ele><time>2026-04-11T11:28:10Z</time></trkpt><trkpt lat="43.41487352622173" lon="12.699933499725988"><ele>549.0</ele><time>2026-04-11T11:28:11Z</time></trkpt><trkpt lat="43.4148564589318" lon="12.699670234069789"><ele>557.0</ele><time>2026-04-11T11:28:12Z</time></trkpt><trkpt lat="43.414834932637" lon="12.699386433402404"><ele>565.0</ele><time>2026-04-11T11:28:13Z</time></trkpt><trkpt lat="43.41480895212445" lon="12.699137900792316"><ele>573.0</ele><time>2026-04-11T11:28:14Z</time></trkpt><trkpt lat="43.414784556360694" lon="12.698909123320671"><ele>573.0</ele><time>2026-04-11T11:28:15Z</time></trkpt><trkpt lat="43.41474581099382" lon="12.698691612292361"><ele>573.0</ele><time>2026-04-11T11:28:16Z</time></trkpt><trkpt lat="43.41469228368862" lon="12.698471775984052"><ele>573.0</ele><time>2026-04-11T11:28:17Z</time></trkpt><trkpt lat="43.41460954692812" lon="12.698248596381982"><ele>570.6666666666666</ele><time>2026-04-11T11:28:18Z</time></trkpt><trkpt lat="43.414511910641856" lon="12.698024963586171"><ele>568.3333333333333</ele><time>2026-04-11T11:28:19Z</time></trkpt><trkpt lat="43.41441723291838" lon="12.697809493008736"><ele>566.0</ele><time>2026-04-11T11:28:20Z</time></trkpt><trkpt lat="43.41434233935049" lon="12.697597586147424"><ele>566.0</ele><time>2026-04-11T11:28:21Z</time></trkpt><trkpt lat="43.41430079420937" lon="12.697384195767139"><ele>566.0</ele><time>2026-04-11T11:28:22Z</time></trkpt><trkpt lat="43.41424536865121" lon="12.697144474377792"><ele>566.0</ele><time>2026-04-11T11:28:23Z</time></trkpt><trkpt lat="43.414202719699155" lon="12.696904900616532"><ele>565.3333333333333</ele><time>2026-04-11T11:28:24Z</time></trkpt><trkpt lat="43.41417191044894" lon="12.69666815672374"><ele>564.6666666666666</ele><time>2026-04-11T11:28:25Z</time></trkpt><trkpt lat="43.4141532257982" lon="12.696430353258288"><ele>564.0</ele><time>2026-04-11T11:28:26Z</time></trkpt><trkpt lat="43.41414711465867" lon="12.696195460903633"><ele>563.0</ele><time>2026-04-11T11:28:27Z</time></trkpt><trkpt lat="43.41415642197909" lon="12.695951441595685"><ele>562.0</ele><time>2026-04-11T11:28:28Z</time></trkpt><trkpt lat="43.41417620112799" lon="12.6957034841527"><ele>561.0</ele><time>2026-04-11T11:28:29Z</time></trkpt><trkpt lat="43.414207384897196" lon="12.695456509563828"><ele>561.0</ele><time>2026-04-11T11:28:30.001Z</time></trkpt><trkpt lat="43.41424156008508" lon="12.695223081404293"><ele>561.0</ele><time>2026-04-11T11:28:31.001Z</time></trkpt><trkpt lat="43.41426977965301" lon="12.694983740976898"><ele>561.0</ele><time>2026-04-11T11:28:32.001Z</time></trkpt><trkpt lat="43.41427366168944" lon="12.694731257689531"><ele>561.0</ele><time>2026-04-11T11:28:33.001Z</time></trkpt><trkpt lat="43.41425000380069" lon="12.694466229787691"><ele>561.0</ele><time>2026-04-11T11:28:34.001Z</time></trkpt><trkpt lat="43.4142035419256" lon="12.694194728196521"><ele>561.0</ele><time>2026-04-11T11:28:35.001Z</time></trkpt><trkpt lat="43.41413151060146" lon="12.693932287640402"><ele>561.6666666666666</ele><time>2026-04-11T11:28:36.001Z</time></trkpt><trkpt lat="43.41404610247612" lon="12.693671263307872"><ele>562.3333333333333</ele><time>2026-04-11T11:28:37.001Z</time></trkpt><trkpt lat="43.41396893909231" lon="12.693428879943994"><ele>563.0</ele><time>2026-04-11T11:28:38.001Z</time></trkpt><trkpt lat="43.413898475859206" lon="12.69319515752225"><ele>561.6666666666666</ele><time>2026-04-11T11:28:39.001Z</time></trkpt><trkpt lat="43.413828904091694" lon="12.69297098655362"><ele>560.3333333333334</ele><time>2026-04-11T11:28:40.001Z</time></trkpt><trkpt lat="43.41375927278508" lon="12.69274098862518"><ele>559.0</ele><time>2026-04-11T11:28:41.001Z</time></trkpt><trkpt lat="43.4136865982786" lon="12.692499403139735"><ele>557.0</ele><time>2026-04-11T11:28:42.001Z</time></trkpt><trkpt lat="43.41361182017367" lon="12.692253292588548"><ele>555.0</ele><time>2026-04-11T11:28:43.001Z</time></trkpt><trkpt lat="43.4135206481454" lon="12.69201261041242"><ele>553.0</ele><time>2026-04-11T11:28:44.001Z</time></trkpt><trkpt lat="43.413408797212185" lon="12.691776687558333"><ele>557.0</ele><time>2026-04-11T11:28:45.001Z</time></trkpt><trkpt lat="43.41327237194429" lon="12.691531919722252"><ele>561.0</ele><time>2026-04-11T11:28:46.001Z</time></trkpt><trkpt lat="43.413145175053515" lon="12.691289277143236"><ele>565.0</ele><time>2026-04-11T11:28:47.001Z</time></trkpt><trkpt lat="43.41302757682175" lon="12.691066478615609"><ele>562.3333333333334</ele><time>2026-04-11T11:28:48.001Z</time></trkpt><trkpt lat="43.41291678401305" lon="12.690857208374773"><ele>559.6666666666666</ele><time>2026-04-11T11:28:49.001Z</time></trkpt><trkpt lat="43.41280927709337" lon="12.690658504610813"><ele>557.0</ele><time>2026-04-11T11:28:50.001Z</time></trkpt><trkpt lat="43.412706707271" lon="12.690470523172374"><ele>557.0</ele><time>2026-04-11T11:28:51.001Z</time></trkpt><trkpt lat="43.41261094529804" lon="12.690291408728436"><ele>557.0</ele><time>2026-04-11T11:28:52.001Z</time></trkpt><trkpt lat="43.41251847053569" lon="12.690117234237944"><ele>557.0</ele><time>2026-04-11T11:28:53.001Z</time></trkpt><trkpt lat="43.41243948048331" lon="12.689942781279017"><ele>562.0</ele><time>2026-04-11T11:28:54.001Z</time></trkpt><trkpt lat="43.412368724920114" lon="12.689755865216359"><ele>567.0</ele><time>2026-04-11T11:28:55.001Z</time></trkpt><trkpt lat="43.41231674712311" lon="12.689559460390937"><ele>572.0</ele><time>2026-04-11T11:28:56.001Z</time></trkpt><trkpt lat="43.41228034179111" lon="12.689351287592526"><ele>577.3333333333333</ele><time>2026-04-11T11:28:57.001Z</time></trkpt><trkpt lat="43.412250603804296" lon="12.689126557088352"><ele>582.6666666666666</ele><time>2026-04-11T11:28:58.001Z</time></trkpt><trkpt lat="43.41221400276247" lon="12.6889083296944"><ele>588.0</ele><time>2026-04-11T11:28:59Z</time></trkpt><trkpt lat="43.41217303580973" lon="12.68870615275533"><ele>582.0</ele><time>2026-04-11T11:29:00Z</time></trkpt><trkpt lat="43.4121300711257" lon="12.688513500996896"><ele>576.0</ele><time>2026-04-11T11:29:01Z</time></trkpt><trkpt lat="43.41208734629897" lon="12.68833077212498"><ele>570.0</ele><time>2026-04-11T11:29:02Z</time></trkpt><trkpt lat="43.412044847827616" lon="12.688147532929316"><ele>564.0</ele><time>2026-04-11T11:29:03Z</time></trkpt><trkpt lat="43.41200476983288" lon="12.687961019140468"><ele>564.0</ele><time>2026-04-11T11:29:04Z</time></trkpt><trkpt lat="43.411964131893846" lon="12.687769536486524"><ele>564.0</ele><time>2026-04-11T11:29:05Z</time></trkpt><trkpt lat="43.41191662838827" lon="12.68757216079986"><ele>564.0</ele><time>2026-04-11T11:29:06Z</time></trkpt><trkpt lat="43.41186531966498" lon="12.687383708503722"><ele>564.0</ele><time>2026-04-11T11:29:07Z</time></trkpt><trkpt lat="43.41181106903106" lon="12.687199790161817"><ele>564.25</ele><time>2026-04-11T11:29:08Z</time></trkpt><trkpt lat="43.41176026616419" lon="12.687012392219463"><ele>564.5</ele><time>2026-04-11T11:29:09Z</time></trkpt><trkpt lat="43.411717617037056" lon="12.686819938280484"><ele>564.75</ele><time>2026-04-11T11:29:10Z</time></trkpt><trkpt lat="43.41168690017892" lon="12.6866234207605"><ele>565.0</ele><time>2026-04-11T11:29:11Z</time></trkpt><trkpt lat="43.41166799080875" lon="12.68643169534748"><ele>567.25</ele><time>2026-04-11T11:29:12Z</time></trkpt><trkpt lat="43.41165374487793" lon="12.686241738644817"><ele>569.5</ele><time>2026-04-11T11:29:13Z</time></trkpt><trkpt lat="43.41163612998409" lon="12.686060909194525"><ele>571.75</ele><time>2026-04-11T11:29:14Z</time></trkpt><trkpt lat="43.41159736122632" lon="12.68589642383753"><ele>574.0</ele><time>2026-04-11T11:29:15Z</time></trkpt><trkpt lat="43.41152417220023" lon="12.685749826472344"><ele>573.5</ele><time>2026-04-11T11:29:16Z</time></trkpt><trkpt lat="43.41141114315189" lon="12.685628182941661"><ele>573.0</ele><time>2026-04-11T11:29:17Z</time></trkpt><trkpt lat="43.41128326660547" lon="12.68555004431079"><ele>572.5</ele><time>2026-04-11T11:29:18Z</time></trkpt><trkpt lat="43.411149804777274" lon="12.685490855255715"><ele>572.0</ele><time>2026-04-11T11:29:19Z</time></trkpt><trkpt lat="43.411026836127604" lon="12.685427515543912"><ele>572.0</ele><time>2026-04-11T11:29:20Z</time></trkpt><trkpt lat="43.41091260374574" lon="12.685356916320568"><ele>572.0</ele><time>2026-04-11T11:29:21Z</time></trkpt><trkpt lat="43.41080076136777" lon="12.685272528549596"><ele>572.0</ele><time>2026-04-11T11:29:22Z</time></trkpt><trkpt lat="43.410695797561466" lon="12.685155631500182"><ele>572.0</ele><time>2026-04-11T11:29:23Z</time></trkpt><trkpt lat="43.410599643764044" lon="12.685018388835722"><ele>572.5</ele><time>2026-04-11T11:29:24Z</time></trkpt><trkpt lat="43.41051344915015" lon="12.6848675871941"><ele>573.0</ele><time>2026-04-11T11:29:25Z</time></trkpt><trkpt lat="43.410445515749025" lon="12.684716302755684"><ele>573.5</ele><time>2026-04-11T11:29:26Z</time></trkpt><trkpt lat="43.41039194383293" lon="12.684560812897452"><ele>574.0</ele><time>2026-04-11T11:29:27Z</time></trkpt><trkpt lat="43.41033454472397" lon="12.684417667653529"><ele>573.0</ele><time>2026-04-11T11:29:28Z</time></trkpt><trkpt lat="43.41026372511488" lon="12.684290858621539"><ele>572.0</ele><time>2026-04-11T11:29:29Z</time></trkpt><trkpt lat="43.41018257482943" lon="12.684181359741057"><ele>571.0</ele><time>2026-04-11T11:29:30Z</time></trkpt><trkpt lat="43.41009621091725" lon="12.684091363931664"><ele>570.0</ele><time>2026-04-11T11:29:31Z</time></trkpt><trkpt lat="43.41001529333182" lon="12.684002781735904"><ele>569.0</ele><time>2026-04-11T11:29:32Z</time></trkpt><trkpt lat="43.40993561605022" lon="12.683919821921958"><ele>569.0</ele><time>2026-04-11T11:29:33Z</time></trkpt><trkpt lat="43.40987012021455" lon="12.683815847447601"><ele>569.0</ele><time>2026-04-11T11:29:34Z</time></trkpt><trkpt lat="43.40981825241593" lon="12.683707178637455"><ele>569.0</ele><time>2026-04-11T11:29:35Z</time></trkpt><trkpt lat="43.409773183543116" lon="12.683592252300786"><ele>569.0</ele><time>2026-04-11T11:29:36Z</time></trkpt><trkpt lat="43.40972840591954" lon="12.683483388169481"><ele>569.0</ele><time>2026-04-11T11:29:37Z</time></trkpt><trkpt lat="43.40968509907359" lon="12.683364699307102"><ele>567.8</ele><time>2026-04-11T11:29:38Z</time></trkpt><trkpt lat="43.40964206532125" lon="12.683252132818547"><ele>566.5999999999999</ele><time>2026-04-11T11:29:39Z</time></trkpt><trkpt lat="43.40959082991615" lon="12.683141118250582"><ele>565.4</ele><time>2026-04-11T11:29:40Z</time></trkpt><trkpt lat="43.40952617226177" lon="12.683036844341588"><ele>564.1999999999999</ele><time>2026-04-11T11:29:41Z</time></trkpt><trkpt lat="43.409463764045945" lon="12.682927363755176"><ele>563.0</ele><time>2026-04-11T11:29:42Z</time></trkpt><trkpt lat="43.409400566441576" lon="12.682796319164062"><ele>563.75</ele><time>2026-04-11T11:29:43Z</time></trkpt><trkpt lat="43.409329721753956" lon="12.682659979865852"><ele>564.5</ele><time>2026-04-11T11:29:44Z</time></trkpt><trkpt lat="43.40925675923824" lon="12.682526904726044"><ele>565.25</ele><time>2026-04-11T11:29:45Z</time></trkpt><trkpt lat="43.409185239131254" lon="12.682396931709235"><ele>566.0</ele><time>2026-04-11T11:29:46Z</time></trkpt><trkpt lat="43.40911404266066" lon="12.682257680883751"><ele>566.0</ele><time>2026-04-11T11:29:47Z</time></trkpt><trkpt lat="43.40904163817644" lon="12.682125028146011"><ele>566.0</ele><time>2026-04-11T11:29:48Z</time></trkpt><trkpt lat="43.408968666654545" lon="12.681990335119385"><ele>566.0</ele><time>2026-04-11T11:29:49Z</time></trkpt><trkpt lat="43.408900578231076" lon="12.68186104472707"><ele>566.0</ele><time>2026-04-11T11:29:50Z</time></trkpt><trkpt lat="43.4088353446256" lon="12.681728587367969"><ele>566.0</ele><time>2026-04-11T11:29:51Z</time></trkpt><trkpt lat="43.40877174490473" lon="12.681607371591427"><ele>566.0</ele><time>2026-04-11T11:29:52Z</time></trkpt><trkpt lat="43.40870223938539" lon="12.681485256972575"><ele>566.0</ele><time>2026-04-11T11:29:53Z</time></trkpt><trkpt lat="43.40863377099152" lon="12.681353297619134"><ele>566.0</ele><time>2026-04-11T11:29:54Z</time></trkpt><trkpt lat="43.40856126799523" lon="12.681223794732059"><ele>567.5</ele><time>2026-04-11T11:29:55Z</time></trkpt><trkpt lat="43.40849149936879" lon="12.681089876996216"><ele>569.0</ele><time>2026-04-11T11:29:56Z</time></trkpt><trkpt lat="43.40842032384262" lon="12.680957742125265"><ele>570.5</ele><time>2026-04-11T11:29:57Z</time></trkpt><trkpt lat="43.408352914914666" lon="12.680815678058943"><ele>572.0</ele><time>2026-04-11T11:29:58Z</time></trkpt><trkpt lat="43.40828386623897" lon="12.68066893998648"><ele>572.0</ele><time>2026-04-11T11:29:59Z</time></trkpt><trkpt lat="43.408214704323335" lon="12.680502890096035"><ele>572.0</ele><time>2026-04-11T11:30:00Z</time></trkpt><trkpt lat="43.40815054301244" lon="12.680311766236263"><ele>572.0</ele><time>2026-04-11T11:30:01Z</time></trkpt><trkpt lat="43.40808203212355" lon="12.68010212211709"><ele>572.0</ele><time>2026-04-11T11:30:02Z</time></trkpt><trkpt lat="43.40801133800104" lon="12.679873832539515"><ele>572.0</ele><time>2026-04-11T11:30:03Z</time></trkpt><trkpt lat="43.407928016693305" lon="12.67962532696882"><ele>572.0</ele><time>2026-04-11T11:30:04Z</time></trkpt><trkpt lat="43.407834699151735" lon="12.679385082574816"><ele>572.0</ele><time>2026-04-11T11:30:05Z</time></trkpt><trkpt lat="43.40773580679508" lon="12.67915471110114"><ele>572.0</ele><time>2026-04-11T11:30:06Z</time></trkpt><trkpt lat="43.407635178351036" lon="12.678929273845442"><ele>572.0</ele><time>2026-04-11T11:30:07Z</time></trkpt><trkpt lat="43.407536216958924" lon="12.678711051046681"><ele>577.0</ele><time>2026-04-11T11:30:08Z</time></trkpt><trkpt lat="43.40743201494463" lon="12.678496363509066"><ele>582.0</ele><time>2026-04-11T11:30:09Z</time></trkpt><trkpt lat="43.40732923460668" lon="12.678282496748928"><ele>587.0</ele><time>2026-04-11T11:30:10Z</time></trkpt><trkpt lat="43.40723502396234" lon="12.678079699280723"><ele>585.0</ele><time>2026-04-11T11:30:11Z</time></trkpt><trkpt lat="43.40714236284764" lon="12.677881525848202"><ele>583.0</ele><time>2026-04-11T11:30:12Z</time></trkpt><trkpt lat="43.407052884501546" lon="12.677689156726128"><ele>581.0</ele><time>2026-04-11T11:30:13Z</time></trkpt><trkpt lat="43.40696428399236" lon="12.677508092513543"><ele>579.0</ele><time>2026-04-11T11:30:14Z</time></trkpt><trkpt lat="43.40687917982294" lon="12.677335594335196"><ele>577.0</ele><time>2026-04-11T11:30:15Z</time></trkpt><trkpt lat="43.40679631065908" lon="12.67716835251446"><ele>575.0</ele><time>2026-04-11T11:30:16.001Z</time></trkpt><trkpt lat="43.40672098846695" lon="12.676985985255488"><ele>577.6666666666666</ele><time>2026-04-11T11:30:17.001Z</time></trkpt><trkpt lat="43.406667480090846" lon="12.676803008087044"><ele>580.3333333333334</ele><time>2026-04-11T11:30:18.001Z</time></trkpt><trkpt lat="43.40663135730674" lon="12.676586213974888"><ele>583.0</ele><time>2026-04-11T11:30:19.001Z</time></trkpt><trkpt lat="43.40659495019114" lon="12.676368256332742"><ele>583.0</ele><time>2026-04-11T11:30:20.001Z</time></trkpt><trkpt lat="43.406550743337924" lon="12.67615111265008"><ele>583.0</ele><time>2026-04-11T11:30:21.001Z</time></trkpt><trkpt lat="43.40650097423858" lon="12.675933037334548"><ele>583.0</ele><time>2026-04-11T11:30:22.001Z</time></trkpt><trkpt lat="43.406449501628" lon="12.675719847485924"><ele>581.0</ele><time>2026-04-11T11:30:23.001Z</time></trkpt><trkpt lat="43.406397077769945" lon="12.67550670269694"><ele>579.0</ele><time>2026-04-11T11:30:24.001Z</time></trkpt><trkpt lat="43.40634601079712" lon="12.675300141081655"><ele>577.0</ele><time>2026-04-11T11:30:25.001Z</time></trkpt><trkpt lat="43.406292499784314" lon="12.675098699155365"><ele>577.0</ele><time>2026-04-11T11:30:26.001Z</time></trkpt><trkpt lat="43.40624013595823" lon="12.674903242453322"><ele>577.0</ele><time>2026-04-11T11:30:27.001Z</time></trkpt><trkpt lat="43.40617628243195" lon="12.67470950585112"><ele>577.0</ele><time>2026-04-11T11:30:28.001Z</time></trkpt><trkpt lat="43.406098753467305" lon="12.674515398492646"><ele>578.3333333333334</ele><time>2026-04-11T11:30:29.001Z</time></trkpt><trkpt lat="43.40600933437103" lon="12.674319348501724"><ele>579.6666666666666</ele><time>2026-04-11T11:30:30.001Z</time></trkpt><trkpt lat="43.405915727817266" lon="12.674131421099215"><ele>581.0</ele><time>2026-04-11T11:30:31.001Z</time></trkpt><trkpt lat="43.405818075037466" lon="12.673936355969332"><ele>581.0</ele><time>2026-04-11T11:30:32.001Z</time></trkpt><trkpt lat="43.405721273355525" lon="12.673743999073395"><ele>581.0</ele><time>2026-04-11T11:30:33.001Z</time></trkpt><trkpt lat="43.405633236247546" lon="12.673562737847906"><ele>581.0</ele><time>2026-04-11T11:30:34.001Z</time></trkpt><trkpt lat="43.405550154596234" lon="12.6733869665932"><ele>580.75</ele><time>2026-04-11T11:30:35.001Z</time></trkpt><trkpt lat="43.40547041037213" lon="12.673216729027006"><ele>580.5</ele><time>2026-04-11T11:30:36.001Z</time></trkpt><trkpt lat="43.405389697831005" lon="12.673058498115699"><ele>580.25</ele><time>2026-04-11T11:30:37.001Z</time></trkpt><trkpt lat="43.405311099710424" lon="12.672903269822775"><ele>580.0</ele><time>2026-04-11T11:30:38.001Z</time></trkpt><trkpt lat="43.40523768928771" lon="12.67275521978203"><ele>580.75</ele><time>2026-04-11T11:30:39.001Z</time></trkpt><trkpt lat="43.40516768547995" lon="12.672612216092492"><ele>581.5</ele><time>2026-04-11T11:30:40.001Z</time></trkpt><trkpt lat="43.4050992635186" lon="12.672470281166797"><ele>582.25</ele><time>2026-04-11T11:30:41.001Z</time></trkpt><trkpt lat="43.40502875561982" lon="12.672319920468631"><ele>583.0</ele><time>2026-04-11T11:30:42.001Z</time></trkpt><trkpt lat="43.4049557702811" lon="12.67216720169457"><ele>583.0</ele><time>2026-04-11T11:30:43.001Z</time></trkpt><trkpt lat="43.40488085403363" lon="12.672012969520571"><ele>583.0</ele><time>2026-04-11T11:30:44.001Z</time></trkpt><trkpt lat="43.40479885359599" lon="12.671846325876482"><ele>583.0</ele><time>2026-04-11T11:30:45.001Z</time></trkpt><trkpt lat="43.4047162685157" lon="12.671679122523567"><ele>583.0</ele><time>2026-04-11T11:30:46.001Z</time></trkpt><trkpt lat="43.404633012522275" lon="12.6715231898176"><ele>583.5</ele><time>2026-04-11T11:30:47.001Z</time></trkpt><trkpt lat="43.404547029670574" lon="12.671373849618295"><ele>584.0</ele><time>2026-04-11T11:30:48.001Z</time></trkpt><trkpt lat="43.404462420555014" lon="12.671228263161774"><ele>584.5</ele><time>2026-04-11T11:30:49.001Z</time></trkpt><trkpt lat="43.40437739959061" lon="12.671085409643615"><ele>585.0</ele><time>2026-04-11T11:30:50.001Z</time></trkpt><trkpt lat="43.40428652860479" lon="12.670937485989711"><ele>585.0</ele><time>2026-04-11T11:30:51.001Z</time></trkpt><trkpt lat="43.404194318039266" lon="12.670790504000514"><ele>585.0</ele><time>2026-04-11T11:30:52.001Z</time></trkpt><trkpt lat="43.40411024429758" lon="12.67065189041139"><ele>585.0</ele><time>2026-04-11T11:30:53.001Z</time></trkpt><trkpt lat="43.404028343210356" lon="12.670523656319329"><ele>585.0</ele><time>2026-04-11T11:30:54.001Z</time></trkpt><trkpt lat="43.403951243489395" lon="12.670391849055502"><ele>585.2</ele><time>2026-04-11T11:30:55.001Z</time></trkpt><trkpt lat="43.40387891278494" lon="12.670256973990886"><ele>585.4</ele><time>2026-04-11T11:30:56.001Z</time></trkpt><trkpt lat="43.40380301612739" lon="12.670145608666134"><ele>585.6</ele><time>2026-04-11T11:30:57.001Z</time></trkpt><trkpt lat="43.40373018873992" lon="12.670056410694055"><ele>585.8</ele><time>2026-04-11T11:30:58.001Z</time></trkpt><trkpt lat="43.40365997892559" lon="12.669987159203707"><ele>586.0</ele><time>2026-04-11T11:30:59.001Z</time></trkpt><trkpt lat="43.40359867209327" lon="12.669932070148237"><ele>585.5</ele><time>2026-04-11T11:31:00.001Z</time></trkpt><trkpt lat="43.40354257884545" lon="12.669881349886616"><ele>585.0</ele><time>2026-04-11T11:31:01.001Z</time></trkpt><trkpt lat="43.403467864975944" lon="12.669802588770654"><ele>584.5</ele><time>2026-04-11T11:31:03.001Z</time></trkpt><trkpt lat="43.40343420536241" lon="12.669722539302096"><ele>584.0</ele><time>2026-04-11T11:31:05Z</time></trkpt><trkpt lat="43.40338175811385" lon="12.669668292622523"><ele>583.5</ele><time>2026-04-11T11:31:10Z</time></trkpt><trkpt lat="43.40327656510685" lon="12.669691788505252"><ele>583.0</ele><time>2026-04-11T11:32:38.001Z</time></trkpt><trkpt lat="43.40314054205258" lon="12.66969495512957"><ele>583.0</ele><time>2026-04-11T11:32:40.001Z</time></trkpt><trkpt lat="43.4030603163706" lon="12.669698687708719"><ele>583.0</ele><time>2026-04-11T11:32:41.001Z</time></trkpt><trkpt lat="43.40298162142341" lon="12.66970363971513"><ele>583.0</ele><time>2026-04-11T11:32:42.001Z</time></trkpt><trkpt lat="43.402909370746784" lon="12.669709649797928"><ele>583.0</ele><time>2026-04-11T11:32:43.001Z</time></trkpt><trkpt lat="43.40284131281014" lon="12.669714494302335"><ele>583.0</ele><time>2026-04-11T11:32:44.001Z</time></trkpt><trkpt lat="43.40276109147482" lon="12.669722051375395"><ele>583.0</ele><time>2026-04-11T11:32:45.001Z</time></trkpt><trkpt lat="43.402670726711236" lon="12.66973202224919"><ele>583.1666666666667</ele><time>2026-04-11T11:32:46.001Z</time></trkpt><trkpt lat="43.40258124263795" lon="12.66975090672706"><ele>583.3333333333334</ele><time>2026-04-11T11:32:47.001Z</time></trkpt><trkpt lat="43.40249938437137" lon="12.669765511367025"><ele>583.5</ele><time>2026-04-11T11:32:48.001Z</time></trkpt><trkpt lat="43.40242419308713" lon="12.66977384845447"><ele>583.6666666666666</ele><time>2026-04-11T11:32:49.001Z</time></trkpt><trkpt lat="43.402357518452895" lon="12.669782096257512"><ele>583.8333333333333</ele><time>2026-04-11T11:32:50.001Z</time></trkpt><trkpt lat="43.40224482611993" lon="12.669801195861837"><ele>584.0</ele><time>2026-04-11T11:32:52.001Z</time></trkpt><trkpt lat="43.40213068922229" lon="12.669809830000473"><ele>583.4</ele><time>2026-04-11T11:32:54.001Z</time></trkpt><trkpt lat="43.40202091180262" lon="12.669801338667321"><ele>582.8</ele><time>2026-04-11T11:32:56.001Z</time></trkpt><trkpt lat="43.401951353909936" lon="12.66979372700817"><ele>582.2</ele><time>2026-04-11T11:32:57.001Z</time></trkpt><trkpt lat="43.401834012638034" lon="12.669754889776025"><ele>581.6</ele><time>2026-04-11T11:32:58.001Z</time></trkpt><trkpt lat="43.401724963377966" lon="12.669832091284754"><ele>581.0</ele><time>2026-04-11T11:32:59.001Z</time></trkpt><trkpt lat="43.40158796336242" lon="12.669859932761307"><ele>581.0</ele><time>2026-04-11T11:33:00.001Z</time></trkpt><trkpt lat="43.40142071188567" lon="12.66990243986258"><ele>581.0</ele><time>2026-04-11T11:33:01.001Z</time></trkpt><trkpt lat="43.40123131897781" lon="12.669910245310122"><ele>581.0</ele><time>2026-04-11T11:33:02.001Z</time></trkpt><trkpt lat="43.4010119865471" lon="12.669937915064194"><ele>582.6666666666666</ele><time>2026-04-11T11:33:03.001Z</time></trkpt><trkpt lat="43.40080792734459" lon="12.669979472974992"><ele>584.3333333333334</ele><time>2026-04-11T11:33:04.001Z</time></trkpt><trkpt lat="43.400624776440985" lon="12.66999454232029"><ele>586.0</ele><time>2026-04-11T11:33:05.001Z</time></trkpt><trkpt lat="43.40045585927254" lon="12.670016005587456"><ele>586.0</ele><time>2026-04-11T11:33:06.001Z</time></trkpt><trkpt lat="43.400305327679504" lon="12.670031427428071"><ele>586.0</ele><time>2026-04-11T11:33:07.001Z</time></trkpt><trkpt lat="43.4001630261399" lon="12.670047372508048"><ele>586.0</ele><time>2026-04-11T11:33:08.001Z</time></trkpt><trkpt lat="43.400033326066094" lon="12.670061033027274"><ele>586.0</ele><time>2026-04-11T11:33:09.001Z</time></trkpt><trkpt lat="43.39990916935707" lon="12.670076080809286"><ele>586.0</ele><time>2026-04-11T11:33:10.001Z</time></trkpt><trkpt lat="43.399796282928534" lon="12.670099610561785"><ele>586.0</ele><time>2026-04-11T11:33:11Z</time></trkpt><trkpt lat="43.39969573923196" lon="12.670143311602567"><ele>586.0</ele><time>2026-04-11T11:33:12Z</time></trkpt><trkpt lat="43.399606777595025" lon="12.670179404018162"><ele>586.0</ele><time>2026-04-11T11:33:13Z</time></trkpt><trkpt lat="43.399548264069644" lon="12.670227743292953"><ele>586.0</ele><time>2026-04-11T11:33:14Z</time></trkpt><trkpt lat="43.3996454927304" lon="12.670411210653759"><ele>589.0</ele><time>2026-04-11T11:33:16Z</time></trkpt><trkpt lat="43.39971586833912" lon="12.67047122207851"><ele>592.0</ele><time>2026-04-11T11:33:17Z</time></trkpt><trkpt lat="43.39980898088907" lon="12.670539918438736"><ele>595.0</ele><time>2026-04-11T11:33:18Z</time></trkpt><trkpt lat="43.399938523672844" lon="12.670572637352908"><ele>598.0</ele><time>2026-04-11T11:33:19Z</time></trkpt><trkpt lat="43.40006364366004" lon="12.670668154615589"><ele>598.0</ele><time>2026-04-11T11:33:20Z</time></trkpt><trkpt lat="43.40022108368851" lon="12.67075506176922"><ele>598.0</ele><time>2026-04-11T11:33:21Z</time></trkpt><trkpt lat="43.400362740245846" lon="12.670862037835153"><ele>598.0</ele><time>2026-04-11T11:33:22Z</time></trkpt><trkpt lat="43.400476929152475" lon="12.670949839227845"><ele>597.75</ele><time>2026-04-11T11:33:23Z</time></trkpt><trkpt lat="43.40058348691091" lon="12.671051592358204"><ele>597.5</ele><time>2026-04-11T11:33:24Z</time></trkpt><trkpt lat="43.40066848523183" lon="12.671185533680818"><ele>597.25</ele><time>2026-04-11T11:33:25Z</time></trkpt><trkpt lat="43.40075320623414" lon="12.67131695506396"><ele>597.0</ele><time>2026-04-11T11:33:26Z</time></trkpt><trkpt lat="43.40082987288494" lon="12.671458012397807"><ele>599.6</ele><time>2026-04-11T11:33:27Z</time></trkpt><trkpt lat="43.40089729651524" lon="12.67160132669809"><ele>602.2</ele><time>2026-04-11T11:33:28Z</time></trkpt><trkpt lat="43.40094128406148" lon="12.671726763450163"><ele>604.8</ele><time>2026-04-11T11:33:29Z</time></trkpt><trkpt lat="43.400906601088835" lon="12.671836847861417"><ele>607.4</ele><time>2026-04-11T11:33:30Z</time></trkpt><trkpt lat="43.40083374959896" lon="12.671926246733042"><ele>610.0</ele><time>2026-04-11T11:33:31Z</time></trkpt><trkpt lat="43.40077958063071" lon="12.67203203634356"><ele>612.25</ele><time>2026-04-11T11:33:32Z</time></trkpt><trkpt lat="43.40076593118876" lon="12.672166908364822"><ele>614.5</ele><time>2026-04-11T11:33:33Z</time></trkpt><trkpt lat="43.40082510035778" lon="12.672325398388908"><ele>616.75</ele><time>2026-04-11T11:33:34Z</time></trkpt><trkpt lat="43.40088255912294" lon="12.672483373876858"><ele>619.0</ele><time>2026-04-11T11:33:35Z</time></trkpt><trkpt lat="43.40093064695527" lon="12.67261017131542"><ele>619.0</ele><time>2026-04-11T11:33:36Z</time></trkpt><trkpt lat="43.40097812232547" lon="12.672705955625585"><ele>619.0</ele><time>2026-04-11T11:33:37Z</time></trkpt><trkpt lat="43.40104625372601" lon="12.672762819526667"><ele>619.0</ele><time>2026-04-11T11:33:38Z</time></trkpt><trkpt lat="43.40114435914079" lon="12.672757633742027"><ele>619.0</ele><time>2026-04-11T11:33:39Z</time></trkpt><trkpt lat="43.40124239754505" lon="12.672719381026083"><ele>619.0</ele><time>2026-04-11T11:33:40Z</time></trkpt><trkpt lat="43.40134791968438" lon="12.672651615452049"><ele>623.0</ele><time>2026-04-11T11:33:41Z</time></trkpt><trkpt lat="43.40144839305638" lon="12.672574265404691"><ele>627.0</ele><time>2026-04-11T11:33:42Z</time></trkpt><trkpt lat="43.40154140776016" lon="12.672523183719973"><ele>631.0</ele><time>2026-04-11T11:33:43Z</time></trkpt><trkpt lat="43.401624910584566" lon="12.672476225378949"><ele>635.0</ele><time>2026-04-11T11:33:44Z</time></trkpt><trkpt lat="43.40171578317544" lon="12.672425689822658"><ele>639.0</ele><time>2026-04-11T11:33:45Z</time></trkpt><trkpt lat="43.40181531919696" lon="12.672377897455174"><ele>639.0</ele><time>2026-04-11T11:33:46Z</time></trkpt><trkpt lat="43.40192568527058" lon="12.672338893868623"><ele>639.0</ele><time>2026-04-11T11:33:47Z</time></trkpt><trkpt lat="43.40203589241999" lon="12.672308403694595"><ele>639.0</ele><time>2026-04-11T11:33:48Z</time></trkpt><trkpt lat="43.40214521326803" lon="12.67228369536646"><ele>639.0</ele><time>2026-04-11T11:33:49Z</time></trkpt><trkpt lat="43.40224501834516" lon="12.67225912279307"><ele>639.0</ele><time>2026-04-11T11:33:50Z</time></trkpt><trkpt lat="43.40235018779909" lon="12.672238803770407"><ele>642.0</ele><time>2026-04-11T11:33:51Z</time></trkpt><trkpt lat="43.40246233915664" lon="12.67223987247285"><ele>645.0</ele><time>2026-04-11T11:33:52Z</time></trkpt><trkpt lat="43.40257248857915" lon="12.67229200615532"><ele>648.0</ele><time>2026-04-11T11:33:53Z</time></trkpt><trkpt lat="43.402680308537605" lon="12.672353682425141"><ele>651.0</ele><time>2026-04-11T11:33:54Z</time></trkpt><trkpt lat="43.402800623571444" lon="12.672428058804963"><ele>651.0</ele><time>2026-04-11T11:33:55Z</time></trkpt><trkpt lat="43.40290619173856" lon="12.67246372600306"><ele>651.0</ele><time>2026-04-11T11:33:56Z</time></trkpt><trkpt lat="43.403008772903476" lon="12.672479144677755"><ele>651.0</ele><time>2026-04-11T11:33:57Z</time></trkpt><trkpt lat="43.403117943592534" lon="12.672464724697717"><ele>651.0</ele><time>2026-04-11T11:33:58Z</time></trkpt><trkpt lat="43.4032228439327" lon="12.672438354116856"><ele>651.0</ele><time>2026-04-11T11:33:59Z</time></trkpt><trkpt lat="43.403313626327765" lon="12.672411262777592"><ele>650.6666666666666</ele><time>2026-04-11T11:34:00Z</time></trkpt><trkpt lat="43.40339106530268" lon="12.672397424580916"><ele>650.3333333333334</ele><time>2026-04-11T11:34:01Z</time></trkpt><trkpt lat="43.403453458990256" lon="12.672419992081295"><ele>650.0</ele><time>2026-04-11T11:34:02Z</time></trkpt><trkpt lat="43.403473544699025" lon="12.672570605229819"><ele>649.6666666666667</ele><time>2026-04-11T11:34:04Z</time></trkpt><trkpt lat="43.40342204280995" lon="12.672626708134981"><ele>649.3333333333334</ele><time>2026-04-11T11:34:05Z</time></trkpt><trkpt lat="43.40336592803441" lon="12.672696495837558"><ele>649.0</ele><time>2026-04-11T11:34:06Z</time></trkpt><trkpt lat="43.403306502348464" lon="12.672755522641083"><ele>650.5</ele><time>2026-04-11T11:34:07Z</time></trkpt><trkpt lat="43.40324472734807" lon="12.67280911515469"><ele>652.0</ele><time>2026-04-11T11:34:08Z</time></trkpt><trkpt lat="43.40318272935999" lon="12.672853872112867"><ele>653.5</ele><time>2026-04-11T11:34:09Z</time></trkpt><trkpt lat="43.403112144713745" lon="12.672895667838299"><ele>655.0</ele><time>2026-04-11T11:34:10Z</time></trkpt><trkpt lat="43.403036865319464" lon="12.67294106152841"><ele>656.5</ele><time>2026-04-11T11:34:11Z</time></trkpt><trkpt lat="43.40296007857169" lon="12.672950669507655"><ele>658.0</ele><time>2026-04-11T11:34:12Z</time></trkpt><trkpt lat="43.402873627447846" lon="12.672916895853401"><ele>661.4</ele><time>2026-04-11T11:34:13Z</time></trkpt><trkpt lat="43.40276694817832" lon="12.672880386639887"><ele>664.8</ele><time>2026-04-11T11:34:14Z</time></trkpt><trkpt lat="43.4026628543917" lon="12.672823696361577"><ele>668.2</ele><time>2026-04-11T11:34:15Z</time></trkpt><trkpt lat="43.402573066207786" lon="12.672801710534648"><ele>671.6</ele><time>2026-04-11T11:34:16Z</time></trkpt><trkpt lat="43.40249809907498" lon="12.672789477616773"><ele>675.0</ele><time>2026-04-11T11:34:17Z</time></trkpt><trkpt lat="43.40243817437844" lon="12.67282146937907"><ele>675.0</ele><time>2026-04-11T11:34:18Z</time></trkpt><trkpt lat="43.40239689203267" lon="12.672887031492728"><ele>675.0</ele><time>2026-04-11T11:34:19Z</time></trkpt><trkpt lat="43.402414852909196" lon="12.67302521242108"><ele>675.0</ele><time>2026-04-11T11:34:20Z</time></trkpt><trkpt lat="43.40248750331448" lon="12.67310048379518"><ele>675.0</ele><time>2026-04-11T11:34:21Z</time></trkpt><trkpt lat="43.402571811284695" lon="12.673104951786673"><ele>675.0</ele><time>2026-04-11T11:34:22Z</time></trkpt><trkpt lat="43.4026552452798" lon="12.673143314366177"><ele>675.0</ele><time>2026-04-11T11:34:23.001Z</time></trkpt><trkpt lat="43.40271983690348" lon="12.673170858572416"><ele>675.0</ele><time>2026-04-11T11:34:24.001Z</time></trkpt><trkpt lat="43.402773053137864" lon="12.673294670429113"><ele>675.0</ele><time>2026-04-11T11:34:26.001Z</time></trkpt><trkpt lat="43.402708421588365" lon="12.673345951965954"><ele>675.0</ele><time>2026-04-11T11:34:28.001Z</time></trkpt><trkpt lat="43.402615730893274" lon="12.673323726034674"><ele>675.0</ele><time>2026-04-11T11:34:30.001Z</time></trkpt><trkpt lat="43.40253871359658" lon="12.673288991690526"><ele>675.0</ele><time>2026-04-11T11:34:31.001Z</time></trkpt><trkpt lat="43.40242951262116" lon="12.673263672027492"><ele>675.0</ele><time>2026-04-11T11:34:32.001Z</time></trkpt><trkpt lat="43.40230351531226" lon="12.673271354197876"><ele>675.0</ele><time>2026-04-11T11:34:33.001Z</time></trkpt><trkpt lat="43.40218192480224" lon="12.67332316245377"><ele>675.0</ele><time>2026-04-11T11:34:34.001Z</time></trkpt><trkpt lat="43.40208595364625" lon="12.673402885589296"><ele>675.0</ele><time>2026-04-11T11:34:35.001Z</time></trkpt><trkpt lat="43.402011039706714" lon="12.673517414835276"><ele>674.2</ele><time>2026-04-11T11:34:36.001Z</time></trkpt><trkpt lat="43.40195758364199" lon="12.67365213629157"><ele>673.4</ele><time>2026-04-11T11:34:37.001Z</time></trkpt><trkpt lat="43.40192481135343" lon="12.673803597610494"><ele>672.5999999999999</ele><time>2026-04-11T11:34:38.001Z</time></trkpt><trkpt lat="43.40189222477058" lon="12.673955247945148"><ele>671.8</ele><time>2026-04-11T11:34:39.001Z</time></trkpt><trkpt lat="43.401868164049155" lon="12.674082270339495"><ele>671.0</ele><time>2026-04-11T11:34:40.001Z</time></trkpt><trkpt lat="43.40185736432659" lon="12.674195732185208"><ele>671.0</ele><time>2026-04-11T11:34:41.001Z</time></trkpt><trkpt lat="43.40185991679994" lon="12.674295865785174"><ele>671.0</ele><time>2026-04-11T11:34:42.001Z</time></trkpt><trkpt lat="43.40189138697277" lon="12.674384298991368"><ele>671.0</ele><time>2026-04-11T11:34:43.001Z</time></trkpt><trkpt lat="43.40195325489787" lon="12.674426734963573"><ele>671.0</ele><time>2026-04-11T11:34:44.001Z</time></trkpt><trkpt lat="43.402020758050206" lon="12.674393251124807"><ele>671.0</ele><time>2026-04-11T11:34:45.001Z</time></trkpt><trkpt lat="43.40211567562396" lon="12.674282786196953"><ele>671.0</ele><time>2026-04-11T11:34:47.001Z</time></trkpt><trkpt lat="43.40214459967197" lon="12.674181987582664"><ele>675.6666666666666</ele><time>2026-04-11T11:34:48.001Z</time></trkpt><trkpt lat="43.40217856999966" lon="12.674068551560984"><ele>680.3333333333333</ele><time>2026-04-11T11:34:49.001Z</time></trkpt><trkpt lat="43.402223684573656" lon="12.67397315438742"><ele>685.0</ele><time>2026-04-11T11:34:50.001Z</time></trkpt><trkpt lat="43.40227884729465" lon="12.673900730365013"><ele>689.6666666666666</ele><time>2026-04-11T11:34:51.001Z</time></trkpt><trkpt lat="43.4024059204975" lon="12.673889297319691"><ele>694.3333333333334</ele><time>2026-04-11T11:34:53.001Z</time></trkpt><trkpt lat="43.40246299475351" lon="12.673928484254656"><ele>699.0</ele><time>2026-04-11T11:34:54.001Z</time></trkpt><trkpt lat="43.40246826146759" lon="12.674020533185486"><ele>699.0</ele><time>2026-04-11T11:34:55.001Z</time></trkpt><trkpt lat="43.40242315167653" lon="12.674170965856327"><ele>699.0</ele><time>2026-04-11T11:34:57.001Z</time></trkpt><trkpt lat="43.40236082257689" lon="12.674261855311045"><ele>699.0</ele><time>2026-04-11T11:34:58.001Z</time></trkpt><trkpt lat="43.402269937441574" lon="12.67438585962101"><ele>699.0</ele><time>2026-04-11T11:34:59.001Z</time></trkpt><trkpt lat="43.402200089584106" lon="12.674541501781803"><ele>696.6666666666666</ele><time>2026-04-11T11:35:00.001Z</time></trkpt><trkpt lat="43.40214821503534" lon="12.674718228113182"><ele>694.3333333333333</ele><time>2026-04-11T11:35:01.001Z</time></trkpt><trkpt lat="43.402094833084156" lon="12.674915102630427"><ele>692.0</ele><time>2026-04-11T11:35:02.001Z</time></trkpt><trkpt lat="43.40202770803231" lon="12.675126158287991"><ele>697.0</ele><time>2026-04-11T11:35:03.001Z</time></trkpt><trkpt lat="43.40195973224838" lon="12.675303554059266"><ele>702.0</ele><time>2026-04-11T11:35:04.001Z</time></trkpt><trkpt lat="43.401894477348165" lon="12.675452483697137"><ele>707.0</ele><time>2026-04-11T11:35:05.001Z</time></trkpt><trkpt lat="43.40183070747023" lon="12.675575737150997"><ele>712.0</ele><time>2026-04-11T11:35:06.001Z</time></trkpt><trkpt lat="43.40174811144468" lon="12.675664625764302"><ele>712.0</ele><time>2026-04-11T11:35:07.001Z</time></trkpt><trkpt lat="43.40165756654056" lon="12.675765423146501"><ele>712.0</ele><time>2026-04-11T11:35:08.001Z</time></trkpt><trkpt lat="43.40154302971327" lon="12.675843736401927"><ele>712.0</ele><time>2026-04-11T11:35:09.001Z</time></trkpt><trkpt lat="43.401394348156074" lon="12.675899766973973"><ele>712.0</ele><time>2026-04-11T11:35:10.001Z</time></trkpt><trkpt lat="43.40127215632651" lon="12.676005766331194"><ele>712.6666666666667</ele><time>2026-04-11T11:35:11.001Z</time></trkpt><trkpt lat="43.40116547420885" lon="12.676125064414856"><ele>713.3333333333334</ele><time>2026-04-11T11:35:12.001Z</time></trkpt><trkpt lat="43.40105224008346" lon="12.676275002254942"><ele>714.0</ele><time>2026-04-11T11:35:13.001Z</time></trkpt><trkpt lat="43.40093712583583" lon="12.67644510802648"><ele>714.0</ele><time>2026-04-11T11:35:14.001Z</time></trkpt><trkpt lat="43.40082378836515" lon="12.676632635645568"><ele>714.0</ele><time>2026-04-11T11:35:15.001Z</time></trkpt><trkpt lat="43.40069218422555" lon="12.67681039275448"><ele>714.0</ele><time>2026-04-11T11:35:16.001Z</time></trkpt><trkpt lat="43.40058110544975" lon="12.676960157038438"><ele>715.5</ele><time>2026-04-11T11:35:17Z</time></trkpt><trkpt lat="43.40047160166117" lon="12.677081873371346"><ele>717.0</ele><time>2026-04-11T11:35:18Z</time></trkpt><trkpt lat="43.40036483310497" lon="12.677183236538577"><ele>718.5</ele><time>2026-04-11T11:35:19Z</time></trkpt><trkpt lat="43.400267568825086" lon="12.677260636770496"><ele>720.0</ele><time>2026-04-11T11:35:20Z</time></trkpt><trkpt lat="43.40018539393261" lon="12.67733915157759"><ele>720.0</ele><time>2026-04-11T11:35:21Z</time></trkpt><trkpt lat="43.40013049509117" lon="12.67740120753143"><ele>720.0</ele><time>2026-04-11T11:35:22Z</time></trkpt><trkpt lat="43.400112248474144" lon="12.677550619614088"><ele>720.0</ele><time>2026-04-11T11:35:24Z</time></trkpt><trkpt lat="43.40014991562042" lon="12.677642784070015"><ele>720.0</ele><time>2026-04-11T11:35:26Z</time></trkpt><trkpt lat="43.40028200301284" lon="12.677601334410374"><ele>720.0</ele><time>2026-04-11T11:35:28Z</time></trkpt><trkpt lat="43.40036798905385" lon="12.677523395177204"><ele>720.0</ele><time>2026-04-11T11:35:29Z</time></trkpt><trkpt lat="43.40049037009571" lon="12.677433795651343"><ele>720.0</ele><time>2026-04-11T11:35:30Z</time></trkpt><trkpt lat="43.40063466088068" lon="12.677329437706108"><ele>720.0</ele><time>2026-04-11T11:35:31Z</time></trkpt><trkpt lat="43.40078028306502" lon="12.677241642537954"><ele>725.25</ele><time>2026-04-11T11:35:32Z</time></trkpt><trkpt lat="43.400904333037815" lon="12.677159796485679"><ele>730.5</ele><time>2026-04-11T11:35:33Z</time></trkpt><trkpt lat="43.401030858468275" lon="12.677076028010706"><ele>735.75</ele><time>2026-04-11T11:35:34Z</time></trkpt><trkpt lat="43.401153674825466" lon="12.677000218260096"><ele>741.0</ele><time>2026-04-11T11:35:35Z</time></trkpt><trkpt lat="43.40127251958528" lon="12.676942633876697"><ele>739.0</ele><time>2026-04-11T11:35:36Z</time></trkpt><trkpt lat="43.40138628202721" lon="12.676913198689755"><ele>737.0</ele><time>2026-04-11T11:35:37Z</time></trkpt><trkpt lat="43.401487516761144" lon="12.676912309797757"><ele>735.0</ele><time>2026-04-11T11:35:38Z</time></trkpt><trkpt lat="43.401559730362884" lon="12.676960967955486"><ele>733.0</ele><time>2026-04-11T11:35:39Z</time></trkpt><trkpt lat="43.40163597323187" lon="12.677056719941795"><ele>731.0</ele><time>2026-04-11T11:35:41Z</time></trkpt><trkpt lat="43.40161195570413" lon="12.677177164953813"><ele>733.0</ele><time>2026-04-11T11:35:43Z</time></trkpt><trkpt lat="43.401501533898966" lon="12.67721406584467"><ele>735.0</ele><time>2026-04-11T11:35:45Z</time></trkpt><trkpt lat="43.40140375153519" lon="12.67723537592046"><ele>737.0</ele><time>2026-04-11T11:35:46Z</time></trkpt><trkpt lat="43.401306585999855" lon="12.677281972640756"><ele>739.0</ele><time>2026-04-11T11:35:47Z</time></trkpt><trkpt lat="43.40121195168505" lon="12.677343162101879"><ele>741.0</ele><time>2026-04-11T11:35:48Z</time></trkpt><trkpt lat="43.40111856412439" lon="12.677408118351654"><ele>741.0</ele><time>2026-04-11T11:35:49Z</time></trkpt><trkpt lat="43.40102741130618" lon="12.67747433545806"><ele>741.0</ele><time>2026-04-11T11:35:50Z</time></trkpt><trkpt lat="43.40093779071747" lon="12.6775394394427"><ele>741.0</ele><time>2026-04-11T11:35:51Z</time></trkpt><trkpt lat="43.400853534123655" lon="12.677621338260852"><ele>741.0</ele><time>2026-04-11T11:35:52Z</time></trkpt><trkpt lat="43.40076997304634" lon="12.677673642016364"><ele>741.0</ele><time>2026-04-11T11:35:53Z</time></trkpt><trkpt lat="43.40068698099832" lon="12.67769644260035"><ele>741.0</ele><time>2026-04-11T11:35:54Z</time></trkpt><trkpt lat="43.40061627675526" lon="12.677744531905823"><ele>741.0</ele><time>2026-04-11T11:35:55Z</time></trkpt><trkpt lat="43.4005584135062" lon="12.677793739378174"><ele>741.0</ele><time>2026-04-11T11:35:56Z</time></trkpt><trkpt lat="43.40049491663081" lon="12.677946066884344"><ele>741.0</ele><time>2026-04-11T11:35:58Z</time></trkpt><trkpt lat="43.400527069683264" lon="12.67804800024461"><ele>741.0</ele><time>2026-04-11T11:35:59Z</time></trkpt><trkpt lat="43.40060558958292" lon="12.678101042757273"><ele>741.0</ele><time>2026-04-11T11:36:00Z</time></trkpt><trkpt lat="43.40069690527007" lon="12.678036741531216"><ele>741.0</ele><time>2026-04-11T11:36:01Z</time></trkpt><trkpt lat="43.40076822247793" lon="12.677998630899829"><ele>741.0</ele><time>2026-04-11T11:36:02Z</time></trkpt><trkpt lat="43.40085072264889" lon="12.677940093759243"><ele>741.0</ele><time>2026-04-11T11:36:03Z</time></trkpt><trkpt lat="43.4009446917755" lon="12.677875035999643"><ele>741.0</ele><time>2026-04-11T11:36:04Z</time></trkpt><trkpt lat="43.401045055581335" lon="12.677812309257451"><ele>741.0</ele><time>2026-04-11T11:36:05Z</time></trkpt><trkpt lat="43.40114847329951" lon="12.677752412563972"><ele>741.0</ele><time>2026-04-11T11:36:06Z</time></trkpt><trkpt lat="43.40125041033303" lon="12.677703922427636"><ele>741.0</ele><time>2026-04-11T11:36:07Z</time></trkpt><trkpt lat="43.40135537870649" lon="12.677681066493552"><ele>741.0</ele><time>2026-04-11T11:36:08Z</time></trkpt><trkpt lat="43.401459330631106" lon="12.677682449983198"><ele>741.0</ele><time>2026-04-11T11:36:09Z</time></trkpt><trkpt lat="43.40156016089998" lon="12.677749052665483"><ele>741.0</ele><time>2026-04-11T11:36:10Z</time></trkpt><trkpt lat="43.401676953677" lon="12.677777883994032"><ele>745.0</ele><time>2026-04-11T11:36:11Z</time></trkpt><trkpt lat="43.40180460467601" lon="12.677784295059432"><ele>749.0</ele><time>2026-04-11T11:36:12Z</time></trkpt><trkpt lat="43.401931888169216" lon="12.677777611172443"><ele>753.0</ele><time>2026-04-11T11:36:13Z</time></trkpt><trkpt lat="43.40205341156399" lon="12.67776844524311"><ele>757.0</ele><time>2026-04-11T11:36:14Z</time></trkpt><trkpt lat="43.402168883476065" lon="12.677754905889937"><ele>758.6</ele><time>2026-04-11T11:36:15Z</time></trkpt><trkpt lat="43.40227979061706" lon="12.677709035709182"><ele>760.2</ele><time>2026-04-11T11:36:16Z</time></trkpt><trkpt lat="43.402390916977346" lon="12.677690945883205"><ele>761.8</ele><time>2026-04-11T11:36:17Z</time></trkpt><trkpt lat="43.40249045647246" lon="12.677669866095432"><ele>763.4</ele><time>2026-04-11T11:36:18Z</time></trkpt><trkpt lat="43.40257570555727" lon="12.677652147983707"><ele>765.0</ele><time>2026-04-11T11:36:19Z</time></trkpt><trkpt lat="43.402652746787176" lon="12.677641740053886"><ele>765.0</ele><time>2026-04-11T11:36:20Z</time></trkpt><trkpt lat="43.402717361665786" lon="12.677645629768406"><ele>765.0</ele><time>2026-04-11T11:36:21Z</time></trkpt><trkpt lat="43.40279987098496" lon="12.677753151516846"><ele>765.0</ele><time>2026-04-11T11:36:23Z</time></trkpt><trkpt lat="43.402780732438295" lon="12.677835941480282"><ele>765.0</ele><time>2026-04-11T11:36:24Z</time></trkpt><trkpt lat="43.40269492556369" lon="12.67791159657097"><ele>765.0</ele><time>2026-04-11T11:36:26Z</time></trkpt><trkpt lat="43.40256337273126" lon="12.677938282634079"><ele>768.2</ele><time>2026-04-11T11:36:28Z</time></trkpt><trkpt lat="43.40247120454172" lon="12.677956709826022"><ele>771.4</ele><time>2026-04-11T11:36:29Z</time></trkpt><trkpt lat="43.40236936108472" lon="12.67798101185884"><ele>774.5999999999999</ele><time>2026-04-11T11:36:30Z</time></trkpt><trkpt lat="43.40225689208322" lon="12.678007849301462"><ele>777.8</ele><time>2026-04-11T11:36:31Z</time></trkpt><trkpt lat="43.4021439109551" lon="12.67805778231418"><ele>781.0</ele><time>2026-04-11T11:36:32Z</time></trkpt><trkpt lat="43.40202471615795" lon="12.678075992226868"><ele>781.0</ele><time>2026-04-11T11:36:33Z</time></trkpt><trkpt lat="43.401896063686905" lon="12.678104027791525"><ele>781.0</ele><time>2026-04-11T11:36:34Z</time></trkpt><trkpt lat="43.401760012369856" lon="12.678141991886486"><ele>781.0</ele><time>2026-04-11T11:36:35.001Z</time></trkpt><trkpt lat="43.4016350854134" lon="12.678174548857134"><ele>781.0</ele><time>2026-04-11T11:36:36.001Z</time></trkpt><trkpt lat="43.40151473511259" lon="12.678203191284675"><ele>781.0</ele><time>2026-04-11T11:36:37.001Z</time></trkpt><trkpt lat="43.401398208327564" lon="12.678237571799626"><ele>781.0</ele><time>2026-04-11T11:36:38.001Z</time></trkpt><trkpt lat="43.401276373056845" lon="12.678286532163575"><ele>781.0</ele><time>2026-04-11T11:36:39.001Z</time></trkpt><trkpt lat="43.4011575533185" lon="12.678358430268522"><ele>781.0</ele><time>2026-04-11T11:36:40.001Z</time></trkpt><trkpt lat="43.40105141118901" lon="12.67842505850295"><ele>778.75</ele><time>2026-04-11T11:36:41.001Z</time></trkpt><trkpt lat="43.40095133554054" lon="12.678507264423775"><ele>776.5</ele><time>2026-04-11T11:36:42.001Z</time></trkpt><trkpt lat="43.40085589553791" lon="12.678612408646616"><ele>774.25</ele><time>2026-04-11T11:36:43.001Z</time></trkpt><trkpt lat="43.40075579742048" lon="12.678711742008991"><ele>772.0</ele><time>2026-04-11T11:36:44.001Z</time></trkpt><trkpt lat="43.40064940404946" lon="12.678850341311303"><ele>771.0</ele><time>2026-04-11T11:36:45.001Z</time></trkpt><trkpt lat="43.40057096697991" lon="12.678986552984314"><ele>770.0</ele><time>2026-04-11T11:36:46.001Z</time></trkpt><trkpt lat="43.400471350161396" lon="12.679096411946805"><ele>769.0</ele><time>2026-04-11T11:36:47.001Z</time></trkpt><trkpt lat="43.40038439607679" lon="12.679202463201449"><ele>768.0</ele><time>2026-04-11T11:36:48.001Z</time></trkpt><trkpt lat="43.40031279092945" lon="12.679311304403962"><ele>768.0</ele><time>2026-04-11T11:36:49.001Z</time></trkpt><trkpt lat="43.40024830716298" lon="12.6794221470327"><ele>768.0</ele><time>2026-04-11T11:36:50.001Z</time></trkpt><trkpt lat="43.40018923903258" lon="12.679553082263144"><ele>768.0</ele><time>2026-04-11T11:36:51.001Z</time></trkpt><trkpt lat="43.40014069067559" lon="12.679697876670039"><ele>768.0</ele><time>2026-04-11T11:36:52.001Z</time></trkpt><trkpt lat="43.40009648109831" lon="12.679847822473688"><ele>768.0</ele><time>2026-04-11T11:36:53.001Z</time></trkpt><trkpt lat="43.4000497237465" lon="12.679999586730533"><ele>772.25</ele><time>2026-04-11T11:36:54.001Z</time></trkpt><trkpt lat="43.39999704467912" lon="12.680167127991943"><ele>776.5</ele><time>2026-04-11T11:36:55.001Z</time></trkpt><trkpt lat="43.39994215450474" lon="12.68035138982722"><ele>780.75</ele><time>2026-04-11T11:36:56.001Z</time></trkpt><trkpt lat="43.399897945826815" lon="12.680533925287843"><ele>785.0</ele><time>2026-04-11T11:36:57.001Z</time></trkpt><trkpt lat="43.39981650262193" lon="12.680651152486263"><ele>782.2</ele><time>2026-04-11T11:36:58.001Z</time></trkpt><trkpt lat="43.39974335719622" lon="12.680766861638086"><ele>779.4</ele><time>2026-04-11T11:36:59.001Z</time></trkpt><trkpt lat="43.399650449593814" lon="12.680854206808881"><ele>776.5999999999999</ele><time>2026-04-11T11:37:00.001Z</time></trkpt><trkpt lat="43.39954362832769" lon="12.680900790387021"><ele>773.8</ele><time>2026-04-11T11:37:01.001Z</time></trkpt><trkpt lat="43.399475595643686" lon="12.681001239514167"><ele>771.0</ele><time>2026-04-11T11:37:02.001Z</time></trkpt><trkpt lat="43.39940953668685" lon="12.681094631891886"><ele>777.25</ele><time>2026-04-11T11:37:03.001Z</time></trkpt><trkpt lat="43.39934088696744" lon="12.681222219898672"><ele>783.5</ele><time>2026-04-11T11:37:04.001Z</time></trkpt><trkpt lat="43.39928675618084" lon="12.68138011748554"><ele>789.75</ele><time>2026-04-11T11:37:05.001Z</time></trkpt><trkpt lat="43.399218989183304" lon="12.681558045605367"><ele>796.0</ele><time>2026-04-11T11:37:06.001Z</time></trkpt><trkpt lat="43.399137596611396" lon="12.681751007173867"><ele>803.0</ele><time>2026-04-11T11:37:07.001Z</time></trkpt><trkpt lat="43.39907544169554" lon="12.681939487112095"><ele>810.0</ele><time>2026-04-11T11:37:08.001Z</time></trkpt><trkpt lat="43.39900833521997" lon="12.682134559736308"><ele>817.0</ele><time>2026-04-11T11:37:09.001Z</time></trkpt><trkpt lat="43.39893436449262" lon="12.682336838591375"><ele>817.0</ele><time>2026-04-11T11:37:10.001Z</time></trkpt><trkpt lat="43.39886206087661" lon="12.682537541120402"><ele>817.0</ele><time>2026-04-11T11:37:11.001Z</time></trkpt><trkpt lat="43.39878570100067" lon="12.682732284847626"><ele>817.0</ele><time>2026-04-11T11:37:12.001Z</time></trkpt><trkpt lat="43.39869407218391" lon="12.68293688516393"><ele>812.6666666666666</ele><time>2026-04-11T11:37:13.001Z</time></trkpt><trkpt lat="43.39860431974064" lon="12.683125226796339"><ele>808.3333333333333</ele><time>2026-04-11T11:37:14.001Z</time></trkpt><trkpt lat="43.39848105930229" lon="12.683270293323602"><ele>804.0</ele><time>2026-04-11T11:37:15.001Z</time></trkpt><trkpt lat="43.39836850445307" lon="12.683404345660042"><ele>804.0</ele><time>2026-04-11T11:37:16.001Z</time></trkpt><trkpt lat="43.398244198214556" lon="12.683552239224685"><ele>804.0</ele><time>2026-04-11T11:37:17.001Z</time></trkpt><trkpt lat="43.39813357056291" lon="12.683690219090824"><ele>804.0</ele><time>2026-04-11T11:37:18.001Z</time></trkpt><trkpt lat="43.39804102420879" lon="12.683813992589258"><ele>804.0</ele><time>2026-04-11T11:37:19.001Z</time></trkpt><trkpt lat="43.397956472178805" lon="12.683953115678701"><ele>802.0</ele><time>2026-04-11T11:37:20.001Z</time></trkpt><trkpt lat="43.397893362912356" lon="12.684110124757229"><ele>800.0</ele><time>2026-04-11T11:37:21.001Z</time></trkpt><trkpt lat="43.39781229009673" lon="12.68425296828934"><ele>798.0</ele><time>2026-04-11T11:37:22.001Z</time></trkpt><trkpt lat="43.397769404937776" lon="12.684419540339906"><ele>796.0</ele><time>2026-04-11T11:37:23Z</time></trkpt><trkpt lat="43.397698359319186" lon="12.684562810305795"><ele>803.5</ele><time>2026-04-11T11:37:24Z</time></trkpt><trkpt lat="43.39763889787357" lon="12.684720249743362"><ele>811.0</ele><time>2026-04-11T11:37:25Z</time></trkpt><trkpt lat="43.397567094581376" lon="12.684846838866934"><ele>818.5</ele><time>2026-04-11T11:37:26Z</time></trkpt><trkpt lat="43.39745823702761" lon="12.684932741429822"><ele>826.0</ele><time>2026-04-11T11:37:27Z</time></trkpt><trkpt lat="43.39734078219695" lon="12.685023717601268"><ele>826.0</ele><time>2026-04-11T11:37:28Z</time></trkpt><trkpt lat="43.39721000567318" lon="12.68512983076246"><ele>826.0</ele><time>2026-04-11T11:37:29Z</time></trkpt><trkpt lat="43.39709996162973" lon="12.685251290389926"><ele>826.0</ele><time>2026-04-11T11:37:30Z</time></trkpt><trkpt lat="43.39698369986825" lon="12.685402413718547"><ele>825.0</ele><time>2026-04-11T11:37:31Z</time></trkpt><trkpt lat="43.396878872194875" lon="12.6855748131566"><ele>824.0</ele><time>2026-04-11T11:37:32Z</time></trkpt><trkpt lat="43.39678358592891" lon="12.68574773284195"><ele>823.0</ele><time>2026-04-11T11:37:33Z</time></trkpt><trkpt lat="43.396668280182126" lon="12.685887503637163"><ele>823.0</ele><time>2026-04-11T11:37:34Z</time></trkpt><trkpt lat="43.39656009980253" lon="12.686039233917136"><ele>823.0</ele><time>2026-04-11T11:37:35Z</time></trkpt><trkpt lat="43.39644971670185" lon="12.686186085942735"><ele>823.0</ele><time>2026-04-11T11:37:36Z</time></trkpt><trkpt lat="43.39632156477934" lon="12.686327922642251"><ele>823.6666666666666</ele><time>2026-04-11T11:37:37Z</time></trkpt><trkpt lat="43.39617241388134" lon="12.686479926140683"><ele>824.3333333333333</ele><time>2026-04-11T11:37:38Z</time></trkpt><trkpt lat="43.39602625542339" lon="12.686605484739141"><ele>825.0</ele><time>2026-04-11T11:37:39Z</time></trkpt><trkpt lat="43.39586471876988" lon="12.686723039118705"><ele>825.0</ele><time>2026-04-11T11:37:40Z</time></trkpt><trkpt lat="43.39570692436501" lon="12.68683885313123"><ele>825.0</ele><time>2026-04-11T11:37:41Z</time></trkpt><trkpt lat="43.395565545301885" lon="12.686970065354624"><ele>825.0</ele><time>2026-04-11T11:37:42Z</time></trkpt><trkpt lat="43.39540573369044" lon="12.687088389163705"><ele>823.3333333333333</ele><time>2026-04-11T11:37:43Z</time></trkpt><trkpt lat="43.395259060601376" lon="12.687202219933253"><ele>821.6666666666666</ele><time>2026-04-11T11:37:44Z</time></trkpt><trkpt lat="43.39510503090844" lon="12.687312374839419"><ele>820.0</ele><time>2026-04-11T11:37:45Z</time></trkpt><trkpt lat="43.39495585276265" lon="12.687426317778481"><ele>820.0</ele><time>2026-04-11T11:37:46Z</time></trkpt><trkpt lat="43.3948029099263" lon="12.68755859400123"><ele>820.0</ele><time>2026-04-11T11:37:47Z</time></trkpt><trkpt lat="43.394654268088445" lon="12.68769434869376"><ele>820.0</ele><time>2026-04-11T11:37:48Z</time></trkpt><trkpt lat="43.394504649906914" lon="12.687830915314695"><ele>818.0</ele><time>2026-04-11T11:37:49Z</time></trkpt><trkpt lat="43.39435909112493" lon="12.687963793403208"><ele>816.0</ele><time>2026-04-11T11:37:50Z</time></trkpt><trkpt lat="43.39421263769788" lon="12.688100202563337"><ele>814.0</ele><time>2026-04-11T11:37:51Z</time></trkpt><trkpt lat="43.39406291897647" lon="12.688239651400863"><ele>814.0</ele><time>2026-04-11T11:37:52Z</time></trkpt><trkpt lat="43.39391325987356" lon="12.688380142527325"><ele>814.0</ele><time>2026-04-11T11:37:53Z</time></trkpt><trkpt lat="43.393768336722516" lon="12.688520490008194"><ele>814.0</ele><time>2026-04-11T11:37:54Z</time></trkpt><trkpt lat="43.39363303709064" lon="12.688658705139677"><ele>816.6666666666666</ele><time>2026-04-11T11:37:55Z</time></trkpt><trkpt lat="43.39350318381329" lon="12.688807309900703"><ele>819.3333333333333</ele><time>2026-04-11T11:37:56Z</time></trkpt><trkpt lat="43.39337951678373" lon="12.68895843296215"><ele>822.0</ele><time>2026-04-11T11:37:57Z</time></trkpt><trkpt lat="43.39325534274882" lon="12.689126239789019"><ele>822.0</ele><time>2026-04-11T11:37:58Z</time></trkpt><trkpt lat="43.3931353924119" lon="12.689310247501082"><ele>822.0</ele><time>2026-04-11T11:37:59Z</time></trkpt><trkpt lat="43.39302136383568" lon="12.689490704026852"><ele>822.0</ele><time>2026-04-11T11:38:00Z</time></trkpt><trkpt lat="43.39290066131508" lon="12.689684407466784"><ele>826.3333333333333</ele><time>2026-04-11T11:38:01Z</time></trkpt><trkpt lat="43.39277970746738" lon="12.689879288983741"><ele>830.6666666666666</ele><time>2026-04-11T11:38:02Z</time></trkpt><trkpt lat="43.392653516461436" lon="12.690082608900518"><ele>835.0</ele><time>2026-04-11T11:38:03Z</time></trkpt><trkpt lat="43.39253132076998" lon="12.69026571437073"><ele>835.0</ele><time>2026-04-11T11:38:04Z</time></trkpt><trkpt lat="43.39240591316517" lon="12.690425563219748"><ele>835.0</ele><time>2026-04-11T11:38:05Z</time></trkpt><trkpt lat="43.39228086948697" lon="12.690564181847835"><ele>835.0</ele><time>2026-04-11T11:38:06Z</time></trkpt><trkpt lat="43.39216586199256" lon="12.69067749347488"><ele>835.0</ele><time>2026-04-11T11:38:07Z</time></trkpt><trkpt lat="43.3920597058879" lon="12.690794076498156"><ele>835.0</ele><time>2026-04-11T11:38:08Z</time></trkpt><trkpt lat="43.391980787665254" lon="12.690907277933789"><ele>835.0</ele><time>2026-04-11T11:38:09Z</time></trkpt><trkpt lat="43.39191403148009" lon="12.691031287904497"><ele>835.0</ele><time>2026-04-11T11:38:10Z</time></trkpt><trkpt lat="43.39187697026456" lon="12.691177719816165"><ele>838.5</ele><time>2026-04-11T11:38:11Z</time></trkpt><trkpt lat="43.39185491880405" lon="12.691316993375152"><ele>842.0</ele><time>2026-04-11T11:38:12Z</time></trkpt><trkpt lat="43.391825230618586" lon="12.691463887286279"><ele>845.5</ele><time>2026-04-11T11:38:13Z</time></trkpt><trkpt lat="43.39182655542977" lon="12.691625555552248"><ele>849.0</ele><time>2026-04-11T11:38:14Z</time></trkpt><trkpt lat="43.39186133419253" lon="12.691806078783856"><ele>854.0</ele><time>2026-04-11T11:38:15Z</time></trkpt><trkpt lat="43.391887115569446" lon="12.692014784212216"><ele>859.0</ele><time>2026-04-11T11:38:16Z</time></trkpt><trkpt lat="43.391922592758945" lon="12.69226640758912"><ele>864.0</ele><time>2026-04-11T11:38:17Z</time></trkpt><trkpt lat="43.39195202685899" lon="12.692489929159917"><ele>864.0</ele><time>2026-04-11T11:38:18Z</time></trkpt><trkpt lat="43.39197519693083" lon="12.692677165798965"><ele>864.0000000000001</ele><time>2026-04-11T11:38:19Z</time></trkpt><trkpt lat="43.39198596417571" lon="12.69283673516152"><ele>864.0000000000001</ele><time>2026-04-11T11:38:20Z</time></trkpt><trkpt lat="43.39198170627076" lon="12.692962660991707"><ele>864.0</ele><time>2026-04-11T11:38:21Z</time></trkpt><trkpt lat="43.39196071956523" lon="12.693080057162925"><ele>864.0</ele><time>2026-04-11T11:38:22Z</time></trkpt><trkpt lat="43.39191161300462" lon="12.693176038414125"><ele>867.2</ele><time>2026-04-11T11:38:23Z</time></trkpt><trkpt lat="43.39183988068145" lon="12.693239622951241"><ele>870.4000000000001</ele><time>2026-04-11T11:38:24Z</time></trkpt><trkpt lat="43.3917385546453" lon="12.693237042403917"><ele>873.6</ele><time>2026-04-11T11:38:25Z</time></trkpt><trkpt lat="43.39163534559965" lon="12.693277969445594"><ele>876.8</ele><time>2026-04-11T11:38:26Z</time></trkpt><trkpt lat="43.39155476819179" lon="12.693321415167263"><ele>880.0</ele><time>2026-04-11T11:38:27Z</time></trkpt><trkpt lat="43.391494012564955" lon="12.693390545256278"><ele>880.0</ele><time>2026-04-11T11:38:28Z</time></trkpt><trkpt lat="43.39147113617329" lon="12.693495269315921"><ele>880.0</ele><time>2026-04-11T11:38:29Z</time></trkpt><trkpt lat="43.39149400895689" lon="12.693630943831435"><ele>880.0</ele><time>2026-04-11T11:38:30Z</time></trkpt><trkpt lat="43.39156871694628" lon="12.69372822556421"><ele>880.0</ele><time>2026-04-11T11:38:31Z</time></trkpt><trkpt lat="43.391615609667234" lon="12.693821934752041"><ele>880.0</ele><time>2026-04-11T11:38:32Z</time></trkpt><trkpt lat="43.39167000499587" lon="12.693929884734205"><ele>880.0</ele><time>2026-04-11T11:38:33Z</time></trkpt><trkpt lat="43.39174127320223" lon="12.694070429386569"><ele>880.0</ele><time>2026-04-11T11:38:34Z</time></trkpt><trkpt lat="43.39182890520548" lon="12.694243245216185"><ele>880.0</ele><time>2026-04-11T11:38:35Z</time></trkpt><trkpt lat="43.39192397366953" lon="12.69443215106993"><ele>880.0</ele><time>2026-04-11T11:38:36Z</time></trkpt><trkpt lat="43.39202582156684" lon="12.694641314100004"><ele>880.0</ele><time>2026-04-11T11:38:37Z</time></trkpt><trkpt lat="43.392135329912904" lon="12.694846406616726"><ele>880.0</ele><time>2026-04-11T11:38:38Z</time></trkpt><trkpt lat="43.39220008054715" lon="12.695027325786425"><ele>880.0</ele><time>2026-04-11T11:38:39Z</time></trkpt><trkpt lat="43.39226916486536" lon="12.69519023241638"><ele>885.5</ele><time>2026-04-11T11:38:40Z</time></trkpt><trkpt lat="43.39233303177669" lon="12.695348479668285"><ele>891.0</ele><time>2026-04-11T11:38:41Z</time></trkpt><trkpt lat="43.392409144268264" lon="12.695511881404792"><ele>896.5</ele><time>2026-04-11T11:38:42Z</time></trkpt><trkpt lat="43.39245484515815" lon="12.695703149254678"><ele>902.0</ele><time>2026-04-11T11:38:43Z</time></trkpt><trkpt lat="43.392495517464226" lon="12.695905421268984"><ele>906.6666666666667</ele><time>2026-04-11T11:38:44Z</time></trkpt><trkpt lat="43.39252485875208" lon="12.696109874957182"><ele>911.3333333333333</ele><time>2026-04-11T11:38:45Z</time></trkpt><trkpt lat="43.392551503244704" lon="12.696301881899016"><ele>916.0</ele><time>2026-04-11T11:38:46Z</time></trkpt><trkpt lat="43.3925912947407" lon="12.69651172777933"><ele>916.0</ele><time>2026-04-11T11:38:47Z</time></trkpt><trkpt lat="43.392624787918265" lon="12.69671778186994"><ele>916.0</ele><time>2026-04-11T11:38:48Z</time></trkpt><trkpt lat="43.39265704764128" lon="12.696921934909861"><ele>916.0</ele><time>2026-04-11T11:38:49Z</time></trkpt><trkpt lat="43.39268914118716" lon="12.697136452782368"><ele>917.3333333333333</ele><time>2026-04-11T11:38:50Z</time></trkpt><trkpt lat="43.39272070571305" lon="12.697352309799863"><ele>918.6666666666667</ele><time>2026-04-11T11:38:51Z</time></trkpt><trkpt lat="43.39275033229181" lon="12.697557035125724"><ele>920.0</ele><time>2026-04-11T11:38:52Z</time></trkpt><trkpt lat="43.392777194752" lon="12.697766543593719"><ele>920.0</ele><time>2026-04-11T11:38:53.001Z</time></trkpt><trkpt lat="43.39280585245869" lon="12.69798868180304"><ele>920.0</ele><time>2026-04-11T11:38:54.001Z</time></trkpt><trkpt lat="43.392840127007524" lon="12.698211285073047"><ele>920.0</ele><time>2026-04-11T11:38:55.001Z</time></trkpt><trkpt lat="43.392874138995" lon="12.69842204546258"><ele>916.0</ele><time>2026-04-11T11:38:56.001Z</time></trkpt><trkpt lat="43.39290741847661" lon="12.698628615582212"><ele>912.0</ele><time>2026-04-11T11:38:57.001Z</time></trkpt><trkpt lat="43.39294730790456" lon="12.698839203268452"><ele>908.0</ele><time>2026-04-11T11:38:58.001Z</time></trkpt><trkpt lat="43.39299186281941" lon="12.699051833933842"><ele>914.3333333333334</ele><time>2026-04-11T11:38:59.001Z</time></trkpt><trkpt lat="43.39304474942084" lon="12.699265774489556"><ele>920.6666666666667</ele><time>2026-04-11T11:39:00.001Z</time></trkpt><trkpt lat="43.39309480576895" lon="12.699472212585066"><ele>927.0</ele><time>2026-04-11T11:39:01.001Z</time></trkpt><trkpt lat="43.3931435789384" lon="12.699676429478455"><ele>929.6666666666667</ele><time>2026-04-11T11:39:02.001Z</time></trkpt><trkpt lat="43.39319755724824" lon="12.699873029551336"><ele>932.3333333333334</ele><time>2026-04-11T11:39:03.001Z</time></trkpt><trkpt lat="43.393255270206915" lon="12.70008078902054"><ele>935.0</ele><time>2026-04-11T11:39:04.001Z</time></trkpt><trkpt lat="43.39330510918565" lon="12.700292100473902"><ele>937.0</ele><time>2026-04-11T11:39:05.001Z</time></trkpt><trkpt lat="43.39334521242963" lon="12.700503379012163"><ele>939.0</ele><time>2026-04-11T11:39:06.001Z</time></trkpt><trkpt lat="43.3933732816888" lon="12.700705602736356"><ele>941.0</ele><time>2026-04-11T11:39:07.001Z</time></trkpt><trkpt lat="43.393395531094555" lon="12.700901276079351"><ele>944.0</ele><time>2026-04-11T11:39:08.001Z</time></trkpt><trkpt lat="43.39340484411863" lon="12.701096145021493"><ele>947.0</ele><time>2026-04-11T11:39:09.001Z</time></trkpt><trkpt lat="43.39337993469049" lon="12.701291070341322"><ele>950.0</ele><time>2026-04-11T11:39:10.001Z</time></trkpt><trkpt lat="43.39336697372227" lon="12.701491078907303"><ele>953.0</ele><time>2026-04-11T11:39:11.001Z</time></trkpt><trkpt lat="43.393376892734764" lon="12.701670345408457"><ele>953.0</ele><time>2026-04-11T11:39:12.001Z</time></trkpt><trkpt lat="43.393374348405175" lon="12.701854474784167"><ele>953.0</ele><time>2026-04-11T11:39:13.001Z</time></trkpt><trkpt lat="43.39337385392442" lon="12.702047747926937"><ele>953.0</ele><time>2026-04-11T11:39:14.001Z</time></trkpt><trkpt lat="43.39339617484253" lon="12.702258833699338"><ele>953.0</ele><time>2026-04-11T11:39:15.001Z</time></trkpt><trkpt lat="43.3934271852211" lon="12.70247175016737"><ele>956.25</ele><time>2026-04-11T11:39:16.001Z</time></trkpt><trkpt lat="43.39345323379565" lon="12.70268290358707"><ele>959.5</ele><time>2026-04-11T11:39:17.001Z</time></trkpt><trkpt lat="43.39347775782123" lon="12.70286796256983"><ele>962.75</ele><time>2026-04-11T11:39:18.001Z</time></trkpt><trkpt lat="43.39348117701429" lon="12.70304964427698"><ele>966.0</ele><time>2026-04-11T11:39:19.001Z</time></trkpt><trkpt lat="43.3934737585588" lon="12.70323124537542"><ele>969.5</ele><time>2026-04-11T11:39:20.001Z</time></trkpt><trkpt lat="43.39344936270055" lon="12.703408273506614"><ele>973.0</ele><time>2026-04-11T11:39:21.001Z</time></trkpt><trkpt lat="43.393391577990904" lon="12.703590065993348"><ele>976.5</ele><time>2026-04-11T11:39:22.001Z</time></trkpt><trkpt lat="43.39332655007249" lon="12.703739602524108"><ele>980.0</ele><time>2026-04-11T11:39:23.001Z</time></trkpt><trkpt lat="43.39323849061731" lon="12.703919993405204"><ele>985.3333333333334</ele><time>2026-04-11T11:39:24.001Z</time></trkpt><trkpt lat="43.393145152681164" lon="12.704082781027502"><ele>990.6666666666667</ele><time>2026-04-11T11:39:25.001Z</time></trkpt><trkpt lat="43.39304067485257" lon="12.704274828689774"><ele>996.0</ele><time>2026-04-11T11:39:26.001Z</time></trkpt><trkpt lat="43.39293735106677" lon="12.7044474874216"><ele>996.0</ele><time>2026-04-11T11:39:27.001Z</time></trkpt><trkpt lat="43.39282762334587" lon="12.704601715495222"><ele>996.0</ele><time>2026-04-11T11:39:28.001Z</time></trkpt><trkpt lat="43.392681334200375" lon="12.70475074421346"><ele>996.0</ele><time>2026-04-11T11:39:29Z</time></trkpt><trkpt lat="43.39255613408591" lon="12.704934433221863"><ele>996.0</ele><time>2026-04-11T11:39:30Z</time></trkpt><trkpt lat="43.3924197464567" lon="12.705104982067395"><ele>996.0</ele><time>2026-04-11T11:39:31Z</time></trkpt><trkpt lat="43.392268734608535" lon="12.705285239220144"><ele>996.0</ele><time>2026-04-11T11:39:32Z</time></trkpt><trkpt lat="43.39210027165797" lon="12.705457565020428"><ele>999.3333333333333</ele><time>2026-04-11T11:39:33Z</time></trkpt><trkpt lat="43.39192346806748" lon="12.705616611966766"><ele>1002.6666666666666</ele><time>2026-04-11T11:39:34Z</time></trkpt><trkpt lat="43.391765091501625" lon="12.70575088692676"><ele>1006.0</ele><time>2026-04-11T11:39:35Z</time></trkpt><trkpt lat="43.391633743945235" lon="12.705862577813763"><ele>1006.0</ele><time>2026-04-11T11:39:36Z</time></trkpt><trkpt lat="43.39150615985194" lon="12.70599702235192"><ele>1006.0</ele><time>2026-04-11T11:39:37Z</time></trkpt><trkpt lat="43.39134638097511" lon="12.706130182796455"><ele>1006.0</ele><time>2026-04-11T11:39:38Z</time></trkpt><trkpt lat="43.39118170844836" lon="12.706303126670832"><ele>1009.6666666666666</ele><time>2026-04-11T11:39:39Z</time></trkpt><trkpt lat="43.39100935400841" lon="12.706498588570906"><ele>1013.3333333333333</ele><time>2026-04-11T11:39:40Z</time></trkpt><trkpt lat="43.39085570605852" lon="12.70667627208294"><ele>1017.0</ele><time>2026-04-11T11:39:41Z</time></trkpt><trkpt lat="43.39071238419732" lon="12.706834201085218"><ele>1020.3333333333333</ele><time>2026-04-11T11:39:42Z</time></trkpt><trkpt lat="43.39058118375603" lon="12.70696809354221"><ele>1023.6666666666666</ele><time>2026-04-11T11:39:43Z</time></trkpt><trkpt lat="43.390451949538296" lon="12.707098271471914"><ele>1027.0</ele><time>2026-04-11T11:39:44Z</time></trkpt><trkpt lat="43.390352337470254" lon="12.707204964724019"><ele>1027.0</ele><time>2026-04-11T11:39:45Z</time></trkpt><trkpt lat="43.39023327165416" lon="12.707338936978783"><ele>1027.0</ele><time>2026-04-11T11:39:46Z</time></trkpt><trkpt lat="43.39011833250444" lon="12.707465310320375"><ele>1027.0</ele><time>2026-04-11T11:39:47Z</time></trkpt><trkpt lat="43.3900114182717" lon="12.707576766118184"><ele>1027.0</ele><time>2026-04-11T11:39:48Z</time></trkpt><trkpt lat="43.3898967742106" lon="12.70768848432247"><ele>1028.3333333333333</ele><time>2026-04-11T11:39:49Z</time></trkpt><trkpt lat="43.38977295934749" lon="12.707803222197862"><ele>1029.6666666666667</ele><time>2026-04-11T11:39:50Z</time></trkpt><trkpt lat="43.38964598493655" lon="12.707907264509307"><ele>1031.0</ele><time>2026-04-11T11:39:51Z</time></trkpt><trkpt lat="43.38950935643081" lon="12.70801318775216"><ele>1031.0</ele><time>2026-04-11T11:39:52Z</time></trkpt><trkpt lat="43.38936527815758" lon="12.708127109920492"><ele>1031.0</ele><time>2026-04-11T11:39:53Z</time></trkpt><trkpt lat="43.38923566466525" lon="12.708234016937059"><ele>1031.0</ele><time>2026-04-11T11:39:54Z</time></trkpt><trkpt lat="43.38911923792641" lon="12.708328789811707"><ele>1031.0</ele><time>2026-04-11T11:39:55Z</time></trkpt><trkpt lat="43.389006372687184" lon="12.708420749365102"><ele>1031.0</ele><time>2026-04-11T11:39:56Z</time></trkpt><trkpt lat="43.38889827836001" lon="12.70850098981381"><ele>1031.0</ele><time>2026-04-11T11:39:57Z</time></trkpt><trkpt lat="43.388785671070316" lon="12.708586228380316"><ele>1031.0</ele><time>2026-04-11T11:39:58Z</time></trkpt><trkpt lat="43.388676152105674" lon="12.70868497464352"><ele>1031.5</ele><time>2026-04-11T11:39:59Z</time></trkpt><trkpt lat="43.38857226945285" lon="12.708813078179197"><ele>1032.0</ele><time>2026-04-11T11:40:00Z</time></trkpt><trkpt lat="43.38848721100126" lon="12.708965914557968"><ele>1032.5</ele><time>2026-04-11T11:40:01Z</time></trkpt><trkpt lat="43.38839140896341" lon="12.709120537223066"><ele>1033.0</ele><time>2026-04-11T11:40:02Z</time></trkpt><trkpt lat="43.38828540687001" lon="12.709253165114497"><ele>1033.0</ele><time>2026-04-11T11:40:03Z</time></trkpt><trkpt lat="43.38818357697165" lon="12.709368705744021"><ele>1033.0</ele><time>2026-04-11T11:40:04Z</time></trkpt><trkpt lat="43.388071642949654" lon="12.709471429921381"><ele>1033.0</ele><time>2026-04-11T11:40:05Z</time></trkpt><trkpt lat="43.38795790950505" lon="12.709584903453669"><ele>1033.0</ele><time>2026-04-11T11:40:06Z</time></trkpt><trkpt lat="43.38784538242462" lon="12.709716356229135"><ele>1033.0</ele><time>2026-04-11T11:40:07Z</time></trkpt><trkpt lat="43.387733965283275" lon="12.709867071074301"><ele>1033.0</ele><time>2026-04-11T11:40:08Z</time></trkpt><trkpt lat="43.38762779265636" lon="12.710046351014077"><ele>1033.0</ele><time>2026-04-11T11:40:09Z</time></trkpt><trkpt lat="43.38750905459018" lon="12.710254324246858"><ele>1033.0</ele><time>2026-04-11T11:40:10Z</time></trkpt><trkpt lat="43.38737737443969" lon="12.710475144337137"><ele>1033.0</ele><time>2026-04-11T11:40:11Z</time></trkpt><trkpt lat="43.38724499070037" lon="12.710697570611687"><ele>1033.0</ele><time>2026-04-11T11:40:12Z</time></trkpt><trkpt lat="43.38712384312393" lon="12.710906781589342"><ele>1037.3333333333333</ele><time>2026-04-11T11:40:13Z</time></trkpt><trkpt lat="43.38700865200608" lon="12.711104226771218"><ele>1041.6666666666667</ele><time>2026-04-11T11:40:14Z</time></trkpt><trkpt lat="43.38688826417791" lon="12.711302954933346"><ele>1046.0</ele><time>2026-04-11T11:40:15Z</time></trkpt><trkpt lat="43.38677526711019" lon="12.711486589671656"><ele>1046.0</ele><time>2026-04-11T11:40:16Z</time></trkpt><trkpt lat="43.38666261958467" lon="12.711668267492724"><ele>1046.0</ele><time>2026-04-11T11:40:17Z</time></trkpt><trkpt lat="43.386549592036985" lon="12.711845670357334"><ele>1046.0</ele><time>2026-04-11T11:40:18Z</time></trkpt><trkpt lat="43.38643291682295" lon="12.712027487408358"><ele>1050.3333333333335</ele><time>2026-04-11T11:40:19Z</time></trkpt><trkpt lat="43.386321386056835" lon="12.712205565959167"><ele>1054.6666666666667</ele><time>2026-04-11T11:40:20Z</time></trkpt><trkpt lat="43.386222189433084" lon="12.712356657986323"><ele>1059.0</ele><time>2026-04-11T11:40:21Z</time></trkpt><trkpt lat="43.386119011429265" lon="12.712504941337281"><ele>1059.0</ele><time>2026-04-11T11:40:22Z</time></trkpt><trkpt lat="43.3860040167667" lon="12.712655183110401"><ele>1059.0</ele><time>2026-04-11T11:40:23Z</time></trkpt><trkpt lat="43.38588360836736" lon="12.712770149508291"><ele>1059.0</ele><time>2026-04-11T11:40:24Z</time></trkpt><trkpt lat="43.385753269549674" lon="12.712870227111907"><ele>1060.0</ele><time>2026-04-11T11:40:25Z</time></trkpt><trkpt lat="43.38562080765305" lon="12.712964608658133"><ele>1061.0</ele><time>2026-04-11T11:40:26Z</time></trkpt><trkpt lat="43.385484262592264" lon="12.713059810373208"><ele>1062.0</ele><time>2026-04-11T11:40:27Z</time></trkpt><trkpt lat="43.38535743460223" lon="12.713142181749465"><ele>1063.0</ele><time>2026-04-11T11:40:28Z</time></trkpt><trkpt lat="43.385246347896846" lon="12.713209479472285"><ele>1064.75</ele><time>2026-04-11T11:40:29Z</time></trkpt><trkpt lat="43.38512687020561" lon="12.713276616231578"><ele>1066.5</ele><time>2026-04-11T11:40:30Z</time></trkpt><trkpt lat="43.38500729132085" lon="12.71333981885648"><ele>1068.25</ele><time>2026-04-11T11:40:31Z</time></trkpt><trkpt lat="43.384880931551805" lon="12.713406605248096"><ele>1070.0</ele><time>2026-04-11T11:40:32Z</time></trkpt><trkpt lat="43.3847520311912" lon="12.713476306135082"><ele>1068.0</ele><time>2026-04-11T11:40:33Z</time></trkpt><trkpt lat="43.38462889377976" lon="12.713547816223489"><ele>1066.0</ele><time>2026-04-11T11:40:34Z</time></trkpt><trkpt lat="43.38451681376607" lon="12.713651080588978"><ele>1064.0</ele><time>2026-04-11T11:40:35Z</time></trkpt><trkpt lat="43.38439048882008" lon="12.713754954668453"><ele>1062.0</ele><time>2026-04-11T11:40:36Z</time></trkpt><trkpt lat="43.38426018005647" lon="12.713868166284222"><ele>1063.25</ele><time>2026-04-11T11:40:37Z</time></trkpt><trkpt lat="43.38412002082725" lon="12.71396806588005"><ele>1064.5</ele><time>2026-04-11T11:40:38Z</time></trkpt><trkpt lat="43.38400157354091" lon="12.71407129857521"><ele>1065.75</ele><time>2026-04-11T11:40:39Z</time></trkpt><trkpt lat="43.38388434764186" lon="12.714179527906975"><ele>1067.0</ele><time>2026-04-11T11:40:40Z</time></trkpt><trkpt lat="43.38377234007758" lon="12.714305052409664"><ele>1075.3333333333335</ele><time>2026-04-11T11:40:41Z</time></trkpt><trkpt lat="43.383679492213965" lon="12.71446906778583"><ele>1083.6666666666667</ele><time>2026-04-11T11:40:42Z</time></trkpt><trkpt lat="43.383562709146375" lon="12.71462295834587"><ele>1092.0</ele><time>2026-04-11T11:40:43Z</time></trkpt><trkpt lat="43.38346106767339" lon="12.71477933144781"><ele>1092.0</ele><time>2026-04-11T11:40:44Z</time></trkpt><trkpt lat="43.38335057582205" lon="12.714928857265653"><ele>1092.0</ele><time>2026-04-11T11:40:45Z</time></trkpt><trkpt lat="43.38322986922213" lon="12.715037856278608"><ele>1092.0</ele><time>2026-04-11T11:40:46Z</time></trkpt><trkpt lat="43.3831083902687" lon="12.715151405406786"><ele>1092.0</ele><time>2026-04-11T11:40:47Z</time></trkpt><trkpt lat="43.38298948250158" lon="12.715271274077715"><ele>1095.6666666666667</ele><time>2026-04-11T11:40:48Z</time></trkpt><trkpt lat="43.38285320440299" lon="12.715378710422696"><ele>1099.3333333333335</ele><time>2026-04-11T11:40:49Z</time></trkpt><trkpt lat="43.382716119428814" lon="12.71548923544464"><ele>1103.0</ele><time>2026-04-11T11:40:50Z</time></trkpt><trkpt lat="43.38257874533923" lon="12.715598029290467"><ele>1103.0</ele><time>2026-04-11T11:40:51.001Z</time></trkpt><trkpt lat="43.38245449237599" lon="12.715695203720474"><ele>1103.0</ele><time>2026-04-11T11:40:52.001Z</time></trkpt><trkpt lat="43.382338959070715" lon="12.715786671183878"><ele>1103.0</ele><time>2026-04-11T11:40:53.001Z</time></trkpt><trkpt lat="43.3822210623636" lon="12.715883345422576"><ele>1103.0</ele><time>2026-04-11T11:40:54.001Z</time></trkpt><trkpt lat="43.382098475906744" lon="12.71597766122423"><ele>1106.0</ele><time>2026-04-11T11:40:55.001Z</time></trkpt><trkpt lat="43.38197499562036" lon="12.716079713446108"><ele>1109.0</ele><time>2026-04-11T11:40:56.001Z</time></trkpt><trkpt lat="43.381836711318705" lon="12.716183789058354"><ele>1112.0</ele><time>2026-04-11T11:40:57.001Z</time></trkpt><trkpt lat="43.381709802442806" lon="12.716301183306339"><ele>1112.0</ele><time>2026-04-11T11:40:58.001Z</time></trkpt><trkpt lat="43.381597218758486" lon="12.716421233041851"><ele>1112.0</ele><time>2026-04-11T11:40:59.001Z</time></trkpt><trkpt lat="43.381502489158265" lon="12.71654323026997"><ele>1112.0</ele><time>2026-04-11T11:41:00.001Z</time></trkpt><trkpt lat="43.38141405529029" lon="12.71668065519706"><ele>1112.0</ele><time>2026-04-11T11:41:01.001Z</time></trkpt><trkpt lat="43.381338051762945" lon="12.716830326400089"><ele>1111.75</ele><time>2026-04-11T11:41:02.001Z</time></trkpt><trkpt lat="43.38127583046299" lon="12.716993531218447"><ele>1111.5</ele><time>2026-04-11T11:41:03.001Z</time></trkpt><trkpt lat="43.38119223385952" lon="12.717157142853516"><ele>1111.25</ele><time>2026-04-11T11:41:04.001Z</time></trkpt><trkpt lat="43.38111637786965" lon="12.71732936153469"><ele>1111.0</ele><time>2026-04-11T11:41:05.001Z</time></trkpt><trkpt lat="43.381030148951545" lon="12.71751246831597"><ele>1111.0</ele><time>2026-04-11T11:41:06.001Z</time></trkpt><trkpt lat="43.380940364949176" lon="12.717702389310894"><ele>1111.0</ele><time>2026-04-11T11:41:07.001Z</time></trkpt><trkpt lat="43.38087338386305" lon="12.717875945074088"><ele>1111.0</ele><time>2026-04-11T11:41:08.001Z</time></trkpt><trkpt lat="43.380820117058" lon="12.718036566951348"><ele>1111.0</ele><time>2026-04-11T11:41:09.001Z</time></trkpt><trkpt lat="43.38077712031399" lon="12.718168729274877"><ele>1115.0</ele><time>2026-04-11T11:41:10.001Z</time></trkpt><trkpt lat="43.38073526221414" lon="12.718288317935334"><ele>1119.0</ele><time>2026-04-11T11:41:11.001Z</time></trkpt><trkpt lat="43.38068257016489" lon="12.71838476036376"><ele>1123.0</ele><time>2026-04-11T11:41:12.001Z</time></trkpt><trkpt lat="43.38061225759267" lon="12.7184634177386"><ele>1127.0</ele><time>2026-04-11T11:41:13.001Z</time></trkpt><trkpt lat="43.38052143953399" lon="12.718538558520471"><ele>1131.0</ele><time>2026-04-11T11:41:14.001Z</time></trkpt><trkpt lat="43.38039104587009" lon="12.718628421626082"><ele>1133.75</ele><time>2026-04-11T11:41:15.001Z</time></trkpt><trkpt lat="43.38025020762492" lon="12.71871535382238"><ele>1136.5</ele><time>2026-04-11T11:41:16.001Z</time></trkpt><trkpt lat="43.38010621342051" lon="12.718773955494083"><ele>1139.25</ele><time>2026-04-11T11:41:17.001Z</time></trkpt><trkpt lat="43.379982771441114" lon="12.718858642876011"><ele>1142.0</ele><time>2026-04-11T11:41:18.001Z</time></trkpt><trkpt lat="43.37985539986189" lon="12.7188867641702"><ele>1142.0</ele><time>2026-04-11T11:41:19.001Z</time></trkpt><trkpt lat="43.37972745928529" lon="12.71894702345741"><ele>1142.0</ele><time>2026-04-11T11:41:20.001Z</time></trkpt><trkpt lat="43.37959303171543" lon="12.718998164423486"><ele>1142.0</ele><time>2026-04-11T11:41:21.001Z</time></trkpt><trkpt lat="43.37946626659467" lon="12.719040579383556"><ele>1142.0</ele><time>2026-04-11T11:41:22.001Z</time></trkpt><trkpt lat="43.379335811625346" lon="12.719086349662527"><ele>1140.75</ele><time>2026-04-11T11:41:23.001Z</time></trkpt><trkpt lat="43.379206164039665" lon="12.7191338908498"><ele>1139.5</ele><time>2026-04-11T11:41:24.001Z</time></trkpt><trkpt lat="43.37907457287684" lon="12.71918219283125"><ele>1138.25</ele><time>2026-04-11T11:41:25.001Z</time></trkpt><trkpt lat="43.37895333033313" lon="12.719223400895851"><ele>1137.0</ele><time>2026-04-11T11:41:26.001Z</time></trkpt><trkpt lat="43.37883017505438" lon="12.719271079213229"><ele>1136.75</ele><time>2026-04-11T11:41:27.001Z</time></trkpt><trkpt lat="43.37870362301712" lon="12.719318366331388"><ele>1136.5</ele><time>2026-04-11T11:41:28.001Z</time></trkpt><trkpt lat="43.378574561880185" lon="12.719366694456637"><ele>1136.25</ele><time>2026-04-11T11:41:29.001Z</time></trkpt><trkpt lat="43.37845551108548" lon="12.719417701192487"><ele>1136.0</ele><time>2026-04-11T11:41:30.001Z</time></trkpt><trkpt lat="43.378338470972885" lon="12.719466913062513"><ele>1142.0</ele><time>2026-04-11T11:41:31.001Z</time></trkpt><trkpt lat="43.37822194815845" lon="12.719517489554818"><ele>1148.0</ele><time>2026-04-11T11:41:32.001Z</time></trkpt><trkpt lat="43.37811019311049" lon="12.719569195246876"><ele>1154.0</ele><time>2026-04-11T11:41:33.001Z</time></trkpt><trkpt lat="43.3780009768816" lon="12.719617408270775"><ele>1160.0</ele><time>2026-04-11T11:41:34.001Z</time></trkpt><trkpt lat="43.37789109754215" lon="12.71965910164342"><ele>1160.25</ele><time>2026-04-11T11:41:35Z</time></trkpt><trkpt lat="43.377780032991744" lon="12.719705485322336"><ele>1160.5</ele><time>2026-04-11T11:41:36Z</time></trkpt><trkpt lat="43.37766746797884" lon="12.719744150056542"><ele>1160.75</ele><time>2026-04-11T11:41:37Z</time></trkpt><trkpt lat="43.377552589522935" lon="12.719787714341644"><ele>1161.0</ele><time>2026-04-11T11:41:38Z</time></trkpt><trkpt lat="43.37743674774331" lon="12.719828521851884"><ele>1161.0</ele><time>2026-04-11T11:41:39Z</time></trkpt><trkpt lat="43.377331216214984" lon="12.719852640896404"><ele>1161.0</ele><time>2026-04-11T11:41:40Z</time></trkpt><trkpt lat="43.377239183259015" lon="12.71987675556919"><ele>1161.0</ele><time>2026-04-11T11:41:41Z</time></trkpt><trkpt lat="43.377166988339994" lon="12.719889639327132"><ele>1161.0</ele><time>2026-04-11T11:41:42Z</time></trkpt><trkpt lat="43.377088907305236" lon="12.719909068383643"><ele>1161.0</ele><time>2026-04-11T11:41:44Z</time></trkpt><trkpt lat="43.37701025880892" lon="12.719934703422355"><ele>1161.0</ele><time>2026-04-11T11:41:47Z</time></trkpt><trkpt lat="43.376935532718896" lon="12.719948549168947"><ele>1160.1666666666667</ele><time>2026-04-11T11:41:55Z</time></trkpt><trkpt lat="43.37684708470227" lon="12.71997897579466"><ele>1159.3333333333333</ele><time>2026-04-11T11:41:58Z</time></trkpt><trkpt lat="43.376784670432066" lon="12.720010267094416"><ele>1158.5</ele><time>2026-04-11T11:42:01Z</time></trkpt><trkpt lat="43.376712280439975" lon="12.720048819691044"><ele>1157.6666666666665</ele><time>2026-04-11T11:42:05Z</time></trkpt><trkpt lat="43.37664777385525" lon="12.720089877445954"><ele>1156.8333333333333</ele><time>2026-04-11T11:42:07Z</time></trkpt><trkpt lat="43.376571832668276" lon="12.720133238073501"><ele>1156.0</ele><time>2026-04-11T11:42:09Z</time></trkpt><trkpt lat="43.376472475895795" lon="12.720184854519033"><ele>1156.0</ele><time>2026-04-11T11:42:11Z</time></trkpt><trkpt lat="43.37640695249862" lon="12.720218805326281"><ele>1156.0</ele><time>2026-04-11T11:42:12Z</time></trkpt><trkpt lat="43.37633203878631" lon="12.720254470561741"><ele>1156.0</ele><time>2026-04-11T11:42:13Z</time></trkpt><trkpt lat="43.37623570610536" lon="12.720298181126337"><ele>1156.0</ele><time>2026-04-11T11:42:14Z</time></trkpt><trkpt lat="43.37611781850767" lon="12.720326139347533"><ele>1156.0</ele><time>2026-04-11T11:42:15Z</time></trkpt><trkpt lat="43.37599823863013" lon="12.720370830194748"><ele>1159.75</ele><time>2026-04-11T11:42:16Z</time></trkpt><trkpt lat="43.37586852503993" lon="12.720402738457466"><ele>1163.5</ele><time>2026-04-11T11:42:17Z</time></trkpt><trkpt lat="43.375734839655806" lon="12.720428650113702"><ele>1167.25</ele><time>2026-04-11T11:42:18Z</time></trkpt><trkpt lat="43.37560029696432" lon="12.720457100165662"><ele>1171.0</ele><time>2026-04-11T11:42:19Z</time></trkpt><trkpt lat="43.375477950205976" lon="12.720484039656412"><ele>1171.0</ele><time>2026-04-11T11:42:20Z</time></trkpt><trkpt lat="43.375362176365385" lon="12.720507945995239"><ele>1171.0</ele><time>2026-04-11T11:42:21Z</time></trkpt><trkpt lat="43.37524759493371" lon="12.720531736498053"><ele>1171.0</ele><time>2026-04-11T11:42:22Z</time></trkpt><trkpt lat="43.37513502199692" lon="12.720560649058022"><ele>1171.0</ele><time>2026-04-11T11:42:23Z</time></trkpt><trkpt lat="43.37503274095053" lon="12.720588991973047"><ele>1171.0</ele><time>2026-04-11T11:42:24Z</time></trkpt><trkpt lat="43.37493701999283" lon="12.720620171301071"><ele>1171.0</ele><time>2026-04-11T11:42:25Z</time></trkpt><trkpt lat="43.374840131499624" lon="12.720657124829597"><ele>1171.0</ele><time>2026-04-11T11:42:26Z</time></trkpt><trkpt lat="43.37472073690932" lon="12.720704078025838"><ele>1171.0</ele><time>2026-04-11T11:42:27Z</time></trkpt><trkpt lat="43.37459254131549" lon="12.72075450211823"><ele>1169.5</ele><time>2026-04-11T11:42:28Z</time></trkpt><trkpt lat="43.374449995962934" lon="12.720813172868661"><ele>1168.0</ele><time>2026-04-11T11:42:29Z</time></trkpt><trkpt lat="43.37432104036908" lon="12.720862760638447"><ele>1166.5</ele><time>2026-04-11T11:42:30Z</time></trkpt><trkpt lat="43.374210060614146" lon="12.720903164190986"><ele>1165.0</ele><time>2026-04-11T11:42:31Z</time></trkpt><trkpt lat="43.37411247164378" lon="12.720934187682072"><ele>1165.0</ele><time>2026-04-11T11:42:32Z</time></trkpt><trkpt lat="43.37401994077644" lon="12.720966288692596"><ele>1165.0</ele><time>2026-04-11T11:42:33Z</time></trkpt><trkpt lat="43.37393660852549" lon="12.720996105005492"><ele>1165.0</ele><time>2026-04-11T11:42:34Z</time></trkpt><trkpt lat="43.37385944445605" lon="12.72104539606286"><ele>1165.0</ele><time>2026-04-11T11:42:35Z</time></trkpt><trkpt lat="43.37379004883062" lon="12.721100583478634"><ele>1165.0</ele><time>2026-04-11T11:42:36Z</time></trkpt><trkpt lat="43.37373095923196" lon="12.721166645419551"><ele>1165.0</ele><time>2026-04-11T11:42:37Z</time></trkpt><trkpt lat="43.373677511272035" lon="12.721241533209357"><ele>1164.0</ele><time>2026-04-11T11:42:38Z</time></trkpt><trkpt lat="43.37363732561971" lon="12.721334440474243"><ele>1163.0</ele><time>2026-04-11T11:42:39Z</time></trkpt><trkpt lat="43.37360713136259" lon="12.721418134902523"><ele>1162.0</ele><time>2026-04-11T11:42:40Z</time></trkpt><trkpt lat="43.37358528538435" lon="12.721527547579392"><ele>1161.0</ele><time>2026-04-11T11:42:41Z</time></trkpt><trkpt lat="43.373570922392716" lon="12.72165031999365"><ele>1160.0</ele><time>2026-04-11T11:42:42Z</time></trkpt><trkpt lat="43.37357020227312" lon="12.721784777917742"><ele>1159.0</ele><time>2026-04-11T11:42:43Z</time></trkpt><trkpt lat="43.37358236381438" lon="12.721934707605444"><ele>1157.25</ele><time>2026-04-11T11:42:44Z</time></trkpt><trkpt lat="43.37360956399114" lon="12.7221163155826"><ele>1155.5</ele><time>2026-04-11T11:42:45Z</time></trkpt><trkpt lat="43.373638398173334" lon="12.722295960524699"><ele>1153.75</ele><time>2026-04-11T11:42:46Z</time></trkpt><trkpt lat="43.37367153011871" lon="12.722464393290522"><ele>1152.0</ele><time>2026-04-11T11:42:47Z</time></trkpt><trkpt lat="43.3737019644183" lon="12.722624807890952"><ele>1151.2</ele><time>2026-04-11T11:42:48Z</time></trkpt><trkpt lat="43.373735144130535" lon="12.722769688880968"><ele>1150.4</ele><time>2026-04-11T11:42:49Z</time></trkpt><trkpt lat="43.37376509680676" lon="12.72291107652382"><ele>1149.6</ele><time>2026-04-11T11:42:50Z</time></trkpt><trkpt lat="43.3737882630031" lon="12.7230607652288"><ele>1148.8</ele><time>2026-04-11T11:42:51Z</time></trkpt><trkpt lat="43.37380185107943" lon="12.723222356762387"><ele>1148.0</ele><time>2026-04-11T11:42:52Z</time></trkpt><trkpt lat="43.37384443475251" lon="12.723383941159895"><ele>1158.5</ele><time>2026-04-11T11:42:53Z</time></trkpt><trkpt lat="43.37386505318215" lon="12.723552658735494"><ele>1169.0</ele><time>2026-04-11T11:42:54Z</time></trkpt><trkpt lat="43.373889639563714" lon="12.723728084635777"><ele>1179.5</ele><time>2026-04-11T11:42:55.001Z</time></trkpt><trkpt lat="43.37391579212416" lon="12.723903547143705"><ele>1190.0</ele><time>2026-04-11T11:42:56.001Z</time></trkpt><trkpt lat="43.373940532399025" lon="12.724085005989748"><ele>1190.0</ele><time>2026-04-11T11:42:57.001Z</time></trkpt><trkpt lat="43.37394510062338" lon="12.724272161660474"><ele>1190.0</ele><time>2026-04-11T11:42:58.001Z</time></trkpt><trkpt lat="43.373972565864314" lon="12.724444284887912"><ele>1190.0</ele><time>2026-04-11T11:42:59.001Z</time></trkpt><trkpt lat="43.373982616954486" lon="12.72462688342813"><ele>1190.0</ele><time>2026-04-11T11:43:00.001Z</time></trkpt><trkpt lat="43.37399713676685" lon="12.72479608487922"><ele>1189.0</ele><time>2026-04-11T11:43:01.001Z</time></trkpt><trkpt lat="43.374009057086106" lon="12.72493840703905"><ele>1188.0</ele><time>2026-04-11T11:43:02.001Z</time></trkpt><trkpt lat="43.374021903429984" lon="12.725101812233097"><ele>1187.0</ele><time>2026-04-11T11:43:03.001Z</time></trkpt><trkpt lat="43.37403991203314" lon="12.725234041466722"><ele>1186.0</ele><time>2026-04-11T11:43:04.001Z</time></trkpt><trkpt lat="43.37403937036624" lon="12.725372466286068"><ele>1185.0</ele><time>2026-04-11T11:43:05.001Z</time></trkpt><trkpt lat="43.37406197990605" lon="12.725484728494541"><ele>1184.0</ele><time>2026-04-11T11:43:06.001Z</time></trkpt><trkpt lat="43.3740904847468" lon="12.725570710299024"><ele>1183.0</ele><time>2026-04-11T11:43:07.001Z</time></trkpt><trkpt lat="43.374118722638016" lon="12.725648715855446"><ele>1182.0</ele><time>2026-04-11T11:43:08.001Z</time></trkpt><trkpt lat="43.37414475395859" lon="12.725740401038275"><ele>1181.0</ele><time>2026-04-11T11:43:09.001Z</time></trkpt><trkpt lat="43.37420591709286" lon="12.725870108066536"><ele>1180.0</ele><time>2026-04-11T11:43:11.001Z</time></trkpt><trkpt lat="43.37422823365663" lon="12.725995136793584"><ele>1179.0</ele><time>2026-04-11T11:43:13.001Z</time></trkpt><trkpt lat="43.374285881700935" lon="12.726067886397832"><ele>1176.75</ele><time>2026-04-11T11:43:16.001Z</time></trkpt><trkpt lat="43.3743532370604" lon="12.726123164415357"><ele>1174.5</ele><time>2026-04-11T11:43:20.001Z</time></trkpt><trkpt lat="43.374404926456194" lon="12.72618527259183"><ele>1172.25</ele><time>2026-04-11T11:43:24.001Z</time></trkpt><trkpt lat="43.37418843753545" lon="12.726424178209486"><ele>1170.0</ele><time>2026-04-11T11:44:10Z</time></trkpt><trkpt lat="43.37412327333351" lon="12.726461176689224"><ele>1170.0</ele><time>2026-04-11T11:44:17Z</time></trkpt><trkpt lat="43.37418041958114" lon="12.726407710256705"><ele>1170.0</ele><time>2026-04-11T11:44:43Z</time></trkpt><trkpt lat="43.3742428140486" lon="12.726379741591497"><ele>1170.0</ele><time>2026-04-11T11:44:49Z</time></trkpt><trkpt lat="43.37431755689485" lon="12.726404687921145"><ele>1170.0</ele><time>2026-04-11T11:51:08Z</time></trkpt><trkpt lat="43.374383810676086" lon="12.72637991547131"><ele>1170.0</ele><time>2026-04-11T11:51:13Z</time></trkpt><trkpt lat="43.3744917902556" lon="12.726377279273423"><ele>1170.0</ele><time>2026-04-11T11:51:16Z</time></trkpt><trkpt lat="43.37460791996423" lon="12.726375846810669"><ele>1170.6666666666667</ele><time>2026-04-11T11:51:18Z</time></trkpt><trkpt lat="43.37469627234282" lon="12.726375147296052"><ele>1171.3333333333333</ele><time>2026-04-11T11:51:20Z</time></trkpt><trkpt lat="43.374797380455725" lon="12.72638749632065"><ele>1172.0</ele><time>2026-04-11T11:51:22Z</time></trkpt><trkpt lat="43.374913822921755" lon="12.726400532929885"><ele>1172.6666666666665</ele><time>2026-04-11T11:51:24.001Z</time></trkpt><trkpt lat="43.37497761638968" lon="12.7264169232103"><ele>1173.3333333333333</ele><time>2026-04-11T11:51:25.001Z</time></trkpt><trkpt lat="43.37504081043915" lon="12.726428098352356"><ele>1174.0</ele><time>2026-04-11T11:51:26.001Z</time></trkpt><trkpt lat="43.37510924084711" lon="12.726434713694152"><ele>1174.0</ele><time>2026-04-11T11:51:27.001Z</time></trkpt><trkpt lat="43.37517853509307" lon="12.726442924139057"><ele>1174.0</ele><time>2026-04-11T11:51:28.001Z</time></trkpt><trkpt lat="43.37524811621845" lon="12.726453538128846"><ele>1174.0</ele><time>2026-04-11T11:51:29.001Z</time></trkpt><trkpt lat="43.37532240721006" lon="12.726464459700463"><ele>1174.0</ele><time>2026-04-11T11:51:30.001Z</time></trkpt><trkpt lat="43.375395839403694" lon="12.726471102696419"><ele>1174.0</ele><time>2026-04-11T11:51:31.001Z</time></trkpt><trkpt lat="43.37547210616162" lon="12.726478366546997"><ele>1174.0</ele><time>2026-04-11T11:51:32.001Z</time></trkpt><trkpt lat="43.37555067934263" lon="12.726498412998101"><ele>1174.0</ele><time>2026-04-11T11:51:33.001Z</time></trkpt><trkpt lat="43.37562499773781" lon="12.726508370418182"><ele>1173.8333333333333</ele><time>2026-04-11T11:51:34.001Z</time></trkpt><trkpt lat="43.37570357725728" lon="12.726519935137429"><ele>1173.6666666666665</ele><time>2026-04-11T11:51:35.001Z</time></trkpt><trkpt lat="43.37578847002599" lon="12.726534278872998"><ele>1173.5</ele><time>2026-04-11T11:51:36.001Z</time></trkpt><trkpt lat="43.37587284009457" lon="12.726544316744416"><ele>1173.3333333333333</ele><time>2026-04-11T11:51:37.001Z</time></trkpt><trkpt lat="43.37596395152691" lon="12.72655398135797"><ele>1173.1666666666667</ele><time>2026-04-11T11:51:38.001Z</time></trkpt><trkpt lat="43.3760501531937" lon="12.726576901672303"><ele>1173.0</ele><time>2026-04-11T11:51:39.001Z</time></trkpt><trkpt lat="43.37613886071565" lon="12.726595832279601"><ele>1173.0</ele><time>2026-04-11T11:51:40.001Z</time></trkpt><trkpt lat="43.37622108733107" lon="12.726623880705574"><ele>1173.0</ele><time>2026-04-11T11:51:41.001Z</time></trkpt><trkpt lat="43.376298080507716" lon="12.72667361991378"><ele>1173.0</ele><time>2026-04-11T11:51:42.001Z</time></trkpt><trkpt lat="43.37636354152665" lon="12.726745188480775"><ele>1173.0</ele><time>2026-04-11T11:51:43.001Z</time></trkpt><trkpt lat="43.37643258814885" lon="12.726825108055209"><ele>1173.0</ele><time>2026-04-11T11:51:44.001Z</time></trkpt><trkpt lat="43.37650291554582" lon="12.726925285471717"><ele>1173.0</ele><time>2026-04-11T11:51:45.001Z</time></trkpt><trkpt lat="43.37657415805821" lon="12.727026618424292"><ele>1171.0</ele><time>2026-04-11T11:51:46.001Z</time></trkpt><trkpt lat="43.376640728245995" lon="12.727132971012843"><ele>1169.0</ele><time>2026-04-11T11:51:47.001Z</time></trkpt><trkpt lat="43.37670357929681" lon="12.727234468778649"><ele>1167.0</ele><time>2026-04-11T11:51:48.001Z</time></trkpt><trkpt lat="43.37678937210608" lon="12.727325802655749"><ele>1165.0</ele><time>2026-04-11T11:51:49.001Z</time></trkpt><trkpt lat="43.376872439804984" lon="12.727442964973418"><ele>1163.0</ele><time>2026-04-11T11:51:50.001Z</time></trkpt><trkpt lat="43.37695687271187" lon="12.727566543869276"><ele>1163.0</ele><time>2026-04-11T11:51:51.001Z</time></trkpt><trkpt lat="43.37703727103278" lon="12.727684217471262"><ele>1163.0</ele><time>2026-04-11T11:51:52.001Z</time></trkpt><trkpt lat="43.377117023622525" lon="12.727800945707244"><ele>1163.0</ele><time>2026-04-11T11:51:53.001Z</time></trkpt><trkpt lat="43.37718274697031" lon="12.727925470996556"><ele>1163.0</ele><time>2026-04-11T11:51:54.001Z</time></trkpt><trkpt lat="43.37727540259133" lon="12.72803995679446"><ele>1162.75</ele><time>2026-04-11T11:51:55.001Z</time></trkpt><trkpt lat="43.37735775789877" lon="12.728150014029994"><ele>1162.5</ele><time>2026-04-11T11:51:56.001Z</time></trkpt><trkpt lat="43.377442792967834" lon="12.728259540538195"><ele>1162.25</ele><time>2026-04-11T11:51:57.001Z</time></trkpt><trkpt lat="43.377517220027755" lon="12.728370347614653"><ele>1162.0</ele><time>2026-04-11T11:51:58.001Z</time></trkpt><trkpt lat="43.37758431858991" lon="12.728508500778778"><ele>1158.5</ele><time>2026-04-11T11:51:59.001Z</time></trkpt><trkpt lat="43.377663879973845" lon="12.728644480807755"><ele>1155.0</ele><time>2026-04-11T11:52:00.001Z</time></trkpt><trkpt lat="43.37774503042617" lon="12.728774368435358"><ele>1151.5</ele><time>2026-04-11T11:52:01.001Z</time></trkpt><trkpt lat="43.377830285553216" lon="12.728900901900298"><ele>1148.0</ele><time>2026-04-11T11:52:02.001Z</time></trkpt><trkpt lat="43.37790513648517" lon="12.729021090431571"><ele>1148.0</ele><time>2026-04-11T11:52:03.001Z</time></trkpt><trkpt lat="43.37798559158469" lon="12.729144228735635"><ele>1148.0</ele><time>2026-04-11T11:52:04.001Z</time></trkpt><trkpt lat="43.378062704093416" lon="12.72926350583347"><ele>1148.0</ele><time>2026-04-11T11:52:05Z</time></trkpt><trkpt lat="43.37813622994986" lon="12.729380104362406"><ele>1148.0</ele><time>2026-04-11T11:52:06Z</time></trkpt><trkpt lat="43.378206537891074" lon="12.729494823666155"><ele>1147.6</ele><time>2026-04-11T11:52:07Z</time></trkpt><trkpt lat="43.37827961985924" lon="12.729606108973707"><ele>1147.1999999999998</ele><time>2026-04-11T11:52:08Z</time></trkpt><trkpt lat="43.378354913702175" lon="12.729718682260494"><ele>1146.8</ele><time>2026-04-11T11:52:09Z</time></trkpt><trkpt lat="43.3784180845936" lon="12.729844025509959"><ele>1146.3999999999999</ele><time>2026-04-11T11:52:10Z</time></trkpt><trkpt lat="43.37849852112697" lon="12.729946038619595"><ele>1146.0</ele><time>2026-04-11T11:52:11Z</time></trkpt><trkpt lat="43.378565883862876" lon="12.730062807813812"><ele>1146.0</ele><time>2026-04-11T11:52:12Z</time></trkpt><trkpt lat="43.378634875752994" lon="12.730179298126764"><ele>1146.0</ele><time>2026-04-11T11:52:13Z</time></trkpt><trkpt lat="43.37871043034646" lon="12.73029574215256"><ele>1146.0</ele><time>2026-04-11T11:52:14Z</time></trkpt><trkpt lat="43.37878287454643" lon="12.73041357025423"><ele>1146.0</ele><time>2026-04-11T11:52:15Z</time></trkpt><trkpt lat="43.37885106301032" lon="12.730533439144988"><ele>1146.0</ele><time>2026-04-11T11:52:16Z</time></trkpt><trkpt lat="43.37892264264294" lon="12.730647524767244"><ele>1145.0</ele><time>2026-04-11T11:52:17Z</time></trkpt><trkpt lat="43.378992121276646" lon="12.730760601557856"><ele>1144.0</ele><time>2026-04-11T11:52:18Z</time></trkpt><trkpt lat="43.37905751161086" lon="12.730876906535176"><ele>1143.0</ele><time>2026-04-11T11:52:19Z</time></trkpt><trkpt lat="43.37912187027692" lon="12.73099689902892"><ele>1142.0</ele><time>2026-04-11T11:52:20Z</time></trkpt><trkpt lat="43.37919721155762" lon="12.731114181350964"><ele>1141.0</ele><time>2026-04-11T11:52:21Z</time></trkpt><trkpt lat="43.37926865250379" lon="12.731226675252953"><ele>1140.3999999999999</ele><time>2026-04-11T11:52:22Z</time></trkpt><trkpt lat="43.37933938942686" lon="12.731337309911007"><ele>1139.8</ele><time>2026-04-11T11:52:23Z</time></trkpt><trkpt lat="43.37941192820362" lon="12.731440151072144"><ele>1139.1999999999998</ele><time>2026-04-11T11:52:24Z</time></trkpt><trkpt lat="43.37948623153628" lon="12.731543843145003"><ele>1138.6</ele><time>2026-04-11T11:52:25Z</time></trkpt><trkpt lat="43.37956705835781" lon="12.731641435654296"><ele>1138.0</ele><time>2026-04-11T11:52:26Z</time></trkpt><trkpt lat="43.37965349571967" lon="12.731730585338799"><ele>1136.75</ele><time>2026-04-11T11:52:27Z</time></trkpt><trkpt lat="43.37974459403775" lon="12.73180983053486"><ele>1135.5</ele><time>2026-04-11T11:52:28Z</time></trkpt><trkpt lat="43.37984471341276" lon="12.731881919418942"><ele>1134.25</ele><time>2026-04-11T11:52:29Z</time></trkpt><trkpt lat="43.37995558142162" lon="12.73195371548233"><ele>1133.0</ele><time>2026-04-11T11:52:30Z</time></trkpt><trkpt lat="43.38007107395075" lon="12.732021071183917"><ele>1133.0</ele><time>2026-04-11T11:52:31Z</time></trkpt><trkpt lat="43.38018496371067" lon="12.732099265014693"><ele>1133.0</ele><time>2026-04-11T11:52:32Z</time></trkpt><trkpt lat="43.38030307514979" lon="12.73217667038459"><ele>1133.0</ele><time>2026-04-11T11:52:33Z</time></trkpt><trkpt lat="43.38041651833135" lon="12.73223704160198"><ele>1133.0</ele><time>2026-04-11T11:52:34Z</time></trkpt><trkpt lat="43.380568753210156" lon="12.732305871948395"><ele>1134.0</ele><time>2026-04-11T11:52:35Z</time></trkpt><trkpt lat="43.380687246615985" lon="12.73237080446274"><ele>1135.0</ele><time>2026-04-11T11:52:36Z</time></trkpt><trkpt lat="43.3808003513685" lon="12.732454488454245"><ele>1136.0</ele><time>2026-04-11T11:52:37Z</time></trkpt><trkpt lat="43.380901285216794" lon="12.732564569691979"><ele>1137.0</ele><time>2026-04-11T11:52:38Z</time></trkpt><trkpt lat="43.38100701884606" lon="12.732655814745765"><ele>1135.8333333333333</ele><time>2026-04-11T11:52:39Z</time></trkpt><trkpt lat="43.38110043842283" lon="12.732738482589388"><ele>1134.6666666666667</ele><time>2026-04-11T11:52:40Z</time></trkpt><trkpt lat="43.381151154871134" lon="12.732814972662513"><ele>1133.5</ele><time>2026-04-11T11:52:41.001Z</time></trkpt><trkpt lat="43.381206658236714" lon="12.732898023232302"><ele>1132.3333333333335</ele><time>2026-04-11T11:52:42.001Z</time></trkpt><trkpt lat="43.38126537396288" lon="12.732978419637"><ele>1131.1666666666667</ele><time>2026-04-11T11:52:43.001Z</time></trkpt><trkpt lat="43.38126253944593" lon="12.733085299404852"><ele>1130.0</ele><time>2026-04-11T11:52:44.001Z</time></trkpt><trkpt lat="43.3812135512675" lon="12.733168188455707"><ele>1130.0</ele><time>2026-04-11T11:52:45.001Z</time></trkpt><trkpt lat="43.381124881527754" lon="12.733254058147068"><ele>1130.0</ele><time>2026-04-11T11:52:47.001Z</time></trkpt><trkpt lat="43.381028287350766" lon="12.733280298186"><ele>1130.0</ele><time>2026-04-11T11:52:48.001Z</time></trkpt><trkpt lat="43.3809107970268" lon="12.733316358893706"><ele>1130.0</ele><time>2026-04-11T11:52:49.001Z</time></trkpt><trkpt lat="43.380726531047515" lon="12.733293677160795"><ele>1130.0</ele><time>2026-04-11T11:52:50.001Z</time></trkpt><trkpt lat="43.38056262237627" lon="12.73329914263467"><ele>1130.0</ele><time>2026-04-11T11:52:51.001Z</time></trkpt><trkpt lat="43.38043128533258" lon="12.733257339279296"><ele>1130.0</ele><time>2026-04-11T11:52:52.001Z</time></trkpt><trkpt lat="43.380298202192" lon="12.733250355343726"><ele>1130.0</ele><time>2026-04-11T11:52:53.001Z</time></trkpt><trkpt lat="43.380155494163866" lon="12.733259006788435"><ele>1129.0</ele><time>2026-04-11T11:52:54.001Z</time></trkpt><trkpt lat="43.37998348080851" lon="12.733288406978502"><ele>1128.0</ele><time>2026-04-11T11:52:55.001Z</time></trkpt><trkpt lat="43.37982074255731" lon="12.733321910825893"><ele>1127.0</ele><time>2026-04-11T11:52:56.001Z</time></trkpt><trkpt lat="43.37966315134493" lon="12.733348635083484"><ele>1124.5</ele><time>2026-04-11T11:52:57.001Z</time></trkpt><trkpt lat="43.37952342770177" lon="12.733386834323131"><ele>1122.0</ele><time>2026-04-11T11:52:58.001Z</time></trkpt><trkpt lat="43.37937625809864" lon="12.733458432708861"><ele>1119.5</ele><time>2026-04-11T11:52:59.001Z</time></trkpt><trkpt lat="43.37923639754749" lon="12.733499806921461"><ele>1117.0</ele><time>2026-04-11T11:53:00.001Z</time></trkpt><trkpt lat="43.37910266100148" lon="12.733535223629104"><ele>1116.6</ele><time>2026-04-11T11:53:01.001Z</time></trkpt><trkpt lat="43.379016280809545" lon="12.733596034424567"><ele>1116.2</ele><time>2026-04-11T11:53:02.001Z</time></trkpt><trkpt lat="43.378909073887726" lon="12.733625936415251"><ele>1115.8</ele><time>2026-04-11T11:53:03.001Z</time></trkpt><trkpt lat="43.378800878207265" lon="12.733681946437232"><ele>1115.4</ele><time>2026-04-11T11:53:04.001Z</time></trkpt><trkpt lat="43.37869038299916" lon="12.733731727493453"><ele>1115.0</ele><time>2026-04-11T11:53:05.001Z</time></trkpt><trkpt lat="43.37856492023324" lon="12.733770193620861"><ele>1115.0</ele><time>2026-04-11T11:53:06.001Z</time></trkpt><trkpt lat="43.37844839032163" lon="12.733789463443705"><ele>1115.0</ele><time>2026-04-11T11:53:07.001Z</time></trkpt><trkpt lat="43.37834317851546" lon="12.733805174672694"><ele>1115.0</ele><time>2026-04-11T11:53:08.001Z</time></trkpt><trkpt lat="43.37824679312369" lon="12.733790656979263"><ele>1115.0</ele><time>2026-04-11T11:53:09.001Z</time></trkpt><trkpt lat="43.37813911432808" lon="12.733780941770139"><ele>1115.0</ele><time>2026-04-11T11:53:10.001Z</time></trkpt><trkpt lat="43.37804821072052" lon="12.733640187209579"><ele>1113.0</ele><time>2026-04-11T11:53:11.001Z</time></trkpt><trkpt lat="43.37792982596585" lon="12.733513045059984"><ele>1111.0</ele><time>2026-04-11T11:53:12.001Z</time></trkpt><trkpt lat="43.37778890766665" lon="12.73337964373395"><ele>1109.0</ele><time>2026-04-11T11:53:13.001Z</time></trkpt><trkpt lat="43.37765871835518" lon="12.733257874904151"><ele>1109.0</ele><time>2026-04-11T11:53:14.001Z</time></trkpt><trkpt lat="43.37753575560997" lon="12.73314419848531"><ele>1109.0</ele><time>2026-04-11T11:53:15.001Z</time></trkpt><trkpt lat="43.377408741930694" lon="12.733049045332255"><ele>1109.0</ele><time>2026-04-11T11:53:16.001Z</time></trkpt><trkpt lat="43.377298019130436" lon="12.732942482044285"><ele>1109.0</ele><time>2026-04-11T11:53:17.001Z</time></trkpt><trkpt lat="43.377192139591536" lon="12.732824623355963"><ele>1109.0</ele><time>2026-04-11T11:53:18.001Z</time></trkpt><trkpt lat="43.377081604057025" lon="12.732715641444232"><ele>1109.0</ele><time>2026-04-11T11:53:19.001Z</time></trkpt><trkpt lat="43.37696971041724" lon="12.732602268315281"><ele>1109.0</ele><time>2026-04-11T11:53:20.001Z</time></trkpt><trkpt lat="43.37685840789657" lon="12.732484362529496"><ele>1109.0</ele><time>2026-04-11T11:53:21.001Z</time></trkpt><trkpt lat="43.37676209976138" lon="12.732364610060161"><ele>1109.0</ele><time>2026-04-11T11:53:22.001Z</time></trkpt><trkpt lat="43.37666872102238" lon="12.732199347315278"><ele>1109.0</ele><time>2026-04-11T11:53:23.001Z</time></trkpt><trkpt lat="43.37656066881984" lon="12.732046825128078"><ele>1109.0</ele><time>2026-04-11T11:53:24.001Z</time></trkpt><trkpt lat="43.3764684807531" lon="12.731857111841256"><ele>1109.3333333333335</ele><time>2026-04-11T11:53:25.001Z</time></trkpt><trkpt lat="43.37636318075642" lon="12.731684286997027"><ele>1109.6666666666667</ele><time>2026-04-11T11:53:26.001Z</time></trkpt><trkpt lat="43.37625845773493" lon="12.731521881599672"><ele>1110.0</ele><time>2026-04-11T11:53:27.001Z</time></trkpt><trkpt lat="43.37615598116097" lon="12.73136823797555"><ele>1110.0</ele><time>2026-04-11T11:53:28.001Z</time></trkpt><trkpt lat="43.37605270156701" lon="12.731217124949302"><ele>1110.0</ele><time>2026-04-11T11:53:29.001Z</time></trkpt><trkpt lat="43.37596427842494" lon="12.731049637527375"><ele>1110.0</ele><time>2026-04-11T11:53:30.001Z</time></trkpt><trkpt lat="43.37585447126648" lon="12.730900980977262"><ele>1106.3333333333333</ele><time>2026-04-11T11:53:31.002Z</time></trkpt><trkpt lat="43.37574670569197" lon="12.730719798824719"><ele>1102.6666666666665</ele><time>2026-04-11T11:53:32.002Z</time></trkpt><trkpt lat="43.37564722516945" lon="12.730559809192792"><ele>1099.0</ele><time>2026-04-11T11:53:33.002Z</time></trkpt><trkpt lat="43.375537888121244" lon="12.730403030914287"><ele>1097.6666666666665</ele><time>2026-04-11T11:53:34.002Z</time></trkpt><trkpt lat="43.37542840765104" lon="12.730255140765564"><ele>1096.3333333333333</ele><time>2026-04-11T11:53:35.002Z</time></trkpt><trkpt lat="43.37530824186104" lon="12.730109578170122"><ele>1095.0</ele><time>2026-04-11T11:53:36.002Z</time></trkpt><trkpt lat="43.37519034984017" lon="12.729972499225138"><ele>1095.0</ele><time>2026-04-11T11:53:37.002Z</time></trkpt><trkpt lat="43.375104964112275" lon="12.729843661446182"><ele>1095.0</ele><time>2026-04-11T11:53:38.002Z</time></trkpt><trkpt lat="43.37501067135131" lon="12.729731671834655"><ele>1095.0</ele><time>2026-04-11T11:53:39.002Z</time></trkpt><trkpt lat="43.374915837381984" lon="12.729639534518606"><ele>1095.0</ele><time>2026-04-11T11:53:40.002Z</time></trkpt><trkpt lat="43.374805759461765" lon="12.72959739725706"><ele>1095.0</ele><time>2026-04-11T11:53:41.002Z</time></trkpt><trkpt lat="43.3747002759281" lon="12.729574532635747"><ele>1095.0</ele><time>2026-04-11T11:53:42.002Z</time></trkpt><trkpt lat="43.37458975131491" lon="12.729555172895623"><ele>1095.0</ele><time>2026-04-11T11:53:43.002Z</time></trkpt><trkpt lat="43.37448418770744" lon="12.729568384314144"><ele>1095.0</ele><time>2026-04-11T11:53:44.002Z</time></trkpt><trkpt lat="43.374388633893865" lon="12.729606319858222"><ele>1095.0</ele><time>2026-04-11T11:53:45.002Z</time></trkpt><trkpt lat="43.37423964481723" lon="12.729627442253237"><ele>1095.0</ele><time>2026-04-11T11:53:46.002Z</time></trkpt><trkpt lat="43.37408784170109" lon="12.729639229082162"><ele>1095.0</ele><time>2026-04-11T11:53:47.002Z</time></trkpt><trkpt lat="43.37393442066269" lon="12.729638359345172"><ele>1095.0</ele><time>2026-04-11T11:53:48.002Z</time></trkpt><trkpt lat="43.37377141058158" lon="12.72963337093008"><ele>1095.0</ele><time>2026-04-11T11:53:49.002Z</time></trkpt><trkpt lat="43.37361498400945" lon="12.729646204048642"><ele>1095.0</ele><time>2026-04-11T11:53:50.002Z</time></trkpt><trkpt lat="43.37346769984622" lon="12.729665269167734"><ele>1095.0</ele><time>2026-04-11T11:53:51.002Z</time></trkpt><trkpt lat="43.37331390501248" lon="12.729681924580792"><ele>1095.0</ele><time>2026-04-11T11:53:52.002Z</time></trkpt><trkpt lat="43.37316592030212" lon="12.729703492183566"><ele>1095.0</ele><time>2026-04-11T11:53:53.002Z</time></trkpt><trkpt lat="43.37302702671308" lon="12.729737081904567"><ele>1095.0</ele><time>2026-04-11T11:53:54.002Z</time></trkpt><trkpt lat="43.372890422468124" lon="12.729773783057878"><ele>1095.0</ele><time>2026-04-11T11:53:55.002Z</time></trkpt><trkpt lat="43.37276066533842" lon="12.729805819108275"><ele>1092.75</ele><time>2026-04-11T11:53:56.002Z</time></trkpt><trkpt lat="43.37263694005001" lon="12.72984137350977"><ele>1090.5</ele><time>2026-04-11T11:53:57.002Z</time></trkpt><trkpt lat="43.37251339983452" lon="12.729880014493354"><ele>1088.25</ele><time>2026-04-11T11:53:58.002Z</time></trkpt><trkpt lat="43.37238860005537" lon="12.729928059707982"><ele>1086.0</ele><time>2026-04-11T11:53:59.002Z</time></trkpt><trkpt lat="43.372262244558925" lon="12.729978101935234"><ele>1081.75</ele><time>2026-04-11T11:54:00.002Z</time></trkpt><trkpt lat="43.372140757230774" lon="12.730033683140968"><ele>1077.5</ele><time>2026-04-11T11:54:01.002Z</time></trkpt><trkpt lat="43.37202114617476" lon="12.730084613153734"><ele>1073.25</ele><time>2026-04-11T11:54:02.002Z</time></trkpt><trkpt lat="43.371901561934365" lon="12.730135732711853"><ele>1069.0</ele><time>2026-04-11T11:54:03.002Z</time></trkpt><trkpt lat="43.37178492441528" lon="12.730184092865974"><ele>1069.0</ele><time>2026-04-11T11:54:04.002Z</time></trkpt><trkpt lat="43.371663997483026" lon="12.730206307467514"><ele>1069.0</ele><time>2026-04-11T11:54:05.002Z</time></trkpt><trkpt lat="43.37155421604706" lon="12.730259569278592"><ele>1069.0</ele><time>2026-04-11T11:54:06.002Z</time></trkpt><trkpt lat="43.37144081047998" lon="12.730283596777486"><ele>1069.0</ele><time>2026-04-11T11:54:07.002Z</time></trkpt><trkpt lat="43.37132418589238" lon="12.730296724928928"><ele>1070.75</ele><time>2026-04-11T11:54:08.002Z</time></trkpt><trkpt lat="43.37121679102443" lon="12.730288505861681"><ele>1072.5</ele><time>2026-04-11T11:54:09.002Z</time></trkpt><trkpt lat="43.3711006708102" lon="12.730282917371227"><ele>1074.25</ele><time>2026-04-11T11:54:10.002Z</time></trkpt><trkpt lat="43.370979969940564" lon="12.730265043329132"><ele>1076.0</ele><time>2026-04-11T11:54:11.001Z</time></trkpt><trkpt lat="43.37086113540621" lon="12.730219331482427"><ele>1076.0</ele><time>2026-04-11T11:54:12.001Z</time></trkpt><trkpt lat="43.37074556149195" lon="12.73014848804595"><ele>1076.0</ele><time>2026-04-11T11:54:13.001Z</time></trkpt><trkpt lat="43.370618755097254" lon="12.73004877094594"><ele>1076.0</ele><time>2026-04-11T11:54:14.001Z</time></trkpt><trkpt lat="43.3704976835445" lon="12.729955739789643"><ele>1076.0</ele><time>2026-04-11T11:54:15.001Z</time></trkpt><trkpt lat="43.37037684475795" lon="12.729855858120393"><ele>1082.75</ele><time>2026-04-11T11:54:16.001Z</time></trkpt><trkpt lat="43.37026316213279" lon="12.729749581217016"><ele>1089.5</ele><time>2026-04-11T11:54:17.001Z</time></trkpt><trkpt lat="43.37018183207317" lon="12.729618449811493"><ele>1096.25</ele><time>2026-04-11T11:54:18.001Z</time></trkpt><trkpt lat="43.37010723478002" lon="12.729501071854607"><ele>1103.0</ele><time>2026-04-11T11:54:19.001Z</time></trkpt><trkpt lat="43.37002179617554" lon="12.729405086989944"><ele>1093.0</ele><time>2026-04-11T11:54:20.001Z</time></trkpt><trkpt lat="43.369931526585006" lon="12.729313074442445"><ele>1083.0</ele><time>2026-04-11T11:54:21.001Z</time></trkpt><trkpt lat="43.36981663582789" lon="12.72925483237057"><ele>1073.0</ele><time>2026-04-11T11:54:22.001Z</time></trkpt><trkpt lat="43.3696926027213" lon="12.729221135985634"><ele>1063.0</ele><time>2026-04-11T11:54:23.001Z</time></trkpt><trkpt lat="43.36956551990028" lon="12.729209262536578"><ele>1061.0</ele><time>2026-04-11T11:54:24.001Z</time></trkpt><trkpt lat="43.36944202997018" lon="12.729217928203633"><ele>1059.0</ele><time>2026-04-11T11:54:25.001Z</time></trkpt><trkpt lat="43.36932466821031" lon="12.729233114840575"><ele>1057.0</ele><time>2026-04-11T11:54:26.001Z</time></trkpt><trkpt lat="43.36921044924688" lon="12.729259541830034"><ele>1055.0</ele><time>2026-04-11T11:54:27.001Z</time></trkpt><trkpt lat="43.36909544995956" lon="12.729297852209152"><ele>1055.0</ele><time>2026-04-11T11:54:28.001Z</time></trkpt><trkpt lat="43.368976245745095" lon="12.729356888835708"><ele>1055.0</ele><time>2026-04-11T11:54:29.001Z</time></trkpt><trkpt lat="43.36886367493975" lon="12.729421451243288"><ele>1055.0</ele><time>2026-04-11T11:54:30.001Z</time></trkpt><trkpt lat="43.368748354409554" lon="12.729489175529597"><ele>1055.0</ele><time>2026-04-11T11:54:31.001Z</time></trkpt><trkpt lat="43.36863429707451" lon="12.729563949872187"><ele>1055.25</ele><time>2026-04-11T11:54:32.001Z</time></trkpt><trkpt lat="43.3685186415763" lon="12.72965071746832"><ele>1055.5</ele><time>2026-04-11T11:54:33.001Z</time></trkpt><trkpt lat="43.368409506432556" lon="12.729748118743146"><ele>1055.75</ele><time>2026-04-11T11:54:34.001Z</time></trkpt><trkpt lat="43.36829425277169" lon="12.729826821584805"><ele>1056.0</ele><time>2026-04-11T11:54:35.001Z</time></trkpt><trkpt lat="43.36818315692166" lon="12.729923219083071"><ele>1056.0</ele><time>2026-04-11T11:54:36.001Z</time></trkpt><trkpt lat="43.36806855310924" lon="12.730026492567886"><ele>1056.0</ele><time>2026-04-11T11:54:37.001Z</time></trkpt><trkpt lat="43.367954007020096" lon="12.730132578398333"><ele>1056.0</ele><time>2026-04-11T11:54:38.001Z</time></trkpt><trkpt lat="43.36783857789131" lon="12.730253642472773"><ele>1056.0</ele><time>2026-04-11T11:54:39.001Z</time></trkpt><trkpt lat="43.3677222722689" lon="12.73037874648724"><ele>1055.5</ele><time>2026-04-11T11:54:40.001Z</time></trkpt><trkpt lat="43.36760254645802" lon="12.730504613563879"><ele>1055.0</ele><time>2026-04-11T11:54:41.001Z</time></trkpt><trkpt lat="43.367501806032784" lon="12.730611707036305"><ele>1054.5</ele><time>2026-04-11T11:54:42.001Z</time></trkpt><trkpt lat="43.36741024010865" lon="12.730715287661104"><ele>1054.0</ele><time>2026-04-11T11:54:43.001Z</time></trkpt><trkpt lat="43.36732913006176" lon="12.730806490653263"><ele>1054.0</ele><time>2026-04-11T11:54:44.001Z</time></trkpt><trkpt lat="43.367261410074434" lon="12.73088871587827"><ele>1054.0</ele><time>2026-04-11T11:54:45.001Z</time></trkpt><trkpt lat="43.367191172695286" lon="12.730922244359753"><ele>1054.0</ele><time>2026-04-11T11:54:46.001Z</time></trkpt><trkpt lat="43.367101374408236" lon="12.73091159511836"><ele>1054.0</ele><time>2026-04-11T11:54:48.001Z</time></trkpt><trkpt lat="43.367108269132366" lon="12.730807761232738"><ele>1054.0</ele><time>2026-04-11T11:54:50.001Z</time></trkpt><trkpt lat="43.3672198758418" lon="12.730652405402653"><ele>1054.0</ele><time>2026-04-11T11:54:53.001Z</time></trkpt><trkpt lat="43.36733378762903" lon="12.7305405825432"><ele>1054.0</ele><time>2026-04-11T11:54:54.001Z</time></trkpt><trkpt lat="43.36744041039786" lon="12.730418191377098"><ele>1054.0</ele><time>2026-04-11T11:54:55.001Z</time></trkpt><trkpt lat="43.3675367912027" lon="12.730303338175228"><ele>1054.0</ele><time>2026-04-11T11:54:56.001Z</time></trkpt><trkpt lat="43.367621685759" lon="12.730193086200847"><ele>1045.25</ele><time>2026-04-11T11:54:57.001Z</time></trkpt><trkpt lat="43.367697054955435" lon="12.730097294009001"><ele>1036.5</ele><time>2026-04-11T11:54:58.001Z</time></trkpt><trkpt lat="43.367790979930895" lon="12.729964038648975"><ele>1027.75</ele><time>2026-04-11T11:54:59.001Z</time></trkpt><trkpt lat="43.36788387002552" lon="12.72982409762287"><ele>1019.0</ele><time>2026-04-11T11:55:00.001Z</time></trkpt><trkpt lat="43.36796580241733" lon="12.729674730379404"><ele>1020.0</ele><time>2026-04-11T11:55:01.001Z</time></trkpt><trkpt lat="43.36805747939662" lon="12.729539255213588"><ele>1021.0</ele><time>2026-04-11T11:55:02.001Z</time></trkpt><trkpt lat="43.36814069129918" lon="12.729383437937166"><ele>1022.0</ele><time>2026-04-11T11:55:03.001Z</time></trkpt><trkpt lat="43.368209646251785" lon="12.729244318176459"><ele>1023.0</ele><time>2026-04-11T11:55:04.001Z</time></trkpt><trkpt lat="43.368275256894286" lon="12.729093629178477"><ele>1023.0</ele><time>2026-04-11T11:55:05.001Z</time></trkpt><trkpt lat="43.36834136764448" lon="12.728963129651735"><ele>1023.0</ele><time>2026-04-11T11:55:06.001Z</time></trkpt><trkpt lat="43.368416332761015" lon="12.72885252037685"><ele>1023.0</ele><time>2026-04-11T11:55:07.001Z</time></trkpt><trkpt lat="43.36848714033232" lon="12.728731972595536"><ele>1023.0</ele><time>2026-04-11T11:55:08.001Z</time></trkpt><trkpt lat="43.3685647930232" lon="12.728627290357316"><ele>1023.0</ele><time>2026-04-11T11:55:09.001Z</time></trkpt><trkpt lat="43.36863983739924" lon="12.728538401027903"><ele>1022.2</ele><time>2026-04-11T11:55:10.001Z</time></trkpt><trkpt lat="43.368720625211424" lon="12.72846754352166"><ele>1021.4</ele><time>2026-04-11T11:55:11.001Z</time></trkpt><trkpt lat="43.36881432670471" lon="12.728449902343812"><ele>1020.6000000000001</ele><time>2026-04-11T11:55:12.001Z</time></trkpt><trkpt lat="43.36889107658148" lon="12.728419573519702"><ele>1019.8000000000001</ele><time>2026-04-11T11:55:13.001Z</time></trkpt><trkpt lat="43.368961706937846" lon="12.72837845212211"><ele>1019.0</ele><time>2026-04-11T11:55:14.001Z</time></trkpt><trkpt lat="43.36906323097029" lon="12.728333101850787"><ele>1019.0</ele><time>2026-04-11T11:55:16.001Z</time></trkpt><trkpt lat="43.36906290055904" lon="12.728197857822103"><ele>1019.0000000000001</ele><time>2026-04-11T11:55:18.001Z</time></trkpt><trkpt lat="43.36896617845623" lon="12.728147825021408"><ele>1019.0000000000001</ele><time>2026-04-11T11:55:20.001Z</time></trkpt><trkpt lat="43.368872907346535" lon="12.728140844722688"><ele>1019.0</ele><time>2026-04-11T11:55:21.001Z</time></trkpt><trkpt lat="43.36876419785898" lon="12.728180860412664"><ele>1019.0</ele><time>2026-04-11T11:55:22.001Z</time></trkpt><trkpt lat="43.36865594210368" lon="12.728244899680538"><ele>1012.5</ele><time>2026-04-11T11:55:23.001Z</time></trkpt><trkpt lat="43.36854734124654" lon="12.728285491777521"><ele>1006.0</ele><time>2026-04-11T11:55:24.002Z</time></trkpt><trkpt lat="43.36843831361825" lon="12.728350072554091"><ele>999.5</ele><time>2026-04-11T11:55:25.002Z</time></trkpt><trkpt lat="43.368329837904135" lon="12.728422439566675"><ele>993.0</ele><time>2026-04-11T11:55:26.002Z</time></trkpt><trkpt lat="43.36823022191898" lon="12.728521644683408"><ele>991.25</ele><time>2026-04-11T11:55:27.002Z</time></trkpt><trkpt lat="43.36812926341461" lon="12.728639444175617"><ele>989.5</ele><time>2026-04-11T11:55:28.002Z</time></trkpt><trkpt lat="43.368026901446896" lon="12.728765877539464"><ele>987.75</ele><time>2026-04-11T11:55:29.002Z</time></trkpt><trkpt lat="43.36791511860839" lon="12.728884011186127"><ele>986.0</ele><time>2026-04-11T11:55:30.002Z</time></trkpt><trkpt lat="43.367796330881255" lon="12.72899396180366"><ele>986.0</ele><time>2026-04-11T11:55:31.002Z</time></trkpt><trkpt lat="43.36767568917342" lon="12.729091531429217"><ele>986.0</ele><time>2026-04-11T11:55:32.002Z</time></trkpt><trkpt lat="43.36755012037649" lon="12.72919085380923"><ele>986.0</ele><time>2026-04-11T11:55:33.002Z</time></trkpt><trkpt lat="43.367426589086904" lon="12.729296183172302"><ele>986.0</ele><time>2026-04-11T11:55:34.002Z</time></trkpt><trkpt lat="43.36730523390244" lon="12.729406262726554"><ele>985.25</ele><time>2026-04-11T11:55:35.002Z</time></trkpt><trkpt lat="43.367184848195265" lon="12.729516566748257"><ele>984.5</ele><time>2026-04-11T11:55:36.002Z</time></trkpt><trkpt lat="43.36706860619703" lon="12.72961236470012"><ele>983.75</ele><time>2026-04-11T11:55:37.002Z</time></trkpt><trkpt lat="43.36696145802421" lon="12.729724966532853"><ele>983.0</ele><time>2026-04-11T11:55:38.002Z</time></trkpt><trkpt lat="43.36685380904643" lon="12.729836285585323"><ele>983.0</ele><time>2026-04-11T11:55:39.002Z</time></trkpt><trkpt lat="43.366752403887695" lon="12.729937417808879"><ele>983.0</ele><time>2026-04-11T11:55:40.002Z</time></trkpt><trkpt lat="43.366647072050604" lon="12.73001107338426"><ele>983.0</ele><time>2026-04-11T11:55:41.002Z</time></trkpt><trkpt lat="43.36655241289963" lon="12.730088488429145"><ele>983.0</ele><time>2026-04-11T11:55:42.002Z</time></trkpt><trkpt lat="43.36645476019881" lon="12.730141863751692"><ele>977.0</ele><time>2026-04-11T11:55:43.002Z</time></trkpt><trkpt lat="43.36634594815249" lon="12.730186303019162"><ele>971.0</ele><time>2026-04-11T11:55:44.002Z</time></trkpt><trkpt lat="43.36621431240074" lon="12.730176923944848"><ele>965.0</ele><time>2026-04-11T11:55:45.002Z</time></trkpt><trkpt lat="43.36608323332705" lon="12.73018364561221"><ele>959.0</ele><time>2026-04-11T11:55:46.002Z</time></trkpt><trkpt lat="43.365956816812556" lon="12.730211944385122"><ele>961.75</ele><time>2026-04-11T11:55:47.002Z</time></trkpt><trkpt lat="43.36583534325979" lon="12.730258207641256"><ele>964.5</ele><time>2026-04-11T11:55:48.002Z</time></trkpt><trkpt lat="43.36572488220654" lon="12.730315100986063"><ele>967.25</ele><time>2026-04-11T11:55:49.002Z</time></trkpt><trkpt lat="43.36561966846744" lon="12.730389352990347"><ele>970.0</ele><time>2026-04-11T11:55:50.002Z</time></trkpt><trkpt lat="43.36552191763785" lon="12.730491226198001"><ele>970.0</ele><time>2026-04-11T11:55:51.002Z</time></trkpt><trkpt lat="43.36542894684404" lon="12.730614584434855"><ele>970.0</ele><time>2026-04-11T11:55:52.002Z</time></trkpt><trkpt lat="43.3653371871589" lon="12.730742240115028"><ele>970.0</ele><time>2026-04-11T11:55:53.002Z</time></trkpt><trkpt lat="43.36524155663354" lon="12.730861636761173"><ele>970.0</ele><time>2026-04-11T11:55:54.002Z</time></trkpt><trkpt lat="43.36514822285617" lon="12.730958198920318"><ele>970.0</ele><time>2026-04-11T11:55:55.002Z</time></trkpt><trkpt lat="43.365059620382226" lon="12.731029444276857"><ele>970.0</ele><time>2026-04-11T11:55:56.002Z</time></trkpt><trkpt lat="43.36496641836472" lon="12.731067485684122"><ele>970.0</ele><time>2026-04-11T11:55:57.002Z</time></trkpt><trkpt lat="43.36487317063996" lon="12.731064178811126"><ele>970.0</ele><time>2026-04-11T11:55:58.002Z</time></trkpt><trkpt lat="43.36478055688013" lon="12.731020115146631"><ele>970.0</ele><time>2026-04-11T11:55:59.002Z</time></trkpt><trkpt lat="43.364694659203444" lon="12.730935757907083"><ele>975.25</ele><time>2026-04-11T11:56:00.002Z</time></trkpt><trkpt lat="43.364608117564266" lon="12.73080355240556"><ele>980.5</ele><time>2026-04-11T11:56:01.002Z</time></trkpt><trkpt lat="43.364527826950905" lon="12.730668897554827"><ele>985.75</ele><time>2026-04-11T11:56:02.002Z</time></trkpt><trkpt lat="43.36444483798792" lon="12.73055174044011"><ele>991.0</ele><time>2026-04-11T11:56:03.002Z</time></trkpt><trkpt lat="43.364366228554715" lon="12.730435532352436"><ele>991.0</ele><time>2026-04-11T11:56:04.002Z</time></trkpt><trkpt lat="43.36429488019838" lon="12.730304961699602"><ele>991.0</ele><time>2026-04-11T11:56:05.002Z</time></trkpt><trkpt lat="43.36425468144845" lon="12.730157633423216"><ele>991.0</ele><time>2026-04-11T11:56:06.002Z</time></trkpt><trkpt lat="43.36426186146348" lon="12.729981819178596"><ele>991.0</ele><time>2026-04-11T11:56:07.002Z</time></trkpt><trkpt lat="43.36423409465594" lon="12.729793161352534"><ele>983.75</ele><time>2026-04-11T11:56:08.002Z</time></trkpt><trkpt lat="43.36419413868736" lon="12.729612419252616"><ele>976.5</ele><time>2026-04-11T11:56:09.002Z</time></trkpt><trkpt lat="43.36415273012983" lon="12.729436007135284"><ele>969.25</ele><time>2026-04-11T11:56:10.002Z</time></trkpt><trkpt lat="43.364121734967725" lon="12.729260654515794"><ele>962.0</ele><time>2026-04-11T11:56:11.002Z</time></trkpt><trkpt lat="43.36409243107403" lon="12.729086349541218"><ele>958.25</ele><time>2026-04-11T11:56:12.002Z</time></trkpt><trkpt lat="43.36411249047161" lon="12.728907221687155"><ele>954.5</ele><time>2026-04-11T11:56:13.002Z</time></trkpt><trkpt lat="43.36412246442566" lon="12.72873176188361"><ele>950.75</ele><time>2026-04-11T11:56:14.002Z</time></trkpt><trkpt lat="43.36411683113924" lon="12.72857474765978"><ele>947.0</ele><time>2026-04-11T11:56:15.002Z</time></trkpt><trkpt lat="43.36412915458373" lon="12.728437831188966"><ele>944.6666666666667</ele><time>2026-04-11T11:56:16.002Z</time></trkpt><trkpt lat="43.364149489858875" lon="12.728303756018795"><ele>942.3333333333334</ele><time>2026-04-11T11:56:17.001Z</time></trkpt><trkpt lat="43.36418921831309" lon="12.728189525483439"><ele>940.0</ele><time>2026-04-11T11:56:18.001Z</time></trkpt><trkpt lat="43.36423041135337" lon="12.728103359381214"><ele>937.6666666666667</ele><time>2026-04-11T11:56:19.001Z</time></trkpt><trkpt lat="43.364253735878265" lon="12.728022744261375"><ele>935.3333333333334</ele><time>2026-04-11T11:56:20.001Z</time></trkpt><trkpt lat="43.3642486729163" lon="12.727860279611232"><ele>933.0</ele><time>2026-04-11T11:56:22.001Z</time></trkpt><trkpt lat="43.36416609841689" lon="12.727827356518487"><ele>933.0</ele><time>2026-04-11T11:56:23.001Z</time></trkpt><trkpt lat="43.364052808884054" lon="12.727872014815453"><ele>933.0</ele><time>2026-04-11T11:56:24.001Z</time></trkpt><trkpt lat="43.363931596459906" lon="12.727906360333526"><ele>933.0</ele><time>2026-04-11T11:56:25.001Z</time></trkpt><trkpt lat="43.36380002892099" lon="12.727923009408189"><ele>933.0</ele><time>2026-04-11T11:56:26.001Z</time></trkpt><trkpt lat="43.36367390116894" lon="12.727956818481283"><ele>936.75</ele><time>2026-04-11T11:56:27.001Z</time></trkpt><trkpt lat="43.36353775574786" lon="12.727950867122933"><ele>940.5</ele><time>2026-04-11T11:56:28.001Z</time></trkpt><trkpt lat="43.36338920460106" lon="12.727931689029957"><ele>944.25</ele><time>2026-04-11T11:56:29.001Z</time></trkpt><trkpt lat="43.363238035182405" lon="12.727875907890393"><ele>948.0</ele><time>2026-04-11T11:56:30.001Z</time></trkpt><trkpt lat="43.36309051428704" lon="12.72784955787687"><ele>947.75</ele><time>2026-04-11T11:56:31.001Z</time></trkpt><trkpt lat="43.36294747343938" lon="12.7278261026437"><ele>947.5</ele><time>2026-04-11T11:56:32.001Z</time></trkpt><trkpt lat="43.36279887028714" lon="12.727802767030878"><ele>947.25</ele><time>2026-04-11T11:56:33.001Z</time></trkpt><trkpt lat="43.36265274276278" lon="12.72778222923703"><ele>947.0</ele><time>2026-04-11T11:56:34.001Z</time></trkpt><trkpt lat="43.362513162747774" lon="12.727779197393266"><ele>940.5</ele><time>2026-04-11T11:56:35.001Z</time></trkpt><trkpt lat="43.36237669731588" lon="12.727718302489423"><ele>934.0</ele><time>2026-04-11T11:56:36.001Z</time></trkpt><trkpt lat="43.36224273839361" lon="12.727660488292718"><ele>927.5</ele><time>2026-04-11T11:56:37.001Z</time></trkpt><trkpt lat="43.362111406189534" lon="12.727582922877229"><ele>921.0</ele><time>2026-04-11T11:56:38.001Z</time></trkpt><trkpt lat="43.361975539266005" lon="12.727516908883423"><ele>921.0</ele><time>2026-04-11T11:56:39.001Z</time></trkpt><trkpt lat="43.36183753911341" lon="12.727451115990789"><ele>921.0</ele><time>2026-04-11T11:56:40.001Z</time></trkpt><trkpt lat="43.36170341091044" lon="12.727376906122393"><ele>921.0</ele><time>2026-04-11T11:56:41.001Z</time></trkpt><trkpt lat="43.36157511282041" lon="12.72729836409386"><ele>921.0</ele><time>2026-04-11T11:56:42.001Z</time></trkpt><trkpt lat="43.36143936329537" lon="12.727203914074494"><ele>925.3333333333333</ele><time>2026-04-11T11:56:43.001Z</time></trkpt><trkpt lat="43.36130756870582" lon="12.727094235668163"><ele>929.6666666666666</ele><time>2026-04-11T11:56:44.001Z</time></trkpt><trkpt lat="43.36118142012266" lon="12.726963307614964"><ele>934.0</ele><time>2026-04-11T11:56:45.001Z</time></trkpt><trkpt lat="43.36105397942215" lon="12.726826478332718"><ele>927.0</ele><time>2026-04-11T11:56:46.001Z</time></trkpt><trkpt lat="43.360936266047375" lon="12.72666881242149"><ele>920.0</ele><time>2026-04-11T11:56:47.001Z</time></trkpt><trkpt lat="43.360807910597615" lon="12.726576212869166"><ele>913.0</ele><time>2026-04-11T11:56:48.001Z</time></trkpt><trkpt lat="43.36069143723186" lon="12.726500365053099"><ele>906.0</ele><time>2026-04-11T11:56:49.001Z</time></trkpt><trkpt lat="43.36056452413578" lon="12.726434729833226"><ele>901.75</ele><time>2026-04-11T11:56:50.001Z</time></trkpt><trkpt lat="43.36043434763267" lon="12.726461567637653"><ele>897.5</ele><time>2026-04-11T11:56:51.001Z</time></trkpt><trkpt lat="43.36031601144789" lon="12.726509023243771"><ele>893.25</ele><time>2026-04-11T11:56:52.001Z</time></trkpt><trkpt lat="43.36019078200684" lon="12.7265809166278"><ele>889.0</ele><time>2026-04-11T11:56:53.001Z</time></trkpt><trkpt lat="43.360065321541406" lon="12.726689222538758"><ele>889.0</ele><time>2026-04-11T11:56:54.001Z</time></trkpt><trkpt lat="43.359938294107295" lon="12.726803163185433"><ele>889.0</ele><time>2026-04-11T11:56:55.001Z</time></trkpt><trkpt lat="43.35981022580177" lon="12.726920057659765"><ele>889.0</ele><time>2026-04-11T11:56:56.001Z</time></trkpt><trkpt lat="43.35967800587654" lon="12.727028306512326"><ele>886.0</ele><time>2026-04-11T11:56:57.001Z</time></trkpt><trkpt lat="43.3595415405721" lon="12.727129938134832"><ele>883.0</ele><time>2026-04-11T11:56:58.001Z</time></trkpt><trkpt lat="43.35940116518558" lon="12.727226456683493"><ele>880.0</ele><time>2026-04-11T11:56:59.001Z</time></trkpt><trkpt lat="43.35925741448242" lon="12.727318840966825"><ele>880.0</ele><time>2026-04-11T11:57:00.001Z</time></trkpt><trkpt lat="43.359115742143004" lon="12.727407659121896"><ele>880.0</ele><time>2026-04-11T11:57:01.001Z</time></trkpt><trkpt lat="43.3589870339528" lon="12.727487157625346"><ele>880.0</ele><time>2026-04-11T11:57:02.001Z</time></trkpt><trkpt lat="43.35887057573167" lon="12.727566343465478"><ele>880.0</ele><time>2026-04-11T11:57:03.001Z</time></trkpt><trkpt lat="43.35875737529827" lon="12.727646416795443"><ele>876.2</ele><time>2026-04-11T11:57:04.001Z</time></trkpt><trkpt lat="43.35865285190094" lon="12.727716698754662"><ele>872.4</ele><time>2026-04-11T11:57:05.001Z</time></trkpt><trkpt lat="43.35857068540468" lon="12.727765535957301"><ele>868.5999999999999</ele><time>2026-04-11T11:57:06.001Z</time></trkpt><trkpt lat="43.358455710461406" lon="12.727748216058403"><ele>864.8</ele><time>2026-04-11T11:57:08.001Z</time></trkpt><trkpt lat="43.3584342540747" lon="12.727596432878906"><ele>861.0</ele><time>2026-04-11T11:57:10.001Z</time></trkpt><trkpt lat="43.358497062409285" lon="12.727515057735003"><ele>860.0</ele><time>2026-04-11T11:57:11.001Z</time></trkpt><trkpt lat="43.358588602828746" lon="12.727451913428132"><ele>859.0</ele><time>2026-04-11T11:57:12.001Z</time></trkpt><trkpt lat="43.35870760549151" lon="12.727392023847464"><ele>858.0</ele><time>2026-04-11T11:57:13.001Z</time></trkpt><trkpt lat="43.3588365295836" lon="12.727315002766913"><ele>857.0</ele><time>2026-04-11T11:57:14.001Z</time></trkpt><trkpt lat="43.35894947341371" lon="12.727193007331936"><ele>857.0</ele><time>2026-04-11T11:57:15.001Z</time></trkpt><trkpt lat="43.359052988986754" lon="12.727064606311"><ele>857.0</ele><time>2026-04-11T11:57:16.001Z</time></trkpt><trkpt lat="43.35914476522615" lon="12.726921097470921"><ele>857.0</ele><time>2026-04-11T11:57:17.001Z</time></trkpt><trkpt lat="43.35925775274496" lon="12.726798363989241"><ele>857.0</ele><time>2026-04-11T11:57:18.001Z</time></trkpt><trkpt lat="43.359367405940546" lon="12.726670302625191"><ele>857.0</ele><time>2026-04-11T11:57:19.001Z</time></trkpt><trkpt lat="43.35946773106854" lon="12.726525259287323"><ele>857.0</ele><time>2026-04-11T11:57:20.001Z</time></trkpt><trkpt lat="43.359558576468686" lon="12.726364100536065"><ele>857.0</ele><time>2026-04-11T11:57:21.001Z</time></trkpt><trkpt lat="43.359642018918855" lon="12.726224771233204"><ele>857.0</ele><time>2026-04-11T11:57:22.001Z</time></trkpt><trkpt lat="43.3597181338786" lon="12.726124389905502"><ele>858.8</ele><time>2026-04-11T11:57:23.001Z</time></trkpt><trkpt lat="43.35977736103353" lon="12.726050853074337"><ele>860.6</ele><time>2026-04-11T11:57:24.001Z</time></trkpt><trkpt lat="43.35980385764191" lon="12.725895052934245"><ele>862.3999999999999</ele><time>2026-04-11T11:57:26.001Z</time></trkpt><trkpt lat="43.35968449475455" lon="12.725833825995032"><ele>864.1999999999999</ele><time>2026-04-11T11:57:28.001Z</time></trkpt><trkpt lat="43.35959794228268" lon="12.725896070423742"><ele>866.0</ele><time>2026-04-11T11:57:29.001Z</time></trkpt><trkpt lat="43.359514427639205" lon="12.725995792964973"><ele>863.75</ele><time>2026-04-11T11:57:30.001Z</time></trkpt><trkpt lat="43.35940529679145" lon="12.72612020689483"><ele>861.5</ele><time>2026-04-11T11:57:31.001Z</time></trkpt><trkpt lat="43.35927837619215" lon="12.726232696885603"><ele>859.25</ele><time>2026-04-11T11:57:32.001Z</time></trkpt><trkpt lat="43.35914641169642" lon="12.726326818091728"><ele>857.0</ele><time>2026-04-11T11:57:33.001Z</time></trkpt><trkpt lat="43.35901980083677" lon="12.726421159831428"><ele>857.0</ele><time>2026-04-11T11:57:34.001Z</time></trkpt><trkpt lat="43.358899696415975" lon="12.726522033243063"><ele>857.0</ele><time>2026-04-11T11:57:35.001Z</time></trkpt><trkpt lat="43.3587782767632" lon="12.726622435863483"><ele>857.0</ele><time>2026-04-11T11:57:36.001Z</time></trkpt><trkpt lat="43.35865260469362" lon="12.726715154773784"><ele>857.0</ele><time>2026-04-11T11:57:37.001Z</time></trkpt><trkpt lat="43.358522219513084" lon="12.726765106651232"><ele>851.5</ele><time>2026-04-11T11:57:38.002Z</time></trkpt><trkpt lat="43.35837904117209" lon="12.7268098407921"><ele>846.0</ele><time>2026-04-11T11:57:39.002Z</time></trkpt><trkpt lat="43.35824629410554" lon="12.726870356389595"><ele>840.5</ele><time>2026-04-11T11:57:40.002Z</time></trkpt><trkpt lat="43.3581183554964" lon="12.726887239136486"><ele>835.0</ele><time>2026-04-11T11:57:41.002Z</time></trkpt><trkpt lat="43.35800381089131" lon="12.726930993509095"><ele>832.7142857142858</ele><time>2026-04-11T11:57:42.002Z</time></trkpt><trkpt lat="43.35790931102448" lon="12.726961221488088"><ele>830.4285714285714</ele><time>2026-04-11T11:57:43.002Z</time></trkpt><trkpt lat="43.357835304325306" lon="12.726977598857198"><ele>828.1428571428571</ele><time>2026-04-11T11:57:44.002Z</time></trkpt><trkpt lat="43.357769655599235" lon="12.726978866177229"><ele>825.8571428571429</ele><time>2026-04-11T11:57:45.002Z</time></trkpt><trkpt lat="43.35772812610235" lon="12.726905045262864"><ele>823.5714285714286</ele><time>2026-04-11T11:57:46.002Z</time></trkpt><trkpt lat="43.357749543610915" lon="12.726808453962917"><ele>821.2857142857143</ele><time>2026-04-11T11:57:47.002Z</time></trkpt><trkpt lat="43.357798898387216" lon="12.726750573899183"><ele>819.0</ele><time>2026-04-11T11:57:48.002Z</time></trkpt><trkpt lat="43.35789413066277" lon="12.72670268212192"><ele>817.75</ele><time>2026-04-11T11:57:49.002Z</time></trkpt><trkpt lat="43.358017856557964" lon="12.726636148300393"><ele>816.5</ele><time>2026-04-11T11:57:50.002Z</time></trkpt><trkpt lat="43.35814225770681" lon="12.726555255372201"><ele>815.25</ele><time>2026-04-11T11:57:51.002Z</time></trkpt><trkpt lat="43.358249629676564" lon="12.72643618587643"><ele>814.0</ele><time>2026-04-11T11:57:52.002Z</time></trkpt><trkpt lat="43.35834861522172" lon="12.726290268095784"><ele>812.6666666666666</ele><time>2026-04-11T11:57:53.002Z</time></trkpt><trkpt lat="43.35844135382652" lon="12.726110271747132"><ele>811.3333333333333</ele><time>2026-04-11T11:57:54.002Z</time></trkpt><trkpt lat="43.35855212788809" lon="12.725946475560082"><ele>810.0</ele><time>2026-04-11T11:57:55.002Z</time></trkpt><trkpt lat="43.35867803375958" lon="12.7258089133372"><ele>810.0</ele><time>2026-04-11T11:57:56.002Z</time></trkpt><trkpt lat="43.358774876470164" lon="12.725634950373598"><ele>810.0</ele><time>2026-04-11T11:57:57.002Z</time></trkpt><trkpt lat="43.35887821440044" lon="12.725464117161861"><ele>810.0</ele><time>2026-04-11T11:57:58.002Z</time></trkpt><trkpt lat="43.35897788023678" lon="12.725284588344817"><ele>809.6666666666667</ele><time>2026-04-11T11:57:59.002Z</time></trkpt><trkpt lat="43.35908196040253" lon="12.725110384216633"><ele>809.3333333333334</ele><time>2026-04-11T11:58:00.002Z</time></trkpt><trkpt lat="43.359194958615994" lon="12.724945714032378"><ele>809.0</ele><time>2026-04-11T11:58:01.002Z</time></trkpt><trkpt lat="43.359310313670136" lon="12.72478548133657"><ele>809.0</ele><time>2026-04-11T11:58:02.002Z</time></trkpt><trkpt lat="43.35942614649943" lon="12.724622422387876"><ele>809.0</ele><time>2026-04-11T11:58:03.002Z</time></trkpt><trkpt lat="43.35951306722975" lon="12.724422123092435"><ele>809.0</ele><time>2026-04-11T11:58:04.002Z</time></trkpt><trkpt lat="43.35957261279339" lon="12.724202069371675"><ele>810.3333333333334</ele><time>2026-04-11T11:58:05.002Z</time></trkpt><trkpt lat="43.35965370938104" lon="12.724003110914007"><ele>811.6666666666667</ele><time>2026-04-11T11:58:06.002Z</time></trkpt><trkpt lat="43.35974602996253" lon="12.723810393585234"><ele>813.0</ele><time>2026-04-11T11:58:07.002Z</time></trkpt><trkpt lat="43.35985840011417" lon="12.723639318435387"><ele>806.25</ele><time>2026-04-11T11:58:08.002Z</time></trkpt><trkpt lat="43.35999514760733" lon="12.72353301916258"><ele>799.5</ele><time>2026-04-11T11:58:09.002Z</time></trkpt><trkpt lat="43.36011032133701" lon="12.723422420985553"><ele>792.75</ele><time>2026-04-11T11:58:10.002Z</time></trkpt><trkpt lat="43.360243290287315" lon="12.723368011202558"><ele>786.0</ele><time>2026-04-11T11:58:11.002Z</time></trkpt><trkpt lat="43.3603752144281" lon="12.723351118312584"><ele>786.0</ele><time>2026-04-11T11:58:12.002Z</time></trkpt><trkpt lat="43.36049944312214" lon="12.723368661217364"><ele>786.0</ele><time>2026-04-11T11:58:13.002Z</time></trkpt><trkpt lat="43.36060693367336" lon="12.72342880836009"><ele>786.0</ele><time>2026-04-11T11:58:14.002Z</time></trkpt><trkpt lat="43.360666310674" lon="12.723549092610684"><ele>786.0</ele><time>2026-04-11T11:58:15.002Z</time></trkpt><trkpt lat="43.36072989602847" lon="12.723647207305774"><ele>786.0</ele><time>2026-04-11T11:58:16.002Z</time></trkpt><trkpt lat="43.360774971991155" lon="12.723714894230287"><ele>784.8</ele><time>2026-04-11T11:58:17.002Z</time></trkpt><trkpt lat="43.360891652251425" lon="12.723726759111395"><ele>783.5999999999999</ele><time>2026-04-11T11:58:19.002Z</time></trkpt><trkpt lat="43.36089972948806" lon="12.723599029392949"><ele>782.4</ele><time>2026-04-11T11:58:20.002Z</time></trkpt><trkpt lat="43.36087021053085" lon="12.723479305128173"><ele>781.2</ele><time>2026-04-11T11:58:21.002Z</time></trkpt><trkpt lat="43.36078248677404" lon="12.723356355428225"><ele>780.0</ele><time>2026-04-11T11:58:22.002Z</time></trkpt><trkpt lat="43.36066812296806" lon="12.723206133786539"><ele>780.0</ele><time>2026-04-11T11:58:23.001Z</time></trkpt><trkpt lat="43.36053718889312" lon="12.723080004250937"><ele>780.0</ele><time>2026-04-11T11:58:24.001Z</time></trkpt><trkpt lat="43.36039589798338" lon="12.722993550127228"><ele>780.0</ele><time>2026-04-11T11:58:25.001Z</time></trkpt><trkpt lat="43.360251975195006" lon="12.72292513026046"><ele>781.5</ele><time>2026-04-11T11:58:26.001Z</time></trkpt><trkpt lat="43.36010308254781" lon="12.722880008792744"><ele>783.0</ele><time>2026-04-11T11:58:27.001Z</time></trkpt><trkpt lat="43.35995895099246" lon="12.722855599222928"><ele>784.5</ele><time>2026-04-11T11:58:28.001Z</time></trkpt><trkpt lat="43.359813553821645" lon="12.722849301920862"><ele>786.0</ele><time>2026-04-11T11:58:29.001Z</time></trkpt><trkpt lat="43.3596810382337" lon="12.722857161291905"><ele>779.75</ele><time>2026-04-11T11:58:30.001Z</time></trkpt><trkpt lat="43.35955046509609" lon="12.722864450864986"><ele>773.5</ele><time>2026-04-11T11:58:31.001Z</time></trkpt><trkpt lat="43.3594322823337" lon="12.722883050432213"><ele>767.25</ele><time>2026-04-11T11:58:32.001Z</time></trkpt><trkpt lat="43.35933387684127" lon="12.722947854022793"><ele>761.0</ele><time>2026-04-11T11:58:33.001Z</time></trkpt><trkpt lat="43.35922788272879" lon="12.723037267435789"><ele>761.0</ele><time>2026-04-11T11:58:34.001Z</time></trkpt><trkpt lat="43.35913770945073" lon="12.72315799838922"><ele>761.0</ele><time>2026-04-11T11:58:35.001Z</time></trkpt><trkpt lat="43.35904709229924" lon="12.723259672661642"><ele>761.0</ele><time>2026-04-11T11:58:36.001Z</time></trkpt><trkpt lat="43.358987994701245" lon="12.723398864703391"><ele>761.0</ele><time>2026-04-11T11:58:37.001Z</time></trkpt><trkpt lat="43.358948278413756" lon="12.723561389176302"><ele>757.4</ele><time>2026-04-11T11:58:38.001Z</time></trkpt><trkpt lat="43.358906632417096" lon="12.723720579779528"><ele>753.8</ele><time>2026-04-11T11:58:39.001Z</time></trkpt><trkpt lat="43.35885172043262" lon="12.72386209576303"><ele>750.1999999999999</ele><time>2026-04-11T11:58:40.001Z</time></trkpt><trkpt lat="43.3587904558307" lon="12.723973452964518"><ele>746.5999999999999</ele><time>2026-04-11T11:58:41.001Z</time></trkpt><trkpt lat="43.358717920066695" lon="12.724071540877116"><ele>743.0</ele><time>2026-04-11T11:58:42.001Z</time></trkpt><trkpt lat="43.358636757452956" lon="12.724146925020042"><ele>743.0</ele><time>2026-04-11T11:58:43.001Z</time></trkpt><trkpt lat="43.35853284153476" lon="12.724173760243703"><ele>743.0</ele><time>2026-04-11T11:58:44.001Z</time></trkpt><trkpt lat="43.35842674411863" lon="12.724215337776325"><ele>743.0</ele><time>2026-04-11T11:58:45.001Z</time></trkpt><trkpt lat="43.35833040370965" lon="12.72424388607576"><ele>743.0</ele><time>2026-04-11T11:58:46.001Z</time></trkpt><trkpt lat="43.358242526892894" lon="12.724303423539949"><ele>743.0</ele><time>2026-04-11T11:58:47.001Z</time></trkpt><trkpt lat="43.358157552502284" lon="12.724401656612908"><ele>744.0</ele><time>2026-04-11T11:58:48.001Z</time></trkpt><trkpt lat="43.358077983991286" lon="12.724518670955614"><ele>745.0</ele><time>2026-04-11T11:58:49.001Z</time></trkpt><trkpt lat="43.357991067509914" lon="12.724630752789707"><ele>746.0</ele><time>2026-04-11T11:58:50.001Z</time></trkpt><trkpt lat="43.35789509922331" lon="12.72472945965959"><ele>747.0</ele><time>2026-04-11T11:58:51.001Z</time></trkpt><trkpt lat="43.35778950272561" lon="12.724806243026933"><ele>747.0</ele><time>2026-04-11T11:58:52.001Z</time></trkpt><trkpt lat="43.35766496088296" lon="12.724865358871597"><ele>747.0</ele><time>2026-04-11T11:58:53.001Z</time></trkpt><trkpt lat="43.35752603241688" lon="12.724899335458865"><ele>747.0</ele><time>2026-04-11T11:58:54.001Z</time></trkpt><trkpt lat="43.35739098771019" lon="12.724931225031765"><ele>747.0</ele><time>2026-04-11T11:58:55.001Z</time></trkpt><trkpt lat="43.35724988938942" lon="12.724953722484951"><ele>743.75</ele><time>2026-04-11T11:58:56.001Z</time></trkpt><trkpt lat="43.35710764340176" lon="12.724959919980858"><ele>740.5</ele><time>2026-04-11T11:58:57.001Z</time></trkpt><trkpt lat="43.356963228831525" lon="12.724946310259037"><ele>737.25</ele><time>2026-04-11T11:58:58.001Z</time></trkpt><trkpt lat="43.35682391153024" lon="12.724897967332382"><ele>734.0</ele><time>2026-04-11T11:58:59.001Z</time></trkpt><trkpt lat="43.356698343053274" lon="12.724833073178813"><ele>734.0</ele><time>2026-04-11T11:59:00.001Z</time></trkpt><trkpt lat="43.35658158467082" lon="12.72476025541178"><ele>734.0</ele><time>2026-04-11T11:59:01.001Z</time></trkpt><trkpt lat="43.35647698595936" lon="12.724693826272402"><ele>734.0</ele><time>2026-04-11T11:59:02.001Z</time></trkpt><trkpt lat="43.356389468728715" lon="12.724654267050248"><ele>734.0</ele><time>2026-04-11T11:59:03.001Z</time></trkpt><trkpt lat="43.35631006898463" lon="12.724671077662299"><ele>734.0</ele><time>2026-04-11T11:59:04.001Z</time></trkpt><trkpt lat="43.356241583655475" lon="12.724743067046642"><ele>732.8333333333333</ele><time>2026-04-11T11:59:05.001Z</time></trkpt><trkpt lat="43.35617489564834" lon="12.724809637486324"><ele>731.6666666666666</ele><time>2026-04-11T11:59:06.001Z</time></trkpt><trkpt lat="43.35609713711091" lon="12.724848925951589"><ele>730.5</ele><time>2026-04-11T11:59:07.001Z</time></trkpt><trkpt lat="43.35601387498825" lon="12.724834380934883"><ele>729.3333333333334</ele><time>2026-04-11T11:59:08.001Z</time></trkpt><trkpt lat="43.35595501674573" lon="12.724762240448428"><ele>728.1666666666667</ele><time>2026-04-11T11:59:09.001Z</time></trkpt><trkpt lat="43.35593652634979" lon="12.724649294746142"><ele>727.0</ele><time>2026-04-11T11:59:10.001Z</time></trkpt><trkpt lat="43.35596628157272" lon="12.724506126647894"><ele>721.6666666666667</ele><time>2026-04-11T11:59:11.001Z</time></trkpt><trkpt lat="43.35598707455119" lon="12.724351579730941"><ele>716.3333333333334</ele><time>2026-04-11T11:59:12.001Z</time></trkpt><trkpt lat="43.35601146726671" lon="12.724218500245303"><ele>711.0</ele><time>2026-04-11T11:59:13.001Z</time></trkpt><trkpt lat="43.356039461142345" lon="12.724124464434645"><ele>705.6666666666666</ele><time>2026-04-11T11:59:14.001Z</time></trkpt><trkpt lat="43.35607988909587" lon="12.724044340714357"><ele>700.3333333333333</ele><time>2026-04-11T11:59:15.001Z</time></trkpt><trkpt lat="43.356160879108536" lon="12.724030855165902"><ele>695.0</ele><time>2026-04-11T11:59:16.001Z</time></trkpt><trkpt lat="43.356242118305815" lon="12.724077016840669"><ele>695.0</ele><time>2026-04-11T11:59:17.001Z</time></trkpt><trkpt lat="43.35632119574765" lon="12.724188883897902"><ele>695.0</ele><time>2026-04-11T11:59:18.001Z</time></trkpt><trkpt lat="43.35641332010559" lon="12.724280210186437"><ele>695.0</ele><time>2026-04-11T11:59:19.001Z</time></trkpt><trkpt lat="43.35651816260216" lon="12.724350012422724"><ele>695.0</ele><time>2026-04-11T11:59:20.001Z</time></trkpt><trkpt lat="43.35662763424138" lon="12.724380995092345"><ele>696.5</ele><time>2026-04-11T11:59:21.001Z</time></trkpt><trkpt lat="43.35672734717753" lon="12.724367770620372"><ele>698.0</ele><time>2026-04-11T11:59:22.001Z</time></trkpt><trkpt lat="43.356831421156556" lon="12.724324421957833"><ele>699.5</ele><time>2026-04-11T11:59:23.001Z</time></trkpt><trkpt lat="43.35693754979307" lon="12.724239621621427"><ele>701.0</ele><time>2026-04-11T11:59:24.001Z</time></trkpt><trkpt lat="43.35704040064802" lon="12.72414910868268"><ele>701.0</ele><time>2026-04-11T11:59:25.001Z</time></trkpt><trkpt lat="43.3571455121717" lon="12.72406111907462"><ele>701.0</ele><time>2026-04-11T11:59:26.001Z</time></trkpt><trkpt lat="43.35723436395092" lon="12.723938847913592"><ele>701.0</ele><time>2026-04-11T11:59:27.001Z</time></trkpt><trkpt lat="43.35732100493846" lon="12.723818888316687"><ele>701.0</ele><time>2026-04-11T11:59:28.001Z</time></trkpt><trkpt lat="43.3573946719147" lon="12.723672651265112"><ele>698.75</ele><time>2026-04-11T11:59:29.001Z</time></trkpt><trkpt lat="43.35745319747153" lon="12.723501439743604"><ele>696.5</ele><time>2026-04-11T11:59:30.001Z</time></trkpt><trkpt lat="43.35751696576047" lon="12.723324233546105"><ele>694.25</ele><time>2026-04-11T11:59:31.001Z</time></trkpt><trkpt lat="43.35755752197563" lon="12.723125150327764"><ele>692.0</ele><time>2026-04-11T11:59:32.001Z</time></trkpt><trkpt lat="43.357545401296775" lon="12.722918477863699"><ele>688.0</ele><time>2026-04-11T11:59:33.001Z</time></trkpt><trkpt lat="43.357569619029626" lon="12.722720312012457"><ele>684.0</ele><time>2026-04-11T11:59:34.001Z</time></trkpt><trkpt lat="43.3575900344526" lon="12.722524975088213"><ele>680.0</ele><time>2026-04-11T11:59:35.001Z</time></trkpt><trkpt lat="43.3576257480927" lon="12.72233020313624"><ele>676.0</ele><time>2026-04-11T11:59:36.001Z</time></trkpt><trkpt lat="43.35766447529894" lon="12.722135522335343"><ele>676.0</ele><time>2026-04-11T11:59:37.001Z</time></trkpt><trkpt lat="43.35770316048197" lon="12.72195428433308"><ele>676.0</ele><time>2026-04-11T11:59:38.001Z</time></trkpt><trkpt lat="43.35775350626797" lon="12.721779616899061"><ele>676.0</ele><time>2026-04-11T11:59:39.001Z</time></trkpt><trkpt lat="43.35782426609461" lon="12.721617059431221"><ele>676.0</ele><time>2026-04-11T11:59:40.001Z</time></trkpt><trkpt lat="43.35788770679705" lon="12.721444578831319"><ele>673.0</ele><time>2026-04-11T11:59:41.001Z</time></trkpt><trkpt lat="43.357976359917274" lon="12.72131977065991"><ele>670.0</ele><time>2026-04-11T11:59:42.001Z</time></trkpt><trkpt lat="43.35804841919981" lon="12.721202209943778"><ele>667.0</ele><time>2026-04-11T11:59:43.001Z</time></trkpt><trkpt lat="43.35812443010561" lon="12.72110151560039"><ele>664.0</ele><time>2026-04-11T11:59:44.001Z</time></trkpt><trkpt lat="43.35821693819654" lon="12.721011293666228"><ele>664.0</ele><time>2026-04-11T11:59:45.001Z</time></trkpt><trkpt lat="43.35831684897166" lon="12.72094382982611"><ele>664.0</ele><time>2026-04-11T11:59:46.001Z</time></trkpt><trkpt lat="43.35841214508022" lon="12.720886580939329"><ele>664.0</ele><time>2026-04-11T11:59:47.001Z</time></trkpt><trkpt lat="43.35849790950075" lon="12.720832394586303"><ele>664.0</ele><time>2026-04-11T11:59:48.001Z</time></trkpt><trkpt lat="43.35856213379075" lon="12.72078830275385"><ele>664.0</ele><time>2026-04-11T11:59:49.001Z</time></trkpt><trkpt lat="43.35861258577112" lon="12.720727637745185"><ele>664.0</ele><time>2026-04-11T11:59:50.001Z</time></trkpt><trkpt lat="43.358627407218584" lon="12.720635506642232"><ele>664.0</ele><time>2026-04-11T11:59:51.001Z</time></trkpt><trkpt lat="43.358560402919" lon="12.720561814923123"><ele>664.0</ele><time>2026-04-11T11:59:52.001Z</time></trkpt><trkpt lat="43.35848080197292" lon="12.720543231804278"><ele>664.0</ele><time>2026-04-11T11:59:53.001Z</time></trkpt><trkpt lat="43.35836966869105" lon="12.72058289720984"><ele>664.0</ele><time>2026-04-11T11:59:54.001Z</time></trkpt><trkpt lat="43.3582512848381" lon="12.720644857642295"><ele>664.0</ele><time>2026-04-11T11:59:55.001Z</time></trkpt><trkpt lat="43.35812890688686" lon="12.720709180369488"><ele>656.5</ele><time>2026-04-11T11:59:56.001Z</time></trkpt><trkpt lat="43.35801678359159" lon="12.720774003931043"><ele>649.0</ele><time>2026-04-11T11:59:57.001Z</time></trkpt><trkpt lat="43.357908841876956" lon="12.720852015243091"><ele>641.5</ele><time>2026-04-11T11:59:58.001Z</time></trkpt><trkpt lat="43.35779711736544" lon="12.720946376581715"><ele>634.0</ele><time>2026-04-11T11:59:59.001Z</time></trkpt><trkpt lat="43.35768528921953" lon="12.721054809575936"><ele>639.75</ele><time>2026-04-11T12:00:00.001Z</time></trkpt><trkpt lat="43.357578885608824" lon="12.721171432698513"><ele>645.5</ele><time>2026-04-11T12:00:01.001Z</time></trkpt><trkpt lat="43.35748216946332" lon="12.721297365882366"><ele>651.25</ele><time>2026-04-11T12:00:02.001Z</time></trkpt><trkpt lat="43.35740078652938" lon="12.721433498110796"><ele>657.0</ele><time>2026-04-11T12:00:03.001Z</time></trkpt><trkpt lat="43.35732713294255" lon="12.721581930427977"><ele>657.0</ele><time>2026-04-11T12:00:04.001Z</time></trkpt><trkpt lat="43.357249945527315" lon="12.721716566692873"><ele>657.0</ele><time>2026-04-11T12:00:05.001Z</time></trkpt><trkpt lat="43.357169817660036" lon="12.721839525306644"><ele>657.0</ele><time>2026-04-11T12:00:06.001Z</time></trkpt><trkpt lat="43.357094165703714" lon="12.721965270754891"><ele>657.0</ele><time>2026-04-11T12:00:07.001Z</time></trkpt><trkpt lat="43.35703245952254" lon="12.722098169224688"><ele>653.2</ele><time>2026-04-11T12:00:08.001Z</time></trkpt><trkpt lat="43.35697351999957" lon="12.722232778949618"><ele>649.4000000000001</ele><time>2026-04-11T12:00:09.001Z</time></trkpt><trkpt lat="43.3569229704727" lon="12.722362188315916"><ele>645.5999999999999</ele><time>2026-04-11T12:00:10.002Z</time></trkpt><trkpt lat="43.35688129783072" lon="12.722477310648364"><ele>641.8</ele><time>2026-04-11T12:00:11.002Z</time></trkpt><trkpt lat="43.35682819031563" lon="12.722558967599971"><ele>638.0</ele><time>2026-04-11T12:00:12.002Z</time></trkpt><trkpt lat="43.35676336715578" lon="12.722589971485617"><ele>638.0</ele><time>2026-04-11T12:00:13.002Z</time></trkpt><trkpt lat="43.35670136606982" lon="12.722572870937988"><ele>638.0</ele><time>2026-04-11T12:00:14.002Z</time></trkpt><trkpt lat="43.35667147437561" lon="12.722489593193332"><ele>638.0</ele><time>2026-04-11T12:00:15.002Z</time></trkpt><trkpt lat="43.35671617453472" lon="12.72238910674146"><ele>638.0</ele><time>2026-04-11T12:00:16.002Z</time></trkpt><trkpt lat="43.356789320960694" lon="12.722301934417274"><ele>638.0</ele><time>2026-04-11T12:00:17.002Z</time></trkpt><trkpt lat="43.356858548716" lon="12.722165277005601"><ele>638.0</ele><time>2026-04-11T12:00:18.002Z</time></trkpt><trkpt lat="43.35692377700405" lon="12.722005920601353"><ele>632.25</ele><time>2026-04-11T12:00:19.002Z</time></trkpt><trkpt lat="43.356960418448786" lon="12.72183876207925"><ele>626.5</ele><time>2026-04-11T12:00:20.002Z</time></trkpt><trkpt lat="43.35700914391871" lon="12.721684311602223"><ele>620.75</ele><time>2026-04-11T12:00:21.002Z</time></trkpt><trkpt lat="43.35705830400249" lon="12.721529874839518"><ele>615.0</ele><time>2026-04-11T12:00:22.002Z</time></trkpt><trkpt lat="43.35711283444029" lon="12.721375169778117"><ele>615.0</ele><time>2026-04-11T12:00:23.002Z</time></trkpt><trkpt lat="43.357128282592626" lon="12.721198789426222"><ele>615.0</ele><time>2026-04-11T12:00:24.002Z</time></trkpt><trkpt lat="43.35712674359165" lon="12.721023904761267"><ele>615.0</ele><time>2026-04-11T12:00:25.002Z</time></trkpt><trkpt lat="43.35711629181612" lon="12.720869442271693"><ele>615.0</ele><time>2026-04-11T12:00:26.002Z</time></trkpt><trkpt lat="43.35716218194074" lon="12.720727717007293"><ele>619.75</ele><time>2026-04-11T12:00:27.002Z</time></trkpt><trkpt lat="43.35722918728182" lon="12.720621307020929"><ele>624.5</ele><time>2026-04-11T12:00:28.002Z</time></trkpt><trkpt lat="43.35731262714559" lon="12.72051979832054"><ele>629.25</ele><time>2026-04-11T12:00:29.001Z</time></trkpt><trkpt lat="43.357402364382416" lon="12.720396684241164"><ele>634.0</ele><time>2026-04-11T12:00:30.001Z</time></trkpt><trkpt lat="43.35750256644937" lon="12.720282487629394"><ele>626.5</ele><time>2026-04-11T12:00:31.001Z</time></trkpt><trkpt lat="43.3576038688582" lon="12.720177908175566"><ele>619.0</ele><time>2026-04-11T12:00:32.001Z</time></trkpt><trkpt lat="43.35769449212293" lon="12.720050177187577"><ele>611.5</ele><time>2026-04-11T12:00:33.001Z</time></trkpt><trkpt lat="43.357811363198145" lon="12.719957405937619"><ele>604.0</ele><time>2026-04-11T12:00:34.001Z</time></trkpt><trkpt lat="43.35792022749222" lon="12.719842238173626"><ele>602.5</ele><time>2026-04-11T12:00:35.001Z</time></trkpt><trkpt lat="43.35804013101756" lon="12.719743309239727"><ele>601.0</ele><time>2026-04-11T12:00:36.001Z</time></trkpt><trkpt lat="43.35815280105348" lon="12.719637959331122"><ele>599.5</ele><time>2026-04-11T12:00:37.001Z</time></trkpt><trkpt lat="43.35824852513796" lon="12.719524647420336"><ele>598.0</ele><time>2026-04-11T12:00:38.001Z</time></trkpt><trkpt lat="43.35832576841312" lon="12.719394138376312"><ele>598.0</ele><time>2026-04-11T12:00:39.001Z</time></trkpt><trkpt lat="43.35838963672386" lon="12.719238582251007"><ele>598.0</ele><time>2026-04-11T12:00:40.001Z</time></trkpt><trkpt lat="43.35842696510808" lon="12.719064497605341"><ele>598.0</ele><time>2026-04-11T12:00:41Z</time></trkpt><trkpt lat="43.35844317231203" lon="12.718896792016068"><ele>598.0</ele><time>2026-04-11T12:00:42Z</time></trkpt><trkpt lat="43.358450922832844" lon="12.71874675284373"><ele>598.0</ele><time>2026-04-11T12:00:43Z</time></trkpt><trkpt lat="43.358523904980444" lon="12.71865523095257"><ele>598.0</ele><time>2026-04-11T12:00:44Z</time></trkpt><trkpt lat="43.35861678762738" lon="12.718586321136168"><ele>598.0</ele><time>2026-04-11T12:00:45Z</time></trkpt><trkpt lat="43.3587210950616" lon="12.718541356065929"><ele>598.0</ele><time>2026-04-11T12:00:46Z</time></trkpt><trkpt lat="43.358830247129944" lon="12.718492408365561"><ele>598.0</ele><time>2026-04-11T12:00:47Z</time></trkpt><trkpt lat="43.35893479439124" lon="12.718449528792881"><ele>599.5</ele><time>2026-04-11T12:00:48Z</time></trkpt><trkpt lat="43.359031948546296" lon="12.718366951875597"><ele>601.0</ele><time>2026-04-11T12:00:49Z</time></trkpt><trkpt lat="43.35910285083503" lon="12.71824114619624"><ele>602.5</ele><time>2026-04-11T12:00:50Z</time></trkpt><trkpt lat="43.35916696552782" lon="12.718075445714305"><ele>604.0</ele><time>2026-04-11T12:00:51Z</time></trkpt><trkpt lat="43.359221163536134" lon="12.717896883961162"><ele>597.5</ele><time>2026-04-11T12:00:52Z</time></trkpt><trkpt lat="43.359277883837876" lon="12.717724363579402"><ele>591.0</ele><time>2026-04-11T12:00:53Z</time></trkpt><trkpt lat="43.359339404364334" lon="12.71755800563817"><ele>584.5</ele><time>2026-04-11T12:00:54Z</time></trkpt><trkpt lat="43.35938025569764" lon="12.71739839935704"><ele>578.0</ele><time>2026-04-11T12:00:55Z</time></trkpt><trkpt lat="43.35939414182038" lon="12.717246941591617"><ele>578.0</ele><time>2026-04-11T12:00:56Z</time></trkpt><trkpt lat="43.35944213222011" lon="12.717101924899978"><ele>578.0</ele><time>2026-04-11T12:00:57Z</time></trkpt><trkpt lat="43.3595236208619" lon="12.716990690358374"><ele>578.0</ele><time>2026-04-11T12:00:58Z</time></trkpt><trkpt lat="43.359594950466985" lon="12.716844883915028"><ele>578.0</ele><time>2026-04-11T12:00:59Z</time></trkpt><trkpt lat="43.35967971774823" lon="12.716712895008037"><ele>578.6</ele><time>2026-04-11T12:01:00Z</time></trkpt><trkpt lat="43.35975314409553" lon="12.716579344407092"><ele>579.1999999999999</ele><time>2026-04-11T12:01:01Z</time></trkpt><trkpt lat="43.359822962196546" lon="12.716470905389322"><ele>579.8</ele><time>2026-04-11T12:01:02Z</time></trkpt><trkpt lat="43.3599132411548" lon="12.716391757584239"><ele>580.4</ele><time>2026-04-11T12:01:03.001Z</time></trkpt><trkpt lat="43.360014261353044" lon="12.716330362558995"><ele>581.0</ele><time>2026-04-11T12:01:04.001Z</time></trkpt><trkpt lat="43.360115206867356" lon="12.716266485870777"><ele>581.0</ele><time>2026-04-11T12:01:05.001Z</time></trkpt><trkpt lat="43.36020964383777" lon="12.716199104099768"><ele>581.0</ele><time>2026-04-11T12:01:06.001Z</time></trkpt><trkpt lat="43.3602893277033" lon="12.716129660864683"><ele>581.0</ele><time>2026-04-11T12:01:07.001Z</time></trkpt><trkpt lat="43.36036806363115" lon="12.716071736268132"><ele>581.0</ele><time>2026-04-11T12:01:08.001Z</time></trkpt><trkpt lat="43.36044735193341" lon="12.716071226594984"><ele>581.0</ele><time>2026-04-11T12:01:09.001Z</time></trkpt><trkpt lat="43.36051178951995" lon="12.71614798904708"><ele>578.4</ele><time>2026-04-11T12:01:10.001Z</time></trkpt><trkpt lat="43.36053960381011" lon="12.716306414140659"><ele>575.8</ele><time>2026-04-11T12:01:11.001Z</time></trkpt><trkpt lat="43.36060324417229" lon="12.71641646110415"><ele>573.1999999999999</ele><time>2026-04-11T12:01:12.001Z</time></trkpt><trkpt lat="43.36067958112212" lon="12.716524964522764"><ele>570.6</ele><time>2026-04-11T12:01:13.001Z</time></trkpt><trkpt lat="43.36076277671857" lon="12.716614971176435"><ele>568.0</ele><time>2026-04-11T12:01:14.001Z</time></trkpt><trkpt lat="43.36084393633089" lon="12.716700029958915"><ele>568.0</ele><time>2026-04-11T12:01:15.001Z</time></trkpt><trkpt lat="43.36091913005867" lon="12.716783615289579"><ele>568.0</ele><time>2026-04-11T12:01:16.001Z</time></trkpt><trkpt lat="43.36099518001492" lon="12.716865323033446"><ele>568.0</ele><time>2026-04-11T12:01:17.001Z</time></trkpt><trkpt lat="43.361081545025634" lon="12.716942181215801"><ele>568.0</ele><time>2026-04-11T12:01:18.001Z</time></trkpt><trkpt lat="43.361168328080105" lon="12.717009246219892"><ele>568.0</ele><time>2026-04-11T12:01:19.001Z</time></trkpt><trkpt lat="43.36126045870604" lon="12.717068818664108"><ele>568.5</ele><time>2026-04-11T12:01:20.001Z</time></trkpt><trkpt lat="43.361355097068206" lon="12.717116123361421"><ele>569.0</ele><time>2026-04-11T12:01:21.001Z</time></trkpt><trkpt lat="43.36143246119551" lon="12.717149147836782"><ele>569.5</ele><time>2026-04-11T12:01:22.001Z</time></trkpt><trkpt lat="43.36150549182331" lon="12.717189951362789"><ele>570.0</ele><time>2026-04-11T12:01:23.001Z</time></trkpt><trkpt lat="43.36157475691481" lon="12.717215072111708"><ele>570.5</ele><time>2026-04-11T12:01:24.001Z</time></trkpt><trkpt lat="43.36164377033007" lon="12.71723010169922"><ele>571.0</ele><time>2026-04-11T12:01:25.001Z</time></trkpt><trkpt lat="43.36173687217284" lon="12.71728412545984"><ele>571.0</ele><time>2026-04-11T12:01:27.001Z</time></trkpt><trkpt lat="43.36180276111838" lon="12.717328043735824"><ele>571.0</ele><time>2026-04-11T12:01:29.001Z</time></trkpt><trkpt lat="43.36185198385466" lon="12.717387474493613"><ele>571.0</ele><time>2026-04-11T12:01:31.001Z</time></trkpt><trkpt lat="43.36185877062104" lon="12.717059355519755"><ele>571.0</ele><time>2026-04-11T12:01:41.001Z</time></trkpt><trkpt lat="43.361882434050955" lon="12.717144435582792"><ele>571.0</ele><time>2026-04-11T12:06:45.001Z</time></trkpt><trkpt lat="43.36193242982579" lon="12.71721636471429"><ele>571.0</ele><time>2026-04-11T12:06:51Z</time></trkpt><trkpt lat="43.361994335389376" lon="12.717244706696086"><ele>571.0</ele><time>2026-04-11T12:06:57Z</time></trkpt><trkpt lat="43.36204553737393" lon="12.717305576289151"><ele>571.0</ele><time>2026-04-11T12:07:09Z</time></trkpt><trkpt lat="43.361986152184386" lon="12.717269987290006"><ele>571.0</ele><time>2026-04-11T13:28:53Z</time></trkpt><trkpt lat="43.36193364085671" lon="12.717213242830853"><ele>571.0</ele><time>2026-04-11T13:29:01Z</time></trkpt><trkpt lat="43.361889357402845" lon="12.717137087308531"><ele>571.0</ele><time>2026-04-11T13:29:08Z</time></trkpt><trkpt lat="43.36185016670894" lon="12.717068989160285"><ele>571.0</ele><time>2026-04-11T13:29:16Z</time></trkpt><trkpt lat="43.36178293585558" lon="12.717073062510604"><ele>571.0</ele><time>2026-04-11T13:42:22Z</time></trkpt><trkpt lat="43.36181255482109" lon="12.717205191144217"><ele>571.0</ele><time>2026-04-11T13:43:09Z</time></trkpt><trkpt lat="43.36183784846764" lon="12.71731967837117"><ele>571.0</ele><time>2026-04-11T13:43:13Z</time></trkpt><trkpt lat="43.36188588190957" lon="12.717385740336011"><ele>571.0</ele><time>2026-04-11T13:43:15Z</time></trkpt><trkpt lat="43.36196213829894" lon="12.717447281890383"><ele>571.0</ele><time>2026-04-11T13:43:17Z</time></trkpt><trkpt lat="43.36205661476197" lon="12.71750155441636"><ele>571.0</ele><time>2026-04-11T13:43:19Z</time></trkpt><trkpt lat="43.3621490876277" lon="12.717536532500311"><ele>570.6</ele><time>2026-04-11T13:43:20Z</time></trkpt><trkpt lat="43.36226601059416" lon="12.717514524982398"><ele>570.2</ele><time>2026-04-11T13:43:22Z</time></trkpt><trkpt lat="43.36234664744659" lon="12.71743797686929"><ele>569.8</ele><time>2026-04-11T13:43:23.999Z</time></trkpt><trkpt lat="43.3623945612605" lon="12.717312029501167"><ele>569.4</ele><time>2026-04-11T13:43:25.999Z</time></trkpt><trkpt lat="43.36239886725498" lon="12.717210760796995"><ele>569.0</ele><time>2026-04-11T13:43:26.999Z</time></trkpt><trkpt lat="43.36237984690292" lon="12.717098793088857"><ele>569.0</ele><time>2026-04-11T13:43:27.999Z</time></trkpt><trkpt lat="43.36234964957219" lon="12.71698856995187"><ele>569.0</ele><time>2026-04-11T13:43:28.999Z</time></trkpt><trkpt lat="43.36231300072786" lon="12.7168797424828"><ele>569.0</ele><time>2026-04-11T13:43:29.999Z</time></trkpt><trkpt lat="43.362273226203996" lon="12.716765584875809"><ele>569.0</ele><time>2026-04-11T13:43:30.999Z</time></trkpt><trkpt lat="43.36223373529425" lon="12.716645788869915"><ele>569.0</ele><time>2026-04-11T13:43:31.999Z</time></trkpt><trkpt lat="43.36219369989261" lon="12.716519737877672"><ele>566.4</ele><time>2026-04-11T13:43:32.999Z</time></trkpt><trkpt lat="43.362144044795265" lon="12.716399898308104"><ele>563.8</ele><time>2026-04-11T13:43:33.999Z</time></trkpt><trkpt lat="43.36210012789382" lon="12.716265788651375"><ele>561.2</ele><time>2026-04-11T13:43:34.999Z</time></trkpt><trkpt lat="43.36203264016646" lon="12.716147416978254"><ele>558.6</ele><time>2026-04-11T13:43:35.999Z</time></trkpt><trkpt lat="43.36194397756059" lon="12.716047406878493"><ele>556.0</ele><time>2026-04-11T13:43:36.999Z</time></trkpt><trkpt lat="43.36184286783455" lon="12.715972962724505"><ele>556.0</ele><time>2026-04-11T13:43:37.999Z</time></trkpt><trkpt lat="43.361743676986414" lon="12.715902430855627"><ele>556.0</ele><time>2026-04-11T13:43:38.999Z</time></trkpt><trkpt lat="43.36164551654329" lon="12.715834632114465"><ele>556.0</ele><time>2026-04-11T13:43:39.999Z</time></trkpt><trkpt lat="43.36154450185728" lon="12.715778188443572"><ele>556.0</ele><time>2026-04-11T13:43:41Z</time></trkpt><trkpt lat="43.36144878976675" lon="12.715703618337812"><ele>556.0</ele><time>2026-04-11T13:43:42Z</time></trkpt><trkpt lat="43.36136229451753" lon="12.715608921512706"><ele>554.6</ele><time>2026-04-11T13:43:43Z</time></trkpt><trkpt lat="43.36129171442011" lon="12.715495184672559"><ele>553.2</ele><time>2026-04-11T13:43:44Z</time></trkpt><trkpt lat="43.361227980697116" lon="12.715366393294666"><ele>551.8</ele><time>2026-04-11T13:43:45Z</time></trkpt><trkpt lat="43.36116566067413" lon="12.715235943016317"><ele>550.4</ele><time>2026-04-11T13:43:46Z</time></trkpt><trkpt lat="43.36110837041853" lon="12.7151063768111"><ele>549.0</ele><time>2026-04-11T13:43:47Z</time></trkpt><trkpt lat="43.36105097362811" lon="12.714970740006367"><ele>547.25</ele><time>2026-04-11T13:43:48Z</time></trkpt><trkpt lat="43.36099122015444" lon="12.714834806494757"><ele>545.5</ele><time>2026-04-11T13:43:49Z</time></trkpt><trkpt lat="43.36093191546871" lon="12.71469486146133"><ele>543.75</ele><time>2026-04-11T13:43:50Z</time></trkpt><trkpt lat="43.360870382357426" lon="12.714553918894486"><ele>542.0</ele><time>2026-04-11T13:43:51Z</time></trkpt><trkpt lat="43.36081151388506" lon="12.714417982907426"><ele>541.4</ele><time>2026-04-11T13:43:52Z</time></trkpt><trkpt lat="43.360756199295885" lon="12.714301707678656"><ele>540.8000000000001</ele><time>2026-04-11T13:43:53Z</time></trkpt><trkpt lat="43.36070218263067" lon="12.714207199700274"><ele>540.2</ele><time>2026-04-11T13:43:54Z</time></trkpt><trkpt lat="43.36065328636021" lon="12.714132076926608"><ele>539.6</ele><time>2026-04-11T13:43:55Z</time></trkpt><trkpt lat="43.3606035304304" lon="12.714071654016445"><ele>539.0</ele><time>2026-04-11T13:43:56Z</time></trkpt><trkpt lat="43.36050907666543" lon="12.713965283648813"><ele>538.2</ele><time>2026-04-11T13:43:58Z</time></trkpt><trkpt lat="43.360423549806995" lon="12.713880852193455"><ele>537.4</ele><time>2026-04-11T13:44:00Z</time></trkpt><trkpt lat="43.36036493564949" lon="12.713827710996771"><ele>536.6</ele><time>2026-04-11T13:44:02Z</time></trkpt><trkpt lat="43.360308169863885" lon="12.713775786129826"><ele>535.8</ele><time>2026-04-11T13:44:05Z</time></trkpt><trkpt lat="43.360268129544565" lon="12.713687096959793"><ele>535.0</ele><time>2026-04-11T13:44:08Z</time></trkpt><trkpt lat="43.360344155705214" lon="12.713537752713655"><ele>537.2</ele><time>2026-04-11T13:44:10Z</time></trkpt><trkpt lat="43.360408907250836" lon="12.713447096664925"><ele>539.4</ele><time>2026-04-11T13:44:11Z</time></trkpt><trkpt lat="43.360484376832375" lon="12.713348486112816"><ele>541.6</ele><time>2026-04-11T13:44:12Z</time></trkpt><trkpt lat="43.360556250701315" lon="12.713233320928667"><ele>543.8</ele><time>2026-04-11T13:44:13Z</time></trkpt><trkpt lat="43.36062316419198" lon="12.713111733248644"><ele>546.0</ele><time>2026-04-11T13:44:14Z</time></trkpt><trkpt lat="43.36067760741232" lon="12.71299837809507"><ele>546.0</ele><time>2026-04-11T13:44:15Z</time></trkpt><trkpt lat="43.36072265748171" lon="12.712892812264972"><ele>546.0</ele><time>2026-04-11T13:44:16Z</time></trkpt><trkpt lat="43.36076149224652" lon="12.712793151184721"><ele>546.0</ele><time>2026-04-11T13:44:17Z</time></trkpt><trkpt lat="43.36079488267394" lon="12.712698980308554"><ele>546.0</ele><time>2026-04-11T13:44:18Z</time></trkpt><trkpt lat="43.36082625429584" lon="12.712618620428435"><ele>546.0</ele><time>2026-04-11T13:44:19Z</time></trkpt><trkpt lat="43.36087446971804" lon="12.712499120547964"><ele>546.0</ele><time>2026-04-11T13:44:21Z</time></trkpt><trkpt lat="43.36089389229292" lon="12.71240624065243"><ele>546.6</ele><time>2026-04-11T13:44:23Z</time></trkpt><trkpt lat="43.36091048903693" lon="12.712320241975826"><ele>547.2</ele><time>2026-04-11T13:44:25Z</time></trkpt><trkpt lat="43.36082940841023" lon="12.712210114156699"><ele>547.8</ele><time>2026-04-11T13:44:26Z</time></trkpt><trkpt lat="43.36077955576208" lon="12.712137017129743"><ele>548.4</ele><time>2026-04-11T13:44:27Z</time></trkpt><trkpt lat="43.36072727102827" lon="12.712057887610474"><ele>549.0</ele><time>2026-04-11T13:44:28Z</time></trkpt><trkpt lat="43.36059495899019" lon="12.712072154523204"><ele>549.0</ele><time>2026-04-11T13:44:29Z</time></trkpt><trkpt lat="43.36054016393573" lon="12.71200169704607"><ele>549.0</ele><time>2026-04-11T13:44:30Z</time></trkpt><trkpt lat="43.36047531889986" lon="12.711934624944417"><ele>549.0</ele><time>2026-04-11T13:44:31Z</time></trkpt><trkpt lat="43.36042352642826" lon="12.711874603097346"><ele>549.0</ele><time>2026-04-11T13:44:32Z</time></trkpt><trkpt lat="43.36033529089771" lon="12.711749971574907"><ele>549.0</ele><time>2026-04-11T13:44:34Z</time></trkpt><trkpt lat="43.360286727082666" lon="12.711690468997565"><ele>549.0</ele><time>2026-04-11T13:44:35Z</time></trkpt><trkpt lat="43.36021457019893" lon="12.711590060985317"><ele>549.4</ele><time>2026-04-11T13:44:37Z</time></trkpt><trkpt lat="43.36012627332756" lon="12.711495298203461"><ele>549.8</ele><time>2026-04-11T13:44:39Z</time></trkpt><trkpt lat="43.360044925796174" lon="12.711378890220129"><ele>550.2</ele><time>2026-04-11T13:44:41Z</time></trkpt><trkpt lat="43.3600007581298" lon="12.711260752943495"><ele>550.6</ele><time>2026-04-11T13:44:43Z</time></trkpt><trkpt lat="43.35995594454638" lon="12.711120604402497"><ele>551.0</ele><time>2026-04-11T13:44:45Z</time></trkpt><trkpt lat="43.35989910076006" lon="12.710977483031893"><ele>550.9999999999999</ele><time>2026-04-11T13:44:47Z</time></trkpt><trkpt lat="43.35986907253732" lon="12.710897744780578"><ele>551.0</ele><time>2026-04-11T13:44:48Z</time></trkpt><trkpt lat="43.3598236378473" lon="12.710818843815106"><ele>551.0</ele><time>2026-04-11T13:44:49Z</time></trkpt><trkpt lat="43.35977525017104" lon="12.710754855965208"><ele>551.0</ele><time>2026-04-11T13:44:50Z</time></trkpt><trkpt lat="43.35972551246006" lon="12.710691741706595"><ele>551.0</ele><time>2026-04-11T13:44:51Z</time></trkpt><trkpt lat="43.359678022283084" lon="12.710618017447208"><ele>550.9999999999999</ele><time>2026-04-11T13:44:52Z</time></trkpt><trkpt lat="43.359624623611424" lon="12.710538966208516"><ele>551.0</ele><time>2026-04-11T13:44:53Z</time></trkpt><trkpt lat="43.35957181923672" lon="12.710457508865986"><ele>550.8571428571428</ele><time>2026-04-11T13:44:54Z</time></trkpt><trkpt lat="43.359522218021326" lon="12.710385658034673"><ele>550.7142857142857</ele><time>2026-04-11T13:44:55Z</time></trkpt><trkpt lat="43.359472228555276" lon="12.710314081050095"><ele>550.5714285714286</ele><time>2026-04-11T13:44:56Z</time></trkpt><trkpt lat="43.35942149600717" lon="12.710247725351493"><ele>550.4285714285713</ele><time>2026-04-11T13:44:57Z</time></trkpt><trkpt lat="43.359365456136274" lon="12.710182232730128"><ele>550.2857142857142</ele><time>2026-04-11T13:44:58Z</time></trkpt><trkpt lat="43.35929776359548" lon="12.710128019568726"><ele>550.1428571428571</ele><time>2026-04-11T13:44:59Z</time></trkpt><trkpt lat="43.35922718990272" lon="12.710085865028082"><ele>550.0</ele><time>2026-04-11T13:45:00Z</time></trkpt><trkpt lat="43.35915602090754" lon="12.710055131991487"><ele>550.0</ele><time>2026-04-11T13:45:01Z</time></trkpt><trkpt lat="43.35908687115741" lon="12.710047353922091"><ele>550.0</ele><time>2026-04-11T13:45:02Z</time></trkpt><trkpt lat="43.3590154248335" lon="12.710051730091234"><ele>550.0</ele><time>2026-04-11T13:45:03Z</time></trkpt><trkpt lat="43.35894364624899" lon="12.710071914136597"><ele>550.0</ele><time>2026-04-11T13:45:04Z</time></trkpt><trkpt lat="43.35887073698133" lon="12.710096048287975"><ele>550.0</ele><time>2026-04-11T13:45:05Z</time></trkpt><trkpt lat="43.358801018119564" lon="12.710118686433194"><ele>550.0</ele><time>2026-04-11T13:45:06Z</time></trkpt><trkpt lat="43.358728833991066" lon="12.71013695192506"><ele>550.0</ele><time>2026-04-11T13:45:07Z</time></trkpt><trkpt lat="43.35866287738584" lon="12.710155867768304"><ele>549.2</ele><time>2026-04-11T13:45:08Z</time></trkpt><trkpt lat="43.3585504744361" lon="12.710213552141385"><ele>548.4</ele><time>2026-04-11T13:45:10Z</time></trkpt><trkpt lat="43.35843975627266" lon="12.710260330579043"><ele>547.6</ele><time>2026-04-11T13:45:12Z</time></trkpt><trkpt lat="43.358321429325116" lon="12.71029635235105"><ele>546.8</ele><time>2026-04-11T13:45:14Z</time></trkpt><trkpt lat="43.35825821830015" lon="12.710314872570438"><ele>546.0</ele><time>2026-04-11T13:45:15Z</time></trkpt><trkpt lat="43.358141404352" lon="12.710352461653692"><ele>546.4</ele><time>2026-04-11T13:45:17Z</time></trkpt><trkpt lat="43.35802987436649" lon="12.710388674838471"><ele>546.8</ele><time>2026-04-11T13:45:19Z</time></trkpt><trkpt lat="43.3579172787203" lon="12.710429103962921"><ele>547.1999999999999</ele><time>2026-04-11T13:45:21Z</time></trkpt><trkpt lat="43.35782234023206" lon="12.710460255907737"><ele>547.6</ele><time>2026-04-11T13:45:23Z</time></trkpt><trkpt lat="43.357748170377356" lon="12.710483820174"><ele>548.0</ele><time>2026-04-11T13:45:25Z</time></trkpt><trkpt lat="43.357674962207064" lon="12.710507903254568"><ele>548.0</ele><time>2026-04-11T13:45:27Z</time></trkpt><trkpt lat="43.35759864730581" lon="12.710510487310502"><ele>548.0</ele><time>2026-04-11T13:45:28.999Z</time></trkpt><trkpt lat="43.357518114623566" lon="12.710466327977716"><ele>548.0</ele><time>2026-04-11T13:45:31.999Z</time></trkpt><trkpt lat="43.357456362976116" lon="12.710429037249316"><ele>548.0</ele><time>2026-04-11T13:45:48Z</time></trkpt><trkpt lat="43.35737511392433" lon="12.710401534444605"><ele>548.0</ele><time>2026-04-11T13:45:51Z</time></trkpt><trkpt lat="43.35729411993357" lon="12.710285348651823"><ele>548.0</ele><time>2026-04-11T13:45:53Z</time></trkpt><trkpt lat="43.357240566565885" lon="12.710199072419696"><ele>545.8</ele><time>2026-04-11T13:45:54Z</time></trkpt><trkpt lat="43.35718276532438" lon="12.71010358336937"><ele>543.5999999999999</ele><time>2026-04-11T13:45:55Z</time></trkpt><trkpt lat="43.35712281759229" lon="12.710003631857289"><ele>541.4000000000001</ele><time>2026-04-11T13:45:56Z</time></trkpt><trkpt lat="43.35704755893474" lon="12.709909746775987"><ele>539.2</ele><time>2026-04-11T13:45:57Z</time></trkpt><trkpt lat="43.35699296743519" lon="12.70979235372516"><ele>537.0</ele><time>2026-04-11T13:45:58Z</time></trkpt><trkpt lat="43.35693124592055" lon="12.709675885383708"><ele>537.0</ele><time>2026-04-11T13:45:59Z</time></trkpt><trkpt lat="43.35687122635039" lon="12.709558660297779"><ele>537.0</ele><time>2026-04-11T13:46:00Z</time></trkpt><trkpt lat="43.356806237013345" lon="12.709443713563964"><ele>537.0</ele><time>2026-04-11T13:46:01Z</time></trkpt><trkpt lat="43.356743948651875" lon="12.709333699635588"><ele>537.0</ele><time>2026-04-11T13:46:02Z</time></trkpt><trkpt lat="43.35668759333556" lon="12.709208389489277"><ele>537.0</ele><time>2026-04-11T13:46:03Z</time></trkpt><trkpt lat="43.3566238802954" lon="12.70909226899221"><ele>536.6</ele><time>2026-04-11T13:46:04Z</time></trkpt><trkpt lat="43.35655519633474" lon="12.70898036341383"><ele>536.2</ele><time>2026-04-11T13:46:05Z</time></trkpt><trkpt lat="43.356483091379374" lon="12.708869613048766"><ele>535.8</ele><time>2026-04-11T13:46:06Z</time></trkpt><trkpt lat="43.356408011620694" lon="12.70876710027436"><ele>535.4</ele><time>2026-04-11T13:46:07Z</time></trkpt><trkpt lat="43.356344392340105" lon="12.708651865075302"><ele>535.0</ele><time>2026-04-11T13:46:08Z</time></trkpt><trkpt lat="43.35625693680047" lon="12.708565856148748"><ele>533.8</ele><time>2026-04-11T13:46:09Z</time></trkpt><trkpt lat="43.35618007004188" lon="12.708468707505967"><ele>532.6</ele><time>2026-04-11T13:46:10Z</time></trkpt><trkpt lat="43.35610921892521" lon="12.708375348163036"><ele>531.4</ele><time>2026-04-11T13:46:11Z</time></trkpt><trkpt lat="43.35603518825322" lon="12.708291365063461"><ele>530.2</ele><time>2026-04-11T13:46:12Z</time></trkpt><trkpt lat="43.35596102928429" lon="12.708210576800711"><ele>529.0</ele><time>2026-04-11T13:46:13Z</time></trkpt><trkpt lat="43.35588250991227" lon="12.708129243130285"><ele>529.0</ele><time>2026-04-11T13:46:14Z</time></trkpt><trkpt lat="43.35580574846986" lon="12.708045419085726"><ele>529.0</ele><time>2026-04-11T13:46:15Z</time></trkpt><trkpt lat="43.35573143966528" lon="12.707955705518373"><ele>529.0</ele><time>2026-04-11T13:46:16Z</time></trkpt><trkpt lat="43.355656492360886" lon="12.707868567750227"><ele>529.0</ele><time>2026-04-11T13:46:17Z</time></trkpt><trkpt lat="43.3555804410119" lon="12.707773797618664"><ele>529.0</ele><time>2026-04-11T13:46:18Z</time></trkpt><trkpt lat="43.3555113110262" lon="12.707677036617758"><ele>526.5</ele><time>2026-04-11T13:46:19Z</time></trkpt><trkpt lat="43.35545186080139" lon="12.70758688183364"><ele>524.0</ele><time>2026-04-11T13:46:20Z</time></trkpt><trkpt lat="43.35539421885558" lon="12.70750334779735"><ele>521.5</ele><time>2026-04-11T13:46:21Z</time></trkpt><trkpt lat="43.35533988273155" lon="12.707426448560938"><ele>519.0</ele><time>2026-04-11T13:46:22Z</time></trkpt><trkpt lat="43.35530269132425" lon="12.70733222424614"><ele>516.5</ele><time>2026-04-11T13:46:23Z</time></trkpt><trkpt lat="43.355275765812" lon="12.707246144231163"><ele>514.0</ele><time>2026-04-11T13:46:24Z</time></trkpt><trkpt lat="43.355242071443286" lon="12.707170467962388"><ele>514.0</ele><time>2026-04-11T13:46:25Z</time></trkpt><trkpt lat="43.35518867323204" lon="12.707099113835167"><ele>514.0</ele><time>2026-04-11T13:46:26Z</time></trkpt><trkpt lat="43.35511939698594" lon="12.707028790180052"><ele>514.0</ele><time>2026-04-11T13:46:27Z</time></trkpt><trkpt lat="43.355040261052494" lon="12.70695807363173"><ele>514.0</ele><time>2026-04-11T13:46:28Z</time></trkpt><trkpt lat="43.354952313093925" lon="12.706879258722843"><ele>514.0</ele><time>2026-04-11T13:46:29Z</time></trkpt><trkpt lat="43.3548579025263" lon="12.706792720526478"><ele>511.25</ele><time>2026-04-11T13:46:30Z</time></trkpt><trkpt lat="43.354758540059294" lon="12.706701018851184"><ele>508.5</ele><time>2026-04-11T13:46:31Z</time></trkpt><trkpt lat="43.35466645656898" lon="12.706608147290794"><ele>505.75</ele><time>2026-04-11T13:46:32Z</time></trkpt><trkpt lat="43.35457280997229" lon="12.7065168760289"><ele>503.0</ele><time>2026-04-11T13:46:33Z</time></trkpt><trkpt lat="43.35447783345932" lon="12.706424430974476"><ele>501.59999999999997</ele><time>2026-04-11T13:46:34Z</time></trkpt><trkpt lat="43.35438586075632" lon="12.706334403121902"><ele>500.19999999999993</ele><time>2026-04-11T13:46:35Z</time></trkpt><trkpt lat="43.35429709649786" lon="12.706248552611733"><ele>498.8</ele><time>2026-04-11T13:46:36Z</time></trkpt><trkpt lat="43.35421850079496" lon="12.706171498789006"><ele>497.4</ele><time>2026-04-11T13:46:37Z</time></trkpt><trkpt lat="43.354144498900475" lon="12.706099926701539"><ele>496.0</ele><time>2026-04-11T13:46:38Z</time></trkpt><trkpt lat="43.35407625078514" lon="12.706034191009161"><ele>494.33333333333337</ele><time>2026-04-11T13:46:39Z</time></trkpt><trkpt lat="43.35402559120249" lon="12.705970763221204"><ele>492.6666666666667</ele><time>2026-04-11T13:46:40Z</time></trkpt><trkpt lat="43.353998454201175" lon="12.705892498401568"><ele>491.0</ele><time>2026-04-11T13:46:41Z</time></trkpt><trkpt lat="43.35404162172446" lon="12.705722510005836"><ele>489.33333333333337</ele><time>2026-04-11T13:46:43Z</time></trkpt><trkpt lat="43.354094338469714" lon="12.705638654078301"><ele>487.6666666666667</ele><time>2026-04-11T13:46:44Z</time></trkpt><trkpt lat="43.35416060800913" lon="12.705535701818613"><ele>486.0</ele><time>2026-04-11T13:46:45Z</time></trkpt><trkpt lat="43.35423540949766" lon="12.705418978920767"><ele>486.0</ele><time>2026-04-11T13:46:46Z</time></trkpt><trkpt lat="43.35430307036099" lon="12.705289201810865"><ele>486.0</ele><time>2026-04-11T13:46:47Z</time></trkpt><trkpt lat="43.35436864235132" lon="12.705143788299663"><ele>486.0</ele><time>2026-04-11T13:46:48Z</time></trkpt><trkpt lat="43.35443130150819" lon="12.70499339209778"><ele>486.0</ele><time>2026-04-11T13:46:49Z</time></trkpt><trkpt lat="43.35449572820273" lon="12.704844569032016"><ele>484.25</ele><time>2026-04-11T13:46:50Z</time></trkpt><trkpt lat="43.35455920809277" lon="12.704698449169038"><ele>482.5</ele><time>2026-04-11T13:46:51Z</time></trkpt><trkpt lat="43.354616633614825" lon="12.70455742867997"><ele>480.75</ele><time>2026-04-11T13:46:52Z</time></trkpt><trkpt lat="43.354664291281665" lon="12.704417962691272"><ele>479.0</ele><time>2026-04-11T13:46:53Z</time></trkpt><trkpt lat="43.35470186260215" lon="12.704281177915332"><ele>479.4</ele><time>2026-04-11T13:46:54Z</time></trkpt><trkpt lat="43.35473227516041" lon="12.704159082386612"><ele>479.79999999999995</ele><time>2026-04-11T13:46:55Z</time></trkpt><trkpt lat="43.354744425462286" lon="12.704046836733921"><ele>480.20000000000005</ele><time>2026-04-11T13:46:56Z</time></trkpt><trkpt lat="43.35474496013143" lon="12.703927064490781"><ele>480.6</ele><time>2026-04-11T13:46:57Z</time></trkpt><trkpt lat="43.35473560634933" lon="12.703769731534294"><ele>481.0</ele><time>2026-04-11T13:46:58Z</time></trkpt><trkpt lat="43.35472244386031" lon="12.703633195978586"><ele>481.0</ele><time>2026-04-11T13:46:59Z</time></trkpt><trkpt lat="43.35470787537349" lon="12.703501833442031"><ele>481.0</ele><time>2026-04-11T13:47:00Z</time></trkpt><trkpt lat="43.35470318128846" lon="12.703359491828659"><ele>481.0</ele><time>2026-04-11T13:47:01Z</time></trkpt><trkpt lat="43.35470433670332" lon="12.703215383421414"><ele>481.0</ele><time>2026-04-11T13:47:02Z</time></trkpt><trkpt lat="43.35470811900669" lon="12.703081821071185"><ele>481.0</ele><time>2026-04-11T13:47:03Z</time></trkpt><trkpt lat="43.35471517869466" lon="12.702943082942546"><ele>481.0</ele><time>2026-04-11T13:47:04Z</time></trkpt><trkpt lat="43.35471378927754" lon="12.70279992123435"><ele>481.0</ele><time>2026-04-11T13:47:05Z</time></trkpt><trkpt lat="43.35471239842035" lon="12.70266024697501"><ele>481.0</ele><time>2026-04-11T13:47:06Z</time></trkpt><trkpt lat="43.35471180505514" lon="12.702520099999155"><ele>481.0</ele><time>2026-04-11T13:47:07Z</time></trkpt><trkpt lat="43.354712602953185" lon="12.70238750268949"><ele>481.0</ele><time>2026-04-11T13:47:08Z</time></trkpt><trkpt lat="43.35471204878958" lon="12.702247898129201"><ele>481.0</ele><time>2026-04-11T13:47:09Z</time></trkpt><trkpt lat="43.35470874695105" lon="12.702106060726084"><ele>481.0</ele><time>2026-04-11T13:47:10Z</time></trkpt><trkpt lat="43.35469855325113" lon="12.70195371354231"><ele>481.0</ele><time>2026-04-11T13:47:11Z</time></trkpt><trkpt lat="43.3546807374198" lon="12.701796472818092"><ele>481.0</ele><time>2026-04-11T13:47:12Z</time></trkpt><trkpt lat="43.35466211083803" lon="12.701645285766466"><ele>481.0</ele><time>2026-04-11T13:47:13Z</time></trkpt><trkpt lat="43.354645539480664" lon="12.701502818276015"><ele>480.4</ele><time>2026-04-11T13:47:14Z</time></trkpt><trkpt lat="43.35462039868528" lon="12.701362029535789"><ele>479.8</ele><time>2026-04-11T13:47:15Z</time></trkpt><trkpt lat="43.35461008427614" lon="12.701220823390864"><ele>479.19999999999993</ele><time>2026-04-11T13:47:16Z</time></trkpt><trkpt lat="43.354600376477826" lon="12.701084701475628"><ele>478.59999999999997</ele><time>2026-04-11T13:47:17Z</time></trkpt><trkpt lat="43.35459609332419" lon="12.700947510583273"><ele>478.0</ele><time>2026-04-11T13:47:18Z</time></trkpt><trkpt lat="43.35459223477823" lon="12.700810846029544"><ele>478.0</ele><time>2026-04-11T13:47:19Z</time></trkpt><trkpt lat="43.354587178922934" lon="12.700668596629383"><ele>477.99999999999994</ele><time>2026-04-11T13:47:20Z</time></trkpt><trkpt lat="43.354577841212915" lon="12.700529545278116"><ele>477.99999999999994</ele><time>2026-04-11T13:47:21Z</time></trkpt><trkpt lat="43.35457304727531" lon="12.7003919007494"><ele>478.0</ele><time>2026-04-11T13:47:22Z</time></trkpt><trkpt lat="43.35456764824844" lon="12.700256068070924"><ele>478.0</ele><time>2026-04-11T13:47:23Z</time></trkpt><trkpt lat="43.354582382799435" lon="12.700108916210384"><ele>478.0</ele><time>2026-04-11T13:47:24Z</time></trkpt><trkpt lat="43.35459189167351" lon="12.699956700517534"><ele>477.99999999999994</ele><time>2026-04-11T13:47:25Z</time></trkpt><trkpt lat="43.354598887595586" lon="12.699799436675328"><ele>477.99999999999994</ele><time>2026-04-11T13:47:26Z</time></trkpt><trkpt lat="43.35459790070257" lon="12.699651648336339"><ele>478.0</ele><time>2026-04-11T13:47:27Z</time></trkpt><trkpt lat="43.35459975833267" lon="12.699505399545883"><ele>478.0</ele><time>2026-04-11T13:47:28Z</time></trkpt><trkpt lat="43.35460398346275" lon="12.6993622522501"><ele>477.79999999999995</ele><time>2026-04-11T13:47:29Z</time></trkpt><trkpt lat="43.3546099041251" lon="12.699219801264555"><ele>477.59999999999997</ele><time>2026-04-11T13:47:30Z</time></trkpt><trkpt lat="43.354610745992645" lon="12.699078397264115"><ele>477.40000000000003</ele><time>2026-04-11T13:47:31Z</time></trkpt><trkpt lat="43.35459771293993" lon="12.698926004250128"><ele>477.20000000000005</ele><time>2026-04-11T13:47:32Z</time></trkpt><trkpt lat="43.35459742254968" lon="12.698780684123419"><ele>477.0</ele><time>2026-04-11T13:47:33Z</time></trkpt><trkpt lat="43.35460001598707" lon="12.69863895860077"><ele>477.0</ele><time>2026-04-11T13:47:34Z</time></trkpt><trkpt lat="43.354597328773515" lon="12.69851266538369"><ele>477.00000000000006</ele><time>2026-04-11T13:47:34.999Z</time></trkpt><trkpt lat="43.35459464775487" lon="12.69837791720424"><ele>477.00000000000006</ele><time>2026-04-11T13:47:35.999Z</time></trkpt><trkpt lat="43.35459584755125" lon="12.69825213533089"><ele>477.0</ele><time>2026-04-11T13:47:36.999Z</time></trkpt><trkpt lat="43.35459039322765" lon="12.698123340600311"><ele>477.0</ele><time>2026-04-11T13:47:37.999Z</time></trkpt><trkpt lat="43.354574212530515" lon="12.697998649969595"><ele>477.0</ele><time>2026-04-11T13:47:38.999Z</time></trkpt><trkpt lat="43.35455535863753" lon="12.697893670093617"><ele>477.0</ele><time>2026-04-11T13:47:39.999Z</time></trkpt><trkpt lat="43.354518370097956" lon="12.697780831162499"><ele>477.0</ele><time>2026-04-11T13:47:40.999Z</time></trkpt><trkpt lat="43.35446983607248" lon="12.697680504917864"><ele>477.0</ele><time>2026-04-11T13:47:41.999Z</time></trkpt><trkpt lat="43.35442507058402" lon="12.697578501045456"><ele>477.0</ele><time>2026-04-11T13:47:43Z</time></trkpt><trkpt lat="43.35438428362092" lon="12.697465749711318"><ele>477.0</ele><time>2026-04-11T13:47:44Z</time></trkpt><trkpt lat="43.35435985514401" lon="12.697355449848175"><ele>476.8</ele><time>2026-04-11T13:47:45Z</time></trkpt><trkpt lat="43.354354435714434" lon="12.697234291577761"><ele>476.6</ele><time>2026-04-11T13:47:46Z</time></trkpt><trkpt lat="43.35436196939179" lon="12.697102957602327"><ele>476.40000000000003</ele><time>2026-04-11T13:47:47Z</time></trkpt><trkpt lat="43.35437408793872" lon="12.696969467028172"><ele>476.20000000000005</ele><time>2026-04-11T13:47:48Z</time></trkpt><trkpt lat="43.35437809407802" lon="12.696828811963199"><ele>476.0</ele><time>2026-04-11T13:47:49Z</time></trkpt><trkpt lat="43.354374150564986" lon="12.696686799864164"><ele>476.4</ele><time>2026-04-11T13:47:50Z</time></trkpt><trkpt lat="43.35436886992339" lon="12.696540564166005"><ele>476.8</ele><time>2026-04-11T13:47:51Z</time></trkpt><trkpt lat="43.35436342154553" lon="12.696397053221304"><ele>477.19999999999993</ele><time>2026-04-11T13:47:52Z</time></trkpt><trkpt lat="43.35435652630606" lon="12.696253814514254"><ele>477.59999999999997</ele><time>2026-04-11T13:47:53Z</time></trkpt><trkpt lat="43.3543480358429" lon="12.696114502807239"><ele>478.0</ele><time>2026-04-11T13:47:54Z</time></trkpt><trkpt lat="43.35434747113747" lon="12.695968248099998"><ele>478.79999999999995</ele><time>2026-04-11T13:47:55Z</time></trkpt><trkpt lat="43.35435555126803" lon="12.695823042499391"><ele>479.59999999999997</ele><time>2026-04-11T13:47:56Z</time></trkpt><trkpt lat="43.354366331433525" lon="12.695678564616317"><ele>480.40000000000003</ele><time>2026-04-11T13:47:57Z</time></trkpt><trkpt lat="43.354369849465286" lon="12.695536272999426"><ele>481.20000000000005</ele><time>2026-04-11T13:47:58Z</time></trkpt><trkpt lat="43.354366693972295" lon="12.695400048245185"><ele>482.0</ele><time>2026-04-11T13:47:59Z</time></trkpt><trkpt lat="43.35435845355398" lon="12.69525823862439"><ele>483.0</ele><time>2026-04-11T13:48:00Z</time></trkpt><trkpt lat="43.3543523385511" lon="12.695116275633914"><ele>484.00000000000006</ele><time>2026-04-11T13:48:01Z</time></trkpt><trkpt lat="43.35434730455565" lon="12.694973912232395"><ele>485.00000000000006</ele><time>2026-04-11T13:48:02Z</time></trkpt><trkpt lat="43.35434482924951" lon="12.694829027393403"><ele>486.0</ele><time>2026-04-11T13:48:03Z</time></trkpt><trkpt lat="43.35434819587219" lon="12.694689357568198"><ele>487.0</ele><time>2026-04-11T13:48:04Z</time></trkpt><trkpt lat="43.35434595283222" lon="12.69454774590748"><ele>488.6</ele><time>2026-04-11T13:48:05Z</time></trkpt><trkpt lat="43.35434302370502" lon="12.694409385795623"><ele>490.20000000000005</ele><time>2026-04-11T13:48:06Z</time></trkpt><trkpt lat="43.354338677312555" lon="12.694271024487488"><ele>491.8</ele><time>2026-04-11T13:48:07Z</time></trkpt><trkpt lat="43.35433873047424" lon="12.694133928805499"><ele>493.4</ele><time>2026-04-11T13:48:08Z</time></trkpt><trkpt lat="43.3543443211543" lon="12.693989403525716"><ele>495.0</ele><time>2026-04-11T13:48:09Z</time></trkpt><trkpt lat="43.35434787934165" lon="12.693840268746854"><ele>495.0</ele><time>2026-04-11T13:48:10Z</time></trkpt><trkpt lat="43.354351183671966" lon="12.693694074511953"><ele>495.0</ele><time>2026-04-11T13:48:11Z</time></trkpt><trkpt lat="43.35435822543789" lon="12.69354981003009"><ele>495.0</ele><time>2026-04-11T13:48:12Z</time></trkpt><trkpt lat="43.354348527880965" lon="12.693418506713558"><ele>495.0</ele><time>2026-04-11T13:48:13Z</time></trkpt><trkpt lat="43.354337516559546" lon="12.693299968780881"><ele>495.0</ele><time>2026-04-11T13:48:14Z</time></trkpt><trkpt lat="43.35433357336089" lon="12.693193704185207"><ele>496.6666666666667</ele><time>2026-04-11T13:48:15Z</time></trkpt><trkpt lat="43.354336345582105" lon="12.693091204860194"><ele>498.33333333333337</ele><time>2026-04-11T13:48:16Z</time></trkpt><trkpt lat="43.35435342799307" lon="12.692967840670258"><ele>500.0</ele><time>2026-04-11T13:48:18Z</time></trkpt><trkpt lat="43.354397051199186" lon="12.692888524497222"><ele>501.6666666666667</ele><time>2026-04-11T13:48:21Z</time></trkpt><trkpt lat="43.35445047584632" lon="12.692840987926918"><ele>503.33333333333337</ele><time>2026-04-11T13:48:24Z</time></trkpt><trkpt lat="43.3545097155026" lon="12.692786044291555"><ele>505.0</ele><time>2026-04-11T13:48:35Z</time></trkpt><trkpt lat="43.354538942139705" lon="12.692678352784494"><ele>504.83333333333337</ele><time>2026-04-11T13:48:37Z</time></trkpt><trkpt lat="43.35456776905278" lon="12.69252923647735"><ele>504.6666666666667</ele><time>2026-04-11T13:48:39Z</time></trkpt><trkpt lat="43.35460330411321" lon="12.692455140676651"><ele>504.5</ele><time>2026-04-11T13:48:40Z</time></trkpt><trkpt lat="43.35465149007756" lon="12.692390839152363"><ele>504.33333333333337</ele><time>2026-04-11T13:48:41Z</time></trkpt><trkpt lat="43.35470538558474" lon="12.692329685609343"><ele>504.1666666666667</ele><time>2026-04-11T13:48:42Z</time></trkpt><trkpt lat="43.35476628317936" lon="12.692273186725645"><ele>504.0</ele><time>2026-04-11T13:48:43Z</time></trkpt><trkpt lat="43.35482438462765" lon="12.692216526071864"><ele>504.0</ele><time>2026-04-11T13:48:44Z</time></trkpt><trkpt lat="43.35488965504308" lon="12.692159359639206"><ele>504.0</ele><time>2026-04-11T13:48:45Z</time></trkpt><trkpt lat="43.35496382603778" lon="12.692094312563194"><ele>504.0</ele><time>2026-04-11T13:48:46Z</time></trkpt><trkpt lat="43.35504219778436" lon="12.692026799713803"><ele>504.0</ele><time>2026-04-11T13:48:47Z</time></trkpt><trkpt lat="43.35512492954335" lon="12.691952299985266"><ele>504.0</ele><time>2026-04-11T13:48:48Z</time></trkpt><trkpt lat="43.355204201550066" lon="12.691879452250415"><ele>503.5</ele><time>2026-04-11T13:48:49Z</time></trkpt><trkpt lat="43.35528001745966" lon="12.691809684802479"><ele>503.0</ele><time>2026-04-11T13:48:50Z</time></trkpt><trkpt lat="43.355354413755855" lon="12.691743056576987"><ele>502.5</ele><time>2026-04-11T13:48:51Z</time></trkpt><trkpt lat="43.35542826145693" lon="12.691678953798881"><ele>502.0</ele><time>2026-04-11T13:48:52Z</time></trkpt><trkpt lat="43.355500749028344" lon="12.691616339985382"><ele>501.5</ele><time>2026-04-11T13:48:53Z</time></trkpt><trkpt lat="43.35557053548431" lon="12.6915566088504"><ele>501.0</ele><time>2026-04-11T13:48:54Z</time></trkpt><trkpt lat="43.35564205572713" lon="12.691499623253781"><ele>501.0</ele><time>2026-04-11T13:48:55Z</time></trkpt><trkpt lat="43.35570518638893" lon="12.691436468808812"><ele>501.0</ele><time>2026-04-11T13:48:56Z</time></trkpt><trkpt lat="43.35575144638114" lon="12.691365618828954"><ele>501.0</ele><time>2026-04-11T13:48:57Z</time></trkpt><trkpt lat="43.35579254899698" lon="12.69128378204105"><ele>501.0</ele><time>2026-04-11T13:48:58Z</time></trkpt><trkpt lat="43.35582938446561" lon="12.691186025167571"><ele>501.0</ele><time>2026-04-11T13:48:59Z</time></trkpt><trkpt lat="43.35586433019712" lon="12.691086204532029"><ele>501.0</ele><time>2026-04-11T13:49:00Z</time></trkpt><trkpt lat="43.35589134498419" lon="12.690988965872323"><ele>502.0</ele><time>2026-04-11T13:49:01Z</time></trkpt><trkpt lat="43.355911406892965" lon="12.690886025397692"><ele>503.0</ele><time>2026-04-11T13:49:02Z</time></trkpt><trkpt lat="43.35592121450104" lon="12.690772987081099"><ele>504.0</ele><time>2026-04-11T13:49:03Z</time></trkpt><trkpt lat="43.355949639177986" lon="12.690661861775258"><ele>505.0</ele><time>2026-04-11T13:49:04Z</time></trkpt><trkpt lat="43.355961159379824" lon="12.690550893257285"><ele>506.0</ele><time>2026-04-11T13:49:05Z</time></trkpt><trkpt lat="43.355968986282896" lon="12.690441344550267"><ele>507.0</ele><time>2026-04-11T13:49:06Z</time></trkpt><trkpt lat="43.35596611209801" lon="12.690345620360116"><ele>506.1428571428571</ele><time>2026-04-11T13:49:07Z</time></trkpt><trkpt lat="43.355981334056686" lon="12.690250191486925"><ele>505.28571428571433</ele><time>2026-04-11T13:49:08Z</time></trkpt><trkpt lat="43.355970365613636" lon="12.690164349305148"><ele>504.42857142857144</ele><time>2026-04-11T13:49:09Z</time></trkpt><trkpt lat="43.3559336271322" lon="12.690088246232245"><ele>503.57142857142856</ele><time>2026-04-11T13:49:10Z</time></trkpt><trkpt lat="43.35587864183419" lon="12.690029881901605"><ele>502.71428571428567</ele><time>2026-04-11T13:49:11Z</time></trkpt><trkpt lat="43.35580316883773" lon="12.690005632995273"><ele>501.8571428571429</ele><time>2026-04-11T13:49:12Z</time></trkpt><trkpt lat="43.355717321828905" lon="12.68999581647803"><ele>501.0</ele><time>2026-04-11T13:49:13Z</time></trkpt><trkpt lat="43.35563697450118" lon="12.689997801172696"><ele>501.0</ele><time>2026-04-11T13:49:14Z</time></trkpt><trkpt lat="43.35556155324505" lon="12.689990965401893"><ele>501.0</ele><time>2026-04-11T13:49:15Z</time></trkpt><trkpt lat="43.355479699681105" lon="12.689980324027003"><ele>501.0</ele><time>2026-04-11T13:49:16Z</time></trkpt><trkpt lat="43.35539089216745" lon="12.689967863808056"><ele>501.0</ele><time>2026-04-11T13:49:17Z</time></trkpt><trkpt lat="43.3553007995373" lon="12.689928832475232"><ele>501.0</ele><time>2026-04-11T13:49:18Z</time></trkpt><trkpt lat="43.35520178420735" lon="12.689900153424968"><ele>501.0</ele><time>2026-04-11T13:49:19Z</time></trkpt><trkpt lat="43.35508664052428" lon="12.689881031490028"><ele>502.8</ele><time>2026-04-11T13:49:20Z</time></trkpt><trkpt lat="43.354984856922535" lon="12.68983879673136"><ele>504.6</ele><time>2026-04-11T13:49:21Z</time></trkpt><trkpt lat="43.35489011612799" lon="12.689804202075516"><ele>506.4</ele><time>2026-04-11T13:49:22Z</time></trkpt><trkpt lat="43.354795774455226" lon="12.68977710514913"><ele>508.2</ele><time>2026-04-11T13:49:23Z</time></trkpt><trkpt lat="43.35470474717762" lon="12.689756370819845"><ele>510.0</ele><time>2026-04-11T13:49:24Z</time></trkpt><trkpt lat="43.35461519744003" lon="12.689738108688992"><ele>511.6</ele><time>2026-04-11T13:49:25Z</time></trkpt><trkpt lat="43.354524065178495" lon="12.689711876245266"><ele>513.2</ele><time>2026-04-11T13:49:26Z</time></trkpt><trkpt lat="43.354442832878306" lon="12.689657627542795"><ele>514.8</ele><time>2026-04-11T13:49:27Z</time></trkpt><trkpt lat="43.35435755078375" lon="12.689617007182862"><ele>516.4</ele><time>2026-04-11T13:49:28Z</time></trkpt><trkpt lat="43.35426885499681" lon="12.689574610055649"><ele>518.0</ele><time>2026-04-11T13:49:29Z</time></trkpt><trkpt lat="43.35418598604289" lon="12.689479588161197"><ele>516.6</ele><time>2026-04-11T13:49:30Z</time></trkpt><trkpt lat="43.354118460024935" lon="12.689389117051222"><ele>515.1999999999999</ele><time>2026-04-11T13:49:31Z</time></trkpt><trkpt lat="43.35404930524881" lon="12.68930557896402"><ele>513.8</ele><time>2026-04-11T13:49:32Z</time></trkpt><trkpt lat="43.353980456673256" lon="12.689232913410825"><ele>512.4</ele><time>2026-04-11T13:49:33Z</time></trkpt><trkpt lat="43.35390506849831" lon="12.689167708263568"><ele>511.0</ele><time>2026-04-11T13:49:34Z</time></trkpt><trkpt lat="43.35382171719843" lon="12.689105387264618"><ele>511.00000000000006</ele><time>2026-04-11T13:49:35Z</time></trkpt><trkpt lat="43.35374104685497" lon="12.68904580756585"><ele>511.0</ele><time>2026-04-11T13:49:36Z</time></trkpt><trkpt lat="43.353670202844775" lon="12.68897487918283"><ele>511.0</ele><time>2026-04-11T13:49:37Z</time></trkpt><trkpt lat="43.353594490548346" lon="12.688934943766943"><ele>511.0</ele><time>2026-04-11T13:49:38Z</time></trkpt><trkpt lat="43.35354249581118" lon="12.688845916624718"><ele>511.00000000000006</ele><time>2026-04-11T13:49:39Z</time></trkpt><trkpt lat="43.353518706886156" lon="12.688730613990087"><ele>511.0</ele><time>2026-04-11T13:49:40Z</time></trkpt><trkpt lat="43.35351422244018" lon="12.68861063921683"><ele>509.4</ele><time>2026-04-11T13:49:41Z</time></trkpt><trkpt lat="43.35352182106247" lon="12.68848507062766"><ele>507.8</ele><time>2026-04-11T13:49:42Z</time></trkpt><trkpt lat="43.35356206588795" lon="12.688376972100722"><ele>506.19999999999993</ele><time>2026-04-11T13:49:43Z</time></trkpt><trkpt lat="43.353632832639555" lon="12.68830220415408"><ele>504.59999999999997</ele><time>2026-04-11T13:49:44Z</time></trkpt><trkpt lat="43.353714435403894" lon="12.688247772363836"><ele>503.0</ele><time>2026-04-11T13:49:45Z</time></trkpt><trkpt lat="43.353793456483444" lon="12.688189106961081"><ele>502.99999999999994</ele><time>2026-04-11T13:49:46Z</time></trkpt><trkpt lat="43.353864802660084" lon="12.688128419984992"><ele>503.0</ele><time>2026-04-11T13:49:47Z</time></trkpt><trkpt lat="43.35393172500939" lon="12.688063323852713"><ele>503.0</ele><time>2026-04-11T13:49:48Z</time></trkpt><trkpt lat="43.35398073244326" lon="12.687975303029127"><ele>503.0</ele><time>2026-04-11T13:49:49Z</time></trkpt><trkpt lat="43.35400791976104" lon="12.687870964271053"><ele>502.99999999999994</ele><time>2026-04-11T13:49:50Z</time></trkpt><trkpt lat="43.354003995039406" lon="12.687758809304945"><ele>503.0</ele><time>2026-04-11T13:49:51Z</time></trkpt><trkpt lat="43.353973136097984" lon="12.687636267221702"><ele>502.5</ele><time>2026-04-11T13:49:52Z</time></trkpt><trkpt lat="43.353921656847625" lon="12.687494719806674"><ele>502.0</ele><time>2026-04-11T13:49:53Z</time></trkpt><trkpt lat="43.353866756243185" lon="12.687345515253583"><ele>501.5</ele><time>2026-04-11T13:49:54Z</time></trkpt><trkpt lat="43.35381807051751" lon="12.68720420011447"><ele>501.0</ele><time>2026-04-11T13:49:55Z</time></trkpt><trkpt lat="43.35376682272877" lon="12.687059325926844"><ele>499.25</ele><time>2026-04-11T13:49:56Z</time></trkpt><trkpt lat="43.353719565031426" lon="12.686917098171627"><ele>497.5</ele><time>2026-04-11T13:49:57Z</time></trkpt><trkpt lat="43.353670647313905" lon="12.686773695773852"><ele>495.75</ele><time>2026-04-11T13:49:58Z</time></trkpt><trkpt lat="43.353618401227585" lon="12.686634820200611"><ele>494.0</ele><time>2026-04-11T13:49:59Z</time></trkpt><trkpt lat="43.35355710867392" lon="12.686501495575387"><ele>494.0</ele><time>2026-04-11T13:50:00Z</time></trkpt><trkpt lat="43.35348541920248" lon="12.686380462041113"><ele>494.0</ele><time>2026-04-11T13:50:01Z</time></trkpt><trkpt lat="43.35341141879329" lon="12.68625840819813"><ele>494.0</ele><time>2026-04-11T13:50:02Z</time></trkpt><trkpt lat="43.35330981986005" lon="12.686173089501432"><ele>494.0</ele><time>2026-04-11T13:50:03Z</time></trkpt><trkpt lat="43.35320786381803" lon="12.686093147008345"><ele>491.0</ele><time>2026-04-11T13:50:04Z</time></trkpt><trkpt lat="43.35310784255646" lon="12.686018490731485"><ele>488.0</ele><time>2026-04-11T13:50:05Z</time></trkpt><trkpt lat="43.3530104601661" lon="12.685950182448693"><ele>485.0</ele><time>2026-04-11T13:50:06Z</time></trkpt><trkpt lat="43.35292947894875" lon="12.685834766711112"><ele>482.0</ele><time>2026-04-11T13:50:07Z</time></trkpt><trkpt lat="43.35284789995361" lon="12.685709712227752"><ele>480.5</ele><time>2026-04-11T13:50:08Z</time></trkpt><trkpt lat="43.352771635408224" lon="12.685574319646316"><ele>479.0</ele><time>2026-04-11T13:50:09Z</time></trkpt><trkpt lat="43.35269818696067" lon="12.685439115722518"><ele>477.5</ele><time>2026-04-11T13:50:10Z</time></trkpt><trkpt lat="43.35262415579531" lon="12.685317701668982"><ele>476.0</ele><time>2026-04-11T13:50:11Z</time></trkpt><trkpt lat="43.35254986931455" lon="12.685205563749307"><ele>474.0</ele><time>2026-04-11T13:50:12Z</time></trkpt><trkpt lat="43.352473291741255" lon="12.685081931231425"><ele>472.0</ele><time>2026-04-11T13:50:13Z</time></trkpt><trkpt lat="43.35240357723606" lon="12.684965936344076"><ele>470.0</ele><time>2026-04-11T13:50:14Z</time></trkpt><trkpt lat="43.35234120148528" lon="12.684860189363636"><ele>468.0</ele><time>2026-04-11T13:50:15Z</time></trkpt><trkpt lat="43.35228139230821" lon="12.684772811722363"><ele>466.0</ele><time>2026-04-11T13:50:16Z</time></trkpt><trkpt lat="43.352215338805" lon="12.684694004313249"><ele>464.83333333333337</ele><time>2026-04-11T13:50:17Z</time></trkpt><trkpt lat="43.352135287153956" lon="12.684618927085472"><ele>463.6666666666667</ele><time>2026-04-11T13:50:18Z</time></trkpt><trkpt lat="43.35206778756368" lon="12.684529301264071"><ele>462.5</ele><time>2026-04-11T13:50:19Z</time></trkpt><trkpt lat="43.35199276620774" lon="12.684467809142568"><ele>461.33333333333337</ele><time>2026-04-11T13:50:20Z</time></trkpt><trkpt lat="43.351921237988364" lon="12.684422449647247"><ele>460.1666666666667</ele><time>2026-04-11T13:50:21Z</time></trkpt><trkpt lat="43.35184435413561" lon="12.684395946418972"><ele>459.0</ele><time>2026-04-11T13:50:22Z</time></trkpt><trkpt lat="43.351760318507836" lon="12.684405769937106"><ele>459.0</ele><time>2026-04-11T13:50:23Z</time></trkpt><trkpt lat="43.35167399722928" lon="12.684446636385909"><ele>459.0</ele><time>2026-04-11T13:50:24Z</time></trkpt><trkpt lat="43.35157945827235" lon="12.68451653004696"><ele>459.0</ele><time>2026-04-11T13:50:25Z</time></trkpt><trkpt lat="43.35148815683376" lon="12.68460185966197"><ele>459.0</ele><time>2026-04-11T13:50:26Z</time></trkpt><trkpt lat="43.351409092383236" lon="12.68468716226319"><ele>459.0</ele><time>2026-04-11T13:50:27Z</time></trkpt><trkpt lat="43.35134487324983" lon="12.684763719138735"><ele>457.8571428571429</ele><time>2026-04-11T13:50:28Z</time></trkpt><trkpt lat="43.3512938046331" lon="12.684831881447936"><ele>456.71428571428567</ele><time>2026-04-11T13:50:29Z</time></trkpt><trkpt lat="43.35124488864576" lon="12.684910037759563"><ele>455.57142857142856</ele><time>2026-04-11T13:50:30Z</time></trkpt><trkpt lat="43.35119958935627" lon="12.68499499190524"><ele>454.42857142857144</ele><time>2026-04-11T13:50:31Z</time></trkpt><trkpt lat="43.351165390597835" lon="12.685073484171253"><ele>453.28571428571433</ele><time>2026-04-11T13:50:32Z</time></trkpt><trkpt lat="43.351146085101554" lon="12.685176443638843"><ele>452.1428571428571</ele><time>2026-04-11T13:50:33Z</time></trkpt><trkpt lat="43.351110091183266" lon="12.68526750695136"><ele>451.0</ele><time>2026-04-11T13:50:35Z</time></trkpt><trkpt lat="43.351001694335885" lon="12.685258965640594"><ele>450.20000000000005</ele><time>2026-04-11T13:50:37Z</time></trkpt><trkpt lat="43.350919548551694" lon="12.685160472667155"><ele>449.40000000000003</ele><time>2026-04-11T13:50:39Z</time></trkpt><trkpt lat="43.35079499630479" lon="12.685087116500743"><ele>448.6</ele><time>2026-04-11T13:50:41Z</time></trkpt><trkpt lat="43.350721774129745" lon="12.685030254193318"><ele>447.8</ele><time>2026-04-11T13:50:43Z</time></trkpt><trkpt lat="43.35065401444777" lon="12.684990691409531"><ele>447.0</ele><time>2026-04-11T13:50:47Z</time></trkpt><trkpt lat="43.35059577170036" lon="12.684956685152256"><ele>444.0</ele><time>2026-04-11T13:50:50Z</time></trkpt><trkpt lat="43.35050572330536" lon="12.684996242747648"><ele>441.0</ele><time>2026-04-11T13:50:53Z</time></trkpt><trkpt lat="43.350417535175715" lon="12.685185696757602"><ele>438.0</ele><time>2026-04-11T13:50:57Z</time></trkpt><trkpt lat="43.350410290564476" lon="12.68530825649524"><ele>435.0</ele><time>2026-04-11T13:50:59Z</time></trkpt><trkpt lat="43.35041048492368" lon="12.68547682603287"><ele>435.0</ele><time>2026-04-11T13:51:01Z</time></trkpt><trkpt lat="43.350389126396166" lon="12.685605618560224"><ele>435.0</ele><time>2026-04-11T13:51:03Z</time></trkpt><trkpt lat="43.35034054267526" lon="12.685751970074723"><ele>435.0</ele><time>2026-04-11T13:51:05Z</time></trkpt><trkpt lat="43.3502970917019" lon="12.685832059482909"><ele>435.0</ele><time>2026-04-11T13:51:06Z</time></trkpt><trkpt lat="43.350244581350736" lon="12.685917332714364"><ele>435.0</ele><time>2026-04-11T13:51:07Z</time></trkpt><trkpt lat="43.35018922064894" lon="12.686003658125232"><ele>436.8333333333333</ele><time>2026-04-11T13:51:08Z</time></trkpt><trkpt lat="43.350126891736465" lon="12.686096313778739"><ele>438.66666666666663</ele><time>2026-04-11T13:51:09Z</time></trkpt><trkpt lat="43.35006214881818" lon="12.6861804163607"><ele>440.5</ele><time>2026-04-11T13:51:10Z</time></trkpt><trkpt lat="43.34999626831242" lon="12.686259909197725"><ele>442.3333333333333</ele><time>2026-04-11T13:51:11Z</time></trkpt><trkpt lat="43.34992699885217" lon="12.686327345316647"><ele>444.16666666666663</ele><time>2026-04-11T13:51:12Z</time></trkpt><trkpt lat="43.34985224775677" lon="12.686380419998807"><ele>446.0</ele><time>2026-04-11T13:51:13Z</time></trkpt><trkpt lat="43.349772166320264" lon="12.686415707825454"><ele>444.49999999999994</ele><time>2026-04-11T13:51:14Z</time></trkpt><trkpt lat="43.349689135095026" lon="12.686433999277178"><ele>443.0</ele><time>2026-04-11T13:51:15Z</time></trkpt><trkpt lat="43.349607238263424" lon="12.68644694778876"><ele>441.5</ele><time>2026-04-11T13:51:16Z</time></trkpt><trkpt lat="43.349528065781726" lon="12.68645431807249"><ele>440.0</ele><time>2026-04-11T13:51:17Z</time></trkpt><trkpt lat="43.34944632493085" lon="12.686444901168288"><ele>438.49999999999994</ele><time>2026-04-11T13:51:18Z</time></trkpt><trkpt lat="43.34936896853597" lon="12.68642546455424"><ele>437.0</ele><time>2026-04-11T13:51:19Z</time></trkpt><trkpt lat="43.349288944990114" lon="12.68640013698055"><ele>436.99999999999994</ele><time>2026-04-11T13:51:20Z</time></trkpt><trkpt lat="43.34920670321952" lon="12.686373753757858"><ele>437.0</ele><time>2026-04-11T13:51:21Z</time></trkpt><trkpt lat="43.34912813856626" lon="12.686347654542448"><ele>437.0</ele><time>2026-04-11T13:51:22Z</time></trkpt><trkpt lat="43.349053741776466" lon="12.686320417612604"><ele>437.0</ele><time>2026-04-11T13:51:23Z</time></trkpt><trkpt lat="43.34897973376285" lon="12.68629024280143"><ele>436.99999999999994</ele><time>2026-04-11T13:51:24Z</time></trkpt><trkpt lat="43.34890221551983" lon="12.686267916847152"><ele>437.0</ele><time>2026-04-11T13:51:25Z</time></trkpt><trkpt lat="43.34882932946022" lon="12.686214753606764"><ele>435.99999999999994</ele><time>2026-04-11T13:51:26Z</time></trkpt><trkpt lat="43.34877234964774" lon="12.68613387007233"><ele>435.0</ele><time>2026-04-11T13:51:27Z</time></trkpt><trkpt lat="43.34870707702077" lon="12.686085710357046"><ele>434.0</ele><time>2026-04-11T13:51:28Z</time></trkpt><trkpt lat="43.34864776546807" lon="12.686037425111214"><ele>433.0</ele><time>2026-04-11T13:51:29Z</time></trkpt><trkpt lat="43.34857859371909" lon="12.6860056722454"><ele>431.99999999999994</ele><time>2026-04-11T13:51:30Z</time></trkpt><trkpt lat="43.34846530190995" lon="12.68595284661368"><ele>431.0</ele><time>2026-04-11T13:51:32Z</time></trkpt><trkpt lat="43.348364632297944" lon="12.685899103986964"><ele>430.6</ele><time>2026-04-11T13:51:34Z</time></trkpt><trkpt lat="43.34834807487153" lon="12.68570279884891"><ele>430.20000000000005</ele><time>2026-04-11T13:51:36Z</time></trkpt><trkpt lat="43.348351115782314" lon="12.685574742656621"><ele>429.79999999999995</ele><time>2026-04-11T13:51:37Z</time></trkpt><trkpt lat="43.34835124536085" lon="12.685450196079291"><ele>429.4</ele><time>2026-04-11T13:51:38Z</time></trkpt><trkpt lat="43.34835733453915" lon="12.68531773052479"><ele>429.0</ele><time>2026-04-11T13:51:39Z</time></trkpt><trkpt lat="43.34836132796455" lon="12.68521235827109"><ele>429.0</ele><time>2026-04-11T13:51:40Z</time></trkpt><trkpt lat="43.34835623482411" lon="12.685103076761232"><ele>429.0</ele><time>2026-04-11T13:51:41Z</time></trkpt><trkpt lat="43.34833906371414" lon="12.685017420227084"><ele>429.0</ele><time>2026-04-11T13:51:42Z</time></trkpt><trkpt lat="43.348310529844504" lon="12.684937738376568"><ele>429.0</ele><time>2026-04-11T13:51:43Z</time></trkpt><trkpt lat="43.348262705011564" lon="12.68486925760814"><ele>429.0</ele><time>2026-04-11T13:51:44Z</time></trkpt><trkpt lat="43.348210887067374" lon="12.68480084175906"><ele>429.0</ele><time>2026-04-11T13:51:45Z</time></trkpt><trkpt lat="43.348122479815984" lon="12.68473784107578"><ele>429.0</ele><time>2026-04-11T13:51:47Z</time></trkpt><trkpt lat="43.34805228598166" lon="12.684678758274156"><ele>428.3333333333333</ele><time>2026-04-11T13:51:49Z</time></trkpt><trkpt lat="43.34798526128678" lon="12.68462867143333"><ele>427.66666666666663</ele><time>2026-04-11T13:51:52Z</time></trkpt><trkpt lat="43.34792830442851" lon="12.684566208048462"><ele>427.0</ele><time>2026-04-11T13:51:55Z</time></trkpt><trkpt lat="43.34786557164722" lon="12.684517329437115"><ele>426.3333333333333</ele><time>2026-04-11T13:55:40.001Z</time></trkpt><trkpt lat="43.347809268719004" lon="12.684475046016171"><ele>425.66666666666663</ele><time>2026-04-11T13:55:58.001Z</time></trkpt><trkpt lat="43.34773889528326" lon="12.68442525653704"><ele>425.0</ele><time>2026-04-11T13:56:10Z</time></trkpt><trkpt lat="43.34763322094958" lon="12.684356617107735"><ele>426.42857142857144</ele><time>2026-04-11T13:56:12Z</time></trkpt><trkpt lat="43.347578099023295" lon="12.684310615972533"><ele>427.85714285714283</ele><time>2026-04-11T13:56:13Z</time></trkpt><trkpt lat="43.34752691082705" lon="12.684252717350583"><ele>429.28571428571433</ele><time>2026-04-11T13:56:14Z</time></trkpt><trkpt lat="43.34747939526181" lon="12.6841830970518"><ele>430.7142857142857</ele><time>2026-04-11T13:56:15Z</time></trkpt><trkpt lat="43.34743735728799" lon="12.684099844174039"><ele>432.14285714285717</ele><time>2026-04-11T13:56:16Z</time></trkpt><trkpt lat="43.34739247110401" lon="12.684020309464376"><ele>433.5714285714286</ele><time>2026-04-11T13:56:17Z</time></trkpt><trkpt lat="43.34737034855109" lon="12.683921861424288"><ele>435.0</ele><time>2026-04-11T13:56:18Z</time></trkpt><trkpt lat="43.3473404893139" lon="12.683830090887003"><ele>435.0</ele><time>2026-04-11T13:56:19Z</time></trkpt><trkpt lat="43.34725789830855" lon="12.683675800978312"><ele>435.0</ele><time>2026-04-11T13:56:21Z</time></trkpt><trkpt lat="43.34717002816941" lon="12.683616245561138"><ele>435.0</ele><time>2026-04-11T13:56:22Z</time></trkpt><trkpt lat="43.347111076609096" lon="12.683535808759212"><ele>435.0</ele><time>2026-04-11T13:56:23Z</time></trkpt><trkpt lat="43.34704853069012" lon="12.683479679448837"><ele>435.0</ele><time>2026-04-11T13:56:24Z</time></trkpt><trkpt lat="43.34698051736546" lon="12.683427474822658"><ele>438.3333333333333</ele><time>2026-04-11T13:56:25Z</time></trkpt><trkpt lat="43.34691290717828" lon="12.683393876024873"><ele>441.66666666666663</ele><time>2026-04-11T13:56:26Z</time></trkpt><trkpt lat="43.34681370394365" lon="12.683407794606175"><ele>445.0</ele><time>2026-04-11T13:56:27Z</time></trkpt><trkpt lat="43.34672224200385" lon="12.683430978897643"><ele>448.3333333333333</ele><time>2026-04-11T13:56:28Z</time></trkpt><trkpt lat="43.34663218356543" lon="12.683448778060477"><ele>451.66666666666663</ele><time>2026-04-11T13:56:29Z</time></trkpt><trkpt lat="43.34654147028559" lon="12.68346066831836"><ele>455.0</ele><time>2026-04-11T13:56:30Z</time></trkpt><trkpt lat="43.346452055987186" lon="12.68346011798693"><ele>455.16666666666663</ele><time>2026-04-11T13:56:31Z</time></trkpt><trkpt lat="43.346368838757954" lon="12.683447202624123"><ele>455.3333333333333</ele><time>2026-04-11T13:56:32Z</time></trkpt><trkpt lat="43.3462859950668" lon="12.68343355524999"><ele>455.5</ele><time>2026-04-11T13:56:33Z</time></trkpt><trkpt lat="43.346210549472055" lon="12.683430482798407"><ele>455.66666666666663</ele><time>2026-04-11T13:56:34Z</time></trkpt><trkpt lat="43.34613205649701" lon="12.683452926435306"><ele>455.8333333333333</ele><time>2026-04-11T13:56:35Z</time></trkpt><trkpt lat="43.346069262884335" lon="12.683563879228531"><ele>456.0</ele><time>2026-04-11T13:56:36Z</time></trkpt><trkpt lat="43.34601571306685" lon="12.68362025135567"><ele>456.0</ele><time>2026-04-11T13:56:37Z</time></trkpt><trkpt lat="43.34595500705282" lon="12.683671225887142"><ele>456.0</ele><time>2026-04-11T13:56:38Z</time></trkpt><trkpt lat="43.34584062102081" lon="12.68371049262358"><ele>456.0</ele><time>2026-04-11T13:56:40Z</time></trkpt><trkpt lat="43.34576944424723" lon="12.68369137374905"><ele>456.0</ele><time>2026-04-11T13:56:41Z</time></trkpt><trkpt lat="43.345689705797696" lon="12.683673246210967"><ele>456.0</ele><time>2026-04-11T13:56:42Z</time></trkpt><trkpt lat="43.345615633974965" lon="12.683649948784383"><ele>456.0</ele><time>2026-04-11T13:56:43Z</time></trkpt><trkpt lat="43.34554648786944" lon="12.6836166150236"><ele>461.4</ele><time>2026-04-11T13:56:44Z</time></trkpt><trkpt lat="43.345479168706184" lon="12.683591041846373"><ele>466.8</ele><time>2026-04-11T13:56:45Z</time></trkpt><trkpt lat="43.34545218329073" lon="12.683505858080032"><ele>472.19999999999993</ele><time>2026-04-11T13:56:46Z</time></trkpt><trkpt lat="43.34541117513624" lon="12.68335631039195"><ele>477.59999999999997</ele><time>2026-04-11T13:56:48Z</time></trkpt><trkpt lat="43.34538824846227" lon="12.683197579313545"><ele>483.0</ele><time>2026-04-11T13:56:50Z</time></trkpt><trkpt lat="43.345269781676706" lon="12.683148605482264"><ele>483.0</ele><time>2026-04-11T13:56:52Z</time></trkpt><trkpt lat="43.34519713874573" lon="12.683151570097703"><ele>482.99999999999994</ele><time>2026-04-11T13:56:53Z</time></trkpt><trkpt lat="43.34507735610397" lon="12.683146441261448"><ele>482.99999999999994</ele><time>2026-04-11T13:56:55Z</time></trkpt><trkpt lat="43.34496930421225" lon="12.683097370547593"><ele>483.0</ele><time>2026-04-11T13:56:57Z</time></trkpt><trkpt lat="43.34491924700675" lon="12.682960853646797"><ele>483.0</ele><time>2026-04-11T13:56:59Z</time></trkpt><trkpt lat="43.34488475698649" lon="12.682863007396126"><ele>484.8333333333333</ele><time>2026-04-11T13:57:00Z</time></trkpt><trkpt lat="43.34489792310115" lon="12.682743107446194"><ele>486.66666666666663</ele><time>2026-04-11T13:57:01Z</time></trkpt><trkpt lat="43.34490599393937" lon="12.682641575656772"><ele>488.5</ele><time>2026-04-11T13:57:02Z</time></trkpt><trkpt lat="43.34491090171595" lon="12.682549656587467"><ele>490.3333333333333</ele><time>2026-04-11T13:57:03Z</time></trkpt><trkpt lat="43.34488382800951" lon="12.682421089454879"><ele>492.16666666666663</ele><time>2026-04-11T13:57:05Z</time></trkpt><trkpt lat="43.344784899389374" lon="12.682377043814917"><ele>494.0</ele><time>2026-04-11T13:57:07Z</time></trkpt><trkpt lat="43.344720731059596" lon="12.682422395173623"><ele>494.8333333333333</ele><time>2026-04-11T13:57:08Z</time></trkpt><trkpt lat="43.344669655105854" lon="12.682511465216349"><ele>495.66666666666663</ele><time>2026-04-11T13:57:09Z</time></trkpt><trkpt lat="43.344617718701194" lon="12.682588207386207"><ele>496.5</ele><time>2026-04-11T13:57:10Z</time></trkpt><trkpt lat="43.34452770812414" lon="12.682677953399727"><ele>497.33333333333337</ele><time>2026-04-11T13:57:12Z</time></trkpt><trkpt lat="43.34443737157945" lon="12.682653433830819"><ele>498.1666666666667</ele><time>2026-04-11T13:57:14Z</time></trkpt><trkpt lat="43.34437556645202" lon="12.682631785765402"><ele>499.0</ele><time>2026-04-11T13:57:15Z</time></trkpt><trkpt lat="43.34430063270395" lon="12.682619900796592"><ele>499.00000000000006</ele><time>2026-04-11T13:57:16Z</time></trkpt><trkpt lat="43.34423782418469" lon="12.682563081001645"><ele>499.0</ele><time>2026-04-11T13:57:17Z</time></trkpt><trkpt lat="43.34418265137481" lon="12.68249457840258"><ele>499.00000000000006</ele><time>2026-04-11T13:57:18Z</time></trkpt><trkpt lat="43.34413987963149" lon="12.682413456561124"><ele>499.00000000000006</ele><time>2026-04-11T13:57:19Z</time></trkpt><trkpt lat="43.344103519075354" lon="12.682322025648098"><ele>499.0</ele><time>2026-04-11T13:57:20Z</time></trkpt><trkpt lat="43.3440555398156" lon="12.68226393452874"><ele>499.00000000000006</ele><time>2026-04-11T13:57:21Z</time></trkpt><trkpt lat="43.34400619278863" lon="12.682167509504561"><ele>499.00000000000006</ele><time>2026-04-11T13:57:23Z</time></trkpt><trkpt lat="43.34396403725222" lon="12.682085136355578"><ele>499.00000000000006</ele><time>2026-04-11T13:57:26Z</time></trkpt><trkpt lat="43.3439253943097" lon="12.68200958775754"><ele>499.0</ele><time>2026-04-11T13:57:52.001Z</time></trkpt><trkpt lat="43.343834837729226" lon="12.681894228036748"><ele>499.0</ele><time>2026-04-11T13:57:54.001Z</time></trkpt><trkpt lat="43.343786970404416" lon="12.68176603476402"><ele>499.0</ele><time>2026-04-11T13:57:56.001Z</time></trkpt><trkpt lat="43.34375337239113" lon="12.681692610108398"><ele>499.00000000000006</ele><time>2026-04-11T13:57:59.001Z</time></trkpt><trkpt lat="43.34371424267794" lon="12.68158215719398"><ele>499.0</ele><time>2026-04-11T13:59:49.001Z</time></trkpt><trkpt lat="43.34366980402707" lon="12.681477033522123"><ele>498.6</ele><time>2026-04-11T13:59:51.001Z</time></trkpt><trkpt lat="43.34363659034794" lon="12.681400067421327"><ele>498.2</ele><time>2026-04-11T13:59:54.001Z</time></trkpt><trkpt lat="43.34358701672824" lon="12.681292342945646"><ele>497.80000000000007</ele><time>2026-04-11T14:00:07.001Z</time></trkpt><trkpt lat="43.34354202605887" lon="12.681192848734023"><ele>497.40000000000003</ele><time>2026-04-11T14:00:09.001Z</time></trkpt><trkpt lat="43.3435162244356" lon="12.681056159493368"><ele>497.0</ele><time>2026-04-11T14:00:11Z</time></trkpt><trkpt lat="43.3434920416462" lon="12.680895519340375"><ele>501.20000000000005</ele><time>2026-04-11T14:00:13Z</time></trkpt><trkpt lat="43.34343867152665" lon="12.680757670591188"><ele>505.40000000000003</ele><time>2026-04-11T14:00:15Z</time></trkpt><trkpt lat="43.34340944185208" lon="12.680679897460902"><ele>509.59999999999997</ele><time>2026-04-11T14:00:16Z</time></trkpt><trkpt lat="43.343335191786025" lon="12.68053047219109"><ele>513.8</ele><time>2026-04-11T14:00:18Z</time></trkpt><trkpt lat="43.343280662610155" lon="12.680463660101832"><ele>518.0</ele><time>2026-04-11T14:00:19Z</time></trkpt><trkpt lat="43.34322346629199" lon="12.680397217646453"><ele>518.0</ele><time>2026-04-11T14:00:20Z</time></trkpt><trkpt lat="43.3431644642504" lon="12.680328719505685"><ele>518.0</ele><time>2026-04-11T14:00:21Z</time></trkpt><trkpt lat="43.3431000483821" lon="12.680267247059271"><ele>518.0</ele><time>2026-04-11T14:00:22Z</time></trkpt><trkpt lat="43.343040386208955" lon="12.680197382601836"><ele>518.0</ele><time>2026-04-11T14:00:23Z</time></trkpt><trkpt lat="43.342986527393855" lon="12.68011233046721"><ele>518.0</ele><time>2026-04-11T14:00:24Z</time></trkpt><trkpt lat="43.34293721941947" lon="12.680021153202642"><ele>518.0</ele><time>2026-04-11T14:00:25Z</time></trkpt><trkpt lat="43.342889092485784" lon="12.679925065295897"><ele>518.5</ele><time>2026-04-11T14:00:26Z</time></trkpt><trkpt lat="43.34285287516122" lon="12.679830202594019"><ele>519.0</ele><time>2026-04-11T14:00:27Z</time></trkpt><trkpt lat="43.342812547450784" lon="12.679723605051914"><ele>519.5</ele><time>2026-04-11T14:00:28Z</time></trkpt><trkpt lat="43.34278588650071" lon="12.679617145002949"><ele>520.0</ele><time>2026-04-11T14:00:29Z</time></trkpt><trkpt lat="43.342758564320576" lon="12.679519807410903"><ele>520.5</ele><time>2026-04-11T14:00:30Z</time></trkpt><trkpt lat="43.342715144376086" lon="12.679449093732897"><ele>521.0</ele><time>2026-04-11T14:00:31Z</time></trkpt><trkpt lat="43.34265823492914" lon="12.679378773199893"><ele>525.5</ele><time>2026-04-11T14:00:32Z</time></trkpt><trkpt lat="43.34259249152871" lon="12.679318937147512"><ele>530.0</ele><time>2026-04-11T14:00:33Z</time></trkpt><trkpt lat="43.34252980925448" lon="12.679260781866834"><ele>534.5</ele><time>2026-04-11T14:00:34Z</time></trkpt><trkpt lat="43.34246280388597" lon="12.679205559119765"><ele>539.0</ele><time>2026-04-11T14:00:35Z</time></trkpt><trkpt lat="43.342388805318095" lon="12.679127967186162"><ele>543.5</ele><time>2026-04-11T14:00:36Z</time></trkpt><trkpt lat="43.34233733593405" lon="12.679033000044695"><ele>548.0</ele><time>2026-04-11T14:00:37Z</time></trkpt><trkpt lat="43.34227139298687" lon="12.678964252338561"><ele>550.1666666666666</ele><time>2026-04-11T14:00:38Z</time></trkpt><trkpt lat="43.342212732409" lon="12.678886742539826"><ele>552.3333333333333</ele><time>2026-04-11T14:00:39Z</time></trkpt><trkpt lat="43.34216126933779" lon="12.678797645462833"><ele>554.5</ele><time>2026-04-11T14:00:40Z</time></trkpt><trkpt lat="43.3421186951449" lon="12.678696493176073"><ele>556.6666666666666</ele><time>2026-04-11T14:00:41Z</time></trkpt><trkpt lat="43.34206061981763" lon="12.67862003347871"><ele>558.8333333333334</ele><time>2026-04-11T14:00:42Z</time></trkpt><trkpt lat="43.34198808118721" lon="12.67855595980233"><ele>561.0</ele><time>2026-04-11T14:00:43Z</time></trkpt><trkpt lat="43.34191420720351" lon="12.678495800215037"><ele>561.0</ele><time>2026-04-11T14:00:44Z</time></trkpt><trkpt lat="43.341850093737705" lon="12.678445409600606"><ele>561.0</ele><time>2026-04-11T14:00:45Z</time></trkpt><trkpt lat="43.34176766460205" lon="12.67841096316827"><ele>561.0</ele><time>2026-04-11T14:00:46Z</time></trkpt><trkpt lat="43.34169371484235" lon="12.678370906020499"><ele>561.0</ele><time>2026-04-11T14:00:47Z</time></trkpt><trkpt lat="43.341596245807864" lon="12.67833940616877"><ele>561.0</ele><time>2026-04-11T14:00:48Z</time></trkpt><trkpt lat="43.34151494215774" lon="12.678315327154408"><ele>561.0</ele><time>2026-04-11T14:00:49Z</time></trkpt><trkpt lat="43.341445647793826" lon="12.678278275981025"><ele>560.8</ele><time>2026-04-11T14:00:50Z</time></trkpt><trkpt lat="43.341332491561225" lon="12.678187384205385"><ele>560.6</ele><time>2026-04-11T14:00:52Z</time></trkpt><trkpt lat="43.34129066380969" lon="12.678094620499193"><ele>560.4</ele><time>2026-04-11T14:00:53Z</time></trkpt><trkpt lat="43.3412388669026" lon="12.677989356453862"><ele>560.2</ele><time>2026-04-11T14:00:54Z</time></trkpt><trkpt lat="43.341179249801755" lon="12.677864165872714"><ele>560.0</ele><time>2026-04-11T14:00:55Z</time></trkpt><trkpt lat="43.34112077947369" lon="12.67774484534347"><ele>560.0</ele><time>2026-04-11T14:00:56Z</time></trkpt><trkpt lat="43.341065051501445" lon="12.677633731907818"><ele>560.0</ele><time>2026-04-11T14:00:57Z</time></trkpt><trkpt lat="43.34099997513304" lon="12.677531795477389"><ele>560.0</ele><time>2026-04-11T14:00:58Z</time></trkpt><trkpt lat="43.34094495554987" lon="12.67743169588328"><ele>560.0</ele><time>2026-04-11T14:00:59Z</time></trkpt><trkpt lat="43.34088974340651" lon="12.67734795145755"><ele>560.0</ele><time>2026-04-11T14:01:00Z</time></trkpt><trkpt lat="43.34083857853548" lon="12.677282467066123"><ele>560.0</ele><time>2026-04-11T14:01:01Z</time></trkpt><trkpt lat="43.34077400196136" lon="12.67723339345166"><ele>560.0</ele><time>2026-04-11T14:01:02Z</time></trkpt><trkpt lat="43.340693544508554" lon="12.677195233823012"><ele>560.0</ele><time>2026-04-11T14:01:03Z</time></trkpt><trkpt lat="43.34059564885063" lon="12.67715577245815"><ele>560.0</ele><time>2026-04-11T14:01:04Z</time></trkpt><trkpt lat="43.34049415903685" lon="12.677105132360351"><ele>560.0</ele><time>2026-04-11T14:01:05Z</time></trkpt><trkpt lat="43.340404193854646" lon="12.677026589375721"><ele>560.0</ele><time>2026-04-11T14:01:06Z</time></trkpt><trkpt lat="43.34030673914094" lon="12.676965404807751"><ele>560.0</ele><time>2026-04-11T14:01:07Z</time></trkpt><trkpt lat="43.340204249469835" lon="12.676925562420948"><ele>560.0</ele><time>2026-04-11T14:01:08Z</time></trkpt><trkpt lat="43.340125006835656" lon="12.6768476446901"><ele>560.0</ele><time>2026-04-11T14:01:09Z</time></trkpt><trkpt lat="43.340046300274665" lon="12.676792377898144"><ele>560.0</ele><time>2026-04-11T14:01:10Z</time></trkpt><trkpt lat="43.33997723715111" lon="12.676735189081485"><ele>560.0</ele><time>2026-04-11T14:01:11Z</time></trkpt><trkpt lat="43.33991598520423" lon="12.676676244449974"><ele>560.0</ele><time>2026-04-11T14:01:12Z</time></trkpt><trkpt lat="43.339859669515334" lon="12.676620620137358"><ele>560.0</ele><time>2026-04-11T14:01:13Z</time></trkpt><trkpt lat="43.33979063142951" lon="12.676578447492744"><ele>560.0</ele><time>2026-04-11T14:01:14Z</time></trkpt><trkpt lat="43.33972535611853" lon="12.676510880937206"><ele>560.0</ele><time>2026-04-11T14:01:15Z</time></trkpt><trkpt lat="43.33965483331218" lon="12.67645621943692"><ele>560.0</ele><time>2026-04-11T14:01:16Z</time></trkpt><trkpt lat="43.33957712791623" lon="12.67640959834443"><ele>560.0</ele><time>2026-04-11T14:01:17Z</time></trkpt><trkpt lat="43.339511986285586" lon="12.67634632736578"><ele>560.0</ele><time>2026-04-11T14:01:18Z</time></trkpt><trkpt lat="43.339428658124994" lon="12.676309562496625"><ele>560.8333333333333</ele><time>2026-04-11T14:01:19Z</time></trkpt><trkpt lat="43.339337946627055" lon="12.676297810332903"><ele>561.6666666666666</ele><time>2026-04-11T14:01:20Z</time></trkpt><trkpt lat="43.33925339665356" lon="12.67629983219738"><ele>562.5</ele><time>2026-04-11T14:01:21Z</time></trkpt><trkpt lat="43.339169224198045" lon="12.676321993770959"><ele>563.3333333333334</ele><time>2026-04-11T14:01:22Z</time></trkpt><trkpt lat="43.33908955926782" lon="12.676341429122683"><ele>564.1666666666667</ele><time>2026-04-11T14:01:23Z</time></trkpt><trkpt lat="43.33899743241029" lon="12.676362781221082"><ele>565.0</ele><time>2026-04-11T14:01:24Z</time></trkpt><trkpt lat="43.33891045695351" lon="12.676380869315887"><ele>564.6</ele><time>2026-04-11T14:01:25Z</time></trkpt><trkpt lat="43.33883270337648" lon="12.67638508807694"><ele>564.2</ele><time>2026-04-11T14:01:26Z</time></trkpt><trkpt lat="43.338734426027685" lon="12.676380556185093"><ele>563.8</ele><time>2026-04-11T14:01:27Z</time></trkpt><trkpt lat="43.338621714680876" lon="12.676418233119318"><ele>563.4</ele><time>2026-04-11T14:01:28Z</time></trkpt><trkpt lat="43.33850817679098" lon="12.676452302921867"><ele>563.0</ele><time>2026-04-11T14:01:29Z</time></trkpt><trkpt lat="43.33840512033504" lon="12.676465392448643"><ele>563.0</ele><time>2026-04-11T14:01:30Z</time></trkpt><trkpt lat="43.33829761446309" lon="12.676483025764481"><ele>563.0</ele><time>2026-04-11T14:01:31Z</time></trkpt><trkpt lat="43.3381887185014" lon="12.676517759394079"><ele>563.0</ele><time>2026-04-11T14:01:32Z</time></trkpt><trkpt lat="43.33808965341126" lon="12.676581085063011"><ele>563.0</ele><time>2026-04-11T14:01:33Z</time></trkpt><trkpt lat="43.33799753412608" lon="12.676616127434656"><ele>563.0</ele><time>2026-04-11T14:01:34Z</time></trkpt><trkpt lat="43.33791874983211" lon="12.676621792653892"><ele>561.4285714285714</ele><time>2026-04-11T14:01:35Z</time></trkpt><trkpt lat="43.33784231757009" lon="12.676614281093919"><ele>559.8571428571429</ele><time>2026-04-11T14:01:36Z</time></trkpt><trkpt lat="43.337769038093995" lon="12.676623817874388"><ele>558.2857142857143</ele><time>2026-04-11T14:01:37Z</time></trkpt><trkpt lat="43.33770643834601" lon="12.676573738826903"><ele>556.7142857142858</ele><time>2026-04-11T14:01:38Z</time></trkpt><trkpt lat="43.33765635033456" lon="12.676503639053088"><ele>555.1428571428572</ele><time>2026-04-11T14:01:39Z</time></trkpt><trkpt lat="43.33760727475902" lon="12.676428305867647"><ele>553.5714285714286</ele><time>2026-04-11T14:01:40Z</time></trkpt><trkpt lat="43.33755294764549" lon="12.676345366886986"><ele>552.0</ele><time>2026-04-11T14:01:41Z</time></trkpt><trkpt lat="43.337493832427675" lon="12.676261016012305"><ele>552.0</ele><time>2026-04-11T14:01:42Z</time></trkpt><trkpt lat="43.337435313980436" lon="12.676177923795603"><ele>552.0</ele><time>2026-04-11T14:01:43Z</time></trkpt><trkpt lat="43.337371916546665" lon="12.676083499884914"><ele>552.0</ele><time>2026-04-11T14:01:44.001Z</time></trkpt><trkpt lat="43.33730265041155" lon="12.675978583839264"><ele>552.0</ele><time>2026-04-11T14:01:45.001Z</time></trkpt><trkpt lat="43.337235490371384" lon="12.675876719681238"><ele>552.0</ele><time>2026-04-11T14:01:46.001Z</time></trkpt><trkpt lat="43.33716980568124" lon="12.675778512403856"><ele>550.8000000000001</ele><time>2026-04-11T14:01:47.001Z</time></trkpt><trkpt lat="43.33710111573232" lon="12.67568321803832"><ele>549.6</ele><time>2026-04-11T14:01:48.001Z</time></trkpt><trkpt lat="43.33703550178126" lon="12.675585248301175"><ele>548.4000000000001</ele><time>2026-04-11T14:01:49.001Z</time></trkpt><trkpt lat="43.336971912241154" lon="12.675488464448081"><ele>547.2</ele><time>2026-04-11T14:01:50.001Z</time></trkpt><trkpt lat="43.33690999865919" lon="12.67539975678803"><ele>546.0</ele><time>2026-04-11T14:01:51.001Z</time></trkpt><trkpt lat="43.33684522129638" lon="12.675319038599975"><ele>547.3333333333334</ele><time>2026-04-11T14:01:52.001Z</time></trkpt><trkpt lat="43.336779427777195" lon="12.67525099940698"><ele>548.6666666666666</ele><time>2026-04-11T14:01:53.001Z</time></trkpt><trkpt lat="43.33671563694561" lon="12.675165682674749"><ele>550.0</ele><time>2026-04-11T14:01:54.001Z</time></trkpt><trkpt lat="43.33666578600215" lon="12.67508098256905"><ele>551.3333333333333</ele><time>2026-04-11T14:01:55.001Z</time></trkpt><trkpt lat="43.33662158971855" lon="12.675005750264821"><ele>552.6666666666666</ele><time>2026-04-11T14:01:56.001Z</time></trkpt><trkpt lat="43.33660321646518" lon="12.674913507912207"><ele>554.0</ele><time>2026-04-11T14:01:57.001Z</time></trkpt><trkpt lat="43.33660998212247" lon="12.674795187619466"><ele>554.0</ele><time>2026-04-11T14:01:58.001Z</time></trkpt><trkpt lat="43.33663701521258" lon="12.674674132584697"><ele>554.0</ele><time>2026-04-11T14:01:59.001Z</time></trkpt><trkpt lat="43.336648810585686" lon="12.674554085071613"><ele>554.0</ele><time>2026-04-11T14:02:00.001Z</time></trkpt><trkpt lat="43.33664706159683" lon="12.674430809481894"><ele>554.0</ele><time>2026-04-11T14:02:01.001Z</time></trkpt><trkpt lat="43.336648772267786" lon="12.674317239199768"><ele>554.0</ele><time>2026-04-11T14:02:02.001Z</time></trkpt><trkpt lat="43.33665719982901" lon="12.674192775844647"><ele>554.0</ele><time>2026-04-11T14:02:03.001Z</time></trkpt><trkpt lat="43.336677641081636" lon="12.674055465102388"><ele>556.4</ele><time>2026-04-11T14:02:04.001Z</time></trkpt><trkpt lat="43.33669889993132" lon="12.673920891315595"><ele>558.8</ele><time>2026-04-11T14:02:05.001Z</time></trkpt><trkpt lat="43.33672467883437" lon="12.673780586692368"><ele>561.2</ele><time>2026-04-11T14:02:06.001Z</time></trkpt><trkpt lat="43.336754507403526" lon="12.673652146211653"><ele>563.6</ele><time>2026-04-11T14:02:07.001Z</time></trkpt><trkpt lat="43.336790979005116" lon="12.67351685636511"><ele>566.0</ele><time>2026-04-11T14:02:08.001Z</time></trkpt><trkpt lat="43.33680410948005" lon="12.673399144939015"><ele>567.6666666666666</ele><time>2026-04-11T14:02:09.001Z</time></trkpt><trkpt lat="43.336812294725725" lon="12.67328902228828"><ele>569.3333333333333</ele><time>2026-04-11T14:02:10.001Z</time></trkpt><trkpt lat="43.33682094799224" lon="12.673167812586668"><ele>571.0</ele><time>2026-04-11T14:02:11.001Z</time></trkpt><trkpt lat="43.33681811946965" lon="12.673050298536056"><ele>572.6666666666666</ele><time>2026-04-11T14:02:12.001Z</time></trkpt><trkpt lat="43.33679302570951" lon="12.672935529212422"><ele>574.3333333333334</ele><time>2026-04-11T14:02:13.001Z</time></trkpt><trkpt lat="43.33676290723323" lon="12.672823065370975"><ele>576.0</ele><time>2026-04-11T14:02:14.001Z</time></trkpt><trkpt lat="43.33673052008686" lon="12.672691771145233"><ele>576.5</ele><time>2026-04-11T14:02:15.001Z</time></trkpt><trkpt lat="43.33668381282892" lon="12.67256588447087"><ele>577.0</ele><time>2026-04-11T14:02:16.001Z</time></trkpt><trkpt lat="43.33664010139122" lon="12.672438491642051"><ele>577.5</ele><time>2026-04-11T14:02:17Z</time></trkpt><trkpt lat="43.33660479981502" lon="12.672326257355332"><ele>578.0</ele><time>2026-04-11T14:02:18Z</time></trkpt><trkpt lat="43.33660048361218" lon="12.672219432919295"><ele>578.5</ele><time>2026-04-11T14:02:19Z</time></trkpt><trkpt lat="43.336613452206954" lon="12.672114743023272"><ele>579.0</ele><time>2026-04-11T14:02:20Z</time></trkpt><trkpt lat="43.3366089801286" lon="12.67198845931952"><ele>580.3333333333334</ele><time>2026-04-11T14:02:21Z</time></trkpt><trkpt lat="43.336630121770405" lon="12.67187395817658"><ele>581.6666666666666</ele><time>2026-04-11T14:02:22Z</time></trkpt><trkpt lat="43.33663741617342" lon="12.67175021344289"><ele>583.0</ele><time>2026-04-11T14:02:23Z</time></trkpt><trkpt lat="43.33663080369181" lon="12.671641997190708"><ele>584.3333333333333</ele><time>2026-04-11T14:02:24Z</time></trkpt><trkpt lat="43.33660724158745" lon="12.671553286047384"><ele>585.6666666666666</ele><time>2026-04-11T14:02:25Z</time></trkpt><trkpt lat="43.33652352216502" lon="12.671443027115314"><ele>587.0</ele><time>2026-04-11T14:02:27Z</time></trkpt><trkpt lat="43.33647222505564" lon="12.671354699691898"><ele>587.0</ele><time>2026-04-11T14:02:29Z</time></trkpt><trkpt lat="43.33649700436403" lon="12.671274047663315"><ele>587.0</ele><time>2026-04-11T14:02:31Z</time></trkpt><trkpt lat="43.336522353076504" lon="12.67117132342708"><ele>587.0</ele><time>2026-04-11T14:02:53Z</time></trkpt><trkpt lat="43.33654885942112" lon="12.671076877101497"><ele>587.0</ele><time>2026-04-11T14:02:55Z</time></trkpt><trkpt lat="43.33659512392773" lon="12.670928362898254"><ele>587.0</ele><time>2026-04-11T14:02:57Z</time></trkpt><trkpt lat="43.336638436663065" lon="12.670769202909087"><ele>587.6666666666666</ele><time>2026-04-11T14:02:59Z</time></trkpt><trkpt lat="43.33668693446985" lon="12.670708544873191"><ele>588.3333333333333</ele><time>2026-04-11T14:03:00Z</time></trkpt><trkpt lat="43.33675452452765" lon="12.670660215506764"><ele>589.0</ele><time>2026-04-11T14:03:01Z</time></trkpt><trkpt lat="43.336827608444814" lon="12.670626953809911"><ele>589.6666666666666</ele><time>2026-04-11T14:03:02Z</time></trkpt><trkpt lat="43.336911312151294" lon="12.670587108959777"><ele>590.3333333333334</ele><time>2026-04-11T14:03:03Z</time></trkpt><trkpt lat="43.33700135679488" lon="12.670550608831391"><ele>591.0</ele><time>2026-04-11T14:03:04Z</time></trkpt><trkpt lat="43.337066086200245" lon="12.670518559773372"><ele>591.0</ele><time>2026-04-11T14:03:05Z</time></trkpt><trkpt lat="43.33712801852688" lon="12.670485009018348"><ele>591.0</ele><time>2026-04-11T14:03:06Z</time></trkpt><trkpt lat="43.337214283950736" lon="12.67041312903313"><ele>591.0</ele><time>2026-04-11T14:03:08Z</time></trkpt><trkpt lat="43.3372591144677" lon="12.670332992754863"><ele>591.0</ele><time>2026-04-11T14:03:10Z</time></trkpt><trkpt lat="43.33729911787434" lon="12.670251925889104"><ele>591.0</ele><time>2026-04-11T14:03:12Z</time></trkpt><trkpt lat="43.3373559374154" lon="12.670162387541273"><ele>591.0</ele><time>2026-04-11T14:03:14Z</time></trkpt><trkpt lat="43.337398087206566" lon="12.670092751445942"><ele>592.5714285714286</ele><time>2026-04-11T14:03:15Z</time></trkpt><trkpt lat="43.337436140006055" lon="12.670014960066727"><ele>594.1428571428571</ele><time>2026-04-11T14:03:16Z</time></trkpt><trkpt lat="43.33745442765458" lon="12.669929652642052"><ele>595.7142857142858</ele><time>2026-04-11T14:03:17Z</time></trkpt><trkpt lat="43.337470492032416" lon="12.669834836441312"><ele>597.2857142857142</ele><time>2026-04-11T14:03:18Z</time></trkpt><trkpt lat="43.337484943770264" lon="12.669742165782585"><ele>598.8571428571429</ele><time>2026-04-11T14:03:19Z</time></trkpt><trkpt lat="43.33749306983234" lon="12.669651583273673"><ele>600.4285714285714</ele><time>2026-04-11T14:03:20Z</time></trkpt><trkpt lat="43.337497989576036" lon="12.669558940765763"><ele>602.0</ele><time>2026-04-11T14:03:21Z</time></trkpt><trkpt lat="43.3374922543021" lon="12.669463325738187"><ele>602.3333333333333</ele><time>2026-04-11T14:03:22Z</time></trkpt><trkpt lat="43.33748356403137" lon="12.669374462628276"><ele>602.6666666666666</ele><time>2026-04-11T14:03:23Z</time></trkpt><trkpt lat="43.33744740513397" lon="12.669239541175546"><ele>603.0</ele><time>2026-04-11T14:03:25Z</time></trkpt><trkpt lat="43.337406645914335" lon="12.66913961293833"><ele>603.3333333333334</ele><time>2026-04-11T14:03:54.001Z</time></trkpt><trkpt lat="43.33736160011761" lon="12.669056824872872"><ele>603.6666666666667</ele><time>2026-04-11T14:03:56.001Z</time></trkpt><trkpt lat="43.33730828266362" lon="12.668984014855127"><ele>604.0</ele><time>2026-04-11T14:03:58.001Z</time></trkpt><trkpt lat="43.33724447779932" lon="12.668908739993528"><ele>602.3333333333334</ele><time>2026-04-11T14:04:00.001Z</time></trkpt><trkpt lat="43.337198752606454" lon="12.668842818535504"><ele>600.6666666666667</ele><time>2026-04-11T14:04:03.001Z</time></trkpt><trkpt lat="43.33714130579815" lon="12.668752030634723"><ele>599.0</ele><time>2026-04-11T14:04:07.001Z</time></trkpt><trkpt lat="43.33709023562919" lon="12.66867974933984"><ele>597.3333333333334</ele><time>2026-04-11T14:04:09.001Z</time></trkpt><trkpt lat="43.3370477963798" lon="12.668581246263177"><ele>595.6666666666666</ele><time>2026-04-11T14:04:13.001Z</time></trkpt><trkpt lat="43.33700698551771" lon="12.66851093726902"><ele>594.0</ele><time>2026-04-11T14:04:16.001Z</time></trkpt><trkpt lat="43.33699563329259" lon="12.668403942165037"><ele>594.0</ele><time>2026-04-11T14:04:19.001Z</time></trkpt><trkpt lat="43.337022899555535" lon="12.66829278112656"><ele>594.0</ele><time>2026-04-11T14:04:21.001Z</time></trkpt><trkpt lat="43.33706412385896" lon="12.668149409618028"><ele>594.0</ele><time>2026-04-11T14:04:23Z</time></trkpt><trkpt lat="43.337089538338105" lon="12.668069682487522"><ele>594.0</ele><time>2026-04-11T14:04:24Z</time></trkpt><trkpt lat="43.337118283637956" lon="12.667989222441069"><ele>594.0</ele><time>2026-04-11T14:04:25Z</time></trkpt><trkpt lat="43.337182494840626" lon="12.667842680146958"><ele>593.4</ele><time>2026-04-11T14:04:27Z</time></trkpt><trkpt lat="43.33724131688055" lon="12.667706261724456"><ele>592.8</ele><time>2026-04-11T14:04:29Z</time></trkpt><trkpt lat="43.33729818722505" lon="12.667583212031222"><ele>592.2</ele><time>2026-04-11T14:04:31Z</time></trkpt><trkpt lat="43.337346183564875" lon="12.667478693588484"><ele>591.6</ele><time>2026-04-11T14:04:33Z</time></trkpt><trkpt lat="43.33738694025852" lon="12.66739451715427"><ele>591.0</ele><time>2026-04-11T14:04:35Z</time></trkpt><trkpt lat="43.33739313238821" lon="12.66728918473209"><ele>591.0</ele><time>2026-04-11T14:04:38Z</time></trkpt><trkpt lat="43.33740938658376" lon="12.667195888710772"><ele>591.0</ele><time>2026-04-11T14:06:56Z</time></trkpt><trkpt lat="43.33739643209902" lon="12.667104307280882"><ele>591.0</ele><time>2026-04-11T14:06:59Z</time></trkpt><trkpt lat="43.33738962451317" lon="12.667007590428218"><ele>591.0</ele><time>2026-04-11T14:10:10.001Z</time></trkpt><trkpt lat="43.33736170155825" lon="12.666872871393098"><ele>591.0</ele><time>2026-04-11T14:10:12.001Z</time></trkpt><trkpt lat="43.337364547424244" lon="12.666773005541197"><ele>591.0</ele><time>2026-04-11T14:10:13.001Z</time></trkpt><trkpt lat="43.33736173714629" lon="12.666673050398003"><ele>591.3333333333334</ele><time>2026-04-11T14:10:14.001Z</time></trkpt><trkpt lat="43.33736622603437" lon="12.666581664761608"><ele>591.6666666666666</ele><time>2026-04-11T14:10:15.001Z</time></trkpt><trkpt lat="43.337359155018355" lon="12.666410729799626"><ele>592.0</ele><time>2026-04-11T14:10:17.001Z</time></trkpt><trkpt lat="43.33735447970933" lon="12.666316380091112"><ele>592.3333333333333</ele><time>2026-04-11T14:10:18.001Z</time></trkpt><trkpt lat="43.33734740463954" lon="12.666214905023125"><ele>592.6666666666666</ele><time>2026-04-11T14:10:19.001Z</time></trkpt><trkpt lat="43.33732521760208" lon="12.666118831764066"><ele>593.0</ele><time>2026-04-11T14:10:20.001Z</time></trkpt><trkpt lat="43.33729113374341" lon="12.666019815653359"><ele>593.1666666666666</ele><time>2026-04-11T14:10:21.001Z</time></trkpt><trkpt lat="43.337240968212306" lon="12.665921514059058"><ele>593.3333333333333</ele><time>2026-04-11T14:10:22.001Z</time></trkpt><trkpt lat="43.33719431777513" lon="12.665840975278629"><ele>593.5</ele><time>2026-04-11T14:10:23.001Z</time></trkpt><trkpt lat="43.33714071345888" lon="12.665770992171165"><ele>593.6666666666666</ele><time>2026-04-11T14:10:24.001Z</time></trkpt><trkpt lat="43.3370790316439" lon="12.665703207824198"><ele>593.8333333333334</ele><time>2026-04-11T14:10:25.001Z</time></trkpt><trkpt lat="43.337024073458096" lon="12.665629308277046"><ele>594.0</ele><time>2026-04-11T14:10:26.001Z</time></trkpt><trkpt lat="43.33697800679849" lon="12.665548026025004"><ele>594.3333333333334</ele><time>2026-04-11T14:10:27.001Z</time></trkpt><trkpt lat="43.336926761134926" lon="12.665461753617384"><ele>594.6666666666666</ele><time>2026-04-11T14:10:28.001Z</time></trkpt><trkpt lat="43.336877188821575" lon="12.665386127789612"><ele>595.0</ele><time>2026-04-11T14:10:29.001Z</time></trkpt><trkpt lat="43.33682684444279" lon="12.665306720130937"><ele>595.3333333333333</ele><time>2026-04-11T14:10:30.001Z</time></trkpt><trkpt lat="43.33678387434051" lon="12.665232829802212"><ele>595.6666666666666</ele><time>2026-04-11T14:10:31.001Z</time></trkpt><trkpt lat="43.33673527134762" lon="12.665155510578355"><ele>596.0</ele><time>2026-04-11T14:10:32.001Z</time></trkpt><trkpt lat="43.336695287563074" lon="12.665055886413269"><ele>596.0</ele><time>2026-04-11T14:10:33.001Z</time></trkpt><trkpt lat="43.336660971697526" lon="12.664947847961503"><ele>596.0</ele><time>2026-04-11T14:10:34.001Z</time></trkpt><trkpt lat="43.33663195631514" lon="12.664834089323152"><ele>596.0</ele><time>2026-04-11T14:10:35.001Z</time></trkpt><trkpt lat="43.33660685756906" lon="12.664726560786173"><ele>596.0</ele><time>2026-04-11T14:10:36.001Z</time></trkpt><trkpt lat="43.33659801223598" lon="12.664610268893652"><ele>596.0</ele><time>2026-04-11T14:10:37.001Z</time></trkpt><trkpt lat="43.33660848903272" lon="12.664481737727382"><ele>596.0</ele><time>2026-04-11T14:10:38.001Z</time></trkpt><trkpt lat="43.33661908873804" lon="12.664364638765404"><ele>596.5</ele><time>2026-04-11T14:10:39.001Z</time></trkpt><trkpt lat="43.336611384001614" lon="12.664258326588811"><ele>597.0</ele><time>2026-04-11T14:10:40.001Z</time></trkpt><trkpt lat="43.33659617049046" lon="12.664167112706703"><ele>597.5</ele><time>2026-04-11T14:10:41Z</time></trkpt><trkpt lat="43.3365921201898" lon="12.664068860914806"><ele>598.0</ele><time>2026-04-11T14:10:42Z</time></trkpt><trkpt lat="43.33658272793152" lon="12.663958062562703"><ele>598.5</ele><time>2026-04-11T14:10:43Z</time></trkpt><trkpt lat="43.336582436384596" lon="12.663840645557078"><ele>599.0</ele><time>2026-04-11T14:10:44Z</time></trkpt><trkpt lat="43.33658560024411" lon="12.663709790778498"><ele>599.0</ele><time>2026-04-11T14:10:45Z</time></trkpt><trkpt lat="43.33659565802422" lon="12.663582434721873"><ele>599.0</ele><time>2026-04-11T14:10:46Z</time></trkpt><trkpt lat="43.33660676039856" lon="12.663469204917522"><ele>599.0</ele><time>2026-04-11T14:10:47Z</time></trkpt><trkpt lat="43.33660961368966" lon="12.663364182180304"><ele>599.0</ele><time>2026-04-11T14:10:48Z</time></trkpt><trkpt lat="43.33662237140889" lon="12.66325044779744"><ele>599.0</ele><time>2026-04-11T14:10:49Z</time></trkpt><trkpt lat="43.336641968726035" lon="12.663127175149224"><ele>599.0</ele><time>2026-04-11T14:10:50Z</time></trkpt><trkpt lat="43.336656071300624" lon="12.663004040636274"><ele>599.0</ele><time>2026-04-11T14:10:51Z</time></trkpt><trkpt lat="43.33667691364758" lon="12.662888162681242"><ele>599.0</ele><time>2026-04-11T14:10:52Z</time></trkpt><trkpt lat="43.336704867833944" lon="12.662766433796309"><ele>599.0</ele><time>2026-04-11T14:10:53Z</time></trkpt><trkpt lat="43.3367205892648" lon="12.662625167899055"><ele>599.0</ele><time>2026-04-11T14:10:54Z</time></trkpt><trkpt lat="43.33673042396539" lon="12.662491278028323"><ele>599.0</ele><time>2026-04-11T14:10:55Z</time></trkpt><trkpt lat="43.336727492421744" lon="12.662364938985114"><ele>598.8</ele><time>2026-04-11T14:10:56Z</time></trkpt><trkpt lat="43.33671180454637" lon="12.662240444115252"><ele>598.5999999999999</ele><time>2026-04-11T14:10:57Z</time></trkpt><trkpt lat="43.3366739177426" lon="12.662099934166571"><ele>598.4</ele><time>2026-04-11T14:10:58Z</time></trkpt><trkpt lat="43.33661961385639" lon="12.661960631104403"><ele>598.1999999999999</ele><time>2026-04-11T14:10:59Z</time></trkpt><trkpt lat="43.33656046188269" lon="12.661820062934414"><ele>598.0</ele><time>2026-04-11T14:11:00Z</time></trkpt><trkpt lat="43.33651159934938" lon="12.66168961816891"><ele>597.4</ele><time>2026-04-11T14:11:01Z</time></trkpt><trkpt lat="43.336456339261574" lon="12.661560149432113"><ele>596.8</ele><time>2026-04-11T14:11:02Z</time></trkpt><trkpt lat="43.33640498603558" lon="12.661434159424225"><ele>596.2</ele><time>2026-04-11T14:11:03Z</time></trkpt><trkpt lat="43.33635626705387" lon="12.661318020952912"><ele>595.6</ele><time>2026-04-11T14:11:04Z</time></trkpt><trkpt lat="43.33630216946731" lon="12.661199426007714"><ele>595.0</ele><time>2026-04-11T14:11:05Z</time></trkpt><trkpt lat="43.336254015033134" lon="12.661072467631714"><ele>595.0</ele><time>2026-04-11T14:11:06Z</time></trkpt><trkpt lat="43.33620726770961" lon="12.660943364679955"><ele>595.0</ele><time>2026-04-11T14:11:07Z</time></trkpt><trkpt lat="43.33617076888658" lon="12.660814422973694"><ele>595.0</ele><time>2026-04-11T14:11:08Z</time></trkpt><trkpt lat="43.336143816424176" lon="12.660673435861918"><ele>595.0</ele><time>2026-04-11T14:11:09Z</time></trkpt><trkpt lat="43.33612471393008" lon="12.660514047120301"><ele>595.0</ele><time>2026-04-11T14:11:10Z</time></trkpt><trkpt lat="43.336105181235965" lon="12.660371985464918"><ele>596.6</ele><time>2026-04-11T14:11:11Z</time></trkpt><trkpt lat="43.33607920840381" lon="12.660237571542348"><ele>598.2</ele><time>2026-04-11T14:11:12Z</time></trkpt><trkpt lat="43.336050783363106" lon="12.660111477129506"><ele>599.8</ele><time>2026-04-11T14:11:13Z</time></trkpt><trkpt lat="43.33600803018799" lon="12.66000353195574"><ele>601.4</ele><time>2026-04-11T14:11:14Z</time></trkpt><trkpt lat="43.33594405093597" lon="12.659907961086368"><ele>603.0</ele><time>2026-04-11T14:11:15Z</time></trkpt><trkpt lat="43.3358642710955" lon="12.659821075254758"><ele>603.0</ele><time>2026-04-11T14:11:16Z</time></trkpt><trkpt lat="43.33578924982426" lon="12.659725692413264"><ele>603.0</ele><time>2026-04-11T14:11:17Z</time></trkpt><trkpt lat="43.33573593621905" lon="12.659613771151246"><ele>603.0</ele><time>2026-04-11T14:11:18Z</time></trkpt><trkpt lat="43.335689913813084" lon="12.659476159545813"><ele>603.0</ele><time>2026-04-11T14:11:19Z</time></trkpt><trkpt lat="43.335653972960564" lon="12.659338912232752"><ele>603.0</ele><time>2026-04-11T14:11:20Z</time></trkpt><trkpt lat="43.33562478683332" lon="12.659204094874173"><ele>603.0</ele><time>2026-04-11T14:11:21Z</time></trkpt><trkpt lat="43.33560385681331" lon="12.659067321473676"><ele>603.0</ele><time>2026-04-11T14:11:22Z</time></trkpt><trkpt lat="43.33557533440053" lon="12.658942875262131"><ele>603.0</ele><time>2026-04-11T14:11:23Z</time></trkpt><trkpt lat="43.33553981285064" lon="12.658826331614396"><ele>603.0</ele><time>2026-04-11T14:11:24Z</time></trkpt><trkpt lat="43.33548579117395" lon="12.658733617578378"><ele>603.0</ele><time>2026-04-11T14:11:25Z</time></trkpt><trkpt lat="43.335400258889464" lon="12.65863713573369"><ele>605.6</ele><time>2026-04-11T14:11:26Z</time></trkpt><trkpt lat="43.33529784592228" lon="12.658548037960413"><ele>608.1999999999999</ele><time>2026-04-11T14:11:27Z</time></trkpt><trkpt lat="43.33520044218247" lon="12.658463638418974"><ele>610.8</ele><time>2026-04-11T14:11:28Z</time></trkpt><trkpt lat="43.335113782855316" lon="12.658373043024973"><ele>613.4</ele><time>2026-04-11T14:11:29Z</time></trkpt><trkpt lat="43.33504206787056" lon="12.65828822012964"><ele>616.0</ele><time>2026-04-11T14:11:30Z</time></trkpt><trkpt lat="43.33498630540937" lon="12.658189598503464"><ele>616.0</ele><time>2026-04-11T14:11:31Z</time></trkpt><trkpt lat="43.33494597783187" lon="12.658075544233975"><ele>616.0</ele><time>2026-04-11T14:11:32Z</time></trkpt><trkpt lat="43.33490340784438" lon="12.657959754349362"><ele>616.0</ele><time>2026-04-11T14:11:33Z</time></trkpt><trkpt lat="43.33487128515096" lon="12.657839550816812"><ele>616.0</ele><time>2026-04-11T14:11:34Z</time></trkpt><trkpt lat="43.334839067358885" lon="12.657724017372022"><ele>616.0</ele><time>2026-04-11T14:11:35Z</time></trkpt><trkpt lat="43.33478503490963" lon="12.657616815567941"><ele>617.0</ele><time>2026-04-11T14:11:36Z</time></trkpt><trkpt lat="43.334728734295155" lon="12.65752323235126"><ele>618.0</ele><time>2026-04-11T14:11:37Z</time></trkpt><trkpt lat="43.334672653436854" lon="12.657396817216215"><ele>619.0</ele><time>2026-04-11T14:11:38Z</time></trkpt><trkpt lat="43.334625768412714" lon="12.657252638015"><ele>620.0</ele><time>2026-04-11T14:11:39Z</time></trkpt><trkpt lat="43.334580645891464" lon="12.657124491746536"><ele>621.0</ele><time>2026-04-11T14:11:40Z</time></trkpt><trkpt lat="43.334533263356505" lon="12.657017772506672"><ele>623.5</ele><time>2026-04-11T14:11:41Z</time></trkpt><trkpt lat="43.33448884769844" lon="12.656930746197684"><ele>626.0</ele><time>2026-04-11T14:11:42Z</time></trkpt><trkpt lat="43.33444291516958" lon="12.656851701661788"><ele>628.5</ele><time>2026-04-11T14:11:43Z</time></trkpt><trkpt lat="43.334393276939664" lon="12.65678791235316"><ele>631.0</ele><time>2026-04-11T14:11:44Z</time></trkpt><trkpt lat="43.33430102461245" lon="12.656718008123581"><ele>633.5</ele><time>2026-04-11T14:11:45Z</time></trkpt><trkpt lat="43.33421799120146" lon="12.656699230280703"><ele>636.0</ele><time>2026-04-11T14:11:46Z</time></trkpt><trkpt lat="43.334122420025636" lon="12.656703350915558"><ele>636.0</ele><time>2026-04-11T14:11:47Z</time></trkpt><trkpt lat="43.33404443650421" lon="12.656713790964517"><ele>636.0</ele><time>2026-04-11T14:11:48Z</time></trkpt><trkpt lat="43.33396610777844" lon="12.65674402491069"><ele>636.0</ele><time>2026-04-11T14:11:49Z</time></trkpt><trkpt lat="43.33390245309444" lon="12.65679076014708"><ele>636.0</ele><time>2026-04-11T14:11:50Z</time></trkpt><trkpt lat="43.333847442177216" lon="12.656846699049115"><ele>636.0</ele><time>2026-04-11T14:11:51Z</time></trkpt><trkpt lat="43.33379081806688" lon="12.656905426599403"><ele>636.0</ele><time>2026-04-11T14:11:52.001Z</time></trkpt><trkpt lat="43.33373380946919" lon="12.656974193142354"><ele>636.0</ele><time>2026-04-11T14:11:53.001Z</time></trkpt><trkpt lat="43.3336862290724" lon="12.65703630312287"><ele>633.0</ele><time>2026-04-11T14:11:54.001Z</time></trkpt><trkpt lat="43.333594114312646" lon="12.657090971267413"><ele>630.0</ele><time>2026-04-11T14:11:56.001Z</time></trkpt><trkpt lat="43.3335412986081" lon="12.65696424559962"><ele>627.0</ele><time>2026-04-11T14:11:58.001Z</time></trkpt><trkpt lat="43.33351536501461" lon="12.656876056548322"><ele>624.0</ele><time>2026-04-11T14:11:59.001Z</time></trkpt><trkpt lat="43.333510355309066" lon="12.656755914777653"><ele>621.0</ele><time>2026-04-11T14:12:00.001Z</time></trkpt><trkpt lat="43.33349327250404" lon="12.656612689814917"><ele>621.0</ele><time>2026-04-11T14:12:01.001Z</time></trkpt><trkpt lat="43.3334739097576" lon="12.656448976388834"><ele>621.0</ele><time>2026-04-11T14:12:02.001Z</time></trkpt><trkpt lat="43.333452280825036" lon="12.65629607274024"><ele>621.0</ele><time>2026-04-11T14:12:03.001Z</time></trkpt><trkpt lat="43.33343009623574" lon="12.656152181120877"><ele>621.0</ele><time>2026-04-11T14:12:04.001Z</time></trkpt><trkpt lat="43.33341655963792" lon="12.656004873797595"><ele>621.0</ele><time>2026-04-11T14:12:05.001Z</time></trkpt><trkpt lat="43.33341963892272" lon="12.655858740933802"><ele>623.0</ele><time>2026-04-11T14:12:06.001Z</time></trkpt><trkpt lat="43.333433728889005" lon="12.655712469992796"><ele>625.0</ele><time>2026-04-11T14:12:07.001Z</time></trkpt><trkpt lat="43.33345516445713" lon="12.655554189191683"><ele>627.0</ele><time>2026-04-11T14:12:08.001Z</time></trkpt><trkpt lat="43.3334750329123" lon="12.655395881639372"><ele>629.0</ele><time>2026-04-11T14:12:09.001Z</time></trkpt><trkpt lat="43.33349152400439" lon="12.65523020182366"><ele>631.0</ele><time>2026-04-11T14:12:10.001Z</time></trkpt><trkpt lat="43.33350852922072" lon="12.655043024258205"><ele>633.0</ele><time>2026-04-11T14:12:11.001Z</time></trkpt><trkpt lat="43.333512876339725" lon="12.654863843219792"><ele>635.0</ele><time>2026-04-11T14:12:12.001Z</time></trkpt><trkpt lat="43.33351534510043" lon="12.654709796989936"><ele>637.0</ele><time>2026-04-11T14:12:13.001Z</time></trkpt><trkpt lat="43.33350895612129" lon="12.65455960578155"><ele>638.0</ele><time>2026-04-11T14:12:14.001Z</time></trkpt><trkpt lat="43.33351103558652" lon="12.654407635789523"><ele>639.0</ele><time>2026-04-11T14:12:15.001Z</time></trkpt><trkpt lat="43.33352748308106" lon="12.654253434367709"><ele>640.0</ele><time>2026-04-11T14:12:16.001Z</time></trkpt><trkpt lat="43.333562926761736" lon="12.654097947603034"><ele>641.0</ele><time>2026-04-11T14:12:17.001Z</time></trkpt><trkpt lat="43.33360281223852" lon="12.653936042008079"><ele>641.0</ele><time>2026-04-11T14:12:18.001Z</time></trkpt><trkpt lat="43.333626958818435" lon="12.653760144481646"><ele>641.0</ele><time>2026-04-11T14:12:19.001Z</time></trkpt><trkpt lat="43.33362749569375" lon="12.653584072096248"><ele>641.0</ele><time>2026-04-11T14:12:20.001Z</time></trkpt><trkpt lat="43.33361365768751" lon="12.653407945417705"><ele>641.0</ele><time>2026-04-11T14:12:21.001Z</time></trkpt><trkpt lat="43.33359286740026" lon="12.653232824155587"><ele>642.75</ele><time>2026-04-11T14:12:22.001Z</time></trkpt><trkpt lat="43.333580418690936" lon="12.653067968250463"><ele>644.5</ele><time>2026-04-11T14:12:23.001Z</time></trkpt><trkpt lat="43.33357806017239" lon="12.652908037699788"><ele>646.25</ele><time>2026-04-11T14:12:24.001Z</time></trkpt><trkpt lat="43.33357578971646" lon="12.652743544692228"><ele>648.0</ele><time>2026-04-11T14:12:25.001Z</time></trkpt><trkpt lat="43.33356498592388" lon="12.652588323022352"><ele>649.5999999999999</ele><time>2026-04-11T14:12:26.001Z</time></trkpt><trkpt lat="43.3335377024753" lon="12.652458740757554"><ele>651.1999999999999</ele><time>2026-04-11T14:12:27.001Z</time></trkpt><trkpt lat="43.33350604384725" lon="12.652330447001194"><ele>652.8</ele><time>2026-04-11T14:12:28.001Z</time></trkpt><trkpt lat="43.33341548641509" lon="12.652231366050712"><ele>654.4</ele><time>2026-04-11T14:12:29.001Z</time></trkpt><trkpt lat="43.333338010078016" lon="12.652131866457058"><ele>656.0</ele><time>2026-04-11T14:12:30.001Z</time></trkpt><trkpt lat="43.33326447626944" lon="12.652035886401755"><ele>655.5999999999999</ele><time>2026-04-11T14:12:31.001Z</time></trkpt><trkpt lat="43.333211272836195" lon="12.65191140141613"><ele>655.2</ele><time>2026-04-11T14:12:32.001Z</time></trkpt><trkpt lat="43.333177007799385" lon="12.651763130721871"><ele>654.8</ele><time>2026-04-11T14:12:33.001Z</time></trkpt><trkpt lat="43.33313038529984" lon="12.651620953678464"><ele>654.4000000000001</ele><time>2026-04-11T14:12:34.001Z</time></trkpt><trkpt lat="43.33306476556621" lon="12.651499402885324"><ele>654.0</ele><time>2026-04-11T14:12:35.001Z</time></trkpt><trkpt lat="43.33298473695437" lon="12.651379597567551"><ele>654.0</ele><time>2026-04-11T14:12:36.001Z</time></trkpt><trkpt lat="43.332917735552456" lon="12.651251969951531"><ele>654.0</ele><time>2026-04-11T14:12:37.001Z</time></trkpt><trkpt lat="43.33284786626516" lon="12.65114805886155"><ele>654.0</ele><time>2026-04-11T14:12:38.001Z</time></trkpt><trkpt lat="43.33276898306746" lon="12.651037446942823"><ele>654.0</ele><time>2026-04-11T14:12:39.001Z</time></trkpt><trkpt lat="43.33269885690444" lon="12.6509236765521"><ele>654.0</ele><time>2026-04-11T14:12:40.001Z</time></trkpt><trkpt lat="43.332652922881486" lon="12.650807964959876"><ele>657.6</ele><time>2026-04-11T14:12:41.001Z</time></trkpt><trkpt lat="43.3326385337322" lon="12.650695968434121"><ele>661.2</ele><time>2026-04-11T14:12:42.001Z</time></trkpt><trkpt lat="43.3326498441898" lon="12.650583203955675"><ele>664.8000000000001</ele><time>2026-04-11T14:12:43.001Z</time></trkpt><trkpt lat="43.33269261157214" lon="12.650474839052446"><ele>668.4000000000001</ele><time>2026-04-11T14:12:44.001Z</time></trkpt><trkpt lat="43.332763261520476" lon="12.65036947975749"><ele>672.0</ele><time>2026-04-11T14:12:45.001Z</time></trkpt><trkpt lat="43.33284410851237" lon="12.650274404657733"><ele>674.0</ele><time>2026-04-11T14:12:46.001Z</time></trkpt><trkpt lat="43.33293316579775" lon="12.650175096736563"><ele>676.0</ele><time>2026-04-11T14:12:47Z</time></trkpt><trkpt lat="43.33300872193947" lon="12.650069394234619"><ele>678.0</ele><time>2026-04-11T14:12:48Z</time></trkpt><trkpt lat="43.33306706244793" lon="12.649955226125781"><ele>680.0</ele><time>2026-04-11T14:12:49Z</time></trkpt><trkpt lat="43.33310180436985" lon="12.649831694400705"><ele>682.0</ele><time>2026-04-11T14:12:50Z</time></trkpt><trkpt lat="43.33312248343801" lon="12.649689956874688"><ele>682.6</ele><time>2026-04-11T14:12:51Z</time></trkpt><trkpt lat="43.33313540859181" lon="12.64954333480748"><ele>683.2</ele><time>2026-04-11T14:12:52Z</time></trkpt><trkpt lat="43.33312005278636" lon="12.649420610439373"><ele>683.8</ele><time>2026-04-11T14:12:53Z</time></trkpt><trkpt lat="43.33307878816849" lon="12.649302112941495"><ele>684.4</ele><time>2026-04-11T14:12:54Z</time></trkpt><trkpt lat="43.333022819783714" lon="12.649176917484299"><ele>685.0</ele><time>2026-04-11T14:12:55Z</time></trkpt><trkpt lat="43.33296389335585" lon="12.649040856141788"><ele>689.2</ele><time>2026-04-11T14:12:56Z</time></trkpt><trkpt lat="43.33292062064959" lon="12.648925255572115"><ele>693.4</ele><time>2026-04-11T14:12:57Z</time></trkpt><trkpt lat="43.332888175955034" lon="12.648803655986276"><ele>697.5999999999999</ele><time>2026-04-11T14:12:58Z</time></trkpt><trkpt lat="43.33288447754778" lon="12.648675232659972"><ele>701.8</ele><time>2026-04-11T14:12:59Z</time></trkpt><trkpt lat="43.33290902090024" lon="12.64854978784889"><ele>706.0</ele><time>2026-04-11T14:13:00Z</time></trkpt><trkpt lat="43.33295409535095" lon="12.64843697356006"><ele>705.5</ele><time>2026-04-11T14:13:01Z</time></trkpt><trkpt lat="43.333025072227315" lon="12.648356498092268"><ele>705.0</ele><time>2026-04-11T14:13:02Z</time></trkpt><trkpt lat="43.33312508249718" lon="12.648274889071093"><ele>704.5</ele><time>2026-04-11T14:13:03Z</time></trkpt><trkpt lat="43.33322228521878" lon="12.64816948645609"><ele>704.0</ele><time>2026-04-11T14:13:04Z</time></trkpt><trkpt lat="43.33332314036501" lon="12.648061630443927"><ele>704.0</ele><time>2026-04-11T14:13:05Z</time></trkpt><trkpt lat="43.33341950329863" lon="12.64796103938033"><ele>704.0</ele><time>2026-04-11T14:13:06Z</time></trkpt><trkpt lat="43.333500913617556" lon="12.64786249472272"><ele>704.0</ele><time>2026-04-11T14:13:07Z</time></trkpt><trkpt lat="43.333591780019326" lon="12.647770144202584"><ele>704.0</ele><time>2026-04-11T14:13:08Z</time></trkpt><trkpt lat="43.33368176376454" lon="12.647674963991918"><ele>708.0</ele><time>2026-04-11T14:13:09Z</time></trkpt><trkpt lat="43.333773144082755" lon="12.647573856824206"><ele>712.0</ele><time>2026-04-11T14:13:10Z</time></trkpt><trkpt lat="43.33388454852284" lon="12.64749573858389"><ele>716.0</ele><time>2026-04-11T14:13:11Z</time></trkpt><trkpt lat="43.33399513543814" lon="12.647431959190378"><ele>720.0</ele><time>2026-04-11T14:13:12Z</time></trkpt><trkpt lat="43.334116108999595" lon="12.647381937888193"><ele>720.0</ele><time>2026-04-11T14:13:13Z</time></trkpt><trkpt lat="43.33422041282156" lon="12.647335988088683"><ele>720.0</ele><time>2026-04-11T14:13:14Z</time></trkpt><trkpt lat="43.334325865808765" lon="12.64729913823859"><ele>720.0</ele><time>2026-04-11T14:13:15Z</time></trkpt><trkpt lat="43.33443108982913" lon="12.647298834798463"><ele>720.0</ele><time>2026-04-11T14:13:16Z</time></trkpt><trkpt lat="43.3345197323539" lon="12.647329139042895"><ele>720.0</ele><time>2026-04-11T14:13:17Z</time></trkpt><trkpt lat="43.33458784314564" lon="12.647339556917535"><ele>720.0</ele><time>2026-04-11T14:13:18Z</time></trkpt><trkpt lat="43.334702219633" lon="12.647283436095401"><ele>720.0</ele><time>2026-04-11T14:13:20Z</time></trkpt><trkpt lat="43.33473305793562" lon="12.647179886971479"><ele>720.0</ele><time>2026-04-11T14:13:21Z</time></trkpt><trkpt lat="43.334739393858904" lon="12.647066749919302"><ele>720.0</ele><time>2026-04-11T14:13:22Z</time></trkpt><trkpt lat="43.33474789683067" lon="12.646929948419405"><ele>720.0</ele><time>2026-04-11T14:13:23Z</time></trkpt><trkpt lat="43.33474912537103" lon="12.64676087740064"><ele>721.0</ele><time>2026-04-11T14:13:24Z</time></trkpt><trkpt lat="43.33478359872709" lon="12.646582734300967"><ele>722.0</ele><time>2026-04-11T14:13:25Z</time></trkpt><trkpt lat="43.3348064019797" lon="12.646439050450276"><ele>723.0</ele><time>2026-04-11T14:13:26Z</time></trkpt><trkpt lat="43.334834197908805" lon="12.646307711782002"><ele>724.0</ele><time>2026-04-11T14:13:27Z</time></trkpt><trkpt lat="43.334858396450706" lon="12.646174588771"><ele>725.0</ele><time>2026-04-11T14:13:28Z</time></trkpt><trkpt lat="43.33492398603908" lon="12.646049125243652"><ele>725.0</ele><time>2026-04-11T14:13:29Z</time></trkpt><trkpt lat="43.33496780719944" lon="12.645929833225994"><ele>725.0</ele><time>2026-04-11T14:13:30Z</time></trkpt><trkpt lat="43.335044431395204" lon="12.645779691299284"><ele>725.0</ele><time>2026-04-11T14:13:31Z</time></trkpt><trkpt lat="43.33509538226098" lon="12.645636069805299"><ele>725.0</ele><time>2026-04-11T14:13:32Z</time></trkpt><trkpt lat="43.3351618596191" lon="12.645520203778455"><ele>725.0</ele><time>2026-04-11T14:13:33Z</time></trkpt><trkpt lat="43.335225483748474" lon="12.645400821740811"><ele>725.0</ele><time>2026-04-11T14:13:34Z</time></trkpt><trkpt lat="43.335297280278645" lon="12.645300088777521"><ele>725.0</ele><time>2026-04-11T14:13:35Z</time></trkpt><trkpt lat="43.335372352385654" lon="12.645237054598898"><ele>725.0</ele><time>2026-04-11T14:13:36Z</time></trkpt><trkpt lat="43.33545614979811" lon="12.645186932308249"><ele>725.0</ele><time>2026-04-11T14:13:37Z</time></trkpt><trkpt lat="43.33555579675621" lon="12.645131707813476"><ele>725.0</ele><time>2026-04-11T14:13:38Z</time></trkpt><trkpt lat="43.335664793083886" lon="12.645066602512372"><ele>725.0</ele><time>2026-04-11T14:13:39Z</time></trkpt><trkpt lat="43.335750360865575" lon="12.645021222975208"><ele>725.0</ele><time>2026-04-11T14:13:40Z</time></trkpt><trkpt lat="43.335837665831065" lon="12.644983543777759"><ele>725.0</ele><time>2026-04-11T14:13:41Z</time></trkpt><trkpt lat="43.33592591776271" lon="12.644948195576015"><ele>725.0</ele><time>2026-04-11T14:13:42Z</time></trkpt><trkpt lat="43.336020847911065" lon="12.644913581824982"><ele>725.0</ele><time>2026-04-11T14:13:43Z</time></trkpt><trkpt lat="43.336117740910474" lon="12.644876094039253"><ele>725.0</ele><time>2026-04-11T14:13:44Z</time></trkpt><trkpt lat="43.33621313214304" lon="12.64484295252073"><ele>725.0</ele><time>2026-04-11T14:13:45Z</time></trkpt><trkpt lat="43.336310372828606" lon="12.644804778341253"><ele>725.0</ele><time>2026-04-11T14:13:46Z</time></trkpt><trkpt lat="43.33640008557363" lon="12.64476782178684"><ele>725.0</ele><time>2026-04-11T14:13:47Z</time></trkpt><trkpt lat="43.336496332247734" lon="12.644724289310782"><ele>724.6</ele><time>2026-04-11T14:13:48Z</time></trkpt><trkpt lat="43.33658753216791" lon="12.644675370798263"><ele>724.2</ele><time>2026-04-11T14:13:49Z</time></trkpt><trkpt lat="43.336674462964005" lon="12.644606717835101"><ele>723.8</ele><time>2026-04-11T14:13:50Z</time></trkpt><trkpt lat="43.336745358088116" lon="12.644511678392542"><ele>723.4</ele><time>2026-04-11T14:13:51Z</time></trkpt><trkpt lat="43.33683059634801" lon="12.64441072147633"><ele>723.0</ele><time>2026-04-11T14:13:52Z</time></trkpt><trkpt lat="43.33692739441382" lon="12.644326390548882"><ele>723.0</ele><time>2026-04-11T14:13:53Z</time></trkpt><trkpt lat="43.33702497101454" lon="12.64426148123924"><ele>723.0</ele><time>2026-04-11T14:13:54Z</time></trkpt><trkpt lat="43.33711110242653" lon="12.644199701671994"><ele>723.0</ele><time>2026-04-11T14:13:55Z</time></trkpt><trkpt lat="43.33717483845787" lon="12.64412065526529"><ele>723.0</ele><time>2026-04-11T14:13:56Z</time></trkpt><trkpt lat="43.337208059355426" lon="12.644020809650725"><ele>723.0</ele><time>2026-04-11T14:13:57Z</time></trkpt><trkpt lat="43.3372145954466" lon="12.643902214199338"><ele>723.0</ele><time>2026-04-11T14:13:58Z</time></trkpt><trkpt lat="43.33719600552958" lon="12.643777351020326"><ele>723.0</ele><time>2026-04-11T14:13:59Z</time></trkpt><trkpt lat="43.33714499791378" lon="12.643659818444775"><ele>723.0</ele><time>2026-04-11T14:14:00Z</time></trkpt><trkpt lat="43.33706941150622" lon="12.64355846797531"><ele>723.0</ele><time>2026-04-11T14:14:01Z</time></trkpt><trkpt lat="43.33698621410632" lon="12.643457211329588"><ele>723.0</ele><time>2026-04-11T14:14:02Z</time></trkpt><trkpt lat="43.33693419287208" lon="12.643372976537103"><ele>723.5999999999999</ele><time>2026-04-11T14:14:03Z</time></trkpt><trkpt lat="43.336890319306924" lon="12.643275845059172"><ele>724.1999999999999</ele><time>2026-04-11T14:14:04Z</time></trkpt><trkpt lat="43.33687647340868" lon="12.643180110882348"><ele>724.8</ele><time>2026-04-11T14:14:05Z</time></trkpt><trkpt lat="43.336888524305216" lon="12.643063485966348"><ele>725.4</ele><time>2026-04-11T14:14:06Z</time></trkpt><trkpt lat="43.33692849418632" lon="12.6429351375778"><ele>726.0</ele><time>2026-04-11T14:14:07.001Z</time></trkpt><trkpt lat="43.33698027607235" lon="12.642790794995301"><ele>724.1999999999999</ele><time>2026-04-11T14:14:08.001Z</time></trkpt><trkpt lat="43.33700511168512" lon="12.642656924227612"><ele>722.4</ele><time>2026-04-11T14:14:09.001Z</time></trkpt><trkpt lat="43.33705431193254" lon="12.642556334352015"><ele>720.6</ele><time>2026-04-11T14:14:10.001Z</time></trkpt><trkpt lat="43.33709374609111" lon="12.642447599388426"><ele>718.8</ele><time>2026-04-11T14:14:11.001Z</time></trkpt><trkpt lat="43.33714473104973" lon="12.642351000920494"><ele>717.0</ele><time>2026-04-11T14:14:12.001Z</time></trkpt><trkpt lat="43.33721442311884" lon="12.64225673600741"><ele>721.1666666666666</ele><time>2026-04-11T14:14:13.001Z</time></trkpt><trkpt lat="43.33729472033007" lon="12.642185631599945"><ele>725.3333333333334</ele><time>2026-04-11T14:14:14.001Z</time></trkpt><trkpt lat="43.33736306304315" lon="12.642115228020547"><ele>729.5</ele><time>2026-04-11T14:14:15.001Z</time></trkpt><trkpt lat="43.337422435238395" lon="12.64202747109179"><ele>733.6666666666667</ele><time>2026-04-11T14:14:16.001Z</time></trkpt><trkpt lat="43.337452025957084" lon="12.641910126700525"><ele>737.8333333333334</ele><time>2026-04-11T14:14:17.001Z</time></trkpt><trkpt lat="43.33748109085346" lon="12.641798361479815"><ele>742.0</ele><time>2026-04-11T14:14:18.001Z</time></trkpt><trkpt lat="43.337472155641606" lon="12.641674062640655"><ele>742.0</ele><time>2026-04-11T14:14:19.001Z</time></trkpt><trkpt lat="43.33744025968133" lon="12.64155989859992"><ele>742.0</ele><time>2026-04-11T14:14:20.001Z</time></trkpt><trkpt lat="43.33738987258865" lon="12.641449599781593"><ele>742.0</ele><time>2026-04-11T14:14:21.001Z</time></trkpt><trkpt lat="43.337311106265254" lon="12.641357070233363"><ele>742.0</ele><time>2026-04-11T14:14:22.001Z</time></trkpt><trkpt lat="43.33723570328851" lon="12.64124967517866"><ele>742.0</ele><time>2026-04-11T14:14:23.001Z</time></trkpt><trkpt lat="43.337170759521285" lon="12.641149218263294"><ele>738.0</ele><time>2026-04-11T14:14:24.001Z</time></trkpt><trkpt lat="43.33711033237795" lon="12.641067914898457"><ele>734.0</ele><time>2026-04-11T14:14:25.001Z</time></trkpt><trkpt lat="43.337040618072045" lon="12.641014181729851"><ele>730.0</ele><time>2026-04-11T14:14:26.001Z</time></trkpt><trkpt lat="43.33697771334813" lon="12.640961066271117"><ele>726.0</ele><time>2026-04-11T14:14:27.001Z</time></trkpt><trkpt lat="43.33690826797638" lon="12.640894953395328"><ele>722.0</ele><time>2026-04-11T14:14:28.001Z</time></trkpt><trkpt lat="43.336841137909225" lon="12.640852293195554"><ele>718.0</ele><time>2026-04-11T14:14:29.001Z</time></trkpt><trkpt lat="43.33680458714041" lon="12.640777908780501"><ele>718.0</ele><time>2026-04-11T14:14:30.001Z</time></trkpt><trkpt lat="43.33677412932421" lon="12.640680620299758"><ele>718.0</ele><time>2026-04-11T14:14:31.001Z</time></trkpt><trkpt lat="43.336778239908675" lon="12.640531343116516"><ele>718.0</ele><time>2026-04-11T14:14:32.001Z</time></trkpt><trkpt lat="43.33679198681763" lon="12.640401068214604"><ele>718.0</ele><time>2026-04-11T14:14:33.001Z</time></trkpt><trkpt lat="43.33680882121234" lon="12.640277493532416"><ele>718.0</ele><time>2026-04-11T14:14:34.001Z</time></trkpt><trkpt lat="43.336811976504734" lon="12.640164407544239"><ele>720.0</ele><time>2026-04-11T14:14:35.001Z</time></trkpt><trkpt lat="43.33678756816142" lon="12.640047004324503"><ele>722.0</ele><time>2026-04-11T14:14:36.001Z</time></trkpt><trkpt lat="43.336733443041126" lon="12.63991989056668"><ele>724.0</ele><time>2026-04-11T14:14:37.001Z</time></trkpt><trkpt lat="43.336664725159274" lon="12.63980425109002"><ele>726.0</ele><time>2026-04-11T14:14:38.001Z</time></trkpt><trkpt lat="43.336580645953134" lon="12.639746113422538"><ele>728.0</ele><time>2026-04-11T14:14:39.001Z</time></trkpt><trkpt lat="43.33647573469697" lon="12.639706843358397"><ele>723.8</ele><time>2026-04-11T14:14:40.001Z</time></trkpt><trkpt lat="43.336352428131434" lon="12.639668954436358"><ele>719.5999999999999</ele><time>2026-04-11T14:14:41.001Z</time></trkpt><trkpt lat="43.33625805064087" lon="12.63961378441807"><ele>715.4000000000001</ele><time>2026-04-11T14:14:42.001Z</time></trkpt><trkpt lat="43.33616018530198" lon="12.639590049582777"><ele>711.2</ele><time>2026-04-11T14:14:43.001Z</time></trkpt><trkpt lat="43.33607229744943" lon="12.639569016850967"><ele>707.0</ele><time>2026-04-11T14:14:44.001Z</time></trkpt><trkpt lat="43.33599846923789" lon="12.639545434872868"><ele>708.8</ele><time>2026-04-11T14:14:45.001Z</time></trkpt><trkpt lat="43.335912973349494" lon="12.639451630422016"><ele>710.6</ele><time>2026-04-11T14:14:47.001Z</time></trkpt><trkpt lat="43.33592474507179" lon="12.639352970709163"><ele>712.4</ele><time>2026-04-11T14:14:48.001Z</time></trkpt><trkpt lat="43.33596173947942" lon="12.639231732205118"><ele>714.1999999999999</ele><time>2026-04-11T14:14:49.001Z</time></trkpt><trkpt lat="43.335982681750764" lon="12.639077690385609"><ele>716.0</ele><time>2026-04-11T14:14:50.001Z</time></trkpt><trkpt lat="43.33600906035637" lon="12.638946258027717"><ele>716.0</ele><time>2026-04-11T14:14:51.001Z</time></trkpt><trkpt lat="43.336017622303316" lon="12.63880609558045"><ele>716.0</ele><time>2026-04-11T14:14:52.001Z</time></trkpt><trkpt lat="43.33601919977354" lon="12.638648851278488"><ele>716.0</ele><time>2026-04-11T14:14:53Z</time></trkpt><trkpt lat="43.33601792447367" lon="12.638492744140024"><ele>716.0</ele><time>2026-04-11T14:14:54Z</time></trkpt><trkpt lat="43.33599451483991" lon="12.63834576777334"><ele>716.0</ele><time>2026-04-11T14:14:55Z</time></trkpt><trkpt lat="43.33597328179411" lon="12.638196212679084"><ele>714.0</ele><time>2026-04-11T14:14:56Z</time></trkpt><trkpt lat="43.33594976290139" lon="12.638061651038836"><ele>712.0</ele><time>2026-04-11T14:14:57Z</time></trkpt><trkpt lat="43.335932595027465" lon="12.637933830670637"><ele>710.0</ele><time>2026-04-11T14:14:58Z</time></trkpt><trkpt lat="43.33590805054569" lon="12.637818649405595"><ele>708.0</ele><time>2026-04-11T14:14:59Z</time></trkpt><trkpt lat="43.33588339968478" lon="12.637715001887827"><ele>706.0</ele><time>2026-04-11T14:15:00Z</time></trkpt><trkpt lat="43.33586817355486" lon="12.63755591052385"><ele>706.0</ele><time>2026-04-11T14:15:02Z</time></trkpt><trkpt lat="43.335948918013514" lon="12.637444345576807"><ele>706.0</ele><time>2026-04-11T14:15:04Z</time></trkpt><trkpt lat="43.33601532184582" lon="12.637425497404383"><ele>706.0</ele><time>2026-04-11T14:15:05Z</time></trkpt><trkpt lat="43.336082262633326" lon="12.63740333775794"><ele>706.0</ele><time>2026-04-11T14:15:06Z</time></trkpt><trkpt lat="43.33613094743306" lon="12.637341658107404"><ele>706.0</ele><time>2026-04-11T14:15:07Z</time></trkpt><trkpt lat="43.33617652125375" lon="12.63725438738306"><ele>706.0</ele><time>2026-04-11T14:15:08Z</time></trkpt><trkpt lat="43.336202790676424" lon="12.637158473845638"><ele>706.0</ele><time>2026-04-11T14:15:09Z</time></trkpt><trkpt lat="43.33622981363651" lon="12.637054264878065"><ele>706.0</ele><time>2026-04-11T14:15:10Z</time></trkpt><trkpt lat="43.33625742775319" lon="12.636943426313227"><ele>706.0</ele><time>2026-04-11T14:15:11Z</time></trkpt><trkpt lat="43.336281599836404" lon="12.636839567394672"><ele>706.0</ele><time>2026-04-11T14:15:12Z</time></trkpt><trkpt lat="43.336314618473615" lon="12.636746905641331"><ele>706.0</ele><time>2026-04-11T14:15:13Z</time></trkpt><trkpt lat="43.33635526248021" lon="12.636659475302997"><ele>706.0</ele><time>2026-04-11T14:15:14Z</time></trkpt><trkpt lat="43.33641263017823" lon="12.636585826526622"><ele>707.1999999999999</ele><time>2026-04-11T14:15:15Z</time></trkpt><trkpt lat="43.336482005503576" lon="12.636543321934719"><ele>708.4</ele><time>2026-04-11T14:15:16Z</time></trkpt><trkpt lat="43.336560612923016" lon="12.636531773195466"><ele>709.6</ele><time>2026-04-11T14:15:17Z</time></trkpt><trkpt lat="43.33664486264107" lon="12.636555800161895"><ele>710.8</ele><time>2026-04-11T14:15:18Z</time></trkpt><trkpt lat="43.336746079892706" lon="12.636610320988831"><ele>712.0</ele><time>2026-04-11T14:15:19Z</time></trkpt><trkpt lat="43.33684068668393" lon="12.636673564162189"><ele>712.0</ele><time>2026-04-11T14:15:20Z</time></trkpt><trkpt lat="43.336920387477335" lon="12.636753518557963"><ele>712.0</ele><time>2026-04-11T14:15:21Z</time></trkpt><trkpt lat="43.33700354968247" lon="12.63681921010445"><ele>712.0</ele><time>2026-04-11T14:15:22Z</time></trkpt><trkpt lat="43.33709096279232" lon="12.636856037206575"><ele>712.0</ele><time>2026-04-11T14:15:23Z</time></trkpt><trkpt lat="43.33716909443116" lon="12.636909079406681"><ele>712.0</ele><time>2026-04-11T14:15:24Z</time></trkpt><trkpt lat="43.33724411543197" lon="12.636941493758645"><ele>712.8333333333334</ele><time>2026-04-11T14:15:25Z</time></trkpt><trkpt lat="43.33731607006382" lon="12.636982952291463"><ele>713.6666666666667</ele><time>2026-04-11T14:15:26Z</time></trkpt><trkpt lat="43.33739847810131" lon="12.636940553463681"><ele>714.5</ele><time>2026-04-11T14:15:27Z</time></trkpt><trkpt lat="43.33747204901336" lon="12.636881980825821"><ele>715.3333333333334</ele><time>2026-04-11T14:15:28Z</time></trkpt><trkpt lat="43.337530830706434" lon="12.636786106995551"><ele>716.1666666666666</ele><time>2026-04-11T14:15:29Z</time></trkpt><trkpt lat="43.33756979542489" lon="12.636669856975775"><ele>717.0</ele><time>2026-04-11T14:15:30Z</time></trkpt><trkpt lat="43.337600324837624" lon="12.636550868684743"><ele>717.0</ele><time>2026-04-11T14:15:31Z</time></trkpt><trkpt lat="43.33763196641127" lon="12.636450477361972"><ele>717.0</ele><time>2026-04-11T14:15:32Z</time></trkpt><trkpt lat="43.33767751835889" lon="12.636381478555107"><ele>717.0</ele><time>2026-04-11T14:15:33Z</time></trkpt><trkpt lat="43.337739090476184" lon="12.636347895935748"><ele>717.0</ele><time>2026-04-11T14:15:34Z</time></trkpt><trkpt lat="43.337812742904106" lon="12.636373622769385"><ele>717.0</ele><time>2026-04-11T14:15:35Z</time></trkpt><trkpt lat="43.33791675469987" lon="12.636400487167874"><ele>717.0</ele><time>2026-04-11T14:15:36Z</time></trkpt><trkpt lat="43.338017665395334" lon="12.636458905064877"><ele>718.8</ele><time>2026-04-11T14:15:37Z</time></trkpt><trkpt lat="43.33810150414294" lon="12.636546928096049"><ele>720.6</ele><time>2026-04-11T14:15:38Z</time></trkpt><trkpt lat="43.33820036977503" lon="12.636618738336482"><ele>722.4</ele><time>2026-04-11T14:15:39Z</time></trkpt><trkpt lat="43.338309944440724" lon="12.636656423321314"><ele>724.1999999999999</ele><time>2026-04-11T14:15:40Z</time></trkpt><trkpt lat="43.338416699613084" lon="12.636705614267248"><ele>726.0</ele><time>2026-04-11T14:15:41Z</time></trkpt><trkpt lat="43.33851875919096" lon="12.636725484892432"><ele>726.0</ele><time>2026-04-11T14:15:42Z</time></trkpt><trkpt lat="43.33862055830321" lon="12.636714549092346"><ele>726.0</ele><time>2026-04-11T14:15:43Z</time></trkpt><trkpt lat="43.338709622980836" lon="12.636697244193295"><ele>726.0</ele><time>2026-04-11T14:15:44Z</time></trkpt><trkpt lat="43.33878848494836" lon="12.6366805797395"><ele>726.0</ele><time>2026-04-11T14:15:45Z</time></trkpt><trkpt lat="43.3388560802476" lon="12.636647128658135"><ele>726.0</ele><time>2026-04-11T14:15:46Z</time></trkpt><trkpt lat="43.33891805126909" lon="12.636587662975316"><ele>726.0</ele><time>2026-04-11T14:15:47Z</time></trkpt><trkpt lat="43.33896011376458" lon="12.63648368276278"><ele>727.0</ele><time>2026-04-11T14:15:48Z</time></trkpt><trkpt lat="43.338976494917205" lon="12.636349717711582"><ele>728.0</ele><time>2026-04-11T14:15:49Z</time></trkpt><trkpt lat="43.33897922126233" lon="12.636191190495753"><ele>729.0</ele><time>2026-04-11T14:15:50Z</time></trkpt><trkpt lat="43.33897268087607" lon="12.636049948159707"><ele>730.0</ele><time>2026-04-11T14:15:51Z</time></trkpt><trkpt lat="43.338967055989784" lon="12.635921992387622"><ele>731.0</ele><time>2026-04-11T14:15:52Z</time></trkpt><trkpt lat="43.338990045898505" lon="12.635807376863545"><ele>731.0</ele><time>2026-04-11T14:15:53Z</time></trkpt><trkpt lat="43.339032342133905" lon="12.635704760355845"><ele>731.0</ele><time>2026-04-11T14:15:54Z</time></trkpt><trkpt lat="43.3390879771402" lon="12.63561717433289"><ele>731.0</ele><time>2026-04-11T14:15:55Z</time></trkpt><trkpt lat="43.339156051162355" lon="12.635565810118127"><ele>731.0</ele><time>2026-04-11T14:15:56Z</time></trkpt><trkpt lat="43.33922487502531" lon="12.635558145463538"><ele>731.0</ele><time>2026-04-11T14:15:57Z</time></trkpt><trkpt lat="43.33928921667017" lon="12.63564059859305"><ele>731.0</ele><time>2026-04-11T14:15:58Z</time></trkpt><trkpt lat="43.33937710195172" lon="12.635677408066678"><ele>731.0</ele><time>2026-04-11T14:15:59Z</time></trkpt><trkpt lat="43.339472572502586" lon="12.635710295639607"><ele>731.0</ele><time>2026-04-11T14:16:00Z</time></trkpt><trkpt lat="43.339577053697" lon="12.635698421181463"><ele>731.0</ele><time>2026-04-11T14:16:01.001Z</time></trkpt><trkpt lat="43.339663830891055" lon="12.635689843368333"><ele>731.0</ele><time>2026-04-11T14:16:02.001Z</time></trkpt><trkpt lat="43.33973631887525" lon="12.635661906250366"><ele>731.0</ele><time>2026-04-11T14:16:03.001Z</time></trkpt><trkpt lat="43.3397933956902" lon="12.635618605683067"><ele>731.0</ele><time>2026-04-11T14:16:04.001Z</time></trkpt><trkpt lat="43.33984743022764" lon="12.635565241046002"><ele>733.0</ele><time>2026-04-11T14:16:05.001Z</time></trkpt><trkpt lat="43.339912027999006" lon="12.635440129064719"><ele>735.0</ele><time>2026-04-11T14:16:07.001Z</time></trkpt><trkpt lat="43.339955680551455" lon="12.6353159217074"><ele>737.0</ele><time>2026-04-11T14:16:09.001Z</time></trkpt><trkpt lat="43.3399834060864" lon="12.635219947429748"><ele>739.0</ele><time>2026-04-11T14:16:11.001Z</time></trkpt><trkpt lat="43.339993815979504" lon="12.63511621681651"><ele>741.0</ele><time>2026-04-11T14:16:13.001Z</time></trkpt><trkpt lat="43.339973426444516" lon="12.63499699590529"><ele>741.0</ele><time>2026-04-11T14:16:16.001Z</time></trkpt><trkpt lat="43.33992100533788" lon="12.634901395578286"><ele>741.0</ele><time>2026-04-11T14:16:19.001Z</time></trkpt><trkpt lat="43.33987405930787" lon="12.634825310884652"><ele>741.0</ele><time>2026-04-11T14:16:22.001Z</time></trkpt><trkpt lat="43.33980707894601" lon="12.634784247722894"><ele>741.0</ele><time>2026-04-11T14:17:06Z</time></trkpt><trkpt lat="43.33972166398233" lon="12.634687522561894"><ele>741.0</ele><time>2026-04-11T14:17:08Z</time></trkpt><trkpt lat="43.33967258418224" lon="12.63462380909064"><ele>741.0</ele><time>2026-04-11T14:17:09Z</time></trkpt><trkpt lat="43.33961912536564" lon="12.634546608811972"><ele>738.1666666666666</ele><time>2026-04-11T14:17:10Z</time></trkpt><trkpt lat="43.33956762448749" lon="12.634462256263374"><ele>735.3333333333334</ele><time>2026-04-11T14:17:11Z</time></trkpt><trkpt lat="43.33952472310491" lon="12.634364227895365"><ele>732.5</ele><time>2026-04-11T14:17:12Z</time></trkpt><trkpt lat="43.33947650045499" lon="12.634264472927963"><ele>729.6666666666667</ele><time>2026-04-11T14:17:13Z</time></trkpt><trkpt lat="43.339423573706426" lon="12.634170048138285"><ele>726.8333333333334</ele><time>2026-04-11T14:17:14Z</time></trkpt><trkpt lat="43.3393585637966" lon="12.634096296268035"><ele>724.0</ele><time>2026-04-11T14:17:15Z</time></trkpt><trkpt lat="43.33928218864082" lon="12.634040161973083"><ele>724.0</ele><time>2026-04-11T14:17:16Z</time></trkpt><trkpt lat="43.33919516270497" lon="12.633994906715099"><ele>724.0</ele><time>2026-04-11T14:17:17Z</time></trkpt><trkpt lat="43.3391087075076" lon="12.633943353283836"><ele>724.0</ele><time>2026-04-11T14:17:18Z</time></trkpt><trkpt lat="43.3390246645671" lon="12.633878943496235"><ele>724.0</ele><time>2026-04-11T14:17:19Z</time></trkpt><trkpt lat="43.33894861348937" lon="12.633809303206522"><ele>724.0</ele><time>2026-04-11T14:17:20Z</time></trkpt><trkpt lat="43.3388720404097" lon="12.633750468464118"><ele>724.0</ele><time>2026-04-11T14:17:21Z</time></trkpt><trkpt lat="43.338789006640134" lon="12.63369788805332"><ele>724.0</ele><time>2026-04-11T14:17:22Z</time></trkpt><trkpt lat="43.33868925011998" lon="12.633649917158111"><ele>724.0</ele><time>2026-04-11T14:17:23Z</time></trkpt><trkpt lat="43.338594271603" lon="12.633584234295489"><ele>724.0</ele><time>2026-04-11T14:17:24Z</time></trkpt><trkpt lat="43.338489720845644" lon="12.633554834775548"><ele>724.0</ele><time>2026-04-11T14:17:25Z</time></trkpt><trkpt lat="43.338376297147576" lon="12.633555536200411"><ele>724.0</ele><time>2026-04-11T14:17:26Z</time></trkpt><trkpt lat="43.33827452215859" lon="12.633528204235706"><ele>724.0</ele><time>2026-04-11T14:17:27Z</time></trkpt><trkpt lat="43.3381778719508" lon="12.633494213801626"><ele>724.0</ele><time>2026-04-11T14:17:28Z</time></trkpt><trkpt lat="43.3380799722487" lon="12.633455223852978"><ele>724.0</ele><time>2026-04-11T14:17:29Z</time></trkpt><trkpt lat="43.33798101915279" lon="12.633416747234634"><ele>724.0</ele><time>2026-04-11T14:17:30Z</time></trkpt><trkpt lat="43.337877767879924" lon="12.633360910691987"><ele>719.6</ele><time>2026-04-11T14:17:31Z</time></trkpt><trkpt lat="43.33778207057695" lon="12.633284516866569"><ele>715.2</ele><time>2026-04-11T14:17:32Z</time></trkpt><trkpt lat="43.33770021017461" lon="12.63317485772987"><ele>710.8000000000001</ele><time>2026-04-11T14:17:33Z</time></trkpt><trkpt lat="43.337607007270954" lon="12.633118439573149"><ele>706.4000000000001</ele><time>2026-04-11T14:17:34Z</time></trkpt><trkpt lat="43.337509553653966" lon="12.633077171909733"><ele>702.0</ele><time>2026-04-11T14:17:35Z</time></trkpt><trkpt lat="43.337412262611416" lon="12.633058536668107"><ele>702.0</ele><time>2026-04-11T14:17:36Z</time></trkpt><trkpt lat="43.33732393606355" lon="12.633010010839115"><ele>702.0</ele><time>2026-04-11T14:17:37Z</time></trkpt><trkpt lat="43.33723441761008" lon="12.632992056910659"><ele>702.0</ele><time>2026-04-11T14:17:38Z</time></trkpt><trkpt lat="43.337154555170684" lon="12.632925042462448"><ele>702.0</ele><time>2026-04-11T14:17:39Z</time></trkpt><trkpt lat="43.337088422716505" lon="12.632822689997292"><ele>702.0</ele><time>2026-04-11T14:17:40Z</time></trkpt><trkpt lat="43.33704887964847" lon="12.632689282192802"><ele>702.2</ele><time>2026-04-11T14:17:41Z</time></trkpt><trkpt lat="43.33698882571768" lon="12.632567413833897"><ele>702.4000000000001</ele><time>2026-04-11T14:17:42Z</time></trkpt><trkpt lat="43.33689785857823" lon="12.632495321717544"><ele>702.5999999999999</ele><time>2026-04-11T14:17:43Z</time></trkpt><trkpt lat="43.33680844405292" lon="12.63243363961166"><ele>702.8</ele><time>2026-04-11T14:17:44Z</time></trkpt><trkpt lat="43.33671200591247" lon="12.632387616750481"><ele>703.0</ele><time>2026-04-11T14:17:45Z</time></trkpt><trkpt lat="43.33660379488437" lon="12.632342662303046"><ele>703.0</ele><time>2026-04-11T14:17:46Z</time></trkpt><trkpt lat="43.336492486150696" lon="12.632284144804501"><ele>703.0</ele><time>2026-04-11T14:17:47Z</time></trkpt><trkpt lat="43.33637488564048" lon="12.632280721753418"><ele>703.0</ele><time>2026-04-11T14:17:48Z</time></trkpt><trkpt lat="43.33627068950542" lon="12.632263124994797"><ele>703.0</ele><time>2026-04-11T14:17:49Z</time></trkpt><trkpt lat="43.33616793568299" lon="12.63225352607797"><ele>703.0</ele><time>2026-04-11T14:17:50Z</time></trkpt><trkpt lat="43.33607038926932" lon="12.63225091499205"><ele>698.5999999999999</ele><time>2026-04-11T14:17:51Z</time></trkpt><trkpt lat="43.33597500431932" lon="12.632242361424906"><ele>694.1999999999999</ele><time>2026-04-11T14:17:52Z</time></trkpt><trkpt lat="43.335879480966966" lon="12.63223188038799"><ele>689.8</ele><time>2026-04-11T14:17:53Z</time></trkpt><trkpt lat="43.335788639825076" lon="12.63220896691788"><ele>685.4</ele><time>2026-04-11T14:17:54Z</time></trkpt><trkpt lat="43.33569405492522" lon="12.632172646945989"><ele>681.0</ele><time>2026-04-11T14:17:55Z</time></trkpt><trkpt lat="43.335600289019496" lon="12.632125389011092"><ele>680.5999999999999</ele><time>2026-04-11T14:17:56Z</time></trkpt><trkpt lat="43.33552043186598" lon="12.63204824203596"><ele>680.2</ele><time>2026-04-11T14:17:57Z</time></trkpt><trkpt lat="43.3354354955772" lon="12.631975484923595"><ele>679.8</ele><time>2026-04-11T14:17:58Z</time></trkpt><trkpt lat="43.3353494876381" lon="12.631879349931493"><ele>679.4000000000001</ele><time>2026-04-11T14:17:59Z</time></trkpt><trkpt lat="43.33526881536657" lon="12.63176257838255"><ele>679.0</ele><time>2026-04-11T14:18:00.001Z</time></trkpt><trkpt lat="43.33517579705386" lon="12.6316552519348"><ele>679.0</ele><time>2026-04-11T14:18:01.001Z</time></trkpt><trkpt lat="43.3350969232652" lon="12.631540446748296"><ele>679.0</ele><time>2026-04-11T14:18:02.001Z</time></trkpt><trkpt lat="43.335015038872285" lon="12.631434264329886"><ele>679.0</ele><time>2026-04-11T14:18:03.001Z</time></trkpt><trkpt lat="43.33492518677391" lon="12.63132538977778"><ele>679.0</ele><time>2026-04-11T14:18:04.001Z</time></trkpt><trkpt lat="43.334817043703566" lon="12.631225476233764"><ele>678.75</ele><time>2026-04-11T14:18:05.001Z</time></trkpt><trkpt lat="43.3347008006221" lon="12.631141493851832"><ele>678.5</ele><time>2026-04-11T14:18:06.001Z</time></trkpt><trkpt lat="43.334593141374896" lon="12.63106395663242"><ele>678.25</ele><time>2026-04-11T14:18:07.001Z</time></trkpt><trkpt lat="43.334490122987845" lon="12.630992003415844"><ele>678.0</ele><time>2026-04-11T14:18:08.001Z</time></trkpt><trkpt lat="43.33438600273501" lon="12.630922527124971"><ele>678.0</ele><time>2026-04-11T14:18:09.001Z</time></trkpt><trkpt lat="43.3342837742254" lon="12.630858113065406"><ele>678.0</ele><time>2026-04-11T14:18:10.001Z</time></trkpt><trkpt lat="43.33418337383588" lon="12.630799629268676"><ele>678.0</ele><time>2026-04-11T14:18:11.001Z</time></trkpt><trkpt lat="43.33407603624004" lon="12.630735877106682"><ele>678.0</ele><time>2026-04-11T14:18:12.001Z</time></trkpt><trkpt lat="43.33398657122924" lon="12.630635276209356"><ele>678.0</ele><time>2026-04-11T14:18:13.001Z</time></trkpt><trkpt lat="43.333894085569995" lon="12.630544565874878"><ele>678.0</ele><time>2026-04-11T14:18:14.001Z</time></trkpt><trkpt lat="43.33380935346349" lon="12.630442593023623"><ele>678.0</ele><time>2026-04-11T14:18:15.001Z</time></trkpt><trkpt lat="43.33370814080197" lon="12.630359518419391"><ele>678.0</ele><time>2026-04-11T14:18:16.001Z</time></trkpt><trkpt lat="43.333603546192165" lon="12.630294021301982"><ele>677.0</ele><time>2026-04-11T14:18:17.001Z</time></trkpt><trkpt lat="43.33350107390087" lon="12.630276328172261"><ele>676.0</ele><time>2026-04-11T14:18:18.001Z</time></trkpt><trkpt lat="43.33341145888471" lon="12.630300562303042"><ele>675.0</ele><time>2026-04-11T14:18:19.001Z</time></trkpt><trkpt lat="43.33333981158778" lon="12.630310515564934"><ele>674.0</ele><time>2026-04-11T14:18:20.001Z</time></trkpt><trkpt lat="43.333228219215684" lon="12.63029135995946"><ele>673.0</ele><time>2026-04-11T14:18:22.001Z</time></trkpt><trkpt lat="43.33312424106061" lon="12.63020823100447"><ele>673.0</ele><time>2026-04-11T14:18:24.001Z</time></trkpt><trkpt lat="43.33309039784842" lon="12.63012221048714"><ele>673.0</ele><time>2026-04-11T14:18:25.001Z</time></trkpt><trkpt lat="43.3330707288778" lon="12.629969447295283"><ele>673.0</ele><time>2026-04-11T14:18:26.001Z</time></trkpt><trkpt lat="43.33304674689684" lon="12.629779485165672"><ele>673.0</ele><time>2026-04-11T14:18:27.001Z</time></trkpt><trkpt lat="43.33299945544949" lon="12.629576082649443"><ele>667.5999999999999</ele><time>2026-04-11T14:18:28.001Z</time></trkpt><trkpt lat="43.33295139980676" lon="12.629395094350427"><ele>662.1999999999999</ele><time>2026-04-11T14:18:29.001Z</time></trkpt><trkpt lat="43.33291033544101" lon="12.62924446283374"><ele>656.8</ele><time>2026-04-11T14:18:30.001Z</time></trkpt><trkpt lat="43.33287621255455" lon="12.629129745171802"><ele>651.4</ele><time>2026-04-11T14:18:31.001Z</time></trkpt><trkpt lat="43.33284127172171" lon="12.62901796563163"><ele>646.0</ele><time>2026-04-11T14:18:32.001Z</time></trkpt><trkpt lat="43.33278665444444" lon="12.628918517864948"><ele>646.0</ele><time>2026-04-11T14:18:33.001Z</time></trkpt><trkpt lat="43.33273469327301" lon="12.628816733510046"><ele>646.0</ele><time>2026-04-11T14:18:34.001Z</time></trkpt><trkpt lat="43.33264709578028" lon="12.62873925446527"><ele>646.0</ele><time>2026-04-11T14:18:35.001Z</time></trkpt><trkpt lat="43.332533438581045" lon="12.628689356267133"><ele>646.0</ele><time>2026-04-11T14:18:36.001Z</time></trkpt><trkpt lat="43.33243213208985" lon="12.628665261351129"><ele>646.0</ele><time>2026-04-11T14:18:37.001Z</time></trkpt><trkpt lat="43.332336197311264" lon="12.628658482920441"><ele>646.0</ele><time>2026-04-11T14:18:38.001Z</time></trkpt><trkpt lat="43.33224392686011" lon="12.628675426563671"><ele>646.0</ele><time>2026-04-11T14:18:39.001Z</time></trkpt><trkpt lat="43.33216095137694" lon="12.62873411280986"><ele>646.0</ele><time>2026-04-11T14:18:40.001Z</time></trkpt><trkpt lat="43.33206339667627" lon="12.628790111900539"><ele>646.0</ele><time>2026-04-11T14:18:41.001Z</time></trkpt><trkpt lat="43.331976456656406" lon="12.628851668579932"><ele>646.0</ele><time>2026-04-11T14:18:42.001Z</time></trkpt><trkpt lat="43.3318837448693" lon="12.628886678877569"><ele>643.4</ele><time>2026-04-11T14:18:43.001Z</time></trkpt><trkpt lat="43.331794317710944" lon="12.628930201910174"><ele>640.8</ele><time>2026-04-11T14:18:44.001Z</time></trkpt><trkpt lat="43.331705820200696" lon="12.628962003641695"><ele>638.1999999999999</ele><time>2026-04-11T14:18:45.001Z</time></trkpt><trkpt lat="43.331611352142616" lon="12.629006469715383"><ele>635.5999999999999</ele><time>2026-04-11T14:18:46.001Z</time></trkpt><trkpt lat="43.331515041546794" lon="12.629018147107168"><ele>633.0</ele><time>2026-04-11T14:18:47.001Z</time></trkpt><trkpt lat="43.331416300746284" lon="12.62902647286086"><ele>630.4</ele><time>2026-04-11T14:18:48.001Z</time></trkpt><trkpt lat="43.33131335151913" lon="12.629024273703113"><ele>627.8</ele><time>2026-04-11T14:18:49.001Z</time></trkpt><trkpt lat="43.331219647623215" lon="12.629011397787236"><ele>625.2</ele><time>2026-04-11T14:18:50.001Z</time></trkpt><trkpt lat="43.33113334324763" lon="12.628992620342542"><ele>622.6</ele><time>2026-04-11T14:18:51.001Z</time></trkpt><trkpt lat="43.33103907870627" lon="12.62896743663321"><ele>620.0</ele><time>2026-04-11T14:18:52.001Z</time></trkpt><trkpt lat="43.33094233604897" lon="12.628943530893338"><ele>620.0</ele><time>2026-04-11T14:18:53.001Z</time></trkpt><trkpt lat="43.33085111787146" lon="12.628913639801315"><ele>620.0</ele><time>2026-04-11T14:18:54.001Z</time></trkpt><trkpt lat="43.33077257308214" lon="12.6288455022205"><ele>620.0</ele><time>2026-04-11T14:18:55.001Z</time></trkpt><trkpt lat="43.33069246810339" lon="12.628800796644768"><ele>620.0</ele><time>2026-04-11T14:18:56.001Z</time></trkpt><trkpt lat="43.330626719648876" lon="12.628719748860723"><ele>620.0</ele><time>2026-04-11T14:18:57.001Z</time></trkpt><trkpt lat="43.33057086823639" lon="12.628620591715897"><ele>621.8</ele><time>2026-04-11T14:18:58.001Z</time></trkpt><trkpt lat="43.33055020338593" lon="12.62850436225343"><ele>623.6</ele><time>2026-04-11T14:18:59.001Z</time></trkpt><trkpt lat="43.33054735947511" lon="12.628356384391584"><ele>625.4</ele><time>2026-04-11T14:19:00.001Z</time></trkpt><trkpt lat="43.3305583877461" lon="12.628198613932664"><ele>627.2</ele><time>2026-04-11T14:19:01.001Z</time></trkpt><trkpt lat="43.33055690561629" lon="12.62806339683677"><ele>629.0</ele><time>2026-04-11T14:19:02.001Z</time></trkpt><trkpt lat="43.33053122337735" lon="12.627943378469762"><ele>625.0</ele><time>2026-04-11T14:19:03.001Z</time></trkpt><trkpt lat="43.33050182543605" lon="12.62782193536739"><ele>621.0</ele><time>2026-04-11T14:19:04.001Z</time></trkpt><trkpt lat="43.33043283007139" lon="12.627690655770119"><ele>617.0</ele><time>2026-04-11T14:19:05Z</time></trkpt><trkpt lat="43.33033949475601" lon="12.627574787327054"><ele>613.0</ele><time>2026-04-11T14:19:06Z</time></trkpt><trkpt lat="43.33024997660494" lon="12.62747181048059"><ele>613.0</ele><time>2026-04-11T14:19:07Z</time></trkpt><trkpt lat="43.33016185785482" lon="12.62737363652542"><ele>613.0</ele><time>2026-04-11T14:19:08Z</time></trkpt><trkpt lat="43.330078846357246" lon="12.627287306600994"><ele>613.0</ele><time>2026-04-11T14:19:09Z</time></trkpt><trkpt lat="43.330001607889365" lon="12.627198153296264"><ele>613.0</ele><time>2026-04-11T14:19:10Z</time></trkpt><trkpt lat="43.329929849564046" lon="12.627114826232587"><ele>613.0</ele><time>2026-04-11T14:19:11Z</time></trkpt><trkpt lat="43.32986272860058" lon="12.62702968227383"><ele>612.8</ele><time>2026-04-11T14:19:12Z</time></trkpt><trkpt lat="43.32980674017991" lon="12.626926988868199"><ele>612.5999999999999</ele><time>2026-04-11T14:19:13Z</time></trkpt><trkpt lat="43.32975799647128" lon="12.626793828217778"><ele>612.4000000000001</ele><time>2026-04-11T14:19:14Z</time></trkpt><trkpt lat="43.32972385729321" lon="12.626643400940413"><ele>612.2</ele><time>2026-04-11T14:19:15Z</time></trkpt><trkpt lat="43.32969046041223" lon="12.626494995700268"><ele>612.0</ele><time>2026-04-11T14:19:16Z</time></trkpt><trkpt lat="43.32964174710238" lon="12.626360614102156"><ele>608.75</ele><time>2026-04-11T14:19:17Z</time></trkpt><trkpt lat="43.329576713702195" lon="12.626232397626124"><ele>605.5</ele><time>2026-04-11T14:19:18Z</time></trkpt><trkpt lat="43.329489539033375" lon="12.62611481999494"><ele>602.25</ele><time>2026-04-11T14:19:19Z</time></trkpt><trkpt lat="43.32937603253191" lon="12.625993653779302"><ele>599.0</ele><time>2026-04-11T14:19:20Z</time></trkpt><trkpt lat="43.32924676244933" lon="12.625871387132117"><ele>598.5</ele><time>2026-04-11T14:19:21Z</time></trkpt><trkpt lat="43.329127065000094" lon="12.625755261068013"><ele>598.0</ele><time>2026-04-11T14:19:22Z</time></trkpt><trkpt lat="43.32902755274192" lon="12.6256335820912"><ele>597.5</ele><time>2026-04-11T14:19:23Z</time></trkpt><trkpt lat="43.32891857543867" lon="12.625551845431913"><ele>597.0</ele><time>2026-04-11T14:19:24Z</time></trkpt><trkpt lat="43.3288160987127" lon="12.625508401703172"><ele>597.0</ele><time>2026-04-11T14:19:25Z</time></trkpt><trkpt lat="43.32868068571225" lon="12.62549127035308"><ele>597.0</ele><time>2026-04-11T14:19:26Z</time></trkpt><trkpt lat="43.32853713700894" lon="12.625494103016324"><ele>597.0</ele><time>2026-04-11T14:19:27Z</time></trkpt><trkpt lat="43.32838126379672" lon="12.625515899869637"><ele>597.0</ele><time>2026-04-11T14:19:28Z</time></trkpt><trkpt lat="43.32823848062428" lon="12.625544001666"><ele>597.0</ele><time>2026-04-11T14:19:29Z</time></trkpt><trkpt lat="43.3281087757246" lon="12.62558209403638"><ele>597.0</ele><time>2026-04-11T14:19:30Z</time></trkpt><trkpt lat="43.32798165103467" lon="12.625623340251737"><ele>597.0</ele><time>2026-04-11T14:19:31Z</time></trkpt><trkpt lat="43.32787105594526" lon="12.625658590779212"><ele>597.0</ele><time>2026-04-11T14:19:32Z</time></trkpt><trkpt lat="43.32776200634587" lon="12.625688048874972"><ele>596.6</ele><time>2026-04-11T14:19:33Z</time></trkpt><trkpt lat="43.32764904821649" lon="12.625714722184886"><ele>596.2</ele><time>2026-04-11T14:19:34Z</time></trkpt><trkpt lat="43.3275355008451" lon="12.625735931174392"><ele>595.8</ele><time>2026-04-11T14:19:35Z</time></trkpt><trkpt lat="43.32743706354274" lon="12.625742400635465"><ele>595.4</ele><time>2026-04-11T14:19:36Z</time></trkpt><trkpt lat="43.32734647788912" lon="12.625755775545029"><ele>595.0</ele><time>2026-04-11T14:19:37Z</time></trkpt><trkpt lat="43.327269867294284" lon="12.625688448389441"><ele>593.4</ele><time>2026-04-11T14:19:38Z</time></trkpt><trkpt lat="43.327204167067094" lon="12.625608987862986"><ele>591.8</ele><time>2026-04-11T14:19:39Z</time></trkpt><trkpt lat="43.3271233551949" lon="12.625514230847232"><ele>590.2</ele><time>2026-04-11T14:19:40Z</time></trkpt><trkpt lat="43.32703171174196" lon="12.625418036828261"><ele>588.6</ele><time>2026-04-11T14:19:41Z</time></trkpt><trkpt lat="43.32693982020628" lon="12.625341272453358"><ele>587.0</ele><time>2026-04-11T14:19:42Z</time></trkpt><trkpt lat="43.326835854479185" lon="12.625286306707498"><ele>585.5</ele><time>2026-04-11T14:19:43Z</time></trkpt><trkpt lat="43.32671211396006" lon="12.625290019192494"><ele>584.0</ele><time>2026-04-11T14:19:44Z</time></trkpt><trkpt lat="43.32659301217631" lon="12.625288844985375"><ele>582.5</ele><time>2026-04-11T14:19:45Z</time></trkpt><trkpt lat="43.32648308569907" lon="12.62529816363875"><ele>581.0</ele><time>2026-04-11T14:19:46Z</time></trkpt><trkpt lat="43.3263744758875" lon="12.625322129700782"><ele>581.0</ele><time>2026-04-11T14:19:47Z</time></trkpt><trkpt lat="43.326261078957785" lon="12.625350620006111"><ele>581.0</ele><time>2026-04-11T14:19:48Z</time></trkpt><trkpt lat="43.32615776139139" lon="12.625367110209393"><ele>581.0</ele><time>2026-04-11T14:19:49Z</time></trkpt><trkpt lat="43.32605482966972" lon="12.625401650325617"><ele>581.0</ele><time>2026-04-11T14:19:50Z</time></trkpt><trkpt lat="43.32595456059454" lon="12.625435297405273"><ele>581.0</ele><time>2026-04-11T14:19:51Z</time></trkpt><trkpt lat="43.32584599788868" lon="12.62546135649207"><ele>581.0</ele><time>2026-04-11T14:19:52Z</time></trkpt><trkpt lat="43.32572786953302" lon="12.625482751402565"><ele>581.0</ele><time>2026-04-11T14:19:53Z</time></trkpt><trkpt lat="43.32562217396573" lon="12.6254641696618"><ele>581.0</ele><time>2026-04-11T14:19:54Z</time></trkpt><trkpt lat="43.32553297790901" lon="12.625453693656208"><ele>581.0</ele><time>2026-04-11T14:19:55Z</time></trkpt><trkpt lat="43.32545913373066" lon="12.625450058236856"><ele>581.0</ele><time>2026-04-11T14:19:56.001Z</time></trkpt><trkpt lat="43.325388546491546" lon="12.62543263221485"><ele>582.25</ele><time>2026-04-11T14:19:57.001Z</time></trkpt><trkpt lat="43.32526719933116" lon="12.625362976836668"><ele>583.5</ele><time>2026-04-11T14:19:59.001Z</time></trkpt><trkpt lat="43.32519862505271" lon="12.62527294849415"><ele>584.75</ele><time>2026-04-11T14:20:00.001Z</time></trkpt><trkpt lat="43.325115756776206" lon="12.625129147319074"><ele>586.0</ele><time>2026-04-11T14:20:01.001Z</time></trkpt><trkpt lat="43.32501668260991" lon="12.62498260756909"><ele>586.0</ele><time>2026-04-11T14:20:02.001Z</time></trkpt><trkpt lat="43.324930730506594" lon="12.624864969579638"><ele>586.0</ele><time>2026-04-11T14:20:03.001Z</time></trkpt><trkpt lat="43.32484624331716" lon="12.624770838368434"><ele>586.0</ele><time>2026-04-11T14:20:04.001Z</time></trkpt><trkpt lat="43.32475203274434" lon="12.624695328009128"><ele>586.0</ele><time>2026-04-11T14:20:05.001Z</time></trkpt><trkpt lat="43.32464796649681" lon="12.62464410439202"><ele>584.0</ele><time>2026-04-11T14:20:06.001Z</time></trkpt><trkpt lat="43.324548247026115" lon="12.624616772219364"><ele>582.0</ele><time>2026-04-11T14:20:07.001Z</time></trkpt><trkpt lat="43.324453612589906" lon="12.624575808873097"><ele>580.0</ele><time>2026-04-11T14:20:08.001Z</time></trkpt><trkpt lat="43.324384657525314" lon="12.624472405159048"><ele>578.0</ele><time>2026-04-11T14:20:09.001Z</time></trkpt><trkpt lat="43.32431264072807" lon="12.624334878706666"><ele>576.0</ele><time>2026-04-11T14:20:10.001Z</time></trkpt><trkpt lat="43.324250429035935" lon="12.624184032777881"><ele>576.0</ele><time>2026-04-11T14:20:11.001Z</time></trkpt><trkpt lat="43.32420228238236" lon="12.62405872709448"><ele>576.0</ele><time>2026-04-11T14:20:12.001Z</time></trkpt><trkpt lat="43.32416871562523" lon="12.623959502081325"><ele>576.0</ele><time>2026-04-11T14:20:13.001Z</time></trkpt><trkpt lat="43.32414277180585" lon="12.62385025375067"><ele>576.0</ele><time>2026-04-11T14:20:14.001Z</time></trkpt><trkpt lat="43.32413281443062" lon="12.623732839407243"><ele>576.0</ele><time>2026-04-11T14:20:15.001Z</time></trkpt><trkpt lat="43.324137635066734" lon="12.623583819544645"><ele>575.0</ele><time>2026-04-11T14:20:16.001Z</time></trkpt><trkpt lat="43.324158799626254" lon="12.623387027085181"><ele>574.0</ele><time>2026-04-11T14:20:17.001Z</time></trkpt><trkpt lat="43.32417220384946" lon="12.623204217534811"><ele>573.0</ele><time>2026-04-11T14:20:18.001Z</time></trkpt><trkpt lat="43.32417579056715" lon="12.623023717852206"><ele>572.0</ele><time>2026-04-11T14:20:19.001Z</time></trkpt><trkpt lat="43.32417427755842" lon="12.622841231153664"><ele>569.75</ele><time>2026-04-11T14:20:20.001Z</time></trkpt><trkpt lat="43.32414528229154" lon="12.622674817398185"><ele>567.5</ele><time>2026-04-11T14:20:21.001Z</time></trkpt><trkpt lat="43.32410227276532" lon="12.622513671183654"><ele>565.25</ele><time>2026-04-11T14:20:22.001Z</time></trkpt><trkpt lat="43.324068631785686" lon="12.622356719299725"><ele>563.0</ele><time>2026-04-11T14:20:23.001Z</time></trkpt><trkpt lat="43.32405685356336" lon="12.622201350330974"><ele>563.0</ele><time>2026-04-11T14:20:24.001Z</time></trkpt><trkpt lat="43.32406610136712" lon="12.622038511034262"><ele>563.0</ele><time>2026-04-11T14:20:25.001Z</time></trkpt><trkpt lat="43.32408995925296" lon="12.621833357944219"><ele>563.0</ele><time>2026-04-11T14:20:26.001Z</time></trkpt><trkpt lat="43.324124174567956" lon="12.621636926893139"><ele>563.0</ele><time>2026-04-11T14:20:27.001Z</time></trkpt><trkpt lat="43.32415254934936" lon="12.621473892507689"><ele>561.4</ele><time>2026-04-11T14:20:28.001Z</time></trkpt><trkpt lat="43.32416331185807" lon="12.621332257820152"><ele>559.8</ele><time>2026-04-11T14:20:29.001Z</time></trkpt><trkpt lat="43.32415951760609" lon="12.621202779513297"><ele>558.2</ele><time>2026-04-11T14:20:30.001Z</time></trkpt><trkpt lat="43.3241400150813" lon="12.621086530129581"><ele>556.6</ele><time>2026-04-11T14:20:31.001Z</time></trkpt><trkpt lat="43.324086904812255" lon="12.62099326467026"><ele>555.0</ele><time>2026-04-11T14:20:32.001Z</time></trkpt><trkpt lat="43.32400337243339" lon="12.620926844861508"><ele>553.0</ele><time>2026-04-11T14:20:33.001Z</time></trkpt><trkpt lat="43.32390911523836" lon="12.620890706072233"><ele>551.0</ele><time>2026-04-11T14:20:34.001Z</time></trkpt><trkpt lat="43.323827168041795" lon="12.620885851380702"><ele>549.0</ele><time>2026-04-11T14:20:35.001Z</time></trkpt><trkpt lat="43.32374944019787" lon="12.620904413929624"><ele>547.0</ele><time>2026-04-11T14:20:36.001Z</time></trkpt><trkpt lat="43.32365788070428" lon="12.620936153154862"><ele>545.0</ele><time>2026-04-11T14:20:37.001Z</time></trkpt><trkpt lat="43.32359326992585" lon="12.621020553753704"><ele>543.0</ele><time>2026-04-11T14:20:38.001Z</time></trkpt><trkpt lat="43.32354262370862" lon="12.62107679382873"><ele>540.6666666666666</ele><time>2026-04-11T14:20:39.001Z</time></trkpt><trkpt lat="43.32345921987227" lon="12.621074091887138"><ele>538.3333333333334</ele><time>2026-04-11T14:20:41.001Z</time></trkpt><trkpt lat="43.32340910589665" lon="12.620964033260018"><ele>536.0</ele><time>2026-04-11T14:20:42.001Z</time></trkpt><trkpt lat="43.3233700355043" lon="12.620836481340344"><ele>533.6666666666667</ele><time>2026-04-11T14:20:43.001Z</time></trkpt><trkpt lat="43.32335260294997" lon="12.620713857246058"><ele>531.3333333333334</ele><time>2026-04-11T14:20:44.001Z</time></trkpt><trkpt lat="43.323364670697536" lon="12.620605724527877"><ele>529.0</ele><time>2026-04-11T14:20:45.001Z</time></trkpt><trkpt lat="43.323425294812985" lon="12.620544034060247"><ele>529.0</ele><time>2026-04-11T14:20:46.001Z</time></trkpt><trkpt lat="43.323519028026716" lon="12.62049440490945"><ele>529.0</ele><time>2026-04-11T14:20:47.001Z</time></trkpt><trkpt lat="43.323602248179824" lon="12.620435987634558"><ele>529.0</ele><time>2026-04-11T14:20:48.001Z</time></trkpt><trkpt lat="43.32367724485035" lon="12.620316113197859"><ele>529.0</ele><time>2026-04-11T14:20:49.001Z</time></trkpt><trkpt lat="43.32374576889713" lon="12.620193631736242"><ele>529.0</ele><time>2026-04-11T14:20:50.001Z</time></trkpt><trkpt lat="43.32379731291353" lon="12.620089975573537"><ele>526.0</ele><time>2026-04-11T14:20:51.001Z</time></trkpt><trkpt lat="43.32381880721573" lon="12.619984446407745"><ele>523.0</ele><time>2026-04-11T14:20:52.001Z</time></trkpt><trkpt lat="43.32381671511466" lon="12.619881400013599"><ele>520.0</ele><time>2026-04-11T14:20:53.001Z</time></trkpt><trkpt lat="43.32377646581325" lon="12.61977701057669"><ele>517.0</ele><time>2026-04-11T14:20:54.001Z</time></trkpt><trkpt lat="43.32368393374794" lon="12.619645783418923"><ele>514.0</ele><time>2026-04-11T14:20:55.001Z</time></trkpt><trkpt lat="43.32358057379854" lon="12.619511429881527"><ele>511.79999999999995</ele><time>2026-04-11T14:20:56.001Z</time></trkpt><trkpt lat="43.323499583946045" lon="12.619415294397143"><ele>509.59999999999997</ele><time>2026-04-11T14:20:57.001Z</time></trkpt><trkpt lat="43.32343796668519" lon="12.61932003527018"><ele>507.4</ele><time>2026-04-11T14:20:58.001Z</time></trkpt><trkpt lat="43.32340255856079" lon="12.619213128939409"><ele>505.2</ele><time>2026-04-11T14:20:59.001Z</time></trkpt><trkpt lat="43.32339820141721" lon="12.61909075784148"><ele>503.0</ele><time>2026-04-11T14:21:00.001Z</time></trkpt><trkpt lat="43.32342687138833" lon="12.618971521113126"><ele>503.0</ele><time>2026-04-11T14:21:01.001Z</time></trkpt><trkpt lat="43.32349209412178" lon="12.618851200898506"><ele>503.0</ele><time>2026-04-11T14:21:02.001Z</time></trkpt><trkpt lat="43.323586651878315" lon="12.61872841248875"><ele>503.0</ele><time>2026-04-11T14:21:03.001Z</time></trkpt><trkpt lat="43.32368743742116" lon="12.618634869401099"><ele>503.0</ele><time>2026-04-11T14:21:04.001Z</time></trkpt><trkpt lat="43.32379191756936" lon="12.618546775942841"><ele>501.75</ele><time>2026-04-11T14:21:05.001Z</time></trkpt><trkpt lat="43.32389143807045" lon="12.618456080330512"><ele>500.5</ele><time>2026-04-11T14:21:06.001Z</time></trkpt><trkpt lat="43.3239932332753" lon="12.61837163226498"><ele>499.25</ele><time>2026-04-11T14:21:07.001Z</time></trkpt><trkpt lat="43.32409182819368" lon="12.618291427578212"><ele>498.0</ele><time>2026-04-11T14:21:08.001Z</time></trkpt><trkpt lat="43.32419235726295" lon="12.618214965313756"><ele>498.0</ele><time>2026-04-11T14:21:09.001Z</time></trkpt><trkpt lat="43.32430276827816" lon="12.61813883026753"><ele>498.0</ele><time>2026-04-11T14:21:10.001Z</time></trkpt><trkpt lat="43.324415125900366" lon="12.61806621797139"><ele>498.0</ele><time>2026-04-11T14:21:11Z</time></trkpt><trkpt lat="43.32454133888307" lon="12.617988071263186"><ele>498.0</ele><time>2026-04-11T14:21:12Z</time></trkpt><trkpt lat="43.324670540005265" lon="12.61791436419686"><ele>499.5</ele><time>2026-04-11T14:21:13Z</time></trkpt><trkpt lat="43.324800467600944" lon="12.617841647185688"><ele>501.0</ele><time>2026-04-11T14:21:14Z</time></trkpt><trkpt lat="43.32493294982944" lon="12.61777082862488"><ele>502.5</ele><time>2026-04-11T14:21:15Z</time></trkpt><trkpt lat="43.32505968534855" lon="12.617703292677861"><ele>504.0</ele><time>2026-04-11T14:21:16Z</time></trkpt><trkpt lat="43.3251822016371" lon="12.617642240150502"><ele>500.0</ele><time>2026-04-11T14:21:17Z</time></trkpt><trkpt lat="43.32530047367108" lon="12.617586852974338"><ele>496.0</ele><time>2026-04-11T14:21:18Z</time></trkpt><trkpt lat="43.325405639709416" lon="12.617526817416195"><ele>492.0</ele><time>2026-04-11T14:21:19Z</time></trkpt><trkpt lat="43.3255057754011" lon="12.617478728611918"><ele>488.0</ele><time>2026-04-11T14:21:20Z</time></trkpt><trkpt lat="43.32560009139845" lon="12.617429369194491"><ele>484.0</ele><time>2026-04-11T14:21:21Z</time></trkpt><trkpt lat="43.32568642265441" lon="12.617379983116393"><ele>483.6666666666667</ele><time>2026-04-11T14:21:22Z</time></trkpt><trkpt lat="43.32574940598162" lon="12.617318309706857"><ele>483.33333333333337</ele><time>2026-04-11T14:21:23Z</time></trkpt><trkpt lat="43.32580190889718" lon="12.61723399055968"><ele>483.0</ele><time>2026-04-11T14:21:24Z</time></trkpt><trkpt lat="43.32580816092895" lon="12.617112183775813"><ele>482.66666666666663</ele><time>2026-04-11T14:21:25Z</time></trkpt><trkpt lat="43.32577047621434" lon="12.616997306130411"><ele>482.3333333333333</ele><time>2026-04-11T14:21:26Z</time></trkpt><trkpt lat="43.325728591152895" lon="12.616890948152681"><ele>482.0</ele><time>2026-04-11T14:21:27Z</time></trkpt><trkpt lat="43.32568531245567" lon="12.616779978629067"><ele>479.8</ele><time>2026-04-11T14:21:28Z</time></trkpt><trkpt lat="43.3256430331932" lon="12.61667226288618"><ele>477.6</ele><time>2026-04-11T14:21:29Z</time></trkpt><trkpt lat="43.3255984458" lon="12.616559553397419"><ele>475.40000000000003</ele><time>2026-04-11T14:21:30Z</time></trkpt><trkpt lat="43.32555056453617" lon="12.6164489430965"><ele>473.20000000000005</ele><time>2026-04-11T14:21:31Z</time></trkpt><trkpt lat="43.325502685039204" lon="12.616337499451642"><ele>471.0</ele><time>2026-04-11T14:21:32Z</time></trkpt><trkpt lat="43.325453430370274" lon="12.61621653925569"><ele>469.6</ele><time>2026-04-11T14:21:33Z</time></trkpt><trkpt lat="43.32540316334142" lon="12.616089663029856"><ele>468.20000000000005</ele><time>2026-04-11T14:21:34Z</time></trkpt><trkpt lat="43.32535459596335" lon="12.615957415977299"><ele>466.79999999999995</ele><time>2026-04-11T14:21:35Z</time></trkpt><trkpt lat="43.32530793571474" lon="12.615832051238383"><ele>465.4</ele><time>2026-04-11T14:21:36Z</time></trkpt><trkpt lat="43.32525783967971" lon="12.615708412998982"><ele>464.0</ele><time>2026-04-11T14:21:37Z</time></trkpt><trkpt lat="43.32520426801596" lon="12.61557988111572"><ele>464.0</ele><time>2026-04-11T14:21:38Z</time></trkpt><trkpt lat="43.32514849837531" lon="12.61545102927228"><ele>464.0</ele><time>2026-04-11T14:21:39Z</time></trkpt><trkpt lat="43.32509612769347" lon="12.615325382756334"><ele>464.0</ele><time>2026-04-11T14:21:40Z</time></trkpt><trkpt lat="43.325042247351824" lon="12.6152093742015"><ele>464.0</ele><time>2026-04-11T14:21:41Z</time></trkpt><trkpt lat="43.32497613573234" lon="12.615108494928608"><ele>464.0</ele><time>2026-04-11T14:21:42Z</time></trkpt><trkpt lat="43.32489937483647" lon="12.615026805647732"><ele>462.8333333333333</ele><time>2026-04-11T14:21:43Z</time></trkpt><trkpt lat="43.32483082377181" lon="12.614960429854024"><ele>461.66666666666663</ele><time>2026-04-11T14:21:44Z</time></trkpt><trkpt lat="43.324771532633186" lon="12.614901081269705"><ele>460.5</ele><time>2026-04-11T14:21:45Z</time></trkpt><trkpt lat="43.32468137089295" lon="12.61479415774361"><ele>459.33333333333337</ele><time>2026-04-11T14:21:47Z</time></trkpt><trkpt lat="43.32461629624808" lon="12.614708662481807"><ele>458.1666666666667</ele><time>2026-04-11T14:21:49Z</time></trkpt><trkpt lat="43.32457080251957" lon="12.61464150573923"><ele>457.0</ele><time>2026-04-11T14:21:51Z</time></trkpt><trkpt lat="43.324509689673626" lon="12.61461569601172"><ele>456.33333333333337</ele><time>2026-04-11T14:21:55Z</time></trkpt><trkpt lat="43.32443385704117" lon="12.614581739509587"><ele>455.6666666666667</ele><time>2026-04-11T14:22:28.001Z</time></trkpt><trkpt lat="43.32438963088261" lon="12.614479164577682"><ele>455.0</ele><time>2026-04-11T14:22:31.001Z</time></trkpt><trkpt lat="43.32433298617552" lon="12.61440176013972"><ele>454.33333333333337</ele><time>2026-04-11T14:22:34.001Z</time></trkpt><trkpt lat="43.32434343817058" lon="12.614300062301233"><ele>453.6666666666667</ele><time>2026-04-11T14:22:36.001Z</time></trkpt><trkpt lat="43.32441022779709" lon="12.61422379624705"><ele>453.0</ele><time>2026-04-11T14:22:37.001Z</time></trkpt><trkpt lat="43.32448469886759" lon="12.61414647141755"><ele>452.79999999999995</ele><time>2026-04-11T14:22:38.001Z</time></trkpt><trkpt lat="43.32455675681658" lon="12.614065246454615"><ele>452.59999999999997</ele><time>2026-04-11T14:22:39.001Z</time></trkpt><trkpt lat="43.324629140748996" lon="12.613983265299273"><ele>452.40000000000003</ele><time>2026-04-11T14:22:40.001Z</time></trkpt><trkpt lat="43.32470544615335" lon="12.613895168983742"><ele>452.20000000000005</ele><time>2026-04-11T14:22:41.001Z</time></trkpt><trkpt lat="43.32478305373855" lon="12.613803326778536"><ele>452.0</ele><time>2026-04-11T14:22:42.001Z</time></trkpt><trkpt lat="43.324869842194246" lon="12.613703219427688"><ele>451.5</ele><time>2026-04-11T14:22:43.001Z</time></trkpt><trkpt lat="43.324966607885344" lon="12.613595441841728"><ele>451.0</ele><time>2026-04-11T14:22:44.001Z</time></trkpt><trkpt lat="43.32505816190355" lon="12.613497938923738"><ele>450.5</ele><time>2026-04-11T14:22:45.001Z</time></trkpt><trkpt lat="43.32514126244708" lon="12.61340010203412"><ele>450.0</ele><time>2026-04-11T14:22:46.001Z</time></trkpt><trkpt lat="43.32521871927647" lon="12.61330620913066"><ele>450.0</ele><time>2026-04-11T14:22:47.001Z</time></trkpt><trkpt lat="43.32529417843911" lon="12.613218250992606"><ele>450.0</ele><time>2026-04-11T14:22:48.001Z</time></trkpt><trkpt lat="43.3253630987667" lon="12.613132803417162"><ele>450.0</ele><time>2026-04-11T14:22:49.001Z</time></trkpt><trkpt lat="43.32543749880596" lon="12.613048332876174"><ele>450.0</ele><time>2026-04-11T14:22:50.001Z</time></trkpt><trkpt lat="43.325516859238995" lon="12.612959001925807"><ele>450.0</ele><time>2026-04-11T14:22:51.001Z</time></trkpt><trkpt lat="43.32559602170035" lon="12.612861961000366"><ele>451.0</ele><time>2026-04-11T14:22:52.001Z</time></trkpt><trkpt lat="43.32567294513952" lon="12.612765337412815"><ele>452.0</ele><time>2026-04-11T14:22:53.001Z</time></trkpt><trkpt lat="43.32574877636825" lon="12.612675842741337"><ele>453.0</ele><time>2026-04-11T14:22:54.001Z</time></trkpt><trkpt lat="43.32583181139317" lon="12.612584953767604"><ele>454.0</ele><time>2026-04-11T14:22:55.001Z</time></trkpt><trkpt lat="43.32590342563373" lon="12.61249628191174"><ele>455.0</ele><time>2026-04-11T14:22:56.001Z</time></trkpt><trkpt lat="43.32597479385128" lon="12.612410227453994"><ele>455.0</ele><time>2026-04-11T14:22:57.001Z</time></trkpt><trkpt lat="43.326045028872876" lon="12.612326918669748"><ele>455.0</ele><time>2026-04-11T14:22:58.001Z</time></trkpt><trkpt lat="43.32611244612193" lon="12.612241298618997"><ele>455.0</ele><time>2026-04-11T14:22:59.001Z</time></trkpt><trkpt lat="43.32618434591197" lon="12.612150571257388"><ele>455.0</ele><time>2026-04-11T14:23:00.001Z</time></trkpt><trkpt lat="43.32626741854158" lon="12.612057868113355"><ele>455.0</ele><time>2026-04-11T14:23:01.001Z</time></trkpt><trkpt lat="43.32635648094657" lon="12.611960026137805"><ele>454.75</ele><time>2026-04-11T14:23:02.001Z</time></trkpt><trkpt lat="43.3264521626666" lon="12.611854810006502"><ele>454.5</ele><time>2026-04-11T14:23:03.001Z</time></trkpt><trkpt lat="43.32654836133512" lon="12.611736768512818"><ele>454.25</ele><time>2026-04-11T14:23:04.001Z</time></trkpt><trkpt lat="43.32666159750009" lon="12.611606668367289"><ele>454.0</ele><time>2026-04-11T14:23:05.001Z</time></trkpt><trkpt lat="43.32677984409729" lon="12.611463698002925"><ele>454.0</ele><time>2026-04-11T14:23:06.001Z</time></trkpt><trkpt lat="43.32689782825717" lon="12.611331970326637"><ele>454.0</ele><time>2026-04-11T14:23:07.001Z</time></trkpt><trkpt lat="43.32701547385801" lon="12.61119272077481"><ele>454.0</ele><time>2026-04-11T14:23:08.001Z</time></trkpt><trkpt lat="43.3271348228518" lon="12.611053920225324"><ele>453.6666666666667</ele><time>2026-04-11T14:23:09.001Z</time></trkpt><trkpt lat="43.32725411169851" lon="12.61091260023338"><ele>453.33333333333337</ele><time>2026-04-11T14:23:10.001Z</time></trkpt><trkpt lat="43.32737373700741" lon="12.610767824754518"><ele>453.0</ele><time>2026-04-11T14:23:11.001Z</time></trkpt><trkpt lat="43.327493724182034" lon="12.610619336401308"><ele>453.0</ele><time>2026-04-11T14:23:12.001Z</time></trkpt><trkpt lat="43.327613431919886" lon="12.610468857801674"><ele>453.0</ele><time>2026-04-11T14:23:13.001Z</time></trkpt><trkpt lat="43.32774213371471" lon="12.610322795022704"><ele>453.0</ele><time>2026-04-11T14:23:14.001Z</time></trkpt><trkpt lat="43.32787244124199" lon="12.610175365090651"><ele>452.33333333333337</ele><time>2026-04-11T14:23:15.001Z</time></trkpt><trkpt lat="43.328001635555225" lon="12.610025775541233"><ele>451.6666666666667</ele><time>2026-04-11T14:23:16.001Z</time></trkpt><trkpt lat="43.32813026631766" lon="12.609877028759069"><ele>451.0</ele><time>2026-04-11T14:23:17Z</time></trkpt><trkpt lat="43.32825700840593" lon="12.60972551565654"><ele>451.0</ele><time>2026-04-11T14:23:18Z</time></trkpt><trkpt lat="43.32838544102503" lon="12.609574016156841"><ele>451.0</ele><time>2026-04-11T14:23:19Z</time></trkpt><trkpt lat="43.32851416550755" lon="12.609422392327403"><ele>451.0</ele><time>2026-04-11T14:23:20Z</time></trkpt><trkpt lat="43.328641348415495" lon="12.60927194188561"><ele>451.0</ele><time>2026-04-11T14:23:21Z</time></trkpt><trkpt lat="43.32876652430183" lon="12.609126016024804"><ele>451.0</ele><time>2026-04-11T14:23:22Z</time></trkpt><trkpt lat="43.3288843943642" lon="12.608985179750412"><ele>451.0</ele><time>2026-04-11T14:23:23Z</time></trkpt><trkpt lat="43.32899722059176" lon="12.60884954007807"><ele>451.25</ele><time>2026-04-11T14:23:24Z</time></trkpt><trkpt lat="43.32909614077996" lon="12.608731896427447"><ele>451.5</ele><time>2026-04-11T14:23:25Z</time></trkpt><trkpt lat="43.329185358083166" lon="12.608627210063263"><ele>451.75</ele><time>2026-04-11T14:23:26Z</time></trkpt><trkpt lat="43.329269887308655" lon="12.608528328052"><ele>452.0</ele><time>2026-04-11T14:23:27Z</time></trkpt><trkpt lat="43.32935340309618" lon="12.608432490256849"><ele>452.0</ele><time>2026-04-11T14:23:28Z</time></trkpt><trkpt lat="43.32943315040529" lon="12.608338173977817"><ele>452.0</ele><time>2026-04-11T14:23:29Z</time></trkpt><trkpt lat="43.32951790526624" lon="12.608234788739729"><ele>452.0</ele><time>2026-04-11T14:23:30Z</time></trkpt><trkpt lat="43.32960715775214" lon="12.608127098067628"><ele>452.0</ele><time>2026-04-11T14:23:31Z</time></trkpt><trkpt lat="43.32970590379257" lon="12.608012379581607"><ele>452.75</ele><time>2026-04-11T14:23:32Z</time></trkpt><trkpt lat="43.32981183488098" lon="12.607888669573773"><ele>453.5</ele><time>2026-04-11T14:23:33Z</time></trkpt><trkpt lat="43.3299210677297" lon="12.607757850511279"><ele>454.25</ele><time>2026-04-11T14:23:34Z</time></trkpt><trkpt lat="43.33003281279252" lon="12.607631347736136"><ele>455.0</ele><time>2026-04-11T14:23:35Z</time></trkpt><trkpt lat="43.33013534895177" lon="12.607505166058939"><ele>455.0</ele><time>2026-04-11T14:23:36Z</time></trkpt><trkpt lat="43.330237721267395" lon="12.607380952987416"><ele>455.0</ele><time>2026-04-11T14:23:37Z</time></trkpt><trkpt lat="43.33034101128966" lon="12.60725703072069"><ele>455.0</ele><time>2026-04-11T14:23:38Z</time></trkpt><trkpt lat="43.33044386034638" lon="12.607133768874855"><ele>455.0</ele><time>2026-04-11T14:23:39Z</time></trkpt><trkpt lat="43.330548353087565" lon="12.607011159464118"><ele>455.25</ele><time>2026-04-11T14:23:40Z</time></trkpt><trkpt lat="43.33065193484553" lon="12.606886151125897"><ele>455.5</ele><time>2026-04-11T14:23:41Z</time></trkpt><trkpt lat="43.33075974655636" lon="12.606759013105517"><ele>455.75</ele><time>2026-04-11T14:23:42Z</time></trkpt><trkpt lat="43.33086682948616" lon="12.606632114316922"><ele>456.0</ele><time>2026-04-11T14:23:43Z</time></trkpt><trkpt lat="43.330977304166915" lon="12.606502700949747"><ele>456.0</ele><time>2026-04-11T14:23:44Z</time></trkpt><trkpt lat="43.3310895518618" lon="12.606369746211177"><ele>456.0</ele><time>2026-04-11T14:23:45Z</time></trkpt><trkpt lat="43.33120204805611" lon="12.606237794860117"><ele>456.0</ele><time>2026-04-11T14:23:46Z</time></trkpt><trkpt lat="43.331318110456834" lon="12.606102628309026"><ele>456.0</ele><time>2026-04-11T14:23:47Z</time></trkpt><trkpt lat="43.331436754727925" lon="12.60596427227456"><ele>457.0</ele><time>2026-04-11T14:23:48Z</time></trkpt><trkpt lat="43.33155310595048" lon="12.60582639127987"><ele>458.0</ele><time>2026-04-11T14:23:49Z</time></trkpt><trkpt lat="43.33166618391775" lon="12.605693323463441"><ele>459.0</ele><time>2026-04-11T14:23:50Z</time></trkpt><trkpt lat="43.331776448058356" lon="12.605562946092821"><ele>460.0</ele><time>2026-04-11T14:23:51Z</time></trkpt><trkpt lat="43.331883191688846" lon="12.605433576097878"><ele>460.25</ele><time>2026-04-11T14:23:52Z</time></trkpt><trkpt lat="43.33199030221535" lon="12.605308607262648"><ele>460.5</ele><time>2026-04-11T14:23:53Z</time></trkpt><trkpt lat="43.33209968961942" lon="12.60518635713848"><ele>460.75</ele><time>2026-04-11T14:23:54Z</time></trkpt><trkpt lat="43.332208317988695" lon="12.60505775539182"><ele>461.0</ele><time>2026-04-11T14:23:55Z</time></trkpt><trkpt lat="43.332318375570445" lon="12.604927818092309"><ele>461.0</ele><time>2026-04-11T14:23:56Z</time></trkpt><trkpt lat="43.3324283665005" lon="12.60479584847779"><ele>461.0</ele><time>2026-04-11T14:23:57Z</time></trkpt><trkpt lat="43.33253623554547" lon="12.604660450324923"><ele>461.0</ele><time>2026-04-11T14:23:58Z</time></trkpt><trkpt lat="43.332646340781174" lon="12.604527807166583"><ele>461.0</ele><time>2026-04-11T14:23:59Z</time></trkpt><trkpt lat="43.33276114340538" lon="12.604393207071936"><ele>461.0</ele><time>2026-04-11T14:24:00Z</time></trkpt><trkpt lat="43.33287409709484" lon="12.60426147537741"><ele>461.0</ele><time>2026-04-11T14:24:01Z</time></trkpt><trkpt lat="43.33298173717225" lon="12.604135238808674"><ele>461.0</ele><time>2026-04-11T14:24:02Z</time></trkpt><trkpt lat="43.33308198080101" lon="12.604013645695558"><ele>461.0</ele><time>2026-04-11T14:24:03Z</time></trkpt><trkpt lat="43.33317256681968" lon="12.603895530776748"><ele>462.0</ele><time>2026-04-11T14:24:04Z</time></trkpt><trkpt lat="43.333262842445265" lon="12.603784260071565"><ele>463.0</ele><time>2026-04-11T14:24:05Z</time></trkpt><trkpt lat="43.33335822273693" lon="12.603675485639892"><ele>464.0</ele><time>2026-04-11T14:24:06Z</time></trkpt><trkpt lat="43.333463285065235" lon="12.603567142495118"><ele>465.0</ele><time>2026-04-11T14:24:07Z</time></trkpt><trkpt lat="43.3335666749711" lon="12.603446769091324"><ele>465.66666666666663</ele><time>2026-04-11T14:24:08Z</time></trkpt><trkpt lat="43.33367660392473" lon="12.603318793457357"><ele>466.3333333333333</ele><time>2026-04-11T14:24:09Z</time></trkpt><trkpt lat="43.33379646312714" lon="12.603186939397043"><ele>467.0</ele><time>2026-04-11T14:24:10Z</time></trkpt><trkpt lat="43.333920949450714" lon="12.603047013544911"><ele>467.0</ele><time>2026-04-11T14:24:11Z</time></trkpt><trkpt lat="43.33404671380056" lon="12.602901376964104"><ele>467.0</ele><time>2026-04-11T14:24:12Z</time></trkpt><trkpt lat="43.33416842602272" lon="12.602753955534359"><ele>467.0</ele><time>2026-04-11T14:24:13Z</time></trkpt><trkpt lat="43.334288653331306" lon="12.602607143829907"><ele>466.66666666666663</ele><time>2026-04-11T14:24:14Z</time></trkpt><trkpt lat="43.33441693633501" lon="12.602458707696178"><ele>466.33333333333337</ele><time>2026-04-11T14:24:15Z</time></trkpt><trkpt lat="43.33455797832396" lon="12.602297782023248"><ele>466.0</ele><time>2026-04-11T14:24:16Z</time></trkpt><trkpt lat="43.33469791654907" lon="12.602136146982094"><ele>465.0</ele><time>2026-04-11T14:24:17.001Z</time></trkpt><trkpt lat="43.334829800357156" lon="12.601979407684183"><ele>464.0</ele><time>2026-04-11T14:24:18.001Z</time></trkpt><trkpt lat="43.33495233702528" lon="12.601824224289217"><ele>463.0</ele><time>2026-04-11T14:24:19.001Z</time></trkpt><trkpt lat="43.33507269523483" lon="12.601677607636988"><ele>463.0</ele><time>2026-04-11T14:24:20.001Z</time></trkpt><trkpt lat="43.3351860911219" lon="12.60153758268672"><ele>463.0</ele><time>2026-04-11T14:24:21.001Z</time></trkpt><trkpt lat="43.33529263166981" lon="12.601408275707797"><ele>463.0</ele><time>2026-04-11T14:24:22.001Z</time></trkpt><trkpt lat="43.33540117349756" lon="12.601294783098016"><ele>463.0</ele><time>2026-04-11T14:24:23.001Z</time></trkpt><trkpt lat="43.33550972159333" lon="12.601205328379795"><ele>463.4</ele><time>2026-04-11T14:24:24.001Z</time></trkpt><trkpt lat="43.33561652865805" lon="12.601152425435497"><ele>463.79999999999995</ele><time>2026-04-11T14:24:25.001Z</time></trkpt><trkpt lat="43.3357300392731" lon="12.601109446980947"><ele>464.2</ele><time>2026-04-11T14:24:26.001Z</time></trkpt><trkpt lat="43.33581481243688" lon="12.601057876387426"><ele>464.6</ele><time>2026-04-11T14:24:27.001Z</time></trkpt><trkpt lat="43.33588242416395" lon="12.600969650469214"><ele>465.0</ele><time>2026-04-11T14:24:28.001Z</time></trkpt><trkpt lat="43.33593252860265" lon="12.600847069851135"><ele>465.0</ele><time>2026-04-11T14:24:29.001Z</time></trkpt><trkpt lat="43.335979280762686" lon="12.600702862541642"><ele>465.0</ele><time>2026-04-11T14:24:30.001Z</time></trkpt><trkpt lat="43.33604140344421" lon="12.600558700558892"><ele>465.0</ele><time>2026-04-11T14:24:31.001Z</time></trkpt><trkpt lat="43.33613241049702" lon="12.600420461616519"><ele>465.0</ele><time>2026-04-11T14:24:32.001Z</time></trkpt><trkpt lat="43.33624525128015" lon="12.600275053629153"><ele>465.66666666666663</ele><time>2026-04-11T14:24:33.001Z</time></trkpt><trkpt lat="43.33637061887454" lon="12.600126588227228"><ele>466.3333333333333</ele><time>2026-04-11T14:24:34.001Z</time></trkpt><trkpt lat="43.33650375949343" lon="12.599972642509393"><ele>467.0</ele><time>2026-04-11T14:24:35.001Z</time></trkpt><trkpt lat="43.33664351109058" lon="12.59980696164843"><ele>468.66666666666663</ele><time>2026-04-11T14:24:36.001Z</time></trkpt><trkpt lat="43.33679235607962" lon="12.599628895883619"><ele>470.33333333333337</ele><time>2026-04-11T14:24:37.001Z</time></trkpt><trkpt lat="43.33694928287593" lon="12.599443610238646"><ele>472.0</ele><time>2026-04-11T14:24:38.001Z</time></trkpt><trkpt lat="43.33710593689661" lon="12.59926186204498"><ele>473.6666666666667</ele><time>2026-04-11T14:24:39.001Z</time></trkpt><trkpt lat="43.33725955798232" lon="12.59908325852503"><ele>475.33333333333337</ele><time>2026-04-11T14:24:40.001Z</time></trkpt><trkpt lat="43.33740168788361" lon="12.598916170424344"><ele>477.0</ele><time>2026-04-11T14:24:41.001Z</time></trkpt><trkpt lat="43.33754305490798" lon="12.598748551277296"><ele>476.33333333333337</ele><time>2026-04-11T14:24:42.001Z</time></trkpt><trkpt lat="43.33768405821546" lon="12.598584229794664"><ele>475.6666666666667</ele><time>2026-04-11T14:24:43.001Z</time></trkpt><trkpt lat="43.33782373288414" lon="12.598423312304927"><ele>475.0</ele><time>2026-04-11T14:24:44.001Z</time></trkpt><trkpt lat="43.33795921206294" lon="12.598265162941162"><ele>475.6666666666667</ele><time>2026-04-11T14:24:45.001Z</time></trkpt><trkpt lat="43.338089601043485" lon="12.598114076428647"><ele>476.33333333333337</ele><time>2026-04-11T14:24:46.001Z</time></trkpt><trkpt lat="43.33821918619544" lon="12.59796245264715"><ele>477.0</ele><time>2026-04-11T14:24:47.001Z</time></trkpt><trkpt lat="43.33834738362921" lon="12.597810679892424"><ele>477.66666666666663</ele><time>2026-04-11T14:24:48.001Z</time></trkpt><trkpt lat="43.33847566547667" lon="12.597657616538996"><ele>478.3333333333333</ele><time>2026-04-11T14:24:49.001Z</time></trkpt><trkpt lat="43.338602994455094" lon="12.597507670318628"><ele>479.0</ele><time>2026-04-11T14:24:50.001Z</time></trkpt><trkpt lat="43.33872535609416" lon="12.597361658207799"><ele>479.0</ele><time>2026-04-11T14:24:51.001Z</time></trkpt><trkpt lat="43.33884036882454" lon="12.597222682413486"><ele>479.0</ele><time>2026-04-11T14:24:52.001Z</time></trkpt><trkpt lat="43.338954300918665" lon="12.59709089045267"><ele>479.0</ele><time>2026-04-11T14:24:53.001Z</time></trkpt><trkpt lat="43.339065823477505" lon="12.596965145914435"><ele>479.0</ele><time>2026-04-11T14:24:54.001Z</time></trkpt><trkpt lat="43.3391812895104" lon="12.596838684392113"><ele>481.3333333333333</ele><time>2026-04-11T14:24:55.001Z</time></trkpt><trkpt lat="43.3392958206377" lon="12.596706910177758"><ele>483.66666666666663</ele><time>2026-04-11T14:24:56.001Z</time></trkpt><trkpt lat="43.33941187854815" lon="12.596567901935275"><ele>486.0</ele><time>2026-04-11T14:24:57.001Z</time></trkpt><trkpt lat="43.33952949082247" lon="12.596428833864927"><ele>486.0</ele><time>2026-04-11T14:24:58.001Z</time></trkpt><trkpt lat="43.33964354741602" lon="12.596296669728183"><ele>486.0</ele><time>2026-04-11T14:24:59.001Z</time></trkpt><trkpt lat="43.33975210908464" lon="12.596166508467794"><ele>486.0</ele><time>2026-04-11T14:25:00.001Z</time></trkpt><trkpt lat="43.33985837275676" lon="12.596037285157932"><ele>486.0</ele><time>2026-04-11T14:25:01.001Z</time></trkpt><trkpt lat="43.33996237607734" lon="12.595914907223605"><ele>486.0</ele><time>2026-04-11T14:25:02.001Z</time></trkpt><trkpt lat="43.340068387077665" lon="12.595789208181488"><ele>486.0</ele><time>2026-04-11T14:25:03.001Z</time></trkpt><trkpt lat="43.340178824897485" lon="12.595660075384203"><ele>486.0</ele><time>2026-04-11T14:25:04.001Z</time></trkpt><trkpt lat="43.3402889790633" lon="12.59552729320309"><ele>486.0</ele><time>2026-04-11T14:25:05.001Z</time></trkpt><trkpt lat="43.34039535983281" lon="12.595399584124108"><ele>485.66666666666663</ele><time>2026-04-11T14:25:06.001Z</time></trkpt><trkpt lat="43.34050715262199" lon="12.595269695134451"><ele>485.3333333333333</ele><time>2026-04-11T14:25:07.001Z</time></trkpt><trkpt lat="43.340625953680956" lon="12.595131922432387"><ele>485.0</ele><time>2026-04-11T14:25:08.001Z</time></trkpt><trkpt lat="43.34074311817902" lon="12.594993505492933"><ele>485.75</ele><time>2026-04-11T14:25:09.001Z</time></trkpt><trkpt lat="43.34085326347038" lon="12.594859805404695"><ele>486.5</ele><time>2026-04-11T14:25:10.001Z</time></trkpt><trkpt lat="43.34095848394598" lon="12.594723720635573"><ele>487.25</ele><time>2026-04-11T14:25:11.001Z</time></trkpt><trkpt lat="43.3410649373896" lon="12.594589717443881"><ele>488.0</ele><time>2026-04-11T14:25:12.001Z</time></trkpt><trkpt lat="43.34117889480615" lon="12.59446207020803"><ele>488.0</ele><time>2026-04-11T14:25:13.001Z</time></trkpt><trkpt lat="43.341306825282864" lon="12.594346073001281"><ele>488.0</ele><time>2026-04-11T14:25:14.001Z</time></trkpt><trkpt lat="43.34144336407333" lon="12.594216722447806"><ele>488.0</ele><time>2026-04-11T14:25:15.001Z</time></trkpt><trkpt lat="43.34157741685306" lon="12.594064966944039"><ele>489.0</ele><time>2026-04-11T14:25:16.001Z</time></trkpt><trkpt lat="43.341697746954075" lon="12.593913995536047"><ele>490.0</ele><time>2026-04-11T14:25:17.001Z</time></trkpt><trkpt lat="43.34181033341879" lon="12.593759673173134"><ele>491.0</ele><time>2026-04-11T14:25:18.001Z</time></trkpt><trkpt lat="43.34191485029434" lon="12.593610487659804"><ele>491.0</ele><time>2026-04-11T14:25:19.001Z</time></trkpt><trkpt lat="43.34201926144427" lon="12.593471225858451"><ele>491.0</ele><time>2026-04-11T14:25:20.001Z</time></trkpt><trkpt lat="43.342127575873285" lon="12.593343661814828"><ele>491.0</ele><time>2026-04-11T14:25:21.001Z</time></trkpt><trkpt lat="43.342235152000946" lon="12.59321916647653"><ele>491.0</ele><time>2026-04-11T14:25:22.001Z</time></trkpt><trkpt lat="43.34233803258007" lon="12.593097642408965"><ele>491.25</ele><time>2026-04-11T14:25:23Z</time></trkpt><trkpt lat="43.34243668565124" lon="12.592978416634413"><ele>491.5</ele><time>2026-04-11T14:25:24Z</time></trkpt><trkpt lat="43.34253302529511" lon="12.592860885559148"><ele>491.75</ele><time>2026-04-11T14:25:25Z</time></trkpt><trkpt lat="43.34262527080816" lon="12.592745564578083"><ele>492.0</ele><time>2026-04-11T14:25:26Z</time></trkpt><trkpt lat="43.34271501058673" lon="12.592634432192613"><ele>492.0</ele><time>2026-04-11T14:25:27Z</time></trkpt><trkpt lat="43.34280326629139" lon="12.592525274207974"><ele>492.0</ele><time>2026-04-11T14:25:28Z</time></trkpt><trkpt lat="43.34289367745671" lon="12.592411476090659"><ele>492.0</ele><time>2026-04-11T14:25:29Z</time></trkpt><trkpt lat="43.34298511047575" lon="12.592300305924482"><ele>492.0</ele><time>2026-04-11T14:25:30Z</time></trkpt><trkpt lat="43.343077700434" lon="12.59218580630731"><ele>492.75</ele><time>2026-04-11T14:25:31Z</time></trkpt><trkpt lat="43.343176387150294" lon="12.592067314822208"><ele>493.5</ele><time>2026-04-11T14:25:32Z</time></trkpt><trkpt lat="43.34327749937391" lon="12.591947664091899"><ele>494.25</ele><time>2026-04-11T14:25:33Z</time></trkpt><trkpt lat="43.34337623673969" lon="12.591828261448661"><ele>495.0</ele><time>2026-04-11T14:25:34Z</time></trkpt><trkpt lat="43.34347408262464" lon="12.591716235003878"><ele>495.0</ele><time>2026-04-11T14:25:35Z</time></trkpt><trkpt lat="43.343569799797365" lon="12.591598786397125"><ele>495.0</ele><time>2026-04-11T14:25:36Z</time></trkpt><trkpt lat="43.3436700643575" lon="12.591486777742382"><ele>495.0</ele><time>2026-04-11T14:25:37Z</time></trkpt><trkpt lat="43.343765631310646" lon="12.591376993215706"><ele>495.0</ele><time>2026-04-11T14:25:38Z</time></trkpt><trkpt lat="43.343857462890945" lon="12.591272076850098"><ele>494.25</ele><time>2026-04-11T14:25:39Z</time></trkpt><trkpt lat="43.34394813474475" lon="12.591160244216045"><ele>493.5</ele><time>2026-04-11T14:25:40Z</time></trkpt><trkpt lat="43.34404186057734" lon="12.59103885708706"><ele>492.75</ele><time>2026-04-11T14:25:41Z</time></trkpt><trkpt lat="43.34413903269689" lon="12.590912826410767"><ele>492.0</ele><time>2026-04-11T14:25:42Z</time></trkpt><trkpt lat="43.344242268749376" lon="12.590785832030694"><ele>492.0</ele><time>2026-04-11T14:25:43Z</time></trkpt><trkpt lat="43.344347345987465" lon="12.590660198650014"><ele>492.0</ele><time>2026-04-11T14:25:44Z</time></trkpt><trkpt lat="43.34445271702589" lon="12.590532217857662"><ele>492.0</ele><time>2026-04-11T14:25:45Z</time></trkpt><trkpt lat="43.34455821011423" lon="12.59039942171069"><ele>492.0</ele><time>2026-04-11T14:25:46Z</time></trkpt><trkpt lat="43.34466042569884" lon="12.590267424128468"><ele>491.5</ele><time>2026-04-11T14:25:47Z</time></trkpt><trkpt lat="43.34476551634364" lon="12.59013597332216"><ele>491.0</ele><time>2026-04-11T14:25:48Z</time></trkpt><trkpt lat="43.344874072304044" lon="12.590007515858302"><ele>490.5</ele><time>2026-04-11T14:25:49Z</time></trkpt><trkpt lat="43.34498125915657" lon="12.589873358301169"><ele>490.0</ele><time>2026-04-11T14:25:50Z</time></trkpt><trkpt lat="43.34508640714972" lon="12.589739057402923"><ele>490.0</ele><time>2026-04-11T14:25:51Z</time></trkpt><trkpt lat="43.34519163869636" lon="12.5896121504395"><ele>490.0</ele><time>2026-04-11T14:25:52Z</time></trkpt><trkpt lat="43.34529566489406" lon="12.589480722963179"><ele>490.0</ele><time>2026-04-11T14:25:53Z</time></trkpt><trkpt lat="43.345398528719095" lon="12.589353107980935"><ele>490.0</ele><time>2026-04-11T14:25:54Z</time></trkpt><trkpt lat="43.34549771642286" lon="12.589228559002546"><ele>490.25</ele><time>2026-04-11T14:25:55Z</time></trkpt><trkpt lat="43.34559507201682" lon="12.589108803218043"><ele>490.5</ele><time>2026-04-11T14:25:56Z</time></trkpt><trkpt lat="43.345687928976766" lon="12.58899095284861"><ele>490.75</ele><time>2026-04-11T14:25:57Z</time></trkpt><trkpt lat="43.345779517634384" lon="12.58887598337507"><ele>491.0</ele><time>2026-04-11T14:25:58Z</time></trkpt><trkpt lat="43.3458694481827" lon="12.588766846328216"><ele>490.4</ele><time>2026-04-11T14:25:59Z</time></trkpt><trkpt lat="43.34595435027032" lon="12.588661433549229"><ele>489.8</ele><time>2026-04-11T14:26:00Z</time></trkpt><trkpt lat="43.34603513808306" lon="12.588561056883169"><ele>489.19999999999993</ele><time>2026-04-11T14:26:01Z</time></trkpt><trkpt lat="43.34610805033491" lon="12.588467007316657"><ele>488.59999999999997</ele><time>2026-04-11T14:26:02Z</time></trkpt><trkpt lat="43.34618151918563" lon="12.588373311152312"><ele>488.0</ele><time>2026-04-11T14:26:03Z</time></trkpt><trkpt lat="43.34625243808982" lon="12.588286910520875"><ele>488.0</ele><time>2026-04-11T14:26:04Z</time></trkpt><trkpt lat="43.34631732017219" lon="12.588203053742639"><ele>487.99999999999994</ele><time>2026-04-11T14:26:05Z</time></trkpt><trkpt lat="43.34637410194978" lon="12.588139426573541"><ele>487.99999999999994</ele><time>2026-04-11T14:26:06Z</time></trkpt><trkpt lat="43.34647388150873" lon="12.588089290399772"><ele>488.0</ele><time>2026-04-11T14:26:08Z</time></trkpt><trkpt lat="43.34655070940208" lon="12.588047864776433"><ele>488.0</ele><time>2026-04-11T14:26:11Z</time></trkpt><trkpt lat="43.346649153522144" lon="12.588102898237095"><ele>488.5714285714285</ele><time>2026-04-11T14:26:13Z</time></trkpt><trkpt lat="43.34670431734093" lon="12.588025707817605"><ele>489.1428571428571</ele><time>2026-04-11T14:26:16Z</time></trkpt><trkpt lat="43.34676529775698" lon="12.58798482654325"><ele>489.7142857142857</ele><time>2026-04-11T14:36:12Z</time></trkpt><trkpt lat="43.34676001402187" lon="12.587897849573581"><ele>490.2857142857143</ele><time>2026-04-11T14:36:31Z</time></trkpt><trkpt lat="43.34675049928178" lon="12.587804081735253"><ele>490.8571428571429</ele><time>2026-04-11T14:36:36Z</time></trkpt><trkpt lat="43.3467254291841" lon="12.58770658346309"><ele>491.4285714285715</ele><time>2026-04-11T14:37:01.001Z</time></trkpt><trkpt lat="43.34677683042575" lon="12.58762457764704"><ele>492.00000000000006</ele><time>2026-04-11T14:37:03.001Z</time></trkpt><trkpt lat="43.34687066786237" lon="12.587523187399114"><ele>492.0</ele><time>2026-04-11T14:37:05.001Z</time></trkpt><trkpt lat="43.34694691145809" lon="12.587422101698225"><ele>492.00000000000006</ele><time>2026-04-11T14:37:07.001Z</time></trkpt><trkpt lat="43.347027751327666" lon="12.587329778708504"><ele>492.00000000000006</ele><time>2026-04-11T14:37:09.001Z</time></trkpt><trkpt lat="43.34710758324987" lon="12.587222242369808"><ele>492.0</ele><time>2026-04-11T14:37:11.001Z</time></trkpt><trkpt lat="43.34719820582247" lon="12.587109519616696"><ele>492.0</ele><time>2026-04-11T14:37:13.001Z</time></trkpt><trkpt lat="43.34724279576751" lon="12.587044172386754"><ele>493.1428571428572</ele><time>2026-04-11T14:37:14.001Z</time></trkpt><trkpt lat="43.347282311860056" lon="12.586975423161636"><ele>494.28571428571433</ele><time>2026-04-11T14:37:15.001Z</time></trkpt><trkpt lat="43.347308030029936" lon="12.586892025598917"><ele>495.42857142857144</ele><time>2026-04-11T14:37:16.001Z</time></trkpt><trkpt lat="43.34731689866874" lon="12.58680047527578"><ele>496.5714285714286</ele><time>2026-04-11T14:37:17.001Z</time></trkpt><trkpt lat="43.34730660982867" lon="12.586714406537466"><ele>497.7142857142858</ele><time>2026-04-11T14:37:18.001Z</time></trkpt><trkpt lat="43.3472945138666" lon="12.586611090623647"><ele>498.85714285714283</ele><time>2026-04-11T14:37:19.001Z</time></trkpt><trkpt lat="43.34729359862136" lon="12.586503358656232"><ele>500.0</ele><time>2026-04-11T14:37:20.001Z</time></trkpt><trkpt lat="43.34729677670743" lon="12.586397645328281"><ele>500.0</ele><time>2026-04-11T14:37:21.001Z</time></trkpt><trkpt lat="43.34729004404845" lon="12.58629791537649"><ele>500.0</ele><time>2026-04-11T14:37:22.001Z</time></trkpt><trkpt lat="43.347284205138884" lon="12.586204736741145"><ele>500.0</ele><time>2026-04-11T14:37:23.001Z</time></trkpt><trkpt lat="43.347278682173744" lon="12.58610720983032"><ele>500.0</ele><time>2026-04-11T14:37:24.001Z</time></trkpt><trkpt lat="43.34727173599761" lon="12.586005829537072"><ele>500.0</ele><time>2026-04-11T14:37:25.001Z</time></trkpt><trkpt lat="43.34726799979496" lon="12.585902590676422"><ele>500.0</ele><time>2026-04-11T14:37:26.001Z</time></trkpt><trkpt lat="43.34725665275632" lon="12.585786692083229"><ele>500.0</ele><time>2026-04-11T14:37:27.001Z</time></trkpt><trkpt lat="43.3472409186215" lon="12.585640736737144"><ele>499.8</ele><time>2026-04-11T14:37:28.001Z</time></trkpt><trkpt lat="43.34723351548777" lon="12.585496493482687"><ele>499.6</ele><time>2026-04-11T14:37:29.001Z</time></trkpt><trkpt lat="43.34722629522455" lon="12.585352667726223"><ele>499.4</ele><time>2026-04-11T14:37:30.001Z</time></trkpt><trkpt lat="43.347221077923585" lon="12.585213078152984"><ele>499.2</ele><time>2026-04-11T14:37:31.001Z</time></trkpt><trkpt lat="43.347214257009384" lon="12.5850768648411"><ele>499.0</ele><time>2026-04-11T14:37:32.001Z</time></trkpt><trkpt lat="43.34720331216635" lon="12.584941315201796"><ele>498.79999999999995</ele><time>2026-04-11T14:37:33.001Z</time></trkpt><trkpt lat="43.347194220895204" lon="12.584801882281452"><ele>498.59999999999997</ele><time>2026-04-11T14:37:34.001Z</time></trkpt><trkpt lat="43.34718354582604" lon="12.584661551431987"><ele>498.4</ele><time>2026-04-11T14:37:35.001Z</time></trkpt><trkpt lat="43.347174980027035" lon="12.58452221768081"><ele>498.2</ele><time>2026-04-11T14:37:36.001Z</time></trkpt><trkpt lat="43.34716849920388" lon="12.584385350085437"><ele>498.0</ele><time>2026-04-11T14:37:37.001Z</time></trkpt><trkpt lat="43.34715769025978" lon="12.584251607335961"><ele>498.0</ele><time>2026-04-11T14:37:38.001Z</time></trkpt><trkpt lat="43.34714976217518" lon="12.58411768686195"><ele>497.99999999999994</ele><time>2026-04-11T14:37:39.001Z</time></trkpt><trkpt lat="43.34714299905692" lon="12.583980331765844"><ele>497.99999999999994</ele><time>2026-04-11T14:37:40.001Z</time></trkpt><trkpt lat="43.347130487201156" lon="12.583838935929652"><ele>498.0</ele><time>2026-04-11T14:37:41.001Z</time></trkpt><trkpt lat="43.347120412804195" lon="12.583690540722417"><ele>498.0</ele><time>2026-04-11T14:37:42.001Z</time></trkpt><trkpt lat="43.34710804660938" lon="12.583548498599649"><ele>498.2</ele><time>2026-04-11T14:37:43.001Z</time></trkpt><trkpt lat="43.34709816611186" lon="12.583412745680985"><ele>498.4</ele><time>2026-04-11T14:37:44.001Z</time></trkpt><trkpt lat="43.347089548665664" lon="12.583272717778843"><ele>498.59999999999997</ele><time>2026-04-11T14:37:45.001Z</time></trkpt><trkpt lat="43.34709267635452" lon="12.583139604218127"><ele>498.79999999999995</ele><time>2026-04-11T14:37:46.001Z</time></trkpt><trkpt lat="43.34710582424598" lon="12.583001602262526"><ele>499.0</ele><time>2026-04-11T14:37:47.001Z</time></trkpt><trkpt lat="43.34712460244168" lon="12.582868487634046"><ele>499.4</ele><time>2026-04-11T14:37:48.001Z</time></trkpt><trkpt lat="43.34714926279834" lon="12.582738916001238"><ele>499.79999999999995</ele><time>2026-04-11T14:37:49.001Z</time></trkpt><trkpt lat="43.34718594709024" lon="12.582604038724229"><ele>500.20000000000005</ele><time>2026-04-11T14:37:50.001Z</time></trkpt><trkpt lat="43.34723361787527" lon="12.582461185608297"><ele>500.6</ele><time>2026-04-11T14:37:51.001Z</time></trkpt><trkpt lat="43.347290032250726" lon="12.582323674273816"><ele>501.0</ele><time>2026-04-11T14:37:52.001Z</time></trkpt><trkpt lat="43.34734627214109" lon="12.582193939820186"><ele>501.8</ele><time>2026-04-11T14:37:53.001Z</time></trkpt><trkpt lat="43.347414648753734" lon="12.582079857824164"><ele>502.6</ele><time>2026-04-11T14:37:54.001Z</time></trkpt><trkpt lat="43.347477036257814" lon="12.581959406262117"><ele>503.4</ele><time>2026-04-11T14:37:55.001Z</time></trkpt><trkpt lat="43.347541017203945" lon="12.58184531787695"><ele>504.2</ele><time>2026-04-11T14:37:56.001Z</time></trkpt><trkpt lat="43.34759795491154" lon="12.581728680222025"><ele>505.0</ele><time>2026-04-11T14:37:57.001Z</time></trkpt><trkpt lat="43.347655639987835" lon="12.581616414574091"><ele>505.0</ele><time>2026-04-11T14:37:58.001Z</time></trkpt><trkpt lat="43.34771474331433" lon="12.581511049180484"><ele>505.0</ele><time>2026-04-11T14:37:59Z</time></trkpt><trkpt lat="43.34776780944704" lon="12.58140219405945"><ele>505.0</ele><time>2026-04-11T14:38:00Z</time></trkpt><trkpt lat="43.34782264011528" lon="12.58129761775861"><ele>505.0</ele><time>2026-04-11T14:38:01Z</time></trkpt><trkpt lat="43.34787323897551" lon="12.581198762022465"><ele>505.0</ele><time>2026-04-11T14:38:02Z</time></trkpt><trkpt lat="43.34792101381053" lon="12.581104932519084"><ele>505.33333333333337</ele><time>2026-04-11T14:38:03Z</time></trkpt><trkpt lat="43.34796699664136" lon="12.581020125184072"><ele>505.6666666666667</ele><time>2026-04-11T14:38:04Z</time></trkpt><trkpt lat="43.34800430054211" lon="12.580932339627454"><ele>506.0</ele><time>2026-04-11T14:38:05Z</time></trkpt><trkpt lat="43.348043113224506" lon="12.580849414178454"><ele>506.33333333333337</ele><time>2026-04-11T14:38:06Z</time></trkpt><trkpt lat="43.348106507772926" lon="12.58069563624743"><ele>506.6666666666667</ele><time>2026-04-11T14:38:08Z</time></trkpt><trkpt lat="43.34813627380975" lon="12.580615996615167"><ele>507.0</ele><time>2026-04-11T14:38:09Z</time></trkpt><trkpt lat="43.34818029395392" lon="12.580532811833434"><ele>507.0</ele><time>2026-04-11T14:38:10Z</time></trkpt><trkpt lat="43.348221437502374" lon="12.580448679853829"><ele>507.0</ele><time>2026-04-11T14:38:11Z</time></trkpt><trkpt lat="43.34826264978179" lon="12.580358323104967"><ele>507.0</ele><time>2026-04-11T14:38:12Z</time></trkpt><trkpt lat="43.34830461291336" lon="12.580265824046046"><ele>507.0</ele><time>2026-04-11T14:38:13Z</time></trkpt><trkpt lat="43.34834740293062" lon="12.58017679478503"><ele>507.0</ele><time>2026-04-11T14:38:14Z</time></trkpt><trkpt lat="43.348390230100385" lon="12.580093146023378"><ele>507.0</ele><time>2026-04-11T14:38:15Z</time></trkpt><trkpt lat="43.34843101094888" lon="12.580011374617792"><ele>505.8333333333333</ele><time>2026-04-11T14:38:16Z</time></trkpt><trkpt lat="43.348470367309794" lon="12.579934021312235"><ele>504.66666666666663</ele><time>2026-04-11T14:38:17Z</time></trkpt><trkpt lat="43.348507070713644" lon="12.579858778812563"><ele>503.5</ele><time>2026-04-11T14:38:18Z</time></trkpt><trkpt lat="43.34856884550041" lon="12.57972311181125"><ele>502.3333333333333</ele><time>2026-04-11T14:38:20Z</time></trkpt><trkpt lat="43.348615766032815" lon="12.579616307459448"><ele>501.16666666666663</ele><time>2026-04-11T14:38:22Z</time></trkpt><trkpt lat="43.348665570346306" lon="12.579518658127416"><ele>500.0</ele><time>2026-04-11T14:38:24Z</time></trkpt><trkpt lat="43.34871678907439" lon="12.579414433252683"><ele>500.16666666666663</ele><time>2026-04-11T14:38:26Z</time></trkpt><trkpt lat="43.348782901888384" lon="12.579279238446833"><ele>500.3333333333333</ele><time>2026-04-11T14:38:28Z</time></trkpt><trkpt lat="43.348830237265304" lon="12.579187191332794"><ele>500.5</ele><time>2026-04-11T14:38:29Z</time></trkpt><trkpt lat="43.34888620395997" lon="12.579106739402446"><ele>500.66666666666663</ele><time>2026-04-11T14:38:30Z</time></trkpt><trkpt lat="43.34894257008029" lon="12.579039108003302"><ele>500.8333333333333</ele><time>2026-04-11T14:38:31Z</time></trkpt><trkpt lat="43.34900496733384" lon="12.578986677783819"><ele>501.0</ele><time>2026-04-11T14:38:32Z</time></trkpt><trkpt lat="43.349065168724074" lon="12.578930024450012"><ele>501.0</ele><time>2026-04-11T14:38:33Z</time></trkpt><trkpt lat="43.34912154782493" lon="12.578875040087148"><ele>501.0</ele><time>2026-04-11T14:38:34Z</time></trkpt><trkpt lat="43.34917762027495" lon="12.578823574927108"><ele>501.0</ele><time>2026-04-11T14:38:35Z</time></trkpt><trkpt lat="43.349232485111216" lon="12.578774978931127"><ele>501.0</ele><time>2026-04-11T14:38:36Z</time></trkpt><trkpt lat="43.34933805383846" lon="12.578687786713154"><ele>501.0</ele><time>2026-04-11T14:38:38Z</time></trkpt><trkpt lat="43.349436646668934" lon="12.578618148496151"><ele>501.0</ele><time>2026-04-11T14:38:40Z</time></trkpt><trkpt lat="43.3495325915696" lon="12.578547030599445"><ele>500.0</ele><time>2026-04-11T14:38:42Z</time></trkpt><trkpt lat="43.3496229992681" lon="12.578506002161358"><ele>499.0</ele><time>2026-04-11T14:38:44Z</time></trkpt><trkpt lat="43.34970816243855" lon="12.578481149132086"><ele>498.0</ele><time>2026-04-11T14:38:46Z</time></trkpt><trkpt lat="43.34977867533671" lon="12.578449016769339"><ele>497.0</ele><time>2026-04-11T14:38:48Z</time></trkpt><trkpt lat="43.34984294909797" lon="12.578413043441087"><ele>496.0</ele><time>2026-04-11T14:38:50Z</time></trkpt><trkpt lat="43.34991921087271" lon="12.578377664223787"><ele>495.0</ele><time>2026-04-11T14:38:52Z</time></trkpt><trkpt lat="43.35000211615998" lon="12.578342382028517"><ele>495.0</ele><time>2026-04-11T14:38:54Z</time></trkpt><trkpt lat="43.3500917268615" lon="12.578302326915528"><ele>495.0</ele><time>2026-04-11T14:38:56Z</time></trkpt><trkpt lat="43.35018769203579" lon="12.578262864255478"><ele>495.0</ele><time>2026-04-11T14:38:58Z</time></trkpt><trkpt lat="43.35029222228215" lon="12.5782077960224"><ele>495.0</ele><time>2026-04-11T14:39:00Z</time></trkpt><trkpt lat="43.35037166245064" lon="12.57811411712337"><ele>495.0</ele><time>2026-04-11T14:39:02Z</time></trkpt><trkpt lat="43.35041994183813" lon="12.57797625238773"><ele>493.8333333333333</ele><time>2026-04-11T14:39:04Z</time></trkpt><trkpt lat="43.35043622816317" lon="12.577840671703102"><ele>492.66666666666663</ele><time>2026-04-11T14:39:06Z</time></trkpt><trkpt lat="43.350447642467024" lon="12.577728236733112"><ele>491.5</ele><time>2026-04-11T14:39:09Z</time></trkpt><trkpt lat="43.35045805700129" lon="12.577639979402067"><ele>490.3333333333333</ele><time>2026-04-11T14:39:12Z</time></trkpt><trkpt lat="43.350463657735666" lon="12.577540069745606"><ele>489.16666666666663</ele><time>2026-04-11T14:39:15Z</time></trkpt><trkpt lat="43.35047234680005" lon="12.57745009943922"><ele>488.0</ele><time>2026-04-11T14:39:17Z</time></trkpt><trkpt lat="43.35048419798747" lon="12.577362317817217"><ele>487.99999999999994</ele><time>2026-04-11T14:39:19Z</time></trkpt><trkpt lat="43.35049266984302" lon="12.577261197463924"><ele>488.0</ele><time>2026-04-11T14:39:22Z</time></trkpt><trkpt lat="43.35050165321373" lon="12.577162711535038"><ele>488.0</ele><time>2026-04-11T14:39:26Z</time></trkpt><trkpt lat="43.35050756344494" lon="12.577066697450304"><ele>488.0</ele><time>2026-04-11T14:39:35.001Z</time></trkpt><trkpt lat="43.35055104583032" lon="12.576972757672646"><ele>487.99999999999994</ele><time>2026-04-11T14:39:42.001Z</time></trkpt><trkpt lat="43.350637566514195" lon="12.57695811518018"><ele>488.0</ele><time>2026-04-11T14:39:44.001Z</time></trkpt><trkpt lat="43.3507091641866" lon="12.576907616795165"><ele>489.0</ele><time>2026-04-11T14:39:47.001Z</time></trkpt><trkpt lat="43.35073043269336" lon="12.576825548347466"><ele>489.99999999999994</ele><time>2026-04-11T14:39:49.001Z</time></trkpt><trkpt lat="43.35069462551922" lon="12.576718740077933"><ele>490.99999999999994</ele><time>2026-04-11T14:39:51.001Z</time></trkpt><trkpt lat="43.350675838637464" lon="12.576623086373033"><ele>492.0</ele><time>2026-04-11T14:39:53.001Z</time></trkpt><trkpt lat="43.350648640944506" lon="12.576443494475546"><ele>493.0</ele><time>2026-04-11T14:40:04.001Z</time></trkpt><trkpt lat="43.35070069193773" lon="12.576302278372802"><ele>493.00000000000006</ele><time>2026-04-11T14:40:05.999Z</time></trkpt><trkpt lat="43.350734809154" lon="12.576217106487608"><ele>493.0</ele><time>2026-04-11T14:40:06.999Z</time></trkpt><trkpt lat="43.35076710580333" lon="12.576131755301319"><ele>493.0</ele><time>2026-04-11T14:40:07.999Z</time></trkpt><trkpt lat="43.35080280649791" lon="12.576043000387402"><ele>493.0</ele><time>2026-04-11T14:40:08.999Z</time></trkpt><trkpt lat="43.350840717866596" lon="12.575957971386137"><ele>493.00000000000006</ele><time>2026-04-11T14:40:09.999Z</time></trkpt><trkpt lat="43.35087296421012" lon="12.575873431446892"><ele>493.0</ele><time>2026-04-11T14:40:10.999Z</time></trkpt><trkpt lat="43.35094688990875" lon="12.575735158173556"><ele>493.1666666666667</ele><time>2026-04-11T14:40:12.999Z</time></trkpt><trkpt lat="43.35099895297211" lon="12.575682819092503"><ele>493.33333333333337</ele><time>2026-04-11T14:40:14Z</time></trkpt><trkpt lat="43.35107128651845" lon="12.57556345331277"><ele>493.5</ele><time>2026-04-11T14:40:16Z</time></trkpt><trkpt lat="43.351148070962445" lon="12.575476193304194"><ele>493.66666666666663</ele><time>2026-04-11T14:40:18Z</time></trkpt><trkpt lat="43.351207339257556" lon="12.57540778183229"><ele>493.8333333333333</ele><time>2026-04-11T14:40:20Z</time></trkpt><trkpt lat="43.351270493321444" lon="12.575347500504225"><ele>494.0</ele><time>2026-04-11T14:40:22Z</time></trkpt><trkpt lat="43.35133946257696" lon="12.575274414886406"><ele>493.0</ele><time>2026-04-11T14:40:24Z</time></trkpt><trkpt lat="43.35131295877105" lon="12.575102333091273"><ele>492.0</ele><time>2026-04-11T14:40:27Z</time></trkpt><trkpt lat="43.35123600312145" lon="12.575002285394744"><ele>491.0</ele><time>2026-04-11T14:40:29Z</time></trkpt><trkpt lat="43.35115771449715" lon="12.574874018858278"><ele>490.0</ele><time>2026-04-11T14:40:31Z</time></trkpt><trkpt lat="43.35108511617666" lon="12.574746754029809"><ele>490.0</ele><time>2026-04-11T14:40:33Z</time></trkpt><trkpt lat="43.351013834715616" lon="12.574620480599211"><ele>490.0</ele><time>2026-04-11T14:40:35Z</time></trkpt><trkpt lat="43.35094266328872" lon="12.574494560159795"><ele>490.0</ele><time>2026-04-11T14:40:37Z</time></trkpt><trkpt lat="43.3508746394256" lon="12.574399286718267"><ele>490.0</ele><time>2026-04-11T14:40:39Z</time></trkpt><trkpt lat="43.350818462346204" lon="12.57429577187474"><ele>490.0</ele><time>2026-04-11T14:40:41Z</time></trkpt><trkpt lat="43.35075471030837" lon="12.574200260393324"><ele>489.6666666666667</ele><time>2026-04-11T14:40:43Z</time></trkpt><trkpt lat="43.35068398546527" lon="12.574085403469876"><ele>489.33333333333337</ele><time>2026-04-11T14:40:45Z</time></trkpt><trkpt lat="43.35063814301596" lon="12.574014597980174"><ele>489.0</ele><time>2026-04-11T14:40:46Z</time></trkpt><trkpt lat="43.35058964991891" lon="12.57393755706467"><ele>488.66666666666663</ele><time>2026-04-11T14:40:47Z</time></trkpt><trkpt lat="43.35054460194547" lon="12.573854867925702"><ele>488.3333333333333</ele><time>2026-04-11T14:40:48Z</time></trkpt><trkpt lat="43.350498924909914" lon="12.57377849998381"><ele>488.0</ele><time>2026-04-11T14:40:49Z</time></trkpt><trkpt lat="43.350450051853706" lon="12.573702960493328"><ele>487.8571428571428</ele><time>2026-04-11T14:40:50Z</time></trkpt><trkpt lat="43.350401328792245" lon="12.573631203393834"><ele>487.71428571428567</ele><time>2026-04-11T14:40:51Z</time></trkpt><trkpt lat="43.35035210023487" lon="12.573560999280806"><ele>487.57142857142856</ele><time>2026-04-11T14:40:52Z</time></trkpt><trkpt lat="43.3503002953903" lon="12.573497133868536"><ele>487.4285714285714</ele><time>2026-04-11T14:40:53Z</time></trkpt><trkpt lat="43.35024503363711" lon="12.57343705095195"><ele>487.2857142857142</ele><time>2026-04-11T14:40:54Z</time></trkpt><trkpt lat="43.35018987007475" lon="12.57337953351943"><ele>487.14285714285717</ele><time>2026-04-11T14:40:55Z</time></trkpt><trkpt lat="43.35013587444841" lon="12.573326250614683"><ele>487.0</ele><time>2026-04-11T14:40:56Z</time></trkpt><trkpt lat="43.35008402716409" lon="12.573267362415764"><ele>487.0</ele><time>2026-04-11T14:40:57Z</time></trkpt><trkpt lat="43.35003341941998" lon="12.573207426040184"><ele>487.0</ele><time>2026-04-11T14:40:58Z</time></trkpt><trkpt lat="43.349980762518555" lon="12.573149566615387"><ele>487.0</ele><time>2026-04-11T14:40:59Z</time></trkpt><trkpt lat="43.34992830605486" lon="12.573092675265999"><ele>487.0</ele><time>2026-04-11T14:41:00Z</time></trkpt><trkpt lat="43.34987473555796" lon="12.573035288311626"><ele>487.0</ele><time>2026-04-11T14:41:01Z</time></trkpt><trkpt lat="43.34982250044097" lon="12.572978147889824"><ele>487.0</ele><time>2026-04-11T14:41:02Z</time></trkpt><trkpt lat="43.34976962618847" lon="12.572922729640798"><ele>487.0</ele><time>2026-04-11T14:41:03Z</time></trkpt><trkpt lat="43.349714368527806" lon="12.572871099771211"><ele>486.8571428571429</ele><time>2026-04-11T14:41:04Z</time></trkpt><trkpt lat="43.34965871999724" lon="12.572820491287262"><ele>486.71428571428567</ele><time>2026-04-11T14:41:05Z</time></trkpt><trkpt lat="43.34960539461713" lon="12.572763147287512"><ele>486.57142857142856</ele><time>2026-04-11T14:41:06Z</time></trkpt><trkpt lat="43.34955161197404" lon="12.572707521227224"><ele>486.42857142857144</ele><time>2026-04-11T14:41:07Z</time></trkpt><trkpt lat="43.349495910844475" lon="12.572654956997997"><ele>486.28571428571433</ele><time>2026-04-11T14:41:08Z</time></trkpt><trkpt lat="43.34943813973786" lon="12.572607967699778"><ele>486.1428571428571</ele><time>2026-04-11T14:41:09Z</time></trkpt><trkpt lat="43.34937976319029" lon="12.572561077154365"><ele>486.0</ele><time>2026-04-11T14:41:10Z</time></trkpt><trkpt lat="43.3493215983172" lon="12.57252197839039"><ele>486.0</ele><time>2026-04-11T14:41:11Z</time></trkpt><trkpt lat="43.34923224365777" lon="12.572471651714238"><ele>486.0</ele><time>2026-04-11T14:41:13Z</time></trkpt><trkpt lat="43.349149284766284" lon="12.572608183176344"><ele>486.0</ele><time>2026-04-11T14:41:15Z</time></trkpt><trkpt lat="43.349115271882404" lon="12.57275063865258"><ele>486.0</ele><time>2026-04-11T14:41:17Z</time></trkpt><trkpt lat="43.34905935880441" lon="12.572875236265174"><ele>486.0</ele><time>2026-04-11T14:41:19Z</time></trkpt><trkpt lat="43.34900706579567" lon="12.573023385509531"><ele>486.0</ele><time>2026-04-11T14:41:21Z</time></trkpt><trkpt lat="43.3489808979892" lon="12.57310302665294"><ele>486.0</ele><time>2026-04-11T14:41:22Z</time></trkpt><trkpt lat="43.348956665683865" lon="12.573188807368505"><ele>486.0</ele><time>2026-04-11T14:41:23Z</time></trkpt><trkpt lat="43.34893428682447" lon="12.573275111365156"><ele>486.0</ele><time>2026-04-11T14:41:24Z</time></trkpt><trkpt lat="43.34892986483902" lon="12.57336514301959"><ele>486.0</ele><time>2026-04-11T14:41:25Z</time></trkpt><trkpt lat="43.348879621218444" lon="12.573520155189353"><ele>486.0</ele><time>2026-04-11T14:41:27Z</time></trkpt><trkpt lat="43.34885650909398" lon="12.573603705378991"><ele>485.3333333333333</ele><time>2026-04-11T14:41:28Z</time></trkpt><trkpt lat="43.348829541369795" lon="12.57368837488316"><ele>484.66666666666663</ele><time>2026-04-11T14:41:29Z</time></trkpt><trkpt lat="43.34879790544784" lon="12.573780042258893"><ele>484.0</ele><time>2026-04-11T14:41:30Z</time></trkpt><trkpt lat="43.34875684933222" lon="12.573877696787605"><ele>483.3333333333333</ele><time>2026-04-11T14:41:31Z</time></trkpt><trkpt lat="43.34871902625008" lon="12.573976235282283"><ele>482.66666666666663</ele><time>2026-04-11T14:41:32Z</time></trkpt><trkpt lat="43.34867848452473" lon="12.574079263342448"><ele>482.0</ele><time>2026-04-11T14:41:33Z</time></trkpt><trkpt lat="43.34863243991539" lon="12.57418399855818"><ele>482.0</ele><time>2026-04-11T14:41:34Z</time></trkpt><trkpt lat="43.34858847713975" lon="12.574290044171072"><ele>482.00000000000006</ele><time>2026-04-11T14:41:35Z</time></trkpt><trkpt lat="43.34854004629264" lon="12.574396961052159"><ele>482.00000000000006</ele><time>2026-04-11T14:41:36Z</time></trkpt><trkpt lat="43.34849126936967" lon="12.57450294107769"><ele>482.0</ele><time>2026-04-11T14:41:37Z</time></trkpt><trkpt lat="43.348443878051114" lon="12.574607426872506"><ele>482.0</ele><time>2026-04-11T14:41:38Z</time></trkpt><trkpt lat="43.34839798152035" lon="12.574713128168625"><ele>482.3333333333333</ele><time>2026-04-11T14:41:39Z</time></trkpt><trkpt lat="43.34835267595868" lon="12.574818622738945"><ele>482.66666666666663</ele><time>2026-04-11T14:41:40Z</time></trkpt><trkpt lat="43.348302918192914" lon="12.574919203957137"><ele>483.0</ele><time>2026-04-11T14:41:41Z</time></trkpt><trkpt lat="43.34825790298543" lon="12.575023625921064"><ele>483.33333333333337</ele><time>2026-04-11T14:41:42Z</time></trkpt><trkpt lat="43.348213081264284" lon="12.575125436478345"><ele>483.6666666666667</ele><time>2026-04-11T14:41:43Z</time></trkpt><trkpt lat="43.34816705249537" lon="12.575227113799682"><ele>484.0</ele><time>2026-04-11T14:41:44.001Z</time></trkpt><trkpt lat="43.348119807448526" lon="12.575330331217222"><ele>484.4</ele><time>2026-04-11T14:41:45.001Z</time></trkpt><trkpt lat="43.34807686776894" lon="12.57544162272955"><ele>484.79999999999995</ele><time>2026-04-11T14:41:46.001Z</time></trkpt><trkpt lat="43.34803423210755" lon="12.575560585630486"><ele>485.20000000000005</ele><time>2026-04-11T14:41:47.001Z</time></trkpt><trkpt lat="43.34798465177756" lon="12.57568794562361"><ele>485.6</ele><time>2026-04-11T14:41:48.001Z</time></trkpt><trkpt lat="43.34793204762141" lon="12.5758214599293"><ele>486.0</ele><time>2026-04-11T14:41:49.001Z</time></trkpt><trkpt lat="43.3478825163551" lon="12.575951561071344"><ele>485.4</ele><time>2026-04-11T14:41:50.001Z</time></trkpt><trkpt lat="43.34782426906836" lon="12.576066719940819"><ele>484.8</ele><time>2026-04-11T14:41:51.001Z</time></trkpt><trkpt lat="43.34778142963796" lon="12.576189510127195"><ele>484.19999999999993</ele><time>2026-04-11T14:41:52.001Z</time></trkpt><trkpt lat="43.347740165094876" lon="12.576308378528717"><ele>483.59999999999997</ele><time>2026-04-11T14:41:53.001Z</time></trkpt><trkpt lat="43.347700827459185" lon="12.57642547000804"><ele>483.0</ele><time>2026-04-11T14:41:54.001Z</time></trkpt><trkpt lat="43.34766033469145" lon="12.57653594355756"><ele>483.0</ele><time>2026-04-11T14:41:55.001Z</time></trkpt><trkpt lat="43.34762052410386" lon="12.576648334145807"><ele>483.0</ele><time>2026-04-11T14:41:56.001Z</time></trkpt><trkpt lat="43.34758648843853" lon="12.576740651873891"><ele>483.0</ele><time>2026-04-11T14:41:57.001Z</time></trkpt><trkpt lat="43.347538761229" lon="12.576863832161944"><ele>483.0</ele><time>2026-04-11T14:41:59.001Z</time></trkpt><trkpt lat="43.34751251070396" lon="12.576954546689548"><ele>483.0</ele><time>2026-04-11T14:42:01.001Z</time></trkpt><trkpt lat="43.34746193453077" lon="12.577061385763136"><ele>483.0</ele><time>2026-04-11T14:42:04.001Z</time></trkpt><trkpt lat="43.347375815081826" lon="12.577085426353143"><ele>482.8571428571429</ele><time>2026-04-11T14:42:06.001Z</time></trkpt><trkpt lat="43.34730956352397" lon="12.577085734482013"><ele>482.7142857142857</ele><time>2026-04-11T14:42:07.001Z</time></trkpt><trkpt lat="43.34724283053585" lon="12.577090084242823"><ele>482.57142857142856</ele><time>2026-04-11T14:42:08.001Z</time></trkpt><trkpt lat="43.347174282285906" lon="12.577095761721456"><ele>482.42857142857144</ele><time>2026-04-11T14:42:09.001Z</time></trkpt><trkpt lat="43.347109214439485" lon="12.577100358260784"><ele>482.28571428571433</ele><time>2026-04-11T14:42:10.001Z</time></trkpt><trkpt lat="43.34704319261697" lon="12.577116102329496"><ele>482.14285714285717</ele><time>2026-04-11T14:42:10.999Z</time></trkpt><trkpt lat="43.34692986994581" lon="12.577104014181598"><ele>482.0</ele><time>2026-04-11T14:42:12.999Z</time></trkpt><trkpt lat="43.346817714898805" lon="12.577078297948729"><ele>481.8</ele><time>2026-04-11T14:42:14.999Z</time></trkpt><trkpt lat="43.34670068448456" lon="12.577050691062972"><ele>481.6</ele><time>2026-04-11T14:42:16.999Z</time></trkpt><trkpt lat="43.346581052403636" lon="12.577002275685608"><ele>481.40000000000003</ele><time>2026-04-11T14:42:18.999Z</time></trkpt><trkpt lat="43.34648096989561" lon="12.576961960080338"><ele>481.20000000000005</ele><time>2026-04-11T14:42:20.999Z</time></trkpt><trkpt lat="43.34640281257748" lon="12.576925736015395"><ele>481.0</ele><time>2026-04-11T14:42:22.999Z</time></trkpt><trkpt lat="43.34633798639119" lon="12.576859173948574"><ele>480.20000000000005</ele><time>2026-04-11T14:42:25Z</time></trkpt><trkpt lat="43.34625564054716" lon="12.576798175990234"><ele>479.40000000000003</ele><time>2026-04-11T14:42:27Z</time></trkpt><trkpt lat="43.3461421251444" lon="12.57680919830145"><ele>478.6</ele><time>2026-04-11T14:42:29Z</time></trkpt><trkpt lat="43.34603104758312" lon="12.576801704259891"><ele>477.8</ele><time>2026-04-11T14:42:31Z</time></trkpt><trkpt lat="43.345970330142464" lon="12.576776084028145"><ele>477.0</ele><time>2026-04-11T14:42:32Z</time></trkpt><trkpt lat="43.34589899815177" lon="12.576744655790764"><ele>477.0</ele><time>2026-04-11T14:42:33Z</time></trkpt><trkpt lat="43.3458167836062" lon="12.576715231898644"><ele>477.00000000000006</ele><time>2026-04-11T14:42:34Z</time></trkpt><trkpt lat="43.34572696492122" lon="12.57668084836031"><ele>477.00000000000006</ele><time>2026-04-11T14:42:35Z</time></trkpt><trkpt lat="43.345631276534654" lon="12.576641992203774"><ele>477.0</ele><time>2026-04-11T14:42:36Z</time></trkpt><trkpt lat="43.3455353260316" lon="12.576603576139657"><ele>477.0</ele><time>2026-04-11T14:42:37Z</time></trkpt><trkpt lat="43.345439228503025" lon="12.57656730317984"><ele>476.0</ele><time>2026-04-11T14:42:38Z</time></trkpt><trkpt lat="43.345346190218415" lon="12.576530844713146"><ele>475.00000000000006</ele><time>2026-04-11T14:42:39Z</time></trkpt><trkpt lat="43.34525105806447" lon="12.576496092638669"><ele>474.00000000000006</ele><time>2026-04-11T14:42:40Z</time></trkpt><trkpt lat="43.34515731758298" lon="12.576460731740035"><ele>473.0</ele><time>2026-04-11T14:42:41Z</time></trkpt><trkpt lat="43.345062228381785" lon="12.576423881803573"><ele>472.0</ele><time>2026-04-11T14:42:42Z</time></trkpt><trkpt lat="43.34497370352426" lon="12.5763900690438"><ele>472.00000000000006</ele><time>2026-04-11T14:42:43Z</time></trkpt><trkpt lat="43.34488818069404" lon="12.57635604211265"><ele>472.0</ele><time>2026-04-11T14:42:44Z</time></trkpt><trkpt lat="43.344812584225416" lon="12.576321293752263"><ele>472.0</ele><time>2026-04-11T14:42:45Z</time></trkpt><trkpt lat="43.344738118064214" lon="12.576292443991798"><ele>472.0</ele><time>2026-04-11T14:42:46Z</time></trkpt><trkpt lat="43.34466684448569" lon="12.57626545816403"><ele>472.00000000000006</ele><time>2026-04-11T14:42:47Z</time></trkpt><trkpt lat="43.3445962827306" lon="12.576240381230757"><ele>472.0</ele><time>2026-04-11T14:42:48Z</time></trkpt><trkpt lat="43.344528844077416" lon="12.57621624478684"><ele>471.6666666666667</ele><time>2026-04-11T14:42:49Z</time></trkpt><trkpt lat="43.34446345886949" lon="12.576193347778334"><ele>471.33333333333337</ele><time>2026-04-11T14:42:50Z</time></trkpt><trkpt lat="43.34439824431408" lon="12.576171702781632"><ele>471.0</ele><time>2026-04-11T14:42:51Z</time></trkpt><trkpt lat="43.34432154867525" lon="12.576148599355"><ele>470.66666666666663</ele><time>2026-04-11T14:42:52Z</time></trkpt><trkpt lat="43.34424908827461" lon="12.576122587474734"><ele>470.3333333333333</ele><time>2026-04-11T14:42:53Z</time></trkpt><trkpt lat="43.34418271608231" lon="12.576095078972259"><ele>470.0</ele><time>2026-04-11T14:42:54Z</time></trkpt><trkpt lat="43.344073127870615" lon="12.576050385384159"><ele>469.8333333333333</ele><time>2026-04-11T14:42:56Z</time></trkpt><trkpt lat="43.34398442040824" lon="12.576012714584131"><ele>469.66666666666663</ele><time>2026-04-11T14:42:58Z</time></trkpt><trkpt lat="43.34392322937124" lon="12.575985455843883"><ele>469.5</ele><time>2026-04-11T14:43:00Z</time></trkpt><trkpt lat="43.34386312216251" lon="12.57595635458122"><ele>469.33333333333337</ele><time>2026-04-11T14:43:02Z</time></trkpt><trkpt lat="43.34380127241288" lon="12.57592875126001"><ele>469.1666666666667</ele><time>2026-04-11T14:43:04Z</time></trkpt><trkpt lat="43.34371742171148" lon="12.57589361975232"><ele>469.0</ele><time>2026-04-11T14:43:07Z</time></trkpt><trkpt lat="43.34364334384681" lon="12.575864045156454"><ele>468.6</ele><time>2026-04-11T14:43:10Z</time></trkpt><trkpt lat="43.34356354762458" lon="12.575816110916032"><ele>468.2</ele><time>2026-04-11T14:43:13Z</time></trkpt><trkpt lat="43.34348540432794" lon="12.575785490391045"><ele>467.80000000000007</ele><time>2026-04-11T14:43:15Z</time></trkpt><trkpt lat="43.34339152375453" lon="12.575770053344842"><ele>467.40000000000003</ele><time>2026-04-11T14:43:17Z</time></trkpt><trkpt lat="43.34326332829431" lon="12.57572933131942"><ele>467.0</ele><time>2026-04-11T14:43:19Z</time></trkpt><trkpt lat="43.343178897668814" lon="12.575709766337512"><ele>467.0</ele><time>2026-04-11T14:43:20Z</time></trkpt><trkpt lat="43.343069924603604" lon="12.575648895301274"><ele>467.0</ele><time>2026-04-11T14:43:21Z</time></trkpt><trkpt lat="43.342944629323945" lon="12.575600441706381"><ele>467.0</ele><time>2026-04-11T14:43:22Z</time></trkpt><trkpt lat="43.34281022121134" lon="12.575547447372179"><ele>467.0</ele><time>2026-04-11T14:43:23Z</time></trkpt><trkpt lat="43.34265424618291" lon="12.575497049971963"><ele>467.3333333333333</ele><time>2026-04-11T14:43:24Z</time></trkpt><trkpt lat="43.342492968946964" lon="12.575424754346447"><ele>467.66666666666663</ele><time>2026-04-11T14:43:25Z</time></trkpt><trkpt lat="43.34233626621586" lon="12.575359693209972"><ele>468.0</ele><time>2026-04-11T14:43:26Z</time></trkpt><trkpt lat="43.342184753120534" lon="12.57529911202293"><ele>466.33333333333337</ele><time>2026-04-11T14:43:27Z</time></trkpt><trkpt lat="43.34203162657096" lon="12.575231729623178"><ele>464.6666666666667</ele><time>2026-04-11T14:43:28Z</time></trkpt><trkpt lat="43.34188215381343" lon="12.575166257888693"><ele>463.0</ele><time>2026-04-11T14:43:29Z</time></trkpt><trkpt lat="43.34173361807953" lon="12.575100581715526"><ele>463.0</ele><time>2026-04-11T14:43:30Z</time></trkpt><trkpt lat="43.341589771015514" lon="12.57503764617433"><ele>463.0</ele><time>2026-04-11T14:43:31Z</time></trkpt><trkpt lat="43.34144677667167" lon="12.57497972558782"><ele>463.0</ele><time>2026-04-11T14:43:32Z</time></trkpt><trkpt lat="43.34131114338359" lon="12.57492378023024"><ele>463.0</ele><time>2026-04-11T14:43:33Z</time></trkpt><trkpt lat="43.34117858650463" lon="12.57486766538788"><ele>462.75</ele><time>2026-04-11T14:43:34Z</time></trkpt><trkpt lat="43.34105106788284" lon="12.574812440463475"><ele>462.5</ele><time>2026-04-11T14:43:35Z</time></trkpt><trkpt lat="43.340917525242325" lon="12.574759483361117"><ele>462.25</ele><time>2026-04-11T14:43:36Z</time></trkpt><trkpt lat="43.3407778240318" lon="12.574700751759151"><ele>462.0</ele><time>2026-04-11T14:43:37Z</time></trkpt><trkpt lat="43.34063505916172" lon="12.574641203009362"><ele>461.33333333333337</ele><time>2026-04-11T14:43:38Z</time></trkpt><trkpt lat="43.340487623317784" lon="12.574581848692777"><ele>460.6666666666667</ele><time>2026-04-11T14:43:39Z</time></trkpt><trkpt lat="43.34033546130972" lon="12.574522799783482"><ele>460.0</ele><time>2026-04-11T14:43:40Z</time></trkpt><trkpt lat="43.34018248755024" lon="12.574463423621394"><ele>460.0</ele><time>2026-04-11T14:43:41Z</time></trkpt><trkpt lat="43.34003241819984" lon="12.574400316391051"><ele>460.0</ele><time>2026-04-11T14:43:42Z</time></trkpt><trkpt lat="43.33988266937671" lon="12.574336669842197"><ele>460.0</ele><time>2026-04-11T14:43:43.001Z</time></trkpt><trkpt lat="43.33973397803959" lon="12.574273862089813"><ele>459.0</ele><time>2026-04-11T14:43:44.001Z</time></trkpt><trkpt lat="43.3395792869229" lon="12.574220409148623"><ele>458.0</ele><time>2026-04-11T14:43:45.001Z</time></trkpt><trkpt lat="43.3394265421845" lon="12.574162393137136"><ele>457.0</ele><time>2026-04-11T14:43:46.001Z</time></trkpt><trkpt lat="43.33927408670548" lon="12.574098235332336"><ele>457.0</ele><time>2026-04-11T14:43:47.001Z</time></trkpt><trkpt lat="43.3391195651152" lon="12.574030881805182"><ele>457.0</ele><time>2026-04-11T14:43:48.001Z</time></trkpt><trkpt lat="43.33897090735537" lon="12.573965915053874"><ele>457.0</ele><time>2026-04-11T14:43:49.001Z</time></trkpt><trkpt lat="43.33882725934257" lon="12.573904418566713"><ele>456.5</ele><time>2026-04-11T14:43:50.001Z</time></trkpt><trkpt lat="43.33868665653844" lon="12.573849307372711"><ele>456.0</ele><time>2026-04-11T14:43:51.001Z</time></trkpt><trkpt lat="43.33854793030522" lon="12.573795664571017"><ele>455.5</ele><time>2026-04-11T14:43:52.001Z</time></trkpt><trkpt lat="43.33841145296266" lon="12.573743059303373"><ele>455.0</ele><time>2026-04-11T14:43:53.001Z</time></trkpt><trkpt lat="43.3382780794821" lon="12.57369107994182"><ele>455.0</ele><time>2026-04-11T14:43:54.001Z</time></trkpt><trkpt lat="43.33814540414997" lon="12.573640580215848"><ele>455.0</ele><time>2026-04-11T14:43:55.001Z</time></trkpt><trkpt lat="43.338016379268275" lon="12.573593068978717"><ele>455.0</ele><time>2026-04-11T14:43:56.001Z</time></trkpt><trkpt lat="43.33788912963772" lon="12.573546364405773"><ele>455.0</ele><time>2026-04-11T14:43:57.001Z</time></trkpt><trkpt lat="43.337770624439614" lon="12.573503404431209"><ele>455.0</ele><time>2026-04-11T14:43:58.001Z</time></trkpt><trkpt lat="43.337671843763516" lon="12.573465716992791"><ele>455.0</ele><time>2026-04-11T14:43:59.001Z</time></trkpt><trkpt lat="43.33758160758522" lon="12.573434240529311"><ele>455.0</ele><time>2026-04-11T14:44:00.001Z</time></trkpt><trkpt lat="43.337496647103904" lon="12.573406568272697"><ele>455.0</ele><time>2026-04-11T14:44:01.001Z</time></trkpt><trkpt lat="43.337411480300574" lon="12.573375558435782"><ele>455.0</ele><time>2026-04-11T14:44:02.001Z</time></trkpt><trkpt lat="43.33732867973423" lon="12.57334492535214"><ele>455.0</ele><time>2026-04-11T14:44:03.001Z</time></trkpt><trkpt lat="43.337252082398685" lon="12.573316948060162"><ele>455.0</ele><time>2026-04-11T14:44:04.001Z</time></trkpt><trkpt lat="43.337185792621824" lon="12.573294697300861"><ele>455.0</ele><time>2026-04-11T14:44:05.001Z</time></trkpt><trkpt lat="43.33706641312986" lon="12.573252693763965"><ele>455.0</ele><time>2026-04-11T14:44:07.001Z</time></trkpt><trkpt lat="43.33695000997988" lon="12.573206426643782"><ele>455.0</ele><time>2026-04-11T14:44:09.001Z</time></trkpt><trkpt lat="43.33682939311727" lon="12.573159344326381"><ele>454.42857142857144</ele><time>2026-04-11T14:44:11.001Z</time></trkpt><trkpt lat="43.33676425899976" lon="12.573137164783624"><ele>453.8571428571429</ele><time>2026-04-11T14:44:12.001Z</time></trkpt><trkpt lat="43.336690760486235" lon="12.573113162477744"><ele>453.2857142857143</ele><time>2026-04-11T14:44:13.001Z</time></trkpt><trkpt lat="43.33662181074525" lon="12.573089145379388"><ele>452.7142857142857</ele><time>2026-04-11T14:44:14.001Z</time></trkpt><trkpt lat="43.33655483262659" lon="12.573065245178519"><ele>452.14285714285717</ele><time>2026-04-11T14:44:15.001Z</time></trkpt><trkpt lat="43.33648802087577" lon="12.573038666912232"><ele>451.57142857142856</ele><time>2026-04-11T14:44:16.001Z</time></trkpt><trkpt lat="43.336426338618885" lon="12.573008805165337"><ele>451.0</ele><time>2026-04-11T14:44:16.999Z</time></trkpt><trkpt lat="43.33637305047556" lon="12.572960905895709"><ele>451.20000000000005</ele><time>2026-04-11T14:44:17.999Z</time></trkpt><trkpt lat="43.33632520112366" lon="12.572789060567672"><ele>451.40000000000003</ele><time>2026-04-11T14:44:19.999Z</time></trkpt><trkpt lat="43.33629539498091" lon="12.572699257949036"><ele>451.6</ele><time>2026-04-11T14:44:20.999Z</time></trkpt><trkpt lat="43.336339640996485" lon="12.572585682125794"><ele>451.8</ele><time>2026-04-11T14:44:21.999Z</time></trkpt><trkpt lat="43.336370131327115" lon="12.57248553222516"><ele>452.0</ele><time>2026-04-11T14:44:22.999Z</time></trkpt><trkpt lat="43.33641089482601" lon="12.572378172846786"><ele>452.0</ele><time>2026-04-11T14:44:23.999Z</time></trkpt><trkpt lat="43.33645224005471" lon="12.572258071418872"><ele>452.00000000000006</ele><time>2026-04-11T14:44:24.999Z</time></trkpt><trkpt lat="43.33649298356887" lon="12.572142075727463"><ele>452.00000000000006</ele><time>2026-04-11T14:44:25.999Z</time></trkpt><trkpt lat="43.33652892690092" lon="12.572024962223779"><ele>452.0</ele><time>2026-04-11T14:44:26.999Z</time></trkpt><trkpt lat="43.33656595271083" lon="12.571912942642063"><ele>452.0</ele><time>2026-04-11T14:44:27.999Z</time></trkpt><trkpt lat="43.33660333945301" lon="12.571801283805792"><ele>451.6</ele><time>2026-04-11T14:44:28.999Z</time></trkpt><trkpt lat="43.3366399541333" lon="12.57168501702768"><ele>451.20000000000005</ele><time>2026-04-11T14:44:30Z</time></trkpt><trkpt lat="43.33667907381168" lon="12.571556107089489"><ele>450.8</ele><time>2026-04-11T14:44:31Z</time></trkpt><trkpt lat="43.33672334969055" lon="12.571420971284539"><ele>450.4</ele><time>2026-04-11T14:44:32Z</time></trkpt><trkpt lat="43.33677017640511" lon="12.57128120372724"><ele>450.0</ele><time>2026-04-11T14:44:33Z</time></trkpt><trkpt lat="43.33681975990028" lon="12.571138923667581"><ele>450.0</ele><time>2026-04-11T14:44:34Z</time></trkpt><trkpt lat="43.33686625413252" lon="12.57099651167802"><ele>450.0</ele><time>2026-04-11T14:44:35Z</time></trkpt><trkpt lat="43.33690862004399" lon="12.57085449228259"><ele>450.0</ele><time>2026-04-11T14:44:36Z</time></trkpt><trkpt lat="43.33694139683348" lon="12.57071238189986"><ele>450.0</ele><time>2026-04-11T14:44:37Z</time></trkpt><trkpt lat="43.33696309594411" lon="12.570563115816215"><ele>450.0</ele><time>2026-04-11T14:44:38Z</time></trkpt><trkpt lat="43.33697202614625" lon="12.570413346686177"><ele>450.25</ele><time>2026-04-11T14:44:39Z</time></trkpt><trkpt lat="43.33696627914212" lon="12.570258387787984"><ele>450.5</ele><time>2026-04-11T14:44:40Z</time></trkpt><trkpt lat="43.336947835362324" lon="12.57009825089328"><ele>450.75</ele><time>2026-04-11T14:44:41Z</time></trkpt><trkpt lat="43.3369295410765" lon="12.569944351496567"><ele>451.0</ele><time>2026-04-11T14:44:42Z</time></trkpt><trkpt lat="43.336906443017384" lon="12.569791602314746"><ele>451.0</ele><time>2026-04-11T14:44:43Z</time></trkpt><trkpt lat="43.33688240610977" lon="12.569639944204038"><ele>451.0</ele><time>2026-04-11T14:44:44Z</time></trkpt><trkpt lat="43.336857808143954" lon="12.569478877727922"><ele>451.0</ele><time>2026-04-11T14:44:45Z</time></trkpt><trkpt lat="43.336832505327195" lon="12.569323712740964"><ele>451.0</ele><time>2026-04-11T14:44:46Z</time></trkpt><trkpt lat="43.336788358153655" lon="12.569167000663763"><ele>450.0</ele><time>2026-04-11T14:44:47Z</time></trkpt><trkpt lat="43.33672054384307" lon="12.569036041220578"><ele>449.0</ele><time>2026-04-11T14:44:48Z</time></trkpt><trkpt lat="43.336635135159135" lon="12.568918585751828"><ele>448.0</ele><time>2026-04-11T14:44:49Z</time></trkpt><trkpt lat="43.336528044458255" lon="12.568801928107062"><ele>447.0</ele><time>2026-04-11T14:44:50Z</time></trkpt><trkpt lat="43.33640424185049" lon="12.568687553630518"><ele>447.0</ele><time>2026-04-11T14:44:51Z</time></trkpt><trkpt lat="43.336281637853936" lon="12.568577399027568"><ele>447.0</ele><time>2026-04-11T14:44:52Z</time></trkpt><trkpt lat="43.33616970751188" lon="12.568464646001495"><ele>447.0</ele><time>2026-04-11T14:44:53Z</time></trkpt><trkpt lat="43.33605825757656" lon="12.568364853577691"><ele>447.0</ele><time>2026-04-11T14:44:54Z</time></trkpt><trkpt lat="43.335953357687224" lon="12.568257283877525"><ele>447.0</ele><time>2026-04-11T14:44:55Z</time></trkpt><trkpt lat="43.33585677130726" lon="12.568162882281875"><ele>447.0</ele><time>2026-04-11T14:44:56Z</time></trkpt><trkpt lat="43.335759421713846" lon="12.568069712546961"><ele>447.0</ele><time>2026-04-11T14:44:57Z</time></trkpt><trkpt lat="43.33566369722672" lon="12.567979615448346"><ele>447.0</ele><time>2026-04-11T14:44:58Z</time></trkpt><trkpt lat="43.335567806604956" lon="12.567884160420988"><ele>446.5</ele><time>2026-04-11T14:44:59Z</time></trkpt><trkpt lat="43.33546865077521" lon="12.567790011738717"><ele>446.0</ele><time>2026-04-11T14:45:00Z</time></trkpt><trkpt lat="43.33536983956567" lon="12.567699841908286"><ele>445.5</ele><time>2026-04-11T14:45:01Z</time></trkpt><trkpt lat="43.33527194133243" lon="12.567608684712472"><ele>445.0</ele><time>2026-04-11T14:45:02Z</time></trkpt><trkpt lat="43.33517613852908" lon="12.567514247047207"><ele>445.0</ele><time>2026-04-11T14:45:03Z</time></trkpt><trkpt lat="43.335078735249304" lon="12.56742363062945"><ele>445.0</ele><time>2026-04-11T14:45:04Z</time></trkpt><trkpt lat="43.33498246378865" lon="12.567332664157963"><ele>445.0</ele><time>2026-04-11T14:45:05Z</time></trkpt><trkpt lat="43.33488395165684" lon="12.567243091029821"><ele>445.0</ele><time>2026-04-11T14:45:06Z</time></trkpt><trkpt lat="43.33477959842538" lon="12.567144062356586"><ele>444.75</ele><time>2026-04-11T14:45:07Z</time></trkpt><trkpt lat="43.334672087380305" lon="12.5670488858515"><ele>444.5</ele><time>2026-04-11T14:45:08Z</time></trkpt><trkpt lat="43.33456613376785" lon="12.56695196185164"><ele>444.25</ele><time>2026-04-11T14:45:09Z</time></trkpt><trkpt lat="43.334456216957655" lon="12.566848933602463"><ele>444.0</ele><time>2026-04-11T14:45:10Z</time></trkpt><trkpt lat="43.33434416631532" lon="12.566751974999576"><ele>444.0</ele><time>2026-04-11T14:45:11Z</time></trkpt><trkpt lat="43.33424023955199" lon="12.56665353726962"><ele>444.0</ele><time>2026-04-11T14:45:12Z</time></trkpt><trkpt lat="43.33413673722322" lon="12.56655781384993"><ele>444.0</ele><time>2026-04-11T14:45:13Z</time></trkpt><trkpt lat="43.33403122489875" lon="12.566456094315788"><ele>444.0</ele><time>2026-04-11T14:45:14Z</time></trkpt><trkpt lat="43.33392470038704" lon="12.566355958510325"><ele>443.25</ele><time>2026-04-11T14:45:15Z</time></trkpt><trkpt lat="43.33381500358011" lon="12.566255572470668"><ele>442.5</ele><time>2026-04-11T14:45:16Z</time></trkpt><trkpt lat="43.3337051084254" lon="12.566148067325168"><ele>441.75</ele><time>2026-04-11T14:45:17Z</time></trkpt><trkpt lat="43.33360232651756" lon="12.56602821058584"><ele>441.0</ele><time>2026-04-11T14:45:18Z</time></trkpt><trkpt lat="43.3335095002036" lon="12.565897594910671"><ele>440.75</ele><time>2026-04-11T14:45:19Z</time></trkpt><trkpt lat="43.33341605387025" lon="12.565757405700337"><ele>440.5</ele><time>2026-04-11T14:45:20Z</time></trkpt><trkpt lat="43.333323849051865" lon="12.565611321924761"><ele>440.25</ele><time>2026-04-11T14:45:21Z</time></trkpt><trkpt lat="43.33322482034538" lon="12.565462369500592"><ele>440.0</ele><time>2026-04-11T14:45:22Z</time></trkpt><trkpt lat="43.333128480005115" lon="12.565310229150699"><ele>440.0</ele><time>2026-04-11T14:45:23Z</time></trkpt><trkpt lat="43.33303858404338" lon="12.565162698759154"><ele>440.0</ele><time>2026-04-11T14:45:24Z</time></trkpt><trkpt lat="43.33295399606835" lon="12.565014299052882"><ele>440.0</ele><time>2026-04-11T14:45:25Z</time></trkpt><trkpt lat="43.332866861819504" lon="12.56487322740444"><ele>440.0</ele><time>2026-04-11T14:45:26Z</time></trkpt><trkpt lat="43.33277880377337" lon="12.564735477513508"><ele>440.0</ele><time>2026-04-11T14:45:27Z</time></trkpt><trkpt lat="43.332697698219754" lon="12.564603352333084"><ele>440.0</ele><time>2026-04-11T14:45:28Z</time></trkpt><trkpt lat="43.33260203624998" lon="12.564479634403128"><ele>440.0</ele><time>2026-04-11T14:45:29Z</time></trkpt><trkpt lat="43.332495945370965" lon="12.564367997039529"><ele>440.0</ele><time>2026-04-11T14:45:30Z</time></trkpt><trkpt lat="43.33237988000047" lon="12.56426416768323"><ele>439.75</ele><time>2026-04-11T14:45:31Z</time></trkpt><trkpt lat="43.33226206645928" lon="12.564148692824249"><ele>439.5</ele><time>2026-04-11T14:45:32Z</time></trkpt><trkpt lat="43.33214979886516" lon="12.564052670689712"><ele>439.25</ele><time>2026-04-11T14:45:33Z</time></trkpt><trkpt lat="43.33203446998793" lon="12.563962678727256"><ele>439.0</ele><time>2026-04-11T14:45:34Z</time></trkpt><trkpt lat="43.33192087141275" lon="12.563882318213638"><ele>439.0</ele><time>2026-04-11T14:45:35Z</time></trkpt><trkpt lat="43.33179707553277" lon="12.563808983680365"><ele>439.0</ele><time>2026-04-11T14:45:36.001Z</time></trkpt><trkpt lat="43.3316657775451" lon="12.563744051557805"><ele>439.0</ele><time>2026-04-11T14:45:37.001Z</time></trkpt><trkpt lat="43.3315279220877" lon="12.56368363311958"><ele>439.0</ele><time>2026-04-11T14:45:38.001Z</time></trkpt><trkpt lat="43.33138459486009" lon="12.563625229288563"><ele>437.6666666666667</ele><time>2026-04-11T14:45:39.001Z</time></trkpt><trkpt lat="43.33122918305607" lon="12.563564392272745"><ele>436.33333333333337</ele><time>2026-04-11T14:45:40.001Z</time></trkpt><trkpt lat="43.33105136903861" lon="12.563508954549201"><ele>435.0</ele><time>2026-04-11T14:45:41.001Z</time></trkpt><trkpt lat="43.330858438189324" lon="12.563456909748627"><ele>435.0</ele><time>2026-04-11T14:45:42.001Z</time></trkpt><trkpt lat="43.33067200273877" lon="12.563417340451968"><ele>435.0</ele><time>2026-04-11T14:45:43.001Z</time></trkpt><trkpt lat="43.330497639176684" lon="12.563376130183434"><ele>435.0</ele><time>2026-04-11T14:45:44.001Z</time></trkpt><trkpt lat="43.330329450403354" lon="12.563319561663597"><ele>434.33333333333337</ele><time>2026-04-11T14:45:45.001Z</time></trkpt><trkpt lat="43.330146058266386" lon="12.563241631693108"><ele>433.6666666666667</ele><time>2026-04-11T14:45:46.001Z</time></trkpt><trkpt lat="43.329956999398526" lon="12.563163420366752"><ele>433.0</ele><time>2026-04-11T14:45:47.001Z</time></trkpt><trkpt lat="43.32978349698301" lon="12.563076312780417"><ele>433.0</ele><time>2026-04-11T14:45:48.001Z</time></trkpt><trkpt lat="43.329622233812664" lon="12.562993714921921"><ele>433.0</ele><time>2026-04-11T14:45:49.001Z</time></trkpt><trkpt lat="43.32946569960168" lon="12.562907557108684"><ele>433.0</ele><time>2026-04-11T14:45:50.001Z</time></trkpt><trkpt lat="43.32931463918557" lon="12.562820375199765"><ele>432.6666666666667</ele><time>2026-04-11T14:45:51.001Z</time></trkpt><trkpt lat="43.329160787489954" lon="12.562729461196948"><ele>432.33333333333337</ele><time>2026-04-11T14:45:52.001Z</time></trkpt><trkpt lat="43.32901551979337" lon="12.56264555699214"><ele>432.0</ele><time>2026-04-11T14:45:53.001Z</time></trkpt><trkpt lat="43.32887440219132" lon="12.56255634181824"><ele>431.66666666666663</ele><time>2026-04-11T14:45:54.001Z</time></trkpt><trkpt lat="43.328737076324394" lon="12.562465497110498"><ele>431.3333333333333</ele><time>2026-04-11T14:45:55.001Z</time></trkpt><trkpt lat="43.328602898904286" lon="12.562373807474328"><ele>431.0</ele><time>2026-04-11T14:45:56.001Z</time></trkpt><trkpt lat="43.32846653222453" lon="12.562285882070903"><ele>431.0</ele><time>2026-04-11T14:45:57.001Z</time></trkpt><trkpt lat="43.32833597530407" lon="12.56220756800895"><ele>431.0</ele><time>2026-04-11T14:45:58.001Z</time></trkpt><trkpt lat="43.3282041194797" lon="12.562121965586414"><ele>431.0</ele><time>2026-04-11T14:45:59.001Z</time></trkpt><trkpt lat="43.32807114953988" lon="12.562030901550697"><ele>431.0</ele><time>2026-04-11T14:46:00.001Z</time></trkpt><trkpt lat="43.32793140220797" lon="12.561933911666845"><ele>431.0</ele><time>2026-04-11T14:46:01.001Z</time></trkpt><trkpt lat="43.32779233904209" lon="12.561838178170046"><ele>431.0</ele><time>2026-04-11T14:46:02.001Z</time></trkpt><trkpt lat="43.32765406626383" lon="12.56174341634787"><ele>431.0</ele><time>2026-04-11T14:46:03.001Z</time></trkpt><trkpt lat="43.32750743361545" lon="12.561653398875096"><ele>431.0</ele><time>2026-04-11T14:46:04.001Z</time></trkpt><trkpt lat="43.327363384255385" lon="12.561573778998333"><ele>431.0</ele><time>2026-04-11T14:46:05.001Z</time></trkpt><trkpt lat="43.327220142236484" lon="12.561510388792197"><ele>431.0</ele><time>2026-04-11T14:46:06.001Z</time></trkpt><trkpt lat="43.32708201677913" lon="12.561444457129086"><ele>430.5</ele><time>2026-04-11T14:46:07.001Z</time></trkpt><trkpt lat="43.32694862984217" lon="12.561381258993686"><ele>430.0</ele><time>2026-04-11T14:46:08.001Z</time></trkpt><trkpt lat="43.3268219603064" lon="12.561321272786367"><ele>429.5</ele><time>2026-04-11T14:46:09.001Z</time></trkpt><trkpt lat="43.32669272066419" lon="12.56126400934649"><ele>429.0</ele><time>2026-04-11T14:46:10.001Z</time></trkpt><trkpt lat="43.3265622555357" lon="12.56120879740352"><ele>429.0</ele><time>2026-04-11T14:46:11.001Z</time></trkpt><trkpt lat="43.326433188860825" lon="12.56114702549477"><ele>429.0</ele><time>2026-04-11T14:46:12.001Z</time></trkpt><trkpt lat="43.32630870723198" lon="12.561075542674638"><ele>429.0</ele><time>2026-04-11T14:46:13.001Z</time></trkpt><trkpt lat="43.326196110700195" lon="12.560984089880542"><ele>429.0</ele><time>2026-04-11T14:46:14.001Z</time></trkpt><trkpt lat="43.326089673697275" lon="12.560876564687634"><ele>429.0</ele><time>2026-04-11T14:46:15.001Z</time></trkpt><trkpt lat="43.32597739262089" lon="12.56075033332564"><ele>429.0</ele><time>2026-04-11T14:46:16.001Z</time></trkpt><trkpt lat="43.32586719885037" lon="12.560618088386459"><ele>429.0</ele><time>2026-04-11T14:46:17.001Z</time></trkpt><trkpt lat="43.325760541883234" lon="12.560482626052602"><ele>429.0</ele><time>2026-04-11T14:46:18.001Z</time></trkpt><trkpt lat="43.32565373231157" lon="12.560350630550593"><ele>428.0</ele><time>2026-04-11T14:46:19.001Z</time></trkpt><trkpt lat="43.325544555926605" lon="12.56021700564354"><ele>427.0</ele><time>2026-04-11T14:46:20.001Z</time></trkpt><trkpt lat="43.325438044009495" lon="12.56008157156511"><ele>426.0</ele><time>2026-04-11T14:46:21.001Z</time></trkpt><trkpt lat="43.32533243978684" lon="12.559943222624785"><ele>425.0</ele><time>2026-04-11T14:46:22.001Z</time></trkpt><trkpt lat="43.32522492656182" lon="12.559803286768574"><ele>425.0</ele><time>2026-04-11T14:46:22.999Z</time></trkpt><trkpt lat="43.32512076874683" lon="12.559671206009348"><ele>425.0</ele><time>2026-04-11T14:46:23.999Z</time></trkpt><trkpt lat="43.32501694933318" lon="12.559541273487023"><ele>425.0</ele><time>2026-04-11T14:46:25Z</time></trkpt><trkpt lat="43.324907876297445" lon="12.559407223676994"><ele>425.0</ele><time>2026-04-11T14:46:26Z</time></trkpt><trkpt lat="43.32479991501353" lon="12.559277136194613"><ele>425.25</ele><time>2026-04-11T14:46:27Z</time></trkpt><trkpt lat="43.32469179190727" lon="12.559156341867984"><ele>425.5</ele><time>2026-04-11T14:46:28Z</time></trkpt><trkpt lat="43.32458076722383" lon="12.559042769443826"><ele>425.75</ele><time>2026-04-11T14:46:29Z</time></trkpt><trkpt lat="43.32447717143599" lon="12.55893294293209"><ele>426.0</ele><time>2026-04-11T14:46:30Z</time></trkpt><trkpt lat="43.32438661583367" lon="12.558811156114734"><ele>426.5</ele><time>2026-04-11T14:46:31Z</time></trkpt><trkpt lat="43.32429643522358" lon="12.558680189015254"><ele>427.0</ele><time>2026-04-11T14:46:32Z</time></trkpt><trkpt lat="43.324216285132515" lon="12.55854071734302"><ele>427.5</ele><time>2026-04-11T14:46:33Z</time></trkpt><trkpt lat="43.32413673149855" lon="12.558407355921418"><ele>428.0</ele><time>2026-04-11T14:46:34Z</time></trkpt><trkpt lat="43.324042424577364" lon="12.558262190470845"><ele>428.0</ele><time>2026-04-11T14:46:35Z</time></trkpt><trkpt lat="43.3239471475684" lon="12.558082050437713"><ele>428.0</ele><time>2026-04-11T14:46:36Z</time></trkpt><trkpt lat="43.323804914246985" lon="12.557939196188954"><ele>428.0</ele><time>2026-04-11T14:46:37Z</time></trkpt><trkpt lat="43.32365749439808" lon="12.55782460784282"><ele>427.0</ele><time>2026-04-11T14:46:38Z</time></trkpt><trkpt lat="43.323543067014846" lon="12.557684721010936"><ele>426.0</ele><time>2026-04-11T14:46:39Z</time></trkpt><trkpt lat="43.32343693687843" lon="12.557523479599187"><ele>425.0</ele><time>2026-04-11T14:46:40Z</time></trkpt><trkpt lat="43.32332373594781" lon="12.55738108124087"><ele>425.0</ele><time>2026-04-11T14:46:41Z</time></trkpt><trkpt lat="43.3231995486461" lon="12.557245458392938"><ele>425.0</ele><time>2026-04-11T14:46:42Z</time></trkpt><trkpt lat="43.323075710194274" lon="12.55712150676"><ele>425.0</ele><time>2026-04-11T14:46:43Z</time></trkpt><trkpt lat="43.322961850831405" lon="12.5570117381501"><ele>425.5</ele><time>2026-04-11T14:46:44Z</time></trkpt><trkpt lat="43.32284440225197" lon="12.556928625971851"><ele>426.0</ele><time>2026-04-11T14:46:45Z</time></trkpt><trkpt lat="43.322742337001955" lon="12.55683108976376"><ele>426.5</ele><time>2026-04-11T14:46:46Z</time></trkpt><trkpt lat="43.32264423931509" lon="12.556734189902091"><ele>427.0</ele><time>2026-04-11T14:46:47Z</time></trkpt><trkpt lat="43.32255052533465" lon="12.556632435551574"><ele>427.0</ele><time>2026-04-11T14:46:48Z</time></trkpt><trkpt lat="43.32247688698381" lon="12.556511351508199"><ele>427.0</ele><time>2026-04-11T14:46:49Z</time></trkpt><trkpt lat="43.32239511878886" lon="12.556407713176286"><ele>427.0</ele><time>2026-04-11T14:46:50Z</time></trkpt><trkpt lat="43.322308208178214" lon="12.556298416137716"><ele>427.0</ele><time>2026-04-11T14:46:51Z</time></trkpt><trkpt lat="43.32220791071768" lon="12.556201064012457"><ele>428.0</ele><time>2026-04-11T14:46:52Z</time></trkpt><trkpt lat="43.32211967656866" lon="12.556081139677815"><ele>429.0</ele><time>2026-04-11T14:46:53Z</time></trkpt><trkpt lat="43.322031786328196" lon="12.555959771468522"><ele>430.0</ele><time>2026-04-11T14:46:54Z</time></trkpt><trkpt lat="43.3219407243261" lon="12.555845736810689"><ele>431.0</ele><time>2026-04-11T14:46:55Z</time></trkpt><trkpt lat="43.321844131587" lon="12.55573000570823"><ele>431.0</ele><time>2026-04-11T14:46:56Z</time></trkpt><trkpt lat="43.32174789537176" lon="12.555609130739564"><ele>431.0</ele><time>2026-04-11T14:46:57Z</time></trkpt><trkpt lat="43.321647067011845" lon="12.555476291817977"><ele>431.0</ele><time>2026-04-11T14:46:58Z</time></trkpt><trkpt lat="43.32153746967398" lon="12.555339949486896"><ele>431.0</ele><time>2026-04-11T14:46:59Z</time></trkpt><trkpt lat="43.321433822871754" lon="12.55521029395397"><ele>430.75</ele><time>2026-04-11T14:47:00Z</time></trkpt><trkpt lat="43.32132235127033" lon="12.555078799554137"><ele>430.5</ele><time>2026-04-11T14:47:01Z</time></trkpt><trkpt lat="43.32121893070094" lon="12.554939069600886"><ele>430.25</ele><time>2026-04-11T14:47:02Z</time></trkpt><trkpt lat="43.32111921907453" lon="12.554815858542394"><ele>430.0</ele><time>2026-04-11T14:47:03Z</time></trkpt><trkpt lat="43.32102700103658" lon="12.554716532811083"><ele>430.00000000000006</ele><time>2026-04-11T14:47:04Z</time></trkpt><trkpt lat="43.32094608556956" lon="12.554619551750177"><ele>430.0</ele><time>2026-04-11T14:47:05Z</time></trkpt><trkpt lat="43.320885021753554" lon="12.554536986606777"><ele>430.0</ele><time>2026-04-11T14:47:06Z</time></trkpt><trkpt lat="43.32083724539483" lon="12.554467840773553"><ele>430.0</ele><time>2026-04-11T14:47:07Z</time></trkpt><trkpt lat="43.32076718424946" lon="12.55436649217478"><ele>430.00000000000006</ele><time>2026-04-11T14:47:09Z</time></trkpt><trkpt lat="43.32071780940003" lon="12.554284390001419"><ele>430.0</ele><time>2026-04-11T14:47:11Z</time></trkpt><trkpt lat="43.320668115784585" lon="12.554220154160978"><ele>430.2857142857143</ele><time>2026-04-11T14:47:15Z</time></trkpt><trkpt lat="43.32062358505849" lon="12.554126491148155"><ele>430.5714285714286</ele><time>2026-04-11T14:47:18Z</time></trkpt><trkpt lat="43.320681197740385" lon="12.554035466576092"><ele>430.8571428571429</ele><time>2026-04-11T14:47:19Z</time></trkpt><trkpt lat="43.32073911298379" lon="12.553983897551849"><ele>431.1428571428571</ele><time>2026-04-11T14:47:20Z</time></trkpt><trkpt lat="43.32079368790385" lon="12.553926618392836"><ele>431.42857142857144</ele><time>2026-04-11T14:47:21Z</time></trkpt><trkpt lat="43.32083887655433" lon="12.553860215014545"><ele>431.7142857142857</ele><time>2026-04-11T14:47:22Z</time></trkpt><trkpt lat="43.320887513108595" lon="12.553794178141718"><ele>432.0</ele><time>2026-04-11T14:47:23Z</time></trkpt><trkpt lat="43.32095384622169" lon="12.553708705456579"><ele>432.3333333333333</ele><time>2026-04-11T14:47:24Z</time></trkpt><trkpt lat="43.32099919432192" lon="12.553642171498353"><ele>432.66666666666663</ele><time>2026-04-11T14:47:25Z</time></trkpt><trkpt lat="43.32106307151682" lon="12.553552515116891"><ele>433.0</ele><time>2026-04-11T14:47:27Z</time></trkpt><trkpt lat="43.32110939252936" lon="12.553483208439312"><ele>433.3333333333333</ele><time>2026-04-11T14:47:29.001Z</time></trkpt><trkpt lat="43.32115489896221" lon="12.553403684744241"><ele>433.66666666666663</ele><time>2026-04-11T14:47:31.001Z</time></trkpt><trkpt lat="43.32112434935403" lon="12.553256830065944"><ele>434.0</ele><time>2026-04-11T14:47:34.001Z</time></trkpt><trkpt lat="43.32102551279891" lon="12.553181062813893"><ele>434.0</ele><time>2026-04-11T14:47:36.001Z</time></trkpt><trkpt lat="43.32094800141958" lon="12.553052684474158"><ele>434.0</ele><time>2026-04-11T14:47:38.001Z</time></trkpt><trkpt lat="43.32088998661662" lon="12.552985220278595"><ele>434.0</ele><time>2026-04-11T14:47:39.001Z</time></trkpt><trkpt lat="43.32084034768938" lon="12.552888169402092"><ele>434.0</ele><time>2026-04-11T14:47:40.001Z</time></trkpt><trkpt lat="43.32079408869042" lon="12.552790583498467"><ele>434.0</ele><time>2026-04-11T14:47:41.001Z</time></trkpt><trkpt lat="43.320742920220276" lon="12.552695660657974"><ele>434.0</ele><time>2026-04-11T14:47:42.001Z</time></trkpt><trkpt lat="43.32069463831992" lon="12.552603340974233"><ele>434.0</ele><time>2026-04-11T14:47:43.001Z</time></trkpt><trkpt lat="43.320648354253144" lon="12.552500912286375"><ele>434.0</ele><time>2026-04-11T14:47:44.001Z</time></trkpt><trkpt lat="43.32060177042641" lon="12.552387677188465"><ele>434.0</ele><time>2026-04-11T14:47:45.001Z</time></trkpt><trkpt lat="43.3205569433106" lon="12.552265125020426"><ele>434.0</ele><time>2026-04-11T14:47:46.001Z</time></trkpt><trkpt lat="43.320514315415515" lon="12.552134742461718"><ele>435.4</ele><time>2026-04-11T14:47:47.001Z</time></trkpt><trkpt lat="43.32047355507792" lon="12.551996501827826"><ele>436.79999999999995</ele><time>2026-04-11T14:47:48.001Z</time></trkpt><trkpt lat="43.32042966421047" lon="12.551860113921016"><ele>438.20000000000005</ele><time>2026-04-11T14:47:49.001Z</time></trkpt><trkpt lat="43.32038560221331" lon="12.551724073882061"><ele>439.6</ele><time>2026-04-11T14:47:50.001Z</time></trkpt><trkpt lat="43.32034482702949" lon="12.551591500214549"><ele>441.0</ele><time>2026-04-11T14:47:51.001Z</time></trkpt><trkpt lat="43.320296729275235" lon="12.551468983097186"><ele>441.0</ele><time>2026-04-11T14:47:52.001Z</time></trkpt><trkpt lat="43.32025483135599" lon="12.551352605252552"><ele>441.0</ele><time>2026-04-11T14:47:53.001Z</time></trkpt><trkpt lat="43.320208778026085" lon="12.551237319588042"><ele>441.0</ele><time>2026-04-11T14:47:54.001Z</time></trkpt><trkpt lat="43.320164520997174" lon="12.55112551875178"><ele>441.0</ele><time>2026-04-11T14:47:55.001Z</time></trkpt><trkpt lat="43.32011853607983" lon="12.55101980124322"><ele>441.0</ele><time>2026-04-11T14:47:56.001Z</time></trkpt><trkpt lat="43.32005388691723" lon="12.550922837783899"><ele>440.6</ele><time>2026-04-11T14:47:57.001Z</time></trkpt><trkpt lat="43.31998350656521" lon="12.550817899933644"><ele>440.20000000000005</ele><time>2026-04-11T14:47:58.001Z</time></trkpt><trkpt lat="43.319922210863574" lon="12.550731497829416"><ele>439.79999999999995</ele><time>2026-04-11T14:47:59.001Z</time></trkpt><trkpt lat="43.319863232641204" lon="12.550640371208077"><ele>439.4</ele><time>2026-04-11T14:48:00.001Z</time></trkpt><trkpt lat="43.31979004747568" lon="12.550552542829108"><ele>439.0</ele><time>2026-04-11T14:48:01.001Z</time></trkpt><trkpt lat="43.319732264097894" lon="12.550430083509923"><ele>440.6</ele><time>2026-04-11T14:48:02.001Z</time></trkpt><trkpt lat="43.3196703337898" lon="12.550318453181681"><ele>442.2</ele><time>2026-04-11T14:48:03.001Z</time></trkpt><trkpt lat="43.31961455093904" lon="12.5502009766571"><ele>443.80000000000007</ele><time>2026-04-11T14:48:04.001Z</time></trkpt><trkpt lat="43.31956189731044" lon="12.550073318900925"><ele>445.40000000000003</ele><time>2026-04-11T14:48:05.001Z</time></trkpt><trkpt lat="43.319517868082706" lon="12.54996028057585"><ele>447.0</ele><time>2026-04-11T14:48:06.001Z</time></trkpt><trkpt lat="43.3194873800409" lon="12.549857611835263"><ele>447.0</ele><time>2026-04-11T14:48:07.001Z</time></trkpt><trkpt lat="43.319472832730064" lon="12.54974708840436"><ele>447.00000000000006</ele><time>2026-04-11T14:48:08.001Z</time></trkpt><trkpt lat="43.31947202693146" lon="12.549615324141364"><ele>447.00000000000006</ele><time>2026-04-11T14:48:09.001Z</time></trkpt><trkpt lat="43.31947344731064" lon="12.54947884981086"><ele>447.0</ele><time>2026-04-11T14:48:10.001Z</time></trkpt><trkpt lat="43.319484407003294" lon="12.549341394180841"><ele>447.0</ele><time>2026-04-11T14:48:11.001Z</time></trkpt><trkpt lat="43.319497047737265" lon="12.549197107247839"><ele>447.75</ele><time>2026-04-11T14:48:12.001Z</time></trkpt><trkpt lat="43.31951692222794" lon="12.549047613002665"><ele>448.5</ele><time>2026-04-11T14:48:13.001Z</time></trkpt><trkpt lat="43.31954186538628" lon="12.54889751986149"><ele>449.25</ele><time>2026-04-11T14:48:14.001Z</time></trkpt><trkpt lat="43.319575501804565" lon="12.548738800532611"><ele>450.0</ele><time>2026-04-11T14:48:15.001Z</time></trkpt><trkpt lat="43.31961024704067" lon="12.5485854510542"><ele>450.0</ele><time>2026-04-11T14:48:16.001Z</time></trkpt><trkpt lat="43.31964585167143" lon="12.548447430891864"><ele>450.0</ele><time>2026-04-11T14:48:17.001Z</time></trkpt><trkpt lat="43.31968056413579" lon="12.548310733412558"><ele>450.0</ele><time>2026-04-11T14:48:18.001Z</time></trkpt><trkpt lat="43.319700021549586" lon="12.54817804077117"><ele>450.0</ele><time>2026-04-11T14:48:19.001Z</time></trkpt><trkpt lat="43.31971666566297" lon="12.548048068068507"><ele>450.0</ele><time>2026-04-11T14:48:20.001Z</time></trkpt><trkpt lat="43.319748396875234" lon="12.547914947996105"><ele>452.8</ele><time>2026-04-11T14:48:21.001Z</time></trkpt><trkpt lat="43.31979128518139" lon="12.54778195112252"><ele>455.6</ele><time>2026-04-11T14:48:22.001Z</time></trkpt><trkpt lat="43.31981767447386" lon="12.547652917211723"><ele>458.4</ele><time>2026-04-11T14:48:23.001Z</time></trkpt><trkpt lat="43.31982174360085" lon="12.547534814092321"><ele>461.2</ele><time>2026-04-11T14:48:24.001Z</time></trkpt><trkpt lat="43.319803347584575" lon="12.54741877198684"><ele>464.0</ele><time>2026-04-11T14:48:25.001Z</time></trkpt><trkpt lat="43.319776181322716" lon="12.547280613735415"><ele>461.6</ele><time>2026-04-11T14:48:26.001Z</time></trkpt><trkpt lat="43.319733035261436" lon="12.547129891120013"><ele>459.2</ele><time>2026-04-11T14:48:27.001Z</time></trkpt><trkpt lat="43.31968748776913" lon="12.546991636933887"><ele>456.80000000000007</ele><time>2026-04-11T14:48:28.001Z</time></trkpt><trkpt lat="43.31964404378334" lon="12.546852718196053"><ele>454.40000000000003</ele><time>2026-04-11T14:48:28.999Z</time></trkpt><trkpt lat="43.31959984410425" lon="12.546715407015972"><ele>452.0</ele><time>2026-04-11T14:48:29.999Z</time></trkpt><trkpt lat="43.31955340426287" lon="12.54658557135575"><ele>452.0</ele><time>2026-04-11T14:48:31Z</time></trkpt><trkpt lat="43.3194992819332" lon="12.546454661443198"><ele>452.00000000000006</ele><time>2026-04-11T14:48:31.999Z</time></trkpt><trkpt lat="43.319447466387544" lon="12.546331069097306"><ele>452.00000000000006</ele><time>2026-04-11T14:48:32.999Z</time></trkpt><trkpt lat="43.319397051025334" lon="12.546206862569226"><ele>452.0</ele><time>2026-04-11T14:48:34Z</time></trkpt><trkpt lat="43.319351030876476" lon="12.546079571756563"><ele>452.0</ele><time>2026-04-11T14:48:35Z</time></trkpt><trkpt lat="43.31930976516123" lon="12.54595034595251"><ele>452.16666666666663</ele><time>2026-04-11T14:48:36Z</time></trkpt><trkpt lat="43.31927462585992" lon="12.545830177284415"><ele>452.3333333333333</ele><time>2026-04-11T14:48:37Z</time></trkpt><trkpt lat="43.319242520745576" lon="12.545719178277336"><ele>452.5</ele><time>2026-04-11T14:48:38Z</time></trkpt><trkpt lat="43.319206610751934" lon="12.54561798760892"><ele>452.66666666666663</ele><time>2026-04-11T14:48:39Z</time></trkpt><trkpt lat="43.31916665093893" lon="12.545527752866748"><ele>452.8333333333333</ele><time>2026-04-11T14:48:40Z</time></trkpt><trkpt lat="43.3191139061363" lon="12.545440458265825"><ele>453.0</ele><time>2026-04-11T14:48:41Z</time></trkpt><trkpt lat="43.3190610110767" lon="12.545345136634836"><ele>452.59999999999997</ele><time>2026-04-11T14:48:42Z</time></trkpt><trkpt lat="43.319013428110104" lon="12.545243918655235"><ele>452.19999999999993</ele><time>2026-04-11T14:48:43Z</time></trkpt><trkpt lat="43.31896322795583" lon="12.545146090967389"><ele>451.8</ele><time>2026-04-11T14:48:44Z</time></trkpt><trkpt lat="43.31890659157071" lon="12.545040565062282"><ele>451.4</ele><time>2026-04-11T14:48:45Z</time></trkpt><trkpt lat="43.31886018136247" lon="12.54491290371799"><ele>451.0</ele><time>2026-04-11T14:48:46Z</time></trkpt><trkpt lat="43.31882609648637" lon="12.544807003219994"><ele>450.6</ele><time>2026-04-11T14:48:47Z</time></trkpt><trkpt lat="43.31879543757973" lon="12.544686994352707"><ele>450.20000000000005</ele><time>2026-04-11T14:48:48Z</time></trkpt><trkpt lat="43.31876008605549" lon="12.544548687900894"><ele>449.79999999999995</ele><time>2026-04-11T14:48:49Z</time></trkpt><trkpt lat="43.31871138569953" lon="12.544397867054176"><ele>449.4</ele><time>2026-04-11T14:48:50Z</time></trkpt><trkpt lat="43.31868432814822" lon="12.544262783290893"><ele>449.0</ele><time>2026-04-11T14:48:51Z</time></trkpt><trkpt lat="43.31865082227612" lon="12.544137444757336"><ele>448.99999999999994</ele><time>2026-04-11T14:48:52Z</time></trkpt><trkpt lat="43.31862454993995" lon="12.544010328437237"><ele>449.0</ele><time>2026-04-11T14:48:53Z</time></trkpt><trkpt lat="43.3185980778948" lon="12.543880149958374"><ele>449.0</ele><time>2026-04-11T14:48:54Z</time></trkpt><trkpt lat="43.31857073178676" lon="12.543766594631641"><ele>449.0</ele><time>2026-04-11T14:48:55Z</time></trkpt><trkpt lat="43.31853575655344" lon="12.543664639633448"><ele>448.99999999999994</ele><time>2026-04-11T14:48:56Z</time></trkpt><trkpt lat="43.318490052708285" lon="12.543568142063728"><ele>449.0</ele><time>2026-04-11T14:48:57Z</time></trkpt><trkpt lat="43.31844052797273" lon="12.543478539704815"><ele>450.16666666666663</ele><time>2026-04-11T14:48:58Z</time></trkpt><trkpt lat="43.31839104826881" lon="12.543402086597196"><ele>451.3333333333333</ele><time>2026-04-11T14:48:59Z</time></trkpt><trkpt lat="43.31835027342319" lon="12.54330884240084"><ele>452.5</ele><time>2026-04-11T14:49:00Z</time></trkpt><trkpt lat="43.31831119348659" lon="12.543209152158122"><ele>453.66666666666663</ele><time>2026-04-11T14:49:01Z</time></trkpt><trkpt lat="43.31827679072155" lon="12.543095281016333"><ele>454.8333333333333</ele><time>2026-04-11T14:49:02Z</time></trkpt><trkpt lat="43.31823288319187" lon="12.542986647371386"><ele>456.0</ele><time>2026-04-11T14:49:03Z</time></trkpt><trkpt lat="43.318202018432835" lon="12.542854651941248"><ele>457.5</ele><time>2026-04-11T14:49:04Z</time></trkpt><trkpt lat="43.31816269746989" lon="12.542710367598264"><ele>459.0</ele><time>2026-04-11T14:49:05Z</time></trkpt><trkpt lat="43.31811688655993" lon="12.542546685112265"><ele>460.5</ele><time>2026-04-11T14:49:06Z</time></trkpt><trkpt lat="43.31806174887364" lon="12.542367179687172"><ele>462.0</ele><time>2026-04-11T14:49:07Z</time></trkpt><trkpt lat="43.3180087160184" lon="12.542195627547304"><ele>460.6</ele><time>2026-04-11T14:49:08Z</time></trkpt><trkpt lat="43.317962255156985" lon="12.542042045357004"><ele>459.20000000000005</ele><time>2026-04-11T14:49:09Z</time></trkpt><trkpt lat="43.31792039266592" lon="12.541903512834867"><ele>457.8</ele><time>2026-04-11T14:49:10Z</time></trkpt><trkpt lat="43.31788461117893" lon="12.541765047140725"><ele>456.4</ele><time>2026-04-11T14:49:11Z</time></trkpt><trkpt lat="43.31783289550951" lon="12.541641619179035"><ele>455.0</ele><time>2026-04-11T14:49:12Z</time></trkpt><trkpt lat="43.31778385065186" lon="12.541507839305552"><ele>454.99999999999994</ele><time>2026-04-11T14:49:13Z</time></trkpt><trkpt lat="43.31774375370018" lon="12.541383301113216"><ele>455.0</ele><time>2026-04-11T14:49:14Z</time></trkpt><trkpt lat="43.31770328675365" lon="12.541269468226579"><ele>455.0</ele><time>2026-04-11T14:49:15Z</time></trkpt><trkpt lat="43.31766336371223" lon="12.541155101343614"><ele>455.0</ele><time>2026-04-11T14:49:16Z</time></trkpt><trkpt lat="43.317635336399604" lon="12.541048731327457"><ele>454.99999999999994</ele><time>2026-04-11T14:49:17Z</time></trkpt><trkpt lat="43.317641024413625" lon="12.540938775042383"><ele>455.0</ele><time>2026-04-11T14:49:18Z</time></trkpt><trkpt lat="43.31754384381109" lon="12.540862902800976"><ele>455.2857142857143</ele><time>2026-04-11T14:49:19Z</time></trkpt><trkpt lat="43.31749190836086" lon="12.54079235086411"><ele>455.57142857142856</ele><time>2026-04-11T14:49:20Z</time></trkpt><trkpt lat="43.31743963592441" lon="12.540723041154077"><ele>455.8571428571429</ele><time>2026-04-11T14:49:21Z</time></trkpt><trkpt lat="43.31738721634086" lon="12.540656779627147"><ele>456.14285714285717</ele><time>2026-04-11T14:49:22Z</time></trkpt><trkpt lat="43.31733417252631" lon="12.540586641139438"><ele>456.42857142857144</ele><time>2026-04-11T14:49:23Z</time></trkpt><trkpt lat="43.31728769856499" lon="12.540514201336306"><ele>456.7142857142858</ele><time>2026-04-11T14:49:24Z</time></trkpt><trkpt lat="43.317246746450806" lon="12.540447259767788"><ele>457.00000000000006</ele><time>2026-04-11T14:49:25Z</time></trkpt><trkpt lat="43.31718286425909" lon="12.540311174265272"><ele>457.00000000000006</ele><time>2026-04-11T14:49:27Z</time></trkpt><trkpt lat="43.317133938552566" lon="12.540191902915149"><ele>457.0</ele><time>2026-04-11T14:49:29Z</time></trkpt><trkpt lat="43.317096833590696" lon="12.540107512306571"><ele>457.0</ele><time>2026-04-11T14:49:31Z</time></trkpt><trkpt lat="43.31704760524521" lon="12.540010434058656"><ele>457.0</ele><time>2026-04-11T14:49:34.001Z</time></trkpt><trkpt lat="43.31701215909499" lon="12.539936113053358"><ele>457.00000000000006</ele><time>2026-04-11T14:49:44.001Z</time></trkpt><trkpt lat="43.31697628499011" lon="12.539846123005534"><ele>457.0</ele><time>2026-04-11T14:49:46.001Z</time></trkpt><trkpt lat="43.31692882854153" lon="12.539735680752734"><ele>457.0</ele><time>2026-04-11T14:49:48.001Z</time></trkpt><trkpt lat="43.316880416907296" lon="12.539613080789394"><ele>457.00000000000006</ele><time>2026-04-11T14:49:50.001Z</time></trkpt><trkpt lat="43.31683089536244" lon="12.539500840828634"><ele>457.00000000000006</ele><time>2026-04-11T14:49:52.001Z</time></trkpt><trkpt lat="43.3167981911929" lon="12.539379426717394"><ele>457.0</ele><time>2026-04-11T14:49:54.001Z</time></trkpt><trkpt lat="43.31679056458046" lon="12.539244154055252"><ele>457.0</ele><time>2026-04-11T14:49:56.001Z</time></trkpt><trkpt lat="43.31683253877617" lon="12.539105740911674"><ele>457.83333333333337</ele><time>2026-04-11T14:49:58.001Z</time></trkpt><trkpt lat="43.31686057009749" lon="12.539015129726494"><ele>458.6666666666667</ele><time>2026-04-11T14:49:59.001Z</time></trkpt><trkpt lat="43.31688555007666" lon="12.538934588768836"><ele>459.5</ele><time>2026-04-11T14:50:00.001Z</time></trkpt><trkpt lat="43.31691570085566" lon="12.538769986985137"><ele>460.33333333333337</ele><time>2026-04-11T14:50:02.001Z</time></trkpt><trkpt lat="43.31691704002911" lon="12.53868056798965"><ele>461.1666666666667</ele><time>2026-04-11T14:50:03.001Z</time></trkpt><trkpt lat="43.316902960514454" lon="12.538586012586455"><ele>462.0</ele><time>2026-04-11T14:50:04.001Z</time></trkpt><trkpt lat="43.31687274255485" lon="12.538488003434084"><ele>462.5</ele><time>2026-04-11T14:50:05.001Z</time></trkpt><trkpt lat="43.316824669640376" lon="12.538404205302022"><ele>463.0</ele><time>2026-04-11T14:50:06.001Z</time></trkpt><trkpt lat="43.316765939567546" lon="12.538325478987494"><ele>463.5</ele><time>2026-04-11T14:50:07.001Z</time></trkpt><trkpt lat="43.31670489175994" lon="12.538258987778287"><ele>464.0</ele><time>2026-04-11T14:50:08.001Z</time></trkpt><trkpt lat="43.316643556243655" lon="12.538193522072094"><ele>464.5</ele><time>2026-04-11T14:50:09.001Z</time></trkpt><trkpt lat="43.31657127711067" lon="12.538134147977004"><ele>465.0</ele><time>2026-04-11T14:50:10.001Z</time></trkpt><trkpt lat="43.31650258291526" lon="12.53807157435069"><ele>465.0</ele><time>2026-04-11T14:50:11.001Z</time></trkpt><trkpt lat="43.3164426247265" lon="12.538001135827363"><ele>465.0</ele><time>2026-04-11T14:50:12.001Z</time></trkpt><trkpt lat="43.31638542918574" lon="12.537925017662248"><ele>465.0</ele><time>2026-04-11T14:50:13.001Z</time></trkpt><trkpt lat="43.316322413895875" lon="12.537858098025655"><ele>465.0</ele><time>2026-04-11T14:50:14.001Z</time></trkpt><trkpt lat="43.31625900535871" lon="12.537788348640115"><ele>465.0</ele><time>2026-04-11T14:50:15.001Z</time></trkpt><trkpt lat="43.31619863476926" lon="12.537724947044357"><ele>465.0</ele><time>2026-04-11T14:50:16.001Z</time></trkpt><trkpt lat="43.31614082244452" lon="12.537668039156484"><ele>466.6666666666667</ele><time>2026-04-11T14:50:17.001Z</time></trkpt><trkpt lat="43.3160782010359" lon="12.53759276910771"><ele>468.33333333333337</ele><time>2026-04-11T14:50:18.001Z</time></trkpt><trkpt lat="43.31602372283182" lon="12.537509556595271"><ele>470.0</ele><time>2026-04-11T14:50:19.001Z</time></trkpt><trkpt lat="43.3159479543354" lon="12.537423655829278"><ele>471.6666666666667</ele><time>2026-04-11T14:50:20.001Z</time></trkpt><trkpt lat="43.31588135818967" lon="12.5373496730012"><ele>473.33333333333337</ele><time>2026-04-11T14:50:21.001Z</time></trkpt><trkpt lat="43.31582198455054" lon="12.53727908778912"><ele>475.0</ele><time>2026-04-11T14:50:22.001Z</time></trkpt><trkpt lat="43.31576538180559" lon="12.537210390021139"><ele>475.00000000000006</ele><time>2026-04-11T14:50:23.001Z</time></trkpt><trkpt lat="43.31570446950573" lon="12.537142216991782"><ele>475.0</ele><time>2026-04-11T14:50:24.001Z</time></trkpt><trkpt lat="43.31564974086783" lon="12.537059063758445"><ele>475.0</ele><time>2026-04-11T14:50:25.001Z</time></trkpt><trkpt lat="43.31560366257913" lon="12.536974996913171"><ele>475.0</ele><time>2026-04-11T14:50:26.001Z</time></trkpt><trkpt lat="43.315550254797536" lon="12.536878263634451"><ele>475.00000000000006</ele><time>2026-04-11T14:50:27.001Z</time></trkpt><trkpt lat="43.31548635182329" lon="12.536770527981204"><ele>475.0</ele><time>2026-04-11T14:50:28.001Z</time></trkpt><trkpt lat="43.315424544683395" lon="12.536670296661427"><ele>475.4</ele><time>2026-04-11T14:50:29.001Z</time></trkpt><trkpt lat="43.315364697794934" lon="12.536567786929748"><ele>475.8</ele><time>2026-04-11T14:50:30.001Z</time></trkpt><trkpt lat="43.31530340805429" lon="12.536468860459884"><ele>476.20000000000005</ele><time>2026-04-11T14:50:31.001Z</time></trkpt><trkpt lat="43.31524582241861" lon="12.536367588048549"><ele>476.6</ele><time>2026-04-11T14:50:32.001Z</time></trkpt><trkpt lat="43.31519829380348" lon="12.536251142766998"><ele>477.0</ele><time>2026-04-11T14:50:33.001Z</time></trkpt><trkpt lat="43.31515489363173" lon="12.53614199760408"><ele>478.1666666666667</ele><time>2026-04-11T14:50:34.001Z</time></trkpt><trkpt lat="43.31511293855332" lon="12.536053637173836"><ele>479.33333333333337</ele><time>2026-04-11T14:50:35Z</time></trkpt><trkpt lat="43.31508103813883" lon="12.535966737862726"><ele>480.5</ele><time>2026-04-11T14:50:36Z</time></trkpt><trkpt lat="43.315046891903755" lon="12.535877857594645"><ele>481.6666666666667</ele><time>2026-04-11T14:50:37Z</time></trkpt><trkpt lat="43.315008438678625" lon="12.535780307569635"><ele>482.83333333333337</ele><time>2026-04-11T14:50:38Z</time></trkpt><trkpt lat="43.31497127778364" lon="12.535672164463103"><ele>484.0</ele><time>2026-04-11T14:50:39Z</time></trkpt><trkpt lat="43.31493025112749" lon="12.535558938979847"><ele>484.0</ele><time>2026-04-11T14:50:40Z</time></trkpt><trkpt lat="43.31489290595812" lon="12.53544289461047"><ele>484.0</ele><time>2026-04-11T14:50:41Z</time></trkpt><trkpt lat="43.314856750801276" lon="12.535318450195053"><ele>484.0</ele><time>2026-04-11T14:50:42Z</time></trkpt><trkpt lat="43.31482132891979" lon="12.53520324323398"><ele>484.0</ele><time>2026-04-11T14:50:43Z</time></trkpt><trkpt lat="43.314788661361135" lon="12.535083519451927"><ele>484.0</ele><time>2026-04-11T14:50:44Z</time></trkpt><trkpt lat="43.31475445015883" lon="12.534969681906537"><ele>483.00000000000006</ele><time>2026-04-11T14:50:45Z</time></trkpt><trkpt lat="43.31471327885631" lon="12.534866071136356"><ele>482.0</ele><time>2026-04-11T14:50:46Z</time></trkpt><trkpt lat="43.31467072885677" lon="12.534763420083738"><ele>481.0</ele><time>2026-04-11T14:50:47Z</time></trkpt><trkpt lat="43.31462875771872" lon="12.534660137139914"><ele>480.0</ele><time>2026-04-11T14:50:48Z</time></trkpt><trkpt lat="43.314581609306586" lon="12.534564651604084"><ele>479.00000000000006</ele><time>2026-04-11T14:50:49Z</time></trkpt><trkpt lat="43.314536935994994" lon="12.534473725126416"><ele>478.0</ele><time>2026-04-11T14:50:50Z</time></trkpt><trkpt lat="43.314499394190825" lon="12.534389886722746"><ele>478.00000000000006</ele><time>2026-04-11T14:50:51Z</time></trkpt><trkpt lat="43.31445164673608" lon="12.534299105939713"><ele>478.0</ele><time>2026-04-11T14:50:52Z</time></trkpt><trkpt lat="43.31442292635206" lon="12.534215565608202"><ele>478.0</ele><time>2026-04-11T14:50:53Z</time></trkpt><trkpt lat="43.31440396162545" lon="12.534128474121482"><ele>478.0</ele><time>2026-04-11T14:50:54Z</time></trkpt><trkpt lat="43.314390022231535" lon="12.534014532197224"><ele>478.00000000000006</ele><time>2026-04-11T14:50:55Z</time></trkpt><trkpt lat="43.31438391210537" lon="12.533869860933958"><ele>478.0</ele><time>2026-04-11T14:50:56Z</time></trkpt><trkpt lat="43.314379984730145" lon="12.533722990728647"><ele>478.59999999999997</ele><time>2026-04-11T14:50:57Z</time></trkpt><trkpt lat="43.3143704268637" lon="12.533579361100074"><ele>479.19999999999993</ele><time>2026-04-11T14:50:58Z</time></trkpt><trkpt lat="43.314363196264864" lon="12.533439794698335"><ele>479.8</ele><time>2026-04-11T14:50:59Z</time></trkpt><trkpt lat="43.31434848006143" lon="12.5332947854831"><ele>480.4</ele><time>2026-04-11T14:51:00Z</time></trkpt><trkpt lat="43.31432223457344" lon="12.533142985086409"><ele>481.0</ele><time>2026-04-11T14:51:01Z</time></trkpt><trkpt lat="43.3142869297123" lon="12.53299006426942"><ele>482.25</ele><time>2026-04-11T14:51:02Z</time></trkpt><trkpt lat="43.31425117259721" lon="12.532846345311697"><ele>483.5</ele><time>2026-04-11T14:51:03Z</time></trkpt><trkpt lat="43.314207148116346" lon="12.532707279340249"><ele>484.75</ele><time>2026-04-11T14:51:04Z</time></trkpt><trkpt lat="43.31416432160192" lon="12.53256702744276"><ele>486.0</ele><time>2026-04-11T14:51:05Z</time></trkpt><trkpt lat="43.314116948280905" lon="12.532418100332267"><ele>486.0</ele><time>2026-04-11T14:51:06Z</time></trkpt><trkpt lat="43.31407089053865" lon="12.532264395639265"><ele>486.0</ele><time>2026-04-11T14:51:07Z</time></trkpt><trkpt lat="43.31403442422011" lon="12.532120227817156"><ele>486.0</ele><time>2026-04-11T14:51:08Z</time></trkpt><trkpt lat="43.31399266117351" lon="12.53199372707213"><ele>486.0</ele><time>2026-04-11T14:51:09Z</time></trkpt><trkpt lat="43.313954451918825" lon="12.53187105228048"><ele>486.0</ele><time>2026-04-11T14:51:10Z</time></trkpt><trkpt lat="43.31391758892103" lon="12.531759640250343"><ele>486.3333333333333</ele><time>2026-04-11T14:51:11Z</time></trkpt><trkpt lat="43.31389944354708" lon="12.531657455076877"><ele>486.66666666666663</ele><time>2026-04-11T14:51:12Z</time></trkpt><trkpt lat="43.31387195627287" lon="12.531563209264133"><ele>487.0</ele><time>2026-04-11T14:51:13Z</time></trkpt><trkpt lat="43.31384993986236" lon="12.53147312658091"><ele>487.3333333333333</ele><time>2026-04-11T14:51:14Z</time></trkpt><trkpt lat="43.31381908975503" lon="12.531329438940299"><ele>487.66666666666663</ele><time>2026-04-11T14:51:16Z</time></trkpt><trkpt lat="43.3138130296244" lon="12.531213899743102"><ele>488.0</ele><time>2026-04-11T14:51:18Z</time></trkpt><trkpt lat="43.31390512665102" lon="12.53119025754086"><ele>489.49999999999994</ele><time>2026-04-11T14:51:21Z</time></trkpt><trkpt lat="43.313965554595754" lon="12.531245316754696"><ele>491.0</ele><time>2026-04-11T14:51:22Z</time></trkpt><trkpt lat="43.314020269703384" lon="12.531302054061129"><ele>492.5</ele><time>2026-04-11T14:51:23Z</time></trkpt><trkpt lat="43.314103562793136" lon="12.531359397594567"><ele>494.0</ele><time>2026-04-11T14:51:24.001Z</time></trkpt><trkpt lat="43.31419254089913" lon="12.531424426925302"><ele>495.49999999999994</ele><time>2026-04-11T14:51:25.001Z</time></trkpt><trkpt lat="43.31427124155016" lon="12.53148110148983"><ele>497.0</ele><time>2026-04-11T14:51:26.001Z</time></trkpt><trkpt lat="43.314342389165425" lon="12.531532419336932"><ele>496.99999999999994</ele><time>2026-04-11T14:51:27.001Z</time></trkpt><trkpt lat="43.31441483017829" lon="12.531579056986878"><ele>497.0</ele><time>2026-04-11T14:51:28.001Z</time></trkpt><trkpt lat="43.31448447372093" lon="12.531613297423549"><ele>497.0</ele><time>2026-04-11T14:51:29.001Z</time></trkpt><trkpt lat="43.314565103509494" lon="12.531658672527763"><ele>497.0</ele><time>2026-04-11T14:51:30.001Z</time></trkpt><trkpt lat="43.31464568496669" lon="12.531702496784092"><ele>496.99999999999994</ele><time>2026-04-11T14:51:31.001Z</time></trkpt><trkpt lat="43.314719209957694" lon="12.531733605662637"><ele>497.0</ele><time>2026-04-11T14:51:32.001Z</time></trkpt><trkpt lat="43.31481605852987" lon="12.531766573639395"><ele>500.40000000000003</ele><time>2026-04-11T14:51:34.001Z</time></trkpt><trkpt lat="43.3149220036721" lon="12.531727994262365"><ele>503.80000000000007</ele><time>2026-04-11T14:51:36.001Z</time></trkpt><trkpt lat="43.314977173255265" lon="12.531609858686725"><ele>507.2</ele><time>2026-04-11T14:51:38.001Z</time></trkpt><trkpt lat="43.31498571943041" lon="12.531517320439816"><ele>510.6</ele><time>2026-04-11T14:51:39.001Z</time></trkpt><trkpt lat="43.315128251440136" lon="12.531545010537393"><ele>514.0</ele><time>2026-04-11T14:51:40.001Z</time></trkpt><trkpt lat="43.315188884720286" lon="12.531502413849886"><ele>514.0</ele><time>2026-04-11T14:51:41.001Z</time></trkpt><trkpt lat="43.31524792256095" lon="12.531466443101671"><ele>514.0</ele><time>2026-04-11T14:51:42.001Z</time></trkpt><trkpt lat="43.31533158109575" lon="12.531424635839814"><ele>514.0</ele><time>2026-04-11T14:51:43.001Z</time></trkpt><trkpt lat="43.31543028802802" lon="12.531376026013183"><ele>514.0</ele><time>2026-04-11T14:51:44.001Z</time></trkpt><trkpt lat="43.315542270008564" lon="12.531322054867728"><ele>514.0</ele><time>2026-04-11T14:51:45.001Z</time></trkpt><trkpt lat="43.31564823410312" lon="12.531264828981639"><ele>518.75</ele><time>2026-04-11T14:51:46.001Z</time></trkpt><trkpt lat="43.31575341839428" lon="12.531200552627608"><ele>523.5</ele><time>2026-04-11T14:51:47.001Z</time></trkpt><trkpt lat="43.31586185414654" lon="12.531122034310684"><ele>528.25</ele><time>2026-04-11T14:51:48.001Z</time></trkpt><trkpt lat="43.31596490016593" lon="12.53105117556012"><ele>533.0</ele><time>2026-04-11T14:51:49.001Z</time></trkpt><trkpt lat="43.31606181225286" lon="12.530992519189834"><ele>533.0</ele><time>2026-04-11T14:51:50.001Z</time></trkpt><trkpt lat="43.316140659949696" lon="12.530948441548624"><ele>533.0</ele><time>2026-04-11T14:51:51.001Z</time></trkpt><trkpt lat="43.316219641235506" lon="12.53091743215917"><ele>533.0</ele><time>2026-04-11T14:51:52.001Z</time></trkpt><trkpt lat="43.31630790501503" lon="12.530912125317212"><ele>533.0</ele><time>2026-04-11T14:51:53.001Z</time></trkpt><trkpt lat="43.31638597136616" lon="12.530933739105441"><ele>533.0</ele><time>2026-04-11T14:51:54.001Z</time></trkpt><trkpt lat="43.31646612212874" lon="12.530980422338377"><ele>533.0</ele><time>2026-04-11T14:51:55.001Z</time></trkpt><trkpt lat="43.31654856087608" lon="12.531090011618625"><ele>532.25</ele><time>2026-04-11T14:51:56.001Z</time></trkpt><trkpt lat="43.31666803449019" lon="12.531159086833657"><ele>531.5</ele><time>2026-04-11T14:51:57.001Z</time></trkpt><trkpt lat="43.316795517137955" lon="12.5312051746115"><ele>530.75</ele><time>2026-04-11T14:51:58.001Z</time></trkpt><trkpt lat="43.31691491538267" lon="12.531282382290312"><ele>530.0</ele><time>2026-04-11T14:51:59.001Z</time></trkpt><trkpt lat="43.3170545172683" lon="12.531355087829507"><ele>530.0</ele><time>2026-04-11T14:52:00.001Z</time></trkpt><trkpt lat="43.317182659436234" lon="12.531433752082942"><ele>530.0</ele><time>2026-04-11T14:52:01.001Z</time></trkpt><trkpt lat="43.31729434681402" lon="12.531510918929895"><ele>530.0</ele><time>2026-04-11T14:52:02.001Z</time></trkpt><trkpt lat="43.31738695487404" lon="12.531581805456872"><ele>530.0</ele><time>2026-04-11T14:52:03.001Z</time></trkpt><trkpt lat="43.31747668665143" lon="12.531646961425412"><ele>532.6</ele><time>2026-04-11T14:52:04.001Z</time></trkpt><trkpt lat="43.317569014797535" lon="12.531705463946045"><ele>535.2</ele><time>2026-04-11T14:52:05.001Z</time></trkpt><trkpt lat="43.31766335356551" lon="12.531749142301996"><ele>537.8</ele><time>2026-04-11T14:52:06.001Z</time></trkpt><trkpt lat="43.317746542293484" lon="12.531776627002078"><ele>540.4</ele><time>2026-04-11T14:52:07.001Z</time></trkpt><trkpt lat="43.31781738339113" lon="12.531795751506763"><ele>543.0</ele><time>2026-04-11T14:52:08.001Z</time></trkpt><trkpt lat="43.31791176413814" lon="12.531827123638353"><ele>543.0</ele><time>2026-04-11T14:52:10.001Z</time></trkpt><trkpt lat="43.31796733328294" lon="12.531659604463936"><ele>543.0</ele><time>2026-04-11T14:52:12.001Z</time></trkpt><trkpt lat="43.3179697606323" lon="12.531490382961755"><ele>543.0</ele><time>2026-04-11T14:52:14.001Z</time></trkpt><trkpt lat="43.31798077579147" lon="12.531396487624592"><ele>543.0</ele><time>2026-04-11T14:52:15.001Z</time></trkpt><trkpt lat="43.31800579983503" lon="12.531294408303589"><ele>543.0</ele><time>2026-04-11T14:52:16.001Z</time></trkpt><trkpt lat="43.31805137106406" lon="12.531170973599693"><ele>544.75</ele><time>2026-04-11T14:52:17.001Z</time></trkpt><trkpt lat="43.31811912589725" lon="12.531021352066142"><ele>546.5</ele><time>2026-04-11T14:52:18.001Z</time></trkpt><trkpt lat="43.3181840489636" lon="12.530854992048178"><ele>548.25</ele><time>2026-04-11T14:52:19.001Z</time></trkpt><trkpt lat="43.31824224380992" lon="12.530674902406123"><ele>550.0</ele><time>2026-04-11T14:52:20.001Z</time></trkpt><trkpt lat="43.31828551054593" lon="12.530488230592205"><ele>550.75</ele><time>2026-04-11T14:52:21.001Z</time></trkpt><trkpt lat="43.3183124208253" lon="12.530307147615543"><ele>551.5</ele><time>2026-04-11T14:52:22.001Z</time></trkpt><trkpt lat="43.31833643942033" lon="12.530143255258315"><ele>552.25</ele><time>2026-04-11T14:52:23.001Z</time></trkpt><trkpt lat="43.31836616692702" lon="12.529986243843247"><ele>553.0</ele><time>2026-04-11T14:52:24.001Z</time></trkpt><trkpt lat="43.3183985470408" lon="12.5298428340254"><ele>553.0</ele><time>2026-04-11T14:52:25.001Z</time></trkpt><trkpt lat="43.31844202590588" lon="12.529710471439904"><ele>553.0</ele><time>2026-04-11T14:52:26.001Z</time></trkpt><trkpt lat="43.318497972512965" lon="12.529585711308082"><ele>553.0</ele><time>2026-04-11T14:52:27.001Z</time></trkpt><trkpt lat="43.318549275176736" lon="12.529460016285833"><ele>553.0</ele><time>2026-04-11T14:52:28.001Z</time></trkpt><trkpt lat="43.31860061915111" lon="12.529349268879027"><ele>553.0</ele><time>2026-04-11T14:52:29.001Z</time></trkpt><trkpt lat="43.31865114428558" lon="12.529243382944212"><ele>554.3333333333334</ele><time>2026-04-11T14:52:30.001Z</time></trkpt><trkpt lat="43.31869892029673" lon="12.529139914059547"><ele>555.6666666666667</ele><time>2026-04-11T14:52:31.001Z</time></trkpt><trkpt lat="43.31874855316565" lon="12.529042248646407"><ele>557.0</ele><time>2026-04-11T14:52:32.001Z</time></trkpt><trkpt lat="43.31878944728086" lon="12.528937569220094"><ele>558.3333333333334</ele><time>2026-04-11T14:52:33.002Z</time></trkpt><trkpt lat="43.31883177577121" lon="12.528836106079236"><ele>559.6666666666666</ele><time>2026-04-11T14:52:34.002Z</time></trkpt><trkpt lat="43.31887082569818" lon="12.528750209516694"><ele>561.0</ele><time>2026-04-11T14:52:35.002Z</time></trkpt><trkpt lat="43.31891167189579" lon="12.528667088710918"><ele>563.4</ele><time>2026-04-11T14:52:36.002Z</time></trkpt><trkpt lat="43.31895194482013" lon="12.528590308408917"><ele>565.8</ele><time>2026-04-11T14:52:37.002Z</time></trkpt><trkpt lat="43.31900759388403" lon="12.528537765613246"><ele>568.1999999999999</ele><time>2026-04-11T14:52:38.002Z</time></trkpt><trkpt lat="43.31910454986574" lon="12.5284385162337"><ele>570.6</ele><time>2026-04-11T14:52:40.002Z</time></trkpt><trkpt lat="43.31919970546983" lon="12.528417750907153"><ele>573.0</ele><time>2026-04-11T14:52:42Z</time></trkpt><trkpt lat="43.31929911572766" lon="12.52845728339015"><ele>573.0</ele><time>2026-04-11T14:52:44Z</time></trkpt><trkpt lat="43.319365379524136" lon="12.528501698952162"><ele>573.0</ele><time>2026-04-11T14:52:45Z</time></trkpt><trkpt lat="43.31943469413067" lon="12.52853903437927"><ele>573.0</ele><time>2026-04-11T14:52:46Z</time></trkpt><trkpt lat="43.31951555723263" lon="12.528552718643796"><ele>573.0</ele><time>2026-04-11T14:52:47Z</time></trkpt><trkpt lat="43.31958045898163" lon="12.528603228668361"><ele>573.0</ele><time>2026-04-11T14:52:48Z</time></trkpt><trkpt lat="43.31965222925887" lon="12.528634514432042"><ele>573.0</ele><time>2026-04-11T14:52:49Z</time></trkpt><trkpt lat="43.31972270421102" lon="12.528668646948761"><ele>573.6666666666666</ele><time>2026-04-11T14:52:50Z</time></trkpt><trkpt lat="43.31979167265764" lon="12.528695391039788"><ele>574.3333333333334</ele><time>2026-04-11T14:52:51Z</time></trkpt><trkpt lat="43.31986716145569" lon="12.528719462437122"><ele>575.0</ele><time>2026-04-11T14:52:52Z</time></trkpt><trkpt lat="43.319952332280025" lon="12.528747137835612"><ele>575.6666666666667</ele><time>2026-04-11T14:52:53Z</time></trkpt><trkpt lat="43.32002253930061" lon="12.528764619467161"><ele>576.3333333333334</ele><time>2026-04-11T14:52:54Z</time></trkpt><trkpt lat="43.32009569318908" lon="12.528779061180497"><ele>577.0</ele><time>2026-04-11T14:52:55Z</time></trkpt><trkpt lat="43.320168364979324" lon="12.528799382260758"><ele>577.0</ele><time>2026-04-11T14:52:56Z</time></trkpt><trkpt lat="43.3202439699021" lon="12.528811253947271"><ele>577.0</ele><time>2026-04-11T14:52:57Z</time></trkpt><trkpt lat="43.3203234006291" lon="12.528830344787659"><ele>577.0</ele><time>2026-04-11T14:52:58Z</time></trkpt><trkpt lat="43.320408349391045" lon="12.528847194690806"><ele>577.0</ele><time>2026-04-11T14:52:59Z</time></trkpt><trkpt lat="43.320500259091745" lon="12.528875213857802"><ele>577.0</ele><time>2026-04-11T14:53:00Z</time></trkpt><trkpt lat="43.32061155037851" lon="12.528920583043256"><ele>577.0</ele><time>2026-04-11T14:53:01Z</time></trkpt><trkpt lat="43.32073207016842" lon="12.528969777606463"><ele>577.0</ele><time>2026-04-11T14:53:02Z</time></trkpt><trkpt lat="43.32083373183057" lon="12.52900675030148"><ele>577.0</ele><time>2026-04-11T14:53:03Z</time></trkpt><trkpt lat="43.320929718698174" lon="12.529027393578627"><ele>577.0</ele><time>2026-04-11T14:53:04Z</time></trkpt><trkpt lat="43.32101736661192" lon="12.529041956791335"><ele>577.0</ele><time>2026-04-11T14:53:05Z</time></trkpt><trkpt lat="43.32108898942153" lon="12.529067496008938"><ele>577.0</ele><time>2026-04-11T14:53:06Z</time></trkpt><trkpt lat="43.321195621356324" lon="12.529094804049782"><ele>577.0</ele><time>2026-04-11T14:53:08Z</time></trkpt><trkpt lat="43.32130774767938" lon="12.529146654466727"><ele>577.0</ele><time>2026-04-11T14:53:10Z</time></trkpt><trkpt lat="43.32137468228525" lon="12.52916171246533"><ele>577.0</ele><time>2026-04-11T14:53:11Z</time></trkpt><trkpt lat="43.32144216688073" lon="12.529171449449155"><ele>577.0</ele><time>2026-04-11T14:53:12Z</time></trkpt><trkpt lat="43.32151086022229" lon="12.529185230692997"><ele>577.0</ele><time>2026-04-11T14:53:13Z</time></trkpt><trkpt lat="43.321583081160426" lon="12.52920287361033"><ele>577.5714285714286</ele><time>2026-04-11T14:53:14Z</time></trkpt><trkpt lat="43.321655605994756" lon="12.529224225560531"><ele>578.1428571428571</ele><time>2026-04-11T14:53:15Z</time></trkpt><trkpt lat="43.32172542708509" lon="12.529242387416257"><ele>578.7142857142858</ele><time>2026-04-11T14:53:16Z</time></trkpt><trkpt lat="43.32179505368524" lon="12.52926187831071"><ele>579.2857142857142</ele><time>2026-04-11T14:53:17Z</time></trkpt><trkpt lat="43.321869304923034" lon="12.529281005976063"><ele>579.8571428571429</ele><time>2026-04-11T14:53:18Z</time></trkpt><trkpt lat="43.32194607587119" lon="12.529298989555667"><ele>580.4285714285714</ele><time>2026-04-11T14:53:19Z</time></trkpt><trkpt lat="43.32202100590455" lon="12.52931225150769"><ele>581.0</ele><time>2026-04-11T14:53:20.001Z</time></trkpt><trkpt lat="43.32209304783419" lon="12.529333239846288"><ele>581.0</ele><time>2026-04-11T14:53:21.001Z</time></trkpt><trkpt lat="43.322157420779895" lon="12.529357226582823"><ele>581.0</ele><time>2026-04-11T14:53:22.001Z</time></trkpt><trkpt lat="43.322218256836685" lon="12.529384748230203"><ele>581.0</ele><time>2026-04-11T14:53:23.001Z</time></trkpt><trkpt lat="43.32228790751813" lon="12.52940960928178"><ele>581.0</ele><time>2026-04-11T14:53:24.001Z</time></trkpt><trkpt lat="43.3223547901233" lon="12.529431562029089"><ele>581.0</ele><time>2026-04-11T14:53:25.001Z</time></trkpt><trkpt lat="43.32242936826422" lon="12.529454762583667"><ele>581.0</ele><time>2026-04-11T14:53:26.001Z</time></trkpt><trkpt lat="43.322504528759474" lon="12.529480862316769"><ele>581.0</ele><time>2026-04-11T14:53:27.001Z</time></trkpt><trkpt lat="43.32258997457868" lon="12.529519618230964"><ele>578.0</ele><time>2026-04-11T14:53:28.001Z</time></trkpt><trkpt lat="43.32267477456007" lon="12.529568597479075"><ele>575.0</ele><time>2026-04-11T14:53:29.001Z</time></trkpt><trkpt lat="43.32275623949515" lon="12.529623576900248"><ele>572.0</ele><time>2026-04-11T14:53:30.001Z</time></trkpt><trkpt lat="43.322835007430996" lon="12.529680389955626"><ele>569.0</ele><time>2026-04-11T14:53:31.001Z</time></trkpt><trkpt lat="43.32291282902256" lon="12.529746394207624"><ele>566.0</ele><time>2026-04-11T14:53:32.001Z</time></trkpt><trkpt lat="43.322989189029435" lon="12.529816253540508"><ele>566.0</ele><time>2026-04-11T14:53:33.001Z</time></trkpt><trkpt lat="43.32305453974313" lon="12.52988325684344"><ele>566.0</ele><time>2026-04-11T14:53:34.001Z</time></trkpt><trkpt lat="43.32311273950831" lon="12.529943609956016"><ele>566.0</ele><time>2026-04-11T14:53:35.001Z</time></trkpt><trkpt lat="43.32316685703658" lon="12.52999921260209"><ele>566.0</ele><time>2026-04-11T14:53:36.001Z</time></trkpt><trkpt lat="43.32321961882872" lon="12.530051979372256"><ele>566.0</ele><time>2026-04-11T14:53:37.001Z</time></trkpt><trkpt lat="43.32327243506419" lon="12.530102230606305"><ele>566.0</ele><time>2026-04-11T14:53:38.001Z</time></trkpt><trkpt lat="43.32332471683817" lon="12.530152621216939"><ele>566.0</ele><time>2026-04-11T14:53:39.001Z</time></trkpt><trkpt lat="43.32341230727651" lon="12.530269616021062"><ele>566.5</ele><time>2026-04-11T14:53:41.001Z</time></trkpt><trkpt lat="43.32351572727381" lon="12.530361560731059"><ele>567.0</ele><time>2026-04-11T14:53:43.001Z</time></trkpt><trkpt lat="43.3235993287151" lon="12.530475376473465"><ele>567.5</ele><time>2026-04-11T14:53:45.001Z</time></trkpt><trkpt lat="43.32368574192743" lon="12.530579462871525"><ele>568.0</ele><time>2026-04-11T14:53:47.001Z</time></trkpt><trkpt lat="43.32376722029168" lon="12.53069585631549"><ele>568.0</ele><time>2026-04-11T14:53:49.001Z</time></trkpt><trkpt lat="43.32387064902567" lon="12.530640789943863"><ele>568.0</ele><time>2026-04-11T14:53:50.001Z</time></trkpt><trkpt lat="43.32396332063659" lon="12.530676166472988"><ele>568.0</ele><time>2026-04-11T14:53:52.001Z</time></trkpt><trkpt lat="43.32403538936018" lon="12.530672021275363"><ele>568.0</ele><time>2026-04-11T14:53:54.001Z</time></trkpt><trkpt lat="43.324098843167214" lon="12.530698767642429"><ele>568.0</ele><time>2026-04-11T14:53:56.001Z</time></trkpt><trkpt lat="43.32416211741458" lon="12.530718445563512"><ele>568.0</ele><time>2026-04-11T14:53:58.001Z</time></trkpt><trkpt lat="43.32424185478348" lon="12.530723634886632"><ele>568.0</ele><time>2026-04-11T14:54:01.001Z</time></trkpt><trkpt lat="43.32433280585773" lon="12.530750784022441"><ele>568.0</ele><time>2026-04-11T14:55:44.001Z</time></trkpt><trkpt lat="43.32444821826832" lon="12.53079871888137"><ele>568.0</ele><time>2026-04-11T14:55:46.001Z</time></trkpt><trkpt lat="43.32451228928999" lon="12.530820440922406"><ele>568.0</ele><time>2026-04-11T14:55:47.001Z</time></trkpt><trkpt lat="43.32460027632837" lon="12.530869641338434"><ele>568.0</ele><time>2026-04-11T14:55:49.001Z</time></trkpt><trkpt lat="43.32466207433567" lon="12.53090853382581"><ele>568.0</ele><time>2026-04-11T14:55:52.001Z</time></trkpt><trkpt lat="43.32474583037218" lon="12.53092956474443"><ele>569.1666666666667</ele><time>2026-04-11T14:56:36.001Z</time></trkpt><trkpt lat="43.32480882540886" lon="12.530962701194149"><ele>570.3333333333334</ele><time>2026-04-11T14:56:38.001Z</time></trkpt><trkpt lat="43.324907879123494" lon="12.531009303529906"><ele>571.5</ele><time>2026-04-11T14:56:40.001Z</time></trkpt><trkpt lat="43.325012598225634" lon="12.531070555419936"><ele>572.6666666666666</ele><time>2026-04-11T14:56:42.001Z</time></trkpt><trkpt lat="43.32507585764201" lon="12.531075526989609"><ele>573.8333333333333</ele><time>2026-04-11T14:56:43.001Z</time></trkpt><trkpt lat="43.32513798498325" lon="12.531049787885427"><ele>575.0</ele><time>2026-04-11T14:56:44.001Z</time></trkpt><trkpt lat="43.32525781331071" lon="12.531031081835444"><ele>575.0</ele><time>2026-04-11T14:56:46.001Z</time></trkpt><trkpt lat="43.32532473468702" lon="12.53101275249252"><ele>575.0</ele><time>2026-04-11T14:56:47.002Z</time></trkpt><trkpt lat="43.32545095690307" lon="12.530973321459456"><ele>575.0</ele><time>2026-04-11T14:56:49.002Z</time></trkpt><trkpt lat="43.32552311053185" lon="12.530945941285916"><ele>575.0</ele><time>2026-04-11T14:56:50.002Z</time></trkpt><trkpt lat="43.32558907199766" lon="12.530921452112999"><ele>575.0</ele><time>2026-04-11T14:56:51.002Z</time></trkpt><trkpt lat="43.325651507864826" lon="12.530898886135201"><ele>575.0</ele><time>2026-04-11T14:56:52.002Z</time></trkpt><trkpt lat="43.32571491476255" lon="12.530905754908392"><ele>575.5</ele><time>2026-04-11T14:56:53Z</time></trkpt><trkpt lat="43.3258206693796" lon="12.530886097110283"><ele>576.0</ele><time>2026-04-11T14:56:55Z</time></trkpt><trkpt lat="43.32588372340188" lon="12.530922653281355"><ele>576.5</ele><time>2026-04-11T14:56:57Z</time></trkpt><trkpt lat="43.32595801563633" lon="12.530964836378596"><ele>577.0</ele><time>2026-04-11T14:57:20Z</time></trkpt><trkpt lat="43.32601473363247" lon="12.531009765547008"><ele>577.5</ele><time>2026-04-11T14:57:22Z</time></trkpt><trkpt lat="43.32607390415222" lon="12.531052146728673"><ele>578.0</ele><time>2026-04-11T14:57:24Z</time></trkpt><trkpt lat="43.326134199945976" lon="12.53108863527541"><ele>578.0</ele><time>2026-04-11T14:57:26Z</time></trkpt><trkpt lat="43.32620182441495" lon="12.531094050570742"><ele>578.0</ele><time>2026-04-11T14:57:29Z</time></trkpt><trkpt lat="43.32626278154224" lon="12.531068899340505"><ele>578.0</ele><time>2026-04-11T14:57:33Z</time></trkpt><trkpt lat="43.326325856445365" lon="12.53104237346336"><ele>578.0</ele><time>2026-04-11T14:57:36Z</time></trkpt><trkpt lat="43.32639817824405" lon="12.531029824900099"><ele>578.0</ele><time>2026-04-11T14:57:39.001Z</time></trkpt><trkpt lat="43.32646375423448" lon="12.531030386015393"><ele>578.0</ele><time>2026-04-11T14:57:42.001Z</time></trkpt><trkpt lat="43.326498443191205" lon="12.530885957730156"><ele>578.0</ele><time>2026-04-11T14:57:44.001Z</time></trkpt><trkpt lat="43.326486581036455" lon="12.530789766046558"><ele>577.2857142857143</ele><time>2026-04-11T14:57:45.001Z</time></trkpt><trkpt lat="43.3264814121478" lon="12.530697270182486"><ele>576.5714285714286</ele><time>2026-04-11T14:57:46.001Z</time></trkpt><trkpt lat="43.32648383130202" lon="12.53060034517166"><ele>575.8571428571429</ele><time>2026-04-11T14:57:47.001Z</time></trkpt><trkpt lat="43.326486644168355" lon="12.530506550932204"><ele>575.1428571428571</ele><time>2026-04-11T14:57:48.001Z</time></trkpt><trkpt lat="43.326489345697354" lon="12.53041624912897"><ele>574.4285714285714</ele><time>2026-04-11T14:57:49.001Z</time></trkpt><trkpt lat="43.326490750352825" lon="12.53032622033986"><ele>573.7142857142858</ele><time>2026-04-11T14:57:50.001Z</time></trkpt><trkpt lat="43.326491033272944" lon="12.530237136852982"><ele>573.0</ele><time>2026-04-11T14:57:51.001Z</time></trkpt><trkpt lat="43.32649391635553" lon="12.530059119934903"><ele>573.0</ele><time>2026-04-11T14:57:53.001Z</time></trkpt><trkpt lat="43.32649601595037" lon="12.529962979884862"><ele>573.0</ele><time>2026-04-11T14:57:54.001Z</time></trkpt><trkpt lat="43.3264940675162" lon="12.529867863046656"><ele>573.0</ele><time>2026-04-11T14:57:55.001Z</time></trkpt><trkpt lat="43.32649749460851" lon="12.529778577678899"><ele>573.0</ele><time>2026-04-11T14:57:56.001Z</time></trkpt><trkpt lat="43.32650262047217" lon="12.529684723322855"><ele>573.0</ele><time>2026-04-11T14:57:57.001Z</time></trkpt><trkpt lat="43.32650876767525" lon="12.52957652375266"><ele>573.0</ele><time>2026-04-11T14:57:58.001Z</time></trkpt><trkpt lat="43.326520280491216" lon="12.529487415666367"><ele>573.0</ele><time>2026-04-11T14:57:59.001Z</time></trkpt><trkpt lat="43.32654609918261" lon="12.529405088744364"><ele>575.3333333333334</ele><time>2026-04-11T14:58:00.001Z</time></trkpt><trkpt lat="43.32656840054153" lon="12.529322978741417"><ele>577.6666666666666</ele><time>2026-04-11T14:58:01.001Z</time></trkpt><trkpt lat="43.32660638949132" lon="12.529163558788015"><ele>580.0</ele><time>2026-04-11T14:58:03.001Z</time></trkpt><trkpt lat="43.326597949972346" lon="12.529074290487346"><ele>582.3333333333333</ele><time>2026-04-11T14:58:04.001Z</time></trkpt><trkpt lat="43.32657113588718" lon="12.528988886062136"><ele>584.6666666666666</ele><time>2026-04-11T14:58:05.001Z</time></trkpt><trkpt lat="43.326529416970125" lon="12.528916134970178"><ele>587.0</ele><time>2026-04-11T14:58:06.001Z</time></trkpt><trkpt lat="43.32648521226165" lon="12.528845755692886"><ele>587.0</ele><time>2026-04-11T14:58:07.001Z</time></trkpt><trkpt lat="43.32643581879431" lon="12.528781693547707"><ele>587.0</ele><time>2026-04-11T14:58:08.001Z</time></trkpt><trkpt lat="43.32638423051354" lon="12.528720192830821"><ele>587.0</ele><time>2026-04-11T14:58:09.001Z</time></trkpt><trkpt lat="43.32633563152088" lon="12.528655003508987"><ele>587.0</ele><time>2026-04-11T14:58:10.001Z</time></trkpt><trkpt lat="43.32629188420453" lon="12.528591595815035"><ele>587.0</ele><time>2026-04-11T14:58:11.001Z</time></trkpt><trkpt lat="43.32624735271833" lon="12.528529802881085"><ele>587.0</ele><time>2026-04-11T14:58:12.001Z</time></trkpt><trkpt lat="43.32615982144962" lon="12.528417776817271"><ele>589.6</ele><time>2026-04-11T14:58:14.001Z</time></trkpt><trkpt lat="43.3260706160787" lon="12.528297566919298"><ele>592.2</ele><time>2026-04-11T14:58:16.001Z</time></trkpt><trkpt lat="43.326010363436936" lon="12.5282245306706"><ele>594.8</ele><time>2026-04-11T14:58:17.001Z</time></trkpt><trkpt lat="43.325959952079955" lon="12.5281663481922"><ele>597.4</ele><time>2026-04-11T14:58:18.001Z</time></trkpt><trkpt lat="43.32586575604642" lon="12.528046082783645"><ele>600.0</ele><time>2026-04-11T14:58:20.001Z</time></trkpt><trkpt lat="43.32581825560673" lon="12.527985731724682"><ele>600.0</ele><time>2026-04-11T14:58:21.001Z</time></trkpt><trkpt lat="43.32577000795901" lon="12.527917638460288"><ele>600.0</ele><time>2026-04-11T14:58:22.001Z</time></trkpt><trkpt lat="43.32572245242146" lon="12.527842643935026"><ele>600.0</ele><time>2026-04-11T14:58:23.001Z</time></trkpt><trkpt lat="43.32567726959146" lon="12.52776467951868"><ele>600.0</ele><time>2026-04-11T14:58:24.001Z</time></trkpt><trkpt lat="43.325636016796466" lon="12.527669894036562"><ele>600.0</ele><time>2026-04-11T14:58:25.001Z</time></trkpt><trkpt lat="43.32560471458865" lon="12.52754093584849"><ele>600.0</ele><time>2026-04-11T14:58:26.001Z</time></trkpt><trkpt lat="43.32557641525257" lon="12.527407965316756"><ele>598.0</ele><time>2026-04-11T14:58:27.001Z</time></trkpt><trkpt lat="43.32555340193426" lon="12.52727006431489"><ele>596.0</ele><time>2026-04-11T14:58:28.001Z</time></trkpt><trkpt lat="43.325542047416114" lon="12.527136646565408"><ele>594.0</ele><time>2026-04-11T14:58:29.001Z</time></trkpt><trkpt lat="43.32553345830116" lon="12.527008553312122"><ele>592.0</ele><time>2026-04-11T14:58:30.001Z</time></trkpt><trkpt lat="43.32552289162319" lon="12.52688618739809"><ele>590.0</ele><time>2026-04-11T14:58:31.001Z</time></trkpt><trkpt lat="43.32550823269607" lon="12.526771146572973"><ele>589.6666666666666</ele><time>2026-04-11T14:58:32.001Z</time></trkpt><trkpt lat="43.32548342808508" lon="12.526666640060213"><ele>589.3333333333333</ele><time>2026-04-11T14:58:33.001Z</time></trkpt><trkpt lat="43.325447038674405" lon="12.526572330489126"><ele>589.0</ele><time>2026-04-11T14:58:34.001Z</time></trkpt><trkpt lat="43.325398735702805" lon="12.52647867535171"><ele>588.6666666666666</ele><time>2026-04-11T14:58:35.001Z</time></trkpt><trkpt lat="43.32533858753647" lon="12.526389963155708"><ele>588.3333333333334</ele><time>2026-04-11T14:58:36.001Z</time></trkpt><trkpt lat="43.32527296114719" lon="12.526298356521352"><ele>588.0</ele><time>2026-04-11T14:58:37.001Z</time></trkpt><trkpt lat="43.32520095440984" lon="12.526210251422365"><ele>589.6666666666666</ele><time>2026-04-11T14:58:38.001Z</time></trkpt><trkpt lat="43.32513223759698" lon="12.526114754953376"><ele>591.3333333333334</ele><time>2026-04-11T14:58:39.001Z</time></trkpt><trkpt lat="43.3250716111043" lon="12.52602295035699"><ele>593.0</ele><time>2026-04-11T14:58:40.001Z</time></trkpt><trkpt lat="43.325023920315346" lon="12.525926992142466"><ele>594.6666666666667</ele><time>2026-04-11T14:58:41.001Z</time></trkpt><trkpt lat="43.3249849110142" lon="12.52582436024412"><ele>596.3333333333334</ele><time>2026-04-11T14:58:42.001Z</time></trkpt><trkpt lat="43.32495447649658" lon="12.52570960756116"><ele>598.0</ele><time>2026-04-11T14:58:43.001Z</time></trkpt><trkpt lat="43.32493521502741" lon="12.525595907779808"><ele>598.0</ele><time>2026-04-11T14:58:44.001Z</time></trkpt><trkpt lat="43.32491832799332" lon="12.525479220372825"><ele>598.0</ele><time>2026-04-11T14:58:45.001Z</time></trkpt><trkpt lat="43.32490686992358" lon="12.52536164893194"><ele>598.0</ele><time>2026-04-11T14:58:46.001Z</time></trkpt><trkpt lat="43.324900695495735" lon="12.525237482531105"><ele>598.0</ele><time>2026-04-11T14:58:47.001Z</time></trkpt><trkpt lat="43.32489204737926" lon="12.525114065025939"><ele>598.0</ele><time>2026-04-11T14:58:48.001Z</time></trkpt><trkpt lat="43.3248819860914" lon="12.52500440111109"><ele>598.0</ele><time>2026-04-11T14:58:49.001Z</time></trkpt><trkpt lat="43.32485958676632" lon="12.524891739537278"><ele>599.5</ele><time>2026-04-11T14:58:50.001Z</time></trkpt><trkpt lat="43.3248286181305" lon="12.524787009380189"><ele>601.0</ele><time>2026-04-11T14:58:51.001Z</time></trkpt><trkpt lat="43.32479065039288" lon="12.524683364805135"><ele>602.5</ele><time>2026-04-11T14:58:52.002Z</time></trkpt><trkpt lat="43.32474218452295" lon="12.524577187022855"><ele>604.0</ele><time>2026-04-11T14:58:53.002Z</time></trkpt><trkpt lat="43.32469298644806" lon="12.52448101579878"><ele>605.5</ele><time>2026-04-11T14:58:54.002Z</time></trkpt><trkpt lat="43.324638631550584" lon="12.524385808312893"><ele>607.0</ele><time>2026-04-11T14:58:55.002Z</time></trkpt><trkpt lat="43.32458134539411" lon="12.524297510388998"><ele>607.0</ele><time>2026-04-11T14:58:56.002Z</time></trkpt><trkpt lat="43.32452489965088" lon="12.524223704357965"><ele>607.0</ele><time>2026-04-11T14:58:57.002Z</time></trkpt><trkpt lat="43.324463711668535" lon="12.524157310133853"><ele>607.0</ele><time>2026-04-11T14:58:58.002Z</time></trkpt><trkpt lat="43.3243998458857" lon="12.524098174397984"><ele>607.0</ele><time>2026-04-11T14:58:59Z</time></trkpt><trkpt lat="43.32433591287909" lon="12.52404230491813"><ele>607.0</ele><time>2026-04-11T14:59:00Z</time></trkpt><trkpt lat="43.32427367395243" lon="12.523984728836574"><ele>607.0</ele><time>2026-04-11T14:59:01Z</time></trkpt><trkpt lat="43.32420924730848" lon="12.523924294525209"><ele>607.0</ele><time>2026-04-11T14:59:02Z</time></trkpt><trkpt lat="43.324143364140106" lon="12.523858230185134"><ele>607.0</ele><time>2026-04-11T14:59:03Z</time></trkpt><trkpt lat="43.3240823122169" lon="12.52379352074069"><ele>607.0</ele><time>2026-04-11T14:59:04Z</time></trkpt><trkpt lat="43.32402027060319" lon="12.523726853154526"><ele>607.0</ele><time>2026-04-11T14:59:05Z</time></trkpt><trkpt lat="43.323965422076085" lon="12.523664284120667"><ele>607.0</ele><time>2026-04-11T14:59:06Z</time></trkpt><trkpt lat="43.323907438585564" lon="12.52359763379631"><ele>607.0</ele><time>2026-04-11T14:59:07Z</time></trkpt><trkpt lat="43.32385720939805" lon="12.523528587626233"><ele>606.4</ele><time>2026-04-11T14:59:08Z</time></trkpt><trkpt lat="43.32380585949785" lon="12.523452627118548"><ele>605.8000000000001</ele><time>2026-04-11T14:59:09Z</time></trkpt><trkpt lat="43.32374962607573" lon="12.523360813928571"><ele>605.2</ele><time>2026-04-11T14:59:10Z</time></trkpt><trkpt lat="43.32367935642716" lon="12.523258176230602"><ele>604.6</ele><time>2026-04-11T14:59:11Z</time></trkpt><trkpt lat="43.32360704069154" lon="12.523142264376897"><ele>604.0</ele><time>2026-04-11T14:59:12Z</time></trkpt><trkpt lat="43.3235280987641" lon="12.52301518820948"><ele>604.25</ele><time>2026-04-11T14:59:13Z</time></trkpt><trkpt lat="43.32345247622309" lon="12.522870315510074"><ele>604.5</ele><time>2026-04-11T14:59:14Z</time></trkpt><trkpt lat="43.323378465631926" lon="12.522764600127656"><ele>604.75</ele><time>2026-04-11T14:59:15Z</time></trkpt><trkpt lat="43.32325567031947" lon="12.522591437289927"><ele>605.0</ele><time>2026-04-11T14:59:16Z</time></trkpt><trkpt lat="43.3231396414804" lon="12.522470991477093"><ele>604.25</ele><time>2026-04-11T14:59:17Z</time></trkpt><trkpt lat="43.323024429550486" lon="12.522365602439063"><ele>603.5</ele><time>2026-04-11T14:59:18Z</time></trkpt><trkpt lat="43.32289967223025" lon="12.522276724954159"><ele>602.75</ele><time>2026-04-11T14:59:19Z</time></trkpt><trkpt lat="43.32276736892759" lon="12.522196845823881"><ele>602.0</ele><time>2026-04-11T14:59:20Z</time></trkpt><trkpt lat="43.32263119347135" lon="12.522122982254258"><ele>603.0</ele><time>2026-04-11T14:59:21Z</time></trkpt><trkpt lat="43.32249728388152" lon="12.52203728637604"><ele>604.0</ele><time>2026-04-11T14:59:22Z</time></trkpt><trkpt lat="43.32237999827229" lon="12.521921401342878"><ele>605.0</ele><time>2026-04-11T14:59:23Z</time></trkpt><trkpt lat="43.32228511155595" lon="12.521771686292745"><ele>606.0</ele><time>2026-04-11T14:59:24Z</time></trkpt><trkpt lat="43.32219817258662" lon="12.521610363570359"><ele>607.0</ele><time>2026-04-11T14:59:25Z</time></trkpt><trkpt lat="43.32210034924027" lon="12.521459251600483"><ele>608.0</ele><time>2026-04-11T14:59:26Z</time></trkpt><trkpt lat="43.321995605921806" lon="12.521319576854966"><ele>609.0</ele><time>2026-04-11T14:59:27Z</time></trkpt><trkpt lat="43.32189122821852" lon="12.521195094840776"><ele>610.0</ele><time>2026-04-11T14:59:28Z</time></trkpt><trkpt lat="43.32178877403262" lon="12.521080668403288"><ele>610.25</ele><time>2026-04-11T14:59:29Z</time></trkpt><trkpt lat="43.321685204598445" lon="12.520964851446898"><ele>610.5</ele><time>2026-04-11T14:59:30Z</time></trkpt><trkpt lat="43.321577137408" lon="12.520846466443109"><ele>610.75</ele><time>2026-04-11T14:59:31Z</time></trkpt><trkpt lat="43.3214745788396" lon="12.520717941908467"><ele>611.0</ele><time>2026-04-11T14:59:32Z</time></trkpt><trkpt lat="43.32139149287633" lon="12.520564778862816"><ele>611.75</ele><time>2026-04-11T14:59:33Z</time></trkpt><trkpt lat="43.32133047161844" lon="12.520384680604694"><ele>612.5</ele><time>2026-04-11T14:59:34Z</time></trkpt><trkpt lat="43.321299141942276" lon="12.52018441250414"><ele>613.25</ele><time>2026-04-11T14:59:35Z</time></trkpt><trkpt lat="43.32128910217507" lon="12.519978472687294"><ele>614.0</ele><time>2026-04-11T14:59:36Z</time></trkpt><trkpt lat="43.321292611943036" lon="12.519762026275487"><ele>614.75</ele><time>2026-04-11T14:59:37Z</time></trkpt><trkpt lat="43.321306058704565" lon="12.519558314045625"><ele>615.5</ele><time>2026-04-11T14:59:38Z</time></trkpt><trkpt lat="43.321316720362766" lon="12.519365889994567"><ele>616.25</ele><time>2026-04-11T14:59:39Z</time></trkpt><trkpt lat="43.321330966866206" lon="12.519156347567158"><ele>617.0</ele><time>2026-04-11T14:59:40Z</time></trkpt><trkpt lat="43.32134450446437" lon="12.518954019769463"><ele>617.0</ele><time>2026-04-11T14:59:41Z</time></trkpt><trkpt lat="43.321354321500635" lon="12.518753265308533"><ele>617.0</ele><time>2026-04-11T14:59:42Z</time></trkpt><trkpt lat="43.32134744497158" lon="12.518536564227967"><ele>617.0</ele><time>2026-04-11T14:59:43Z</time></trkpt><trkpt lat="43.32132562477398" lon="12.518314840194856"><ele>618.6666666666666</ele><time>2026-04-11T14:59:44Z</time></trkpt><trkpt lat="43.32129726019227" lon="12.518104004625993"><ele>620.3333333333334</ele><time>2026-04-11T14:59:45Z</time></trkpt><trkpt lat="43.32124505236754" lon="12.51789790835559"><ele>622.0</ele><time>2026-04-11T14:59:46Z</time></trkpt><trkpt lat="43.32115964884461" lon="12.517699113093295"><ele>624.3333333333334</ele><time>2026-04-11T14:59:47Z</time></trkpt><trkpt lat="43.321050688815816" lon="12.51750729055144"><ele>626.6666666666666</ele><time>2026-04-11T14:59:48Z</time></trkpt><trkpt lat="43.32092535562993" lon="12.517322393007976"><ele>629.0</ele><time>2026-04-11T14:59:49Z</time></trkpt><trkpt lat="43.320799063923175" lon="12.517139414457278"><ele>631.3333333333333</ele><time>2026-04-11T14:59:50Z</time></trkpt><trkpt lat="43.32068276506817" lon="12.516966070787216"><ele>633.6666666666666</ele><time>2026-04-11T14:59:51.001Z</time></trkpt><trkpt lat="43.320569725650095" lon="12.516799566450924"><ele>636.0</ele><time>2026-04-11T14:59:52.001Z</time></trkpt><trkpt lat="43.320453457617546" lon="12.516654047432004"><ele>636.75</ele><time>2026-04-11T14:59:53.001Z</time></trkpt><trkpt lat="43.320336969034116" lon="12.516522665468363"><ele>637.5</ele><time>2026-04-11T14:59:54.001Z</time></trkpt><trkpt lat="43.320225338160206" lon="12.516400569970505"><ele>638.25</ele><time>2026-04-11T14:59:55.001Z</time></trkpt><trkpt lat="43.32011739815195" lon="12.516292925672118"><ele>639.0</ele><time>2026-04-11T14:59:56.001Z</time></trkpt><trkpt lat="43.320007352912135" lon="12.516213253588374"><ele>636.75</ele><time>2026-04-11T14:59:57.001Z</time></trkpt><trkpt lat="43.31989487460525" lon="12.5161843848752"><ele>634.5</ele><time>2026-04-11T14:59:58.001Z</time></trkpt><trkpt lat="43.319787911853304" lon="12.51619176447982"><ele>632.25</ele><time>2026-04-11T14:59:59.001Z</time></trkpt><trkpt lat="43.319703903801674" lon="12.516311190626261"><ele>630.0</ele><time>2026-04-11T15:00:00.001Z</time></trkpt><trkpt lat="43.31963328096465" lon="12.516428134471589"><ele>630.0</ele><time>2026-04-11T15:00:01.001Z</time></trkpt><trkpt lat="43.31955800979622" lon="12.516503555805532"><ele>630.0</ele><time>2026-04-11T15:00:02.001Z</time></trkpt><trkpt lat="43.319478712432634" lon="12.516497784528067"><ele>630.0</ele><time>2026-04-11T15:00:03.001Z</time></trkpt><trkpt lat="43.31943100107557" lon="12.516425824426637"><ele>630.0</ele><time>2026-04-11T15:00:04.001Z</time></trkpt><trkpt lat="43.319426346171895" lon="12.516324098240347"><ele>630.0</ele><time>2026-04-11T15:00:05.001Z</time></trkpt><trkpt lat="43.31945885794747" lon="12.51619211472285"><ele>630.0</ele><time>2026-04-11T15:00:06.001Z</time></trkpt><trkpt lat="43.31950647039739" lon="12.516057701373835"><ele>631.75</ele><time>2026-04-11T15:00:07.001Z</time></trkpt><trkpt lat="43.319584892131786" lon="12.515912603069012"><ele>633.5</ele><time>2026-04-11T15:00:08.001Z</time></trkpt><trkpt lat="43.31966424320351" lon="12.515733492448357"><ele>635.25</ele><time>2026-04-11T15:00:09.001Z</time></trkpt><trkpt lat="43.31972928692697" lon="12.515539239203768"><ele>637.0</ele><time>2026-04-11T15:00:10.001Z</time></trkpt><trkpt lat="43.31977532470832" lon="12.515367034887825"><ele>643.0</ele><time>2026-04-11T15:00:11.001Z</time></trkpt><trkpt lat="43.3198197737691" lon="12.515202634926567"><ele>649.0</ele><time>2026-04-11T15:00:12.001Z</time></trkpt><trkpt lat="43.31985042996135" lon="12.515035583500115"><ele>655.0</ele><time>2026-04-11T15:00:13.001Z</time></trkpt><trkpt lat="43.31985845528857" lon="12.514866029744747"><ele>661.0</ele><time>2026-04-11T15:00:14.001Z</time></trkpt><trkpt lat="43.31983721852122" lon="12.514679744796483"><ele>662.6666666666667</ele><time>2026-04-11T15:00:15.001Z</time></trkpt><trkpt lat="43.31977845478854" lon="12.514491705191475"><ele>664.3333333333334</ele><time>2026-04-11T15:00:16.001Z</time></trkpt><trkpt lat="43.31969427057851" lon="12.514310968943084"><ele>666.0</ele><time>2026-04-11T15:00:17.001Z</time></trkpt><trkpt lat="43.3195924099916" lon="12.51415914221623"><ele>666.0</ele><time>2026-04-11T15:00:18.001Z</time></trkpt><trkpt lat="43.31948086615867" lon="12.51404282230135"><ele>666.0</ele><time>2026-04-11T15:00:19.001Z</time></trkpt><trkpt lat="43.31936186319101" lon="12.513964168080747"><ele>666.0</ele><time>2026-04-11T15:00:20.001Z</time></trkpt><trkpt lat="43.31924564401033" lon="12.513922886223014"><ele>666.0</ele><time>2026-04-11T15:00:21.001Z</time></trkpt><trkpt lat="43.31912062629439" lon="12.513967012530639"><ele>666.0</ele><time>2026-04-11T15:00:22.001Z</time></trkpt><trkpt lat="43.31899876211254" lon="12.513984751478711"><ele>666.0</ele><time>2026-04-11T15:00:23.001Z</time></trkpt><trkpt lat="43.3188847517178" lon="12.514003366725726"><ele>666.0</ele><time>2026-04-11T15:00:24.001Z</time></trkpt><trkpt lat="43.318767792970895" lon="12.51397992735396"><ele>666.0</ele><time>2026-04-11T15:00:25.001Z</time></trkpt><trkpt lat="43.31866603760534" lon="12.513893720173721"><ele>664.0</ele><time>2026-04-11T15:00:26.001Z</time></trkpt><trkpt lat="43.31858859212116" lon="12.51378491054888"><ele>662.0</ele><time>2026-04-11T15:00:27.001Z</time></trkpt><trkpt lat="43.318550180699255" lon="12.513651480115472"><ele>660.0</ele><time>2026-04-11T15:00:28.001Z</time></trkpt><trkpt lat="43.31854338261121" lon="12.513498067499588"><ele>658.0</ele><time>2026-04-11T15:00:29.001Z</time></trkpt><trkpt lat="43.31853949989319" lon="12.513318541508621"><ele>662.0</ele><time>2026-04-11T15:00:30.001Z</time></trkpt><trkpt lat="43.31851633542427" lon="12.513130998820614"><ele>666.0</ele><time>2026-04-11T15:00:31.001Z</time></trkpt><trkpt lat="43.31849009540999" lon="12.5129786254688"><ele>670.0</ele><time>2026-04-11T15:00:32.001Z</time></trkpt><trkpt lat="43.31845069082509" lon="12.51282925528742"><ele>674.0</ele><time>2026-04-11T15:00:33.001Z</time></trkpt><trkpt lat="43.318382402713915" lon="12.5126859708882"><ele>673.5</ele><time>2026-04-11T15:00:34.001Z</time></trkpt><trkpt lat="43.318286692826156" lon="12.512549918058216"><ele>673.0</ele><time>2026-04-11T15:00:35.001Z</time></trkpt><trkpt lat="43.318180665166295" lon="12.512446623222534"><ele>672.5</ele><time>2026-04-11T15:00:36.001Z</time></trkpt><trkpt lat="43.31808556492409" lon="12.512356105999292"><ele>672.0</ele><time>2026-04-11T15:00:37.001Z</time></trkpt><trkpt lat="43.31800832319725" lon="12.512249399843416"><ele>672.0</ele><time>2026-04-11T15:00:38.001Z</time></trkpt><trkpt lat="43.317978631168266" lon="12.512112828211231"><ele>672.0</ele><time>2026-04-11T15:00:39.001Z</time></trkpt><trkpt lat="43.31797573774489" lon="12.511950485238366"><ele>672.0</ele><time>2026-04-11T15:00:40.001Z</time></trkpt><trkpt lat="43.317989835299265" lon="12.511766715007985"><ele>672.0</ele><time>2026-04-11T15:00:41.001Z</time></trkpt><trkpt lat="43.31799333541265" lon="12.511598910339812"><ele>673.75</ele><time>2026-04-11T15:00:42.001Z</time></trkpt><trkpt lat="43.31798712562898" lon="12.51144083570016"><ele>675.5</ele><time>2026-04-11T15:00:43.001Z</time></trkpt><trkpt lat="43.317963178949654" lon="12.511282742721459"><ele>677.25</ele><time>2026-04-11T15:00:44.001Z</time></trkpt><trkpt lat="43.31790464178217" lon="12.511130177441803"><ele>679.0</ele><time>2026-04-11T15:00:45.001Z</time></trkpt><trkpt lat="43.31781827839883" lon="12.510981459433388"><ele>681.75</ele><time>2026-04-11T15:00:46.001Z</time></trkpt><trkpt lat="43.31771186402247" lon="12.51084093268819"><ele>684.5</ele><time>2026-04-11T15:00:47.001Z</time></trkpt><trkpt lat="43.31760793250906" lon="12.510724324835502"><ele>687.25</ele><time>2026-04-11T15:00:48.001Z</time></trkpt><trkpt lat="43.31750247992516" lon="12.510624021458332"><ele>690.0</ele><time>2026-04-11T15:00:49.001Z</time></trkpt><trkpt lat="43.31738554535488" lon="12.510544797124838"><ele>690.0</ele><time>2026-04-11T15:00:50.001Z</time></trkpt><trkpt lat="43.31724128027489" lon="12.510510372125704"><ele>690.0</ele><time>2026-04-11T15:00:51.001Z</time></trkpt><trkpt lat="43.31709946029027" lon="12.51049866900773"><ele>690.0</ele><time>2026-04-11T15:00:52.001Z</time></trkpt><trkpt lat="43.31696466929596" lon="12.510501858717884"><ele>690.0</ele><time>2026-04-11T15:00:53.001Z</time></trkpt><trkpt lat="43.316831089920996" lon="12.510502763240313"><ele>691.0</ele><time>2026-04-11T15:00:54.001Z</time></trkpt><trkpt lat="43.3166887464241" lon="12.510503507766348"><ele>692.0</ele><time>2026-04-11T15:00:55.001Z</time></trkpt><trkpt lat="43.316552091337286" lon="12.510474482122484"><ele>693.0</ele><time>2026-04-11T15:00:56.001Z</time></trkpt><trkpt lat="43.31643112870834" lon="12.510405359401451"><ele>694.0</ele><time>2026-04-11T15:00:57.001Z</time></trkpt><trkpt lat="43.316319228320125" lon="12.510300059867921"><ele>697.0</ele><time>2026-04-11T15:00:58.001Z</time></trkpt><trkpt lat="43.31621698094198" lon="12.510171009917716"><ele>700.0</ele><time>2026-04-11T15:00:59.001Z</time></trkpt><trkpt lat="43.316109290526306" lon="12.510046459674571"><ele>703.0</ele><time>2026-04-11T15:01:00.001Z</time></trkpt><trkpt lat="43.31599647538405" lon="12.509964460387572"><ele>706.0</ele><time>2026-04-11T15:01:01.001Z</time></trkpt><trkpt lat="43.31586764966524" lon="12.509922702799182"><ele>706.0</ele><time>2026-04-11T15:01:02.001Z</time></trkpt><trkpt lat="43.3157214543966" lon="12.509907318326729"><ele>706.0</ele><time>2026-04-11T15:01:03.001Z</time></trkpt><trkpt lat="43.315563307990864" lon="12.509899262421774"><ele>706.0</ele><time>2026-04-11T15:01:04.002Z</time></trkpt><trkpt lat="43.31542439836911" lon="12.509881610322735"><ele>706.0</ele><time>2026-04-11T15:01:05Z</time></trkpt><trkpt lat="43.315294599003735" lon="12.509846651515954"><ele>706.5</ele><time>2026-04-11T15:01:06Z</time></trkpt><trkpt lat="43.31518244133042" lon="12.509780454494097"><ele>707.0</ele><time>2026-04-11T15:01:07Z</time></trkpt><trkpt lat="43.31509004065299" lon="12.509668696575453"><ele>707.5</ele><time>2026-04-11T15:01:08Z</time></trkpt><trkpt lat="43.31500935252809" lon="12.509523285878387"><ele>708.0</ele><time>2026-04-11T15:01:09Z</time></trkpt><trkpt lat="43.3149495872159" lon="12.509340594779703"><ele>711.5</ele><time>2026-04-11T15:01:10Z</time></trkpt><trkpt lat="43.3148961192374" lon="12.509155525375617"><ele>715.0</ele><time>2026-04-11T15:01:11Z</time></trkpt><trkpt lat="43.31484266671861" lon="12.508995222128718"><ele>718.5</ele><time>2026-04-11T15:01:12Z</time></trkpt><trkpt lat="43.314778758815955" lon="12.50884122232467"><ele>722.0</ele><time>2026-04-11T15:01:13Z</time></trkpt><trkpt lat="43.314708485509904" lon="12.50870074306562"><ele>724.0</ele><time>2026-04-11T15:01:14Z</time></trkpt><trkpt lat="43.314636935395946" lon="12.508561527201538"><ele>726.0</ele><time>2026-04-11T15:01:15Z</time></trkpt><trkpt lat="43.314571457300595" lon="12.508409088803912"><ele>728.0</ele><time>2026-04-11T15:01:16Z</time></trkpt><trkpt lat="43.314506486167076" lon="12.508248857852085"><ele>730.0</ele><time>2026-04-11T15:01:17Z</time></trkpt><trkpt lat="43.31443379325772" lon="12.508101996268367"><ele>730.0</ele><time>2026-04-11T15:01:18Z</time></trkpt><trkpt lat="43.31436151356433" lon="12.507958822541484"><ele>730.0</ele><time>2026-04-11T15:01:19Z</time></trkpt><trkpt lat="43.314283214008746" lon="12.507825762529425"><ele>730.0</ele><time>2026-04-11T15:01:20Z</time></trkpt><trkpt lat="43.31419836444567" lon="12.507700349206754"><ele>730.0</ele><time>2026-04-11T15:01:21Z</time></trkpt><trkpt lat="43.31411042156411" lon="12.50757413599241"><ele>730.25</ele><time>2026-04-11T15:01:22Z</time></trkpt><trkpt lat="43.31401004881011" lon="12.507435506971884"><ele>730.5</ele><time>2026-04-11T15:01:23Z</time></trkpt><trkpt lat="43.31390992440104" lon="12.507301811558191"><ele>730.75</ele><time>2026-04-11T15:01:24Z</time></trkpt><trkpt lat="43.313817432743576" lon="12.507163882713431"><ele>731.0</ele><time>2026-04-11T15:01:25Z</time></trkpt><trkpt lat="43.31372999691727" lon="12.507027449582623"><ele>732.5</ele><time>2026-04-11T15:01:26Z</time></trkpt><trkpt lat="43.31363743872682" lon="12.506894322990984"><ele>734.0</ele><time>2026-04-11T15:01:27Z</time></trkpt><trkpt lat="43.31352842601305" lon="12.506774146385803"><ele>735.5</ele><time>2026-04-11T15:01:28Z</time></trkpt><trkpt lat="43.313390996357704" lon="12.506667976445021"><ele>737.0</ele><time>2026-04-11T15:01:29Z</time></trkpt><trkpt lat="43.31322890912441" lon="12.506570841912305"><ele>738.6666666666666</ele><time>2026-04-11T15:01:30Z</time></trkpt><trkpt lat="43.31306081240573" lon="12.506454462587884"><ele>740.3333333333334</ele><time>2026-04-11T15:01:31Z</time></trkpt><trkpt lat="43.312911198482475" lon="12.506300731327574"><ele>742.0</ele><time>2026-04-11T15:01:32Z</time></trkpt><trkpt lat="43.312792859093356" lon="12.50613612128928"><ele>742.0</ele><time>2026-04-11T15:01:33Z</time></trkpt><trkpt lat="43.31265801008954" lon="12.505983589770153"><ele>742.0</ele><time>2026-04-11T15:01:34Z</time></trkpt><trkpt lat="43.31249705407497" lon="12.50585545505037"><ele>742.0</ele><time>2026-04-11T15:01:35Z</time></trkpt><trkpt lat="43.31234690988024" lon="12.50575756767507"><ele>745.0</ele><time>2026-04-11T15:01:36Z</time></trkpt><trkpt lat="43.3122062512322" lon="12.505664048941977"><ele>748.0</ele><time>2026-04-11T15:01:37Z</time></trkpt><trkpt lat="43.31207464229851" lon="12.505553905131057"><ele>751.0</ele><time>2026-04-11T15:01:38Z</time></trkpt><trkpt lat="43.31196609512186" lon="12.505417208487112"><ele>750.0</ele><time>2026-04-11T15:01:39Z</time></trkpt><trkpt lat="43.31187052118196" lon="12.505289904537875"><ele>749.0</ele><time>2026-04-11T15:01:40Z</time></trkpt><trkpt lat="43.31177263006878" lon="12.505183035346736"><ele>748.0</ele><time>2026-04-11T15:01:41Z</time></trkpt><trkpt lat="43.311670484742415" lon="12.505134426916994"><ele>747.0</ele><time>2026-04-11T15:01:42Z</time></trkpt><trkpt lat="43.31156415293079" lon="12.505145535174758"><ele>747.0</ele><time>2026-04-11T15:01:43Z</time></trkpt><trkpt lat="43.31143974482178" lon="12.505197918092426"><ele>747.0</ele><time>2026-04-11T15:01:44Z</time></trkpt><trkpt lat="43.31131295927785" lon="12.505271345468492"><ele>747.0</ele><time>2026-04-11T15:01:45Z</time></trkpt><trkpt lat="43.31119166406275" lon="12.505339053061395"><ele>747.0</ele><time>2026-04-11T15:01:46Z</time></trkpt><trkpt lat="43.31107842974336" lon="12.505392125023654"><ele>747.8</ele><time>2026-04-11T15:01:47Z</time></trkpt><trkpt lat="43.310965356611824" lon="12.505432187428271"><ele>748.6</ele><time>2026-04-11T15:01:48Z</time></trkpt><trkpt lat="43.310857670248865" lon="12.505456229612205"><ele>749.4</ele><time>2026-04-11T15:01:49Z</time></trkpt><trkpt lat="43.310747658062574" lon="12.50545789893608"><ele>750.1999999999999</ele><time>2026-04-11T15:01:50Z</time></trkpt><trkpt lat="43.310639810784764" lon="12.505434285581185"><ele>751.0</ele><time>2026-04-11T15:01:51Z</time></trkpt><trkpt lat="43.310535486165925" lon="12.5054041624763"><ele>749.4</ele><time>2026-04-11T15:01:52Z</time></trkpt><trkpt lat="43.31042885318031" lon="12.505375294975044"><ele>747.8</ele><time>2026-04-11T15:01:53Z</time></trkpt><trkpt lat="43.3103230834693" lon="12.505360447516782"><ele>746.1999999999999</ele><time>2026-04-11T15:01:54Z</time></trkpt><trkpt lat="43.3102106196846" lon="12.50534448955808"><ele>744.5999999999999</ele><time>2026-04-11T15:01:55Z</time></trkpt><trkpt lat="43.310092624000454" lon="12.505351975409193"><ele>743.0</ele><time>2026-04-11T15:01:56.001Z</time></trkpt><trkpt lat="43.3099642473882" lon="12.505348682693587"><ele>743.0</ele><time>2026-04-11T15:01:57.001Z</time></trkpt><trkpt lat="43.30984251298428" lon="12.505369305338172"><ele>743.0</ele><time>2026-04-11T15:01:58.001Z</time></trkpt><trkpt lat="43.309720755569195" lon="12.50538993188692"><ele>743.0</ele><time>2026-04-11T15:01:59.001Z</time></trkpt><trkpt lat="43.309599282416194" lon="12.505410246000135"><ele>743.0</ele><time>2026-04-11T15:02:00.001Z</time></trkpt><trkpt lat="43.309474105416065" lon="12.505430271601657"><ele>745.5</ele><time>2026-04-11T15:02:01.001Z</time></trkpt><trkpt lat="43.30934852373283" lon="12.505474849600184"><ele>748.0</ele><time>2026-04-11T15:02:02.001Z</time></trkpt><trkpt lat="43.30922209230372" lon="12.505503924143976"><ele>750.5</ele><time>2026-04-11T15:02:03.001Z</time></trkpt><trkpt lat="43.30909476712997" lon="12.505521764568236"><ele>753.0</ele><time>2026-04-11T15:02:04.001Z</time></trkpt><trkpt lat="43.30897690546717" lon="12.505560666520335"><ele>750.75</ele><time>2026-04-11T15:02:05.001Z</time></trkpt><trkpt lat="43.30886161903587" lon="12.505600204544065"><ele>748.5</ele><time>2026-04-11T15:02:06.001Z</time></trkpt><trkpt lat="43.308747766017525" lon="12.505607444626039"><ele>746.25</ele><time>2026-04-11T15:02:07.001Z</time></trkpt><trkpt lat="43.30864129147376" lon="12.505542207442197"><ele>744.0</ele><time>2026-04-11T15:02:08.001Z</time></trkpt><trkpt lat="43.30854952950536" lon="12.505450140607826"><ele>743.8000000000001</ele><time>2026-04-11T15:02:09.001Z</time></trkpt><trkpt lat="43.30847403299793" lon="12.505334193303874"><ele>743.6</ele><time>2026-04-11T15:02:10.001Z</time></trkpt><trkpt lat="43.308420017814406" lon="12.505209808123679"><ele>743.4</ele><time>2026-04-11T15:02:11.001Z</time></trkpt><trkpt lat="43.308372096978786" lon="12.505089609118027"><ele>743.2</ele><time>2026-04-11T15:02:12.001Z</time></trkpt><trkpt lat="43.30832490828692" lon="12.504980330079055"><ele>743.0</ele><time>2026-04-11T15:02:13.001Z</time></trkpt><trkpt lat="43.308268079995266" lon="12.504885388295655"><ele>743.0</ele><time>2026-04-11T15:02:14.001Z</time></trkpt><trkpt lat="43.30819284619001" lon="12.504792546531162"><ele>743.0</ele><time>2026-04-11T15:02:15.001Z</time></trkpt><trkpt lat="43.30809672080004" lon="12.504715008621034"><ele>743.0</ele><time>2026-04-11T15:02:16.001Z</time></trkpt><trkpt lat="43.30798440268895" lon="12.504652177140137"><ele>743.0</ele><time>2026-04-11T15:02:17.001Z</time></trkpt><trkpt lat="43.30786596967403" lon="12.504583145247812"><ele>745.0</ele><time>2026-04-11T15:02:18.001Z</time></trkpt><trkpt lat="43.307742300966254" lon="12.504560296032267"><ele>747.0</ele><time>2026-04-11T15:02:19.001Z</time></trkpt><trkpt lat="43.3076137781143" lon="12.504559545182392"><ele>749.0</ele><time>2026-04-11T15:02:20.001Z</time></trkpt><trkpt lat="43.30748270785508" lon="12.504581417516164"><ele>751.0</ele><time>2026-04-11T15:02:21.001Z</time></trkpt><trkpt lat="43.30735942162075" lon="12.50461434050248"><ele>746.75</ele><time>2026-04-11T15:02:22.001Z</time></trkpt><trkpt lat="43.30724288376532" lon="12.504654767837396"><ele>742.5</ele><time>2026-04-11T15:02:23.001Z</time></trkpt><trkpt lat="43.30713759450396" lon="12.504718074921593"><ele>738.25</ele><time>2026-04-11T15:02:24.001Z</time></trkpt><trkpt lat="43.30702936933064" lon="12.504749041165352"><ele>734.0</ele><time>2026-04-11T15:02:25.001Z</time></trkpt><trkpt lat="43.30694069742733" lon="12.504831827560636"><ele>734.0</ele><time>2026-04-11T15:02:26.001Z</time></trkpt><trkpt lat="43.3068713376251" lon="12.504965274449146"><ele>734.0</ele><time>2026-04-11T15:02:27.001Z</time></trkpt><trkpt lat="43.30680633734257" lon="12.505115230023229"><ele>734.0</ele><time>2026-04-11T15:02:28.001Z</time></trkpt><trkpt lat="43.30674074573417" lon="12.505273601523287"><ele>734.0</ele><time>2026-04-11T15:02:29.001Z</time></trkpt><trkpt lat="43.306673706495324" lon="12.50542265141597"><ele>733.5</ele><time>2026-04-11T15:02:30.001Z</time></trkpt><trkpt lat="43.306604287571105" lon="12.505565866237369"><ele>733.0</ele><time>2026-04-11T15:02:31.001Z</time></trkpt><trkpt lat="43.30653060185863" lon="12.505698866172178"><ele>732.5</ele><time>2026-04-11T15:02:32.001Z</time></trkpt><trkpt lat="43.306461593728294" lon="12.505839441459363"><ele>732.0</ele><time>2026-04-11T15:02:33.001Z</time></trkpt><trkpt lat="43.30638105774489" lon="12.505956771689315"><ele>732.0</ele><time>2026-04-11T15:02:34.001Z</time></trkpt><trkpt lat="43.306298184190574" lon="12.506073819252695"><ele>732.0</ele><time>2026-04-11T15:02:35.001Z</time></trkpt><trkpt lat="43.30620592559978" lon="12.506176299814557"><ele>732.0</ele><time>2026-04-11T15:02:36.001Z</time></trkpt><trkpt lat="43.30610271791246" lon="12.506248375639432"><ele>732.0</ele><time>2026-04-11T15:02:37.001Z</time></trkpt><trkpt lat="43.305994614223735" lon="12.506288213317044"><ele>732.0</ele><time>2026-04-11T15:02:38.001Z</time></trkpt><trkpt lat="43.305888001261216" lon="12.50627568046622"><ele>732.0</ele><time>2026-04-11T15:02:39.001Z</time></trkpt><trkpt lat="43.30579588118542" lon="12.506209891224453"><ele>732.0</ele><time>2026-04-11T15:02:40.001Z</time></trkpt><trkpt lat="43.30567954161326" lon="12.506136769793201"><ele>732.0</ele><time>2026-04-11T15:02:41.001Z</time></trkpt><trkpt lat="43.30555963742415" lon="12.506058817983506"><ele>733.5</ele><time>2026-04-11T15:02:42.001Z</time></trkpt><trkpt lat="43.30544370769662" lon="12.50598939338945"><ele>735.0</ele><time>2026-04-11T15:02:43.001Z</time></trkpt><trkpt lat="43.30533589835443" lon="12.50591039369803"><ele>736.5</ele><time>2026-04-11T15:02:44.001Z</time></trkpt><trkpt lat="43.30522811315775" lon="12.505839631894126"><ele>738.0</ele><time>2026-04-11T15:02:45.001Z</time></trkpt><trkpt lat="43.305121688117346" lon="12.505776732215239"><ele>738.0</ele><time>2026-04-11T15:02:46.001Z</time></trkpt><trkpt lat="43.30502150062918" lon="12.505705618007228"><ele>738.0</ele><time>2026-04-11T15:02:47.001Z</time></trkpt><trkpt lat="43.30492138948264" lon="12.505643175732443"><ele>738.0</ele><time>2026-04-11T15:02:48.001Z</time></trkpt><trkpt lat="43.304819127295005" lon="12.50560255198826"><ele>738.0</ele><time>2026-04-11T15:02:49.001Z</time></trkpt><trkpt lat="43.304711485650955" lon="12.505591771391337"><ele>738.0</ele><time>2026-04-11T15:02:50.001Z</time></trkpt><trkpt lat="43.30460944177962" lon="12.50561129167441"><ele>737.5</ele><time>2026-04-11T15:02:51.001Z</time></trkpt><trkpt lat="43.30452172751384" lon="12.505652767786758"><ele>737.0</ele><time>2026-04-11T15:02:52.001Z</time></trkpt><trkpt lat="43.30444046244696" lon="12.50570724708745"><ele>736.5</ele><time>2026-04-11T15:02:53.001Z</time></trkpt><trkpt lat="43.30436988793531" lon="12.505755081058242"><ele>736.0</ele><time>2026-04-11T15:02:54.001Z</time></trkpt><trkpt lat="43.30430449780519" lon="12.505794452348074"><ele>735.5</ele><time>2026-04-11T15:02:55.001Z</time></trkpt><trkpt lat="43.30421692921187" lon="12.505825944458149"><ele>735.0</ele><time>2026-04-11T15:02:57.001Z</time></trkpt><trkpt lat="43.30415000690837" lon="12.505877864168568"><ele>735.0</ele><time>2026-04-11T15:03:00.001Z</time></trkpt><trkpt lat="43.304080701930886" lon="12.50589266059232"><ele>735.0</ele><time>2026-04-11T15:03:39Z</time></trkpt><trkpt lat="43.304022809431444" lon="12.505937202424496"><ele>735.0</ele><time>2026-04-11T15:03:43Z</time></trkpt><trkpt lat="43.303947255809256" lon="12.50597658098444"><ele>735.0</ele><time>2026-04-11T15:03:45Z</time></trkpt><trkpt lat="43.30383923185536" lon="12.505995892526961"><ele>735.0</ele><time>2026-04-11T15:03:47Z</time></trkpt><trkpt lat="43.30378477903211" lon="12.50585411618405"><ele>735.0</ele><time>2026-04-11T15:03:49Z</time></trkpt><trkpt lat="43.30374669568175" lon="12.505760125128052"><ele>734.3333333333334</ele><time>2026-04-11T15:03:50Z</time></trkpt><trkpt lat="43.30372548533601" lon="12.505657691733672"><ele>733.6666666666666</ele><time>2026-04-11T15:03:51Z</time></trkpt><trkpt lat="43.303655454397855" lon="12.505579864014695"><ele>733.0</ele><time>2026-04-11T15:03:52Z</time></trkpt><trkpt lat="43.3035541185134" lon="12.505584908412471"><ele>732.3333333333333</ele><time>2026-04-11T15:03:53Z</time></trkpt><trkpt lat="43.30347414232475" lon="12.50557242486715"><ele>731.6666666666666</ele><time>2026-04-11T15:03:54Z</time></trkpt><trkpt lat="43.30339513402201" lon="12.505543556370844"><ele>731.0</ele><time>2026-04-11T15:03:55Z</time></trkpt><trkpt lat="43.30332899692892" lon="12.505469325960261"><ele>729.0</ele><time>2026-04-11T15:03:56Z</time></trkpt><trkpt lat="43.303283309467375" lon="12.505365096000618"><ele>727.0</ele><time>2026-04-11T15:03:57Z</time></trkpt><trkpt lat="43.30324937157836" lon="12.505248147812948"><ele>725.0</ele><time>2026-04-11T15:03:58Z</time></trkpt><trkpt lat="43.30321560947558" lon="12.50512683888668"><ele>723.0</ele><time>2026-04-11T15:03:59Z</time></trkpt><trkpt lat="43.30317968360318" lon="12.504996710629005"><ele>721.0</ele><time>2026-04-11T15:04:00Z</time></trkpt><trkpt lat="43.303143607768526" lon="12.50486975587341"><ele>721.0</ele><time>2026-04-11T15:04:01Z</time></trkpt><trkpt lat="43.30310831267037" lon="12.504744691098074"><ele>721.0</ele><time>2026-04-11T15:04:02.001Z</time></trkpt><trkpt lat="43.30306931609106" lon="12.504623070651927"><ele>721.0</ele><time>2026-04-11T15:04:03.001Z</time></trkpt><trkpt lat="43.30302868333382" lon="12.504504860265627"><ele>721.0</ele><time>2026-04-11T15:04:04.001Z</time></trkpt><trkpt lat="43.30298635575177" lon="12.504393887918631"><ele>721.0</ele><time>2026-04-11T15:04:05.001Z</time></trkpt><trkpt lat="43.302936164605384" lon="12.504294277929903"><ele>720.1999999999999</ele><time>2026-04-11T15:04:06.001Z</time></trkpt><trkpt lat="43.30287780570626" lon="12.504184331992931"><ele>719.4</ele><time>2026-04-11T15:04:07.001Z</time></trkpt><trkpt lat="43.30281510017824" lon="12.50406344238814"><ele>718.6</ele><time>2026-04-11T15:04:08.001Z</time></trkpt><trkpt lat="43.30275260190768" lon="12.503925175342918"><ele>717.8</ele><time>2026-04-11T15:04:09.001Z</time></trkpt><trkpt lat="43.30269807683863" lon="12.503781774246518"><ele>717.0</ele><time>2026-04-11T15:04:10.001Z</time></trkpt><trkpt lat="43.30265648410608" lon="12.503630461454298"><ele>717.0</ele><time>2026-04-11T15:04:11.001Z</time></trkpt><trkpt lat="43.30262236386614" lon="12.50347562429086"><ele>717.0</ele><time>2026-04-11T15:04:12.001Z</time></trkpt><trkpt lat="43.30259916175765" lon="12.503321183288351"><ele>717.0</ele><time>2026-04-11T15:04:13.001Z</time></trkpt><trkpt lat="43.30258488108126" lon="12.503165497251267"><ele>717.0</ele><time>2026-04-11T15:04:14.001Z</time></trkpt><trkpt lat="43.30256581278335" lon="12.503013783567875"><ele>715.6666666666666</ele><time>2026-04-11T15:04:15.001Z</time></trkpt><trkpt lat="43.30256474454376" lon="12.502881355343629"><ele>714.3333333333334</ele><time>2026-04-11T15:04:16.001Z</time></trkpt><trkpt lat="43.302556455916175" lon="12.50277168602439"><ele>713.0</ele><time>2026-04-11T15:04:17.001Z</time></trkpt><trkpt lat="43.30255068778508" lon="12.502675049097542"><ele>711.6666666666667</ele><time>2026-04-11T15:04:18.001Z</time></trkpt><trkpt lat="43.30255447847983" lon="12.502584829967521"><ele>710.3333333333334</ele><time>2026-04-11T15:04:19.001Z</time></trkpt><trkpt lat="43.302621376120236" lon="12.50242173306355"><ele>709.0</ele><time>2026-04-11T15:04:21.001Z</time></trkpt><trkpt lat="43.30270618755164" lon="12.502357649383761"><ele>709.0</ele><time>2026-04-11T15:04:22.001Z</time></trkpt><trkpt lat="43.302796055137" lon="12.502286439042996"><ele>709.0</ele><time>2026-04-11T15:04:23.001Z</time></trkpt><trkpt lat="43.30287407115652" lon="12.50221428162381"><ele>709.0</ele><time>2026-04-11T15:04:24.001Z</time></trkpt><trkpt lat="43.302948907421445" lon="12.50213743357276"><ele>709.0</ele><time>2026-04-11T15:04:25.001Z</time></trkpt><trkpt lat="43.30301885750483" lon="12.502065683039687"><ele>709.0</ele><time>2026-04-11T15:04:26.001Z</time></trkpt><trkpt lat="43.30308198379604" lon="12.502002210609614"><ele>707.2</ele><time>2026-04-11T15:04:27.001Z</time></trkpt><trkpt lat="43.303166719137565" lon="12.501912378585528"><ele>705.4000000000001</ele><time>2026-04-11T15:04:29.001Z</time></trkpt><trkpt lat="43.30318358669199" lon="12.50181972286677"><ele>703.6</ele><time>2026-04-11T15:04:30.001Z</time></trkpt><trkpt lat="43.30311334581939" lon="12.501710579243253"><ele>701.8</ele><time>2026-04-11T15:04:31.001Z</time></trkpt><trkpt lat="43.303123881062625" lon="12.501555996836071"><ele>700.0</ele><time>2026-04-11T15:04:33.001Z</time></trkpt><trkpt lat="43.30318695730233" lon="12.50150672427768"><ele>700.0</ele><time>2026-04-11T15:04:34.001Z</time></trkpt><trkpt lat="43.303281968453206" lon="12.501488170330317"><ele>700.0</ele><time>2026-04-11T15:04:35.001Z</time></trkpt><trkpt lat="43.30337839336625" lon="12.501463611313886"><ele>700.0</ele><time>2026-04-11T15:04:36.001Z</time></trkpt><trkpt lat="43.30347823140251" lon="12.501424029405493"><ele>700.0</ele><time>2026-04-11T15:04:37.001Z</time></trkpt><trkpt lat="43.30356678820249" lon="12.501378199896017"><ele>700.0</ele><time>2026-04-11T15:04:38.001Z</time></trkpt><trkpt lat="43.30365577788842" lon="12.501333632448066"><ele>700.0</ele><time>2026-04-11T15:04:39.001Z</time></trkpt><trkpt lat="43.30375302699502" lon="12.50128263650904"><ele>700.0</ele><time>2026-04-11T15:04:40.001Z</time></trkpt><trkpt lat="43.303843923984225" lon="12.501231467630724"><ele>700.0</ele><time>2026-04-11T15:04:41.001Z</time></trkpt><trkpt lat="43.303929196938164" lon="12.501167186327462"><ele>700.0</ele><time>2026-04-11T15:04:42.001Z</time></trkpt><trkpt lat="43.30402405093633" lon="12.501119757956376"><ele>700.0</ele><time>2026-04-11T15:04:43.001Z</time></trkpt><trkpt lat="43.304101391491855" lon="12.501020706867536"><ele>696.6</ele><time>2026-04-11T15:04:44.001Z</time></trkpt><trkpt lat="43.304157862136876" lon="12.50090020851816"><ele>693.2</ele><time>2026-04-11T15:04:45.001Z</time></trkpt><trkpt lat="43.304221838053394" lon="12.500791463573082"><ele>689.8</ele><time>2026-04-11T15:04:46.001Z</time></trkpt><trkpt lat="43.304285891723495" lon="12.500674623538714"><ele>686.4</ele><time>2026-04-11T15:04:47.001Z</time></trkpt><trkpt lat="43.30434578317097" lon="12.50054898383072"><ele>683.0</ele><time>2026-04-11T15:04:48.001Z</time></trkpt><trkpt lat="43.304400935431225" lon="12.500417574033873"><ele>680.5</ele><time>2026-04-11T15:04:49.001Z</time></trkpt><trkpt lat="43.304460886980024" lon="12.50028464410911"><ele>678.0</ele><time>2026-04-11T15:04:50.001Z</time></trkpt><trkpt lat="43.304537279670875" lon="12.500161446236088"><ele>675.5</ele><time>2026-04-11T15:04:51.001Z</time></trkpt><trkpt lat="43.30464171734549" lon="12.500085383224596"><ele>673.0</ele><time>2026-04-11T15:04:52.001Z</time></trkpt><trkpt lat="43.30472329522986" lon="12.499970261698918"><ele>673.4</ele><time>2026-04-11T15:04:53.001Z</time></trkpt><trkpt lat="43.30480609216223" lon="12.499876049651116"><ele>673.8</ele><time>2026-04-11T15:04:54.001Z</time></trkpt><trkpt lat="43.30486951380455" lon="12.499758291094949"><ele>674.2</ele><time>2026-04-11T15:04:55.001Z</time></trkpt><trkpt lat="43.30491119456253" lon="12.499617048619374"><ele>674.6</ele><time>2026-04-11T15:04:56.001Z</time></trkpt><trkpt lat="43.30495130886838" lon="12.499484858194243"><ele>675.0</ele><time>2026-04-11T15:04:57.001Z</time></trkpt><trkpt lat="43.305004405537524" lon="12.49936048109139"><ele>673.8</ele><time>2026-04-11T15:04:58.001Z</time></trkpt><trkpt lat="43.30507269130545" lon="12.49923663305564"><ele>672.6</ele><time>2026-04-11T15:04:59.001Z</time></trkpt><trkpt lat="43.30514946715979" lon="12.499143117310789"><ele>671.4000000000001</ele><time>2026-04-11T15:05:00.001Z</time></trkpt><trkpt lat="43.30522202222843" lon="12.499059452544065"><ele>670.2</ele><time>2026-04-11T15:05:01.001Z</time></trkpt><trkpt lat="43.30527886791965" lon="12.498962197392109"><ele>669.0</ele><time>2026-04-11T15:05:02.001Z</time></trkpt><trkpt lat="43.30535255175231" lon="12.498875422002033"><ele>669.0</ele><time>2026-04-11T15:05:03.001Z</time></trkpt><trkpt lat="43.30541639003171" lon="12.498771818953637"><ele>669.0</ele><time>2026-04-11T15:05:04.001Z</time></trkpt><trkpt lat="43.30549120821514" lon="12.498678379265893"><ele>669.0</ele><time>2026-04-11T15:05:05.001Z</time></trkpt><trkpt lat="43.30555759639971" lon="12.498603768079981"><ele>669.0</ele><time>2026-04-11T15:05:06.001Z</time></trkpt><trkpt lat="43.30561557530847" lon="12.498541466679937"><ele>669.0</ele><time>2026-04-11T15:05:07.001Z</time></trkpt><trkpt lat="43.30566920386744" lon="12.498486290792956"><ele>669.0</ele><time>2026-04-11T15:05:08.001Z</time></trkpt><trkpt lat="43.3057228267004" lon="12.498431170511463"><ele>668.0</ele><time>2026-04-11T15:05:09.001Z</time></trkpt><trkpt lat="43.30582153482115" lon="12.498327415707436"><ele>667.0</ele><time>2026-04-11T15:05:11.001Z</time></trkpt><trkpt lat="43.30586265766749" lon="12.498260750884848"><ele>666.0</ele><time>2026-04-11T15:05:12.001Z</time></trkpt><trkpt lat="43.30591666254951" lon="12.498203759205254"><ele>665.0</ele><time>2026-04-11T15:05:13.001Z</time></trkpt><trkpt lat="43.305947267989154" lon="12.498114870062075"><ele>664.0</ele><time>2026-04-11T15:05:14.002Z</time></trkpt><trkpt lat="43.305957862093706" lon="12.498002702998761"><ele>663.0</ele><time>2026-04-11T15:05:15.002Z</time></trkpt><trkpt lat="43.305983052757206" lon="12.497879503775373"><ele>662.5</ele><time>2026-04-11T15:05:16.002Z</time></trkpt><trkpt lat="43.30599483988584" lon="12.497767148773399"><ele>662.0</ele><time>2026-04-11T15:05:17Z</time></trkpt><trkpt lat="43.30599406762705" lon="12.497652372834489"><ele>661.5</ele><time>2026-04-11T15:05:18Z</time></trkpt><trkpt lat="43.30599059550938" lon="12.497555369674549"><ele>661.0</ele><time>2026-04-11T15:05:19Z</time></trkpt><trkpt lat="43.30597828288379" lon="12.497464716539566"><ele>660.5</ele><time>2026-04-11T15:05:20Z</time></trkpt><trkpt lat="43.30596946569457" lon="12.497376485948298"><ele>660.0</ele><time>2026-04-11T15:05:21Z</time></trkpt><trkpt lat="43.30597322968857" lon="12.497209780867458"><ele>658.6</ele><time>2026-04-11T15:05:23Z</time></trkpt><trkpt lat="43.306026703168115" lon="12.497061996479827"><ele>657.2</ele><time>2026-04-11T15:05:25Z</time></trkpt><trkpt lat="43.30611234030346" lon="12.496932141406099"><ele>655.8</ele><time>2026-04-11T15:05:27Z</time></trkpt><trkpt lat="43.30618135881569" lon="12.496790202779085"><ele>654.4</ele><time>2026-04-11T15:05:29Z</time></trkpt><trkpt lat="43.306204502150244" lon="12.496700650913752"><ele>653.0</ele><time>2026-04-11T15:05:30Z</time></trkpt><trkpt lat="43.30622572667167" lon="12.496612882488623"><ele>653.0</ele><time>2026-04-11T15:05:31Z</time></trkpt><trkpt lat="43.306239091147894" lon="12.496525217279448"><ele>653.0</ele><time>2026-04-11T15:05:32Z</time></trkpt><trkpt lat="43.306241162778726" lon="12.496427852163382"><ele>653.0</ele><time>2026-04-11T15:05:33Z</time></trkpt><trkpt lat="43.306227818691504" lon="12.496334589882249"><ele>653.0</ele><time>2026-04-11T15:05:34Z</time></trkpt><trkpt lat="43.306199745981935" lon="12.496230969002369"><ele>653.0</ele><time>2026-04-11T15:05:35Z</time></trkpt><trkpt lat="43.306172120309476" lon="12.49612695457156"><ele>653.0</ele><time>2026-04-11T15:05:36Z</time></trkpt><trkpt lat="43.30614434945324" lon="12.4960156211334"><ele>650.4</ele><time>2026-04-11T15:05:37Z</time></trkpt><trkpt lat="43.306119626528904" lon="12.495883567985238"><ele>647.8</ele><time>2026-04-11T15:05:38Z</time></trkpt><trkpt lat="43.306103269126936" lon="12.49575914766019"><ele>645.2</ele><time>2026-04-11T15:05:39Z</time></trkpt><trkpt lat="43.30608831838488" lon="12.495628997330156"><ele>642.6</ele><time>2026-04-11T15:05:40Z</time></trkpt><trkpt lat="43.30607910076791" lon="12.495501674116941"><ele>640.0</ele><time>2026-04-11T15:05:41Z</time></trkpt><trkpt lat="43.30608639529454" lon="12.495378091760395"><ele>637.8</ele><time>2026-04-11T15:05:42Z</time></trkpt><trkpt lat="43.30610147485393" lon="12.495251026308432"><ele>635.6</ele><time>2026-04-11T15:05:43Z</time></trkpt><trkpt lat="43.30613514507076" lon="12.495129499968066"><ele>633.4</ele><time>2026-04-11T15:05:44Z</time></trkpt><trkpt lat="43.30616947074682" lon="12.495014114830052"><ele>631.2</ele><time>2026-04-11T15:05:45Z</time></trkpt><trkpt lat="43.30620135576986" lon="12.494892814515284"><ele>629.0</ele><time>2026-04-11T15:05:46Z</time></trkpt><trkpt lat="43.30621897364629" lon="12.494764177495771"><ele>629.0</ele><time>2026-04-11T15:05:47Z</time></trkpt><trkpt lat="43.30622464415169" lon="12.494635939533326"><ele>629.0</ele><time>2026-04-11T15:05:48Z</time></trkpt><trkpt lat="43.30622185569742" lon="12.494507546238184"><ele>629.0</ele><time>2026-04-11T15:05:49Z</time></trkpt><trkpt lat="43.30621881355227" lon="12.494383069801248"><ele>629.0</ele><time>2026-04-11T15:05:50Z</time></trkpt><trkpt lat="43.30620933664724" lon="12.494257781291665"><ele>629.0</ele><time>2026-04-11T15:05:51Z</time></trkpt><trkpt lat="43.3061945866352" lon="12.494130797239707"><ele>627.4</ele><time>2026-04-11T15:05:52Z</time></trkpt><trkpt lat="43.30617177398059" lon="12.494002506035327"><ele>625.8</ele><time>2026-04-11T15:05:53Z</time></trkpt><trkpt lat="43.30613798216071" lon="12.493879602474511"><ele>624.2</ele><time>2026-04-11T15:05:54Z</time></trkpt><trkpt lat="43.30610451360329" lon="12.493752305024909"><ele>622.6</ele><time>2026-04-11T15:05:55Z</time></trkpt><trkpt lat="43.30606522022485" lon="12.493619165489642"><ele>621.0</ele><time>2026-04-11T15:05:56Z</time></trkpt><trkpt lat="43.3060217301599" lon="12.493478582634818"><ele>619.4</ele><time>2026-04-11T15:05:57Z</time></trkpt><trkpt lat="43.30597489786642" lon="12.493336821713184"><ele>617.8</ele><time>2026-04-11T15:05:58.001Z</time></trkpt><trkpt lat="43.3059260751436" lon="12.493193138643074"><ele>616.1999999999999</ele><time>2026-04-11T15:05:59.001Z</time></trkpt><trkpt lat="43.30588501056143" lon="12.493055363565619"><ele>614.6</ele><time>2026-04-11T15:06:00.001Z</time></trkpt><trkpt lat="43.30585635242433" lon="12.492925486620106"><ele>613.0</ele><time>2026-04-11T15:06:01.001Z</time></trkpt><trkpt lat="43.30583614807501" lon="12.492805052257252"><ele>611.8333333333334</ele><time>2026-04-11T15:06:02.001Z</time></trkpt><trkpt lat="43.3058117814241" lon="12.492696438303641"><ele>610.6666666666667</ele><time>2026-04-11T15:06:03.001Z</time></trkpt><trkpt lat="43.30579489822633" lon="12.492587182259195"><ele>609.5</ele><time>2026-04-11T15:06:04.001Z</time></trkpt><trkpt lat="43.305755521907926" lon="12.492503331532362"><ele>608.3333333333334</ele><time>2026-04-11T15:06:05.001Z</time></trkpt><trkpt lat="43.305677724415794" lon="12.492434747249339"><ele>607.1666666666666</ele><time>2026-04-11T15:06:06.001Z</time></trkpt><trkpt lat="43.305597203032484" lon="12.492390180893816"><ele>606.0</ele><time>2026-04-11T15:06:07.001Z</time></trkpt><trkpt lat="43.3055206099038" lon="12.492353956013197"><ele>605.3333333333334</ele><time>2026-04-11T15:06:08.001Z</time></trkpt><trkpt lat="43.305443846345284" lon="12.492315754908576"><ele>604.6666666666666</ele><time>2026-04-11T15:06:09.001Z</time></trkpt><trkpt lat="43.305361807649575" lon="12.492274825360202"><ele>604.0</ele><time>2026-04-11T15:06:10.001Z</time></trkpt><trkpt lat="43.30527881414641" lon="12.492236150424244"><ele>603.3333333333333</ele><time>2026-04-11T15:06:11.001Z</time></trkpt><trkpt lat="43.30519697984219" lon="12.492198811434228"><ele>602.6666666666666</ele><time>2026-04-11T15:06:12.001Z</time></trkpt><trkpt lat="43.30511783437116" lon="12.492162699317012"><ele>602.0</ele><time>2026-04-11T15:06:13.001Z</time></trkpt><trkpt lat="43.30504723656898" lon="12.492130130671448"><ele>602.0</ele><time>2026-04-11T15:06:14.001Z</time></trkpt><trkpt lat="43.30497049852915" lon="12.492094360618317"><ele>602.0</ele><time>2026-04-11T15:06:15.001Z</time></trkpt><trkpt lat="43.30489324442136" lon="12.49206061452239"><ele>602.0</ele><time>2026-04-11T15:06:16.001Z</time></trkpt><trkpt lat="43.304812961177795" lon="12.492025041839117"><ele>602.0</ele><time>2026-04-11T15:06:17.001Z</time></trkpt><trkpt lat="43.3047370755486" lon="12.491981136680932"><ele>602.0</ele><time>2026-04-11T15:06:18.001Z</time></trkpt><trkpt lat="43.30465736927459" lon="12.491923006093211"><ele>602.0</ele><time>2026-04-11T15:06:19.001Z</time></trkpt><trkpt lat="43.30458601569705" lon="12.491847345280286"><ele>598.8000000000001</ele><time>2026-04-11T15:06:20.001Z</time></trkpt><trkpt lat="43.30450858470449" lon="12.491757864139208"><ele>595.6</ele><time>2026-04-11T15:06:21.001Z</time></trkpt><trkpt lat="43.30442391253449" lon="12.491678745505983"><ele>592.4000000000001</ele><time>2026-04-11T15:06:22.001Z</time></trkpt><trkpt lat="43.30434806583554" lon="12.491573652594592"><ele>589.2</ele><time>2026-04-11T15:06:23.001Z</time></trkpt><trkpt lat="43.30426249845652" lon="12.491475245503748"><ele>586.0</ele><time>2026-04-11T15:06:24.001Z</time></trkpt><trkpt lat="43.30417741847427" lon="12.491393499116965"><ele>586.0</ele><time>2026-04-11T15:06:25.001Z</time></trkpt><trkpt lat="43.304113975381334" lon="12.491308103209406"><ele>586.0</ele><time>2026-04-11T15:06:26.001Z</time></trkpt><trkpt lat="43.30404924012064" lon="12.491248794492577"><ele>586.0</ele><time>2026-04-11T15:06:27.001Z</time></trkpt><trkpt lat="43.30398313434007" lon="12.491198988007545"><ele>586.0</ele><time>2026-04-11T15:06:28.001Z</time></trkpt><trkpt lat="43.303901802189785" lon="12.491168266924893"><ele>586.0</ele><time>2026-04-11T15:06:29.001Z</time></trkpt><trkpt lat="43.303809109494104" lon="12.491160437152686"><ele>586.0</ele><time>2026-04-11T15:06:30.001Z</time></trkpt><trkpt lat="43.303702153731145" lon="12.491180921968011"><ele>584.8</ele><time>2026-04-11T15:06:31.001Z</time></trkpt><trkpt lat="43.303601517205074" lon="12.491189721833875"><ele>583.6</ele><time>2026-04-11T15:06:32.001Z</time></trkpt><trkpt lat="43.303501415338104" lon="12.491177619637027"><ele>582.4</ele><time>2026-04-11T15:06:33.001Z</time></trkpt><trkpt lat="43.303405240011884" lon="12.491165029307481"><ele>581.2</ele><time>2026-04-11T15:06:34.001Z</time></trkpt><trkpt lat="43.30329854902141" lon="12.4911600019184"><ele>580.0</ele><time>2026-04-11T15:06:35.001Z</time></trkpt><trkpt lat="43.30318086902346" lon="12.491173085886581"><ele>580.25</ele><time>2026-04-11T15:06:36.001Z</time></trkpt><trkpt lat="43.303054090694395" lon="12.491225586778706"><ele>580.5</ele><time>2026-04-11T15:06:37.001Z</time></trkpt><trkpt lat="43.302931883331325" lon="12.491281292946047"><ele>580.75</ele><time>2026-04-11T15:06:38.001Z</time></trkpt><trkpt lat="43.302819340434205" lon="12.491335530714734"><ele>581.0</ele><time>2026-04-11T15:06:39.001Z</time></trkpt><trkpt lat="43.302717598176514" lon="12.491392650035152"><ele>581.0</ele><time>2026-04-11T15:06:40.001Z</time></trkpt><trkpt lat="43.30261328404724" lon="12.491452588695577"><ele>581.0</ele><time>2026-04-11T15:06:41.001Z</time></trkpt><trkpt lat="43.30251389153055" lon="12.4915100420817"><ele>581.0</ele><time>2026-04-11T15:06:42.001Z</time></trkpt><trkpt lat="43.30241638357071" lon="12.491557882029428"><ele>581.0</ele><time>2026-04-11T15:06:43.001Z</time></trkpt><trkpt lat="43.30231703943078" lon="12.491586545861118"><ele>581.0</ele><time>2026-04-11T15:06:44.001Z</time></trkpt><trkpt lat="43.30221344693344" lon="12.491587901908366"><ele>581.8</ele><time>2026-04-11T15:06:45.001Z</time></trkpt><trkpt lat="43.302094876968276" lon="12.49159746039676"><ele>582.6</ele><time>2026-04-11T15:06:46.001Z</time></trkpt><trkpt lat="43.30198080223097" lon="12.491628237346152"><ele>583.4</ele><time>2026-04-11T15:06:47.001Z</time></trkpt><trkpt lat="43.301881278487514" lon="12.49164687320159"><ele>584.2</ele><time>2026-04-11T15:06:48.001Z</time></trkpt><trkpt lat="43.30180340443171" lon="12.491651833431177"><ele>585.0</ele><time>2026-04-11T15:06:49.001Z</time></trkpt><trkpt lat="43.30173686491438" lon="12.491664175611412"><ele>585.0</ele><time>2026-04-11T15:06:50.001Z</time></trkpt><trkpt lat="43.301672232298124" lon="12.491675905654075"><ele>585.0</ele><time>2026-04-11T15:06:51.001Z</time></trkpt><trkpt lat="43.301606927736344" lon="12.491565779471392"><ele>585.0</ele><time>2026-04-11T15:06:53.001Z</time></trkpt><trkpt lat="43.30164380821477" lon="12.491421759740339"><ele>585.0</ele><time>2026-04-11T15:06:55.001Z</time></trkpt><trkpt lat="43.301689834307716" lon="12.491332787841927"><ele>585.0</ele><time>2026-04-11T15:06:56.001Z</time></trkpt><trkpt lat="43.30172136681434" lon="12.49121471638307"><ele>584.2</ele><time>2026-04-11T15:06:57.001Z</time></trkpt><trkpt lat="43.301739524343446" lon="12.491074508491987"><ele>583.4</ele><time>2026-04-11T15:06:58.001Z</time></trkpt><trkpt lat="43.301770076875826" lon="12.490934015814776"><ele>582.6</ele><time>2026-04-11T15:06:59.001Z</time></trkpt><trkpt lat="43.30178063205431" lon="12.490783876931761"><ele>581.8</ele><time>2026-04-11T15:07:00.001Z</time></trkpt><trkpt lat="43.30178780537514" lon="12.490638580559809"><ele>581.0</ele><time>2026-04-11T15:07:01.001Z</time></trkpt><trkpt lat="43.301791749025135" lon="12.490496415965698"><ele>582.1666666666666</ele><time>2026-04-11T15:07:02.001Z</time></trkpt><trkpt lat="43.30178636852808" lon="12.49037091299261"><ele>583.3333333333333</ele><time>2026-04-11T15:07:03.001Z</time></trkpt><trkpt lat="43.30175376312683" lon="12.490259237311081"><ele>584.5</ele><time>2026-04-11T15:07:04.001Z</time></trkpt><trkpt lat="43.30171195285139" lon="12.490150833900937"><ele>585.6666666666666</ele><time>2026-04-11T15:07:05.001Z</time></trkpt><trkpt lat="43.30165678181795" lon="12.490050236459782"><ele>586.8333333333334</ele><time>2026-04-11T15:07:06.001Z</time></trkpt><trkpt lat="43.30161385598016" lon="12.489965333991684"><ele>588.0</ele><time>2026-04-11T15:07:07.001Z</time></trkpt><trkpt lat="43.30157786890015" lon="12.489869200322158"><ele>588.0</ele><time>2026-04-11T15:07:08.001Z</time></trkpt><trkpt lat="43.30157162470603" lon="12.489758973099676"><ele>588.0</ele><time>2026-04-11T15:07:09.001Z</time></trkpt><trkpt lat="43.30155141464968" lon="12.489650565666384"><ele>588.0</ele><time>2026-04-11T15:07:10.001Z</time></trkpt><trkpt lat="43.301515295174276" lon="12.489534863586426"><ele>588.0</ele><time>2026-04-11T15:07:11.001Z</time></trkpt><trkpt lat="43.30151301342855" lon="12.48941376490106"><ele>588.0</ele><time>2026-04-11T15:07:12.001Z</time></trkpt><trkpt lat="43.30150735178157" lon="12.489297735104042"><ele>588.0</ele><time>2026-04-11T15:07:13.001Z</time></trkpt><trkpt lat="43.30149441101541" lon="12.489168096311783"><ele>589.4</ele><time>2026-04-11T15:07:14.002Z</time></trkpt><trkpt lat="43.30146981923595" lon="12.489044202402004"><ele>590.8</ele><time>2026-04-11T15:07:15.002Z</time></trkpt><trkpt lat="43.30144513469926" lon="12.488932122437516"><ele>592.2</ele><time>2026-04-11T15:07:16.002Z</time></trkpt><trkpt lat="43.30142713628774" lon="12.488831793341376"><ele>593.6</ele><time>2026-04-11T15:07:17.002Z</time></trkpt><trkpt lat="43.30141189617045" lon="12.488702203313593"><ele>595.0</ele><time>2026-04-11T15:07:18.002Z</time></trkpt><trkpt lat="43.30138747748314" lon="12.488559085309635"><ele>599.0</ele><time>2026-04-11T15:07:19.002Z</time></trkpt><trkpt lat="43.30135871176261" lon="12.48839124499542"><ele>603.0</ele><time>2026-04-11T15:07:20.002Z</time></trkpt><trkpt lat="43.30132852892699" lon="12.488208335420138"><ele>607.0</ele><time>2026-04-11T15:07:21.002Z</time></trkpt><trkpt lat="43.30129286383423" lon="12.488018074329313"><ele>611.0</ele><time>2026-04-11T15:07:22.002Z</time></trkpt><trkpt lat="43.301255757460446" lon="12.487854386337505"><ele>613.25</ele><time>2026-04-11T15:07:23Z</time></trkpt><trkpt lat="43.30121488966266" lon="12.487696319691397"><ele>615.5</ele><time>2026-04-11T15:07:24Z</time></trkpt><trkpt lat="43.3011730073039" lon="12.487534639762297"><ele>617.75</ele><time>2026-04-11T15:07:25Z</time></trkpt><trkpt lat="43.30114383686256" lon="12.48736616851142"><ele>620.0</ele><time>2026-04-11T15:07:26Z</time></trkpt><trkpt lat="43.301123778638214" lon="12.487217748761806"><ele>621.4</ele><time>2026-04-11T15:07:27Z</time></trkpt><trkpt lat="43.30110923581767" lon="12.487089401699409"><ele>622.8</ele><time>2026-04-11T15:07:28Z</time></trkpt><trkpt lat="43.30109905667468" lon="12.486953744799242"><ele>624.2</ele><time>2026-04-11T15:07:29Z</time></trkpt><trkpt lat="43.30109325533525" lon="12.486807075821432"><ele>625.6</ele><time>2026-04-11T15:07:30Z</time></trkpt><trkpt lat="43.301088724463206" lon="12.486652914691796"><ele>627.0</ele><time>2026-04-11T15:07:31Z</time></trkpt><trkpt lat="43.30108385822804" lon="12.48651853162726"><ele>627.0</ele><time>2026-04-11T15:07:32Z</time></trkpt><trkpt lat="43.3010752627144" lon="12.486403604319177"><ele>627.0</ele><time>2026-04-11T15:07:33Z</time></trkpt><trkpt lat="43.30106066826639" lon="12.486308597692906"><ele>627.0</ele><time>2026-04-11T15:07:34Z</time></trkpt><trkpt lat="43.30100940632112" lon="12.486159838376443"><ele>627.0</ele><time>2026-04-11T15:07:36Z</time></trkpt><trkpt lat="43.30095836347726" lon="12.486052739980574"><ele>627.0</ele><time>2026-04-11T15:07:38Z</time></trkpt><trkpt lat="43.3009067482169" lon="12.485983196210217"><ele>627.0</ele><time>2026-04-11T15:07:40Z</time></trkpt><trkpt lat="43.300840378525365" lon="12.485938445018894"><ele>628.0</ele><time>2026-04-11T15:07:43Z</time></trkpt><trkpt lat="43.30076449857785" lon="12.485895243269425"><ele>629.0</ele><time>2026-04-11T15:10:43.001Z</time></trkpt><trkpt lat="43.300640767605735" lon="12.485906888077377"><ele>630.0</ele><time>2026-04-11T15:10:46.001Z</time></trkpt><trkpt lat="43.30078420959141" lon="12.485900331800073"><ele>631.0</ele><time>2026-04-11T15:10:48.001Z</time></trkpt><trkpt lat="43.30072009719593" lon="12.48588134135784"><ele>632.0</ele><time>2026-04-11T15:17:52.001Z</time></trkpt><trkpt lat="43.30069256145666" lon="12.485736222854742"><ele>632.0</ele><time>2026-04-11T15:17:57Z</time></trkpt><trkpt lat="43.30068555760955" lon="12.485628731528777"><ele>632.0</ele><time>2026-04-11T15:18:00Z</time></trkpt><trkpt lat="43.30066533452904" lon="12.48554030243767"><ele>632.0</ele><time>2026-04-11T15:18:02Z</time></trkpt><trkpt lat="43.300672941006766" lon="12.485437911036781"><ele>632.0</ele><time>2026-04-11T15:18:04Z</time></trkpt><trkpt lat="43.30069773704985" lon="12.485334613920239"><ele>632.0</ele><time>2026-04-11T15:18:07Z</time></trkpt><trkpt lat="43.30072214644419" lon="12.485228055622722"><ele>632.0</ele><time>2026-04-11T15:18:09Z</time></trkpt><trkpt lat="43.30073228958802" lon="12.485131022489986"><ele>631.2</ele><time>2026-04-11T15:18:11Z</time></trkpt><trkpt lat="43.30074240609346" lon="12.485013248636504"><ele>630.4000000000001</ele><time>2026-04-11T15:18:13Z</time></trkpt><trkpt lat="43.30075971617743" lon="12.484883828027607"><ele>629.5999999999999</ele><time>2026-04-11T15:18:15Z</time></trkpt><trkpt lat="43.300779083739855" lon="12.484746843497232"><ele>628.8</ele><time>2026-04-11T15:18:17Z</time></trkpt><trkpt lat="43.300792354536306" lon="12.484622077262411"><ele>628.0</ele><time>2026-04-11T15:18:19Z</time></trkpt><trkpt lat="43.30076932404578" lon="12.484522071033796"><ele>627.0</ele><time>2026-04-11T15:18:21Z</time></trkpt><trkpt lat="43.30075504331998" lon="12.484406143534912"><ele>626.0</ele><time>2026-04-11T15:18:23Z</time></trkpt><trkpt lat="43.300737589280125" lon="12.48430466667068"><ele>625.0</ele><time>2026-04-11T15:18:25Z</time></trkpt><trkpt lat="43.30073525935" lon="12.484205440577835"><ele>624.0</ele><time>2026-04-11T15:18:28Z</time></trkpt><trkpt lat="43.30077893877446" lon="12.484125502683202"><ele>623.0</ele><time>2026-04-11T15:18:33Z</time></trkpt><trkpt lat="43.300819609407654" lon="12.484041682644937"><ele>622.0</ele><time>2026-04-11T15:18:35Z</time></trkpt><trkpt lat="43.30087620677702" lon="12.483982794100728"><ele>622.0</ele><time>2026-04-11T15:18:37Z</time></trkpt><trkpt lat="43.30093213806827" lon="12.483836793574238"><ele>622.0</ele><time>2026-04-11T15:18:39Z</time></trkpt><trkpt lat="43.30096128301512" lon="12.483665266913373"><ele>622.0</ele><time>2026-04-11T15:18:41Z</time></trkpt><trkpt lat="43.3009838989493" lon="12.48356494105935"><ele>622.0</ele><time>2026-04-11T15:18:42Z</time></trkpt><trkpt lat="43.300989885610164" lon="12.483462486582274"><ele>622.0</ele><time>2026-04-11T15:18:43Z</time></trkpt><trkpt lat="43.30098120070098" lon="12.483365292519846"><ele>623.6</ele><time>2026-04-11T15:18:44.001Z</time></trkpt><trkpt lat="43.300991924023826" lon="12.483274011493844"><ele>625.2</ele><time>2026-04-11T15:18:45.001Z</time></trkpt><trkpt lat="43.30098896299932" lon="12.483185633559913"><ele>626.8</ele><time>2026-04-11T15:18:46.001Z</time></trkpt><trkpt lat="43.300989861424384" lon="12.483029247712667"><ele>628.4</ele><time>2026-04-11T15:18:48.001Z</time></trkpt><trkpt lat="43.30099241987605" lon="12.482882620995193"><ele>630.0</ele><time>2026-04-11T15:18:50.001Z</time></trkpt><trkpt lat="43.30099975026651" lon="12.48273891031463"><ele>630.6666666666666</ele><time>2026-04-11T15:18:52.001Z</time></trkpt><trkpt lat="43.300994851272314" lon="12.482598910796883"><ele>631.3333333333334</ele><time>2026-04-11T15:18:54.001Z</time></trkpt><trkpt lat="43.30098882294306" lon="12.482474862130855"><ele>632.0</ele><time>2026-04-11T15:18:56.001Z</time></trkpt><trkpt lat="43.300972366748454" lon="12.482370569984163"><ele>632.6666666666667</ele><time>2026-04-11T15:18:58.001Z</time></trkpt><trkpt lat="43.30096374832496" lon="12.482273508126326"><ele>633.3333333333334</ele><time>2026-04-11T15:19:00.001Z</time></trkpt><trkpt lat="43.300924086474886" lon="12.482141202874043"><ele>634.0</ele><time>2026-04-11T15:19:02.001Z</time></trkpt><trkpt lat="43.300872259257275" lon="12.481996301448875"><ele>634.0</ele><time>2026-04-11T15:19:04.001Z</time></trkpt><trkpt lat="43.30085141841667" lon="12.4818407518971"><ele>634.0</ele><time>2026-04-11T15:19:06.001Z</time></trkpt><trkpt lat="43.30085612947143" lon="12.481696208732977"><ele>634.0</ele><time>2026-04-11T15:19:08.001Z</time></trkpt><trkpt lat="43.30086647895739" lon="12.48156247918465"><ele>634.0</ele><time>2026-04-11T15:19:10.001Z</time></trkpt><trkpt lat="43.300878643116775" lon="12.4814398256418"><ele>634.0</ele><time>2026-04-11T15:19:12.001Z</time></trkpt><trkpt lat="43.30087991129549" lon="12.481320920131669"><ele>635.0</ele><time>2026-04-11T15:19:14.001Z</time></trkpt><trkpt lat="43.30091021470023" lon="12.481230224856217"><ele>636.0</ele><time>2026-04-11T15:19:16.001Z</time></trkpt><trkpt lat="43.30094073825228" lon="12.481122945131474"><ele>637.0</ele><time>2026-04-11T15:19:20.001Z</time></trkpt><trkpt lat="43.30096578077836" lon="12.48103574065609"><ele>638.0</ele><time>2026-04-11T15:19:22.001Z</time></trkpt><trkpt lat="43.30100039288349" lon="12.4809611719334"><ele>639.0</ele><time>2026-04-11T15:19:24.001Z</time></trkpt><trkpt lat="43.30103109151279" lon="12.48083246643131"><ele>640.0</ele><time>2026-04-11T15:19:26.001Z</time></trkpt><trkpt lat="43.301062998786236" lon="12.480672303363798"><ele>640.0</ele><time>2026-04-11T15:19:28.001Z</time></trkpt><trkpt lat="43.30107578133028" lon="12.480544690024454"><ele>640.0</ele><time>2026-04-11T15:19:29.001Z</time></trkpt><trkpt lat="43.30109168163324" lon="12.480394398303456"><ele>640.0</ele><time>2026-04-11T15:19:30.001Z</time></trkpt><trkpt lat="43.3011074711077" lon="12.480263034789589"><ele>640.0</ele><time>2026-04-11T15:19:31.001Z</time></trkpt><trkpt lat="43.30111760685769" lon="12.480155478946779"><ele>640.0</ele><time>2026-04-11T15:19:32.001Z</time></trkpt><trkpt lat="43.30112183170724" lon="12.479986929977263"><ele>640.5</ele><time>2026-04-11T15:19:34.001Z</time></trkpt><trkpt lat="43.301118931020746" lon="12.479844245185863"><ele>641.0</ele><time>2026-04-11T15:19:36.001Z</time></trkpt><trkpt lat="43.30112249490047" lon="12.479736759113816"><ele>641.5</ele><time>2026-04-11T15:19:38.001Z</time></trkpt><trkpt lat="43.301119803287186" lon="12.479648206647175"><ele>642.0</ele><time>2026-04-11T15:19:41.001Z</time></trkpt><trkpt lat="43.30111832519992" lon="12.479554548877875"><ele>642.5</ele><time>2026-04-11T15:19:49.001Z</time></trkpt><trkpt lat="43.30111873388724" lon="12.479457861271685"><ele>643.0</ele><time>2026-04-11T15:19:51.001Z</time></trkpt><trkpt lat="43.30109647777873" lon="12.479340317364764"><ele>641.1999999999999</ele><time>2026-04-11T15:19:53.001Z</time></trkpt><trkpt lat="43.301045658982076" lon="12.479214656167798"><ele>639.4</ele><time>2026-04-11T15:19:55.001Z</time></trkpt><trkpt lat="43.30098362056774" lon="12.479060813251145"><ele>637.5999999999999</ele><time>2026-04-11T15:19:57.001Z</time></trkpt><trkpt lat="43.30093694065211" lon="12.478978383366504"><ele>635.8</ele><time>2026-04-11T15:19:58.001Z</time></trkpt><trkpt lat="43.30087571980828" lon="12.478905537339784"><ele>634.0</ele><time>2026-04-11T15:19:59Z</time></trkpt><trkpt lat="43.300830159697895" lon="12.47880922424011"><ele>634.5</ele><time>2026-04-11T15:20:00Z</time></trkpt><trkpt lat="43.30078345538199" lon="12.478719443572773"><ele>635.0</ele><time>2026-04-11T15:20:01Z</time></trkpt><trkpt lat="43.30073707133076" lon="12.478627215485341"><ele>635.5</ele><time>2026-04-11T15:20:02Z</time></trkpt><trkpt lat="43.30069390970365" lon="12.478541200293805"><ele>636.0</ele><time>2026-04-11T15:20:03Z</time></trkpt><trkpt lat="43.3006648392854" lon="12.47845614139148"><ele>636.5</ele><time>2026-04-11T15:20:04Z</time></trkpt><trkpt lat="43.30061726429066" lon="12.478377314957019"><ele>637.0</ele><time>2026-04-11T15:20:05Z</time></trkpt><trkpt lat="43.300568844870526" lon="12.478308284193144"><ele>637.0</ele><time>2026-04-11T15:20:06Z</time></trkpt><trkpt lat="43.300509663705114" lon="12.478241359897703"><ele>637.0</ele><time>2026-04-11T15:20:07Z</time></trkpt><trkpt lat="43.300454288326776" lon="12.478191279485948"><ele>637.0</ele><time>2026-04-11T15:20:08Z</time></trkpt><trkpt lat="43.300388120999514" lon="12.478134524686633"><ele>637.0</ele><time>2026-04-11T15:20:09Z</time></trkpt><trkpt lat="43.30032823936597" lon="12.4780853374224"><ele>637.0</ele><time>2026-04-11T15:20:10Z</time></trkpt><trkpt lat="43.30025334815813" lon="12.478023821177334"><ele>637.0</ele><time>2026-04-11T15:20:11Z</time></trkpt><trkpt lat="43.30019134602106" lon="12.477975359387697"><ele>637.0</ele><time>2026-04-11T15:20:12Z</time></trkpt><trkpt lat="43.3001231910716" lon="12.477923479274429"><ele>634.6666666666667</ele><time>2026-04-11T15:20:13Z</time></trkpt><trkpt lat="43.30002546418286" lon="12.47781182904228"><ele>632.3333333333334</ele><time>2026-04-11T15:20:15Z</time></trkpt><trkpt lat="43.30002009284121" lon="12.477690462121199"><ele>630.0</ele><time>2026-04-11T15:20:16Z</time></trkpt><trkpt lat="43.30000079415963" lon="12.477592681768495"><ele>627.6666666666666</ele><time>2026-04-11T15:20:17Z</time></trkpt><trkpt lat="43.299970276197854" lon="12.477509496421371"><ele>625.3333333333333</ele><time>2026-04-11T15:20:18Z</time></trkpt><trkpt lat="43.29994100352743" lon="12.477395941282994"><ele>623.0</ele><time>2026-04-11T15:20:19Z</time></trkpt><trkpt lat="43.29990727259601" lon="12.477310798336726"><ele>623.0</ele><time>2026-04-11T15:20:20Z</time></trkpt><trkpt lat="43.29988124467457" lon="12.47721950856132"><ele>623.0</ele><time>2026-04-11T15:20:21Z</time></trkpt><trkpt lat="43.29981539159343" lon="12.477145532121519"><ele>623.0</ele><time>2026-04-11T15:20:22Z</time></trkpt><trkpt lat="43.29975272209929" lon="12.477106343998317"><ele>623.0</ele><time>2026-04-11T15:20:23Z</time></trkpt><trkpt lat="43.29965818026282" lon="12.477048687407855"><ele>623.0</ele><time>2026-04-11T15:20:25Z</time></trkpt><trkpt lat="43.29959225405182" lon="12.476975867085207"><ele>623.0</ele><time>2026-04-11T15:20:27Z</time></trkpt><trkpt lat="43.29957116472118" lon="12.476806900563124"><ele>623.8571428571429</ele><time>2026-04-11T15:20:29Z</time></trkpt><trkpt lat="43.29961473174764" lon="12.476713895248782"><ele>624.7142857142858</ele><time>2026-04-11T15:20:30Z</time></trkpt><trkpt lat="43.29965264314571" lon="12.476638108991361"><ele>625.5714285714286</ele><time>2026-04-11T15:20:31Z</time></trkpt><trkpt lat="43.299699490580764" lon="12.476576321234598"><ele>626.4285714285714</ele><time>2026-04-11T15:20:32Z</time></trkpt><trkpt lat="43.299724461626" lon="12.47649115325122"><ele>627.2857142857143</ele><time>2026-04-11T15:20:33Z</time></trkpt><trkpt lat="43.299731639627964" lon="12.476370294077435"><ele>628.1428571428571</ele><time>2026-04-11T15:20:34Z</time></trkpt><trkpt lat="43.29971371015726" lon="12.476263116509374"><ele>629.0</ele><time>2026-04-11T15:20:35Z</time></trkpt><trkpt lat="43.299686866020664" lon="12.476142628461186"><ele>629.0</ele><time>2026-04-11T15:20:36Z</time></trkpt><trkpt lat="43.29967638254505" lon="12.476018223305768"><ele>629.0</ele><time>2026-04-11T15:20:37Z</time></trkpt><trkpt lat="43.29963541522124" lon="12.475881414315378"><ele>629.0</ele><time>2026-04-11T15:20:38Z</time></trkpt><trkpt lat="43.29957581562131" lon="12.475753920787177"><ele>629.0</ele><time>2026-04-11T15:20:39Z</time></trkpt><trkpt lat="43.29950654188517" lon="12.475642367248684"><ele>629.0</ele><time>2026-04-11T15:20:40Z</time></trkpt><trkpt lat="43.29942851575351" lon="12.475550860282645"><ele>629.0</ele><time>2026-04-11T15:20:41Z</time></trkpt><trkpt lat="43.29935065749722" lon="12.4754745309313"><ele>629.0</ele><time>2026-04-11T15:20:42Z</time></trkpt><trkpt lat="43.29928436974334" lon="12.475402903540173"><ele>629.0</ele><time>2026-04-11T15:20:43Z</time></trkpt><trkpt lat="43.299216892952444" lon="12.475336792733463"><ele>629.0</ele><time>2026-04-11T15:20:44Z</time></trkpt><trkpt lat="43.29913036193531" lon="12.47529066626323"><ele>629.0</ele><time>2026-04-11T15:20:45Z</time></trkpt><trkpt lat="43.29903818520735" lon="12.475272124418993"><ele>629.0</ele><time>2026-04-11T15:20:46Z</time></trkpt><trkpt lat="43.29896247797663" lon="12.475260944437814"><ele>628.6666666666666</ele><time>2026-04-11T15:20:47Z</time></trkpt><trkpt lat="43.298890368510015" lon="12.475229910381518"><ele>628.3333333333333</ele><time>2026-04-11T15:20:48Z</time></trkpt><trkpt lat="43.29882737467536" lon="12.475165482258351"><ele>628.0</ele><time>2026-04-11T15:20:49Z</time></trkpt><trkpt lat="43.29875530720381" lon="12.475111898882071"><ele>627.6666666666666</ele><time>2026-04-11T15:20:50Z</time></trkpt><trkpt lat="43.29867352842502" lon="12.475078175422086"><ele>627.3333333333334</ele><time>2026-04-11T15:20:51Z</time></trkpt><trkpt lat="43.29858905274949" lon="12.47506840987845"><ele>627.0</ele><time>2026-04-11T15:20:52Z</time></trkpt><trkpt lat="43.29851128892349" lon="12.475091957239234"><ele>627.0</ele><time>2026-04-11T15:20:53Z</time></trkpt><trkpt lat="43.298398551980334" lon="12.475082202079582"><ele>627.0</ele><time>2026-04-11T15:20:55Z</time></trkpt><trkpt lat="43.2983127069136" lon="12.475015416602053"><ele>627.0</ele><time>2026-04-11T15:20:57Z</time></trkpt><trkpt lat="43.29828965132403" lon="12.474927852690897"><ele>627.0</ele><time>2026-04-11T15:20:58Z</time></trkpt><trkpt lat="43.29829119665928" lon="12.474816736718097"><ele>627.0</ele><time>2026-04-11T15:20:59Z</time></trkpt><trkpt lat="43.298283919263824" lon="12.474712754861873"><ele>627.0</ele><time>2026-04-11T15:21:00.001Z</time></trkpt><trkpt lat="43.29826737638877" lon="12.474594927133134"><ele>627.1666666666666</ele><time>2026-04-11T15:21:01.001Z</time></trkpt><trkpt lat="43.298232118548626" lon="12.47448539541838"><ele>627.3333333333334</ele><time>2026-04-11T15:21:02.001Z</time></trkpt><trkpt lat="43.29818600484735" lon="12.474386815582712"><ele>627.5</ele><time>2026-04-11T15:21:03.001Z</time></trkpt><trkpt lat="43.29815701961622" lon="12.47426661710267"><ele>627.6666666666667</ele><time>2026-04-11T15:21:04.001Z</time></trkpt><trkpt lat="43.29813179525083" lon="12.474146073180316"><ele>627.8333333333334</ele><time>2026-04-11T15:21:05.001Z</time></trkpt><trkpt lat="43.2981059448301" lon="12.474033391244069"><ele>628.0</ele><time>2026-04-11T15:21:06.001Z</time></trkpt><trkpt lat="43.298082557418965" lon="12.473922594285197"><ele>631.0</ele><time>2026-04-11T15:21:07.001Z</time></trkpt><trkpt lat="43.29806289048137" lon="12.473816398565582"><ele>634.0</ele><time>2026-04-11T15:21:08.001Z</time></trkpt><trkpt lat="43.29804362945061" lon="12.473709870056759"><ele>637.0</ele><time>2026-04-11T15:21:09.001Z</time></trkpt><trkpt lat="43.29803191126051" lon="12.473599235206972"><ele>640.0</ele><time>2026-04-11T15:21:10.001Z</time></trkpt><trkpt lat="43.29801879599429" lon="12.473481374195307"><ele>643.0</ele><time>2026-04-11T15:21:11.001Z</time></trkpt><trkpt lat="43.29800309180596" lon="12.473363172501893"><ele>646.0</ele><time>2026-04-11T15:21:12.001Z</time></trkpt><trkpt lat="43.297991681624715" lon="12.473246039514445"><ele>646.0</ele><time>2026-04-11T15:21:13.001Z</time></trkpt><trkpt lat="43.297970458374806" lon="12.47314738019462"><ele>646.0</ele><time>2026-04-11T15:21:14.001Z</time></trkpt><trkpt lat="43.29795739023247" lon="12.473045157042113"><ele>646.0</ele><time>2026-04-11T15:21:15.001Z</time></trkpt><trkpt lat="43.29794424607782" lon="12.47293266318217"><ele>646.0</ele><time>2026-04-11T15:21:16.001Z</time></trkpt><trkpt lat="43.29794555885949" lon="12.472812463910488"><ele>646.0</ele><time>2026-04-11T15:21:17.001Z</time></trkpt><trkpt lat="43.29797014007555" lon="12.47269314234219"><ele>646.0</ele><time>2026-04-11T15:21:18.001Z</time></trkpt><trkpt lat="43.29797763401025" lon="12.472579292790883"><ele>646.8333333333334</ele><time>2026-04-11T15:21:19.001Z</time></trkpt><trkpt lat="43.297963948842074" lon="12.472464449992925"><ele>647.6666666666667</ele><time>2026-04-11T15:21:20.001Z</time></trkpt><trkpt lat="43.297968772839496" lon="12.47236663068573"><ele>648.5</ele><time>2026-04-11T15:21:21.001Z</time></trkpt><trkpt lat="43.29796768827252" lon="12.472257277380814"><ele>649.3333333333334</ele><time>2026-04-11T15:21:22.001Z</time></trkpt><trkpt lat="43.29797132408754" lon="12.47212584777186"><ele>650.1666666666666</ele><time>2026-04-11T15:21:23.001Z</time></trkpt><trkpt lat="43.297944913867795" lon="12.472005616378471"><ele>651.0</ele><time>2026-04-11T15:21:24.001Z</time></trkpt><trkpt lat="43.29794091436562" lon="12.471901672019355"><ele>652.0</ele><time>2026-04-11T15:21:25.001Z</time></trkpt><trkpt lat="43.29793831919705" lon="12.471806096945375"><ele>653.0</ele><time>2026-04-11T15:21:26.001Z</time></trkpt><trkpt lat="43.2979478168339" lon="12.47170813106637"><ele>654.0</ele><time>2026-04-11T15:21:27.001Z</time></trkpt><trkpt lat="43.29800712797" lon="12.4716169400382"><ele>655.0</ele><time>2026-04-11T15:21:28.001Z</time></trkpt><trkpt lat="43.29802429085605" lon="12.47150457139785"><ele>656.0</ele><time>2026-04-11T15:21:29.001Z</time></trkpt><trkpt lat="43.29802977226251" lon="12.471413719269558"><ele>657.0</ele><time>2026-04-11T15:21:30.001Z</time></trkpt><trkpt lat="43.29802639081788" lon="12.471236644506726"><ele>657.0</ele><time>2026-04-11T15:21:32.001Z</time></trkpt><trkpt lat="43.298005598504446" lon="12.471153033291252"><ele>657.0</ele><time>2026-04-11T15:21:33.001Z</time></trkpt><trkpt lat="43.297940698382035" lon="12.471044491261736"><ele>657.0</ele><time>2026-04-11T15:21:35.001Z</time></trkpt><trkpt lat="43.29782977599752" lon="12.471050244351908"><ele>657.0</ele><time>2026-04-11T15:21:37.001Z</time></trkpt><trkpt lat="43.297788379238035" lon="12.471131183334062"><ele>657.0</ele><time>2026-04-11T15:21:38.001Z</time></trkpt><trkpt lat="43.2977780918763" lon="12.471241223577941"><ele>657.0</ele><time>2026-04-11T15:21:39.001Z</time></trkpt><trkpt lat="43.29774371003389" lon="12.471364578166714"><ele>657.0</ele><time>2026-04-11T15:21:40.001Z</time></trkpt><trkpt lat="43.29767598145693" lon="12.471452754233507"><ele>657.0</ele><time>2026-04-11T15:21:41.001Z</time></trkpt><trkpt lat="43.29762025869159" lon="12.471528856450139"><ele>657.0</ele><time>2026-04-11T15:21:42.001Z</time></trkpt><trkpt lat="43.29755817801543" lon="12.471586413784221"><ele>657.0</ele><time>2026-04-11T15:21:43.001Z</time></trkpt><trkpt lat="43.29749125790903" lon="12.47161571866764"><ele>657.0</ele><time>2026-04-11T15:21:44.001Z</time></trkpt><trkpt lat="43.297415774451366" lon="12.471621912254559"><ele>657.0</ele><time>2026-04-11T15:21:45.001Z</time></trkpt><trkpt lat="43.29732616836043" lon="12.47161370894913"><ele>662.2</ele><time>2026-04-11T15:21:46.001Z</time></trkpt><trkpt lat="43.297240264341305" lon="12.47161200136588"><ele>667.4000000000001</ele><time>2026-04-11T15:21:47.001Z</time></trkpt><trkpt lat="43.29717169068898" lon="12.471589894581953"><ele>672.5999999999999</ele><time>2026-04-11T15:21:48.001Z</time></trkpt><trkpt lat="43.297074393465245" lon="12.471517631517871"><ele>677.8</ele><time>2026-04-11T15:21:50.001Z</time></trkpt><trkpt lat="43.297043889168414" lon="12.47135743079707"><ele>683.0</ele><time>2026-04-11T15:21:52.001Z</time></trkpt><trkpt lat="43.297037352314824" lon="12.471241047411887"><ele>683.0</ele><time>2026-04-11T15:21:53.001Z</time></trkpt><trkpt lat="43.29703371792172" lon="12.47111841753774"><ele>683.0</ele><time>2026-04-11T15:21:54.001Z</time></trkpt><trkpt lat="43.29706479143495" lon="12.47099365332327"><ele>683.0</ele><time>2026-04-11T15:21:55.001Z</time></trkpt><trkpt lat="43.29708666277898" lon="12.470844467006117"><ele>683.0</ele><time>2026-04-11T15:21:56.001Z</time></trkpt><trkpt lat="43.29712924458777" lon="12.47066956285806"><ele>683.0</ele><time>2026-04-11T15:21:57.001Z</time></trkpt><trkpt lat="43.29718566929012" lon="12.470509827343296"><ele>682.1666666666666</ele><time>2026-04-11T15:21:58.001Z</time></trkpt><trkpt lat="43.29721563534123" lon="12.470384330554353"><ele>681.3333333333333</ele><time>2026-04-11T15:21:59.001Z</time></trkpt><trkpt lat="43.29725367763955" lon="12.470277949733491"><ele>680.5</ele><time>2026-04-11T15:22:00.001Z</time></trkpt><trkpt lat="43.297267666480565" lon="12.47019077594431"><ele>679.6666666666666</ele><time>2026-04-11T15:22:01.001Z</time></trkpt><trkpt lat="43.297276614334635" lon="12.470089431470184"><ele>678.8333333333334</ele><time>2026-04-11T15:22:02.001Z</time></trkpt><trkpt lat="43.2972641285106" lon="12.4699775520851"><ele>678.0</ele><time>2026-04-11T15:22:03.001Z</time></trkpt><trkpt lat="43.297247876870145" lon="12.46984928131241"><ele>678.0</ele><time>2026-04-11T15:22:04.001Z</time></trkpt><trkpt lat="43.29721874355308" lon="12.469730944097261"><ele>678.0</ele><time>2026-04-11T15:22:05Z</time></trkpt><trkpt lat="43.29718388709044" lon="12.469614285636387"><ele>678.0</ele><time>2026-04-11T15:22:06Z</time></trkpt><trkpt lat="43.297138971769684" lon="12.469505477148385"><ele>678.0</ele><time>2026-04-11T15:22:07Z</time></trkpt><trkpt lat="43.297095084111504" lon="12.469409870288152"><ele>678.0</ele><time>2026-04-11T15:22:08Z</time></trkpt><trkpt lat="43.29704104467155" lon="12.469315588391376"><ele>678.0</ele><time>2026-04-11T15:22:09Z</time></trkpt><trkpt lat="43.29699652544161" lon="12.46924922348156"><ele>676.4</ele><time>2026-04-11T15:22:10Z</time></trkpt><trkpt lat="43.296923334512776" lon="12.469160679538495"><ele>674.8</ele><time>2026-04-11T15:22:12Z</time></trkpt><trkpt lat="43.296869711393036" lon="12.469092873560804"><ele>673.2</ele><time>2026-04-11T15:22:15Z</time></trkpt><trkpt lat="43.29691284338528" lon="12.468901827507237"><ele>671.6</ele><time>2026-04-11T15:22:25Z</time></trkpt><trkpt lat="43.29696288961689" lon="12.468783477699233"><ele>670.0</ele><time>2026-04-11T15:22:27Z</time></trkpt><trkpt lat="43.297024379977806" lon="12.468650686898659"><ele>669.6666666666667</ele><time>2026-04-11T15:22:29Z</time></trkpt><trkpt lat="43.2970585239901" lon="12.468568927184553"><ele>669.3333333333334</ele><time>2026-04-11T15:22:30Z</time></trkpt><trkpt lat="43.29709626281462" lon="12.46847440388903"><ele>669.0</ele><time>2026-04-11T15:22:31Z</time></trkpt><trkpt lat="43.297135623301514" lon="12.46837804329053"><ele>668.6666666666666</ele><time>2026-04-11T15:22:32Z</time></trkpt><trkpt lat="43.297172040606355" lon="12.468279891925995"><ele>668.3333333333333</ele><time>2026-04-11T15:22:33Z</time></trkpt><trkpt lat="43.29720640131952" lon="12.468181588278291"><ele>668.0</ele><time>2026-04-11T15:22:34Z</time></trkpt><trkpt lat="43.29723654665318" lon="12.468079049113205"><ele>667.6666666666666</ele><time>2026-04-11T15:22:35Z</time></trkpt><trkpt lat="43.29726244010397" lon="12.467972355597878"><ele>667.3333333333333</ele><time>2026-04-11T15:22:36Z</time></trkpt><trkpt lat="43.297283248962536" lon="12.46786144691112"><ele>667.0</ele><time>2026-04-11T15:22:37Z</time></trkpt><trkpt lat="43.297288839568196" lon="12.467742740024855"><ele>666.6666666666666</ele><time>2026-04-11T15:22:38Z</time></trkpt><trkpt lat="43.29728221094382" lon="12.467605334455278"><ele>666.3333333333334</ele><time>2026-04-11T15:22:39Z</time></trkpt><trkpt lat="43.29726728083071" lon="12.467482657508182"><ele>666.0</ele><time>2026-04-11T15:22:40Z</time></trkpt><trkpt lat="43.29724996438006" lon="12.467362812866812"><ele>666.0</ele><time>2026-04-11T15:22:41Z</time></trkpt><trkpt lat="43.29723272365711" lon="12.467248681798274"><ele>666.0</ele><time>2026-04-11T15:22:42Z</time></trkpt><trkpt lat="43.29721452996296" lon="12.467138597493735"><ele>666.0</ele><time>2026-04-11T15:22:43Z</time></trkpt><trkpt lat="43.29721524469844" lon="12.467031961775614"><ele>666.0</ele><time>2026-04-11T15:22:44Z</time></trkpt><trkpt lat="43.29722932260252" lon="12.466930037642827"><ele>666.0</ele><time>2026-04-11T15:22:45Z</time></trkpt><trkpt lat="43.29726647731663" lon="12.466848484672342"><ele>666.0</ele><time>2026-04-11T15:22:46Z</time></trkpt><trkpt lat="43.297332700665194" lon="12.466749113901226"><ele>664.0</ele><time>2026-04-11T15:22:47Z</time></trkpt><trkpt lat="43.29742555983043" lon="12.466622294386546"><ele>662.0</ele><time>2026-04-11T15:22:48Z</time></trkpt><trkpt lat="43.29751053391054" lon="12.466517541722546"><ele>660.0</ele><time>2026-04-11T15:22:49Z</time></trkpt><trkpt lat="43.29758773074616" lon="12.466413025212761"><ele>658.0</ele><time>2026-04-11T15:22:50Z</time></trkpt><trkpt lat="43.29767323359935" lon="12.466310756886696"><ele>655.75</ele><time>2026-04-11T15:22:51Z</time></trkpt><trkpt lat="43.29776918048157" lon="12.466221934233578"><ele>653.5</ele><time>2026-04-11T15:22:52Z</time></trkpt><trkpt lat="43.29788073260488" lon="12.466149357791076"><ele>651.25</ele><time>2026-04-11T15:22:53Z</time></trkpt><trkpt lat="43.29800593509471" lon="12.466119607141481"><ele>649.0</ele><time>2026-04-11T15:22:54Z</time></trkpt><trkpt lat="43.29813995561638" lon="12.466070238335483"><ele>648.5</ele><time>2026-04-11T15:22:55Z</time></trkpt><trkpt lat="43.29827283647599" lon="12.466016061495228"><ele>648.0</ele><time>2026-04-11T15:22:56Z</time></trkpt><trkpt lat="43.29839819336918" lon="12.465950063048451"><ele>647.5</ele><time>2026-04-11T15:22:57Z</time></trkpt><trkpt lat="43.29851713698531" lon="12.465878220571081"><ele>647.0</ele><time>2026-04-11T15:22:58Z</time></trkpt><trkpt lat="43.29862535884277" lon="12.465785531577916"><ele>647.0</ele><time>2026-04-11T15:22:59Z</time></trkpt><trkpt lat="43.29874198857037" lon="12.465716804451493"><ele>647.0</ele><time>2026-04-11T15:23:00Z</time></trkpt><trkpt lat="43.29886291499226" lon="12.465660777692243"><ele>647.0</ele><time>2026-04-11T15:23:01Z</time></trkpt><trkpt lat="43.29898940966087" lon="12.465622565222825"><ele>647.0</ele><time>2026-04-11T15:23:02Z</time></trkpt><trkpt lat="43.29911565805906" lon="12.465614190372039"><ele>648.25</ele><time>2026-04-11T15:23:03Z</time></trkpt><trkpt lat="43.299249714445594" lon="12.465642627537974"><ele>649.5</ele><time>2026-04-11T15:23:04Z</time></trkpt><trkpt lat="43.29936842443205" lon="12.46569428815114"><ele>650.75</ele><time>2026-04-11T15:23:05Z</time></trkpt><trkpt lat="43.29947008969101" lon="12.465771583377215"><ele>652.0</ele><time>2026-04-11T15:23:06Z</time></trkpt><trkpt lat="43.29955055167009" lon="12.46587361193914"><ele>652.0</ele><time>2026-04-11T15:23:07Z</time></trkpt><trkpt lat="43.2996196764427" lon="12.465972629309944"><ele>652.0</ele><time>2026-04-11T15:23:08Z</time></trkpt><trkpt lat="43.2996964559875" lon="12.466037874049793"><ele>652.0</ele><time>2026-04-11T15:23:09Z</time></trkpt><trkpt lat="43.29978288619166" lon="12.466080169061359"><ele>652.0</ele><time>2026-04-11T15:23:10Z</time></trkpt><trkpt lat="43.299885800246386" lon="12.466102642839513"><ele>652.0</ele><time>2026-04-11T15:23:11Z</time></trkpt><trkpt lat="43.29998767073988" lon="12.46610630501697"><ele>653.6</ele><time>2026-04-11T15:23:12Z</time></trkpt><trkpt lat="43.300089074128316" lon="12.466091564695825"><ele>655.2</ele><time>2026-04-11T15:23:13Z</time></trkpt><trkpt lat="43.300186224125284" lon="12.466063225033462"><ele>656.8</ele><time>2026-04-11T15:23:14.001Z</time></trkpt><trkpt lat="43.30027474933059" lon="12.466017998687809"><ele>658.4</ele><time>2026-04-11T15:23:15.001Z</time></trkpt><trkpt lat="43.30034845888219" lon="12.465947483156445"><ele>660.0</ele><time>2026-04-11T15:23:16.001Z</time></trkpt><trkpt lat="43.30041795389962" lon="12.4658471839442"><ele>660.0</ele><time>2026-04-11T15:23:17.001Z</time></trkpt><trkpt lat="43.30049832369504" lon="12.465729804018823"><ele>660.0</ele><time>2026-04-11T15:23:18.001Z</time></trkpt><trkpt lat="43.30057641781877" lon="12.465607693849131"><ele>660.0</ele><time>2026-04-11T15:23:19.001Z</time></trkpt><trkpt lat="43.30064224597315" lon="12.465487450219547"><ele>660.0</ele><time>2026-04-11T15:23:20.001Z</time></trkpt><trkpt lat="43.30070624316527" lon="12.46537293850409"><ele>661.0</ele><time>2026-04-11T15:23:21.001Z</time></trkpt><trkpt lat="43.30076584851817" lon="12.465265251172454"><ele>662.0</ele><time>2026-04-11T15:23:22.001Z</time></trkpt><trkpt lat="43.30082059613894" lon="12.465152011094817"><ele>663.0</ele><time>2026-04-11T15:23:23.001Z</time></trkpt><trkpt lat="43.30087097999539" lon="12.465025626777077"><ele>664.0</ele><time>2026-04-11T15:23:24.001Z</time></trkpt><trkpt lat="43.30091080428926" lon="12.464882679519373"><ele>665.0</ele><time>2026-04-11T15:23:25.001Z</time></trkpt><trkpt lat="43.30093589333738" lon="12.464736587398367"><ele>665.8</ele><time>2026-04-11T15:23:26.001Z</time></trkpt><trkpt lat="43.30096793407191" lon="12.464599342932397"><ele>666.6</ele><time>2026-04-11T15:23:27.001Z</time></trkpt><trkpt lat="43.30097065082187" lon="12.464445053613389"><ele>667.4000000000001</ele><time>2026-04-11T15:23:28.001Z</time></trkpt><trkpt lat="43.30096239428559" lon="12.464298511170037"><ele>668.2</ele><time>2026-04-11T15:23:29.001Z</time></trkpt><trkpt lat="43.30093706513556" lon="12.464159645463639"><ele>669.0</ele><time>2026-04-11T15:23:30.001Z</time></trkpt><trkpt lat="43.30089281517265" lon="12.464037012186543"><ele>669.0</ele><time>2026-04-11T15:23:31.001Z</time></trkpt><trkpt lat="43.30081745001129" lon="12.463955464935786"><ele>669.0</ele><time>2026-04-11T15:23:32.001Z</time></trkpt><trkpt lat="43.30073928320066" lon="12.46387092925313"><ele>669.0</ele><time>2026-04-11T15:23:33.001Z</time></trkpt><trkpt lat="43.30065089196964" lon="12.463806665661318"><ele>669.0</ele><time>2026-04-11T15:23:34.001Z</time></trkpt><trkpt lat="43.30059009678536" lon="12.463722966565726"><ele>669.0</ele><time>2026-04-11T15:23:35.001Z</time></trkpt><trkpt lat="43.30052305058883" lon="12.463660572028365"><ele>670.2</ele><time>2026-04-11T15:23:36.001Z</time></trkpt><trkpt lat="43.300504078854864" lon="12.463555155205729"><ele>671.4000000000001</ele><time>2026-04-11T15:23:37.001Z</time></trkpt><trkpt lat="43.30049624534711" lon="12.463440847790102"><ele>672.6</ele><time>2026-04-11T15:23:38.001Z</time></trkpt><trkpt lat="43.300495730824984" lon="12.463311968116686"><ele>673.8</ele><time>2026-04-11T15:23:39.001Z</time></trkpt><trkpt lat="43.300568496429925" lon="12.46317516389421"><ele>675.0</ele><time>2026-04-11T15:23:40.001Z</time></trkpt><trkpt lat="43.30062468830749" lon="12.46297232783125"><ele>673.75</ele><time>2026-04-11T15:23:41.001Z</time></trkpt><trkpt lat="43.3007044519122" lon="12.462796979342677"><ele>672.5</ele><time>2026-04-11T15:23:42.001Z</time></trkpt><trkpt lat="43.30074489602128" lon="12.46263489103347"><ele>671.25</ele><time>2026-04-11T15:23:43.001Z</time></trkpt><trkpt lat="43.30077074486516" lon="12.462485863110174"><ele>670.0</ele><time>2026-04-11T15:23:44.001Z</time></trkpt><trkpt lat="43.30076386257533" lon="12.462326254459214"><ele>670.0</ele><time>2026-04-11T15:23:45.001Z</time></trkpt><trkpt lat="43.300700003104744" lon="12.462186353349374"><ele>670.0</ele><time>2026-04-11T15:23:46.001Z</time></trkpt><trkpt lat="43.300666086472845" lon="12.462062595590789"><ele>670.0</ele><time>2026-04-11T15:23:47.001Z</time></trkpt><trkpt lat="43.30065507824446" lon="12.461927816590535"><ele>670.0</ele><time>2026-04-11T15:23:48.001Z</time></trkpt><trkpt lat="43.300706504270295" lon="12.461805708824345"><ele>670.0</ele><time>2026-04-11T15:23:49.001Z</time></trkpt><trkpt lat="43.30078151152352" lon="12.461713850092151"><ele>667.0</ele><time>2026-04-11T15:23:50.001Z</time></trkpt><trkpt lat="43.3008762312474" lon="12.461656642574034"><ele>664.0</ele><time>2026-04-11T15:23:51.001Z</time></trkpt><trkpt lat="43.301002150613726" lon="12.461566043134155"><ele>661.0</ele><time>2026-04-11T15:23:52.001Z</time></trkpt><trkpt lat="43.30113192551057" lon="12.461478842258702"><ele>658.0</ele><time>2026-04-11T15:23:53.001Z</time></trkpt><trkpt lat="43.30123533059446" lon="12.461402656260647"><ele>659.5</ele><time>2026-04-11T15:23:54.001Z</time></trkpt><trkpt lat="43.30132772559662" lon="12.461275939470125"><ele>661.0</ele><time>2026-04-11T15:23:55.001Z</time></trkpt><trkpt lat="43.30140968998035" lon="12.461115721104933"><ele>662.5</ele><time>2026-04-11T15:23:56.001Z</time></trkpt><trkpt lat="43.30148744846536" lon="12.460936696380148"><ele>664.0</ele><time>2026-04-11T15:23:57.001Z</time></trkpt><trkpt lat="43.30155099169433" lon="12.460769748297093"><ele>664.0</ele><time>2026-04-11T15:23:58.001Z</time></trkpt><trkpt lat="43.30160636200212" lon="12.460607343697449"><ele>664.0</ele><time>2026-04-11T15:23:59.001Z</time></trkpt><trkpt lat="43.30164802627215" lon="12.460457466195475"><ele>664.0</ele><time>2026-04-11T15:24:00.001Z</time></trkpt><trkpt lat="43.30166980803909" lon="12.46031387442883"><ele>664.0</ele><time>2026-04-11T15:24:01.001Z</time></trkpt><trkpt lat="43.30166050863159" lon="12.46016372890853"><ele>661.5</ele><time>2026-04-11T15:24:02.001Z</time></trkpt><trkpt lat="43.30161347275837" lon="12.460004182188326"><ele>659.0</ele><time>2026-04-11T15:24:03.001Z</time></trkpt><trkpt lat="43.30156634457488" lon="12.459838759434831"><ele>656.5</ele><time>2026-04-11T15:24:04.001Z</time></trkpt><trkpt lat="43.30151565190253" lon="12.459655085640698"><ele>654.0</ele><time>2026-04-11T15:24:05.001Z</time></trkpt><trkpt lat="43.301473908645825" lon="12.459469564213153"><ele>652.75</ele><time>2026-04-11T15:24:06.001Z</time></trkpt><trkpt lat="43.30144646080158" lon="12.459283546776415"><ele>651.5</ele><time>2026-04-11T15:24:07.001Z</time></trkpt><trkpt lat="43.301442338785364" lon="12.459097379789418"><ele>650.25</ele><time>2026-04-11T15:24:08.001Z</time></trkpt><trkpt lat="43.30144519070492" lon="12.458908995000861"><ele>649.0</ele><time>2026-04-11T15:24:09.001Z</time></trkpt><trkpt lat="43.301451344204956" lon="12.458705548812267"><ele>648.5</ele><time>2026-04-11T15:24:10.001Z</time></trkpt><trkpt lat="43.30145297070105" lon="12.458505977754118"><ele>648.0</ele><time>2026-04-11T15:24:11Z</time></trkpt><trkpt lat="43.30144500216551" lon="12.45830276318795"><ele>647.5</ele><time>2026-04-11T15:24:12Z</time></trkpt><trkpt lat="43.3014265207058" lon="12.458103428121673"><ele>647.0</ele><time>2026-04-11T15:24:13Z</time></trkpt><trkpt lat="43.30140314525793" lon="12.457902272548871"><ele>647.0</ele><time>2026-04-11T15:24:14Z</time></trkpt><trkpt lat="43.30138167401814" lon="12.457682425181416"><ele>647.0</ele><time>2026-04-11T15:24:15Z</time></trkpt><trkpt lat="43.301360310544126" lon="12.457446951222288"><ele>647.0</ele><time>2026-04-11T15:24:16Z</time></trkpt><trkpt lat="43.301335641377676" lon="12.457196046188605"><ele>647.3333333333333</ele><time>2026-04-11T15:24:17Z</time></trkpt><trkpt lat="43.30130576212254" lon="12.456926724652488"><ele>647.6666666666666</ele><time>2026-04-11T15:24:18Z</time></trkpt><trkpt lat="43.301275342924924" lon="12.456670518696427"><ele>648.0</ele><time>2026-04-11T15:24:19Z</time></trkpt><trkpt lat="43.301244032907086" lon="12.45643492998802"><ele>650.0</ele><time>2026-04-11T15:24:20Z</time></trkpt><trkpt lat="43.301207962291905" lon="12.456198707637355"><ele>652.0</ele><time>2026-04-11T15:24:21Z</time></trkpt><trkpt lat="43.30117020183134" lon="12.455960393555296"><ele>654.0</ele><time>2026-04-11T15:24:22Z</time></trkpt><trkpt lat="43.30114149730235" lon="12.455721512532667"><ele>654.0</ele><time>2026-04-11T15:24:23Z</time></trkpt><trkpt lat="43.30112360358822" lon="12.455484522580342"><ele>654.0</ele><time>2026-04-11T15:24:24Z</time></trkpt><trkpt lat="43.3011198265883" lon="12.455256601661352"><ele>654.0</ele><time>2026-04-11T15:24:25Z</time></trkpt><trkpt lat="43.30112369925081" lon="12.455029373462024"><ele>654.25</ele><time>2026-04-11T15:24:26Z</time></trkpt><trkpt lat="43.3011395674049" lon="12.454815349744457"><ele>654.5</ele><time>2026-04-11T15:24:27Z</time></trkpt><trkpt lat="43.30116782698801" lon="12.454620376636504"><ele>654.75</ele><time>2026-04-11T15:24:28Z</time></trkpt><trkpt lat="43.301197643885935" lon="12.454429737321123"><ele>655.0</ele><time>2026-04-11T15:24:29Z</time></trkpt><trkpt lat="43.30123047983165" lon="12.454229599838103"><ele>655.75</ele><time>2026-04-11T15:24:30Z</time></trkpt><trkpt lat="43.30126237380015" lon="12.454043022324855"><ele>656.5</ele><time>2026-04-11T15:24:31Z</time></trkpt><trkpt lat="43.30129057432862" lon="12.45387431442457"><ele>657.25</ele><time>2026-04-11T15:24:32Z</time></trkpt><trkpt lat="43.3013157851404" lon="12.45371147547536"><ele>658.0</ele><time>2026-04-11T15:24:33Z</time></trkpt><trkpt lat="43.301337701668196" lon="12.453551887349622"><ele>658.5</ele><time>2026-04-11T15:24:34Z</time></trkpt><trkpt lat="43.30135506712255" lon="12.453382827347248"><ele>659.0</ele><time>2026-04-11T15:24:35Z</time></trkpt><trkpt lat="43.30135549301477" lon="12.453208094522907"><ele>659.5</ele><time>2026-04-11T15:24:36Z</time></trkpt><trkpt lat="43.301332829606636" lon="12.453047825332591"><ele>660.0</ele><time>2026-04-11T15:24:37Z</time></trkpt><trkpt lat="43.30128763298988" lon="12.452898998524997"><ele>661.75</ele><time>2026-04-11T15:24:38Z</time></trkpt><trkpt lat="43.30121334695219" lon="12.452761924974592"><ele>663.5</ele><time>2026-04-11T15:24:39Z</time></trkpt><trkpt lat="43.30114470870943" lon="12.452613652930085"><ele>665.25</ele><time>2026-04-11T15:24:40Z</time></trkpt><trkpt lat="43.30109119630436" lon="12.452476128325241"><ele>667.0</ele><time>2026-04-11T15:24:41Z</time></trkpt><trkpt lat="43.30105460385945" lon="12.452341135113864"><ele>667.0</ele><time>2026-04-11T15:24:42Z</time></trkpt><trkpt lat="43.30102739891204" lon="12.452205172942564"><ele>667.0</ele><time>2026-04-11T15:24:43Z</time></trkpt><trkpt lat="43.30101122715075" lon="12.452069857055093"><ele>667.0</ele><time>2026-04-11T15:24:44Z</time></trkpt><trkpt lat="43.300991165870926" lon="12.451941400057471"><ele>667.0</ele><time>2026-04-11T15:24:45Z</time></trkpt><trkpt lat="43.300955111933895" lon="12.451815273677902"><ele>667.0</ele><time>2026-04-11T15:24:46Z</time></trkpt><trkpt lat="43.30085966087608" lon="12.451714212378462"><ele>667.0</ele><time>2026-04-11T15:24:47Z</time></trkpt><trkpt lat="43.30077021237687" lon="12.451675553410103"><ele>667.0</ele><time>2026-04-11T15:24:48Z</time></trkpt><trkpt lat="43.30068562001071" lon="12.451626685222985"><ele>667.0</ele><time>2026-04-11T15:24:49Z</time></trkpt><trkpt lat="43.30057714510211" lon="12.451668895132132"><ele>667.0</ele><time>2026-04-11T15:24:50Z</time></trkpt><trkpt lat="43.30048725014284" lon="12.451662602380015"><ele>667.0</ele><time>2026-04-11T15:24:51Z</time></trkpt><trkpt lat="43.30040565526097" lon="12.451663413159972"><ele>667.0</ele><time>2026-04-11T15:24:52Z</time></trkpt><trkpt lat="43.300329698183106" lon="12.45166033084563"><ele>667.0</ele><time>2026-04-11T15:24:53Z</time></trkpt><trkpt lat="43.30027014071674" lon="12.451576211081095"><ele>667.0</ele><time>2026-04-11T15:24:54Z</time></trkpt><trkpt lat="43.30023176207033" lon="12.45148502428322"><ele>667.0</ele><time>2026-04-11T15:24:55Z</time></trkpt><trkpt lat="43.300210234047874" lon="12.451384181554477"><ele>667.0</ele><time>2026-04-11T15:24:56Z</time></trkpt><trkpt lat="43.3002311844079" lon="12.451264950223205"><ele>667.0</ele><time>2026-04-11T15:24:57Z</time></trkpt><trkpt lat="43.30023667242338" lon="12.451070416760015"><ele>667.0</ele><time>2026-04-11T15:24:58Z</time></trkpt><trkpt lat="43.300200310746945" lon="12.450867660690674"><ele>667.0</ele><time>2026-04-11T15:24:59Z</time></trkpt><trkpt lat="43.30014334600383" lon="12.450696250756243"><ele>667.0</ele><time>2026-04-11T15:25:00Z</time></trkpt><trkpt lat="43.30007161925679" lon="12.450528358244748"><ele>667.0</ele><time>2026-04-11T15:25:01Z</time></trkpt><trkpt lat="43.29999722883033" lon="12.450384210574146"><ele>667.25</ele><time>2026-04-11T15:25:02Z</time></trkpt><trkpt lat="43.29992418928186" lon="12.450257726370712"><ele>667.5</ele><time>2026-04-11T15:25:03Z</time></trkpt><trkpt lat="43.29984769072806" lon="12.450148501948467"><ele>667.75</ele><time>2026-04-11T15:25:04Z</time></trkpt><trkpt lat="43.299730973251734" lon="12.450083710596985"><ele>668.0</ele><time>2026-04-11T15:25:05Z</time></trkpt><trkpt lat="43.29963319005671" lon="12.450008513642475"><ele>668.0</ele><time>2026-04-11T15:25:06Z</time></trkpt><trkpt lat="43.29954893213151" lon="12.449937528983332"><ele>668.0</ele><time>2026-04-11T15:25:07Z</time></trkpt><trkpt lat="43.29948865082431" lon="12.449811338479549"><ele>668.0</ele><time>2026-04-11T15:25:08Z</time></trkpt><trkpt lat="43.29944450924643" lon="12.449686437543718"><ele>668.0</ele><time>2026-04-11T15:25:09Z</time></trkpt><trkpt lat="43.299413958698516" lon="12.449536189581114"><ele>668.0</ele><time>2026-04-11T15:25:10Z</time></trkpt><trkpt lat="43.299372499254524" lon="12.449373288181315"><ele>668.4</ele><time>2026-04-11T15:25:11Z</time></trkpt><trkpt lat="43.29935109485038" lon="12.449215201302446"><ele>668.8</ele><time>2026-04-11T15:25:12Z</time></trkpt><trkpt lat="43.29935681134621" lon="12.449070931502613"><ele>669.2</ele><time>2026-04-11T15:25:13Z</time></trkpt><trkpt lat="43.29936149164355" lon="12.448930676831024"><ele>669.6</ele><time>2026-04-11T15:25:14Z</time></trkpt><trkpt lat="43.299374347750096" lon="12.448773408781836"><ele>670.0</ele><time>2026-04-11T15:25:15Z</time></trkpt><trkpt lat="43.299415362481135" lon="12.448616033542255"><ele>668.75</ele><time>2026-04-11T15:25:16.001Z</time></trkpt><trkpt lat="43.29945328390524" lon="12.448464049298561"><ele>667.5</ele><time>2026-04-11T15:25:17.001Z</time></trkpt><trkpt lat="43.299497616298865" lon="12.448314814304867"><ele>666.25</ele><time>2026-04-11T15:25:18.001Z</time></trkpt><trkpt lat="43.299521139885115" lon="12.448161246430688"><ele>665.0</ele><time>2026-04-11T15:25:19.001Z</time></trkpt><trkpt lat="43.29952315011022" lon="12.448001347148903"><ele>663.75</ele><time>2026-04-11T15:25:20.001Z</time></trkpt><trkpt lat="43.29949577375311" lon="12.44784543871214"><ele>662.5</ele><time>2026-04-11T15:25:21.001Z</time></trkpt><trkpt lat="43.299489263265016" lon="12.44769002358126"><ele>661.25</ele><time>2026-04-11T15:25:22.001Z</time></trkpt><trkpt lat="43.29948275838824" lon="12.447537792246184"><ele>660.0</ele><time>2026-04-11T15:25:23.001Z</time></trkpt><trkpt lat="43.29946839958232" lon="12.447384568130762"><ele>660.0</ele><time>2026-04-11T15:25:24.001Z</time></trkpt><trkpt lat="43.29945039104554" lon="12.447233343621768"><ele>660.0</ele><time>2026-04-11T15:25:25.001Z</time></trkpt><trkpt lat="43.299443835861204" lon="12.447094249536514"><ele>660.0</ele><time>2026-04-11T15:25:26.001Z</time></trkpt><trkpt lat="43.29945795179251" lon="12.446963641756787"><ele>660.0</ele><time>2026-04-11T15:25:27.001Z</time></trkpt><trkpt lat="43.29949929034258" lon="12.446813259420217"><ele>660.0</ele><time>2026-04-11T15:25:28.001Z</time></trkpt><trkpt lat="43.29958018717952" lon="12.446686257517024"><ele>659.75</ele><time>2026-04-11T15:25:29.001Z</time></trkpt><trkpt lat="43.299646836244584" lon="12.446542945069591"><ele>659.5</ele><time>2026-04-11T15:25:30.001Z</time></trkpt><trkpt lat="43.299695472080785" lon="12.44639512171781"><ele>659.25</ele><time>2026-04-11T15:25:31.001Z</time></trkpt><trkpt lat="43.299747518859434" lon="12.446258350997553"><ele>659.0</ele><time>2026-04-11T15:25:32.001Z</time></trkpt><trkpt lat="43.299793470328574" lon="12.446113910053743"><ele>657.0</ele><time>2026-04-11T15:25:33.001Z</time></trkpt><trkpt lat="43.29983321925706" lon="12.445963179583964"><ele>655.0</ele><time>2026-04-11T15:25:34.001Z</time></trkpt><trkpt lat="43.299864472751246" lon="12.445808057990389"><ele>653.0</ele><time>2026-04-11T15:25:35.001Z</time></trkpt><trkpt lat="43.29990194492133" lon="12.445654346907999"><ele>651.0</ele><time>2026-04-11T15:25:36.001Z</time></trkpt><trkpt lat="43.29990064898626" lon="12.445481954442348"><ele>649.75</ele><time>2026-04-11T15:25:37.001Z</time></trkpt><trkpt lat="43.29987652762383" lon="12.445304806903739"><ele>648.5</ele><time>2026-04-11T15:25:38.001Z</time></trkpt><trkpt lat="43.299834550926846" lon="12.44512309584555"><ele>647.25</ele><time>2026-04-11T15:25:39.001Z</time></trkpt><trkpt lat="43.299809109350186" lon="12.444922563834261"><ele>646.0</ele><time>2026-04-11T15:25:40.001Z</time></trkpt><trkpt lat="43.299786164928484" lon="12.44473623194324"><ele>645.25</ele><time>2026-04-11T15:25:41.001Z</time></trkpt><trkpt lat="43.29977885365648" lon="12.444547486477235"><ele>644.5</ele><time>2026-04-11T15:25:42.001Z</time></trkpt><trkpt lat="43.299789831875636" lon="12.444356329360145"><ele>643.75</ele><time>2026-04-11T15:25:43.001Z</time></trkpt><trkpt lat="43.2997999496355" lon="12.444175614631638"><ele>643.0</ele><time>2026-04-11T15:25:44.001Z</time></trkpt><trkpt lat="43.299801121129576" lon="12.444001880675291"><ele>643.0</ele><time>2026-04-11T15:25:45.001Z</time></trkpt><trkpt lat="43.299789494346705" lon="12.443838166560965"><ele>643.0</ele><time>2026-04-11T15:25:46.001Z</time></trkpt><trkpt lat="43.29979563815181" lon="12.443677685586986"><ele>643.0</ele><time>2026-04-11T15:25:47.001Z</time></trkpt><trkpt lat="43.299816927766145" lon="12.443514204921147"><ele>643.0</ele><time>2026-04-11T15:25:48.001Z</time></trkpt><trkpt lat="43.29986871229106" lon="12.443365569307415"><ele>643.0</ele><time>2026-04-11T15:25:49.001Z</time></trkpt><trkpt lat="43.29992917780299" lon="12.443211545841857"><ele>643.0</ele><time>2026-04-11T15:25:50.001Z</time></trkpt><trkpt lat="43.29999466653538" lon="12.443022126693608"><ele>643.0</ele><time>2026-04-11T15:25:51.001Z</time></trkpt><trkpt lat="43.30007058356768" lon="12.442862514920089"><ele>643.0</ele><time>2026-04-11T15:25:52.001Z</time></trkpt><trkpt lat="43.300138861882914" lon="12.442715700371965"><ele>642.75</ele><time>2026-04-11T15:25:53.001Z</time></trkpt><trkpt lat="43.30020338817704" lon="12.442576606117244"><ele>642.5</ele><time>2026-04-11T15:25:54.001Z</time></trkpt><trkpt lat="43.30026700761227" lon="12.442444396000901"><ele>642.25</ele><time>2026-04-11T15:25:55.001Z</time></trkpt><trkpt lat="43.30032452040563" lon="12.44230473970854"><ele>642.0</ele><time>2026-04-11T15:25:56.001Z</time></trkpt><trkpt lat="43.30037967776991" lon="12.442138355091965"><ele>642.5</ele><time>2026-04-11T15:25:57.001Z</time></trkpt><trkpt lat="43.30042796769249" lon="12.441944850987788"><ele>643.0</ele><time>2026-04-11T15:25:58.001Z</time></trkpt><trkpt lat="43.30046972147719" lon="12.441752420410122"><ele>643.5</ele><time>2026-04-11T15:25:59.001Z</time></trkpt><trkpt lat="43.3005101810561" lon="12.441565264412006"><ele>644.0</ele><time>2026-04-11T15:26:00.001Z</time></trkpt><trkpt lat="43.30054463574541" lon="12.441391240314015"><ele>644.0</ele><time>2026-04-11T15:26:01.001Z</time></trkpt><trkpt lat="43.30057518958432" lon="12.441222137575984"><ele>644.0</ele><time>2026-04-11T15:26:02.001Z</time></trkpt><trkpt lat="43.30061426044607" lon="12.441068501650022"><ele>644.0</ele><time>2026-04-11T15:26:03.001Z</time></trkpt><trkpt lat="43.30066739915509" lon="12.440933170865492"><ele>644.0</ele><time>2026-04-11T15:26:04.001Z</time></trkpt><trkpt lat="43.300750438619275" lon="12.440820748335502"><ele>642.25</ele><time>2026-04-11T15:26:05.001Z</time></trkpt><trkpt lat="43.30083288382467" lon="12.440672412375498"><ele>640.5</ele><time>2026-04-11T15:26:06.001Z</time></trkpt><trkpt lat="43.30092948881521" lon="12.440532657608056"><ele>638.75</ele><time>2026-04-11T15:26:07.001Z</time></trkpt><trkpt lat="43.30102435373324" lon="12.440391531541154"><ele>637.0</ele><time>2026-04-11T15:26:08.001Z</time></trkpt><trkpt lat="43.30110869696533" lon="12.440245735921525"><ele>636.5</ele><time>2026-04-11T15:26:09.001Z</time></trkpt><trkpt lat="43.30119692572623" lon="12.440115834722038"><ele>636.0</ele><time>2026-04-11T15:26:10.001Z</time></trkpt><trkpt lat="43.30126716959401" lon="12.439965624818187"><ele>635.5</ele><time>2026-04-11T15:26:11.001Z</time></trkpt><trkpt lat="43.30134174321817" lon="12.439822762772113"><ele>635.0</ele><time>2026-04-11T15:26:12.001Z</time></trkpt><trkpt lat="43.30140874961532" lon="12.439654818169938"><ele>634.6666666666666</ele><time>2026-04-11T15:26:13.001Z</time></trkpt><trkpt lat="43.3014710551112" lon="12.439473200380444"><ele>634.3333333333334</ele><time>2026-04-11T15:26:14.001Z</time></trkpt><trkpt lat="43.30152521127895" lon="12.439277274946216"><ele>634.0</ele><time>2026-04-11T15:26:15.001Z</time></trkpt><trkpt lat="43.301579330903046" lon="12.439077196388137"><ele>634.0</ele><time>2026-04-11T15:26:16.001Z</time></trkpt><trkpt lat="43.30162373421773" lon="12.438913038533375"><ele>634.0</ele><time>2026-04-11T15:26:17Z</time></trkpt><trkpt lat="43.30166766030507" lon="12.438758468880206"><ele>634.0</ele><time>2026-04-11T15:26:18Z</time></trkpt><trkpt lat="43.30171657910681" lon="12.43860557979289"><ele>634.0</ele><time>2026-04-11T15:26:19Z</time></trkpt><trkpt lat="43.30176893609664" lon="12.438458033652175"><ele>633.5</ele><time>2026-04-11T15:26:20Z</time></trkpt><trkpt lat="43.301827201386295" lon="12.438307828443152"><ele>633.0</ele><time>2026-04-11T15:26:21Z</time></trkpt><trkpt lat="43.30189584076146" lon="12.438159231904983"><ele>632.5</ele><time>2026-04-11T15:26:22Z</time></trkpt><trkpt lat="43.30197781114852" lon="12.437996104889555"><ele>632.0</ele><time>2026-04-11T15:26:23Z</time></trkpt><trkpt lat="43.302034902941244" lon="12.43780691729358"><ele>631.75</ele><time>2026-04-11T15:26:24Z</time></trkpt><trkpt lat="43.302095212339594" lon="12.437640246897248"><ele>631.5</ele><time>2026-04-11T15:26:25Z</time></trkpt><trkpt lat="43.30216467979268" lon="12.437480794430954"><ele>631.25</ele><time>2026-04-11T15:26:26Z</time></trkpt><trkpt lat="43.30225777611561" lon="12.437348113080628"><ele>631.0</ele><time>2026-04-11T15:26:27Z</time></trkpt><trkpt lat="43.30234010716282" lon="12.437192635757764"><ele>629.75</ele><time>2026-04-11T15:26:28Z</time></trkpt><trkpt lat="43.302445450963354" lon="12.437069419126404"><ele>628.5</ele><time>2026-04-11T15:26:29Z</time></trkpt><trkpt lat="43.30255286186517" lon="12.436949294716786"><ele>627.25</ele><time>2026-04-11T15:26:30Z</time></trkpt><trkpt lat="43.30265489218653" lon="12.436837029021719"><ele>626.0</ele><time>2026-04-11T15:26:31Z</time></trkpt><trkpt lat="43.30276600035176" lon="12.43672839180455"><ele>626.0</ele><time>2026-04-11T15:26:32Z</time></trkpt><trkpt lat="43.30287242189511" lon="12.436630275049998"><ele>626.0</ele><time>2026-04-11T15:26:33Z</time></trkpt><trkpt lat="43.30296590360234" lon="12.436525929122718"><ele>626.0</ele><time>2026-04-11T15:26:34Z</time></trkpt><trkpt lat="43.30305835558181" lon="12.43639583104284"><ele>626.0</ele><time>2026-04-11T15:26:35Z</time></trkpt><trkpt lat="43.30316212031146" lon="12.436230744703158"><ele>625.75</ele><time>2026-04-11T15:26:36Z</time></trkpt><trkpt lat="43.30326313905275" lon="12.436046363463925"><ele>625.5</ele><time>2026-04-11T15:26:37Z</time></trkpt><trkpt lat="43.30334111319909" lon="12.435874527771722"><ele>625.25</ele><time>2026-04-11T15:26:38Z</time></trkpt><trkpt lat="43.30339315909666" lon="12.435707178341511"><ele>625.0</ele><time>2026-04-11T15:26:39Z</time></trkpt><trkpt lat="43.30344566119211" lon="12.435554043781805"><ele>624.25</ele><time>2026-04-11T15:26:40Z</time></trkpt><trkpt lat="43.30344441859136" lon="12.435385435905841"><ele>623.5</ele><time>2026-04-11T15:26:41Z</time></trkpt><trkpt lat="43.30340108998848" lon="12.435232178723295"><ele>622.75</ele><time>2026-04-11T15:26:42Z</time></trkpt><trkpt lat="43.30335158171333" lon="12.435096955356938"><ele>622.0</ele><time>2026-04-11T15:26:43Z</time></trkpt><trkpt lat="43.30329402762758" lon="12.43495730808132"><ele>622.0</ele><time>2026-04-11T15:26:44Z</time></trkpt><trkpt lat="43.30324014545504" lon="12.434817726471794"><ele>622.0</ele><time>2026-04-11T15:26:45Z</time></trkpt><trkpt lat="43.30318118255117" lon="12.4346901130296"><ele>622.0</ele><time>2026-04-11T15:26:46Z</time></trkpt><trkpt lat="43.30313986633532" lon="12.434559260057807"><ele>622.0</ele><time>2026-04-11T15:26:47Z</time></trkpt><trkpt lat="43.303098791354834" lon="12.43443776615432"><ele>622.0</ele><time>2026-04-11T15:26:48Z</time></trkpt><trkpt lat="43.30308226797005" lon="12.434309045001866"><ele>621.6</ele><time>2026-04-11T15:26:49Z</time></trkpt><trkpt lat="43.30306185688" lon="12.434194045911552"><ele>621.2</ele><time>2026-04-11T15:26:50Z</time></trkpt><trkpt lat="43.30304356892135" lon="12.434081889179504"><ele>620.8</ele><time>2026-04-11T15:26:51Z</time></trkpt><trkpt lat="43.30306658313361" lon="12.43395773338076"><ele>620.4</ele><time>2026-04-11T15:26:52Z</time></trkpt><trkpt lat="43.303133765363214" lon="12.433835246899573"><ele>620.0</ele><time>2026-04-11T15:26:53Z</time></trkpt><trkpt lat="43.30319123339383" lon="12.433711233071625"><ele>618.6</ele><time>2026-04-11T15:26:54Z</time></trkpt><trkpt lat="43.30321914002794" lon="12.4335880760069"><ele>617.2</ele><time>2026-04-11T15:26:55Z</time></trkpt><trkpt lat="43.303254010457565" lon="12.433470557253745"><ele>615.8</ele><time>2026-04-11T15:26:56Z</time></trkpt><trkpt lat="43.30325477457824" lon="12.433324855153753"><ele>614.4</ele><time>2026-04-11T15:26:57Z</time></trkpt><trkpt lat="43.30321525733704" lon="12.43318187506594"><ele>613.0</ele><time>2026-04-11T15:26:58Z</time></trkpt><trkpt lat="43.30317274585292" lon="12.433035544713167"><ele>611.6</ele><time>2026-04-11T15:26:59Z</time></trkpt><trkpt lat="43.30312824334857" lon="12.432905716965506"><ele>610.1999999999999</ele><time>2026-04-11T15:27:00Z</time></trkpt><trkpt lat="43.3030982424172" lon="12.432788869717545"><ele>608.8</ele><time>2026-04-11T15:27:01Z</time></trkpt><trkpt lat="43.303088226090935" lon="12.432664060672947"><ele>607.4</ele><time>2026-04-11T15:27:02Z</time></trkpt><trkpt lat="43.30312071078668" lon="12.432545657146443"><ele>606.0</ele><time>2026-04-11T15:27:03Z</time></trkpt><trkpt lat="43.30316646203482" lon="12.432446345031352"><ele>606.0</ele><time>2026-04-11T15:27:04Z</time></trkpt><trkpt lat="43.30324132320106" lon="12.432348696186734"><ele>606.0</ele><time>2026-04-11T15:27:05Z</time></trkpt><trkpt lat="43.3033676981264" lon="12.432262305147079"><ele>606.0</ele><time>2026-04-11T15:27:06Z</time></trkpt><trkpt lat="43.30353391265056" lon="12.432123812359979"><ele>606.0</ele><time>2026-04-11T15:27:07Z</time></trkpt><trkpt lat="43.30367488920419" lon="12.43193920477576"><ele>607.5</ele><time>2026-04-11T15:27:08Z</time></trkpt><trkpt lat="43.30380169777822" lon="12.431813728676216"><ele>609.0</ele><time>2026-04-11T15:27:09Z</time></trkpt><trkpt lat="43.303903396938445" lon="12.431705091078339"><ele>610.5</ele><time>2026-04-11T15:27:10.001Z</time></trkpt><trkpt lat="43.303991409446915" lon="12.43162051479677"><ele>612.0</ele><time>2026-04-11T15:27:11.001Z</time></trkpt><trkpt lat="43.30407681603773" lon="12.431542873084418"><ele>612.0</ele><time>2026-04-11T15:27:12.001Z</time></trkpt><trkpt lat="43.304210593404605" lon="12.431505546348653"><ele>612.0</ele><time>2026-04-11T15:27:13.001Z</time></trkpt><trkpt lat="43.30436760487778" lon="12.431464327483717"><ele>612.0</ele><time>2026-04-11T15:27:14.001Z</time></trkpt><trkpt lat="43.30449661094594" lon="12.431407524955574"><ele>612.0</ele><time>2026-04-11T15:27:15.001Z</time></trkpt><trkpt lat="43.30459594690828" lon="12.431329695232254"><ele>612.5</ele><time>2026-04-11T15:27:16.001Z</time></trkpt><trkpt lat="43.30470350114084" lon="12.431243887879091"><ele>613.0</ele><time>2026-04-11T15:27:17.001Z</time></trkpt><trkpt lat="43.30481687973435" lon="12.431147602856651"><ele>613.5</ele><time>2026-04-11T15:27:18.001Z</time></trkpt><trkpt lat="43.30493129064495" lon="12.431024105923198"><ele>614.0</ele><time>2026-04-11T15:27:19.001Z</time></trkpt><trkpt lat="43.30505089254017" lon="12.43088292805191"><ele>614.0</ele><time>2026-04-11T15:27:20.001Z</time></trkpt><trkpt lat="43.30515383417942" lon="12.430760212628895"><ele>614.0</ele><time>2026-04-11T15:27:21.001Z</time></trkpt><trkpt lat="43.305247594268174" lon="12.43064187065758"><ele>614.0</ele><time>2026-04-11T15:27:22.001Z</time></trkpt><trkpt lat="43.30533446867948" lon="12.430508636628522"><ele>614.0</ele><time>2026-04-11T15:27:23.001Z</time></trkpt><trkpt lat="43.305430900275645" lon="12.430342975104129"><ele>613.75</ele><time>2026-04-11T15:27:24.001Z</time></trkpt><trkpt lat="43.3055466152113" lon="12.430178883432914"><ele>613.5</ele><time>2026-04-11T15:27:25.001Z</time></trkpt><trkpt lat="43.305635790917044" lon="12.430028348424596"><ele>613.25</ele><time>2026-04-11T15:27:26.001Z</time></trkpt><trkpt lat="43.30571914797404" lon="12.42988479982698"><ele>613.0</ele><time>2026-04-11T15:27:27.001Z</time></trkpt><trkpt lat="43.305810615324496" lon="12.429724525864232"><ele>615.5</ele><time>2026-04-11T15:27:28.001Z</time></trkpt><trkpt lat="43.305902563818094" lon="12.429561468108837"><ele>618.0</ele><time>2026-04-11T15:27:29.001Z</time></trkpt><trkpt lat="43.30598705936665" lon="12.429399420220918"><ele>620.5</ele><time>2026-04-11T15:27:30.001Z</time></trkpt><trkpt lat="43.30607812458619" lon="12.429257356440282"><ele>623.0</ele><time>2026-04-11T15:27:31.001Z</time></trkpt><trkpt lat="43.306166934522615" lon="12.429115260544613"><ele>623.0</ele><time>2026-04-11T15:27:32.001Z</time></trkpt><trkpt lat="43.30627203820643" lon="12.42899619016156"><ele>623.0</ele><time>2026-04-11T15:27:33.001Z</time></trkpt><trkpt lat="43.30637557440332" lon="12.42887435923157"><ele>623.0</ele><time>2026-04-11T15:27:34.001Z</time></trkpt><trkpt lat="43.30649368163344" lon="12.428774147238654"><ele>623.0</ele><time>2026-04-11T15:27:35.001Z</time></trkpt><trkpt lat="43.30659767296494" lon="12.428673295682964"><ele>621.5</ele><time>2026-04-11T15:27:36.001Z</time></trkpt><trkpt lat="43.30670340191094" lon="12.428591043368277"><ele>620.0</ele><time>2026-04-11T15:27:37.001Z</time></trkpt><trkpt lat="43.30683587240862" lon="12.42849748768183"><ele>618.5</ele><time>2026-04-11T15:27:38.001Z</time></trkpt><trkpt lat="43.306961336826426" lon="12.428405650850822"><ele>617.0</ele><time>2026-04-11T15:27:39.001Z</time></trkpt><trkpt lat="43.30708497797962" lon="12.428325626613368"><ele>617.0</ele><time>2026-04-11T15:27:40.001Z</time></trkpt><trkpt lat="43.30720788511097" lon="12.428245972733224"><ele>617.0</ele><time>2026-04-11T15:27:41.001Z</time></trkpt><trkpt lat="43.30732620836009" lon="12.428167235733666"><ele>617.0</ele><time>2026-04-11T15:27:42.001Z</time></trkpt><trkpt lat="43.30744069241904" lon="12.428088488576496"><ele>617.0</ele><time>2026-04-11T15:27:43.001Z</time></trkpt><trkpt lat="43.30757120317286" lon="12.428020481370762"><ele>615.75</ele><time>2026-04-11T15:27:44.001Z</time></trkpt><trkpt lat="43.307681526990606" lon="12.42791839026055"><ele>614.5</ele><time>2026-04-11T15:27:45.001Z</time></trkpt><trkpt lat="43.30777632558455" lon="12.427816900250676"><ele>613.25</ele><time>2026-04-11T15:27:46.001Z</time></trkpt><trkpt lat="43.30785330091085" lon="12.42769910190495"><ele>612.0</ele><time>2026-04-11T15:27:47.001Z</time></trkpt><trkpt lat="43.30793962110149" lon="12.427590111021079"><ele>612.0</ele><time>2026-04-11T15:27:48.001Z</time></trkpt><trkpt lat="43.308031563709044" lon="12.427471909543815"><ele>612.0</ele><time>2026-04-11T15:27:49.001Z</time></trkpt><trkpt lat="43.30811401413083" lon="12.427353086928585"><ele>612.0</ele><time>2026-04-11T15:27:50.001Z</time></trkpt><trkpt lat="43.308205926304424" lon="12.42725533173852"><ele>612.0</ele><time>2026-04-11T15:27:51.001Z</time></trkpt><trkpt lat="43.30829275802465" lon="12.427148049508487"><ele>611.2</ele><time>2026-04-11T15:27:52.001Z</time></trkpt><trkpt lat="43.308379758099676" lon="12.427045758707518"><ele>610.4000000000001</ele><time>2026-04-11T15:27:53.001Z</time></trkpt><trkpt lat="43.30846618176392" lon="12.426945091598151"><ele>609.5999999999999</ele><time>2026-04-11T15:27:54.001Z</time></trkpt><trkpt lat="43.30855139857124" lon="12.42684495483328"><ele>608.8</ele><time>2026-04-11T15:27:55.001Z</time></trkpt><trkpt lat="43.308638283453014" lon="12.426756641319605"><ele>608.0</ele><time>2026-04-11T15:27:56.001Z</time></trkpt><trkpt lat="43.30872751062814" lon="12.426666357003795"><ele>608.0</ele><time>2026-04-11T15:27:57.001Z</time></trkpt><trkpt lat="43.308810814878996" lon="12.426567373586568"><ele>608.0</ele><time>2026-04-11T15:27:58.001Z</time></trkpt><trkpt lat="43.30888410216795" lon="12.426464915030941"><ele>608.0</ele><time>2026-04-11T15:27:59.001Z</time></trkpt><trkpt lat="43.30894863194751" lon="12.426366854493157"><ele>608.0</ele><time>2026-04-11T15:28:00.001Z</time></trkpt><trkpt lat="43.30900016391241" lon="12.426282921723644"><ele>608.0</ele><time>2026-04-11T15:28:01.001Z</time></trkpt><trkpt lat="43.309051352433485" lon="12.426208835121471"><ele>606.8333333333333</ele><time>2026-04-11T15:28:02.001Z</time></trkpt><trkpt lat="43.3091009267368" lon="12.426148004249303"><ele>605.6666666666666</ele><time>2026-04-11T15:28:03.001Z</time></trkpt><trkpt lat="43.309168002668926" lon="12.4260461744148"><ele>604.5</ele><time>2026-04-11T15:28:05.001Z</time></trkpt><trkpt lat="43.30924280829749" lon="12.425967099263108"><ele>603.3333333333334</ele><time>2026-04-11T15:28:07.001Z</time></trkpt><trkpt lat="43.30922890921406" lon="12.425825402571741"><ele>602.1666666666667</ele><time>2026-04-11T15:28:08.001Z</time></trkpt><trkpt lat="43.3092187845712" lon="12.425721383542035"><ele>601.0</ele><time>2026-04-11T15:28:09.001Z</time></trkpt><trkpt lat="43.309214337185374" lon="12.425606129797409"><ele>602.0</ele><time>2026-04-11T15:28:10.001Z</time></trkpt><trkpt lat="43.30920109895339" lon="12.425409746610672"><ele>603.0</ele><time>2026-04-11T15:28:12.001Z</time></trkpt><trkpt lat="43.30918461261322" lon="12.425306554627106"><ele>604.0</ele><time>2026-04-11T15:28:13.001Z</time></trkpt><trkpt lat="43.309157477965854" lon="12.425213600429021"><ele>605.0</ele><time>2026-04-11T15:28:14.001Z</time></trkpt><trkpt lat="43.30913906089083" lon="12.425120743186618"><ele>606.0</ele><time>2026-04-11T15:28:15.001Z</time></trkpt><trkpt lat="43.309132071603365" lon="12.425009070478081"><ele>607.0</ele><time>2026-04-11T15:28:16.001Z</time></trkpt><trkpt lat="43.309147475513356" lon="12.4249186761637"><ele>607.0</ele><time>2026-04-11T15:28:17.001Z</time></trkpt><trkpt lat="43.30916558330673" lon="12.424781630159037"><ele>607.0</ele><time>2026-04-11T15:28:18.001Z</time></trkpt><trkpt lat="43.3091711458979" lon="12.424661462910308"><ele>607.0</ele><time>2026-04-11T15:28:19.001Z</time></trkpt><trkpt lat="43.30916864392298" lon="12.42455418593524"><ele>607.0</ele><time>2026-04-11T15:28:20.001Z</time></trkpt><trkpt lat="43.30916707350859" lon="12.424459041733673"><ele>607.0</ele><time>2026-04-11T15:28:21.001Z</time></trkpt><trkpt lat="43.309177167323284" lon="12.424365129472994"><ele>607.0</ele><time>2026-04-11T15:28:22.001Z</time></trkpt><trkpt lat="43.30919934348652" lon="12.42426949037989"><ele>607.5</ele><time>2026-04-11T15:28:23Z</time></trkpt><trkpt lat="43.30922740192066" lon="12.424162762607772"><ele>608.0</ele><time>2026-04-11T15:28:24Z</time></trkpt><trkpt lat="43.309256304817524" lon="12.424052541658702"><ele>608.5</ele><time>2026-04-11T15:28:25Z</time></trkpt><trkpt lat="43.30928071154132" lon="12.423944446108365"><ele>609.0</ele><time>2026-04-11T15:28:26Z</time></trkpt><trkpt lat="43.30930184820985" lon="12.423841240951946"><ele>609.5</ele><time>2026-04-11T15:28:27Z</time></trkpt><trkpt lat="43.30932027091092" lon="12.423746583470692"><ele>610.0</ele><time>2026-04-11T15:28:28Z</time></trkpt><trkpt lat="43.309339008617556" lon="12.42365030772952"><ele>611.6666666666667</ele><time>2026-04-11T15:28:29Z</time></trkpt><trkpt lat="43.309357105998856" lon="12.423555058558637"><ele>613.3333333333334</ele><time>2026-04-11T15:28:30Z</time></trkpt><trkpt lat="43.309373411641346" lon="12.423468680501763"><ele>615.0</ele><time>2026-04-11T15:28:31Z</time></trkpt><trkpt lat="43.30939027394756" lon="12.423375591422706"><ele>616.6666666666666</ele><time>2026-04-11T15:28:32Z</time></trkpt><trkpt lat="43.30940940316131" lon="12.423261097995743"><ele>618.3333333333333</ele><time>2026-04-11T15:28:33Z</time></trkpt><trkpt lat="43.30942513408687" lon="12.423148328936279"><ele>620.0</ele><time>2026-04-11T15:28:34Z</time></trkpt><trkpt lat="43.309438842200606" lon="12.423009250782414"><ele>621.1666666666666</ele><time>2026-04-11T15:28:35Z</time></trkpt><trkpt lat="43.30945127392242" lon="12.422855908059613"><ele>622.3333333333333</ele><time>2026-04-11T15:28:36Z</time></trkpt><trkpt lat="43.30946328502573" lon="12.422722324036096"><ele>623.5</ele><time>2026-04-11T15:28:37Z</time></trkpt><trkpt lat="43.309473594030386" lon="12.422612327462666"><ele>624.6666666666666</ele><time>2026-04-11T15:28:38Z</time></trkpt><trkpt lat="43.30948312703664" lon="12.422510610430287"><ele>625.8333333333334</ele><time>2026-04-11T15:28:39Z</time></trkpt><trkpt lat="43.3094940924047" lon="12.422401917903093"><ele>627.0</ele><time>2026-04-11T15:28:40Z</time></trkpt><trkpt lat="43.30950494758427" lon="12.422304851678705"><ele>627.0</ele><time>2026-04-11T15:28:41Z</time></trkpt><trkpt lat="43.30952766068866" lon="12.422158530906371"><ele>627.0</ele><time>2026-04-11T15:28:43Z</time></trkpt><trkpt lat="43.30956988092768" lon="12.421981065936615"><ele>627.0</ele><time>2026-04-11T15:28:45Z</time></trkpt><trkpt lat="43.30959954555386" lon="12.42188751391556"><ele>627.0</ele><time>2026-04-11T15:28:46Z</time></trkpt><trkpt lat="43.309633044465684" lon="12.421788129580479"><ele>627.0</ele><time>2026-04-11T15:28:47Z</time></trkpt><trkpt lat="43.309674622824254" lon="12.421669143749707"><ele>627.0</ele><time>2026-04-11T15:28:48Z</time></trkpt><trkpt lat="43.309719609332326" lon="12.4215447214535"><ele>627.0</ele><time>2026-04-11T15:28:49Z</time></trkpt><trkpt lat="43.3097639786157" lon="12.421428628738175"><ele>627.0</ele><time>2026-04-11T15:28:50Z</time></trkpt><trkpt lat="43.309811020000396" lon="12.421309775351657"><ele>627.0</ele><time>2026-04-11T15:28:51Z</time></trkpt><trkpt lat="43.30986012447454" lon="12.421186273144384"><ele>627.0</ele><time>2026-04-11T15:28:52Z</time></trkpt><trkpt lat="43.309910813827436" lon="12.421069228848099"><ele>623.8000000000001</ele><time>2026-04-11T15:28:53Z</time></trkpt><trkpt lat="43.30996919730007" lon="12.420947476916261"><ele>620.6</ele><time>2026-04-11T15:28:54Z</time></trkpt><trkpt lat="43.31001026972178" lon="12.420821473081634"><ele>617.4000000000001</ele><time>2026-04-11T15:28:55Z</time></trkpt><trkpt lat="43.31006473940232" lon="12.420709207321629"><ele>614.2</ele><time>2026-04-11T15:28:56Z</time></trkpt><trkpt lat="43.310114897335374" lon="12.420607799373716"><ele>611.0</ele><time>2026-04-11T15:28:57Z</time></trkpt><trkpt lat="43.310156840527775" lon="12.420504932739393"><ele>609.6666666666666</ele><time>2026-04-11T15:28:58Z</time></trkpt><trkpt lat="43.31019003189318" lon="12.420402109716312"><ele>608.3333333333333</ele><time>2026-04-11T15:28:59Z</time></trkpt><trkpt lat="43.31022046113102" lon="12.420293646883504"><ele>607.0</ele><time>2026-04-11T15:29:00Z</time></trkpt><trkpt lat="43.3102494398456" lon="12.420188950471422"><ele>605.6666666666666</ele><time>2026-04-11T15:29:01Z</time></trkpt><trkpt lat="43.31027477527071" lon="12.420079959139647"><ele>604.3333333333334</ele><time>2026-04-11T15:29:02Z</time></trkpt><trkpt lat="43.310297630664834" lon="12.419970155442565"><ele>603.0</ele><time>2026-04-11T15:29:03Z</time></trkpt><trkpt lat="43.31034214445545" lon="12.419870373648278"><ele>603.0</ele><time>2026-04-11T15:29:04Z</time></trkpt><trkpt lat="43.310379329418964" lon="12.419761782449934"><ele>603.0</ele><time>2026-04-11T15:29:05Z</time></trkpt><trkpt lat="43.31041985484048" lon="12.41965707631977"><ele>603.0</ele><time>2026-04-11T15:29:06Z</time></trkpt><trkpt lat="43.310459487731364" lon="12.41956490391264"><ele>603.0</ele><time>2026-04-11T15:29:07Z</time></trkpt><trkpt lat="43.31048908555191" lon="12.419461968289601"><ele>603.0</ele><time>2026-04-11T15:29:08Z</time></trkpt><trkpt lat="43.310540342765364" lon="12.419382382153668"><ele>603.0</ele><time>2026-04-11T15:29:09Z</time></trkpt><trkpt lat="43.31058402014109" lon="12.419302327338103"><ele>602.6666666666666</ele><time>2026-04-11T15:29:10Z</time></trkpt><trkpt lat="43.310628271632474" lon="12.41920772816393"><ele>602.3333333333334</ele><time>2026-04-11T15:29:11Z</time></trkpt><trkpt lat="43.31067996073619" lon="12.4191061909472"><ele>602.0</ele><time>2026-04-11T15:29:12Z</time></trkpt><trkpt lat="43.31073698465591" lon="12.419007100798462"><ele>601.6666666666667</ele><time>2026-04-11T15:29:13Z</time></trkpt><trkpt lat="43.31080193792646" lon="12.418927222456023"><ele>601.3333333333334</ele><time>2026-04-11T15:29:14Z</time></trkpt><trkpt lat="43.31087847803004" lon="12.418851071443685"><ele>601.0</ele><time>2026-04-11T15:29:15Z</time></trkpt><trkpt lat="43.31095842016746" lon="12.418774828225393"><ele>598.75</ele><time>2026-04-11T15:29:16Z</time></trkpt><trkpt lat="43.31105064579843" lon="12.418676417452664"><ele>596.5</ele><time>2026-04-11T15:29:17Z</time></trkpt><trkpt lat="43.311153542020804" lon="12.418577820710068"><ele>594.25</ele><time>2026-04-11T15:29:18Z</time></trkpt><trkpt lat="43.31125098881124" lon="12.418465358929625"><ele>592.0</ele><time>2026-04-11T15:29:19Z</time></trkpt><trkpt lat="43.31134056265869" lon="12.41833151453857"><ele>594.25</ele><time>2026-04-11T15:29:20Z</time></trkpt><trkpt lat="43.311416659203495" lon="12.41817963526699"><ele>596.5</ele><time>2026-04-11T15:29:21Z</time></trkpt><trkpt lat="43.31147918366551" lon="12.418011390826527"><ele>598.75</ele><time>2026-04-11T15:29:22Z</time></trkpt><trkpt lat="43.31155274396598" lon="12.417846780211445"><ele>601.0</ele><time>2026-04-11T15:29:23.001Z</time></trkpt><trkpt lat="43.311611131861625" lon="12.41768280016914"><ele>600.75</ele><time>2026-04-11T15:29:24.001Z</time></trkpt><trkpt lat="43.311672534683716" lon="12.417524134730076"><ele>600.5</ele><time>2026-04-11T15:29:25.001Z</time></trkpt><trkpt lat="43.31174154444078" lon="12.417357167083242"><ele>600.25</ele><time>2026-04-11T15:29:26.001Z</time></trkpt><trkpt lat="43.31180782193628" lon="12.417199085618606"><ele>600.0</ele><time>2026-04-11T15:29:27.001Z</time></trkpt><trkpt lat="43.31186149093132" lon="12.417038596000342"><ele>600.0</ele><time>2026-04-11T15:29:28.001Z</time></trkpt><trkpt lat="43.311927165959204" lon="12.416883849138346"><ele>600.0</ele><time>2026-04-11T15:29:29.001Z</time></trkpt><trkpt lat="43.3119908977573" lon="12.41673417311647"><ele>600.0</ele><time>2026-04-11T15:29:30.001Z</time></trkpt><trkpt lat="43.31204876197732" lon="12.416576893058023"><ele>600.0</ele><time>2026-04-11T15:29:31.001Z</time></trkpt><trkpt lat="43.31212330706903" lon="12.41642647683826"><ele>600.0</ele><time>2026-04-11T15:29:32.001Z</time></trkpt><trkpt lat="43.31218242354448" lon="12.41625576557878"><ele>600.0</ele><time>2026-04-11T15:29:33.001Z</time></trkpt><trkpt lat="43.31223372385958" lon="12.416086917253809"><ele>600.0</ele><time>2026-04-11T15:29:34.001Z</time></trkpt><trkpt lat="43.31227953023381" lon="12.415929244495485"><ele>600.0</ele><time>2026-04-11T15:29:35.001Z</time></trkpt><trkpt lat="43.31231581704301" lon="12.415778256505893"><ele>600.0</ele><time>2026-04-11T15:29:36.001Z</time></trkpt><trkpt lat="43.31237304907235" lon="12.415648517371439"><ele>600.0</ele><time>2026-04-11T15:29:37.001Z</time></trkpt><trkpt lat="43.312444808157274" lon="12.415534556703104"><ele>600.0</ele><time>2026-04-11T15:29:38.001Z</time></trkpt><trkpt lat="43.31250183012673" lon="12.415416584961841"><ele>600.0</ele><time>2026-04-11T15:29:39.001Z</time></trkpt><trkpt lat="43.312548402851256" lon="12.415292505646747"><ele>600.0</ele><time>2026-04-11T15:29:40.001Z</time></trkpt><trkpt lat="43.312605392699616" lon="12.415182187464245"><ele>600.8</ele><time>2026-04-11T15:29:41.001Z</time></trkpt><trkpt lat="43.31265725163456" lon="12.41507339573423"><ele>601.6</ele><time>2026-04-11T15:29:42.001Z</time></trkpt><trkpt lat="43.312707271895306" lon="12.41496318606315"><ele>602.4</ele><time>2026-04-11T15:29:43.001Z</time></trkpt><trkpt lat="43.312774686886364" lon="12.414855162272424"><ele>603.2</ele><time>2026-04-11T15:29:44.001Z</time></trkpt><trkpt lat="43.31284373692167" lon="12.414705512074141"><ele>604.0</ele><time>2026-04-11T15:29:45.001Z</time></trkpt><trkpt lat="43.31292605687726" lon="12.414524568735809"><ele>604.0</ele><time>2026-04-11T15:29:46.001Z</time></trkpt><trkpt lat="43.313003205274704" lon="12.414316352442842"><ele>604.0</ele><time>2026-04-11T15:29:47.001Z</time></trkpt><trkpt lat="43.31309256616127" lon="12.41411980367038"><ele>604.0</ele><time>2026-04-11T15:29:48.001Z</time></trkpt><trkpt lat="43.31317618207208" lon="12.413956230983654"><ele>604.0</ele><time>2026-04-11T15:29:49.001Z</time></trkpt><trkpt lat="43.31324462051062" lon="12.413795724554058"><ele>604.0</ele><time>2026-04-11T15:29:50.001Z</time></trkpt><trkpt lat="43.31330501131105" lon="12.413644793470715"><ele>604.0</ele><time>2026-04-11T15:29:51.001Z</time></trkpt><trkpt lat="43.3133651276791" lon="12.41349164807171"><ele>604.0</ele><time>2026-04-11T15:29:52.001Z</time></trkpt><trkpt lat="43.313414056804" lon="12.41332454583176"><ele>604.0</ele><time>2026-04-11T15:29:53.001Z</time></trkpt><trkpt lat="43.31348324860859" lon="12.413162524473675"><ele>604.0</ele><time>2026-04-11T15:29:54.001Z</time></trkpt><trkpt lat="43.3135597206719" lon="12.413000877319398"><ele>604.0</ele><time>2026-04-11T15:29:55.001Z</time></trkpt><trkpt lat="43.31363300052852" lon="12.412834471037604"><ele>604.0</ele><time>2026-04-11T15:29:56.001Z</time></trkpt><trkpt lat="43.31370455218217" lon="12.41267001771645"><ele>603.0</ele><time>2026-04-11T15:29:57.001Z</time></trkpt><trkpt lat="43.313785156595664" lon="12.412515715769137"><ele>602.0</ele><time>2026-04-11T15:29:58.001Z</time></trkpt><trkpt lat="43.31383274351794" lon="12.41234342278298"><ele>601.0</ele><time>2026-04-11T15:29:59.001Z</time></trkpt><trkpt lat="43.31387816970576" lon="12.412176417305323"><ele>600.0</ele><time>2026-04-11T15:30:00.001Z</time></trkpt><trkpt lat="43.313907450437625" lon="12.41199583139231"><ele>600.0</ele><time>2026-04-11T15:30:01.001Z</time></trkpt><trkpt lat="43.31392331278903" lon="12.411822912116426"><ele>600.0</ele><time>2026-04-11T15:30:02.001Z</time></trkpt><trkpt lat="43.31394577722164" lon="12.411672566898265"><ele>600.0</ele><time>2026-04-11T15:30:03.001Z</time></trkpt><trkpt lat="43.314008831084664" lon="12.411559228006409"><ele>600.0</ele><time>2026-04-11T15:30:04.001Z</time></trkpt><trkpt lat="43.31406869257012" lon="12.41144058686586"><ele>600.0</ele><time>2026-04-11T15:30:05.001Z</time></trkpt><trkpt lat="43.31416197474529" lon="12.411327606853321"><ele>597.75</ele><time>2026-04-11T15:30:06.001Z</time></trkpt><trkpt lat="43.31425552146312" lon="12.411169572022201"><ele>595.5</ele><time>2026-04-11T15:30:07.001Z</time></trkpt><trkpt lat="43.31432518351296" lon="12.410989098183542"><ele>593.25</ele><time>2026-04-11T15:30:08.001Z</time></trkpt><trkpt lat="43.31438147378934" lon="12.410824164010986"><ele>591.0</ele><time>2026-04-11T15:30:09.001Z</time></trkpt><trkpt lat="43.31442636323656" lon="12.410685002808389"><ele>591.0</ele><time>2026-04-11T15:30:10.001Z</time></trkpt><trkpt lat="43.31446370482124" lon="12.410567872776726"><ele>591.0</ele><time>2026-04-11T15:30:11.001Z</time></trkpt><trkpt lat="43.31449916855008" lon="12.410455560634867"><ele>591.0</ele><time>2026-04-11T15:30:12.001Z</time></trkpt><trkpt lat="43.314537378786774" lon="12.410334549639275"><ele>591.0</ele><time>2026-04-11T15:30:13.001Z</time></trkpt><trkpt lat="43.314577557782215" lon="12.41021066142494"><ele>591.0</ele><time>2026-04-11T15:30:14.001Z</time></trkpt><trkpt lat="43.31460698437051" lon="12.410076151171552"><ele>591.8</ele><time>2026-04-11T15:30:15.001Z</time></trkpt><trkpt lat="43.314653264796966" lon="12.409951429252175"><ele>592.6</ele><time>2026-04-11T15:30:16.001Z</time></trkpt><trkpt lat="43.31471241167468" lon="12.40983743715026"><ele>593.4</ele><time>2026-04-11T15:30:17.001Z</time></trkpt><trkpt lat="43.31473578559998" lon="12.409708441523389"><ele>594.2</ele><time>2026-04-11T15:30:18.001Z</time></trkpt><trkpt lat="43.31476503860278" lon="12.409594226136505"><ele>595.0</ele><time>2026-04-11T15:30:19.001Z</time></trkpt><trkpt lat="43.3148045886959" lon="12.40948651814992"><ele>595.0</ele><time>2026-04-11T15:30:20.001Z</time></trkpt><trkpt lat="43.31481289201483" lon="12.409362896222824"><ele>595.0</ele><time>2026-04-11T15:30:21.001Z</time></trkpt><trkpt lat="43.31479627036252" lon="12.409233218516961"><ele>595.0</ele><time>2026-04-11T15:30:22.001Z</time></trkpt><trkpt lat="43.31476702300415" lon="12.40910661550588"><ele>595.0</ele><time>2026-04-11T15:30:23.001Z</time></trkpt><trkpt lat="43.31472229337051" lon="12.408970093640814"><ele>595.0</ele><time>2026-04-11T15:30:24.001Z</time></trkpt><trkpt lat="43.314676937918364" lon="12.408836085186325"><ele>593.2</ele><time>2026-04-11T15:30:25.001Z</time></trkpt><trkpt lat="43.314633389809856" lon="12.408712211547263"><ele>591.4</ele><time>2026-04-11T15:30:26.001Z</time></trkpt><trkpt lat="43.3145906806562" lon="12.408595937762978"><ele>589.6</ele><time>2026-04-11T15:30:27.001Z</time></trkpt><trkpt lat="43.31454883210571" lon="12.408484930891197"><ele>587.8</ele><time>2026-04-11T15:30:28.001Z</time></trkpt><trkpt lat="43.31450435526733" lon="12.408373296134988"><ele>586.0</ele><time>2026-04-11T15:30:29Z</time></trkpt><trkpt lat="43.31445720599885" lon="12.40826340229387"><ele>586.0</ele><time>2026-04-11T15:30:30Z</time></trkpt><trkpt lat="43.31440649126046" lon="12.40815706458212"><ele>586.0</ele><time>2026-04-11T15:30:31Z</time></trkpt><trkpt lat="43.31435478321705" lon="12.408056138240877"><ele>586.0</ele><time>2026-04-11T15:30:32Z</time></trkpt><trkpt lat="43.31429831320984" lon="12.407955487718615"><ele>586.0</ele><time>2026-04-11T15:30:33Z</time></trkpt><trkpt lat="43.31423226108134" lon="12.407851494859525"><ele>586.0</ele><time>2026-04-11T15:30:34Z</time></trkpt><trkpt lat="43.31415722769196" lon="12.407751742609438"><ele>585.6</ele><time>2026-04-11T15:30:35Z</time></trkpt><trkpt lat="43.3140691559996" lon="12.40765900665738"><ele>585.2</ele><time>2026-04-11T15:30:36Z</time></trkpt><trkpt lat="43.31397740695866" lon="12.407571740618277"><ele>584.8</ele><time>2026-04-11T15:30:37Z</time></trkpt><trkpt lat="43.31388947245504" lon="12.407493743615152"><ele>584.4</ele><time>2026-04-11T15:30:38Z</time></trkpt><trkpt lat="43.31380658021609" lon="12.407422978050924"><ele>584.0</ele><time>2026-04-11T15:30:39Z</time></trkpt><trkpt lat="43.31371587761695" lon="12.40735607063739"><ele>584.0</ele><time>2026-04-11T15:30:40Z</time></trkpt><trkpt lat="43.313619442960224" lon="12.407295655641063"><ele>584.0</ele><time>2026-04-11T15:30:41Z</time></trkpt><trkpt lat="43.31352512078105" lon="12.407252765072167"><ele>584.0</ele><time>2026-04-11T15:30:42Z</time></trkpt><trkpt lat="43.31343214830987" lon="12.407219873287463"><ele>584.0</ele><time>2026-04-11T15:30:43Z</time></trkpt><trkpt lat="43.313343320425204" lon="12.40719384684192"><ele>584.0</ele><time>2026-04-11T15:30:44Z</time></trkpt><trkpt lat="43.313255275288704" lon="12.40716931244088"><ele>583.8</ele><time>2026-04-11T15:30:45Z</time></trkpt><trkpt lat="43.31316686965727" lon="12.407144296213525"><ele>583.5999999999999</ele><time>2026-04-11T15:30:46Z</time></trkpt><trkpt lat="43.313076960269036" lon="12.40711510989628"><ele>583.4</ele><time>2026-04-11T15:30:47Z</time></trkpt><trkpt lat="43.31298506895089" lon="12.407083601578604"><ele>583.1999999999999</ele><time>2026-04-11T15:30:48Z</time></trkpt><trkpt lat="43.312891848039655" lon="12.407051996041643"><ele>583.0</ele><time>2026-04-11T15:30:49Z</time></trkpt><trkpt lat="43.31280163796972" lon="12.407024901667077"><ele>583.0</ele><time>2026-04-11T15:30:50Z</time></trkpt><trkpt lat="43.31270678692534" lon="12.407019159651933"><ele>583.0</ele><time>2026-04-11T15:30:51Z</time></trkpt><trkpt lat="43.312619635462234" lon="12.406997987550445"><ele>583.0</ele><time>2026-04-11T15:30:52Z</time></trkpt><trkpt lat="43.31253047435315" lon="12.406970535540669"><ele>583.0</ele><time>2026-04-11T15:30:53Z</time></trkpt><trkpt lat="43.3124384979777" lon="12.407018450827408"><ele>583.0</ele><time>2026-04-11T15:30:54Z</time></trkpt><trkpt lat="43.312352876486756" lon="12.407076228015939"><ele>581.6666666666667</ele><time>2026-04-11T15:30:55Z</time></trkpt><trkpt lat="43.31227814937561" lon="12.407160762924875"><ele>580.3333333333334</ele><time>2026-04-11T15:30:56Z</time></trkpt><trkpt lat="43.31220588923426" lon="12.407218954246405"><ele>579.0</ele><time>2026-04-11T15:30:57Z</time></trkpt><trkpt lat="43.31214547311618" lon="12.40728599724528"><ele>577.6666666666666</ele><time>2026-04-11T15:30:58Z</time></trkpt><trkpt lat="43.31207483237303" lon="12.407357467962374"><ele>576.3333333333333</ele><time>2026-04-11T15:30:59Z</time></trkpt><trkpt lat="43.311976727603195" lon="12.40739133864299"><ele>575.0</ele><time>2026-04-11T15:31:00Z</time></trkpt><trkpt lat="43.3118691019072" lon="12.407394005832355"><ele>573.4</ele><time>2026-04-11T15:31:01Z</time></trkpt><trkpt lat="43.31175780754955" lon="12.407375745777069"><ele>571.8</ele><time>2026-04-11T15:31:02Z</time></trkpt><trkpt lat="43.3116495893924" lon="12.407342194266315"><ele>570.2</ele><time>2026-04-11T15:31:03Z</time></trkpt><trkpt lat="43.31155242100583" lon="12.40731242880696"><ele>568.6</ele><time>2026-04-11T15:31:04Z</time></trkpt><trkpt lat="43.31146841010033" lon="12.407287534394092"><ele>567.0</ele><time>2026-04-11T15:31:05Z</time></trkpt><trkpt lat="43.311400624554445" lon="12.407244624375902"><ele>567.0</ele><time>2026-04-11T15:31:06Z</time></trkpt><trkpt lat="43.31137028107302" lon="12.407148849813252"><ele>567.0</ele><time>2026-04-11T15:31:07Z</time></trkpt><trkpt lat="43.311351285233265" lon="12.407064439602282"><ele>567.0</ele><time>2026-04-11T15:31:08Z</time></trkpt><trkpt lat="43.311408414878706" lon="12.406971689626062"><ele>567.0</ele><time>2026-04-11T15:31:09Z</time></trkpt><trkpt lat="43.31146225893797" lon="12.406860229880632"><ele>567.0</ele><time>2026-04-11T15:31:10Z</time></trkpt><trkpt lat="43.31153514834581" lon="12.406724326638214"><ele>567.0</ele><time>2026-04-11T15:31:11Z</time></trkpt><trkpt lat="43.3116086747285" lon="12.406603226240966"><ele>567.0</ele><time>2026-04-11T15:31:12Z</time></trkpt><trkpt lat="43.31168039873681" lon="12.40648695256833"><ele>567.0</ele><time>2026-04-11T15:31:13Z</time></trkpt><trkpt lat="43.31174253358648" lon="12.406367991308631"><ele>567.0</ele><time>2026-04-11T15:31:14Z</time></trkpt><trkpt lat="43.311820058700384" lon="12.406278502009917"><ele>567.0</ele><time>2026-04-11T15:31:15Z</time></trkpt><trkpt lat="43.311878518842065" lon="12.406175799993218"><ele>567.0</ele><time>2026-04-11T15:31:16Z</time></trkpt><trkpt lat="43.31191283450411" lon="12.406057929056105"><ele>563.2</ele><time>2026-04-11T15:31:17Z</time></trkpt><trkpt lat="43.31192927430402" lon="12.40592102813653"><ele>559.4000000000001</ele><time>2026-04-11T15:31:18Z</time></trkpt><trkpt lat="43.31196849978539" lon="12.405791100760652"><ele>555.5999999999999</ele><time>2026-04-11T15:31:19Z</time></trkpt><trkpt lat="43.312008007316045" lon="12.405671329612035"><ele>551.8</ele><time>2026-04-11T15:31:20Z</time></trkpt><trkpt lat="43.3120648313002" lon="12.405554740310992"><ele>548.0</ele><time>2026-04-11T15:31:21Z</time></trkpt><trkpt lat="43.31212252482541" lon="12.405458307276868"><ele>545.6</ele><time>2026-04-11T15:31:22Z</time></trkpt><trkpt lat="43.31217910192116" lon="12.405361373982874"><ele>543.1999999999999</ele><time>2026-04-11T15:31:23Z</time></trkpt><trkpt lat="43.31226486670252" lon="12.405332073390253"><ele>540.8</ele><time>2026-04-11T15:31:24Z</time></trkpt><trkpt lat="43.312359124488" lon="12.405340667184275"><ele>538.4</ele><time>2026-04-11T15:31:25Z</time></trkpt><trkpt lat="43.31246133850219" lon="12.405346184889915"><ele>536.0</ele><time>2026-04-11T15:31:26Z</time></trkpt><trkpt lat="43.31256671726179" lon="12.40532069405857"><ele>536.0</ele><time>2026-04-11T15:31:27Z</time></trkpt><trkpt lat="43.31266770752188" lon="12.405290138743698"><ele>536.0</ele><time>2026-04-11T15:31:28Z</time></trkpt><trkpt lat="43.31275321736679" lon="12.405228412302558"><ele>536.0</ele><time>2026-04-11T15:31:29Z</time></trkpt><trkpt lat="43.312835995260166" lon="12.405156184172517"><ele>536.0</ele><time>2026-04-11T15:31:30Z</time></trkpt><trkpt lat="43.31290849117129" lon="12.405080038430116"><ele>536.0</ele><time>2026-04-11T15:31:31Z</time></trkpt><trkpt lat="43.312970404286226" lon="12.405008639986313"><ele>536.0</ele><time>2026-04-11T15:31:32Z</time></trkpt><trkpt lat="43.31302031992265" lon="12.404944301804862"><ele>536.0</ele><time>2026-04-11T15:31:33Z</time></trkpt><trkpt lat="43.31309100042028" lon="12.404850460544289"><ele>536.0</ele><time>2026-04-11T15:31:35Z</time></trkpt><trkpt lat="43.31305672471745" lon="12.404714324171527"><ele>536.0</ele><time>2026-04-11T15:31:36Z</time></trkpt><trkpt lat="43.31300414044635" lon="12.404648625445704"><ele>536.0</ele><time>2026-04-11T15:31:37Z</time></trkpt><trkpt lat="43.31289403500648" lon="12.404642926263495"><ele>528.5</ele><time>2026-04-11T15:31:38Z</time></trkpt><trkpt lat="43.312792257142384" lon="12.404591560394053"><ele>521.0</ele><time>2026-04-11T15:31:39.001Z</time></trkpt><trkpt lat="43.31267972182165" lon="12.404588339179782"><ele>513.5</ele><time>2026-04-11T15:31:40.001Z</time></trkpt><trkpt lat="43.31256311151002" lon="12.404563602098372"><ele>506.0</ele><time>2026-04-11T15:31:41.001Z</time></trkpt><trkpt lat="43.3124402630083" lon="12.40454111907457"><ele>506.0</ele><time>2026-04-11T15:31:42.001Z</time></trkpt><trkpt lat="43.31231253193357" lon="12.404519907117647"><ele>506.0</ele><time>2026-04-11T15:31:43.001Z</time></trkpt><trkpt lat="43.312182495079476" lon="12.404501914713796"><ele>506.0</ele><time>2026-04-11T15:31:44.001Z</time></trkpt><trkpt lat="43.31204819634978" lon="12.404489298345313"><ele>506.0</ele><time>2026-04-11T15:31:45.001Z</time></trkpt><trkpt lat="43.311924951966205" lon="12.404486292749091"><ele>505.0</ele><time>2026-04-11T15:31:46.001Z</time></trkpt><trkpt lat="43.31181587285122" lon="12.404493756249977"><ele>504.0</ele><time>2026-04-11T15:31:47.001Z</time></trkpt><trkpt lat="43.31171760949323" lon="12.404504457442334"><ele>503.0</ele><time>2026-04-11T15:31:48.001Z</time></trkpt><trkpt lat="43.31163321660526" lon="12.404486600959267"><ele>502.0</ele><time>2026-04-11T15:31:49.001Z</time></trkpt><trkpt lat="43.31153949543918" lon="12.404489690085146"><ele>501.0</ele><time>2026-04-11T15:31:51.001Z</time></trkpt><trkpt lat="43.31146422902433" lon="12.404492170928231"><ele>499.0</ele><time>2026-04-11T15:32:08.001Z</time></trkpt><trkpt lat="43.311395647271056" lon="12.404456594146065"><ele>497.0</ele><time>2026-04-11T15:32:13.001Z</time></trkpt><trkpt lat="43.31135580318626" lon="12.404293797609467"><ele>495.0</ele><time>2026-04-11T15:32:17.001Z</time></trkpt><trkpt lat="43.31131374624623" lon="12.404196684181564"><ele>493.0</ele><time>2026-04-11T15:32:19.001Z</time></trkpt><trkpt lat="43.3112613672732" lon="12.404076256276731"><ele>491.0</ele><time>2026-04-11T15:32:21.001Z</time></trkpt><trkpt lat="43.31120149032446" lon="12.403963086011272"><ele>490.99999999999994</ele><time>2026-04-11T15:32:23.001Z</time></trkpt><trkpt lat="43.3111266369388" lon="12.403832211375745"><ele>491.0</ele><time>2026-04-11T15:32:25.001Z</time></trkpt><trkpt lat="43.31108173720141" lon="12.403758394080707"><ele>491.0</ele><time>2026-04-11T15:32:26.001Z</time></trkpt><trkpt lat="43.311043290218976" lon="12.403682576514674"><ele>491.0</ele><time>2026-04-11T15:32:27.001Z</time></trkpt><trkpt lat="43.31101088927411" lon="12.403519230021102"><ele>490.99999999999994</ele><time>2026-04-11T15:32:29.001Z</time></trkpt><trkpt lat="43.31102305054929" lon="12.403432179863765"><ele>491.0</ele><time>2026-04-11T15:32:30.001Z</time></trkpt><trkpt lat="43.31102720707219" lon="12.403258287108729"><ele>489.66666666666663</ele><time>2026-04-11T15:32:32.001Z</time></trkpt><trkpt lat="43.31107675976214" lon="12.403156448885719"><ele>488.3333333333333</ele><time>2026-04-11T15:32:33.001Z</time></trkpt><trkpt lat="43.31113032895259" lon="12.403056091322131"><ele>487.0</ele><time>2026-04-11T15:32:34.001Z</time></trkpt><trkpt lat="43.311178847776674" lon="12.402959993110978"><ele>485.66666666666663</ele><time>2026-04-11T15:32:35Z</time></trkpt><trkpt lat="43.311237587583804" lon="12.40287573141521"><ele>484.3333333333333</ele><time>2026-04-11T15:32:36Z</time></trkpt><trkpt lat="43.31128929222061" lon="12.402782188253163"><ele>483.0</ele><time>2026-04-11T15:32:37Z</time></trkpt><trkpt lat="43.31133594011323" lon="12.40266938616294"><ele>482.3333333333333</ele><time>2026-04-11T15:32:38Z</time></trkpt><trkpt lat="43.311397350749914" lon="12.402582729662015"><ele>481.66666666666663</ele><time>2026-04-11T15:32:39Z</time></trkpt><trkpt lat="43.31144637803594" lon="12.402479753245819"><ele>481.0</ele><time>2026-04-11T15:32:40Z</time></trkpt><trkpt lat="43.31148454834634" lon="12.40236993333624"><ele>480.3333333333333</ele><time>2026-04-11T15:32:41Z</time></trkpt><trkpt lat="43.31154120883597" lon="12.402274329124323"><ele>479.66666666666663</ele><time>2026-04-11T15:32:42Z</time></trkpt><trkpt lat="43.31158642205523" lon="12.402177972975649"><ele>479.0</ele><time>2026-04-11T15:32:43Z</time></trkpt><trkpt lat="43.311640306929135" lon="12.402081426849545"><ele>477.3333333333333</ele><time>2026-04-11T15:32:44Z</time></trkpt><trkpt lat="43.311695734420525" lon="12.401982087657144"><ele>475.66666666666663</ele><time>2026-04-11T15:32:45Z</time></trkpt><trkpt lat="43.311743303654225" lon="12.401873493348067"><ele>474.0</ele><time>2026-04-11T15:32:46Z</time></trkpt><trkpt lat="43.31176902870376" lon="12.401762870672677"><ele>472.33333333333337</ele><time>2026-04-11T15:32:47Z</time></trkpt><trkpt lat="43.31180164173639" lon="12.401652274720181"><ele>470.6666666666667</ele><time>2026-04-11T15:32:48Z</time></trkpt><trkpt lat="43.31186298295718" lon="12.401573209961663"><ele>469.0</ele><time>2026-04-11T15:32:49Z</time></trkpt><trkpt lat="43.31191446906472" lon="12.401468125557342"><ele>469.00000000000006</ele><time>2026-04-11T15:32:50Z</time></trkpt><trkpt lat="43.311969493865504" lon="12.40137537942212"><ele>469.0</ele><time>2026-04-11T15:32:51Z</time></trkpt><trkpt lat="43.31202195353289" lon="12.401289016249297"><ele>469.0</ele><time>2026-04-11T15:32:52Z</time></trkpt><trkpt lat="43.31206964210767" lon="12.40122513098601"><ele>469.0</ele><time>2026-04-11T15:32:53Z</time></trkpt><trkpt lat="43.312128162033076" lon="12.401184360814696"><ele>469.00000000000006</ele><time>2026-04-11T15:32:54Z</time></trkpt><trkpt lat="43.31221203405721" lon="12.401109135539903"><ele>469.0</ele><time>2026-04-11T15:32:56Z</time></trkpt><trkpt lat="43.31234000514287" lon="12.401224135205922"><ele>468.0</ele><time>2026-04-11T15:32:57Z</time></trkpt><trkpt lat="43.312414569150754" lon="12.401269811792114"><ele>467.0</ele><time>2026-04-11T15:32:58Z</time></trkpt><trkpt lat="43.312485051088835" lon="12.40130642899639"><ele>466.0</ele><time>2026-04-11T15:32:59Z</time></trkpt><trkpt lat="43.312554604702704" lon="12.401324991032984"><ele>465.0</ele><time>2026-04-11T15:33:00Z</time></trkpt><trkpt lat="43.31262141481849" lon="12.401314775578335"><ele>464.0</ele><time>2026-04-11T15:33:01Z</time></trkpt><trkpt lat="43.31270058579559" lon="12.401294222095013"><ele>463.0</ele><time>2026-04-11T15:33:02Z</time></trkpt><trkpt lat="43.312767582399026" lon="12.40126062437503"><ele>462.0</ele><time>2026-04-11T15:33:03Z</time></trkpt><trkpt lat="43.31283824938296" lon="12.401197486939246"><ele>462.0</ele><time>2026-04-11T15:33:04Z</time></trkpt><trkpt lat="43.31291355412926" lon="12.401135223389229"><ele>462.00000000000006</ele><time>2026-04-11T15:33:05Z</time></trkpt><trkpt lat="43.31296792621984" lon="12.401039690604328"><ele>462.00000000000006</ele><time>2026-04-11T15:33:06Z</time></trkpt><trkpt lat="43.313023597515894" lon="12.40093853006488"><ele>462.0</ele><time>2026-04-11T15:33:07Z</time></trkpt><trkpt lat="43.31307842170398" lon="12.400839359057146"><ele>462.0</ele><time>2026-04-11T15:33:08Z</time></trkpt><trkpt lat="43.31312250616736" lon="12.400726730826502"><ele>460.1666666666667</ele><time>2026-04-11T15:33:09Z</time></trkpt><trkpt lat="43.31318078332446" lon="12.400628265166107"><ele>458.33333333333337</ele><time>2026-04-11T15:33:10Z</time></trkpt><trkpt lat="43.313228579613096" lon="12.400530560700078"><ele>456.5</ele><time>2026-04-11T15:33:11Z</time></trkpt><trkpt lat="43.31326419280148" lon="12.400419395392385"><ele>454.6666666666667</ele><time>2026-04-11T15:33:12Z</time></trkpt><trkpt lat="43.31330546180522" lon="12.400318175893535"><ele>452.83333333333337</ele><time>2026-04-11T15:33:13Z</time></trkpt><trkpt lat="43.31329618046182" lon="12.400213465659345"><ele>451.0</ele><time>2026-04-11T15:33:14Z</time></trkpt><trkpt lat="43.3132791602461" lon="12.400118367131759"><ele>450.1666666666667</ele><time>2026-04-11T15:33:15Z</time></trkpt><trkpt lat="43.313261217948856" lon="12.400021790467331"><ele>449.33333333333337</ele><time>2026-04-11T15:33:16Z</time></trkpt><trkpt lat="43.31321950772791" lon="12.399929386145013"><ele>448.5</ele><time>2026-04-11T15:33:17Z</time></trkpt><trkpt lat="43.313174246043666" lon="12.399833272553238"><ele>447.66666666666663</ele><time>2026-04-11T15:33:18Z</time></trkpt><trkpt lat="43.313132057594686" lon="12.399742994089555"><ele>446.8333333333333</ele><time>2026-04-11T15:33:19Z</time></trkpt><trkpt lat="43.313097597724465" lon="12.399645261318165"><ele>446.0</ele><time>2026-04-11T15:33:20Z</time></trkpt><trkpt lat="43.3130709241692" lon="12.39955465037309"><ele>445.57142857142856</ele><time>2026-04-11T15:33:21Z</time></trkpt><trkpt lat="43.31308276875727" lon="12.399463132689982"><ele>445.1428571428571</ele><time>2026-04-11T15:33:22Z</time></trkpt><trkpt lat="43.3131088284737" lon="12.39938247512647"><ele>444.7142857142857</ele><time>2026-04-11T15:33:23Z</time></trkpt><trkpt lat="43.31314898995119" lon="12.39930590232556"><ele>444.2857142857143</ele><time>2026-04-11T15:33:24Z</time></trkpt><trkpt lat="43.31318705906923" lon="12.399225973175133"><ele>443.8571428571429</ele><time>2026-04-11T15:33:25Z</time></trkpt><trkpt lat="43.31323266606413" lon="12.399157456580348"><ele>443.42857142857144</ele><time>2026-04-11T15:33:26Z</time></trkpt><trkpt lat="43.31327521224952" lon="12.399086349572611"><ele>443.0</ele><time>2026-04-11T15:33:27Z</time></trkpt><trkpt lat="43.313359938492795" lon="12.398961131980863"><ele>442.99999999999994</ele><time>2026-04-11T15:33:29Z</time></trkpt><trkpt lat="43.313408982270865" lon="12.398890347419888"><ele>443.0</ele><time>2026-04-11T15:33:30Z</time></trkpt><trkpt lat="43.31345103141478" lon="12.398800656917455"><ele>443.0</ele><time>2026-04-11T15:33:31Z</time></trkpt><trkpt lat="43.31351277895569" lon="12.39873597502146"><ele>443.0</ele><time>2026-04-11T15:33:32Z</time></trkpt><trkpt lat="43.31356934403388" lon="12.39866487282356"><ele>442.99999999999994</ele><time>2026-04-11T15:33:33Z</time></trkpt><trkpt lat="43.31361779769293" lon="12.39859387402069"><ele>443.0</ele><time>2026-04-11T15:33:34Z</time></trkpt><trkpt lat="43.31366930130806" lon="12.398514787259586"><ele>441.99999999999994</ele><time>2026-04-11T15:33:35Z</time></trkpt><trkpt lat="43.313717558401294" lon="12.398432871878597"><ele>441.0</ele><time>2026-04-11T15:33:36Z</time></trkpt><trkpt lat="43.31376948008327" lon="12.398351029063774"><ele>440.0</ele><time>2026-04-11T15:33:37Z</time></trkpt><trkpt lat="43.31382000980967" lon="12.398281401817389"><ele>439.0</ele><time>2026-04-11T15:33:38Z</time></trkpt><trkpt lat="43.313863637557915" lon="12.398211458853503"><ele>437.99999999999994</ele><time>2026-04-11T15:33:39Z</time></trkpt><trkpt lat="43.313914574685036" lon="12.398044235685306"><ele>437.0</ele><time>2026-04-11T15:33:41Z</time></trkpt><trkpt lat="43.31394904140831" lon="12.397969355131908"><ele>435.8333333333333</ele><time>2026-04-11T15:33:42Z</time></trkpt><trkpt lat="43.31400535506355" lon="12.397908264317191"><ele>434.66666666666663</ele><time>2026-04-11T15:33:43Z</time></trkpt><trkpt lat="43.31405622309419" lon="12.39781265044306"><ele>433.5</ele><time>2026-04-11T15:33:44Z</time></trkpt><trkpt lat="43.314123945084" lon="12.397744606735495"><ele>432.33333333333337</ele><time>2026-04-11T15:33:45Z</time></trkpt><trkpt lat="43.314173784659204" lon="12.397656220085471"><ele>431.1666666666667</ele><time>2026-04-11T15:33:46Z</time></trkpt><trkpt lat="43.31422895759975" lon="12.397582711571356"><ele>430.0</ele><time>2026-04-11T15:33:47Z</time></trkpt><trkpt lat="43.31428210574335" lon="12.397508610728305"><ele>430.00000000000006</ele><time>2026-04-11T15:33:48Z</time></trkpt><trkpt lat="43.31433924520716" lon="12.397428117628873"><ele>430.0</ele><time>2026-04-11T15:33:49Z</time></trkpt><trkpt lat="43.31438961945743" lon="12.397345573605548"><ele>430.0</ele><time>2026-04-11T15:33:50Z</time></trkpt><trkpt lat="43.314435847513145" lon="12.397264079376562"><ele>430.0</ele><time>2026-04-11T15:33:51Z</time></trkpt><trkpt lat="43.31450328162856" lon="12.39720036550122"><ele>430.00000000000006</ele><time>2026-04-11T15:33:52Z</time></trkpt><trkpt lat="43.31455296257367" lon="12.397138815385011"><ele>430.0</ele><time>2026-04-11T15:33:53Z</time></trkpt><trkpt lat="43.31461007271111" lon="12.397072536145261"><ele>428.2</ele><time>2026-04-11T15:33:54Z</time></trkpt><trkpt lat="43.31469780479344" lon="12.396989275815452"><ele>426.4</ele><time>2026-04-11T15:33:56Z</time></trkpt><trkpt lat="43.31475768840005" lon="12.396952747293826"><ele>424.6</ele><time>2026-04-11T15:33:58Z</time></trkpt><trkpt lat="43.31485010791498" lon="12.396936948152437"><ele>422.8</ele><time>2026-04-11T15:34:00Z</time></trkpt><trkpt lat="43.3149323763906" lon="12.396912244311642"><ele>421.0</ele><time>2026-04-11T15:34:02.001Z</time></trkpt><trkpt lat="43.315033013090805" lon="12.396892740696805"><ele>420.5</ele><time>2026-04-11T15:34:04.001Z</time></trkpt><trkpt lat="43.31514213471923" lon="12.396837823970507"><ele>420.0</ele><time>2026-04-11T15:34:06.001Z</time></trkpt><trkpt lat="43.31525008921205" lon="12.396738425015773"><ele>419.5</ele><time>2026-04-11T15:34:08.001Z</time></trkpt><trkpt lat="43.31534644735191" lon="12.39666721459153"><ele>419.0</ele><time>2026-04-11T15:34:10.001Z</time></trkpt><trkpt lat="43.31543849489164" lon="12.396555343007895"><ele>418.99999999999994</ele><time>2026-04-11T15:34:12.001Z</time></trkpt><trkpt lat="43.31549302038127" lon="12.396504621522498"><ele>419.0</ele><time>2026-04-11T15:34:13.001Z</time></trkpt><trkpt lat="43.315548051484456" lon="12.396448349953207"><ele>419.0</ele><time>2026-04-11T15:34:14.001Z</time></trkpt><trkpt lat="43.31559773500194" lon="12.396383760557393"><ele>419.0</ele><time>2026-04-11T15:34:15.001Z</time></trkpt><trkpt lat="43.315661237112714" lon="12.39634694768587"><ele>418.99999999999994</ele><time>2026-04-11T15:34:16.001Z</time></trkpt><trkpt lat="43.31571953158578" lon="12.396311343604296"><ele>419.0</ele><time>2026-04-11T15:34:17.001Z</time></trkpt><trkpt lat="43.31582602192565" lon="12.396226764174369"><ele>417.16666666666663</ele><time>2026-04-11T15:34:19.001Z</time></trkpt><trkpt lat="43.315878845250445" lon="12.396172582290587"><ele>415.3333333333333</ele><time>2026-04-11T15:34:20.001Z</time></trkpt><trkpt lat="43.315957185414625" lon="12.396139762578782"><ele>413.5</ele><time>2026-04-11T15:34:21.001Z</time></trkpt><trkpt lat="43.31602092876633" lon="12.396095465102679"><ele>411.66666666666663</ele><time>2026-04-11T15:34:22.001Z</time></trkpt><trkpt lat="43.31608134561024" lon="12.39605569359084"><ele>409.8333333333333</ele><time>2026-04-11T15:34:23.001Z</time></trkpt><trkpt lat="43.31619134897327" lon="12.39598739190701"><ele>408.0</ele><time>2026-04-11T15:34:25.001Z</time></trkpt><trkpt lat="43.316251995046784" lon="12.39591990651146"><ele>408.0</ele><time>2026-04-11T15:34:27.001Z</time></trkpt><trkpt lat="43.31630712511594" lon="12.395872546549477"><ele>408.0</ele><time>2026-04-11T15:34:30.001Z</time></trkpt><trkpt lat="43.31636166034571" lon="12.395782665320949"><ele>408.0</ele><time>2026-04-11T15:34:32.001Z</time></trkpt><trkpt lat="43.31640828167985" lon="12.395647949074693"><ele>408.0</ele><time>2026-04-11T15:34:34.001Z</time></trkpt><trkpt lat="43.316439623946785" lon="12.39553282179202"><ele>408.0</ele><time>2026-04-11T15:34:36.001Z</time></trkpt><trkpt lat="43.316451567870146" lon="12.395432858043934"><ele>408.0</ele><time>2026-04-11T15:34:37.001Z</time></trkpt><trkpt lat="43.316469493468944" lon="12.395328284955054"><ele>407.8333333333333</ele><time>2026-04-11T15:34:38.001Z</time></trkpt><trkpt lat="43.316489788332944" lon="12.395239505313022"><ele>407.66666666666663</ele><time>2026-04-11T15:34:39.001Z</time></trkpt><trkpt lat="43.31651992354417" lon="12.395109714090516"><ele>407.5</ele><time>2026-04-11T15:34:41Z</time></trkpt><trkpt lat="43.316535084561636" lon="12.394997374937136"><ele>407.3333333333333</ele><time>2026-04-11T15:34:43Z</time></trkpt><trkpt lat="43.31650596282968" lon="12.394829204325255"><ele>407.16666666666663</ele><time>2026-04-11T15:34:45Z</time></trkpt><trkpt lat="43.31647419916648" lon="12.39473769848878"><ele>407.0</ele><time>2026-04-11T15:34:46Z</time></trkpt><trkpt lat="43.31646446917755" lon="12.394630708351766"><ele>405.66666666666663</ele><time>2026-04-11T15:34:47Z</time></trkpt><trkpt lat="43.316447545807314" lon="12.394520507415375"><ele>404.3333333333333</ele><time>2026-04-11T15:34:48Z</time></trkpt><trkpt lat="43.31643865435349" lon="12.394419049949086"><ele>403.0</ele><time>2026-04-11T15:34:49Z</time></trkpt><trkpt lat="43.31643495201774" lon="12.394301668488819"><ele>401.66666666666663</ele><time>2026-04-11T15:34:50Z</time></trkpt><trkpt lat="43.31643494867073" lon="12.394160690536518"><ele>400.3333333333333</ele><time>2026-04-11T15:34:51Z</time></trkpt><trkpt lat="43.316435660172104" lon="12.394023558936647"><ele>399.0</ele><time>2026-04-11T15:34:52Z</time></trkpt><trkpt lat="43.31643643988921" lon="12.393873279264156"><ele>397.6</ele><time>2026-04-11T15:34:53Z</time></trkpt><trkpt lat="43.31642883562267" lon="12.39372206319086"><ele>396.2</ele><time>2026-04-11T15:34:54Z</time></trkpt><trkpt lat="43.31645492922538" lon="12.393576081389293"><ele>394.8</ele><time>2026-04-11T15:34:55Z</time></trkpt><trkpt lat="43.31646592002459" lon="12.393419697573698"><ele>393.40000000000003</ele><time>2026-04-11T15:34:56Z</time></trkpt><trkpt lat="43.31647549611318" lon="12.393266371120294"><ele>392.0</ele><time>2026-04-11T15:34:57Z</time></trkpt><trkpt lat="43.31648516977881" lon="12.393111482039224"><ele>391.0</ele><time>2026-04-11T15:34:58Z</time></trkpt><trkpt lat="43.3164950580768" lon="12.39295315678178"><ele>390.0</ele><time>2026-04-11T15:34:59Z</time></trkpt><trkpt lat="43.316496884597015" lon="12.392806521445971"><ele>389.0</ele><time>2026-04-11T15:35:00Z</time></trkpt><trkpt lat="43.31650701808946" lon="12.392662645870734"><ele>388.0</ele><time>2026-04-11T15:35:01Z</time></trkpt><trkpt lat="43.316536001392116" lon="12.39252237280717"><ele>387.0</ele><time>2026-04-11T15:35:02Z</time></trkpt><trkpt lat="43.31655250100725" lon="12.39238370826252"><ele>387.0</ele><time>2026-04-11T15:35:03Z</time></trkpt><trkpt lat="43.3165686734685" lon="12.392246848773034"><ele>387.0</ele><time>2026-04-11T15:35:04Z</time></trkpt><trkpt lat="43.31656766634289" lon="12.392115451542331"><ele>387.0</ele><time>2026-04-11T15:35:05Z</time></trkpt><trkpt lat="43.316583241383796" lon="12.391990881273806"><ele>387.0</ele><time>2026-04-11T15:35:06Z</time></trkpt><trkpt lat="43.316590012664186" lon="12.391871770450624"><ele>387.0</ele><time>2026-04-11T15:35:07Z</time></trkpt><trkpt lat="43.31660100433989" lon="12.39177206979671"><ele>387.0</ele><time>2026-04-11T15:35:08Z</time></trkpt><trkpt lat="43.31665819041815" lon="12.391634376820058"><ele>387.1666666666667</ele><time>2026-04-11T15:35:10Z</time></trkpt><trkpt lat="43.316710033060545" lon="12.391576747250776"><ele>387.33333333333337</ele><time>2026-04-11T15:35:11Z</time></trkpt><trkpt lat="43.31677050998201" lon="12.391492984952228"><ele>387.5</ele><time>2026-04-11T15:35:12Z</time></trkpt><trkpt lat="43.31684166270618" lon="12.391421445133332"><ele>387.6666666666667</ele><time>2026-04-11T15:35:13Z</time></trkpt><trkpt lat="43.316896253450345" lon="12.391373741671813"><ele>387.83333333333337</ele><time>2026-04-11T15:35:14Z</time></trkpt><trkpt lat="43.31698976297824" lon="12.391280583581104"><ele>388.0</ele><time>2026-04-11T15:35:16Z</time></trkpt><trkpt lat="43.31704488208175" lon="12.391231805922883"><ele>389.00000000000006</ele><time>2026-04-11T15:35:17Z</time></trkpt><trkpt lat="43.317093728656104" lon="12.39116785448387"><ele>390.0</ele><time>2026-04-11T15:35:18Z</time></trkpt><trkpt lat="43.317144363407934" lon="12.391094334684011"><ele>391.0</ele><time>2026-04-11T15:35:19Z</time></trkpt><trkpt lat="43.31720293421561" lon="12.391019285179445"><ele>392.0</ele><time>2026-04-11T15:35:20Z</time></trkpt><trkpt lat="43.31726587329032" lon="12.390946270502115"><ele>393.00000000000006</ele><time>2026-04-11T15:35:21Z</time></trkpt><trkpt lat="43.31732810579986" lon="12.390864670024001"><ele>394.0</ele><time>2026-04-11T15:35:22Z</time></trkpt><trkpt lat="43.31738951770879" lon="12.390780544373118"><ele>392.7142857142857</ele><time>2026-04-11T15:35:23Z</time></trkpt><trkpt lat="43.31744339825526" lon="12.390694709708933"><ele>391.42857142857144</ele><time>2026-04-11T15:35:24Z</time></trkpt><trkpt lat="43.31748759077456" lon="12.390608502462692"><ele>390.1428571428571</ele><time>2026-04-11T15:35:25Z</time></trkpt><trkpt lat="43.31752842774801" lon="12.39052183661585"><ele>388.8571428571429</ele><time>2026-04-11T15:35:26Z</time></trkpt><trkpt lat="43.317565045070594" lon="12.390434185211953"><ele>387.57142857142856</ele><time>2026-04-11T15:35:27Z</time></trkpt><trkpt lat="43.31759486353584" lon="12.390341543459035"><ele>386.2857142857143</ele><time>2026-04-11T15:35:28Z</time></trkpt><trkpt lat="43.31764221915822" lon="12.390275484976444"><ele>385.0</ele><time>2026-04-11T15:35:29Z</time></trkpt><trkpt lat="43.3177604332249" lon="12.39018404746485"><ele>385.00000000000006</ele><time>2026-04-11T15:35:31Z</time></trkpt><trkpt lat="43.31782896157223" lon="12.39014324900577"><ele>385.0</ele><time>2026-04-11T15:35:32Z</time></trkpt><trkpt lat="43.31789429689788" lon="12.390101896941967"><ele>385.0</ele><time>2026-04-11T15:35:33Z</time></trkpt><trkpt lat="43.3179693567216" lon="12.390052100385962"><ele>385.0</ele><time>2026-04-11T15:35:34Z</time></trkpt><trkpt lat="43.31804071979445" lon="12.39000745707313"><ele>385.00000000000006</ele><time>2026-04-11T15:35:35Z</time></trkpt><trkpt lat="43.3181096987043" lon="12.389957823554742"><ele>385.0</ele><time>2026-04-11T15:35:36Z</time></trkpt><trkpt lat="43.3181765148427" lon="12.38991108580427"><ele>382.6666666666667</ele><time>2026-04-11T15:35:37Z</time></trkpt><trkpt lat="43.31825444187957" lon="12.389877732633094"><ele>380.33333333333337</ele><time>2026-04-11T15:35:38Z</time></trkpt><trkpt lat="43.31833227870612" lon="12.389838256612563"><ele>378.0</ele><time>2026-04-11T15:35:39Z</time></trkpt><trkpt lat="43.31840248673053" lon="12.38979666090418"><ele>375.6666666666667</ele><time>2026-04-11T15:35:40Z</time></trkpt><trkpt lat="43.31847255917876" lon="12.389751120188079"><ele>373.33333333333337</ele><time>2026-04-11T15:35:41Z</time></trkpt><trkpt lat="43.318536078933306" lon="12.389711510383108"><ele>371.0</ele><time>2026-04-11T15:35:42Z</time></trkpt><trkpt lat="43.31859166546042" lon="12.389665205697042"><ele>370.85714285714283</ele><time>2026-04-11T15:35:43Z</time></trkpt><trkpt lat="43.318641447140315" lon="12.38960306133457"><ele>370.7142857142857</ele><time>2026-04-11T15:35:44Z</time></trkpt><trkpt lat="43.31867700917761" lon="12.389530652786636"><ele>370.57142857142856</ele><time>2026-04-11T15:35:45Z</time></trkpt><trkpt lat="43.31870086534339" lon="12.389447770357117"><ele>370.42857142857144</ele><time>2026-04-11T15:35:46Z</time></trkpt><trkpt lat="43.31870496037337" lon="12.38935584356028"><ele>370.2857142857143</ele><time>2026-04-11T15:35:47Z</time></trkpt><trkpt lat="43.31869134280071" lon="12.389259863635537"><ele>370.1428571428571</ele><time>2026-04-11T15:35:48Z</time></trkpt><trkpt lat="43.318662772461636" lon="12.389173998476453"><ele>370.0</ele><time>2026-04-11T15:35:49Z</time></trkpt><trkpt lat="43.318629691327835" lon="12.389040974625088"><ele>370.0</ele><time>2026-04-11T15:35:51Z</time></trkpt><trkpt lat="43.318576187798286" lon="12.388915312697222"><ele>370.0</ele><time>2026-04-11T15:35:53Z</time></trkpt><trkpt lat="43.318557169573054" lon="12.388797555307017"><ele>370.0</ele><time>2026-04-11T15:35:55Z</time></trkpt><trkpt lat="43.318663922186744" lon="12.388696731748198"><ele>370.0</ele><time>2026-04-11T15:35:57Z</time></trkpt><trkpt lat="43.31875644550355" lon="12.38872351671077"><ele>370.0</ele><time>2026-04-11T15:35:58Z</time></trkpt><trkpt lat="43.318848611847635" lon="12.388695857404421"><ele>366.16666666666663</ele><time>2026-04-11T15:35:59Z</time></trkpt><trkpt lat="43.31894440156944" lon="12.388679997401214"><ele>362.3333333333333</ele><time>2026-04-11T15:36:00Z</time></trkpt><trkpt lat="43.31903966791954" lon="12.388639979095823"><ele>358.5</ele><time>2026-04-11T15:36:01.001Z</time></trkpt><trkpt lat="43.31912893124304" lon="12.388590147504981"><ele>354.6666666666667</ele><time>2026-04-11T15:36:02.001Z</time></trkpt><trkpt lat="43.31920665158646" lon="12.38854236884491"><ele>350.83333333333337</ele><time>2026-04-11T15:36:03.001Z</time></trkpt><trkpt lat="43.319275483340604" lon="12.388518791233075"><ele>347.0</ele><time>2026-04-11T15:36:04.001Z</time></trkpt><trkpt lat="43.3193458646361" lon="12.388522475030346"><ele>347.0</ele><time>2026-04-11T15:36:05.001Z</time></trkpt><trkpt lat="43.319395556926764" lon="12.388579796777842"><ele>347.0</ele><time>2026-04-11T15:36:06.001Z</time></trkpt><trkpt lat="43.31942677340836" lon="12.388679410498824"><ele>347.0</ele><time>2026-04-11T15:36:07.001Z</time></trkpt><trkpt lat="43.319436930618956" lon="12.388785924186626"><ele>347.0</ele><time>2026-04-11T15:36:08.001Z</time></trkpt><trkpt lat="43.3194017619228" lon="12.38889885439037"><ele>347.0</ele><time>2026-04-11T15:36:09.001Z</time></trkpt><trkpt lat="43.31939425519323" lon="12.389022074397037"><ele>347.0</ele><time>2026-04-11T15:36:10.001Z</time></trkpt><trkpt lat="43.319366892632935" lon="12.389133678440183"><ele>347.6</ele><time>2026-04-11T15:36:11.001Z</time></trkpt><trkpt lat="43.31932061023954" lon="12.389315618556365"><ele>348.20000000000005</ele><time>2026-04-11T15:36:13.001Z</time></trkpt><trkpt lat="43.31930477313295" lon="12.389408376253387"><ele>348.8</ele><time>2026-04-11T15:36:14.001Z</time></trkpt><trkpt lat="43.31930549554533" lon="12.389560884772996"><ele>349.4</ele><time>2026-04-11T15:36:16.001Z</time></trkpt><trkpt lat="43.319370669327284" lon="12.389699790969333"><ele>350.0</ele><time>2026-04-11T15:36:18.001Z</time></trkpt><trkpt lat="43.31943097836604" lon="12.389748858418264"><ele>350.0</ele><time>2026-04-11T15:36:19.001Z</time></trkpt><trkpt lat="43.319510952340096" lon="12.389764476052564"><ele>350.0</ele><time>2026-04-11T15:36:20.001Z</time></trkpt><trkpt lat="43.31961277994715" lon="12.389753061195133"><ele>350.0</ele><time>2026-04-11T15:36:21.001Z</time></trkpt><trkpt lat="43.319716486157525" lon="12.389732108228886"><ele>350.0</ele><time>2026-04-11T15:36:22.001Z</time></trkpt><trkpt lat="43.31980860135532" lon="12.389709032126094"><ele>350.0</ele><time>2026-04-11T15:36:23.001Z</time></trkpt><trkpt lat="43.319904811104834" lon="12.38968577133588"><ele>346.6</ele><time>2026-04-11T15:36:24.001Z</time></trkpt><trkpt lat="43.31999558114005" lon="12.389674442774691"><ele>343.2</ele><time>2026-04-11T15:36:25.001Z</time></trkpt><trkpt lat="43.320082691593285" lon="12.389690200512147"><ele>339.79999999999995</ele><time>2026-04-11T15:36:26.001Z</time></trkpt><trkpt lat="43.320172433505185" lon="12.389731052209271"><ele>336.4</ele><time>2026-04-11T15:36:27.001Z</time></trkpt><trkpt lat="43.32025944871585" lon="12.389779371131892"><ele>333.0</ele><time>2026-04-11T15:36:28.001Z</time></trkpt><trkpt lat="43.32034152092506" lon="12.38983478964917"><ele>332.5</ele><time>2026-04-11T15:36:29.001Z</time></trkpt><trkpt lat="43.32042580165031" lon="12.38986331701519"><ele>332.0</ele><time>2026-04-11T15:36:30.001Z</time></trkpt><trkpt lat="43.32050592564128" lon="12.389868099204957"><ele>331.5</ele><time>2026-04-11T15:36:31.001Z</time></trkpt><trkpt lat="43.32058384940806" lon="12.389853896576694"><ele>331.0</ele><time>2026-04-11T15:36:32.001Z</time></trkpt><trkpt lat="43.32065827884932" lon="12.389812028476165"><ele>330.5</ele><time>2026-04-11T15:36:33.001Z</time></trkpt><trkpt lat="43.32071842979795" lon="12.389750040566943"><ele>330.0</ele><time>2026-04-11T15:36:34.001Z</time></trkpt><trkpt lat="43.32076545557145" lon="12.389665906100873"><ele>328.5</ele><time>2026-04-11T15:36:35.001Z</time></trkpt><trkpt lat="43.32079771543394" lon="12.389578438446357"><ele>327.0</ele><time>2026-04-11T15:36:36.001Z</time></trkpt><trkpt lat="43.320828782543074" lon="12.389492527525896"><ele>325.5</ele><time>2026-04-11T15:36:37.001Z</time></trkpt><trkpt lat="43.320863873886694" lon="12.389409396123925"><ele>324.0</ele><time>2026-04-11T15:36:38.001Z</time></trkpt><trkpt lat="43.32090458126009" lon="12.389309013152788"><ele>322.5</ele><time>2026-04-11T15:36:39.001Z</time></trkpt><trkpt lat="43.320956813865934" lon="12.389208636105241"><ele>321.0</ele><time>2026-04-11T15:36:40.001Z</time></trkpt><trkpt lat="43.320999799159644" lon="12.38910182253106"><ele>321.0</ele><time>2026-04-11T15:36:41.001Z</time></trkpt><trkpt lat="43.32104321323287" lon="12.38899001566187"><ele>321.0</ele><time>2026-04-11T15:36:42.001Z</time></trkpt><trkpt lat="43.321081462415705" lon="12.388884154538037"><ele>321.0</ele><time>2026-04-11T15:36:43.001Z</time></trkpt><trkpt lat="43.3211053932072" lon="12.388767162754041"><ele>321.0</ele><time>2026-04-11T15:36:44.001Z</time></trkpt><trkpt lat="43.32115105586768" lon="12.388655663685418"><ele>321.0</ele><time>2026-04-11T15:36:45.001Z</time></trkpt><trkpt lat="43.321185448939254" lon="12.388542001999417"><ele>321.0</ele><time>2026-04-11T15:36:46.001Z</time></trkpt><trkpt lat="43.321224499033285" lon="12.388431500088858"><ele>321.8333333333333</ele><time>2026-04-11T15:36:47Z</time></trkpt><trkpt lat="43.321267454517475" lon="12.388326738786528"><ele>322.6666666666667</ele><time>2026-04-11T15:36:48Z</time></trkpt><trkpt lat="43.32131778204391" lon="12.388226225986823"><ele>323.5</ele><time>2026-04-11T15:36:49Z</time></trkpt><trkpt lat="43.321375825793396" lon="12.388147520562999"><ele>324.33333333333337</ele><time>2026-04-11T15:36:50Z</time></trkpt><trkpt lat="43.32143970772092" lon="12.388071587081168"><ele>325.1666666666667</ele><time>2026-04-11T15:36:51Z</time></trkpt><trkpt lat="43.32150170316764" lon="12.388003908252065"><ele>326.0</ele><time>2026-04-11T15:36:52Z</time></trkpt><trkpt lat="43.32155749752265" lon="12.38794905314731"><ele>323.6666666666667</ele><time>2026-04-11T15:36:53Z</time></trkpt><trkpt lat="43.32161605178054" lon="12.387889674461679"><ele>321.33333333333337</ele><time>2026-04-11T15:36:54Z</time></trkpt><trkpt lat="43.32168679983326" lon="12.38784528460568"><ele>319.0</ele><time>2026-04-11T15:36:55Z</time></trkpt><trkpt lat="43.32176231908657" lon="12.38780493718947"><ele>316.6666666666667</ele><time>2026-04-11T15:36:56Z</time></trkpt><trkpt lat="43.32184947945146" lon="12.387787858101477"><ele>314.3333333333333</ele><time>2026-04-11T15:36:57Z</time></trkpt><trkpt lat="43.321924820222854" lon="12.387779887581264"><ele>312.0</ele><time>2026-04-11T15:36:58Z</time></trkpt><trkpt lat="43.32200288873184" lon="12.387783840792375"><ele>312.0</ele><time>2026-04-11T15:36:59Z</time></trkpt><trkpt lat="43.322083944337265" lon="12.387811460002846"><ele>312.0</ele><time>2026-04-11T15:37:00Z</time></trkpt><trkpt lat="43.322170413221144" lon="12.387854271906912"><ele>312.0</ele><time>2026-04-11T15:37:01Z</time></trkpt><trkpt lat="43.322243971744065" lon="12.387894523060238"><ele>312.0</ele><time>2026-04-11T15:37:02Z</time></trkpt><trkpt lat="43.322311163579975" lon="12.38794839395392"><ele>312.0</ele><time>2026-04-11T15:37:03Z</time></trkpt><trkpt lat="43.32234707936707" lon="12.388060981401022"><ele>312.0</ele><time>2026-04-11T15:37:04Z</time></trkpt><trkpt lat="43.322415374080485" lon="12.388154936670373"><ele>310.0</ele><time>2026-04-11T15:37:05Z</time></trkpt><trkpt lat="43.32249071326534" lon="12.38821732804654"><ele>308.0</ele><time>2026-04-11T15:37:06Z</time></trkpt><trkpt lat="43.322555056325974" lon="12.388252519004228"><ele>306.0</ele><time>2026-04-11T15:37:07Z</time></trkpt><trkpt lat="43.32262198630597" lon="12.38825475840974"><ele>304.0</ele><time>2026-04-11T15:37:08Z</time></trkpt><trkpt lat="43.32268249892" lon="12.388214443968105"><ele>302.0</ele><time>2026-04-11T15:37:09Z</time></trkpt><trkpt lat="43.32274411393832" lon="12.38813622389588"><ele>300.0</ele><time>2026-04-11T15:37:10Z</time></trkpt><trkpt lat="43.322796536541375" lon="12.388048851072565"><ele>299.3333333333333</ele><time>2026-04-11T15:37:11Z</time></trkpt><trkpt lat="43.322842582289844" lon="12.387973625843841"><ele>298.6666666666667</ele><time>2026-04-11T15:37:12Z</time></trkpt><trkpt lat="43.322887248594" lon="12.387887231361352"><ele>298.0</ele><time>2026-04-11T15:37:13Z</time></trkpt><trkpt lat="43.32292296232155" lon="12.38779730212517"><ele>297.33333333333337</ele><time>2026-04-11T15:37:14Z</time></trkpt><trkpt lat="43.32295213349464" lon="12.387716633990328"><ele>296.6666666666667</ele><time>2026-04-11T15:37:15Z</time></trkpt><trkpt lat="43.32303679376535" lon="12.387623315385051"><ele>296.0</ele><time>2026-04-11T15:37:17Z</time></trkpt><trkpt lat="43.323134015873194" lon="12.387692849539947"><ele>294.5</ele><time>2026-04-11T15:37:19Z</time></trkpt><trkpt lat="43.32313911674752" lon="12.387856535494592"><ele>293.0</ele><time>2026-04-11T15:37:21Z</time></trkpt><trkpt lat="43.32312004977187" lon="12.387953461833485"><ele>291.5</ele><time>2026-04-11T15:37:22Z</time></trkpt><trkpt lat="43.323108238676255" lon="12.38806860225711"><ele>290.0</ele><time>2026-04-11T15:37:23Z</time></trkpt><trkpt lat="43.32309959809662" lon="12.38815534985611"><ele>288.5</ele><time>2026-04-11T15:37:24Z</time></trkpt><trkpt lat="43.32308344250326" lon="12.388286040915974"><ele>287.0</ele><time>2026-04-11T15:37:26Z</time></trkpt><trkpt lat="43.32309894725481" lon="12.388385973138128"><ele>287.0</ele><time>2026-04-11T15:45:25Z</time></trkpt><trkpt lat="43.32321912963472" lon="12.3882811267174"><ele>287.0</ele><time>2026-04-11T15:45:28Z</time></trkpt><trkpt lat="43.323234059037254" lon="12.38816634799229"><ele>287.0</ele><time>2026-04-11T15:45:29Z</time></trkpt><trkpt lat="43.323251944732036" lon="12.388035628995585"><ele>287.0</ele><time>2026-04-11T15:45:30Z</time></trkpt><trkpt lat="43.323268850060735" lon="12.387915323213658"><ele>287.0</ele><time>2026-04-11T15:45:31Z</time></trkpt><trkpt lat="43.32329543184839" lon="12.3877789225381"><ele>287.0</ele><time>2026-04-11T15:45:32Z</time></trkpt><trkpt lat="43.323309981074345" lon="12.387650967106639"><ele>287.0</ele><time>2026-04-11T15:45:33Z</time></trkpt><trkpt lat="43.32332059256826" lon="12.387515487328683"><ele>287.0</ele><time>2026-04-11T15:45:34Z</time></trkpt><trkpt lat="43.32332334209669" lon="12.38737089147482"><ele>287.0</ele><time>2026-04-11T15:45:35Z</time></trkpt><trkpt lat="43.323313466786765" lon="12.387218876144884"><ele>287.0</ele><time>2026-04-11T15:45:36Z</time></trkpt><trkpt lat="43.32328457898686" lon="12.38705633272572"><ele>287.25</ele><time>2026-04-11T15:45:37Z</time></trkpt><trkpt lat="43.32322712149691" lon="12.386895628612677"><ele>287.5</ele><time>2026-04-11T15:45:38Z</time></trkpt><trkpt lat="43.32315587515922" lon="12.386738870851081"><ele>287.75</ele><time>2026-04-11T15:45:39Z</time></trkpt><trkpt lat="43.32306606757208" lon="12.386602829153503"><ele>288.0</ele><time>2026-04-11T15:45:40Z</time></trkpt><trkpt lat="43.32295839251333" lon="12.386482757628507"><ele>288.5</ele><time>2026-04-11T15:45:41Z</time></trkpt><trkpt lat="43.322839976752654" lon="12.386366750139201"><ele>289.0</ele><time>2026-04-11T15:45:42Z</time></trkpt><trkpt lat="43.32271571839425" lon="12.386261465991327"><ele>289.5</ele><time>2026-04-11T15:45:43Z</time></trkpt><trkpt lat="43.32259514023481" lon="12.386165825437178"><ele>290.0</ele><time>2026-04-11T15:45:44Z</time></trkpt><trkpt lat="43.32247757417093" lon="12.386073195960517"><ele>290.0</ele><time>2026-04-11T15:45:45Z</time></trkpt><trkpt lat="43.32236014759547" lon="12.385978964350574"><ele>290.0</ele><time>2026-04-11T15:45:46Z</time></trkpt><trkpt lat="43.322236824721934" lon="12.38589442792113"><ele>290.0</ele><time>2026-04-11T15:45:47Z</time></trkpt><trkpt lat="43.322114894189966" lon="12.38580905063984"><ele>290.0</ele><time>2026-04-11T15:45:48Z</time></trkpt><trkpt lat="43.32198500653085" lon="12.385715663065266"><ele>288.5</ele><time>2026-04-11T15:45:49Z</time></trkpt><trkpt lat="43.32184888894831" lon="12.385615961221665"><ele>287.0</ele><time>2026-04-11T15:45:50Z</time></trkpt><trkpt lat="43.32172454947305" lon="12.385528323458729"><ele>285.5</ele><time>2026-04-11T15:45:51Z</time></trkpt><trkpt lat="43.321596069006866" lon="12.385448706637296"><ele>284.0</ele><time>2026-04-11T15:45:52Z</time></trkpt><trkpt lat="43.32145631037308" lon="12.385384514553495"><ele>285.33333333333337</ele><time>2026-04-11T15:45:53Z</time></trkpt><trkpt lat="43.32130854198654" lon="12.385342165448469"><ele>286.6666666666667</ele><time>2026-04-11T15:45:54Z</time></trkpt><trkpt lat="43.32115443033941" lon="12.385332860248251"><ele>288.0</ele><time>2026-04-11T15:45:55Z</time></trkpt><trkpt lat="43.320987170434506" lon="12.385347747811084"><ele>288.0</ele><time>2026-04-11T15:45:56Z</time></trkpt><trkpt lat="43.32081679380993" lon="12.385376431803298"><ele>288.0</ele><time>2026-04-11T15:45:57Z</time></trkpt><trkpt lat="43.320635547340515" lon="12.385421408834565"><ele>288.0</ele><time>2026-04-11T15:45:58Z</time></trkpt><trkpt lat="43.320456777748674" lon="12.385471755011181"><ele>286.0</ele><time>2026-04-11T15:45:59Z</time></trkpt><trkpt lat="43.32028567424591" lon="12.385510029225362"><ele>284.0</ele><time>2026-04-11T15:46:00Z</time></trkpt><trkpt lat="43.320116288825446" lon="12.385548704612235"><ele>282.0</ele><time>2026-04-11T15:46:01Z</time></trkpt><trkpt lat="43.31994751014367" lon="12.385586960186066"><ele>286.0</ele><time>2026-04-11T15:46:02Z</time></trkpt><trkpt lat="43.319782722498104" lon="12.38562419107251"><ele>290.0</ele><time>2026-04-11T15:46:03Z</time></trkpt><trkpt lat="43.31961790560275" lon="12.38566073404636"><ele>294.0</ele><time>2026-04-11T15:46:04Z</time></trkpt><trkpt lat="43.319452024316995" lon="12.385696322552395"><ele>294.0</ele><time>2026-04-11T15:46:05Z</time></trkpt><trkpt lat="43.319288156484184" lon="12.385716472667"><ele>294.0</ele><time>2026-04-11T15:46:06Z</time></trkpt><trkpt lat="43.319126948994615" lon="12.385712746405892"><ele>294.0</ele><time>2026-04-11T15:46:07Z</time></trkpt><trkpt lat="43.318970013545204" lon="12.385674712012186"><ele>295.6666666666667</ele><time>2026-04-11T15:46:08Z</time></trkpt><trkpt lat="43.31881888900171" lon="12.385608454133513"><ele>297.33333333333337</ele><time>2026-04-11T15:46:09Z</time></trkpt><trkpt lat="43.3186643719116" lon="12.385522037583101"><ele>299.0</ele><time>2026-04-11T15:46:10Z</time></trkpt><trkpt lat="43.31851428295151" lon="12.385411826516311"><ele>294.0</ele><time>2026-04-11T15:46:11Z</time></trkpt><trkpt lat="43.31836992667806" lon="12.385285277470675"><ele>289.0</ele><time>2026-04-11T15:46:12Z</time></trkpt><trkpt lat="43.31823431387673" lon="12.385151954542923"><ele>284.0</ele><time>2026-04-11T15:46:13Z</time></trkpt><trkpt lat="43.31810215432745" lon="12.38502316165941"><ele>283.0</ele><time>2026-04-11T15:46:14Z</time></trkpt><trkpt lat="43.31796761196178" lon="12.384898085052162"><ele>282.0</ele><time>2026-04-11T15:46:15Z</time></trkpt><trkpt lat="43.31783262143373" lon="12.384774070308886"><ele>281.0</ele><time>2026-04-11T15:46:16Z</time></trkpt><trkpt lat="43.317699931761126" lon="12.384650109462212"><ele>281.0</ele><time>2026-04-11T15:46:17Z</time></trkpt><trkpt lat="43.31757255329701" lon="12.384527741216392"><ele>281.0</ele><time>2026-04-11T15:46:18Z</time></trkpt><trkpt lat="43.31744745768449" lon="12.384410816193164"><ele>281.0</ele><time>2026-04-11T15:46:19Z</time></trkpt><trkpt lat="43.317320308280216" lon="12.384304351687051"><ele>280.33333333333337</ele><time>2026-04-11T15:46:20Z</time></trkpt><trkpt lat="43.317192015110905" lon="12.384223198745685"><ele>279.6666666666667</ele><time>2026-04-11T15:46:21Z</time></trkpt><trkpt lat="43.317047651852064" lon="12.38416858977122"><ele>279.0</ele><time>2026-04-11T15:46:22Z</time></trkpt><trkpt lat="43.31688938040459" lon="12.384146216948524"><ele>279.0</ele><time>2026-04-11T15:46:23Z</time></trkpt><trkpt lat="43.31671519510256" lon="12.38416659035843"><ele>279.0</ele><time>2026-04-11T15:46:24Z</time></trkpt><trkpt lat="43.316528868174494" lon="12.384214589060283"><ele>279.0</ele><time>2026-04-11T15:46:25Z</time></trkpt><trkpt lat="43.316353666704444" lon="12.384265725494215"><ele>278.6666666666667</ele><time>2026-04-11T15:46:26Z</time></trkpt><trkpt lat="43.31617526958021" lon="12.384311154656803"><ele>278.33333333333337</ele><time>2026-04-11T15:46:27Z</time></trkpt><trkpt lat="43.31600160891177" lon="12.38435165800293"><ele>278.0</ele><time>2026-04-11T15:46:28Z</time></trkpt><trkpt lat="43.315831923174095" lon="12.384398262235106"><ele>278.0</ele><time>2026-04-11T15:46:29Z</time></trkpt><trkpt lat="43.31566668557877" lon="12.38444377657695"><ele>278.0</ele><time>2026-04-11T15:46:30Z</time></trkpt><trkpt lat="43.3155072433176" lon="12.384480401926817"><ele>278.0</ele><time>2026-04-11T15:46:31Z</time></trkpt><trkpt lat="43.31535032014269" lon="12.384509865722023"><ele>277.33333333333337</ele><time>2026-04-11T15:46:32Z</time></trkpt><trkpt lat="43.31520084206923" lon="12.384477766716376"><ele>276.6666666666667</ele><time>2026-04-11T15:46:33Z</time></trkpt><trkpt lat="43.315051657899076" lon="12.384439052294017"><ele>276.0</ele><time>2026-04-11T15:46:34Z</time></trkpt><trkpt lat="43.314924000998545" lon="12.38432488836039"><ele>276.0</ele><time>2026-04-11T15:46:35Z</time></trkpt><trkpt lat="43.31482056582377" lon="12.384182893213218"><ele>276.0</ele><time>2026-04-11T15:46:36Z</time></trkpt><trkpt lat="43.314722927572795" lon="12.38401687823184"><ele>276.0</ele><time>2026-04-11T15:46:37Z</time></trkpt><trkpt lat="43.314622494795145" lon="12.383837721271867"><ele>273.6666666666667</ele><time>2026-04-11T15:46:38Z</time></trkpt><trkpt lat="43.314516502160465" lon="12.383654526006595"><ele>271.33333333333337</ele><time>2026-04-11T15:46:39Z</time></trkpt><trkpt lat="43.31441217055688" lon="12.383477458418481"><ele>269.0</ele><time>2026-04-11T15:46:40Z</time></trkpt><trkpt lat="43.314306657683034" lon="12.383301415953571"><ele>269.0</ele><time>2026-04-11T15:46:41Z</time></trkpt><trkpt lat="43.31420018618159" lon="12.383127678780962"><ele>269.0</ele><time>2026-04-11T15:46:42Z</time></trkpt><trkpt lat="43.31409374118774" lon="12.382967650867284"><ele>269.0</ele><time>2026-04-11T15:46:43Z</time></trkpt><trkpt lat="43.31397045459954" lon="12.382825272306798"><ele>268.0</ele><time>2026-04-11T15:46:44Z</time></trkpt><trkpt lat="43.313819956681705" lon="12.382706420324949"><ele>267.0</ele><time>2026-04-11T15:46:45Z</time></trkpt><trkpt lat="43.313645252830426" lon="12.382614206434335"><ele>266.0</ele><time>2026-04-11T15:46:46Z</time></trkpt><trkpt lat="43.31345801234756" lon="12.38253838388727"><ele>266.0</ele><time>2026-04-11T15:46:47Z</time></trkpt><trkpt lat="43.313251539319964" lon="12.382479671802693"><ele>266.0</ele><time>2026-04-11T15:46:48Z</time></trkpt><trkpt lat="43.31303128310706" lon="12.382451617970714"><ele>266.0</ele><time>2026-04-11T15:46:49Z</time></trkpt><trkpt lat="43.31282760693888" lon="12.382444556090839"><ele>265.6666666666667</ele><time>2026-04-11T15:46:50Z</time></trkpt><trkpt lat="43.31263279392981" lon="12.382440622864475"><ele>265.3333333333333</ele><time>2026-04-11T15:46:51Z</time></trkpt><trkpt lat="43.31244298390264" lon="12.382433767914526"><ele>265.0</ele><time>2026-04-11T15:46:52Z</time></trkpt><trkpt lat="43.312248683798906" lon="12.382422948815229"><ele>265.66666666666663</ele><time>2026-04-11T15:46:53Z</time></trkpt><trkpt lat="43.31205305177359" lon="12.382413109848368"><ele>266.3333333333333</ele><time>2026-04-11T15:46:54Z</time></trkpt><trkpt lat="43.31185842290428" lon="12.3824057019805"><ele>267.0</ele><time>2026-04-11T15:46:55Z</time></trkpt><trkpt lat="43.31166895447536" lon="12.382403077569045"><ele>267.0</ele><time>2026-04-11T15:46:56Z</time></trkpt><trkpt lat="43.31147362408839" lon="12.382398063405521"><ele>267.0</ele><time>2026-04-11T15:46:57Z</time></trkpt><trkpt lat="43.31127065121074" lon="12.382393308102866"><ele>267.0</ele><time>2026-04-11T15:46:58Z</time></trkpt><trkpt lat="43.31106574916509" lon="12.382387127403808"><ele>267.0</ele><time>2026-04-11T15:46:59Z</time></trkpt><trkpt lat="43.310861389479356" lon="12.382380585687148"><ele>267.0</ele><time>2026-04-11T15:47:00Z</time></trkpt><trkpt lat="43.310662408880006" lon="12.382375286009516"><ele>267.0</ele><time>2026-04-11T15:47:01Z</time></trkpt><trkpt lat="43.31046326227234" lon="12.382369498872155"><ele>267.0</ele><time>2026-04-11T15:47:02Z</time></trkpt><trkpt lat="43.310264515048445" lon="12.3823630155675"><ele>267.0</ele><time>2026-04-11T15:47:03Z</time></trkpt><trkpt lat="43.31007092928058" lon="12.382353302976483"><ele>267.0</ele><time>2026-04-11T15:47:04Z</time></trkpt><trkpt lat="43.30987842172079" lon="12.382344971523542"><ele>266.3333333333333</ele><time>2026-04-11T15:47:05Z</time></trkpt><trkpt lat="43.309683933709245" lon="12.382337769315406"><ele>265.66666666666663</ele><time>2026-04-11T15:47:06Z</time></trkpt><trkpt lat="43.30948953552352" lon="12.382331048121072"><ele>265.0</ele><time>2026-04-11T15:47:07Z</time></trkpt><trkpt lat="43.30929640988146" lon="12.382324136361976"><ele>265.0</ele><time>2026-04-11T15:47:08Z</time></trkpt><trkpt lat="43.30910706620263" lon="12.38231868813402"><ele>265.0</ele><time>2026-04-11T15:47:09Z</time></trkpt><trkpt lat="43.30891564295646" lon="12.382316973314719"><ele>265.0</ele><time>2026-04-11T15:47:10Z</time></trkpt><trkpt lat="43.30872197511567" lon="12.382315240552334"><ele>266.66666666666663</ele><time>2026-04-11T15:47:11Z</time></trkpt><trkpt lat="43.30853553335047" lon="12.382306136467449"><ele>268.3333333333333</ele><time>2026-04-11T15:47:12Z</time></trkpt><trkpt lat="43.308353865173906" lon="12.38228366012465"><ele>270.0</ele><time>2026-04-11T15:47:13Z</time></trkpt><trkpt lat="43.30817002426278" lon="12.38223525474629"><ele>265.6666666666667</ele><time>2026-04-11T15:47:14Z</time></trkpt><trkpt lat="43.30798695026087" lon="12.382161055240765"><ele>261.33333333333337</ele><time>2026-04-11T15:47:15Z</time></trkpt><trkpt lat="43.30781089672686" lon="12.382062472476923"><ele>257.0</ele><time>2026-04-11T15:47:16Z</time></trkpt><trkpt lat="43.30763711136631" lon="12.381939656310633"><ele>257.0</ele><time>2026-04-11T15:47:17Z</time></trkpt><trkpt lat="43.30746082630225" lon="12.381800832272495"><ele>257.0</ele><time>2026-04-11T15:47:18Z</time></trkpt><trkpt lat="43.30728807438598" lon="12.381660516118263"><ele>257.0</ele><time>2026-04-11T15:47:19Z</time></trkpt><trkpt lat="43.30712864371034" lon="12.381528674883606"><ele>256.6666666666667</ele><time>2026-04-11T15:47:20Z</time></trkpt><trkpt lat="43.30696970179162" lon="12.381392043933554"><ele>256.3333333333333</ele><time>2026-04-11T15:47:21Z</time></trkpt><trkpt lat="43.30680494729592" lon="12.381248403201822"><ele>256.0</ele><time>2026-04-11T15:47:22Z</time></trkpt><trkpt lat="43.30663588484396" lon="12.381101778732036"><ele>256.0</ele><time>2026-04-11T15:47:23Z</time></trkpt><trkpt lat="43.30646687890401" lon="12.380959302305664"><ele>256.0</ele><time>2026-04-11T15:47:24Z</time></trkpt><trkpt lat="43.30629727840633" lon="12.38081849387503"><ele>256.0</ele><time>2026-04-11T15:47:25Z</time></trkpt><trkpt lat="43.306133411079436" lon="12.380682227361689"><ele>256.3333333333333</ele><time>2026-04-11T15:47:26Z</time></trkpt><trkpt lat="43.30597336282326" lon="12.380552516206963"><ele>256.6666666666667</ele><time>2026-04-11T15:47:27Z</time></trkpt><trkpt lat="43.305818229881766" lon="12.38042123282847"><ele>257.0</ele><time>2026-04-11T15:47:28Z</time></trkpt><trkpt lat="43.30566479492694" lon="12.380300524812688"><ele>257.0</ele><time>2026-04-11T15:47:29Z</time></trkpt><trkpt lat="43.30550099930892" lon="12.380192751645291"><ele>257.0</ele><time>2026-04-11T15:47:30Z</time></trkpt><trkpt lat="43.30532721045393" lon="12.380108090010454"><ele>257.0</ele><time>2026-04-11T15:47:31Z</time></trkpt><trkpt lat="43.30514600188789" lon="12.380052823150223"><ele>257.0</ele><time>2026-04-11T15:47:32Z</time></trkpt><trkpt lat="43.30496094285335" lon="12.380016323570018"><ele>257.0</ele><time>2026-04-11T15:47:33Z</time></trkpt><trkpt lat="43.30476594216119" lon="12.379996157633919"><ele>257.0</ele><time>2026-04-11T15:47:34Z</time></trkpt><trkpt lat="43.304561050170484" lon="12.379989937464359"><ele>257.33333333333337</ele><time>2026-04-11T15:47:35Z</time></trkpt><trkpt lat="43.304340580948086" lon="12.379992801673627"><ele>257.6666666666667</ele><time>2026-04-11T15:47:36Z</time></trkpt><trkpt lat="43.30412561117015" lon="12.379985891525362"><ele>258.0</ele><time>2026-04-11T15:47:37Z</time></trkpt><trkpt lat="43.30391848475589" lon="12.379975025130577"><ele>258.6666666666667</ele><time>2026-04-11T15:47:38Z</time></trkpt><trkpt lat="43.30371327854747" lon="12.379965944308127"><ele>259.33333333333337</ele><time>2026-04-11T15:47:39Z</time></trkpt><trkpt lat="43.30351478223372" lon="12.379960864329474"><ele>260.0</ele><time>2026-04-11T15:47:40Z</time></trkpt><trkpt lat="43.3033196691981" lon="12.379955683512701"><ele>260.0</ele><time>2026-04-11T15:47:41Z</time></trkpt><trkpt lat="43.30312340610799" lon="12.379949066608095"><ele>260.0</ele><time>2026-04-11T15:47:42Z</time></trkpt><trkpt lat="43.30292244524725" lon="12.379943143780219"><ele>260.0</ele><time>2026-04-11T15:47:43Z</time></trkpt><trkpt lat="43.3027216947193" lon="12.379938919870465"><ele>259.33333333333337</ele><time>2026-04-11T15:47:44Z</time></trkpt><trkpt lat="43.30252097003657" lon="12.379936854164129"><ele>258.6666666666667</ele><time>2026-04-11T15:47:45Z</time></trkpt><trkpt lat="43.30232670015684" lon="12.379930183785088"><ele>258.0</ele><time>2026-04-11T15:47:46Z</time></trkpt><trkpt lat="43.30213774456288" lon="12.379920654896463"><ele>257.3333333333333</ele><time>2026-04-11T15:47:47Z</time></trkpt><trkpt lat="43.30194499105325" lon="12.379911254154752"><ele>256.66666666666663</ele><time>2026-04-11T15:47:48Z</time></trkpt><trkpt lat="43.301747002806835" lon="12.37990319310606"><ele>256.0</ele><time>2026-04-11T15:47:49Z</time></trkpt><trkpt lat="43.30154059755373" lon="12.379897070398503"><ele>256.3333333333333</ele><time>2026-04-11T15:47:50Z</time></trkpt><trkpt lat="43.30133355926806" lon="12.379889165328656"><ele>256.6666666666667</ele><time>2026-04-11T15:47:51Z</time></trkpt><trkpt lat="43.30112752429093" lon="12.379880145696493"><ele>257.0</ele><time>2026-04-11T15:47:52Z</time></trkpt><trkpt lat="43.300926085713684" lon="12.379873623901082"><ele>257.0</ele><time>2026-04-11T15:47:53Z</time></trkpt><trkpt lat="43.30073877306104" lon="12.379869371261481"><ele>257.0</ele><time>2026-04-11T15:47:54Z</time></trkpt><trkpt lat="43.30055853840815" lon="12.379864490431912"><ele>257.0</ele><time>2026-04-11T15:47:55Z</time></trkpt><trkpt lat="43.30037692273243" lon="12.379860985430842"><ele>258.0</ele><time>2026-04-11T15:47:56Z</time></trkpt><trkpt lat="43.30019919041067" lon="12.379855427566758"><ele>259.0</ele><time>2026-04-11T15:47:57Z</time></trkpt><trkpt lat="43.30002155062254" lon="12.379847554618202"><ele>260.0</ele><time>2026-04-11T15:47:58Z</time></trkpt><trkpt lat="43.29984597146917" lon="12.379845928405652"><ele>258.6666666666667</ele><time>2026-04-11T15:47:59Z</time></trkpt><trkpt lat="43.299670831499085" lon="12.37984555588222"><ele>257.3333333333333</ele><time>2026-04-11T15:48:00Z</time></trkpt><trkpt lat="43.299491132348074" lon="12.379841832197165"><ele>256.0</ele><time>2026-04-11T15:48:01Z</time></trkpt><trkpt lat="43.299312101305276" lon="12.379833708350514"><ele>256.0</ele><time>2026-04-11T15:48:02Z</time></trkpt><trkpt lat="43.29913156259624" lon="12.379831050436023"><ele>256.0</ele><time>2026-04-11T15:48:03Z</time></trkpt><trkpt lat="43.29894566433047" lon="12.3798294504888"><ele>256.0</ele><time>2026-04-11T15:48:04Z</time></trkpt><trkpt lat="43.29875900024137" lon="12.379825844592302"><ele>255.0</ele><time>2026-04-11T15:48:05Z</time></trkpt><trkpt lat="43.29856390428925" lon="12.379821575371704"><ele>254.0</ele><time>2026-04-11T15:48:06Z</time></trkpt><trkpt lat="43.29835954375994" lon="12.379815464283299"><ele>253.0</ele><time>2026-04-11T15:48:07Z</time></trkpt><trkpt lat="43.298153033033294" lon="12.379809569151538"><ele>252.66666666666666</ele><time>2026-04-11T15:48:08Z</time></trkpt><trkpt lat="43.29795409840287" lon="12.379803436893969"><ele>252.33333333333331</ele><time>2026-04-11T15:48:09Z</time></trkpt><trkpt lat="43.297756133973174" lon="12.379792302275408"><ele>252.0</ele><time>2026-04-11T15:48:10Z</time></trkpt><trkpt lat="43.29755942266337" lon="12.37976281669415"><ele>252.0</ele><time>2026-04-11T15:48:11Z</time></trkpt><trkpt lat="43.2973654027761" lon="12.379705846130088"><ele>252.0</ele><time>2026-04-11T15:48:12Z</time></trkpt><trkpt lat="43.297171480382794" lon="12.379617663574807"><ele>252.0</ele><time>2026-04-11T15:48:13Z</time></trkpt><trkpt lat="43.29698753337284" lon="12.379497424163963"><ele>250.66666666666669</ele><time>2026-04-11T15:48:14Z</time></trkpt><trkpt lat="43.29681808543334" lon="12.37936285208045"><ele>249.33333333333334</ele><time>2026-04-11T15:48:15Z</time></trkpt><trkpt lat="43.29665704091411" lon="12.379207064072453"><ele>248.0</ele><time>2026-04-11T15:48:16Z</time></trkpt><trkpt lat="43.296495164352606" lon="12.379038825724674"><ele>249.33333333333334</ele><time>2026-04-11T15:48:17Z</time></trkpt><trkpt lat="43.29632925268904" lon="12.378865039248085"><ele>250.66666666666669</ele><time>2026-04-11T15:48:18Z</time></trkpt><trkpt lat="43.296164489241534" lon="12.378695315979524"><ele>252.0</ele><time>2026-04-11T15:48:19Z</time></trkpt><trkpt lat="43.29600567285414" lon="12.37853446734326"><ele>251.33333333333331</ele><time>2026-04-11T15:48:20Z</time></trkpt><trkpt lat="43.29584861935532" lon="12.378375243718562"><ele>250.66666666666666</ele><time>2026-04-11T15:48:21Z</time></trkpt><trkpt lat="43.29568807184362" lon="12.378207365500504"><ele>250.0</ele><time>2026-04-11T15:48:22Z</time></trkpt><trkpt lat="43.2955277618169" lon="12.3780349017563"><ele>249.0</ele><time>2026-04-11T15:48:23Z</time></trkpt><trkpt lat="43.29536542695505" lon="12.37786463646903"><ele>248.0</ele><time>2026-04-11T15:48:24Z</time></trkpt><trkpt lat="43.29520407378018" lon="12.377697338787714"><ele>247.0</ele><time>2026-04-11T15:48:25Z</time></trkpt><trkpt lat="43.29504428344407" lon="12.37753001133445"><ele>247.0</ele><time>2026-04-11T15:48:26Z</time></trkpt><trkpt lat="43.29488275403666" lon="12.377365611286045"><ele>247.0</ele><time>2026-04-11T15:48:27Z</time></trkpt><trkpt lat="43.29471751460489" lon="12.37719880869979"><ele>247.0</ele><time>2026-04-11T15:48:28Z</time></trkpt><trkpt lat="43.29454898654305" lon="12.377025747878053"><ele>244.66666666666666</ele><time>2026-04-11T15:48:29Z</time></trkpt><trkpt lat="43.29437789653656" lon="12.376849522114684"><ele>242.33333333333331</ele><time>2026-04-11T15:48:30Z</time></trkpt><trkpt lat="43.29420806807818" lon="12.376673694619893"><ele>240.0</ele><time>2026-04-11T15:48:31Z</time></trkpt><trkpt lat="43.294036654772455" lon="12.376492821503032"><ele>240.33333333333331</ele><time>2026-04-11T15:48:32Z</time></trkpt><trkpt lat="43.293863786299205" lon="12.376312590345188"><ele>240.66666666666666</ele><time>2026-04-11T15:48:33Z</time></trkpt><trkpt lat="43.29369082617252" lon="12.376133174298312"><ele>241.0</ele><time>2026-04-11T15:48:34Z</time></trkpt><trkpt lat="43.29352598853081" lon="12.3759607869094"><ele>241.0</ele><time>2026-04-11T15:48:35Z</time></trkpt><trkpt lat="43.29336033611514" lon="12.375791935764454"><ele>241.0</ele><time>2026-04-11T15:48:36Z</time></trkpt><trkpt lat="43.29319495697665" lon="12.375622079970249"><ele>241.0</ele><time>2026-04-11T15:48:37Z</time></trkpt><trkpt lat="43.293027772031664" lon="12.375453056324181"><ele>240.0</ele><time>2026-04-11T15:48:38Z</time></trkpt><trkpt lat="43.29286553682158" lon="12.375287372059676"><ele>239.0</ele><time>2026-04-11T15:48:39Z</time></trkpt><trkpt lat="43.29271433859137" lon="12.375130394870267"><ele>238.0</ele><time>2026-04-11T15:48:40Z</time></trkpt><trkpt lat="43.2925669602184" lon="12.37497271022936"><ele>238.0</ele><time>2026-04-11T15:48:41Z</time></trkpt><trkpt lat="43.29242122224612" lon="12.374816637822047"><ele>238.0</ele><time>2026-04-11T15:48:42Z</time></trkpt><trkpt lat="43.29227640017624" lon="12.374666873539317"><ele>238.0</ele><time>2026-04-11T15:48:43Z</time></trkpt><trkpt lat="43.29213215217216" lon="12.374520448369479"><ele>238.66666666666666</ele><time>2026-04-11T15:48:44Z</time></trkpt><trkpt lat="43.29199017949048" lon="12.374373493512985"><ele>239.33333333333331</ele><time>2026-04-11T15:48:45Z</time></trkpt><trkpt lat="43.29184919834471" lon="12.374222212581584"><ele>240.0</ele><time>2026-04-11T15:48:46Z</time></trkpt><trkpt lat="43.29171104664285" lon="12.37407433199798"><ele>240.0</ele><time>2026-04-11T15:48:47Z</time></trkpt><trkpt lat="43.29157185004232" lon="12.37392918471862"><ele>240.0</ele><time>2026-04-11T15:48:48Z</time></trkpt><trkpt lat="43.29142704575527" lon="12.37379050334789"><ele>240.0</ele><time>2026-04-11T15:48:49Z</time></trkpt><trkpt lat="43.29127104838315" lon="12.373652974443045"><ele>240.33333333333331</ele><time>2026-04-11T15:48:50Z</time></trkpt><trkpt lat="43.2911084576384" lon="12.373525970770997"><ele>240.66666666666666</ele><time>2026-04-11T15:48:51Z</time></trkpt><trkpt lat="43.290939190794425" lon="12.373404220460143"><ele>241.0</ele><time>2026-04-11T15:48:52Z</time></trkpt><trkpt lat="43.29076606945379" lon="12.373282764044546"><ele>241.0</ele><time>2026-04-11T15:48:53Z</time></trkpt><trkpt lat="43.290587590507826" lon="12.373162415262849"><ele>241.0</ele><time>2026-04-11T15:48:54Z</time></trkpt><trkpt lat="43.290407798098585" lon="12.373039919866573"><ele>241.0</ele><time>2026-04-11T15:48:55Z</time></trkpt><trkpt lat="43.29023452415593" lon="12.372919820986112"><ele>240.33333333333331</ele><time>2026-04-11T15:48:56Z</time></trkpt><trkpt lat="43.29006879565994" lon="12.372804494075474"><ele>239.66666666666669</ele><time>2026-04-11T15:48:57Z</time></trkpt><trkpt lat="43.28990850244789" lon="12.372695381799192"><ele>239.0</ele><time>2026-04-11T15:48:58Z</time></trkpt><trkpt lat="43.289745612610865" lon="12.372586375680097"><ele>238.66666666666669</ele><time>2026-04-11T15:48:59Z</time></trkpt><trkpt lat="43.28957654643521" lon="12.372472707447342"><ele>238.33333333333331</ele><time>2026-04-11T15:49:00Z</time></trkpt><trkpt lat="43.289401905880126" lon="12.372352643866467"><ele>238.0</ele><time>2026-04-11T15:49:01Z</time></trkpt><trkpt lat="43.28922765572351" lon="12.372231096863258"><ele>238.66666666666666</ele><time>2026-04-11T15:49:02Z</time></trkpt><trkpt lat="43.289050388550294" lon="12.372112658650925"><ele>239.33333333333331</ele><time>2026-04-11T15:49:03Z</time></trkpt><trkpt lat="43.288859511924166" lon="12.37198689354622"><ele>240.0</ele><time>2026-04-11T15:49:04Z</time></trkpt><trkpt lat="43.288653555290416" lon="12.371853661472695"><ele>240.33333333333331</ele><time>2026-04-11T15:49:05Z</time></trkpt><trkpt lat="43.28845440839782" lon="12.371728028884043"><ele>240.66666666666666</ele><time>2026-04-11T15:49:06Z</time></trkpt><trkpt lat="43.288265216820975" lon="12.371612342477988"><ele>241.0</ele><time>2026-04-11T15:49:07Z</time></trkpt><trkpt lat="43.28808395364273" lon="12.37149718328375"><ele>241.0</ele><time>2026-04-11T15:49:08Z</time></trkpt><trkpt lat="43.287908348461414" lon="12.371385895490105"><ele>241.0</ele><time>2026-04-11T15:49:09Z</time></trkpt><trkpt lat="43.287748088854855" lon="12.371288082343918"><ele>241.0</ele><time>2026-04-11T15:49:10Z</time></trkpt><trkpt lat="43.28759437132233" lon="12.371189473062403"><ele>240.75</ele><time>2026-04-11T15:49:11Z</time></trkpt><trkpt lat="43.287450067446265" lon="12.371099395713129"><ele>240.5</ele><time>2026-04-11T15:49:12Z</time></trkpt><trkpt lat="43.287327120242345" lon="12.371021194102784"><ele>240.25</ele><time>2026-04-11T15:49:13Z</time></trkpt><trkpt lat="43.28722302342045" lon="12.370945819057042"><ele>240.0</ele><time>2026-04-11T15:49:14Z</time></trkpt><trkpt lat="43.28713292997022" lon="12.370858062879865"><ele>240.0</ele><time>2026-04-11T15:49:15Z</time></trkpt><trkpt lat="43.28706595577828" lon="12.370752227062185"><ele>240.0</ele><time>2026-04-11T15:49:16Z</time></trkpt><trkpt lat="43.28702539268817" lon="12.370642253673784"><ele>240.0</ele><time>2026-04-11T15:49:17Z</time></trkpt><trkpt lat="43.287014984882425" lon="12.370520832845035"><ele>240.0</ele><time>2026-04-11T15:49:18Z</time></trkpt><trkpt lat="43.28705212592389" lon="12.370399162867098"><ele>240.0</ele><time>2026-04-11T15:49:19Z</time></trkpt><trkpt lat="43.28710835745277" lon="12.370264051998003"><ele>239.75</ele><time>2026-04-11T15:49:20Z</time></trkpt><trkpt lat="43.28717218539304" lon="12.370119920941962"><ele>239.5</ele><time>2026-04-11T15:49:21Z</time></trkpt><trkpt lat="43.28722981514079" lon="12.369937755399274"><ele>239.25</ele><time>2026-04-11T15:49:22Z</time></trkpt><trkpt lat="43.287287781745924" lon="12.369743973065972"><ele>239.0</ele><time>2026-04-11T15:49:23Z</time></trkpt><trkpt lat="43.287346760446866" lon="12.36952882580546"><ele>238.0</ele><time>2026-04-11T15:49:24Z</time></trkpt><trkpt lat="43.28740291495936" lon="12.36931107021205"><ele>237.0</ele><time>2026-04-11T15:49:25Z</time></trkpt><trkpt lat="43.28745332302492" lon="12.369110383331359"><ele>236.0</ele><time>2026-04-11T15:49:26Z</time></trkpt><trkpt lat="43.287509838076836" lon="12.368897250445722"><ele>236.66666666666669</ele><time>2026-04-11T15:49:27Z</time></trkpt><trkpt lat="43.28756777757275" lon="12.3686699432887"><ele>237.33333333333331</ele><time>2026-04-11T15:49:28Z</time></trkpt><trkpt lat="43.28762089318905" lon="12.368447969722942"><ele>238.0</ele><time>2026-04-11T15:49:29Z</time></trkpt><trkpt lat="43.28767661419081" lon="12.368229749675129"><ele>237.0</ele><time>2026-04-11T15:49:30Z</time></trkpt><trkpt lat="43.28773667087025" lon="12.368007660318373"><ele>236.0</ele><time>2026-04-11T15:49:31Z</time></trkpt><trkpt lat="43.287797769873926" lon="12.36778545106489"><ele>235.0</ele><time>2026-04-11T15:49:32Z</time></trkpt><trkpt lat="43.28785502159305" lon="12.367558414889007"><ele>235.0</ele><time>2026-04-11T15:49:33Z</time></trkpt><trkpt lat="43.287913453483" lon="12.36733582142124"><ele>235.0</ele><time>2026-04-11T15:49:34Z</time></trkpt><trkpt lat="43.28797388482114" lon="12.36710641160324"><ele>235.0</ele><time>2026-04-11T15:49:35Z</time></trkpt><trkpt lat="43.288028686925976" lon="12.366873923419403"><ele>234.66666666666666</ele><time>2026-04-11T15:49:36Z</time></trkpt><trkpt lat="43.28806776105736" lon="12.366631808543008"><ele>234.33333333333331</ele><time>2026-04-11T15:49:37Z</time></trkpt><trkpt lat="43.288085205890226" lon="12.36637882110918"><ele>234.0</ele><time>2026-04-11T15:49:38Z</time></trkpt><trkpt lat="43.28809498936544" lon="12.366127141526091"><ele>234.0</ele><time>2026-04-11T15:49:39Z</time></trkpt><trkpt lat="43.288104711790226" lon="12.365889963827826"><ele>234.0</ele><time>2026-04-11T15:49:40Z</time></trkpt><trkpt lat="43.28811255474785" lon="12.365658469354736"><ele>234.0</ele><time>2026-04-11T15:49:41Z</time></trkpt><trkpt lat="43.28811773079518" lon="12.365435171342332"><ele>233.66666666666669</ele><time>2026-04-11T15:49:42Z</time></trkpt><trkpt lat="43.28812317485949" lon="12.365220014160593"><ele>233.33333333333334</ele><time>2026-04-11T15:49:43Z</time></trkpt><trkpt lat="43.288131401002545" lon="12.365001114172719"><ele>233.0</ele><time>2026-04-11T15:49:44Z</time></trkpt><trkpt lat="43.28813796046649" lon="12.364782724831484"><ele>234.0</ele><time>2026-04-11T15:49:45Z</time></trkpt><trkpt lat="43.28814659354797" lon="12.364570256493595"><ele>235.0</ele><time>2026-04-11T15:49:46Z</time></trkpt><trkpt lat="43.288154177738726" lon="12.364367720972728"><ele>236.0</ele><time>2026-04-11T15:49:47Z</time></trkpt><trkpt lat="43.2881610542342" lon="12.364173583914887"><ele>237.0</ele><time>2026-04-11T15:49:48Z</time></trkpt><trkpt lat="43.28816587725127" lon="12.363979777943483"><ele>237.25</ele><time>2026-04-11T15:49:49Z</time></trkpt><trkpt lat="43.288169564094254" lon="12.363786044629242"><ele>237.5</ele><time>2026-04-11T15:49:50Z</time></trkpt><trkpt lat="43.28817604785956" lon="12.363589975375731"><ele>237.75</ele><time>2026-04-11T15:49:51Z</time></trkpt><trkpt lat="43.28818394409845" lon="12.36339105426294"><ele>238.0</ele><time>2026-04-11T15:49:52Z</time></trkpt><trkpt lat="43.28819573908264" lon="12.363180039255585"><ele>237.33333333333331</ele><time>2026-04-11T15:49:53Z</time></trkpt><trkpt lat="43.28820649549679" lon="12.362966828670425"><ele>236.66666666666669</ele><time>2026-04-11T15:49:54Z</time></trkpt><trkpt lat="43.28821299181186" lon="12.362751486266493"><ele>236.0</ele><time>2026-04-11T15:49:55Z</time></trkpt><trkpt lat="43.28822063653154" lon="12.362528560973406"><ele>236.0</ele><time>2026-04-11T15:49:56Z</time></trkpt><trkpt lat="43.28822828579843" lon="12.362288613733808"><ele>236.0</ele><time>2026-04-11T15:49:57Z</time></trkpt><trkpt lat="43.28823098579199" lon="12.362031888647351"><ele>236.0</ele><time>2026-04-11T15:49:58Z</time></trkpt><trkpt lat="43.28823823115095" lon="12.361775580551146"><ele>236.0</ele><time>2026-04-11T15:49:59Z</time></trkpt><trkpt lat="43.28824637772676" lon="12.361521791477731"><ele>236.0</ele><time>2026-04-11T15:50:00Z</time></trkpt><trkpt lat="43.28825361235736" lon="12.361284901202295"><ele>236.0</ele><time>2026-04-11T15:50:01Z</time></trkpt><trkpt lat="43.28825805467086" lon="12.361050280692428"><ele>235.66666666666669</ele><time>2026-04-11T15:50:02Z</time></trkpt><trkpt lat="43.28826488311228" lon="12.360821892384887"><ele>235.33333333333331</ele><time>2026-04-11T15:50:03Z</time></trkpt><trkpt lat="43.28827365538445" lon="12.36060150013587"><ele>235.0</ele><time>2026-04-11T15:50:04Z</time></trkpt><trkpt lat="43.28828194479464" lon="12.360390441001426"><ele>236.33333333333331</ele><time>2026-04-11T15:50:05Z</time></trkpt><trkpt lat="43.288291443324894" lon="12.360174917811761"><ele>237.66666666666669</ele><time>2026-04-11T15:50:06Z</time></trkpt><trkpt lat="43.2883020276433" lon="12.35995887489995"><ele>239.0</ele><time>2026-04-11T15:50:07Z</time></trkpt><trkpt lat="43.28831213707868" lon="12.359747853005958"><ele>239.33333333333334</ele><time>2026-04-11T15:50:08Z</time></trkpt><trkpt lat="43.288319725664294" lon="12.359540609178556"><ele>239.66666666666669</ele><time>2026-04-11T15:50:09Z</time></trkpt><trkpt lat="43.28832909025266" lon="12.359329011138467"><ele>240.0</ele><time>2026-04-11T15:50:10Z</time></trkpt><trkpt lat="43.28833691855218" lon="12.359100518524249"><ele>239.33333333333331</ele><time>2026-04-11T15:50:11Z</time></trkpt><trkpt lat="43.288343180961284" lon="12.358860133739435"><ele>238.66666666666666</ele><time>2026-04-11T15:50:12Z</time></trkpt><trkpt lat="43.28835052351531" lon="12.358603225114354"><ele>238.0</ele><time>2026-04-11T15:50:13Z</time></trkpt><trkpt lat="43.288357545319336" lon="12.358353356256327"><ele>238.0</ele><time>2026-04-11T15:50:14Z</time></trkpt><trkpt lat="43.28836675465768" lon="12.358114567754072"><ele>238.0</ele><time>2026-04-11T15:50:15Z</time></trkpt><trkpt lat="43.288379301479694" lon="12.357885587190767"><ele>238.0</ele><time>2026-04-11T15:50:16Z</time></trkpt><trkpt lat="43.28839822501148" lon="12.357663916123004"><ele>237.0</ele><time>2026-04-11T15:50:17Z</time></trkpt><trkpt lat="43.2884295134737" lon="12.35744977276662"><ele>236.0</ele><time>2026-04-11T15:50:18Z</time></trkpt><trkpt lat="43.288473723960706" lon="12.357247393423656"><ele>235.0</ele><time>2026-04-11T15:50:19Z</time></trkpt><trkpt lat="43.288531192432345" lon="12.357055439205908"><ele>234.5</ele><time>2026-04-11T15:50:20Z</time></trkpt><trkpt lat="43.28859917108788" lon="12.356878024038283"><ele>234.0</ele><time>2026-04-11T15:50:21Z</time></trkpt><trkpt lat="43.28867171088567" lon="12.356710539325665"><ele>233.5</ele><time>2026-04-11T15:50:22Z</time></trkpt><trkpt lat="43.28874631076702" lon="12.356550116629656"><ele>233.0</ele><time>2026-04-11T15:50:23Z</time></trkpt><trkpt lat="43.288823854767756" lon="12.356397822101531"><ele>233.25</ele><time>2026-04-11T15:50:24Z</time></trkpt><trkpt lat="43.28890366925599" lon="12.356256400254749"><ele>233.5</ele><time>2026-04-11T15:50:25Z</time></trkpt><trkpt lat="43.288982202395516" lon="12.35612323037929"><ele>233.75</ele><time>2026-04-11T15:50:26Z</time></trkpt><trkpt lat="43.28905572744556" lon="12.356001829637536"><ele>234.0</ele><time>2026-04-11T15:50:27Z</time></trkpt><trkpt lat="43.28911940881673" lon="12.355895758271059"><ele>234.6</ele><time>2026-04-11T15:50:28Z</time></trkpt><trkpt lat="43.289183373505644" lon="12.355825760507638"><ele>235.2</ele><time>2026-04-11T15:50:29Z</time></trkpt><trkpt lat="43.289225857025" lon="12.355756091608356"><ele>235.79999999999998</ele><time>2026-04-11T15:50:30Z</time></trkpt><trkpt lat="43.28926109454932" lon="12.355675428358024"><ele>236.39999999999998</ele><time>2026-04-11T15:50:32Z</time></trkpt><trkpt lat="43.28908113574886" lon="12.355583797276902"><ele>237.0</ele><time>2026-04-11T15:50:34Z</time></trkpt><trkpt lat="43.289019464739134" lon="12.355649179028635"><ele>237.0</ele><time>2026-04-11T15:50:35Z</time></trkpt><trkpt lat="43.288966300222484" lon="12.355757830664148"><ele>237.0</ele><time>2026-04-11T15:50:36Z</time></trkpt><trkpt lat="43.28890381918475" lon="12.355880610937303"><ele>237.0</ele><time>2026-04-11T15:50:37Z</time></trkpt><trkpt lat="43.288846522407376" lon="12.355986464656336"><ele>237.0</ele><time>2026-04-11T15:50:38Z</time></trkpt><trkpt lat="43.288788880891225" lon="12.356089629402744"><ele>237.0</ele><time>2026-04-11T15:50:39Z</time></trkpt><trkpt lat="43.28873539335401" lon="12.35619276927476"><ele>236.39999999999998</ele><time>2026-04-11T15:50:40Z</time></trkpt><trkpt lat="43.28867508776288" lon="12.356308785813512"><ele>235.79999999999998</ele><time>2026-04-11T15:50:41Z</time></trkpt><trkpt lat="43.28861121181129" lon="12.356441014049619"><ele>235.2</ele><time>2026-04-11T15:50:42Z</time></trkpt><trkpt lat="43.288552301254704" lon="12.356573670313466"><ele>234.6</ele><time>2026-04-11T15:50:43Z</time></trkpt><trkpt lat="43.28849853079298" lon="12.356699460462204"><ele>234.0</ele><time>2026-04-11T15:50:44Z</time></trkpt><trkpt lat="43.288446354408364" lon="12.356825656874248"><ele>233.79999999999998</ele><time>2026-04-11T15:50:45Z</time></trkpt><trkpt lat="43.288397782093526" lon="12.356955579291148"><ele>233.59999999999997</ele><time>2026-04-11T15:50:46Z</time></trkpt><trkpt lat="43.28834944548052" lon="12.35708343820639"><ele>233.4</ele><time>2026-04-11T15:50:47Z</time></trkpt><trkpt lat="43.2883120198372" lon="12.357212292255792"><ele>233.2</ele><time>2026-04-11T15:50:48Z</time></trkpt><trkpt lat="43.28827833436308" lon="12.35733589736194"><ele>233.0</ele><time>2026-04-11T15:50:49Z</time></trkpt><trkpt lat="43.28825215034297" lon="12.357456491834565"><ele>233.0</ele><time>2026-04-11T15:50:50Z</time></trkpt><trkpt lat="43.28822967573585" lon="12.357579699174348"><ele>233.0</ele><time>2026-04-11T15:50:51Z</time></trkpt><trkpt lat="43.288211020204486" lon="12.357698752891812"><ele>233.0</ele><time>2026-04-11T15:50:52Z</time></trkpt><trkpt lat="43.28819699550191" lon="12.357810455698868"><ele>233.0</ele><time>2026-04-11T15:50:53Z</time></trkpt><trkpt lat="43.288169575061936" lon="12.357898780397838"><ele>233.0</ele><time>2026-04-11T15:50:54Z</time></trkpt><trkpt lat="43.28800262832464" lon="12.357904520594088"><ele>233.00000000000003</ele><time>2026-04-11T15:50:57Z</time></trkpt><trkpt lat="43.2879470566544" lon="12.357817268400833"><ele>233.0</ele><time>2026-04-11T15:50:58Z</time></trkpt><trkpt lat="43.28787973397471" lon="12.35771317625763"><ele>233.0</ele><time>2026-04-11T15:50:59Z</time></trkpt><trkpt lat="43.28782458170066" lon="12.357624703238244"><ele>233.0</ele><time>2026-04-11T15:51:00Z</time></trkpt><trkpt lat="43.287775308600445" lon="12.357537205345272"><ele>233.00000000000003</ele><time>2026-04-11T15:51:01Z</time></trkpt><trkpt lat="43.287751840108385" lon="12.357417910566681"><ele>233.0</ele><time>2026-04-11T15:51:02Z</time></trkpt><trkpt lat="43.287758126678774" lon="12.357303212604537"><ele>233.0</ele><time>2026-04-11T15:51:03Z</time></trkpt><trkpt lat="43.287803154472435" lon="12.357206278232141"><ele>233.0</ele><time>2026-04-11T15:51:04Z</time></trkpt><trkpt lat="43.28788020726781" lon="12.357115023686756"><ele>233.0</ele><time>2026-04-11T15:51:05Z</time></trkpt><trkpt lat="43.28796532476978" lon="12.356993653700677"><ele>233.0</ele><time>2026-04-11T15:51:06Z</time></trkpt><trkpt lat="43.28805951705074" lon="12.356851115567233"><ele>233.0</ele><time>2026-04-11T15:51:07Z</time></trkpt><trkpt lat="43.288156566467684" lon="12.356717266127701"><ele>233.0</ele><time>2026-04-11T15:51:08Z</time></trkpt><trkpt lat="43.28824275102015" lon="12.356597163747512"><ele>233.0</ele><time>2026-04-11T15:51:09Z</time></trkpt><trkpt lat="43.28832404273575" lon="12.356482630517387"><ele>233.0</ele><time>2026-04-11T15:51:10Z</time></trkpt><trkpt lat="43.288405214484506" lon="12.356366487235137"><ele>233.0</ele><time>2026-04-11T15:51:11Z</time></trkpt><trkpt lat="43.28848060420371" lon="12.356256794594758"><ele>233.2</ele><time>2026-04-11T15:51:12Z</time></trkpt><trkpt lat="43.288553101168404" lon="12.356148215979406"><ele>233.4</ele><time>2026-04-11T15:51:13Z</time></trkpt><trkpt lat="43.28862581182733" lon="12.356042493132152"><ele>233.59999999999997</ele><time>2026-04-11T15:51:14Z</time></trkpt><trkpt lat="43.28868727761491" lon="12.355941938030401"><ele>233.79999999999998</ele><time>2026-04-11T15:51:15Z</time></trkpt><trkpt lat="43.28873215431771" lon="12.355843758170225"><ele>234.0</ele><time>2026-04-11T15:51:16Z</time></trkpt><trkpt lat="43.28876168336525" lon="12.355740948920225"><ele>234.0</ele><time>2026-04-11T15:51:17Z</time></trkpt><trkpt lat="43.28876730354036" lon="12.355630723614174"><ele>234.0</ele><time>2026-04-11T15:51:18Z</time></trkpt><trkpt lat="43.28875591880162" lon="12.355518050751138"><ele>234.0</ele><time>2026-04-11T15:51:19Z</time></trkpt><trkpt lat="43.28872844982609" lon="12.355410490798338"><ele>234.0</ele><time>2026-04-11T15:51:20Z</time></trkpt><trkpt lat="43.28867104293083" lon="12.355306171981665"><ele>234.0</ele><time>2026-04-11T15:51:21Z</time></trkpt><trkpt lat="43.288596844177604" lon="12.35522065731696"><ele>234.0</ele><time>2026-04-11T15:51:22Z</time></trkpt><trkpt lat="43.28851483312004" lon="12.355158813047755"><ele>234.2</ele><time>2026-04-11T15:51:23Z</time></trkpt><trkpt lat="43.28843150786149" lon="12.35509743617237"><ele>234.39999999999998</ele><time>2026-04-11T15:51:24Z</time></trkpt><trkpt lat="43.28836211038708" lon="12.355032950225478"><ele>234.6</ele><time>2026-04-11T15:51:25Z</time></trkpt><trkpt lat="43.288303655297746" lon="12.354943660373964"><ele>234.8</ele><time>2026-04-11T15:51:26Z</time></trkpt><trkpt lat="43.28824142997668" lon="12.354821356718555"><ele>235.0</ele><time>2026-04-11T15:51:27Z</time></trkpt><trkpt lat="43.28816823999454" lon="12.354676150474035"><ele>234.33333333333331</ele><time>2026-04-11T15:51:28Z</time></trkpt><trkpt lat="43.28808094441824" lon="12.354515489072673"><ele>233.66666666666669</ele><time>2026-04-11T15:51:29Z</time></trkpt><trkpt lat="43.287981295509134" lon="12.354332503885471"><ele>233.0</ele><time>2026-04-11T15:51:30Z</time></trkpt><trkpt lat="43.287883525823155" lon="12.354151447776154"><ele>233.0</ele><time>2026-04-11T15:51:31Z</time></trkpt><trkpt lat="43.287793342523436" lon="12.353975457706467"><ele>233.0</ele><time>2026-04-11T15:51:32Z</time></trkpt><trkpt lat="43.28770284859747" lon="12.353804001727298"><ele>233.0</ele><time>2026-04-11T15:51:33Z</time></trkpt><trkpt lat="43.28761333671313" lon="12.353632973973417"><ele>233.33333333333334</ele><time>2026-04-11T15:51:34Z</time></trkpt><trkpt lat="43.28752444837606" lon="12.35346047195911"><ele>233.66666666666669</ele><time>2026-04-11T15:51:35Z</time></trkpt><trkpt lat="43.287433252370334" lon="12.353287003021343"><ele>234.0</ele><time>2026-04-11T15:51:36Z</time></trkpt><trkpt lat="43.28733969595682" lon="12.353111273885775"><ele>234.33333333333331</ele><time>2026-04-11T15:51:37Z</time></trkpt><trkpt lat="43.287247685525145" lon="12.352937765209301"><ele>234.66666666666666</ele><time>2026-04-11T15:51:38Z</time></trkpt><trkpt lat="43.28715726795503" lon="12.352766300592622"><ele>235.0</ele><time>2026-04-11T15:51:39Z</time></trkpt><trkpt lat="43.28706555143339" lon="12.352595892184153"><ele>235.0</ele><time>2026-04-11T15:51:40Z</time></trkpt><trkpt lat="43.28697581355615" lon="12.352422309727396"><ele>235.0</ele><time>2026-04-11T15:51:41Z</time></trkpt><trkpt lat="43.28688580122247" lon="12.352246668525728"><ele>235.0</ele><time>2026-04-11T15:51:42Z</time></trkpt><trkpt lat="43.28679297852663" lon="12.352066351776255"><ele>234.33333333333331</ele><time>2026-04-11T15:51:43Z</time></trkpt><trkpt lat="43.286695816532934" lon="12.351881327454917"><ele>233.66666666666669</ele><time>2026-04-11T15:51:44Z</time></trkpt><trkpt lat="43.28660477180623" lon="12.35171236374016"><ele>233.0</ele><time>2026-04-11T15:51:45Z</time></trkpt><trkpt lat="43.286518219172095" lon="12.351550771572521"><ele>233.0</ele><time>2026-04-11T15:51:46Z</time></trkpt><trkpt lat="43.28643852264581" lon="12.351396659384815"><ele>233.0</ele><time>2026-04-11T15:51:47Z</time></trkpt><trkpt lat="43.286363262278236" lon="12.351251438093275"><ele>233.0</ele><time>2026-04-11T15:51:48Z</time></trkpt><trkpt lat="43.28628982659734" lon="12.351112768110848"><ele>233.0</ele><time>2026-04-11T15:51:49Z</time></trkpt><trkpt lat="43.28622440495781" lon="12.350982429756488"><ele>234.50000000000003</ele><time>2026-04-11T15:51:50Z</time></trkpt><trkpt lat="43.28616356317081" lon="12.350868134293608"><ele>236.0</ele><time>2026-04-11T15:51:51Z</time></trkpt><trkpt lat="43.28610009482701" lon="12.350758614677815"><ele>237.5</ele><time>2026-04-11T15:51:52Z</time></trkpt><trkpt lat="43.286048944576294" lon="12.350673208590262"><ele>239.0</ele><time>2026-04-11T15:51:53Z</time></trkpt><trkpt lat="43.28601383876318" lon="12.350599925560964"><ele>240.50000000000003</ele><time>2026-04-11T15:51:54Z</time></trkpt><trkpt lat="43.2859843415641" lon="12.350469139003552"><ele>242.0</ele><time>2026-04-11T15:51:56Z</time></trkpt><trkpt lat="43.285934194801406" lon="12.350392508412677"><ele>244.75</ele><time>2026-04-11T15:51:58Z</time></trkpt><trkpt lat="43.28602957652295" lon="12.350283536823197"><ele>247.5</ele><time>2026-04-11T15:51:59Z</time></trkpt><trkpt lat="43.28609083199931" lon="12.350183276384977"><ele>250.25</ele><time>2026-04-11T15:52:00Z</time></trkpt><trkpt lat="43.28615552636363" lon="12.350030113678633"><ele>253.0</ele><time>2026-04-11T15:52:01Z</time></trkpt><trkpt lat="43.28625081564272" lon="12.349865591016671"><ele>250.33333333333331</ele><time>2026-04-11T15:52:02Z</time></trkpt><trkpt lat="43.28634611873933" lon="12.349662850986372"><ele>247.66666666666669</ele><time>2026-04-11T15:52:03Z</time></trkpt><trkpt lat="43.28644164279072" lon="12.34945770950175"><ele>245.0</ele><time>2026-04-11T15:52:04Z</time></trkpt><trkpt lat="43.286527557692715" lon="12.349268164325583"><ele>245.0</ele><time>2026-04-11T15:52:05Z</time></trkpt><trkpt lat="43.28660885807281" lon="12.349084800105494"><ele>245.0</ele><time>2026-04-11T15:52:06Z</time></trkpt><trkpt lat="43.28668525018882" lon="12.348909235243536"><ele>245.0</ele><time>2026-04-11T15:52:07Z</time></trkpt><trkpt lat="43.28675929868595" lon="12.348742684598529"><ele>245.0</ele><time>2026-04-11T15:52:08Z</time></trkpt><trkpt lat="43.28682912084832" lon="12.348585039513427"><ele>246.0</ele><time>2026-04-11T15:52:09Z</time></trkpt><trkpt lat="43.28689644032433" lon="12.348432215468586"><ele>247.0</ele><time>2026-04-11T15:52:10Z</time></trkpt><trkpt lat="43.28696603144693" lon="12.34828801079878"><ele>248.0</ele><time>2026-04-11T15:52:11Z</time></trkpt><trkpt lat="43.287031844442765" lon="12.348147304996088"><ele>249.0</ele><time>2026-04-11T15:52:12Z</time></trkpt><trkpt lat="43.28709776184994" lon="12.348012393999658"><ele>249.5</ele><time>2026-04-11T15:52:13Z</time></trkpt><trkpt lat="43.28716656447622" lon="12.34788648730899"><ele>250.0</ele><time>2026-04-11T15:52:14Z</time></trkpt><trkpt lat="43.287249218628695" lon="12.347757207342001"><ele>250.5</ele><time>2026-04-11T15:52:15Z</time></trkpt><trkpt lat="43.287335109075734" lon="12.34763948901602"><ele>251.0</ele><time>2026-04-11T15:52:16Z</time></trkpt><trkpt lat="43.28741749911363" lon="12.347529538090027"><ele>250.4</ele><time>2026-04-11T15:52:17Z</time></trkpt><trkpt lat="43.28749830506684" lon="12.347425331442897"><ele>249.8</ele><time>2026-04-11T15:52:18Z</time></trkpt><trkpt lat="43.2875760208292" lon="12.347322891481621"><ele>249.20000000000002</ele><time>2026-04-11T15:52:19Z</time></trkpt><trkpt lat="43.28764855427082" lon="12.347225336708343"><ele>248.60000000000002</ele><time>2026-04-11T15:52:20Z</time></trkpt><trkpt lat="43.287712034682585" lon="12.347143786267592"><ele>248.0</ele><time>2026-04-11T15:52:21Z</time></trkpt><trkpt lat="43.28775811177241" lon="12.347084762766254"><ele>248.0</ele><time>2026-04-11T15:52:22Z</time></trkpt><trkpt lat="43.28783498130706" lon="12.34698822890531"><ele>248.0</ele><time>2026-04-11T15:52:24Z</time></trkpt><trkpt lat="43.28791750157688" lon="12.346895654830933"><ele>248.0</ele><time>2026-04-11T15:52:26Z</time></trkpt><trkpt lat="43.28797878319589" lon="12.346815387713836"><ele>248.0</ele><time>2026-04-11T15:52:28Z</time></trkpt><trkpt lat="43.287792437607536" lon="12.346602206275156"><ele>248.00000000000003</ele><time>2026-04-11T15:52:32Z</time></trkpt><trkpt lat="43.28767547340247" lon="12.346603545056967"><ele>248.0</ele><time>2026-04-11T15:52:34Z</time></trkpt><trkpt lat="43.28761096538462" lon="12.3466098857045"><ele>248.0</ele><time>2026-04-11T15:52:35Z</time></trkpt><trkpt lat="43.287546583061946" lon="12.346551442850556"><ele>248.0</ele><time>2026-04-11T15:52:36Z</time></trkpt><trkpt lat="43.287468276812426" lon="12.34651153273306"><ele>248.00000000000003</ele><time>2026-04-11T15:52:37Z</time></trkpt><trkpt lat="43.28739281562176" lon="12.346434911237646"><ele>248.0</ele><time>2026-04-11T15:52:38Z</time></trkpt><trkpt lat="43.28731677839557" lon="12.346346124449429"><ele>249.4</ele><time>2026-04-11T15:52:39Z</time></trkpt><trkpt lat="43.287245259914656" lon="12.346252526586685"><ele>250.8</ele><time>2026-04-11T15:52:40Z</time></trkpt><trkpt lat="43.287202149656736" lon="12.346133895044453"><ele>252.2</ele><time>2026-04-11T15:52:41Z</time></trkpt><trkpt lat="43.287152850534135" lon="12.346010309229293"><ele>253.6</ele><time>2026-04-11T15:52:42Z</time></trkpt><trkpt lat="43.287088602487735" lon="12.345896409911452"><ele>255.0</ele><time>2026-04-11T15:52:43Z</time></trkpt><trkpt lat="43.287033502637016" lon="12.345768057536352"><ele>255.0</ele><time>2026-04-11T15:52:44Z</time></trkpt><trkpt lat="43.28695914257789" lon="12.345652633776172"><ele>255.0</ele><time>2026-04-11T15:52:45Z</time></trkpt><trkpt lat="43.28688515154972" lon="12.345546235710525"><ele>255.0</ele><time>2026-04-11T15:52:46Z</time></trkpt><trkpt lat="43.28681347342482" lon="12.345437403248157"><ele>255.0</ele><time>2026-04-11T15:52:47Z</time></trkpt><trkpt lat="43.28675410316365" lon="12.345320222026624"><ele>255.0</ele><time>2026-04-11T15:52:48Z</time></trkpt><trkpt lat="43.286699170965164" lon="12.345196594390082"><ele>257.8</ele><time>2026-04-11T15:52:49Z</time></trkpt><trkpt lat="43.28665876596911" lon="12.3450665954606"><ele>260.6</ele><time>2026-04-11T15:52:50Z</time></trkpt><trkpt lat="43.28662339561066" lon="12.344931283618811"><ele>263.4</ele><time>2026-04-11T15:52:51Z</time></trkpt><trkpt lat="43.286592018724306" lon="12.344805925243218"><ele>266.2</ele><time>2026-04-11T15:52:52Z</time></trkpt><trkpt lat="43.28656567933713" lon="12.344690288374151"><ele>269.0</ele><time>2026-04-11T15:52:53Z</time></trkpt><trkpt lat="43.286544325612375" lon="12.34456581320066"><ele>272.2</ele><time>2026-04-11T15:52:54Z</time></trkpt><trkpt lat="43.28651809129896" lon="12.34444462774549"><ele>275.4</ele><time>2026-04-11T15:52:55Z</time></trkpt><trkpt lat="43.28648798967045" lon="12.344336179452904"><ele>278.6</ele><time>2026-04-11T15:52:56Z</time></trkpt><trkpt lat="43.286458974231586" lon="12.34421948395623"><ele>281.8</ele><time>2026-04-11T15:52:57Z</time></trkpt><trkpt lat="43.28644345622142" lon="12.344087338018777"><ele>285.0</ele><time>2026-04-11T15:52:58Z</time></trkpt><trkpt lat="43.28644424265161" lon="12.343947877977138"><ele>286.6</ele><time>2026-04-11T15:52:59Z</time></trkpt><trkpt lat="43.286444975575364" lon="12.343819249170554"><ele>288.2</ele><time>2026-04-11T15:53:00Z</time></trkpt><trkpt lat="43.28644042763304" lon="12.343694731554903"><ele>289.8</ele><time>2026-04-11T15:53:01Z</time></trkpt><trkpt lat="43.28643887619847" lon="12.343562936784654"><ele>291.4</ele><time>2026-04-11T15:53:02Z</time></trkpt><trkpt lat="43.28641640314004" lon="12.343433610586304"><ele>293.0</ele><time>2026-04-11T15:53:03Z</time></trkpt><trkpt lat="43.28637704628743" lon="12.343304294694793"><ele>290.0</ele><time>2026-04-11T15:53:04Z</time></trkpt><trkpt lat="43.286336143372495" lon="12.343174739665779"><ele>287.0</ele><time>2026-04-11T15:53:05Z</time></trkpt><trkpt lat="43.286301153176204" lon="12.34303467579078"><ele>284.0</ele><time>2026-04-11T15:53:06Z</time></trkpt><trkpt lat="43.286266005536866" lon="12.342892209771215"><ele>281.0</ele><time>2026-04-11T15:53:07Z</time></trkpt><trkpt lat="43.28622914179183" lon="12.342758834752289"><ele>278.0</ele><time>2026-04-11T15:53:08Z</time></trkpt><trkpt lat="43.28618674449787" lon="12.342621754263424"><ele>278.0</ele><time>2026-04-11T15:53:09Z</time></trkpt><trkpt lat="43.286147880294735" lon="12.342502370065445"><ele>278.0</ele><time>2026-04-11T15:53:10Z</time></trkpt><trkpt lat="43.28612824982738" lon="12.34237850946572"><ele>278.0</ele><time>2026-04-11T15:53:11Z</time></trkpt><trkpt lat="43.28613386875325" lon="12.342254677625561"><ele>278.0</ele><time>2026-04-11T15:53:12Z</time></trkpt><trkpt lat="43.28618572389385" lon="12.34215890928625"><ele>278.0</ele><time>2026-04-11T15:53:13Z</time></trkpt><trkpt lat="43.2862377340698" lon="12.342028874158975"><ele>279.0</ele><time>2026-04-11T15:53:14Z</time></trkpt><trkpt lat="43.28631030637332" lon="12.34191513612332"><ele>280.0</ele><time>2026-04-11T15:53:15Z</time></trkpt><trkpt lat="43.286378190807994" lon="12.341798680886356"><ele>281.0</ele><time>2026-04-11T15:53:16Z</time></trkpt><trkpt lat="43.28642066347891" lon="12.341679418817016"><ele>282.0</ele><time>2026-04-11T15:53:17Z</time></trkpt><trkpt lat="43.28643829757418" lon="12.341553063134066"><ele>283.0</ele><time>2026-04-11T15:53:18Z</time></trkpt><trkpt lat="43.2864319475322" lon="12.341436078056423"><ele>288.0</ele><time>2026-04-11T15:53:19Z</time></trkpt><trkpt lat="43.28642825894386" lon="12.341336763968666"><ele>293.0</ele><time>2026-04-11T15:53:20Z</time></trkpt><trkpt lat="43.28645889019973" lon="12.341176108339875"><ele>298.0</ele><time>2026-04-11T15:53:22Z</time></trkpt><trkpt lat="43.28654780067923" lon="12.341127073129295"><ele>303.0</ele><time>2026-04-11T15:53:24Z</time></trkpt><trkpt lat="43.28660367444735" lon="12.341240867674777"><ele>308.0</ele><time>2026-04-11T15:53:26Z</time></trkpt><trkpt lat="43.2865865214013" lon="12.341353696717805"><ele>307.4</ele><time>2026-04-11T15:53:27Z</time></trkpt><trkpt lat="43.286603373589315" lon="12.341464480279297"><ele>306.8</ele><time>2026-04-11T15:53:28Z</time></trkpt><trkpt lat="43.28663030253446" lon="12.34160812024841"><ele>306.2</ele><time>2026-04-11T15:53:29Z</time></trkpt><trkpt lat="43.28666057075932" lon="12.341758751452762"><ele>305.6</ele><time>2026-04-11T15:53:30Z</time></trkpt><trkpt lat="43.28669264071995" lon="12.341903609023984"><ele>305.0</ele><time>2026-04-11T15:53:31Z</time></trkpt><trkpt lat="43.28672458119904" lon="12.342056409018694"><ele>305.0</ele><time>2026-04-11T15:53:32Z</time></trkpt><trkpt lat="43.28675549514139" lon="12.342200156940388"><ele>305.0</ele><time>2026-04-11T15:53:33Z</time></trkpt><trkpt lat="43.28680186589113" lon="12.342344026926973"><ele>305.0</ele><time>2026-04-11T15:53:34Z</time></trkpt><trkpt lat="43.286857067961854" lon="12.342491752935807"><ele>305.0</ele><time>2026-04-11T15:53:35Z</time></trkpt><trkpt lat="43.286921899605005" lon="12.34262762531581"><ele>304.5</ele><time>2026-04-11T15:53:36Z</time></trkpt><trkpt lat="43.28700032095814" lon="12.342776883011902"><ele>304.0</ele><time>2026-04-11T15:53:37Z</time></trkpt><trkpt lat="43.287075957556816" lon="12.34291969666108"><ele>303.5</ele><time>2026-04-11T15:53:38Z</time></trkpt><trkpt lat="43.2871460365331" lon="12.343040438524882"><ele>303.0</ele><time>2026-04-11T15:53:39Z</time></trkpt><trkpt lat="43.28720250600677" lon="12.343150298224536"><ele>304.5</ele><time>2026-04-11T15:53:40Z</time></trkpt><trkpt lat="43.28726206377407" lon="12.343234311240145"><ele>306.0</ele><time>2026-04-11T15:53:41Z</time></trkpt><trkpt lat="43.28731925771709" lon="12.343291129660349"><ele>307.5</ele><time>2026-04-11T15:53:42Z</time></trkpt><trkpt lat="43.287421493801425" lon="12.343285520525132"><ele>309.0</ele><time>2026-04-11T15:53:44Z</time></trkpt><trkpt lat="43.2874883282196" lon="12.343154273400897"><ele>310.5</ele><time>2026-04-11T15:53:46Z</time></trkpt><trkpt lat="43.28752059117357" lon="12.343062732799137"><ele>312.0</ele><time>2026-04-11T15:53:47Z</time></trkpt><trkpt lat="43.287547103638445" lon="12.342973709241097"><ele>313.8</ele><time>2026-04-11T15:53:48Z</time></trkpt><trkpt lat="43.28758718504669" lon="12.342882074747356"><ele>315.6</ele><time>2026-04-11T15:53:49Z</time></trkpt><trkpt lat="43.28763429423277" lon="12.342772962152116"><ele>317.40000000000003</ele><time>2026-04-11T15:53:50Z</time></trkpt><trkpt lat="43.28768347198798" lon="12.342647033864516"><ele>319.2</ele><time>2026-04-11T15:53:51Z</time></trkpt><trkpt lat="43.28772593557092" lon="12.342510705854167"><ele>321.0</ele><time>2026-04-11T15:53:52Z</time></trkpt><trkpt lat="43.2877510764489" lon="12.342364938136301"><ele>321.0</ele><time>2026-04-11T15:53:53Z</time></trkpt><trkpt lat="43.287773075172765" lon="12.342230835820487"><ele>321.0</ele><time>2026-04-11T15:53:54Z</time></trkpt><trkpt lat="43.28777821490798" lon="12.342098195109992"><ele>321.0</ele><time>2026-04-11T15:53:55Z</time></trkpt><trkpt lat="43.287778481188276" lon="12.341970649725162"><ele>321.0</ele><time>2026-04-11T15:53:56Z</time></trkpt><trkpt lat="43.287782340204316" lon="12.341827610577502"><ele>321.0</ele><time>2026-04-11T15:53:57Z</time></trkpt><trkpt lat="43.287797197688384" lon="12.34168231574451"><ele>322.25</ele><time>2026-04-11T15:53:58Z</time></trkpt><trkpt lat="43.287819839326474" lon="12.341528132388449"><ele>323.5</ele><time>2026-04-11T15:53:59Z</time></trkpt><trkpt lat="43.28784469390272" lon="12.341375036784502"><ele>324.75</ele><time>2026-04-11T15:54:00Z</time></trkpt><trkpt lat="43.28788883867455" lon="12.34122731536153"><ele>326.0</ele><time>2026-04-11T15:54:01Z</time></trkpt><trkpt lat="43.28793227451054" lon="12.341041633108103"><ele>327.0</ele><time>2026-04-11T15:54:02Z</time></trkpt><trkpt lat="43.28797198165084" lon="12.340895112428955"><ele>328.0</ele><time>2026-04-11T15:54:03Z</time></trkpt><trkpt lat="43.288003891762656" lon="12.340781698014627"><ele>329.0</ele><time>2026-04-11T15:54:04Z</time></trkpt><trkpt lat="43.28802378987995" lon="12.34068065104737"><ele>330.0</ele><time>2026-04-11T15:54:05Z</time></trkpt><trkpt lat="43.28803505701127" lon="12.34058330140469"><ele>331.0</ele><time>2026-04-11T15:54:06Z</time></trkpt><trkpt lat="43.28802009082072" lon="12.340486204601277"><ele>332.0</ele><time>2026-04-11T15:54:07Z</time></trkpt><trkpt lat="43.287986615788334" lon="12.340389358194713"><ele>332.40000000000003</ele><time>2026-04-11T15:54:08Z</time></trkpt><trkpt lat="43.28793296723101" lon="12.340274664207188"><ele>332.8</ele><time>2026-04-11T15:54:09Z</time></trkpt><trkpt lat="43.28789429795514" lon="12.340171060721714"><ele>333.2</ele><time>2026-04-11T15:54:10Z</time></trkpt><trkpt lat="43.287891621190546" lon="12.340046936432312"><ele>333.6</ele><time>2026-04-11T15:54:11Z</time></trkpt><trkpt lat="43.28793939170744" lon="12.339913481920862"><ele>334.0</ele><time>2026-04-11T15:54:12Z</time></trkpt><trkpt lat="43.287960539350735" lon="12.339757481044197"><ele>336.25</ele><time>2026-04-11T15:54:13Z</time></trkpt><trkpt lat="43.28800008457368" lon="12.339575082483176"><ele>338.5</ele><time>2026-04-11T15:54:14Z</time></trkpt><trkpt lat="43.288033800976876" lon="12.3394107536501"><ele>340.75</ele><time>2026-04-11T15:54:15Z</time></trkpt><trkpt lat="43.28805935985873" lon="12.339271734732273"><ele>343.0</ele><time>2026-04-11T15:54:16Z</time></trkpt><trkpt lat="43.288069396585584" lon="12.339128966524015"><ele>343.0</ele><time>2026-04-11T15:54:17Z</time></trkpt><trkpt lat="43.288067192185984" lon="12.33897737396973"><ele>343.0</ele><time>2026-04-11T15:54:18Z</time></trkpt><trkpt lat="43.288052722024695" lon="12.338805077295527"><ele>343.0</ele><time>2026-04-11T15:54:19Z</time></trkpt><trkpt lat="43.288040853364684" lon="12.3386396316286"><ele>343.0</ele><time>2026-04-11T15:54:20Z</time></trkpt><trkpt lat="43.28803199488715" lon="12.338487013149832"><ele>346.2</ele><time>2026-04-11T15:54:21Z</time></trkpt><trkpt lat="43.28801362575554" lon="12.338331431023786"><ele>349.4</ele><time>2026-04-11T15:54:22Z</time></trkpt><trkpt lat="43.287988498773075" lon="12.3381777329502"><ele>352.59999999999997</ele><time>2026-04-11T15:54:23Z</time></trkpt><trkpt lat="43.287959994828505" lon="12.338040440720931"><ele>355.79999999999995</ele><time>2026-04-11T15:54:24Z</time></trkpt><trkpt lat="43.28794795941751" lon="12.337911822339887"><ele>359.0</ele><time>2026-04-11T15:54:25Z</time></trkpt><trkpt lat="43.2879807174817" lon="12.33778379620864"><ele>359.0</ele><time>2026-04-11T15:54:26Z</time></trkpt><trkpt lat="43.288020118850746" lon="12.337640443515566"><ele>359.0</ele><time>2026-04-11T15:54:27Z</time></trkpt><trkpt lat="43.288089661143026" lon="12.337497986172666"><ele>359.0</ele><time>2026-04-11T15:54:28Z</time></trkpt><trkpt lat="43.288151293865134" lon="12.337370969072536"><ele>359.0</ele><time>2026-04-11T15:54:29Z</time></trkpt><trkpt lat="43.28820072546066" lon="12.337258408068255"><ele>359.0</ele><time>2026-04-11T15:54:30Z</time></trkpt><trkpt lat="43.288246108267266" lon="12.337138946415886"><ele>359.0</ele><time>2026-04-11T15:54:31Z</time></trkpt><trkpt lat="43.2882870956743" lon="12.337027748445198"><ele>359.0</ele><time>2026-04-11T15:54:32Z</time></trkpt><trkpt lat="43.288322332751655" lon="12.336922038618628"><ele>359.0</ele><time>2026-04-11T15:54:33Z</time></trkpt><trkpt lat="43.28835865419951" lon="12.336818418797854"><ele>359.0</ele><time>2026-04-11T15:54:34Z</time></trkpt><trkpt lat="43.28839642427926" lon="12.336742905896374"><ele>359.0</ele><time>2026-04-11T15:54:35Z</time></trkpt><trkpt lat="43.28841741258024" lon="12.336579206147173"><ele>359.0</ele><time>2026-04-11T15:54:37Z</time></trkpt><trkpt lat="43.28839931810729" lon="12.336473074467266"><ele>358.25</ele><time>2026-04-11T15:54:38Z</time></trkpt><trkpt lat="43.28831122794882" lon="12.336353661545578"><ele>357.5</ele><time>2026-04-11T15:54:39Z</time></trkpt><trkpt lat="43.288188867485665" lon="12.3362285384822"><ele>356.75</ele><time>2026-04-11T15:54:40Z</time></trkpt><trkpt lat="43.288089463887395" lon="12.336102831345988"><ele>356.0</ele><time>2026-04-11T15:54:41Z</time></trkpt><trkpt lat="43.28800630517843" lon="12.33599372293751"><ele>356.0</ele><time>2026-04-11T15:54:42Z</time></trkpt><trkpt lat="43.28792228914049" lon="12.33587904651119"><ele>356.0</ele><time>2026-04-11T15:54:43Z</time></trkpt><trkpt lat="43.28782812074552" lon="12.335787282520593"><ele>356.0</ele><time>2026-04-11T15:54:44Z</time></trkpt><trkpt lat="43.287744100819324" lon="12.335703006264378"><ele>356.0</ele><time>2026-04-11T15:54:45Z</time></trkpt><trkpt lat="43.28764346482111" lon="12.335643562435495"><ele>356.0</ele><time>2026-04-11T15:54:46Z</time></trkpt><trkpt lat="43.287555573562145" lon="12.335582485194962"><ele>356.5</ele><time>2026-04-11T15:54:47Z</time></trkpt><trkpt lat="43.287480828654026" lon="12.335533046109857"><ele>357.0</ele><time>2026-04-11T15:54:48Z</time></trkpt><trkpt lat="43.28740085551384" lon="12.335474618956285"><ele>357.5</ele><time>2026-04-11T15:54:49Z</time></trkpt><trkpt lat="43.2873128693398" lon="12.335429126141705"><ele>358.0</ele><time>2026-04-11T15:54:50Z</time></trkpt><trkpt lat="43.28723998980401" lon="12.335369926927845"><ele>358.5</ele><time>2026-04-11T15:54:51Z</time></trkpt><trkpt lat="43.28718779237037" lon="12.335286979657429"><ele>359.0</ele><time>2026-04-11T15:54:52Z</time></trkpt><trkpt lat="43.287142213704676" lon="12.335218831311025"><ele>359.79999999999995</ele><time>2026-04-11T15:54:53Z</time></trkpt><trkpt lat="43.286997807134156" lon="12.335167993552078"><ele>360.59999999999997</ele><time>2026-04-11T15:54:55Z</time></trkpt><trkpt lat="43.28690923865036" lon="12.335225914468582"><ele>361.4</ele><time>2026-04-11T15:54:56Z</time></trkpt><trkpt lat="43.286818822119216" lon="12.335231249267883"><ele>362.2</ele><time>2026-04-11T15:54:57Z</time></trkpt><trkpt lat="43.2867228120813" lon="12.335178436210018"><ele>363.0</ele><time>2026-04-11T15:54:58Z</time></trkpt><trkpt lat="43.28662320941824" lon="12.335112166675929"><ele>363.0</ele><time>2026-04-11T15:54:59Z</time></trkpt><trkpt lat="43.28651776216105" lon="12.335041397838376"><ele>363.0</ele><time>2026-04-11T15:55:00Z</time></trkpt><trkpt lat="43.28641499507669" lon="12.334983230362324"><ele>363.0</ele><time>2026-04-11T15:55:01Z</time></trkpt><trkpt lat="43.286358228127924" lon="12.3349152571771"><ele>363.0</ele><time>2026-04-11T15:55:02Z</time></trkpt><trkpt lat="43.28627340201474" lon="12.334806514389236"><ele>363.0</ele><time>2026-04-11T15:55:04Z</time></trkpt><trkpt lat="43.28620302634268" lon="12.334668095313924"><ele>364.1666666666667</ele><time>2026-04-11T15:55:06Z</time></trkpt><trkpt lat="43.28615580092639" lon="12.334594428642726"><ele>365.3333333333333</ele><time>2026-04-11T15:55:07Z</time></trkpt><trkpt lat="43.28613813714312" lon="12.334485493461843"><ele>366.5</ele><time>2026-04-11T15:55:08Z</time></trkpt><trkpt lat="43.28610899417505" lon="12.33437624532129"><ele>367.66666666666663</ele><time>2026-04-11T15:55:09Z</time></trkpt><trkpt lat="43.286069626467835" lon="12.33429610771756"><ele>368.8333333333333</ele><time>2026-04-11T15:55:10Z</time></trkpt><trkpt lat="43.28598835094224" lon="12.33418763854083"><ele>370.0</ele><time>2026-04-11T15:55:12Z</time></trkpt><trkpt lat="43.285905537389" lon="12.334190860726183"><ele>370.0</ele><time>2026-04-11T15:55:13Z</time></trkpt><trkpt lat="43.28583551706474" lon="12.334295596813826"><ele>370.0</ele><time>2026-04-11T15:55:14Z</time></trkpt><trkpt lat="43.285759150201024" lon="12.334328679656972"><ele>370.0</ele><time>2026-04-11T15:55:15Z</time></trkpt><trkpt lat="43.285637432249914" lon="12.334314262928809"><ele>370.0</ele><time>2026-04-11T15:55:17Z</time></trkpt><trkpt lat="43.28557870979054" lon="12.33424082250929"><ele>370.0</ele><time>2026-04-11T15:55:18Z</time></trkpt><trkpt lat="43.2855328052572" lon="12.334125369113764"><ele>371.2</ele><time>2026-04-11T15:55:19Z</time></trkpt><trkpt lat="43.28549338269849" lon="12.333996033278945"><ele>372.4</ele><time>2026-04-11T15:55:20Z</time></trkpt><trkpt lat="43.28543526337801" lon="12.333863517885035"><ele>373.6</ele><time>2026-04-11T15:55:21Z</time></trkpt><trkpt lat="43.2853770890755" lon="12.333755655091064"><ele>374.8</ele><time>2026-04-11T15:55:22Z</time></trkpt><trkpt lat="43.28529864455063" lon="12.333654342011323"><ele>376.0</ele><time>2026-04-11T15:55:23Z</time></trkpt><trkpt lat="43.285206849087075" lon="12.33355972981609"><ele>376.0</ele><time>2026-04-11T15:55:24Z</time></trkpt><trkpt lat="43.285101096606724" lon="12.333464053691097"><ele>376.0</ele><time>2026-04-11T15:55:25Z</time></trkpt><trkpt lat="43.28499735501281" lon="12.333385199553843"><ele>376.0</ele><time>2026-04-11T15:55:26Z</time></trkpt><trkpt lat="43.28490562048426" lon="12.333301915589793"><ele>376.0</ele><time>2026-04-11T15:55:27Z</time></trkpt><trkpt lat="43.28481537526594" lon="12.333215987218852"><ele>376.8</ele><time>2026-04-11T15:55:28Z</time></trkpt><trkpt lat="43.284733102228294" lon="12.333128931413698"><ele>377.6</ele><time>2026-04-11T15:55:29Z</time></trkpt><trkpt lat="43.28464831963541" lon="12.333027409100204"><ele>378.4</ele><time>2026-04-11T15:55:30Z</time></trkpt><trkpt lat="43.28457567208017" lon="12.33292000288619"><ele>379.2</ele><time>2026-04-11T15:55:31Z</time></trkpt><trkpt lat="43.28450196416008" lon="12.332836352977543"><ele>380.0</ele><time>2026-04-11T15:55:32Z</time></trkpt><trkpt lat="43.28443612494946" lon="12.332751873636132"><ele>380.0</ele><time>2026-04-11T15:55:33Z</time></trkpt><trkpt lat="43.28435946118006" lon="12.332690454853529"><ele>380.0</ele><time>2026-04-11T15:55:34Z</time></trkpt><trkpt lat="43.28427152431239" lon="12.33264463278667"><ele>380.0</ele><time>2026-04-11T15:55:35Z</time></trkpt><trkpt lat="43.28418909313456" lon="12.332613544237494"><ele>380.0</ele><time>2026-04-11T15:55:36Z</time></trkpt><trkpt lat="43.28411068679865" lon="12.332573901044984"><ele>380.0</ele><time>2026-04-11T15:55:37Z</time></trkpt><trkpt lat="43.284034606196904" lon="12.3325357438338"><ele>380.0</ele><time>2026-04-11T15:55:38Z</time></trkpt><trkpt lat="43.28393945101097" lon="12.33245633281474"><ele>377.1666666666667</ele><time>2026-04-11T15:55:40Z</time></trkpt><trkpt lat="43.28388765890936" lon="12.332302706465729"><ele>374.33333333333337</ele><time>2026-04-11T15:55:42Z</time></trkpt><trkpt lat="43.28388817578676" lon="12.332195911311794"><ele>371.5</ele><time>2026-04-11T15:55:43Z</time></trkpt><trkpt lat="43.28391237033826" lon="12.332097540409498"><ele>368.6666666666667</ele><time>2026-04-11T15:55:44Z</time></trkpt><trkpt lat="43.28392972826474" lon="12.331995480397337"><ele>365.8333333333333</ele><time>2026-04-11T15:55:45Z</time></trkpt><trkpt lat="43.28392856740467" lon="12.331891417277348"><ele>363.0</ele><time>2026-04-11T15:55:46Z</time></trkpt><trkpt lat="43.28391305165408" lon="12.331775593466961"><ele>363.0</ele><time>2026-04-11T15:55:47Z</time></trkpt><trkpt lat="43.283893995958934" lon="12.331650732195923"><ele>363.0</ele><time>2026-04-11T15:55:48Z</time></trkpt><trkpt lat="43.28386224572172" lon="12.331524718069973"><ele>363.0</ele><time>2026-04-11T15:55:49Z</time></trkpt><trkpt lat="43.283825900706354" lon="12.331395896856247"><ele>363.0</ele><time>2026-04-11T15:55:50Z</time></trkpt><trkpt lat="43.28377910015653" lon="12.331268804322413"><ele>363.0</ele><time>2026-04-11T15:55:51Z</time></trkpt><trkpt lat="43.28371589514514" lon="12.331136166580905"><ele>364.59999999999997</ele><time>2026-04-11T15:55:52Z</time></trkpt><trkpt lat="43.28365997948737" lon="12.331006167586947"><ele>366.2</ele><time>2026-04-11T15:55:53Z</time></trkpt><trkpt lat="43.28360008147454" lon="12.330902372072142"><ele>367.8</ele><time>2026-04-11T15:55:54Z</time></trkpt><trkpt lat="43.28352816893936" lon="12.330820764422137"><ele>369.4</ele><time>2026-04-11T15:55:55Z</time></trkpt><trkpt lat="43.283458356016766" lon="12.330748017464442"><ele>371.0</ele><time>2026-04-11T15:55:56Z</time></trkpt><trkpt lat="43.283390483887786" lon="12.330673188312817"><ele>371.0</ele><time>2026-04-11T15:55:57Z</time></trkpt><trkpt lat="43.28332836521831" lon="12.330591430420672"><ele>371.0</ele><time>2026-04-11T15:55:58Z</time></trkpt><trkpt lat="43.28326214861378" lon="12.33050690992588"><ele>371.0</ele><time>2026-04-11T15:55:59Z</time></trkpt><trkpt lat="43.2831901529131" lon="12.330410752507571"><ele>371.0</ele><time>2026-04-11T15:56:00Z</time></trkpt><trkpt lat="43.28312455772823" lon="12.33033968700259"><ele>371.0</ele><time>2026-04-11T15:56:01Z</time></trkpt><trkpt lat="43.28306867551306" lon="12.330211453733106"><ele>371.4</ele><time>2026-04-11T15:56:02Z</time></trkpt><trkpt lat="43.283021740826726" lon="12.330080082848625"><ele>371.8</ele><time>2026-04-11T15:56:03Z</time></trkpt><trkpt lat="43.28297578267403" lon="12.329941081304238"><ele>372.2</ele><time>2026-04-11T15:56:04Z</time></trkpt><trkpt lat="43.28293546922686" lon="12.32979764925477"><ele>372.59999999999997</ele><time>2026-04-11T15:56:05Z</time></trkpt><trkpt lat="43.282887345873846" lon="12.329668696558214"><ele>373.0</ele><time>2026-04-11T15:56:06Z</time></trkpt><trkpt lat="43.28287529776235" lon="12.329540515726112"><ele>372.3333333333333</ele><time>2026-04-11T15:56:07Z</time></trkpt><trkpt lat="43.28285998564725" lon="12.329423005760189"><ele>371.66666666666663</ele><time>2026-04-11T15:56:08Z</time></trkpt><trkpt lat="43.28284006651162" lon="12.32932432934197"><ele>371.0</ele><time>2026-04-11T15:56:09Z</time></trkpt><trkpt lat="43.28281093869917" lon="12.329218869319767"><ele>370.3333333333333</ele><time>2026-04-11T15:56:10Z</time></trkpt><trkpt lat="43.28275264492853" lon="12.32911727560632"><ele>369.6666666666667</ele><time>2026-04-11T15:56:11Z</time></trkpt><trkpt lat="43.282672075647874" lon="12.329015135522846"><ele>369.0</ele><time>2026-04-11T15:56:12Z</time></trkpt><trkpt lat="43.28258124613133" lon="12.328921748528426"><ele>368.79999999999995</ele><time>2026-04-11T15:56:13Z</time></trkpt><trkpt lat="43.282510225097965" lon="12.328846991214933"><ele>368.59999999999997</ele><time>2026-04-11T15:56:14Z</time></trkpt><trkpt lat="43.28244571287595" lon="12.328757283451163"><ele>368.4</ele><time>2026-04-11T15:56:15Z</time></trkpt><trkpt lat="43.28238149279651" lon="12.328657545468563"><ele>368.2</ele><time>2026-04-11T15:56:16Z</time></trkpt><trkpt lat="43.28231644902757" lon="12.328550858008049"><ele>368.0</ele><time>2026-04-11T15:56:17Z</time></trkpt><trkpt lat="43.282241315456524" lon="12.328420921067782"><ele>368.0</ele><time>2026-04-11T15:56:18Z</time></trkpt><trkpt lat="43.282167008682066" lon="12.328306848810948"><ele>368.0</ele><time>2026-04-11T15:56:19Z</time></trkpt><trkpt lat="43.282102476064864" lon="12.328199609846756"><ele>368.0</ele><time>2026-04-11T15:56:20Z</time></trkpt><trkpt lat="43.28203302980394" lon="12.328086668653848"><ele>368.0</ele><time>2026-04-11T15:56:21Z</time></trkpt><trkpt lat="43.28198302664973" lon="12.327981563228233"><ele>368.0</ele><time>2026-04-11T15:56:22Z</time></trkpt><trkpt lat="43.2819256778033" lon="12.327869312945662"><ele>369.0</ele><time>2026-04-11T15:56:23Z</time></trkpt><trkpt lat="43.28188665980875" lon="12.327734870608648"><ele>370.0</ele><time>2026-04-11T15:56:24Z</time></trkpt><trkpt lat="43.28184845005013" lon="12.327633594331239"><ele>371.0</ele><time>2026-04-11T15:56:25Z</time></trkpt><trkpt lat="43.281817543956755" lon="12.327539774908017"><ele>372.0</ele><time>2026-04-11T15:56:26Z</time></trkpt><trkpt lat="43.2817906957425" lon="12.327440393845436"><ele>373.0</ele><time>2026-04-11T15:56:27Z</time></trkpt><trkpt lat="43.28176498509046" lon="12.327331960015009"><ele>374.0</ele><time>2026-04-11T15:56:28Z</time></trkpt><trkpt lat="43.28173647991518" lon="12.327230129752758"><ele>373.57142857142856</ele><time>2026-04-11T15:56:29Z</time></trkpt><trkpt lat="43.28172501530032" lon="12.327133623532694"><ele>373.14285714285717</ele><time>2026-04-11T15:56:30Z</time></trkpt><trkpt lat="43.281731403977254" lon="12.327039010040025"><ele>372.7142857142857</ele><time>2026-04-11T15:56:31Z</time></trkpt><trkpt lat="43.281726908072194" lon="12.326944442734712"><ele>372.2857142857143</ele><time>2026-04-11T15:56:32Z</time></trkpt><trkpt lat="43.28171573771082" lon="12.326848721184746"><ele>371.8571428571429</ele><time>2026-04-11T15:56:33Z</time></trkpt><trkpt lat="43.28170581164557" lon="12.32674983029053"><ele>371.42857142857144</ele><time>2026-04-11T15:56:34Z</time></trkpt><trkpt lat="43.281675367481675" lon="12.32663182200187"><ele>371.0</ele><time>2026-04-11T15:56:35Z</time></trkpt><trkpt lat="43.28163556719102" lon="12.326519195924623"><ele>369.5</ele><time>2026-04-11T15:56:36Z</time></trkpt><trkpt lat="43.28160025060174" lon="12.32637258323989"><ele>368.0</ele><time>2026-04-11T15:56:37Z</time></trkpt><trkpt lat="43.28152977019223" lon="12.326247820154396"><ele>366.5</ele><time>2026-04-11T15:56:38Z</time></trkpt><trkpt lat="43.28148099484676" lon="12.326106248178236"><ele>365.0</ele><time>2026-04-11T15:56:39Z</time></trkpt><trkpt lat="43.28141720785648" lon="12.32597346115604"><ele>365.0</ele><time>2026-04-11T15:56:40Z</time></trkpt><trkpt lat="43.28134892809067" lon="12.325831321372444"><ele>365.0</ele><time>2026-04-11T15:56:41Z</time></trkpt><trkpt lat="43.281281685936094" lon="12.325702131139444"><ele>365.0</ele><time>2026-04-11T15:56:42Z</time></trkpt><trkpt lat="43.2812341348775" lon="12.325581180855693"><ele>365.0</ele><time>2026-04-11T15:56:43Z</time></trkpt><trkpt lat="43.281191954571405" lon="12.3254613431659"><ele>365.0</ele><time>2026-04-11T15:56:44Z</time></trkpt><trkpt lat="43.28117396855616" lon="12.325320140821326"><ele>364.75</ele><time>2026-04-11T15:56:45Z</time></trkpt><trkpt lat="43.28115660212719" lon="12.325147765466262"><ele>364.5</ele><time>2026-04-11T15:56:46Z</time></trkpt><trkpt lat="43.28114284022967" lon="12.324973785512531"><ele>364.25</ele><time>2026-04-11T15:56:47Z</time></trkpt><trkpt lat="43.28112707483905" lon="12.324824327555495"><ele>364.0</ele><time>2026-04-11T15:56:48Z</time></trkpt><trkpt lat="43.28109786622481" lon="12.324679664107817"><ele>366.25</ele><time>2026-04-11T15:56:49Z</time></trkpt><trkpt lat="43.281074153634385" lon="12.324526441568537"><ele>368.5</ele><time>2026-04-11T15:56:50Z</time></trkpt><trkpt lat="43.28108838013905" lon="12.32436165797249"><ele>370.75</ele><time>2026-04-11T15:56:51Z</time></trkpt><trkpt lat="43.281083495115546" lon="12.324181725036622"><ele>373.0</ele><time>2026-04-11T15:56:52Z</time></trkpt><trkpt lat="43.28109474317565" lon="12.323997279016467"><ele>372.0</ele><time>2026-04-11T15:56:53Z</time></trkpt><trkpt lat="43.281101314243415" lon="12.323834456428546"><ele>371.0</ele><time>2026-04-11T15:56:54Z</time></trkpt><trkpt lat="43.28110280235435" lon="12.323685952111038"><ele>370.0</ele><time>2026-04-11T15:56:55Z</time></trkpt><trkpt lat="43.281106700377606" lon="12.323534814011424"><ele>369.0</ele><time>2026-04-11T15:56:56Z</time></trkpt><trkpt lat="43.28113340225997" lon="12.323381516378905"><ele>369.0</ele><time>2026-04-11T15:56:57Z</time></trkpt><trkpt lat="43.281146028621116" lon="12.323224487562284"><ele>369.0</ele><time>2026-04-11T15:56:58Z</time></trkpt><trkpt lat="43.28118746795316" lon="12.323077511597209"><ele>369.0</ele><time>2026-04-11T15:56:59Z</time></trkpt><trkpt lat="43.28121420211128" lon="12.322944554493366"><ele>369.0</ele><time>2026-04-11T15:57:00Z</time></trkpt><trkpt lat="43.28122499082559" lon="12.32282775705192"><ele>369.0</ele><time>2026-04-11T15:57:01Z</time></trkpt><trkpt lat="43.2812336817325" lon="12.32272245641461"><ele>369.6666666666667</ele><time>2026-04-11T15:57:02Z</time></trkpt><trkpt lat="43.28124308685241" lon="12.322617223688825"><ele>370.3333333333333</ele><time>2026-04-11T15:57:03Z</time></trkpt><trkpt lat="43.28127118923867" lon="12.322537010954095"><ele>371.0</ele><time>2026-04-11T15:57:04Z</time></trkpt><trkpt lat="43.28134342076974" lon="12.322471345736606"><ele>371.66666666666663</ele><time>2026-04-11T15:57:05Z</time></trkpt><trkpt lat="43.28139058808905" lon="12.32237198343959"><ele>372.3333333333333</ele><time>2026-04-11T15:57:06Z</time></trkpt><trkpt lat="43.28142180732497" lon="12.322269791769342"><ele>373.0</ele><time>2026-04-11T15:57:07Z</time></trkpt><trkpt lat="43.28146895257861" lon="12.322179506596404"><ele>373.0</ele><time>2026-04-11T15:57:08Z</time></trkpt><trkpt lat="43.28150944793253" lon="12.322092316618617"><ele>373.0</ele><time>2026-04-11T15:57:09Z</time></trkpt><trkpt lat="43.28154406417213" lon="12.322006065569104"><ele>373.0</ele><time>2026-04-11T15:57:10Z</time></trkpt><trkpt lat="43.281595384870705" lon="12.32184588570765"><ele>373.0</ele><time>2026-04-11T15:57:12Z</time></trkpt><trkpt lat="43.281600024015574" lon="12.32174201117948"><ele>373.0</ele><time>2026-04-11T15:57:13Z</time></trkpt><trkpt lat="43.28158562699468" lon="12.32162637957639"><ele>373.0</ele><time>2026-04-11T15:57:14Z</time></trkpt><trkpt lat="43.28156096577891" lon="12.321495050783525"><ele>373.3333333333333</ele><time>2026-04-11T15:57:15Z</time></trkpt><trkpt lat="43.28153572481502" lon="12.321392596476779"><ele>373.66666666666663</ele><time>2026-04-11T15:57:16Z</time></trkpt><trkpt lat="43.28151299788074" lon="12.321294678870675"><ele>374.0</ele><time>2026-04-11T15:57:17Z</time></trkpt><trkpt lat="43.281486086140525" lon="12.321133698283615"><ele>374.3333333333333</ele><time>2026-04-11T15:57:19Z</time></trkpt><trkpt lat="43.28149492376866" lon="12.321045410267548"><ele>374.6666666666667</ele><time>2026-04-11T15:57:20Z</time></trkpt><trkpt lat="43.281539243622156" lon="12.320935638833074"><ele>375.0</ele><time>2026-04-11T15:57:21Z</time></trkpt><trkpt lat="43.28155876664267" lon="12.320786578515442"><ele>375.0</ele><time>2026-04-11T15:57:22Z</time></trkpt><trkpt lat="43.28159969763468" lon="12.320651376273462"><ele>375.0</ele><time>2026-04-11T15:57:23Z</time></trkpt><trkpt lat="43.28163775809865" lon="12.32051606991583"><ele>375.0</ele><time>2026-04-11T15:57:24Z</time></trkpt><trkpt lat="43.281665636271605" lon="12.320379364622324"><ele>375.0</ele><time>2026-04-11T15:57:25.001Z</time></trkpt><trkpt lat="43.281685094560956" lon="12.320255499459643"><ele>375.0</ele><time>2026-04-11T15:57:26.001Z</time></trkpt><trkpt lat="43.28170476665455" lon="12.320155955608538"><ele>375.8571428571429</ele><time>2026-04-11T15:57:27.001Z</time></trkpt><trkpt lat="43.281733716462654" lon="12.320070627753047"><ele>376.71428571428567</ele><time>2026-04-11T15:57:28.001Z</time></trkpt><trkpt lat="43.28175550903425" lon="12.319981436425595"><ele>377.57142857142856</ele><time>2026-04-11T15:57:29.001Z</time></trkpt><trkpt lat="43.28182145038248" lon="12.319940394823318"><ele>378.42857142857144</ele><time>2026-04-11T15:57:30.001Z</time></trkpt><trkpt lat="43.28187969952313" lon="12.319858822535705"><ele>379.28571428571433</ele><time>2026-04-11T15:57:31.001Z</time></trkpt><trkpt lat="43.28194678448371" lon="12.31981000393426"><ele>380.1428571428571</ele><time>2026-04-11T15:57:32.001Z</time></trkpt><trkpt lat="43.282003532679305" lon="12.319755070121428"><ele>381.0</ele><time>2026-04-11T15:57:33.001Z</time></trkpt><trkpt lat="43.28205105953695" lon="12.319697620656497"><ele>383.20000000000005</ele><time>2026-04-11T15:57:34.001Z</time></trkpt><trkpt lat="43.28214280497126" lon="12.319597157009918"><ele>385.40000000000003</ele><time>2026-04-11T15:57:36.001Z</time></trkpt><trkpt lat="43.28219844377041" lon="12.319462661656193"><ele>387.6</ele><time>2026-04-11T15:57:38.001Z</time></trkpt><trkpt lat="43.2821673743292" lon="12.31930791163429"><ele>389.8</ele><time>2026-04-11T15:57:40.001Z</time></trkpt><trkpt lat="43.2821486401342" lon="12.319197875317565"><ele>392.0</ele><time>2026-04-11T15:57:41.001Z</time></trkpt><trkpt lat="43.28211813069116" lon="12.319079021635702"><ele>392.0</ele><time>2026-04-11T15:57:42.001Z</time></trkpt><trkpt lat="43.28210497512339" lon="12.318963902865423"><ele>392.0</ele><time>2026-04-11T15:57:44.001Z</time></trkpt><trkpt lat="43.28217354271432" lon="12.31892568728422"><ele>392.0</ele><time>2026-04-11T15:57:48Z</time></trkpt><trkpt lat="43.28228003092093" lon="12.318942604171232"><ele>392.0</ele><time>2026-04-11T15:57:50Z</time></trkpt><trkpt lat="43.28238793668011" lon="12.318941134530563"><ele>392.0</ele><time>2026-04-11T15:57:52Z</time></trkpt><trkpt lat="43.28249111070222" lon="12.31893954951127"><ele>397.20000000000005</ele><time>2026-04-11T15:57:54Z</time></trkpt><trkpt lat="43.28258595670832" lon="12.318883386967313"><ele>402.4</ele><time>2026-04-11T15:57:56Z</time></trkpt><trkpt lat="43.28269908188233" lon="12.31882478658013"><ele>407.6</ele><time>2026-04-11T15:57:58Z</time></trkpt><trkpt lat="43.28276108987943" lon="12.318783768008737"><ele>412.79999999999995</ele><time>2026-04-11T15:57:59Z</time></trkpt><trkpt lat="43.28283687386214" lon="12.318733636558758"><ele>418.0</ele><time>2026-04-11T15:58:00Z</time></trkpt><trkpt lat="43.282911876395865" lon="12.318684022056265"><ele>418.00000000000006</ele><time>2026-04-11T15:58:01Z</time></trkpt><trkpt lat="43.282987080729036" lon="12.31863647091532"><ele>418.0</ele><time>2026-04-11T15:58:02Z</time></trkpt><trkpt lat="43.28306040199489" lon="12.318591899462916"><ele>418.0</ele><time>2026-04-11T15:58:03Z</time></trkpt><trkpt lat="43.28313678483933" lon="12.318546834894068"><ele>418.0</ele><time>2026-04-11T15:58:04Z</time></trkpt><trkpt lat="43.2832165515434" lon="12.318499862658843"><ele>418.00000000000006</ele><time>2026-04-11T15:58:05Z</time></trkpt><trkpt lat="43.283288107175345" lon="12.318457725666049"><ele>418.0</ele><time>2026-04-11T15:58:06Z</time></trkpt><trkpt lat="43.28335470814415" lon="12.31841850633834"><ele>418.00000000000006</ele><time>2026-04-11T15:58:07Z</time></trkpt><trkpt lat="43.283413710854" lon="12.318364711042076"><ele>418.0</ele><time>2026-04-11T15:58:08Z</time></trkpt><trkpt lat="43.283476976020665" lon="12.318326931152065"><ele>418.0</ele><time>2026-04-11T15:58:09Z</time></trkpt><trkpt lat="43.28356919079912" lon="12.318260401626446"><ele>418.0</ele><time>2026-04-11T15:58:11Z</time></trkpt><trkpt lat="43.28364376674222" lon="12.318230439848472"><ele>418.00000000000006</ele><time>2026-04-11T15:58:13Z</time></trkpt><trkpt lat="43.283560424990675" lon="12.318108724799515"><ele>418.0</ele><time>2026-04-11T15:58:31Z</time></trkpt><trkpt lat="43.28345758877866" lon="12.318056753065552"><ele>417.2</ele><time>2026-04-11T15:58:32Z</time></trkpt><trkpt lat="43.28335583591095" lon="12.318011902684047"><ele>416.4</ele><time>2026-04-11T15:58:33Z</time></trkpt><trkpt lat="43.28326710544778" lon="12.317933804997253"><ele>415.59999999999997</ele><time>2026-04-11T15:58:34Z</time></trkpt><trkpt lat="43.283180145004415" lon="12.317874775765524"><ele>414.79999999999995</ele><time>2026-04-11T15:58:35Z</time></trkpt><trkpt lat="43.28307940933739" lon="12.3178484839773"><ele>414.0</ele><time>2026-04-11T15:58:36Z</time></trkpt><trkpt lat="43.28298594886126" lon="12.317774069302095"><ele>416.0</ele><time>2026-04-11T15:58:37Z</time></trkpt><trkpt lat="43.282884954633964" lon="12.317701127641806"><ele>418.0</ele><time>2026-04-11T15:58:38Z</time></trkpt><trkpt lat="43.28277593579094" lon="12.317619418607517"><ele>420.0</ele><time>2026-04-11T15:58:39Z</time></trkpt><trkpt lat="43.2826733449331" lon="12.317485761037707"><ele>422.0</ele><time>2026-04-11T15:58:40Z</time></trkpt><trkpt lat="43.28255529562717" lon="12.317410394711944"><ele>422.0</ele><time>2026-04-11T15:58:41Z</time></trkpt><trkpt lat="43.282455821262374" lon="12.317328642038763"><ele>422.0</ele><time>2026-04-11T15:58:42Z</time></trkpt><trkpt lat="43.282370277719" lon="12.317238754871358"><ele>422.0</ele><time>2026-04-11T15:58:43Z</time></trkpt><trkpt lat="43.28227518050808" lon="12.317176618361943"><ele>422.0</ele><time>2026-04-11T15:58:44Z</time></trkpt><trkpt lat="43.28219125769366" lon="12.317126942894106"><ele>422.0</ele><time>2026-04-11T15:58:45Z</time></trkpt><trkpt lat="43.28209928144645" lon="12.317078939009068"><ele>421.5</ele><time>2026-04-11T15:58:46Z</time></trkpt><trkpt lat="43.281997314426675" lon="12.31703021291525"><ele>421.0</ele><time>2026-04-11T15:58:47Z</time></trkpt><trkpt lat="43.28188797948032" lon="12.316985620904799"><ele>420.5</ele><time>2026-04-11T15:58:48Z</time></trkpt><trkpt lat="43.28177615897336" lon="12.316946310166198"><ele>420.0</ele><time>2026-04-11T15:58:49Z</time></trkpt><trkpt lat="43.28165306537679" lon="12.31691131209713"><ele>420.0</ele><time>2026-04-11T15:58:50Z</time></trkpt><trkpt lat="43.28149903710996" lon="12.316897843871288"><ele>420.0</ele><time>2026-04-11T15:58:51Z</time></trkpt><trkpt lat="43.28133860131823" lon="12.316896350441183"><ele>420.0</ele><time>2026-04-11T15:58:52Z</time></trkpt><trkpt lat="43.28118356056358" lon="12.316870731250253"><ele>420.25</ele><time>2026-04-11T15:58:53Z</time></trkpt><trkpt lat="43.281039069693286" lon="12.316832863691424"><ele>420.5</ele><time>2026-04-11T15:58:54Z</time></trkpt><trkpt lat="43.280902970210505" lon="12.316771513950311"><ele>420.75</ele><time>2026-04-11T15:58:55Z</time></trkpt><trkpt lat="43.28077959936317" lon="12.31670150724306"><ele>421.0</ele><time>2026-04-11T15:58:56Z</time></trkpt><trkpt lat="43.28066077044765" lon="12.316636945979942"><ele>422.75</ele><time>2026-04-11T15:58:57Z</time></trkpt><trkpt lat="43.28054596960676" lon="12.316585379316388"><ele>424.5</ele><time>2026-04-11T15:58:58Z</time></trkpt><trkpt lat="43.28042729604566" lon="12.316535385874495"><ele>426.25</ele><time>2026-04-11T15:58:59Z</time></trkpt><trkpt lat="43.280290019750844" lon="12.316506027373789"><ele>428.0</ele><time>2026-04-11T15:59:00Z</time></trkpt><trkpt lat="43.280137935123626" lon="12.316497056069531"><ele>428.0</ele><time>2026-04-11T15:59:01Z</time></trkpt><trkpt lat="43.27998621246265" lon="12.316484103004916"><ele>428.0</ele><time>2026-04-11T15:59:02Z</time></trkpt><trkpt lat="43.27983933193952" lon="12.31649226168266"><ele>428.0</ele><time>2026-04-11T15:59:03Z</time></trkpt><trkpt lat="43.279696604572834" lon="12.316505488647161"><ele>428.0</ele><time>2026-04-11T15:59:04Z</time></trkpt><trkpt lat="43.27955814135534" lon="12.316520928201466"><ele>428.0</ele><time>2026-04-11T15:59:05Z</time></trkpt><trkpt lat="43.27943388631943" lon="12.316525812952907"><ele>428.0</ele><time>2026-04-11T15:59:06Z</time></trkpt><trkpt lat="43.279316207506376" lon="12.316513079623828"><ele>428.0</ele><time>2026-04-11T15:59:07Z</time></trkpt><trkpt lat="43.279199277369315" lon="12.316486580919745"><ele>428.0</ele><time>2026-04-11T15:59:08Z</time></trkpt><trkpt lat="43.27907994474913" lon="12.316439500771006"><ele>427.25</ele><time>2026-04-11T15:59:09Z</time></trkpt><trkpt lat="43.278956585838394" lon="12.31637102007836"><ele>426.5</ele><time>2026-04-11T15:59:10Z</time></trkpt><trkpt lat="43.27883015177742" lon="12.316280578078654"><ele>425.75</ele><time>2026-04-11T15:59:11Z</time></trkpt><trkpt lat="43.278704002212145" lon="12.316174941771393"><ele>425.0</ele><time>2026-04-11T15:59:12Z</time></trkpt><trkpt lat="43.278564805758016" lon="12.316047921586044"><ele>428.0</ele><time>2026-04-11T15:59:13Z</time></trkpt><trkpt lat="43.27843124429274" lon="12.315923922582737"><ele>431.0</ele><time>2026-04-11T15:59:14Z</time></trkpt><trkpt lat="43.2783185969379" lon="12.31582043677582"><ele>434.0</ele><time>2026-04-11T15:59:15Z</time></trkpt><trkpt lat="43.27821957374258" lon="12.315729467340761"><ele>437.0</ele><time>2026-04-11T15:59:16Z</time></trkpt><trkpt lat="43.27813609721318" lon="12.315652779700736"><ele>437.0</ele><time>2026-04-11T15:59:17Z</time></trkpt><trkpt lat="43.27805801537483" lon="12.315583374908332"><ele>437.00000000000006</ele><time>2026-04-11T15:59:18Z</time></trkpt><trkpt lat="43.27797343323807" lon="12.315509560471734"><ele>437.00000000000006</ele><time>2026-04-11T15:59:19Z</time></trkpt><trkpt lat="43.27789206725111" lon="12.315440098979408"><ele>437.0</ele><time>2026-04-11T15:59:20Z</time></trkpt><trkpt lat="43.277798819510195" lon="12.315362153008454"><ele>437.0</ele><time>2026-04-11T15:59:21Z</time></trkpt><trkpt lat="43.27769276173996" lon="12.315276168812858"><ele>438.25</ele><time>2026-04-11T15:59:22Z</time></trkpt><trkpt lat="43.27757953388048" lon="12.31518925796032"><ele>439.5</ele><time>2026-04-11T15:59:23Z</time></trkpt><trkpt lat="43.277457162733384" lon="12.31511218273347"><ele>440.75</ele><time>2026-04-11T15:59:24Z</time></trkpt><trkpt lat="43.277351944858594" lon="12.315000698342164"><ele>442.0</ele><time>2026-04-11T15:59:25Z</time></trkpt><trkpt lat="43.27725965030617" lon="12.314881811629638"><ele>442.0</ele><time>2026-04-11T15:59:26Z</time></trkpt><trkpt lat="43.27717082271248" lon="12.314768753671848"><ele>442.0</ele><time>2026-04-11T15:59:27Z</time></trkpt><trkpt lat="43.27707853023995" lon="12.314669345045617"><ele>442.0</ele><time>2026-04-11T15:59:28Z</time></trkpt><trkpt lat="43.27696899320434" lon="12.314596666868663"><ele>442.0</ele><time>2026-04-11T15:59:29Z</time></trkpt><trkpt lat="43.27684159691006" lon="12.314552543727427"><ele>445.5</ele><time>2026-04-11T15:59:30Z</time></trkpt><trkpt lat="43.27669882039121" lon="12.314520177985568"><ele>449.0</ele><time>2026-04-11T15:59:31Z</time></trkpt><trkpt lat="43.276550748449196" lon="12.314483627159143"><ele>452.5</ele><time>2026-04-11T15:59:32Z</time></trkpt><trkpt lat="43.27640148979507" lon="12.314442197621773"><ele>456.0</ele><time>2026-04-11T15:59:33Z</time></trkpt><trkpt lat="43.27626200249778" lon="12.31440685088605"><ele>458.5</ele><time>2026-04-11T15:59:34Z</time></trkpt><trkpt lat="43.27613257801015" lon="12.314370571471507"><ele>461.0</ele><time>2026-04-11T15:59:35Z</time></trkpt><trkpt lat="43.276012133427855" lon="12.314334484997904"><ele>463.5</ele><time>2026-04-11T15:59:36Z</time></trkpt><trkpt lat="43.275886590423816" lon="12.31429987237354"><ele>466.0</ele><time>2026-04-11T15:59:37Z</time></trkpt><trkpt lat="43.275760607430215" lon="12.314260191006664"><ele>466.0</ele><time>2026-04-11T15:59:38Z</time></trkpt><trkpt lat="43.2756352795475" lon="12.314212262850853"><ele>466.0</ele><time>2026-04-11T15:59:39Z</time></trkpt><trkpt lat="43.275511716311925" lon="12.314163991823197"><ele>466.0</ele><time>2026-04-11T15:59:40Z</time></trkpt><trkpt lat="43.27539020383868" lon="12.31411848952953"><ele>466.0</ele><time>2026-04-11T15:59:41Z</time></trkpt><trkpt lat="43.27526878900328" lon="12.314074184242733"><ele>467.75</ele><time>2026-04-11T15:59:42Z</time></trkpt><trkpt lat="43.275148244921716" lon="12.314026956965769"><ele>469.5</ele><time>2026-04-11T15:59:43Z</time></trkpt><trkpt lat="43.27502909492952" lon="12.313971830001549"><ele>471.25</ele><time>2026-04-11T15:59:44.001Z</time></trkpt><trkpt lat="43.274910804002005" lon="12.313899080556988"><ele>473.0</ele><time>2026-04-11T15:59:45.001Z</time></trkpt><trkpt lat="43.27478177211592" lon="12.313821948911936"><ele>476.5</ele><time>2026-04-11T15:59:46.001Z</time></trkpt><trkpt lat="43.27465171879105" lon="12.313747995335719"><ele>480.0</ele><time>2026-04-11T15:59:47.001Z</time></trkpt><trkpt lat="43.27453252894106" lon="12.313658683687027"><ele>483.5</ele><time>2026-04-11T15:59:48.001Z</time></trkpt><trkpt lat="43.274418156435125" lon="12.313583362659019"><ele>487.0</ele><time>2026-04-11T15:59:49.001Z</time></trkpt><trkpt lat="43.27431176514078" lon="12.31351091605705"><ele>487.0</ele><time>2026-04-11T15:59:50.001Z</time></trkpt><trkpt lat="43.27420792588722" lon="12.313433885454648"><ele>487.0</ele><time>2026-04-11T15:59:51.001Z</time></trkpt><trkpt lat="43.27410573434112" lon="12.313346452383021"><ele>487.0</ele><time>2026-04-11T15:59:52.001Z</time></trkpt><trkpt lat="43.27400453976445" lon="12.313252047495737"><ele>487.0</ele><time>2026-04-11T15:59:53Z</time></trkpt><trkpt lat="43.27391119715621" lon="12.313121040015297"><ele>489.25</ele><time>2026-04-11T15:59:54Z</time></trkpt><trkpt lat="43.27381343546474" lon="12.313000811106784"><ele>491.5</ele><time>2026-04-11T15:59:55Z</time></trkpt><trkpt lat="43.27371288706743" lon="12.312881758554003"><ele>493.75</ele><time>2026-04-11T15:59:56Z</time></trkpt><trkpt lat="43.27358764795176" lon="12.31279016528932"><ele>496.0</ele><time>2026-04-11T15:59:57Z</time></trkpt><trkpt lat="43.27345253179125" lon="12.312703055394664"><ele>496.0</ele><time>2026-04-11T15:59:58Z</time></trkpt><trkpt lat="43.273318740911826" lon="12.312607389306823"><ele>496.0</ele><time>2026-04-11T15:59:59Z</time></trkpt><trkpt lat="43.273190564394206" lon="12.312512487777672"><ele>496.0</ele><time>2026-04-11T16:00:00Z</time></trkpt><trkpt lat="43.27306442193241" lon="12.312417388948493"><ele>496.0</ele><time>2026-04-11T16:00:01Z</time></trkpt><trkpt lat="43.272945466593484" lon="12.312326918875526"><ele>497.25</ele><time>2026-04-11T16:00:02Z</time></trkpt><trkpt lat="43.27282997963991" lon="12.312238686976599"><ele>498.5</ele><time>2026-04-11T16:00:03Z</time></trkpt><trkpt lat="43.27272711072711" lon="12.31214838997359"><ele>499.75</ele><time>2026-04-11T16:00:04Z</time></trkpt><trkpt lat="43.27263755536106" lon="12.312049005681368"><ele>501.0</ele><time>2026-04-11T16:00:05Z</time></trkpt><trkpt lat="43.27256384616587" lon="12.311946348735034"><ele>501.0</ele><time>2026-04-11T16:00:06Z</time></trkpt><trkpt lat="43.272524827957575" lon="12.311838163138395"><ele>501.0</ele><time>2026-04-11T16:00:07Z</time></trkpt><trkpt lat="43.272509617696215" lon="12.311734170609826"><ele>501.0</ele><time>2026-04-11T16:00:08Z</time></trkpt><trkpt lat="43.27256371327494" lon="12.311648819541427"><ele>501.0</ele><time>2026-04-11T16:00:09Z</time></trkpt><trkpt lat="43.27266262758195" lon="12.311627064398735"><ele>501.0</ele><time>2026-04-11T16:00:10Z</time></trkpt><trkpt lat="43.27277238692136" lon="12.311573197127581"><ele>501.0</ele><time>2026-04-11T16:00:11Z</time></trkpt><trkpt lat="43.27285480263109" lon="12.311517386467672"><ele>501.0</ele><time>2026-04-11T16:00:12Z</time></trkpt><trkpt lat="43.27292298048382" lon="12.311509077240574"><ele>501.0</ele><time>2026-04-11T16:00:13Z</time></trkpt><trkpt lat="43.27301441219485" lon="12.311470473896495"><ele>501.0</ele><time>2026-04-11T16:00:15Z</time></trkpt><trkpt lat="43.273099542820766" lon="12.311422072769384"><ele>501.0</ele><time>2026-04-11T16:00:18Z</time></trkpt><trkpt lat="43.27317793565524" lon="12.31139452631065"><ele>501.0</ele><time>2026-04-11T16:00:20Z</time></trkpt><trkpt lat="43.273107678876244" lon="12.311274959609557"><ele>504.5</ele><time>2026-04-11T16:00:25Z</time></trkpt><trkpt lat="43.27301725530427" lon="12.311255736379223"><ele>508.0</ele><time>2026-04-11T16:00:26Z</time></trkpt><trkpt lat="43.27294327653329" lon="12.311246051761954"><ele>511.5</ele><time>2026-04-11T16:00:27Z</time></trkpt><trkpt lat="43.2728621508859" lon="12.311202984631832"><ele>515.0</ele><time>2026-04-11T16:00:28Z</time></trkpt><trkpt lat="43.2727800308919" lon="12.31117188659263"><ele>518.5</ele><time>2026-04-11T16:00:29Z</time></trkpt><trkpt lat="43.27269148983016" lon="12.31116510933492"><ele>522.0</ele><time>2026-04-11T16:00:30Z</time></trkpt><trkpt lat="43.27259818486365" lon="12.31118627051686"><ele>522.0</ele><time>2026-04-11T16:00:31Z</time></trkpt><trkpt lat="43.27249455362382" lon="12.31120583617635"><ele>522.0</ele><time>2026-04-11T16:00:32Z</time></trkpt><trkpt lat="43.27239843418409" lon="12.311277637763153"><ele>522.0</ele><time>2026-04-11T16:00:33Z</time></trkpt><trkpt lat="43.272307185550595" lon="12.31131841573409"><ele>522.0</ele><time>2026-04-11T16:00:34Z</time></trkpt><trkpt lat="43.27222595358226" lon="12.311376729513421"><ele>522.0</ele><time>2026-04-11T16:00:35Z</time></trkpt><trkpt lat="43.272139137977355" lon="12.311465040891997"><ele>525.2</ele><time>2026-04-11T16:00:36Z</time></trkpt><trkpt lat="43.27205181757918" lon="12.311566527798702"><ele>528.4000000000001</ele><time>2026-04-11T16:00:37Z</time></trkpt><trkpt lat="43.27196872954512" lon="12.311673169909795"><ele>531.5999999999999</ele><time>2026-04-11T16:00:38Z</time></trkpt><trkpt lat="43.27188787323071" lon="12.311779738831133"><ele>534.8</ele><time>2026-04-11T16:00:39Z</time></trkpt><trkpt lat="43.27181856250565" lon="12.311880601143589"><ele>538.0</ele><time>2026-04-11T16:00:40Z</time></trkpt><trkpt lat="43.27175662991135" lon="12.311978410821377"><ele>538.0</ele><time>2026-04-11T16:00:41Z</time></trkpt><trkpt lat="43.27168840843818" lon="12.312059191592645"><ele>538.0</ele><time>2026-04-11T16:00:42Z</time></trkpt><trkpt lat="43.271617986828154" lon="12.312145102841562"><ele>538.0</ele><time>2026-04-11T16:00:43Z</time></trkpt><trkpt lat="43.271540510937726" lon="12.312231243688373"><ele>538.0</ele><time>2026-04-11T16:00:44Z</time></trkpt><trkpt lat="43.271464904185635" lon="12.312309966049469"><ele>538.0</ele><time>2026-04-11T16:00:45Z</time></trkpt><trkpt lat="43.27138047969434" lon="12.312379883735758"><ele>537.4</ele><time>2026-04-11T16:00:46Z</time></trkpt><trkpt lat="43.27129098020073" lon="12.312446236487256"><ele>536.8</ele><time>2026-04-11T16:00:47Z</time></trkpt><trkpt lat="43.27119605819357" lon="12.312515271410245"><ele>536.2</ele><time>2026-04-11T16:00:48Z</time></trkpt><trkpt lat="43.27109737077638" lon="12.312566676254159"><ele>535.6</ele><time>2026-04-11T16:00:49Z</time></trkpt><trkpt lat="43.271000642451014" lon="12.31263947510735"><ele>535.0</ele><time>2026-04-11T16:00:50Z</time></trkpt><trkpt lat="43.27091759983051" lon="12.31270164433442"><ele>535.0</ele><time>2026-04-11T16:00:51Z</time></trkpt><trkpt lat="43.27085045641391" lon="12.312761871099891"><ele>535.0</ele><time>2026-04-11T16:00:52Z</time></trkpt><trkpt lat="43.27078669608908" lon="12.312813284352774"><ele>535.0</ele><time>2026-04-11T16:00:53Z</time></trkpt><trkpt lat="43.270730352823776" lon="12.312879200369606"><ele>535.0</ele><time>2026-04-11T16:00:54Z</time></trkpt><trkpt lat="43.27067962882265" lon="12.31296141746433"><ele>535.0</ele><time>2026-04-11T16:00:55Z</time></trkpt><trkpt lat="43.27056824943243" lon="12.313043649356596"><ele>535.0</ele><time>2026-04-11T16:00:57Z</time></trkpt><trkpt lat="43.27051442036071" lon="12.313118527409175"><ele>535.8</ele><time>2026-04-11T16:00:58Z</time></trkpt><trkpt lat="43.27053535132497" lon="12.313287277935801"><ele>536.6</ele><time>2026-04-11T16:00:59Z</time></trkpt><trkpt lat="43.270485936668514" lon="12.31338694459594"><ele>537.4</ele><time>2026-04-11T16:01:00Z</time></trkpt><trkpt lat="43.27042255872829" lon="12.313489335393243"><ele>538.2</ele><time>2026-04-11T16:01:01Z</time></trkpt><trkpt lat="43.270356328136145" lon="12.313581070551445"><ele>539.0</ele><time>2026-04-11T16:01:02Z</time></trkpt><trkpt lat="43.27028143462272" lon="12.313653500630068"><ele>539.0</ele><time>2026-04-11T16:01:03Z</time></trkpt><trkpt lat="43.27020088891041" lon="12.313708332410444"><ele>539.0</ele><time>2026-04-11T16:01:04Z</time></trkpt><trkpt lat="43.270113336031066" lon="12.313747125331014"><ele>539.0</ele><time>2026-04-11T16:01:05Z</time></trkpt><trkpt lat="43.270029591645596" lon="12.313793173094153"><ele>539.0</ele><time>2026-04-11T16:01:06Z</time></trkpt><trkpt lat="43.26995405275678" lon="12.313838075998351"><ele>539.0</ele><time>2026-04-11T16:01:07Z</time></trkpt><trkpt lat="43.26986435472431" lon="12.313881607565573"><ele>539.0</ele><time>2026-04-11T16:01:08Z</time></trkpt><trkpt lat="43.269779251627874" lon="12.313931825367087"><ele>539.0</ele><time>2026-04-11T16:01:09Z</time></trkpt><trkpt lat="43.269698383569065" lon="12.313995396782447"><ele>539.0</ele><time>2026-04-11T16:01:10Z</time></trkpt><trkpt lat="43.26962237148611" lon="12.314062781404093"><ele>539.0</ele><time>2026-04-11T16:01:11Z</time></trkpt><trkpt lat="43.269538197731016" lon="12.31411696764457"><ele>539.0</ele><time>2026-04-11T16:01:12Z</time></trkpt><trkpt lat="43.2694564527583" lon="12.31417274949933"><ele>539.0</ele><time>2026-04-11T16:01:13Z</time></trkpt><trkpt lat="43.26937644406975" lon="12.314207694793879"><ele>539.0</ele><time>2026-04-11T16:01:14Z</time></trkpt><trkpt lat="43.269289891997644" lon="12.314198476138081"><ele>539.0</ele><time>2026-04-11T16:01:15Z</time></trkpt><trkpt lat="43.26920446171517" lon="12.314192925465157"><ele>539.0</ele><time>2026-04-11T16:01:16Z</time></trkpt><trkpt lat="43.26912044638731" lon="12.314197900226318"><ele>539.0</ele><time>2026-04-11T16:01:17Z</time></trkpt><trkpt lat="43.26904077193122" lon="12.314188650429651"><ele>539.0</ele><time>2026-04-11T16:01:18Z</time></trkpt><trkpt lat="43.26892969464143" lon="12.314197164278083"><ele>541.8333333333333</ele><time>2026-04-11T16:01:20Z</time></trkpt><trkpt lat="43.26883710212846" lon="12.314189519329114"><ele>544.6666666666666</ele><time>2026-04-11T16:01:22Z</time></trkpt><trkpt lat="43.268767799240734" lon="12.31418902074615"><ele>547.5</ele><time>2026-04-11T16:01:23Z</time></trkpt><trkpt lat="43.26869461195769" lon="12.314197319294557"><ele>550.3333333333334</ele><time>2026-04-11T16:01:24Z</time></trkpt><trkpt lat="43.26859897543133" lon="12.314184612233747"><ele>553.1666666666667</ele><time>2026-04-11T16:01:25Z</time></trkpt><trkpt lat="43.268512332749275" lon="12.314192477530321"><ele>556.0</ele><time>2026-04-11T16:01:26Z</time></trkpt><trkpt lat="43.26843876607837" lon="12.314201860776647"><ele>556.0</ele><time>2026-04-11T16:01:27Z</time></trkpt><trkpt lat="43.268360588230614" lon="12.314208136173713"><ele>556.0</ele><time>2026-04-11T16:01:28Z</time></trkpt><trkpt lat="43.268247377089025" lon="12.314266308200324"><ele>556.0</ele><time>2026-04-11T16:01:30Z</time></trkpt><trkpt lat="43.26818658129598" lon="12.314347744699221"><ele>556.0</ele><time>2026-04-11T16:01:31Z</time></trkpt><trkpt lat="43.26812863890559" lon="12.31443449380502"><ele>556.0</ele><time>2026-04-11T16:01:32Z</time></trkpt><trkpt lat="43.26806499201537" lon="12.314530669177158"><ele>555.0</ele><time>2026-04-11T16:01:33Z</time></trkpt><trkpt lat="43.268005627644435" lon="12.314616453087499"><ele>554.0</ele><time>2026-04-11T16:01:34Z</time></trkpt><trkpt lat="43.267964373251736" lon="12.314690567116141"><ele>553.0</ele><time>2026-04-11T16:01:35Z</time></trkpt><trkpt lat="43.26785154961581" lon="12.314789721409298"><ele>552.0</ele><time>2026-04-11T16:01:37Z</time></trkpt><trkpt lat="43.26778307340517" lon="12.314813545757985"><ele>551.0</ele><time>2026-04-11T16:01:38Z</time></trkpt><trkpt lat="43.26769959650766" lon="12.314829350412925"><ele>550.0</ele><time>2026-04-11T16:01:39Z</time></trkpt><trkpt lat="43.26761475833467" lon="12.31483616885081"><ele>550.0</ele><time>2026-04-11T16:01:40Z</time></trkpt><trkpt lat="43.2675133284923" lon="12.314825816653071"><ele>550.0</ele><time>2026-04-11T16:01:41Z</time></trkpt><trkpt lat="43.2674014251926" lon="12.3148204702448"><ele>550.0</ele><time>2026-04-11T16:01:42Z</time></trkpt><trkpt lat="43.26731623366166" lon="12.31480063400597"><ele>550.0</ele><time>2026-04-11T16:01:43Z</time></trkpt><trkpt lat="43.26724101076087" lon="12.314817348639062"><ele>550.0</ele><time>2026-04-11T16:01:44Z</time></trkpt><trkpt lat="43.26716514857219" lon="12.314822611361457"><ele>549.3333333333334</ele><time>2026-04-11T16:01:45Z</time></trkpt><trkpt lat="43.26709726036798" lon="12.314811604392217"><ele>548.6666666666667</ele><time>2026-04-11T16:01:46Z</time></trkpt><trkpt lat="43.26702204621276" lon="12.31480934146173"><ele>548.0</ele><time>2026-04-11T16:01:47Z</time></trkpt><trkpt lat="43.26693556823149" lon="12.314817034966353"><ele>547.3333333333334</ele><time>2026-04-11T16:01:48Z</time></trkpt><trkpt lat="43.26684650818947" lon="12.314819944258923"><ele>546.6666666666666</ele><time>2026-04-11T16:01:49Z</time></trkpt><trkpt lat="43.266756850143395" lon="12.314823405414096"><ele>546.0</ele><time>2026-04-11T16:01:50Z</time></trkpt><trkpt lat="43.266673536957626" lon="12.314829033892181"><ele>546.0</ele><time>2026-04-11T16:01:51Z</time></trkpt><trkpt lat="43.2665802757894" lon="12.314820973540984"><ele>546.0</ele><time>2026-04-11T16:01:52Z</time></trkpt><trkpt lat="43.26649513803318" lon="12.314817304968948"><ele>546.0</ele><time>2026-04-11T16:01:53Z</time></trkpt><trkpt lat="43.26641020817617" lon="12.314824948383908"><ele>546.0</ele><time>2026-04-11T16:01:54Z</time></trkpt><trkpt lat="43.26632551335106" lon="12.314829223688474"><ele>546.0</ele><time>2026-04-11T16:01:55Z</time></trkpt><trkpt lat="43.266244911908636" lon="12.314836470939586"><ele>546.0</ele><time>2026-04-11T16:01:56Z</time></trkpt><trkpt lat="43.26616454171737" lon="12.314853568821254"><ele>546.0</ele><time>2026-04-11T16:01:57.001Z</time></trkpt><trkpt lat="43.266087797956004" lon="12.314860046375848"><ele>546.0</ele><time>2026-04-11T16:01:58.001Z</time></trkpt><trkpt lat="43.26601289130133" lon="12.314867925776907"><ele>546.0</ele><time>2026-04-11T16:01:59Z</time></trkpt><trkpt lat="43.265948419007124" lon="12.3148874361884"><ele>546.0</ele><time>2026-04-11T16:02:00Z</time></trkpt><trkpt lat="43.2658850097726" lon="12.314905083760552"><ele>546.0</ele><time>2026-04-11T16:02:01Z</time></trkpt><trkpt lat="43.2657720195675" lon="12.314947259923283"><ele>546.0</ele><time>2026-04-11T16:02:03Z</time></trkpt><trkpt lat="43.26566733482217" lon="12.314997622654525"><ele>546.8</ele><time>2026-04-11T16:02:05Z</time></trkpt><trkpt lat="43.26555638904001" lon="12.315031214921369"><ele>547.6</ele><time>2026-04-11T16:02:07Z</time></trkpt><trkpt lat="43.26545352860173" lon="12.315049051275981"><ele>548.4</ele><time>2026-04-11T16:02:09Z</time></trkpt><trkpt lat="43.26533192465512" lon="12.31504617110075"><ele>549.2</ele><time>2026-04-11T16:02:11Z</time></trkpt><trkpt lat="43.265271703484295" lon="12.315016741513805"><ele>550.0</ele><time>2026-04-11T16:02:12Z</time></trkpt><trkpt lat="43.265207263780674" lon="12.314997924802537"><ele>550.0</ele><time>2026-04-11T16:02:13Z</time></trkpt><trkpt lat="43.2651355488637" lon="12.314973483854535"><ele>550.0</ele><time>2026-04-11T16:02:14Z</time></trkpt><trkpt lat="43.26505100534251" lon="12.314920145907838"><ele>550.0</ele><time>2026-04-11T16:02:15Z</time></trkpt><trkpt lat="43.26497327510289" lon="12.314941851427886"><ele>550.0</ele><time>2026-04-11T16:02:16Z</time></trkpt><trkpt lat="43.26491290088737" lon="12.314911067660349"><ele>550.0</ele><time>2026-04-11T16:02:17Z</time></trkpt><trkpt lat="43.26480123542459" lon="12.314856684232431"><ele>550.0</ele><time>2026-04-11T16:02:19Z</time></trkpt><trkpt lat="43.2647408194952" lon="12.314821038755426"><ele>548.0</ele><time>2026-04-11T16:02:20Z</time></trkpt><trkpt lat="43.26467006569998" lon="12.31477559326645"><ele>546.0</ele><time>2026-04-11T16:02:21Z</time></trkpt><trkpt lat="43.26458378000923" lon="12.314729298051738"><ele>544.0</ele><time>2026-04-11T16:02:22Z</time></trkpt><trkpt lat="43.26451669543169" lon="12.314653344242688"><ele>542.0</ele><time>2026-04-11T16:02:23Z</time></trkpt><trkpt lat="43.264448152913836" lon="12.31459304605043"><ele>540.0</ele><time>2026-04-11T16:02:24Z</time></trkpt><trkpt lat="43.2643681589541" lon="12.314538842265101"><ele>538.0</ele><time>2026-04-11T16:02:25Z</time></trkpt><trkpt lat="43.26427658535752" lon="12.31448423076033"><ele>542.4</ele><time>2026-04-11T16:02:26Z</time></trkpt><trkpt lat="43.26418246721348" lon="12.314427556371648"><ele>546.8</ele><time>2026-04-11T16:02:27Z</time></trkpt><trkpt lat="43.2640805439215" lon="12.314369086230785"><ele>551.2</ele><time>2026-04-11T16:02:28Z</time></trkpt><trkpt lat="43.263971700091346" lon="12.314309261457765"><ele>555.6</ele><time>2026-04-11T16:02:29Z</time></trkpt><trkpt lat="43.263870514325475" lon="12.314254061760318"><ele>560.0</ele><time>2026-04-11T16:02:30Z</time></trkpt><trkpt lat="43.26377068626452" lon="12.314205728011075"><ele>560.0</ele><time>2026-04-11T16:02:31Z</time></trkpt><trkpt lat="43.263682978489385" lon="12.314171259862864"><ele>560.0</ele><time>2026-04-11T16:02:32Z</time></trkpt><trkpt lat="43.26360121239506" lon="12.31412309588419"><ele>560.0</ele><time>2026-04-11T16:02:33Z</time></trkpt><trkpt lat="43.26350710108628" lon="12.31412145660431"><ele>560.0</ele><time>2026-04-11T16:02:34Z</time></trkpt><trkpt lat="43.26341667438907" lon="12.314099762070935"><ele>560.0</ele><time>2026-04-11T16:02:35Z</time></trkpt><trkpt lat="43.26333419287572" lon="12.314092807855907"><ele>560.0</ele><time>2026-04-11T16:02:36Z</time></trkpt><trkpt lat="43.263254925198886" lon="12.314083648838825"><ele>560.0</ele><time>2026-04-11T16:02:37Z</time></trkpt><trkpt lat="43.26316876484235" lon="12.314085444667914"><ele>560.0</ele><time>2026-04-11T16:02:38Z</time></trkpt><trkpt lat="43.26308583229094" lon="12.31410068980896"><ele>560.0</ele><time>2026-04-11T16:02:39Z</time></trkpt><trkpt lat="43.263004038727196" lon="12.314130163361629"><ele>560.0</ele><time>2026-04-11T16:02:40Z</time></trkpt><trkpt lat="43.26291584056185" lon="12.31417075448989"><ele>560.0</ele><time>2026-04-11T16:02:41Z</time></trkpt><trkpt lat="43.26282934167291" lon="12.31420382370789"><ele>560.0</ele><time>2026-04-11T16:02:42Z</time></trkpt><trkpt lat="43.26274358889599" lon="12.314223845314547"><ele>559.5</ele><time>2026-04-11T16:02:43Z</time></trkpt><trkpt lat="43.26265860073514" lon="12.314238940340182"><ele>559.0</ele><time>2026-04-11T16:02:44Z</time></trkpt><trkpt lat="43.262573724500605" lon="12.314217822554228"><ele>558.5</ele><time>2026-04-11T16:02:45Z</time></trkpt><trkpt lat="43.26250275991604" lon="12.314180873714102"><ele>558.0</ele><time>2026-04-11T16:02:46Z</time></trkpt><trkpt lat="43.2624364825655" lon="12.314119344019572"><ele>557.5</ele><time>2026-04-11T16:02:47Z</time></trkpt><trkpt lat="43.26235759898792" lon="12.314087505267736"><ele>557.0</ele><time>2026-04-11T16:02:48Z</time></trkpt><trkpt lat="43.26226543287195" lon="12.314084239125213"><ele>556.2</ele><time>2026-04-11T16:02:49Z</time></trkpt><trkpt lat="43.262170430411416" lon="12.314088482073315"><ele>555.4000000000001</ele><time>2026-04-11T16:02:50Z</time></trkpt><trkpt lat="43.262068396477424" lon="12.314087198624492"><ele>554.5999999999999</ele><time>2026-04-11T16:02:51Z</time></trkpt><trkpt lat="43.26197189506628" lon="12.314106433326481"><ele>553.8</ele><time>2026-04-11T16:02:52Z</time></trkpt><trkpt lat="43.2618762927629" lon="12.314108513514316"><ele>553.0</ele><time>2026-04-11T16:02:53Z</time></trkpt><trkpt lat="43.26177925095332" lon="12.314125847461952"><ele>553.0</ele><time>2026-04-11T16:02:54Z</time></trkpt><trkpt lat="43.26168813645347" lon="12.31413423727358"><ele>553.0</ele><time>2026-04-11T16:02:55Z</time></trkpt><trkpt lat="43.2616107210148" lon="12.314172350263993"><ele>553.0</ele><time>2026-04-11T16:02:56Z</time></trkpt><trkpt lat="43.26152768337605" lon="12.314205106331015"><ele>553.0</ele><time>2026-04-11T16:02:57Z</time></trkpt><trkpt lat="43.2614437680199" lon="12.314237100017548"><ele>553.0</ele><time>2026-04-11T16:02:58Z</time></trkpt><trkpt lat="43.26135848173088" lon="12.314264096310538"><ele>553.0</ele><time>2026-04-11T16:02:59Z</time></trkpt><trkpt lat="43.26127340345885" lon="12.31428698459249"><ele>553.1999999999999</ele><time>2026-04-11T16:03:00Z</time></trkpt><trkpt lat="43.261190340786825" lon="12.314314797607791"><ele>553.4</ele><time>2026-04-11T16:03:01Z</time></trkpt><trkpt lat="43.26110758944291" lon="12.314336634033923"><ele>553.5999999999999</ele><time>2026-04-11T16:03:02Z</time></trkpt><trkpt lat="43.26102422472114" lon="12.314359263318002"><ele>553.8</ele><time>2026-04-11T16:03:03Z</time></trkpt><trkpt lat="43.26092640317315" lon="12.314384578784361"><ele>554.0</ele><time>2026-04-11T16:03:04Z</time></trkpt><trkpt lat="43.26082800219297" lon="12.314406245631623"><ele>554.0</ele><time>2026-04-11T16:03:05Z</time></trkpt><trkpt lat="43.26071434361211" lon="12.314402761495517"><ele>554.0</ele><time>2026-04-11T16:03:06Z</time></trkpt><trkpt lat="43.260611031878156" lon="12.314426082083122"><ele>554.0</ele><time>2026-04-11T16:03:07Z</time></trkpt><trkpt lat="43.26051601632027" lon="12.31447245516982"><ele>554.0</ele><time>2026-04-11T16:03:08Z</time></trkpt><trkpt lat="43.26041678907456" lon="12.314528363415787"><ele>554.0</ele><time>2026-04-11T16:03:09Z</time></trkpt><trkpt lat="43.260301040401636" lon="12.314558079492484"><ele>554.4</ele><time>2026-04-11T16:03:10Z</time></trkpt><trkpt lat="43.26019825551874" lon="12.314610812310663"><ele>554.8</ele><time>2026-04-11T16:03:11Z</time></trkpt><trkpt lat="43.26010082153678" lon="12.31462117415229"><ele>555.2</ele><time>2026-04-11T16:03:12Z</time></trkpt><trkpt lat="43.26001344385978" lon="12.314650321384718"><ele>555.6</ele><time>2026-04-11T16:03:13Z</time></trkpt><trkpt lat="43.259925164359714" lon="12.314687716742029"><ele>556.0</ele><time>2026-04-11T16:03:14Z</time></trkpt><trkpt lat="43.25982762037207" lon="12.31470925208088"><ele>555.0</ele><time>2026-04-11T16:03:15Z</time></trkpt><trkpt lat="43.259730952618845" lon="12.314711195902353"><ele>554.0</ele><time>2026-04-11T16:03:16Z</time></trkpt><trkpt lat="43.259635418454984" lon="12.31471168186965"><ele>553.0</ele><time>2026-04-11T16:03:17Z</time></trkpt><trkpt lat="43.259537357074585" lon="12.314720326060083"><ele>552.0</ele><time>2026-04-11T16:03:18Z</time></trkpt><trkpt lat="43.259437273267665" lon="12.314734452827757"><ele>551.0</ele><time>2026-04-11T16:03:19Z</time></trkpt><trkpt lat="43.2593405333849" lon="12.314747244175475"><ele>546.6</ele><time>2026-04-11T16:03:20Z</time></trkpt><trkpt lat="43.25923880030063" lon="12.314765740720222"><ele>542.2</ele><time>2026-04-11T16:03:21Z</time></trkpt><trkpt lat="43.25914364878903" lon="12.314799354691337"><ele>537.8</ele><time>2026-04-11T16:03:22Z</time></trkpt><trkpt lat="43.25904252214762" lon="12.314845180821752"><ele>533.4</ele><time>2026-04-11T16:03:23Z</time></trkpt><trkpt lat="43.25894424547051" lon="12.314894256112986"><ele>529.0</ele><time>2026-04-11T16:03:24Z</time></trkpt><trkpt lat="43.25884705102854" lon="12.31491656409772"><ele>529.0</ele><time>2026-04-11T16:03:25Z</time></trkpt><trkpt lat="43.258746799427776" lon="12.314918622718443"><ele>529.0</ele><time>2026-04-11T16:03:26Z</time></trkpt><trkpt lat="43.25865547007261" lon="12.31495565189371"><ele>529.0</ele><time>2026-04-11T16:03:27Z</time></trkpt><trkpt lat="43.25856655978574" lon="12.315000455537021"><ele>529.0</ele><time>2026-04-11T16:03:28Z</time></trkpt><trkpt lat="43.25848193993168" lon="12.315042427784375"><ele>529.0</ele><time>2026-04-11T16:03:29Z</time></trkpt><trkpt lat="43.25839242782819" lon="12.315083157313293"><ele>529.0</ele><time>2026-04-11T16:03:30Z</time></trkpt><trkpt lat="43.25831799158418" lon="12.315110064112341"><ele>529.0</ele><time>2026-04-11T16:03:31Z</time></trkpt><trkpt lat="43.25823462360046" lon="12.315140776418247"><ele>529.0</ele><time>2026-04-11T16:03:32Z</time></trkpt><trkpt lat="43.25814313056368" lon="12.315132561556164"><ele>529.0</ele><time>2026-04-11T16:03:33Z</time></trkpt><trkpt lat="43.258061362079324" lon="12.315130457798285"><ele>529.0</ele><time>2026-04-11T16:03:34Z</time></trkpt><trkpt lat="43.2579841662799" lon="12.31512000980996"><ele>529.0</ele><time>2026-04-11T16:03:35Z</time></trkpt><trkpt lat="43.25791333183115" lon="12.315102623518767"><ele>526.6</ele><time>2026-04-11T16:03:36Z</time></trkpt><trkpt lat="43.25784292956231" lon="12.315059821562278"><ele>524.2</ele><time>2026-04-11T16:03:37Z</time></trkpt><trkpt lat="43.257758168976935" lon="12.314998121451238"><ele>521.8000000000001</ele><time>2026-04-11T16:03:38Z</time></trkpt><trkpt lat="43.257646861105535" lon="12.314917778152473"><ele>519.4</ele><time>2026-04-11T16:03:39Z</time></trkpt><trkpt lat="43.25753422345793" lon="12.314836476118785"><ele>517.0</ele><time>2026-04-11T16:03:40Z</time></trkpt><trkpt lat="43.25741538794377" lon="12.314762180140706"><ele>520.5</ele><time>2026-04-11T16:03:41Z</time></trkpt><trkpt lat="43.25729462064874" lon="12.314690069087208"><ele>524.0</ele><time>2026-04-11T16:03:42Z</time></trkpt><trkpt lat="43.25718574065834" lon="12.314624072459575"><ele>527.5</ele><time>2026-04-11T16:03:43Z</time></trkpt><trkpt lat="43.25708449567966" lon="12.31456856703043"><ele>531.0</ele><time>2026-04-11T16:03:44Z</time></trkpt><trkpt lat="43.256976638559195" lon="12.314525663569512"><ele>531.0</ele><time>2026-04-11T16:03:45Z</time></trkpt><trkpt lat="43.25687198871113" lon="12.3144347706273"><ele>531.0</ele><time>2026-04-11T16:03:46Z</time></trkpt><trkpt lat="43.25676539321007" lon="12.314369422672032"><ele>531.0</ele><time>2026-04-11T16:03:47Z</time></trkpt><trkpt lat="43.25666865693711" lon="12.31429581769887"><ele>531.0</ele><time>2026-04-11T16:03:48Z</time></trkpt><trkpt lat="43.25658205829687" lon="12.314234866525982"><ele>531.0</ele><time>2026-04-11T16:03:49Z</time></trkpt><trkpt lat="43.25649290406522" lon="12.31419091483369"><ele>530.8333333333334</ele><time>2026-04-11T16:03:50Z</time></trkpt><trkpt lat="43.256397278857115" lon="12.314161364992412"><ele>530.6666666666666</ele><time>2026-04-11T16:03:51Z</time></trkpt><trkpt lat="43.25630934575794" lon="12.314145466313189"><ele>530.5</ele><time>2026-04-11T16:03:52Z</time></trkpt><trkpt lat="43.2562431362562" lon="12.314142183820021"><ele>530.3333333333333</ele><time>2026-04-11T16:03:53Z</time></trkpt><trkpt lat="43.25615742869985" lon="12.314170838408698"><ele>530.1666666666666</ele><time>2026-04-11T16:03:54Z</time></trkpt><trkpt lat="43.256068986414256" lon="12.31421905442068"><ele>530.0</ele><time>2026-04-11T16:03:55Z</time></trkpt><trkpt lat="43.25599990346508" lon="12.314246726096005"><ele>530.0</ele><time>2026-04-11T16:03:56Z</time></trkpt><trkpt lat="43.25590408880313" lon="12.31432799772738"><ele>530.0</ele><time>2026-04-11T16:03:58Z</time></trkpt><trkpt lat="43.25584822311487" lon="12.314408697542111"><ele>530.0</ele><time>2026-04-11T16:03:59Z</time></trkpt><trkpt lat="43.25580025418412" lon="12.314500613168804"><ele>530.0</ele><time>2026-04-11T16:04:00Z</time></trkpt><trkpt lat="43.25575935755793" lon="12.314589724369187"><ele>530.0</ele><time>2026-04-11T16:04:01Z</time></trkpt><trkpt lat="43.25567758546682" lon="12.314694308329374"><ele>529.4285714285713</ele><time>2026-04-11T16:04:03Z</time></trkpt><trkpt lat="43.25561843092416" lon="12.314730426939505"><ele>528.8571428571429</ele><time>2026-04-11T16:04:04Z</time></trkpt><trkpt lat="43.255510228137446" lon="12.314779038324659"><ele>528.2857142857142</ele><time>2026-04-11T16:04:06Z</time></trkpt><trkpt lat="43.25545086137741" lon="12.314818930760586"><ele>527.7142857142857</ele><time>2026-04-11T16:04:08Z</time></trkpt><trkpt lat="43.255389357569896" lon="12.314845778259354"><ele>527.1428571428571</ele><time>2026-04-11T16:05:41Z</time></trkpt><trkpt lat="43.2553185770826" lon="12.31482765135736"><ele>526.5714285714286</ele><time>2026-04-11T16:05:50Z</time></trkpt><trkpt lat="43.25538266073265" lon="12.314802515033838"><ele>526.0</ele><time>2026-04-11T16:06:28Z</time></trkpt><trkpt lat="43.25544855265663" lon="12.31471921004379"><ele>526.0</ele><time>2026-04-11T16:06:38Z</time></trkpt><trkpt lat="43.255510626287354" lon="12.314679992543219"><ele>526.0</ele><time>2026-04-11T16:06:42Z</time></trkpt><trkpt lat="43.255478576446954" lon="12.314760505826003"><ele>526.0</ele><time>2026-04-11T16:07:29Z</time></trkpt><trkpt lat="43.255431318130825" lon="12.314821715326966"><ele>526.0</ele><time>2026-04-11T16:07:36Z</time></trkpt><trkpt lat="43.255367469870414" lon="12.314872775876307"><ele>526.0</ele><time>2026-04-11T16:21:36Z</time></trkpt><trkpt lat="43.25529713163025" lon="12.314933552442088"><ele>526.0</ele><time>2026-04-11T16:21:40Z</time></trkpt><trkpt lat="43.25522296657146" lon="12.314911483532574"><ele>526.0</ele><time>2026-04-11T16:21:43Z</time></trkpt><trkpt lat="43.25514641256105" lon="12.314942943337043"><ele>525.0</ele><time>2026-04-11T16:21:46Z</time></trkpt><trkpt lat="43.255062326354384" lon="12.314943730141831"><ele>524.0</ele><time>2026-04-11T16:22:18Z</time></trkpt><trkpt lat="43.25499018580735" lon="12.314951021171263"><ele>523.0</ele><time>2026-04-11T16:22:20Z</time></trkpt><trkpt lat="43.25492891382633" lon="12.314994110515032"><ele>522.0</ele><time>2026-04-11T16:22:22Z</time></trkpt><trkpt lat="43.25486946416725" lon="12.315045769037262"><ele>521.0</ele><time>2026-04-11T16:22:24Z</time></trkpt><trkpt lat="43.254794687423555" lon="12.315113751448308"><ele>520.0</ele><time>2026-04-11T16:22:26Z</time></trkpt><trkpt lat="43.25472400372622" lon="12.315186103338341"><ele>518.2</ele><time>2026-04-11T16:22:28Z</time></trkpt><trkpt lat="43.2546411133707" lon="12.315269973359914"><ele>516.4</ele><time>2026-04-11T16:22:30Z</time></trkpt><trkpt lat="43.25455345802026" lon="12.31535790629348"><ele>514.6</ele><time>2026-04-11T16:22:32Z</time></trkpt><trkpt lat="43.25445106301276" lon="12.31546275954618"><ele>512.8</ele><time>2026-04-11T16:22:34Z</time></trkpt><trkpt lat="43.254391833679286" lon="12.315521326236505"><ele>511.0</ele><time>2026-04-11T16:22:35Z</time></trkpt><trkpt lat="43.254331859052385" lon="12.315571949749149"><ele>510.33333333333337</ele><time>2026-04-11T16:22:36Z</time></trkpt><trkpt lat="43.2542621536638" lon="12.315612445770565"><ele>509.6666666666667</ele><time>2026-04-11T16:22:37Z</time></trkpt><trkpt lat="43.254196482658166" lon="12.315668489359012"><ele>509.0</ele><time>2026-04-11T16:22:38Z</time></trkpt><trkpt lat="43.25412908897781" lon="12.315726671318252"><ele>508.33333333333337</ele><time>2026-04-11T16:22:39Z</time></trkpt><trkpt lat="43.25406204644817" lon="12.315780171281471"><ele>507.6666666666667</ele><time>2026-04-11T16:22:40Z</time></trkpt><trkpt lat="43.25399638378787" lon="12.31583826219076"><ele>507.0</ele><time>2026-04-11T16:22:41Z</time></trkpt><trkpt lat="43.253920711195626" lon="12.31588111064094"><ele>506.0</ele><time>2026-04-11T16:22:42Z</time></trkpt><trkpt lat="43.253850057754434" lon="12.315945575215332"><ele>505.00000000000006</ele><time>2026-04-11T16:22:43Z</time></trkpt><trkpt lat="43.25378142173792" lon="12.316020022537243"><ele>504.00000000000006</ele><time>2026-04-11T16:22:44Z</time></trkpt><trkpt lat="43.253725572059174" lon="12.316120546732936"><ele>503.0</ele><time>2026-04-11T16:22:45Z</time></trkpt><trkpt lat="43.253652763998495" lon="12.316203413169282"><ele>502.0</ele><time>2026-04-11T16:22:46Z</time></trkpt><trkpt lat="43.25359193940695" lon="12.31630342427809"><ele>501.6</ele><time>2026-04-11T16:22:47Z</time></trkpt><trkpt lat="43.25352678078929" lon="12.316407932802177"><ele>501.20000000000005</ele><time>2026-04-11T16:22:48Z</time></trkpt><trkpt lat="43.25346251981884" lon="12.316508008208709"><ele>500.8</ele><time>2026-04-11T16:22:49Z</time></trkpt><trkpt lat="43.25340339635146" lon="12.316610416341808"><ele>500.4</ele><time>2026-04-11T16:22:50Z</time></trkpt><trkpt lat="43.25334234087605" lon="12.316718705521712"><ele>500.0</ele><time>2026-04-11T16:22:51Z</time></trkpt><trkpt lat="43.25328855869397" lon="12.316826364512778"><ele>500.0</ele><time>2026-04-11T16:22:52Z</time></trkpt><trkpt lat="43.253239551893785" lon="12.316939005003226"><ele>500.0</ele><time>2026-04-11T16:22:53Z</time></trkpt><trkpt lat="43.25319783460052" lon="12.317056148479171"><ele>500.0</ele><time>2026-04-11T16:22:54Z</time></trkpt><trkpt lat="43.25316916539965" lon="12.317175357509445"><ele>500.0</ele><time>2026-04-11T16:22:55Z</time></trkpt><trkpt lat="43.25315398214515" lon="12.317304903093977"><ele>500.0</ele><time>2026-04-11T16:22:56Z</time></trkpt><trkpt lat="43.25314461865285" lon="12.317445368469341"><ele>498.0</ele><time>2026-04-11T16:22:57Z</time></trkpt><trkpt lat="43.253151689664975" lon="12.317593879300095"><ele>496.0</ele><time>2026-04-11T16:22:58Z</time></trkpt><trkpt lat="43.25315749398129" lon="12.31771817946814"><ele>494.0</ele><time>2026-04-11T16:22:59Z</time></trkpt><trkpt lat="43.2531767617414" lon="12.317842537282562"><ele>492.0</ele><time>2026-04-11T16:23:00Z</time></trkpt><trkpt lat="43.253190462784964" lon="12.317956249265265"><ele>490.0</ele><time>2026-04-11T16:23:01Z</time></trkpt><trkpt lat="43.253192498225715" lon="12.318066461357379"><ele>489.00000000000006</ele><time>2026-04-11T16:23:02Z</time></trkpt><trkpt lat="43.25317991761806" lon="12.318168115908694"><ele>488.0</ele><time>2026-04-11T16:23:03Z</time></trkpt><trkpt lat="43.25315129017737" lon="12.318260141349194"><ele>487.0</ele><time>2026-04-11T16:23:04Z</time></trkpt><trkpt lat="43.25312243373202" lon="12.318341180817146"><ele>486.0</ele><time>2026-04-11T16:23:05Z</time></trkpt><trkpt lat="43.25309409596279" lon="12.318472764998392"><ele>485.00000000000006</ele><time>2026-04-11T16:23:07Z</time></trkpt><trkpt lat="43.253134187543154" lon="12.318593615278466"><ele>484.0</ele><time>2026-04-11T16:23:09Z</time></trkpt><trkpt lat="43.2532108510433" lon="12.318608183488621"><ele>484.00000000000006</ele><time>2026-04-11T16:23:10Z</time></trkpt><trkpt lat="43.25329148385728" lon="12.318605480201738"><ele>484.0</ele><time>2026-04-11T16:23:11Z</time></trkpt><trkpt lat="43.253359900305" lon="12.318563810992519"><ele>484.0</ele><time>2026-04-11T16:23:12Z</time></trkpt><trkpt lat="43.253396665785395" lon="12.318428403609126"><ele>484.0</ele><time>2026-04-11T16:23:13Z</time></trkpt><trkpt lat="43.25340916382199" lon="12.318302435823483"><ele>484.00000000000006</ele><time>2026-04-11T16:23:14Z</time></trkpt><trkpt lat="43.253403600844756" lon="12.31817321684105"><ele>484.0</ele><time>2026-04-11T16:23:15Z</time></trkpt><trkpt lat="43.25340235074528" lon="12.318060001620095"><ele>485.00000000000006</ele><time>2026-04-11T16:23:16Z</time></trkpt><trkpt lat="43.25340201908917" lon="12.317952697474809"><ele>486.0</ele><time>2026-04-11T16:23:17Z</time></trkpt><trkpt lat="43.25340982073054" lon="12.31784258339523"><ele>487.0</ele><time>2026-04-11T16:23:18Z</time></trkpt><trkpt lat="43.253429551667054" lon="12.317738776083461"><ele>488.0</ele><time>2026-04-11T16:23:19Z</time></trkpt><trkpt lat="43.25347043944382" lon="12.317635876462896"><ele>489.00000000000006</ele><time>2026-04-11T16:23:20Z</time></trkpt><trkpt lat="43.25351315524839" lon="12.317549649224889"><ele>490.0</ele><time>2026-04-11T16:23:21Z</time></trkpt><trkpt lat="43.25356886849119" lon="12.317461789480395"><ele>490.0</ele><time>2026-04-11T16:23:22Z</time></trkpt><trkpt lat="43.25365573557201" lon="12.317398013885763"><ele>490.0</ele><time>2026-04-11T16:23:23Z</time></trkpt><trkpt lat="43.25375604535927" lon="12.317353679447148"><ele>490.0</ele><time>2026-04-11T16:23:24Z</time></trkpt><trkpt lat="43.25386356193432" lon="12.317345598044712"><ele>490.0</ele><time>2026-04-11T16:23:25Z</time></trkpt><trkpt lat="43.25395734331855" lon="12.317299949714398"><ele>490.0</ele><time>2026-04-11T16:23:26Z</time></trkpt><trkpt lat="43.25405680268026" lon="12.317280391410085"><ele>489.8</ele><time>2026-04-11T16:23:27Z</time></trkpt><trkpt lat="43.25416375939158" lon="12.317266040159906"><ele>489.6</ele><time>2026-04-11T16:23:28Z</time></trkpt><trkpt lat="43.25425791416187" lon="12.317229701035929"><ele>489.4</ele><time>2026-04-11T16:23:29Z</time></trkpt><trkpt lat="43.254344287493055" lon="12.31721086424456"><ele>489.2</ele><time>2026-04-11T16:23:30Z</time></trkpt><trkpt lat="43.254422863978654" lon="12.317164504528348"><ele>489.0</ele><time>2026-04-11T16:23:31Z</time></trkpt><trkpt lat="43.25449670759163" lon="12.31710545632045"><ele>489.0</ele><time>2026-04-11T16:23:32Z</time></trkpt><trkpt lat="43.254564369099846" lon="12.31705167166543"><ele>489.0</ele><time>2026-04-11T16:23:33Z</time></trkpt><trkpt lat="43.25464321730722" lon="12.317000341227475"><ele>489.0</ele><time>2026-04-11T16:23:34Z</time></trkpt><trkpt lat="43.254721435909374" lon="12.316971223646428"><ele>489.0</ele><time>2026-04-11T16:23:35Z</time></trkpt><trkpt lat="43.254801928174096" lon="12.316976635258932"><ele>489.0</ele><time>2026-04-11T16:23:36Z</time></trkpt><trkpt lat="43.254885441058896" lon="12.317017495569004"><ele>489.0</ele><time>2026-04-11T16:23:37Z</time></trkpt><trkpt lat="43.254949083898104" lon="12.317116944826596"><ele>488.1666666666667</ele><time>2026-04-11T16:23:38Z</time></trkpt><trkpt lat="43.25498239286254" lon="12.317210996645771"><ele>487.33333333333337</ele><time>2026-04-11T16:23:39Z</time></trkpt><trkpt lat="43.2549835300882" lon="12.317328742437022"><ele>486.5</ele><time>2026-04-11T16:23:40Z</time></trkpt><trkpt lat="43.255021912437606" lon="12.317442859431363"><ele>485.6666666666667</ele><time>2026-04-11T16:23:41Z</time></trkpt><trkpt lat="43.25504428587228" lon="12.317553854493504"><ele>484.83333333333337</ele><time>2026-04-11T16:23:42Z</time></trkpt><trkpt lat="43.25508444083292" lon="12.317648195887063"><ele>484.0</ele><time>2026-04-11T16:23:43Z</time></trkpt><trkpt lat="43.255133400016405" lon="12.317747947545483"><ele>480.6</ele><time>2026-04-11T16:23:44Z</time></trkpt><trkpt lat="43.25521853970716" lon="12.31780415426892"><ele>477.2</ele><time>2026-04-11T16:23:45Z</time></trkpt><trkpt lat="43.25530986916252" lon="12.317877953324734"><ele>473.80000000000007</ele><time>2026-04-11T16:23:46Z</time></trkpt><trkpt lat="43.25539882281114" lon="12.31794232188095"><ele>470.40000000000003</ele><time>2026-04-11T16:23:47Z</time></trkpt><trkpt lat="43.25548091250619" lon="12.317996116026459"><ele>467.0</ele><time>2026-04-11T16:23:48Z</time></trkpt><trkpt lat="43.25556630457339" lon="12.318037531779558"><ele>467.0</ele><time>2026-04-11T16:23:49Z</time></trkpt><trkpt lat="43.255658206352294" lon="12.318073262019086"><ele>467.00000000000006</ele><time>2026-04-11T16:23:50Z</time></trkpt><trkpt lat="43.25574876323669" lon="12.318100784615288"><ele>467.00000000000006</ele><time>2026-04-11T16:23:51Z</time></trkpt><trkpt lat="43.2558367348728" lon="12.31810797055928"><ele>467.0</ele><time>2026-04-11T16:23:52Z</time></trkpt><trkpt lat="43.255919987583226" lon="12.318086566185883"><ele>467.0</ele><time>2026-04-11T16:23:53Z</time></trkpt><trkpt lat="43.25600577182439" lon="12.318048230502047"><ele>466.99999999999994</ele><time>2026-04-11T16:23:54Z</time></trkpt><trkpt lat="43.25608622941633" lon="12.317987500727067"><ele>467.0</ele><time>2026-04-11T16:23:55Z</time></trkpt><trkpt lat="43.25616127653248" lon="12.317913772588915"><ele>467.0</ele><time>2026-04-11T16:23:56Z</time></trkpt><trkpt lat="43.25623286668254" lon="12.317827858746897"><ele>467.0</ele><time>2026-04-11T16:23:57Z</time></trkpt><trkpt lat="43.256281011311955" lon="12.317741156584365"><ele>466.99999999999994</ele><time>2026-04-11T16:23:58Z</time></trkpt><trkpt lat="43.256318335831104" lon="12.31764763981523"><ele>467.0</ele><time>2026-04-11T16:23:59Z</time></trkpt><trkpt lat="43.25637381419942" lon="12.317556819719117"><ele>467.0</ele><time>2026-04-11T16:24:00Z</time></trkpt><trkpt lat="43.25640254710688" lon="12.31747463180773"><ele>467.00000000000006</ele><time>2026-04-11T16:24:01Z</time></trkpt><trkpt lat="43.256431755044716" lon="12.317397453958918"><ele>467.00000000000006</ele><time>2026-04-11T16:24:02Z</time></trkpt><trkpt lat="43.25653866363043" lon="12.317332618631358"><ele>467.0</ele><time>2026-04-11T16:24:04Z</time></trkpt><trkpt lat="43.256608845592496" lon="12.31744890955875"><ele>467.0</ele><time>2026-04-11T16:24:05Z</time></trkpt><trkpt lat="43.25670029432874" lon="12.317488307533422"><ele>464.6</ele><time>2026-04-11T16:24:06Z</time></trkpt><trkpt lat="43.25677938748653" lon="12.317508269325007"><ele>462.20000000000005</ele><time>2026-04-11T16:24:07Z</time></trkpt><trkpt lat="43.25685896233905" lon="12.317500953728857"><ele>459.8</ele><time>2026-04-11T16:24:08Z</time></trkpt><trkpt lat="43.25695644475743" lon="12.317540416067047"><ele>457.4</ele><time>2026-04-11T16:24:10Z</time></trkpt><trkpt lat="43.25694293140724" lon="12.317671843610265"><ele>455.0</ele><time>2026-04-11T16:24:12Z</time></trkpt><trkpt lat="43.25683053179614" lon="12.317641519876654"><ele>455.0</ele><time>2026-04-11T16:24:14Z</time></trkpt><trkpt lat="43.25675084239404" lon="12.317635052298604"><ele>455.0</ele><time>2026-04-11T16:24:15Z</time></trkpt><trkpt lat="43.256677415802336" lon="12.31762930554052"><ele>455.0</ele><time>2026-04-11T16:24:16Z</time></trkpt><trkpt lat="43.25656388876468" lon="12.317676597393431"><ele>455.0</ele><time>2026-04-11T16:24:18Z</time></trkpt><trkpt lat="43.256518505016366" lon="12.31776252379931"><ele>455.0</ele><time>2026-04-11T16:24:19Z</time></trkpt><trkpt lat="43.25654388986486" lon="12.317909305188639"><ele>455.0</ele><time>2026-04-11T16:24:20Z</time></trkpt><trkpt lat="43.25656075656414" lon="12.3180473277353"><ele>455.0</ele><time>2026-04-11T16:24:21Z</time></trkpt><trkpt lat="43.25656492407142" lon="12.318208894261168"><ele>455.0</ele><time>2026-04-11T16:24:22Z</time></trkpt><trkpt lat="43.256569604010465" lon="12.318366205097767"><ele>455.0</ele><time>2026-04-11T16:24:23Z</time></trkpt><trkpt lat="43.25658359052635" lon="12.318514136082495"><ele>455.0</ele><time>2026-04-11T16:24:24Z</time></trkpt><trkpt lat="43.25655889331844" lon="12.318657703353765"><ele>452.2</ele><time>2026-04-11T16:24:25Z</time></trkpt><trkpt lat="43.25656250245037" lon="12.31879143439325"><ele>449.4</ele><time>2026-04-11T16:24:26Z</time></trkpt><trkpt lat="43.25653713345805" lon="12.31891167809886"><ele>446.6</ele><time>2026-04-11T16:24:27Z</time></trkpt><trkpt lat="43.256498287935216" lon="12.319021152007481"><ele>443.8</ele><time>2026-04-11T16:24:28Z</time></trkpt><trkpt lat="43.25641769933806" lon="12.31909426885063"><ele>441.0</ele><time>2026-04-11T16:24:29Z</time></trkpt><trkpt lat="43.25632835170959" lon="12.319158754688576"><ele>440.1666666666667</ele><time>2026-04-11T16:24:30Z</time></trkpt><trkpt lat="43.25623555864013" lon="12.319226391247872"><ele>439.33333333333337</ele><time>2026-04-11T16:24:31Z</time></trkpt><trkpt lat="43.25615909304924" lon="12.319283270363995"><ele>438.5</ele><time>2026-04-11T16:24:32Z</time></trkpt><trkpt lat="43.2560915169646" lon="12.319348145451086"><ele>437.6666666666667</ele><time>2026-04-11T16:24:33Z</time></trkpt><trkpt lat="43.25602916941614" lon="12.319426253407205"><ele>436.83333333333337</ele><time>2026-04-11T16:24:34Z</time></trkpt><trkpt lat="43.25599315434005" lon="12.319538567566795"><ele>436.0</ele><time>2026-04-11T16:24:35Z</time></trkpt><trkpt lat="43.2559940418002" lon="12.319659895309716"><ele>433.8</ele><time>2026-04-11T16:24:36Z</time></trkpt><trkpt lat="43.25598909167327" lon="12.319791846177107"><ele>431.6</ele><time>2026-04-11T16:24:37Z</time></trkpt><trkpt lat="43.255992730394176" lon="12.319931297080428"><ele>429.4</ele><time>2026-04-11T16:24:38Z</time></trkpt><trkpt lat="43.25599870076566" lon="12.320088818877348"><ele>427.2</ele><time>2026-04-11T16:24:39Z</time></trkpt><trkpt lat="43.25597856884933" lon="12.320258281814523"><ele>425.0</ele><time>2026-04-11T16:24:40Z</time></trkpt><trkpt lat="43.2559735973928" lon="12.320418801121397"><ele>424.0</ele><time>2026-04-11T16:24:41Z</time></trkpt><trkpt lat="43.25598629194577" lon="12.32057389763662"><ele>423.0</ele><time>2026-04-11T16:24:42Z</time></trkpt><trkpt lat="43.255975997069044" lon="12.320731082866358"><ele>422.0</ele><time>2026-04-11T16:24:43Z</time></trkpt><trkpt lat="43.25597801587784" lon="12.320882991729736"><ele>421.0</ele><time>2026-04-11T16:24:44Z</time></trkpt><trkpt lat="43.255972828114" lon="12.321033760531417"><ele>420.0</ele><time>2026-04-11T16:24:45Z</time></trkpt><trkpt lat="43.25596203086226" lon="12.321176771360497"><ele>420.0</ele><time>2026-04-11T16:24:46Z</time></trkpt><trkpt lat="43.25593955354328" lon="12.32131757641053"><ele>420.0</ele><time>2026-04-11T16:24:47Z</time></trkpt><trkpt lat="43.25590598605363" lon="12.321450392444053"><ele>420.0</ele><time>2026-04-11T16:24:48Z</time></trkpt><trkpt lat="43.255854807097826" lon="12.321572676777306"><ele>420.0</ele><time>2026-04-11T16:24:49Z</time></trkpt><trkpt lat="43.25579884778359" lon="12.321697018307738"><ele>420.0</ele><time>2026-04-11T16:24:50Z</time></trkpt><trkpt lat="43.25573911165726" lon="12.3218205984395"><ele>420.0</ele><time>2026-04-11T16:24:51Z</time></trkpt><trkpt lat="43.25567674563106" lon="12.321932022549484"><ele>420.0</ele><time>2026-04-11T16:24:52Z</time></trkpt><trkpt lat="43.25561024954344" lon="12.322038652007986"><ele>420.0</ele><time>2026-04-11T16:24:53Z</time></trkpt><trkpt lat="43.2555446779655" lon="12.322130471323296"><ele>420.0</ele><time>2026-04-11T16:24:54Z</time></trkpt><trkpt lat="43.25549064937834" lon="12.32220649885772"><ele>420.0</ele><time>2026-04-11T16:24:55Z</time></trkpt><trkpt lat="43.25544373082651" lon="12.322279312282959"><ele>420.0</ele><time>2026-04-11T16:24:56Z</time></trkpt><trkpt lat="43.255396244990116" lon="12.322424961878703"><ele>417.4</ele><time>2026-04-11T16:24:58Z</time></trkpt><trkpt lat="43.25542586209959" lon="12.32256429135509"><ele>414.8</ele><time>2026-04-11T16:25:00Z</time></trkpt><trkpt lat="43.25543269033112" lon="12.322658928689311"><ele>412.20000000000005</ele><time>2026-04-11T16:25:02Z</time></trkpt><trkpt lat="43.25537464131057" lon="12.322542341873273"><ele>409.6</ele><time>2026-04-11T16:25:06Z</time></trkpt><trkpt lat="43.255315052218116" lon="12.32235058345482"><ele>407.0</ele><time>2026-04-11T16:25:07Z</time></trkpt><trkpt lat="43.255301880095494" lon="12.32212935665775"><ele>407.0</ele><time>2026-04-11T16:25:08Z</time></trkpt><trkpt lat="43.255302581493524" lon="12.32193809941787"><ele>407.0</ele><time>2026-04-11T16:25:09Z</time></trkpt><trkpt lat="43.25530789652038" lon="12.321757349120462"><ele>407.0</ele><time>2026-04-11T16:25:10Z</time></trkpt><trkpt lat="43.255305246145724" lon="12.32159671992648"><ele>407.0</ele><time>2026-04-11T16:25:11Z</time></trkpt><trkpt lat="43.25528902537886" lon="12.32143910106202"><ele>408.0</ele><time>2026-04-11T16:25:12Z</time></trkpt><trkpt lat="43.25525848974001" lon="12.321301600728574"><ele>409.0</ele><time>2026-04-11T16:25:13Z</time></trkpt><trkpt lat="43.25522155045226" lon="12.321163363515286"><ele>410.0</ele><time>2026-04-11T16:25:14Z</time></trkpt><trkpt lat="43.255136210197" lon="12.321056850233486"><ele>411.0</ele><time>2026-04-11T16:25:15Z</time></trkpt><trkpt lat="43.25503343925678" lon="12.321003704307165"><ele>412.0</ele><time>2026-04-11T16:25:16Z</time></trkpt><trkpt lat="43.25492784666133" lon="12.320957435815995"><ele>412.0</ele><time>2026-04-11T16:25:17Z</time></trkpt><trkpt lat="43.25482459293776" lon="12.320939813471034"><ele>412.0</ele><time>2026-04-11T16:25:18Z</time></trkpt><trkpt lat="43.25472140412403" lon="12.320928519913165"><ele>412.0</ele><time>2026-04-11T16:25:19Z</time></trkpt><trkpt lat="43.25461454673713" lon="12.32095505904652"><ele>412.0</ele><time>2026-04-11T16:25:20Z</time></trkpt><trkpt lat="43.25450497007126" lon="12.321034440649823"><ele>412.0</ele><time>2026-04-11T16:25:21Z</time></trkpt><trkpt lat="43.25440188778992" lon="12.321157836344437"><ele>410.33333333333337</ele><time>2026-04-11T16:25:22Z</time></trkpt><trkpt lat="43.25431368073535" lon="12.321328502935707"><ele>408.66666666666663</ele><time>2026-04-11T16:25:23Z</time></trkpt><trkpt lat="43.254220328766735" lon="12.32149956036252"><ele>407.0</ele><time>2026-04-11T16:25:24Z</time></trkpt><trkpt lat="43.254119781473776" lon="12.321658840961746"><ele>407.0</ele><time>2026-04-11T16:25:25Z</time></trkpt><trkpt lat="43.254007961208785" lon="12.321801780631034"><ele>407.0</ele><time>2026-04-11T16:25:26Z</time></trkpt><trkpt lat="43.253896709800074" lon="12.321934047371217"><ele>407.0</ele><time>2026-04-11T16:25:27Z</time></trkpt><trkpt lat="43.2537862192453" lon="12.32205251133661"><ele>407.0</ele><time>2026-04-11T16:25:28Z</time></trkpt><trkpt lat="43.25367498080357" lon="12.322156666371496"><ele>404.25</ele><time>2026-04-11T16:25:29Z</time></trkpt><trkpt lat="43.25355361596386" lon="12.322240998248184"><ele>401.5</ele><time>2026-04-11T16:25:30Z</time></trkpt><trkpt lat="43.253411666209125" lon="12.322302263083436"><ele>398.75</ele><time>2026-04-11T16:25:31Z</time></trkpt><trkpt lat="43.25326802225465" lon="12.322342165244141"><ele>396.0</ele><time>2026-04-11T16:25:32Z</time></trkpt><trkpt lat="43.25312750939729" lon="12.32239625495868"><ele>397.25</ele><time>2026-04-11T16:25:33Z</time></trkpt><trkpt lat="43.252993804869185" lon="12.322456607632205"><ele>398.5</ele><time>2026-04-11T16:25:34Z</time></trkpt><trkpt lat="43.25286320279082" lon="12.322527998169251"><ele>399.75</ele><time>2026-04-11T16:25:35Z</time></trkpt><trkpt lat="43.25273715909109" lon="12.322619113448505"><ele>401.0</ele><time>2026-04-11T16:25:36Z</time></trkpt><trkpt lat="43.25261739299127" lon="12.32271181858246"><ele>401.0</ele><time>2026-04-11T16:25:37Z</time></trkpt><trkpt lat="43.25249057874313" lon="12.32279505252011"><ele>401.0</ele><time>2026-04-11T16:25:38Z</time></trkpt><trkpt lat="43.25235941581446" lon="12.32285395285453"><ele>401.0</ele><time>2026-04-11T16:25:39Z</time></trkpt><trkpt lat="43.25222495352923" lon="12.322891955314926"><ele>401.0</ele><time>2026-04-11T16:25:40Z</time></trkpt><trkpt lat="43.25208879641543" lon="12.322921572618046"><ele>402.25</ele><time>2026-04-11T16:25:41Z</time></trkpt><trkpt lat="43.25195786905483" lon="12.322946768832807"><ele>403.5</ele><time>2026-04-11T16:25:42Z</time></trkpt><trkpt lat="43.2518248455547" lon="12.322969408186081"><ele>404.75</ele><time>2026-04-11T16:25:43Z</time></trkpt><trkpt lat="43.25168747673786" lon="12.322988286395624"><ele>406.0</ele><time>2026-04-11T16:25:44Z</time></trkpt><trkpt lat="43.25154791925879" lon="12.322986429000297"><ele>404.0</ele><time>2026-04-11T16:25:45Z</time></trkpt><trkpt lat="43.25140709206341" lon="12.32294940564613"><ele>402.0</ele><time>2026-04-11T16:25:46Z</time></trkpt><trkpt lat="43.2512637941687" lon="12.322919649597166"><ele>400.0</ele><time>2026-04-11T16:25:47Z</time></trkpt><trkpt lat="43.25111063980525" lon="12.322911617807822"><ele>398.0</ele><time>2026-04-11T16:25:48Z</time></trkpt><trkpt lat="43.250960225537995" lon="12.322934734591207"><ele>398.0</ele><time>2026-04-11T16:25:49Z</time></trkpt><trkpt lat="43.2508112737449" lon="12.32296078278692"><ele>398.0</ele><time>2026-04-11T16:25:50Z</time></trkpt><trkpt lat="43.25066218831271" lon="12.32298632403192"><ele>398.0</ele><time>2026-04-11T16:25:51Z</time></trkpt><trkpt lat="43.250514112765984" lon="12.323011588790434"><ele>399.0</ele><time>2026-04-11T16:25:52Z</time></trkpt><trkpt lat="43.2503681691835" lon="12.323037210653872"><ele>400.0</ele><time>2026-04-11T16:25:53Z</time></trkpt><trkpt lat="43.25022086465714" lon="12.323074196318714"><ele>401.0</ele><time>2026-04-11T16:25:54Z</time></trkpt><trkpt lat="43.250078596995635" lon="12.323117667917776"><ele>402.0</ele><time>2026-04-11T16:25:55Z</time></trkpt><trkpt lat="43.24993508833807" lon="12.323154357674373"><ele>395.5</ele><time>2026-04-11T16:25:56Z</time></trkpt><trkpt lat="43.24978580842106" lon="12.323171808259044"><ele>389.0</ele><time>2026-04-11T16:25:57Z</time></trkpt><trkpt lat="43.24963651093874" lon="12.323170507780796"><ele>382.5</ele><time>2026-04-11T16:25:58Z</time></trkpt><trkpt lat="43.24948667509006" lon="12.323156577945534"><ele>376.0</ele><time>2026-04-11T16:25:59Z</time></trkpt><trkpt lat="43.24935472402808" lon="12.32309660917131"><ele>376.0</ele><time>2026-04-11T16:26:00Z</time></trkpt><trkpt lat="43.24922952443135" lon="12.323069663453323"><ele>376.0</ele><time>2026-04-11T16:26:01Z</time></trkpt><trkpt lat="43.249108784140056" lon="12.323025373609369"><ele>376.0</ele><time>2026-04-11T16:26:02Z</time></trkpt><trkpt lat="43.24899202536443" lon="12.32298784917783"><ele>376.0</ele><time>2026-04-11T16:26:03Z</time></trkpt><trkpt lat="43.24887506278879" lon="12.322952218366611"><ele>379.0</ele><time>2026-04-11T16:26:04Z</time></trkpt><trkpt lat="43.248756429822556" lon="12.322914943271439"><ele>382.0</ele><time>2026-04-11T16:26:05Z</time></trkpt><trkpt lat="43.248635745989816" lon="12.322897323712109"><ele>385.0</ele><time>2026-04-11T16:26:06Z</time></trkpt><trkpt lat="43.248513237139335" lon="12.32291214220649"><ele>388.0</ele><time>2026-04-11T16:26:07Z</time></trkpt><trkpt lat="43.248392151765536" lon="12.322955045366957"><ele>388.0</ele><time>2026-04-11T16:26:08Z</time></trkpt><trkpt lat="43.24828127027357" lon="12.32303466937911"><ele>388.0</ele><time>2026-04-11T16:26:09Z</time></trkpt><trkpt lat="43.24817148082999" lon="12.323118638049213"><ele>388.0</ele><time>2026-04-11T16:26:10Z</time></trkpt><trkpt lat="43.248053479516955" lon="12.323186335151675"><ele>388.0</ele><time>2026-04-11T16:26:11Z</time></trkpt><trkpt lat="43.2479104209623" lon="12.323213169866374"><ele>382.0</ele><time>2026-04-11T16:26:12Z</time></trkpt><trkpt lat="43.247755857081565" lon="12.323222107726929"><ele>376.0</ele><time>2026-04-11T16:26:13Z</time></trkpt><trkpt lat="43.247604469592495" lon="12.323217003730955"><ele>370.0</ele><time>2026-04-11T16:26:14Z</time></trkpt><trkpt lat="43.24745553478006" lon="12.323199584396765"><ele>370.0</ele><time>2026-04-11T16:26:15Z</time></trkpt><trkpt lat="43.24730757667361" lon="12.323170494214674"><ele>370.0</ele><time>2026-04-11T16:26:16Z</time></trkpt><trkpt lat="43.2471597825708" lon="12.323136919519033"><ele>370.0</ele><time>2026-04-11T16:26:17Z</time></trkpt><trkpt lat="43.24701248081476" lon="12.323105354555818"><ele>370.0</ele><time>2026-04-11T16:26:18Z</time></trkpt><trkpt lat="43.24686493941775" lon="12.323079866136462"><ele>371.25</ele><time>2026-04-11T16:26:19Z</time></trkpt><trkpt lat="43.24671743324829" lon="12.323077327414003"><ele>372.5</ele><time>2026-04-11T16:26:20Z</time></trkpt><trkpt lat="43.246573837689134" lon="12.323104352612418"><ele>373.75</ele><time>2026-04-11T16:26:21Z</time></trkpt><trkpt lat="43.24644640424888" lon="12.32318826903499"><ele>375.0</ele><time>2026-04-11T16:26:22Z</time></trkpt><trkpt lat="43.24633238953914" lon="12.323292787075836"><ele>375.0</ele><time>2026-04-11T16:26:23Z</time></trkpt><trkpt lat="43.24622314067114" lon="12.323431935396721"><ele>375.0</ele><time>2026-04-11T16:26:24Z</time></trkpt><trkpt lat="43.24609612952688" lon="12.32359438027992"><ele>375.0</ele><time>2026-04-11T16:26:25Z</time></trkpt><trkpt lat="43.24597133734728" lon="12.323746573884323"><ele>375.0</ele><time>2026-04-11T16:26:26Z</time></trkpt><trkpt lat="43.245844550559724" lon="12.323881391992442"><ele>375.0</ele><time>2026-04-11T16:26:27Z</time></trkpt><trkpt lat="43.24571499669659" lon="12.323998638931819"><ele>375.0</ele><time>2026-04-11T16:26:28Z</time></trkpt><trkpt lat="43.24558726049465" lon="12.324113989628719"><ele>372.6666666666667</ele><time>2026-04-11T16:26:29Z</time></trkpt><trkpt lat="43.24545511297184" lon="12.32421644339288"><ele>370.33333333333337</ele><time>2026-04-11T16:26:30Z</time></trkpt><trkpt lat="43.245301273924916" lon="12.324281621797203"><ele>368.0</ele><time>2026-04-11T16:26:31Z</time></trkpt><trkpt lat="43.24515113724664" lon="12.324377866894034"><ele>368.0</ele><time>2026-04-11T16:26:32Z</time></trkpt><trkpt lat="43.24500271595298" lon="12.324448067003196"><ele>368.0</ele><time>2026-04-11T16:26:33Z</time></trkpt><trkpt lat="43.244848676537" lon="12.32451549464627"><ele>368.0</ele><time>2026-04-11T16:26:34Z</time></trkpt><trkpt lat="43.24469994051363" lon="12.324589077068618"><ele>373.33333333333337</ele><time>2026-04-11T16:26:35Z</time></trkpt><trkpt lat="43.244557417700285" lon="12.324676288519806"><ele>378.6666666666667</ele><time>2026-04-11T16:26:36Z</time></trkpt><trkpt lat="43.24441437960536" lon="12.32475819765421"><ele>384.0</ele><time>2026-04-11T16:26:37Z</time></trkpt><trkpt lat="43.244271525794645" lon="12.324847781783237"><ele>379.25</ele><time>2026-04-11T16:26:38Z</time></trkpt><trkpt lat="43.24413202103102" lon="12.324945598264838"><ele>374.5</ele><time>2026-04-11T16:26:39Z</time></trkpt><trkpt lat="43.24400348986141" lon="12.32503962600421"><ele>369.75</ele><time>2026-04-11T16:26:40Z</time></trkpt><trkpt lat="43.24389122656998" lon="12.325152873486342"><ele>365.0</ele><time>2026-04-11T16:26:41Z</time></trkpt><trkpt lat="43.24378911159717" lon="12.325289160650751"><ele>365.0</ele><time>2026-04-11T16:26:42Z</time></trkpt><trkpt lat="43.24369127037515" lon="12.325442921373789"><ele>365.0</ele><time>2026-04-11T16:26:43Z</time></trkpt><trkpt lat="43.24359765804184" lon="12.325612860928189"><ele>365.0</ele><time>2026-04-11T16:26:44Z</time></trkpt><trkpt lat="43.24350855348237" lon="12.32578819829771"><ele>357.33333333333337</ele><time>2026-04-11T16:26:45Z</time></trkpt><trkpt lat="43.24342307207209" lon="12.325958770465823"><ele>349.6666666666667</ele><time>2026-04-11T16:26:46Z</time></trkpt><trkpt lat="43.2433460530881" lon="12.326138636564787"><ele>342.0</ele><time>2026-04-11T16:26:47Z</time></trkpt><trkpt lat="43.243263473094636" lon="12.326308206085844"><ele>340.5</ele><time>2026-04-11T16:26:48Z</time></trkpt><trkpt lat="43.243177150155155" lon="12.326476685721714"><ele>339.0</ele><time>2026-04-11T16:26:49Z</time></trkpt><trkpt lat="43.24309048221352" lon="12.326628299695033"><ele>337.5</ele><time>2026-04-11T16:26:50Z</time></trkpt><trkpt lat="43.24298381658568" lon="12.326740343207298"><ele>336.0</ele><time>2026-04-11T16:26:51Z</time></trkpt><trkpt lat="43.24285773296537" lon="12.326814146092552"><ele>336.0</ele><time>2026-04-11T16:26:52Z</time></trkpt><trkpt lat="43.242713118772656" lon="12.32682930431742"><ele>336.0</ele><time>2026-04-11T16:26:53Z</time></trkpt><trkpt lat="43.24256357182532" lon="12.326827387506086"><ele>336.0</ele><time>2026-04-11T16:26:54Z</time></trkpt><trkpt lat="43.24241836597322" lon="12.326821230092076"><ele>336.0</ele><time>2026-04-11T16:26:55Z</time></trkpt><trkpt lat="43.24228079076325" lon="12.326822422564803"><ele>332.5</ele><time>2026-04-11T16:26:56Z</time></trkpt><trkpt lat="43.24215384749857" lon="12.326843546717251"><ele>329.0</ele><time>2026-04-11T16:26:57Z</time></trkpt><trkpt lat="43.24203617771319" lon="12.326844169737036"><ele>325.5</ele><time>2026-04-11T16:26:58Z</time></trkpt><trkpt lat="43.241928359726046" lon="12.326806712347686"><ele>322.0</ele><time>2026-04-11T16:26:59Z</time></trkpt><trkpt lat="43.241837379236344" lon="12.32672106339624"><ele>322.0</ele><time>2026-04-11T16:27:00Z</time></trkpt><trkpt lat="43.24175948341991" lon="12.32658456102812"><ele>322.0</ele><time>2026-04-11T16:27:01Z</time></trkpt><trkpt lat="43.24168696793503" lon="12.326410249428816"><ele>322.0</ele><time>2026-04-11T16:27:02Z</time></trkpt><trkpt lat="43.24160117906015" lon="12.326243792291965"><ele>322.0</ele><time>2026-04-11T16:27:03Z</time></trkpt><trkpt lat="43.24149303279518" lon="12.326085762867137"><ele>319.3333333333333</ele><time>2026-04-11T16:27:04Z</time></trkpt><trkpt lat="43.24137214905057" lon="12.325940878221623"><ele>316.6666666666667</ele><time>2026-04-11T16:27:05Z</time></trkpt><trkpt lat="43.24125373470334" lon="12.325806338100666"><ele>314.0</ele><time>2026-04-11T16:27:06Z</time></trkpt><trkpt lat="43.241137894360705" lon="12.325671466205574"><ele>317.0</ele><time>2026-04-11T16:27:07Z</time></trkpt><trkpt lat="43.24102565922473" lon="12.325542700155678"><ele>320.0</ele><time>2026-04-11T16:27:08Z</time></trkpt><trkpt lat="43.24093055482036" lon="12.325421639768702"><ele>323.0</ele><time>2026-04-11T16:27:09Z</time></trkpt><trkpt lat="43.24085274897287" lon="12.325287721050413"><ele>326.0</ele><time>2026-04-11T16:27:10Z</time></trkpt><trkpt lat="43.24080707945119" lon="12.325126402463763"><ele>326.0</ele><time>2026-04-11T16:27:11Z</time></trkpt><trkpt lat="43.24076488128273" lon="12.324931750004996"><ele>326.0</ele><time>2026-04-11T16:27:12Z</time></trkpt><trkpt lat="43.24075715510566" lon="12.324738075850185"><ele>326.0</ele><time>2026-04-11T16:27:13Z</time></trkpt><trkpt lat="43.24076290906985" lon="12.324574381278282"><ele>326.0</ele><time>2026-04-11T16:27:14Z</time></trkpt><trkpt lat="43.24078276304465" lon="12.32441945717366"><ele>323.25</ele><time>2026-04-11T16:27:15Z</time></trkpt><trkpt lat="43.240835344788394" lon="12.324286298680764"><ele>320.5</ele><time>2026-04-11T16:27:16Z</time></trkpt><trkpt lat="43.240926051921555" lon="12.324160715981384"><ele>317.75</ele><time>2026-04-11T16:27:17Z</time></trkpt><trkpt lat="43.24105755472593" lon="12.324063496229806"><ele>315.0</ele><time>2026-04-11T16:27:18Z</time></trkpt><trkpt lat="43.24121267575209" lon="12.323971354650496"><ele>315.6666666666667</ele><time>2026-04-11T16:27:19Z</time></trkpt><trkpt lat="43.24135655284541" lon="12.323889899884605"><ele>316.33333333333337</ele><time>2026-04-11T16:27:20Z</time></trkpt><trkpt lat="43.24147834051773" lon="12.323771980512563"><ele>317.0</ele><time>2026-04-11T16:27:21Z</time></trkpt><trkpt lat="43.24160254654579" lon="12.32364175574632"><ele>317.0</ele><time>2026-04-11T16:27:22Z</time></trkpt><trkpt lat="43.24171464190705" lon="12.323498038802757"><ele>317.0</ele><time>2026-04-11T16:27:23Z</time></trkpt><trkpt lat="43.24181541275408" lon="12.32333803671975"><ele>317.0</ele><time>2026-04-11T16:27:24Z</time></trkpt><trkpt lat="43.241900297844694" lon="12.323165598419084"><ele>313.75</ele><time>2026-04-11T16:27:25Z</time></trkpt><trkpt lat="43.2419717280382" lon="12.32297734628814"><ele>310.5</ele><time>2026-04-11T16:27:26Z</time></trkpt><trkpt lat="43.24203372822935" lon="12.322803289986002"><ele>307.25</ele><time>2026-04-11T16:27:27Z</time></trkpt><trkpt lat="43.24206882089936" lon="12.322620838192432"><ele>304.0</ele><time>2026-04-11T16:27:28Z</time></trkpt><trkpt lat="43.242069454453066" lon="12.322425934416621"><ele>304.0</ele><time>2026-04-11T16:27:29Z</time></trkpt><trkpt lat="43.242043374175246" lon="12.322218690563941"><ele>304.0</ele><time>2026-04-11T16:27:30Z</time></trkpt><trkpt lat="43.24201259558293" lon="12.321984818659553"><ele>304.0</ele><time>2026-04-11T16:27:31Z</time></trkpt><trkpt lat="43.24199324727511" lon="12.32175130448156"><ele>304.0</ele><time>2026-04-11T16:27:32Z</time></trkpt><trkpt lat="43.24197791559257" lon="12.321530451099672"><ele>304.0</ele><time>2026-04-11T16:27:33Z</time></trkpt><trkpt lat="43.24194891242019" lon="12.321331473588227"><ele>304.0</ele><time>2026-04-11T16:27:34Z</time></trkpt><trkpt lat="43.24190043566612" lon="12.32114397480649"><ele>307.0</ele><time>2026-04-11T16:27:35Z</time></trkpt><trkpt lat="43.24183131424488" lon="12.32096536689707"><ele>310.0</ele><time>2026-04-11T16:27:36Z</time></trkpt><trkpt lat="43.24174210037919" lon="12.320813564409537"><ele>313.0</ele><time>2026-04-11T16:27:37Z</time></trkpt><trkpt lat="43.24162482467481" lon="12.320654103984843"><ele>317.0</ele><time>2026-04-11T16:27:38Z</time></trkpt><trkpt lat="43.24150802190973" lon="12.320495406257335"><ele>321.0</ele><time>2026-04-11T16:27:39Z</time></trkpt><trkpt lat="43.2414183845307" lon="12.320327287759746"><ele>325.0</ele><time>2026-04-11T16:27:40Z</time></trkpt><trkpt lat="43.24137335837296" lon="12.320130593962352"><ele>317.0</ele><time>2026-04-11T16:27:41Z</time></trkpt><trkpt lat="43.241355104431435" lon="12.319898763201376"><ele>309.0</ele><time>2026-04-11T16:27:42Z</time></trkpt><trkpt lat="43.24133459826314" lon="12.319672229861048"><ele>301.0</ele><time>2026-04-11T16:27:43Z</time></trkpt><trkpt lat="43.241308156341915" lon="12.319469064653576"><ele>301.0</ele><time>2026-04-11T16:27:44Z</time></trkpt><trkpt lat="43.24126552206857" lon="12.319265114229177"><ele>301.0</ele><time>2026-04-11T16:27:45Z</time></trkpt><trkpt lat="43.241202733665446" lon="12.319079036239154"><ele>301.0</ele><time>2026-04-11T16:27:46Z</time></trkpt><trkpt lat="43.24110857415017" lon="12.318932339746398"><ele>301.0</ele><time>2026-04-11T16:27:47Z</time></trkpt><trkpt lat="43.24100635083668" lon="12.318802942684794"><ele>302.3333333333333</ele><time>2026-04-11T16:27:48Z</time></trkpt><trkpt lat="43.240882886889075" lon="12.31868667646345"><ele>303.6666666666667</ele><time>2026-04-11T16:27:49Z</time></trkpt><trkpt lat="43.24073618704681" lon="12.318574525913013"><ele>305.0</ele><time>2026-04-11T16:27:50Z</time></trkpt><trkpt lat="43.24055517565009" lon="12.318468686125067"><ele>305.0</ele><time>2026-04-11T16:27:51Z</time></trkpt><trkpt lat="43.24037710018201" lon="12.318367205192596"><ele>305.0</ele><time>2026-04-11T16:27:52Z</time></trkpt><trkpt lat="43.24021847059488" lon="12.31829068263574"><ele>305.0</ele><time>2026-04-11T16:27:53Z</time></trkpt><trkpt lat="43.24007063477264" lon="12.318212861241358"><ele>305.0</ele><time>2026-04-11T16:27:54Z</time></trkpt><trkpt lat="43.23992095279558" lon="12.31811983910229"><ele>305.0</ele><time>2026-04-11T16:27:55Z</time></trkpt><trkpt lat="43.239781951554555" lon="12.317996731634977"><ele>305.0</ele><time>2026-04-11T16:27:56Z</time></trkpt><trkpt lat="43.23963953796557" lon="12.317837759991747"><ele>304.6666666666667</ele><time>2026-04-11T16:27:57Z</time></trkpt><trkpt lat="43.239499542804836" lon="12.317690022442946"><ele>304.3333333333333</ele><time>2026-04-11T16:27:58Z</time></trkpt><trkpt lat="43.239362233698344" lon="12.317559761688718"><ele>304.0</ele><time>2026-04-11T16:27:59Z</time></trkpt><trkpt lat="43.23922624849629" lon="12.317447759092191"><ele>304.0</ele><time>2026-04-11T16:28:00Z</time></trkpt><trkpt lat="43.23908653572264" lon="12.317345321015132"><ele>304.0</ele><time>2026-04-11T16:28:01Z</time></trkpt><trkpt lat="43.23894959766972" lon="12.317241390204597"><ele>304.0</ele><time>2026-04-11T16:28:02Z</time></trkpt><trkpt lat="43.23881154928129" lon="12.317134937754982"><ele>304.25</ele><time>2026-04-11T16:28:03Z</time></trkpt><trkpt lat="43.23868511720105" lon="12.317018803938334"><ele>304.5</ele><time>2026-04-11T16:28:04Z</time></trkpt><trkpt lat="43.238563984104815" lon="12.316908748009059"><ele>304.75</ele><time>2026-04-11T16:28:05Z</time></trkpt><trkpt lat="43.23844929682321" lon="12.316787159617002"><ele>305.0</ele><time>2026-04-11T16:28:06Z</time></trkpt><trkpt lat="43.238332090438966" lon="12.316669117359902"><ele>305.0</ele><time>2026-04-11T16:28:07Z</time></trkpt><trkpt lat="43.238217345949565" lon="12.316568323264914"><ele>305.0</ele><time>2026-04-11T16:28:08Z</time></trkpt><trkpt lat="43.23811101887092" lon="12.316462120240507"><ele>305.0</ele><time>2026-04-11T16:28:09Z</time></trkpt><trkpt lat="43.23800843733823" lon="12.316379269774815"><ele>305.0</ele><time>2026-04-11T16:28:10Z</time></trkpt><trkpt lat="43.23790612117055" lon="12.316297517196913"><ele>304.2</ele><time>2026-04-11T16:28:11Z</time></trkpt><trkpt lat="43.23781848569191" lon="12.31622324173192"><ele>303.4</ele><time>2026-04-11T16:28:12Z</time></trkpt><trkpt lat="43.23773565676333" lon="12.316147816351808"><ele>302.6</ele><time>2026-04-11T16:28:13Z</time></trkpt><trkpt lat="43.23766690081594" lon="12.316066260895719"><ele>301.8</ele><time>2026-04-11T16:28:14Z</time></trkpt><trkpt lat="43.237613861301185" lon="12.31598750173634"><ele>301.0</ele><time>2026-04-11T16:28:15Z</time></trkpt><trkpt lat="43.237581549800076" lon="12.315879588329373"><ele>301.0</ele><time>2026-04-11T16:28:16Z</time></trkpt><trkpt lat="43.23756379486992" lon="12.315752029479336"><ele>301.0</ele><time>2026-04-11T16:28:17Z</time></trkpt><trkpt lat="43.23756782279917" lon="12.315613389366945"><ele>301.0</ele><time>2026-04-11T16:28:18Z</time></trkpt><trkpt lat="43.237581503931395" lon="12.31546508886132"><ele>301.0</ele><time>2026-04-11T16:28:19Z</time></trkpt><trkpt lat="43.237606546368355" lon="12.315316781835529"><ele>301.0</ele><time>2026-04-11T16:28:20Z</time></trkpt><trkpt lat="43.23763361302378" lon="12.315160952983607"><ele>301.5</ele><time>2026-04-11T16:28:21Z</time></trkpt><trkpt lat="43.23766197244636" lon="12.315004519323852"><ele>302.0</ele><time>2026-04-11T16:28:22Z</time></trkpt><trkpt lat="43.237690113657216" lon="12.31484589945969"><ele>302.5</ele><time>2026-04-11T16:28:23Z</time></trkpt><trkpt lat="43.23772703500972" lon="12.314677728055008"><ele>303.0</ele><time>2026-04-11T16:28:24Z</time></trkpt><trkpt lat="43.23777656015631" lon="12.314502353469788"><ele>303.0</ele><time>2026-04-11T16:28:25Z</time></trkpt><trkpt lat="43.23783561284248" lon="12.31433983416239"><ele>303.0</ele><time>2026-04-11T16:28:26Z</time></trkpt><trkpt lat="43.23790083581216" lon="12.314158114672793"><ele>303.0</ele><time>2026-04-11T16:28:27Z</time></trkpt><trkpt lat="43.23797703094868" lon="12.313969893032775"><ele>303.0</ele><time>2026-04-11T16:28:28Z</time></trkpt><trkpt lat="43.23805465996285" lon="12.313798799498935"><ele>302.75</ele><time>2026-04-11T16:28:29Z</time></trkpt><trkpt lat="43.238134797680516" lon="12.313630861980077"><ele>302.5</ele><time>2026-04-11T16:28:30Z</time></trkpt><trkpt lat="43.23820976283122" lon="12.313477254891676"><ele>302.25</ele><time>2026-04-11T16:28:31Z</time></trkpt><trkpt lat="43.238285268021315" lon="12.313337825666114"><ele>302.0</ele><time>2026-04-11T16:28:32Z</time></trkpt><trkpt lat="43.2383469573239" lon="12.313193611524007"><ele>304.0</ele><time>2026-04-11T16:28:33Z</time></trkpt><trkpt lat="43.23839219839848" lon="12.31305226778336"><ele>306.0</ele><time>2026-04-11T16:28:34Z</time></trkpt><trkpt lat="43.23840202697965" lon="12.312902929588201"><ele>308.0</ele><time>2026-04-11T16:28:35Z</time></trkpt><trkpt lat="43.23838198079588" lon="12.312765915792147"><ele>310.0</ele><time>2026-04-11T16:28:36Z</time></trkpt><trkpt lat="43.23835141329606" lon="12.312613816991155"><ele>312.0</ele><time>2026-04-11T16:28:37Z</time></trkpt><trkpt lat="43.23833451160558" lon="12.312457807108485"><ele>312.0</ele><time>2026-04-11T16:28:38Z</time></trkpt><trkpt lat="43.238319323411936" lon="12.312301313892748"><ele>312.0</ele><time>2026-04-11T16:28:39Z</time></trkpt><trkpt lat="43.23829769985735" lon="12.312164202031099"><ele>312.0</ele><time>2026-04-11T16:28:40Z</time></trkpt><trkpt lat="43.238284455340185" lon="12.312031073693332"><ele>312.0</ele><time>2026-04-11T16:28:41Z</time></trkpt><trkpt lat="43.238267599861885" lon="12.311893320465396"><ele>312.0</ele><time>2026-04-11T16:28:42Z</time></trkpt><trkpt lat="43.23824959506369" lon="12.311761871636707"><ele>312.2</ele><time>2026-04-11T16:28:43Z</time></trkpt><trkpt lat="43.23822843311119" lon="12.311635371634893"><ele>312.4</ele><time>2026-04-11T16:28:44Z</time></trkpt><trkpt lat="43.23820115021323" lon="12.311505360823384"><ele>312.6</ele><time>2026-04-11T16:28:45Z</time></trkpt><trkpt lat="43.238159032486976" lon="12.311374416710262"><ele>312.8</ele><time>2026-04-11T16:28:46Z</time></trkpt><trkpt lat="43.23809597005234" lon="12.311252120882083"><ele>313.0</ele><time>2026-04-11T16:28:47Z</time></trkpt><trkpt lat="43.23802324616742" lon="12.311129554190138"><ele>312.25</ele><time>2026-04-11T16:28:48Z</time></trkpt><trkpt lat="43.237931705128794" lon="12.311005803930072"><ele>311.5</ele><time>2026-04-11T16:28:49Z</time></trkpt><trkpt lat="43.23784347567898" lon="12.310881614090492"><ele>310.75</ele><time>2026-04-11T16:28:50Z</time></trkpt><trkpt lat="43.23775105211739" lon="12.310752420931282"><ele>310.0</ele><time>2026-04-11T16:28:51Z</time></trkpt><trkpt lat="43.237666433178504" lon="12.310622509965565"><ele>311.0</ele><time>2026-04-11T16:28:52Z</time></trkpt><trkpt lat="43.237592480541295" lon="12.310490060443579"><ele>312.0</ele><time>2026-04-11T16:28:53Z</time></trkpt><trkpt lat="43.237523289048525" lon="12.310343420333318"><ele>313.0</ele><time>2026-04-11T16:28:54Z</time></trkpt><trkpt lat="43.23745843647596" lon="12.310168847767121"><ele>314.0</ele><time>2026-04-11T16:28:55Z</time></trkpt><trkpt lat="43.23740122449529" lon="12.309976592812104"><ele>314.0</ele><time>2026-04-11T16:28:56Z</time></trkpt><trkpt lat="43.23734886594237" lon="12.309772188800457"><ele>314.0</ele><time>2026-04-11T16:28:57Z</time></trkpt><trkpt lat="43.23729087681348" lon="12.309556807328734"><ele>314.0</ele><time>2026-04-11T16:28:58Z</time></trkpt><trkpt lat="43.237230266285124" lon="12.309343887380365"><ele>312.33333333333337</ele><time>2026-04-11T16:28:59Z</time></trkpt><trkpt lat="43.23717718999436" lon="12.309133132432102"><ele>310.6666666666667</ele><time>2026-04-11T16:29:00Z</time></trkpt><trkpt lat="43.237125641258366" lon="12.30892343051986"><ele>309.0</ele><time>2026-04-11T16:29:01Z</time></trkpt><trkpt lat="43.23707744755581" lon="12.308718775619914"><ele>309.0</ele><time>2026-04-11T16:29:02Z</time></trkpt><trkpt lat="43.237041297692706" lon="12.308520164924422"><ele>309.0</ele><time>2026-04-11T16:29:03Z</time></trkpt><trkpt lat="43.237022972531946" lon="12.308363596889171"><ele>309.0</ele><time>2026-04-11T16:29:04Z</time></trkpt><trkpt lat="43.23701251890641" lon="12.308233832146922"><ele>309.0</ele><time>2026-04-11T16:29:05Z</time></trkpt><trkpt lat="43.23700098357214" lon="12.308078543658151"><ele>309.3333333333333</ele><time>2026-04-11T16:29:06Z</time></trkpt><trkpt lat="43.23700134830781" lon="12.307874537154852"><ele>309.66666666666663</ele><time>2026-04-11T16:29:07Z</time></trkpt><trkpt lat="43.23701277675872" lon="12.307628709989933"><ele>310.0</ele><time>2026-04-11T16:29:08Z</time></trkpt><trkpt lat="43.23702849125296" lon="12.307375353789043"><ele>310.3333333333333</ele><time>2026-04-11T16:29:09Z</time></trkpt><trkpt lat="43.23704429580233" lon="12.307130876755833"><ele>310.6666666666667</ele><time>2026-04-11T16:29:10Z</time></trkpt><trkpt lat="43.237055245169906" lon="12.306907099999862"><ele>311.0</ele><time>2026-04-11T16:29:11Z</time></trkpt><trkpt lat="43.23706478007398" lon="12.306692854025034"><ele>311.0</ele><time>2026-04-11T16:29:12Z</time></trkpt><trkpt lat="43.23707670258132" lon="12.306488493081318"><ele>311.0</ele><time>2026-04-11T16:29:13Z</time></trkpt><trkpt lat="43.2370884184778" lon="12.306297251799196"><ele>311.0</ele><time>2026-04-11T16:29:14Z</time></trkpt><trkpt lat="43.237100451332225" lon="12.306096463788567"><ele>311.0</ele><time>2026-04-11T16:29:15Z</time></trkpt><trkpt lat="43.23710866530227" lon="12.305896782116356"><ele>310.75</ele><time>2026-04-11T16:29:16Z</time></trkpt><trkpt lat="43.23711792323658" lon="12.305712417706522"><ele>310.5</ele><time>2026-04-11T16:29:17Z</time></trkpt><trkpt lat="43.23712703778132" lon="12.3055345312349"><ele>310.25</ele><time>2026-04-11T16:29:18Z</time></trkpt><trkpt lat="43.23713720031973" lon="12.305361261490251"><ele>310.0</ele><time>2026-04-11T16:29:19Z</time></trkpt><trkpt lat="43.23714823165049" lon="12.305179741893681"><ele>311.0</ele><time>2026-04-11T16:29:20Z</time></trkpt><trkpt lat="43.23715685764706" lon="12.304976769215783"><ele>312.0</ele><time>2026-04-11T16:29:21Z</time></trkpt><trkpt lat="43.23716226178272" lon="12.30475953244343"><ele>313.0</ele><time>2026-04-11T16:29:22Z</time></trkpt><trkpt lat="43.23717238536369" lon="12.304521297876732"><ele>313.3333333333333</ele><time>2026-04-11T16:29:23Z</time></trkpt><trkpt lat="43.2371855344234" lon="12.304273726041028"><ele>313.6666666666667</ele><time>2026-04-11T16:29:24Z</time></trkpt><trkpt lat="43.23719979997785" lon="12.30403418454779"><ele>314.0</ele><time>2026-04-11T16:29:25Z</time></trkpt><trkpt lat="43.23721458692179" lon="12.303817390131037"><ele>314.0</ele><time>2026-04-11T16:29:26Z</time></trkpt><trkpt lat="43.23722587148587" lon="12.303617921013837"><ele>314.0</ele><time>2026-04-11T16:29:27Z</time></trkpt><trkpt lat="43.23724051759699" lon="12.303435412780676"><ele>314.0</ele><time>2026-04-11T16:29:28Z</time></trkpt><trkpt lat="43.23727108221001" lon="12.303241878997659"><ele>314.0</ele><time>2026-04-11T16:29:29Z</time></trkpt><trkpt lat="43.237334204587825" lon="12.303044679982948"><ele>317.33333333333337</ele><time>2026-04-11T16:29:30Z</time></trkpt><trkpt lat="43.23743004703335" lon="12.302835747588793"><ele>320.6666666666667</ele><time>2026-04-11T16:29:31Z</time></trkpt><trkpt lat="43.23752823836119" lon="12.302607421836711"><ele>324.0</ele><time>2026-04-11T16:29:32Z</time></trkpt><trkpt lat="43.23763075202484" lon="12.302344385599758"><ele>322.3333333333333</ele><time>2026-04-11T16:29:33Z</time></trkpt><trkpt lat="43.237721548808324" lon="12.302090399664774"><ele>320.66666666666663</ele><time>2026-04-11T16:29:34Z</time></trkpt><trkpt lat="43.23779958713558" lon="12.301867067391694"><ele>319.0</ele><time>2026-04-11T16:29:35Z</time></trkpt><trkpt lat="43.2378772777553" lon="12.30166232647706"><ele>319.0</ele><time>2026-04-11T16:29:36Z</time></trkpt><trkpt lat="43.23795041920069" lon="12.301471578442433"><ele>319.0</ele><time>2026-04-11T16:29:37Z</time></trkpt><trkpt lat="43.23801767102743" lon="12.301289424383006"><ele>319.0</ele><time>2026-04-11T16:29:38Z</time></trkpt><trkpt lat="43.23806238502789" lon="12.301112568739466"><ele>319.0</ele><time>2026-04-11T16:29:39Z</time></trkpt><trkpt lat="43.23807791830627" lon="12.300928285421477"><ele>319.0</ele><time>2026-04-11T16:29:40Z</time></trkpt><trkpt lat="43.238068686195" lon="12.30072777433853"><ele>319.0</ele><time>2026-04-11T16:29:41Z</time></trkpt><trkpt lat="43.23802763075027" lon="12.300489587563973"><ele>319.0</ele><time>2026-04-11T16:29:42Z</time></trkpt><trkpt lat="43.23799972499822" lon="12.300246422817393"><ele>320.3333333333333</ele><time>2026-04-11T16:29:43Z</time></trkpt><trkpt lat="43.237978971229666" lon="12.29999964734393"><ele>321.6666666666667</ele><time>2026-04-11T16:29:44Z</time></trkpt><trkpt lat="43.23795759305718" lon="12.299773964655367"><ele>323.0</ele><time>2026-04-11T16:29:45Z</time></trkpt><trkpt lat="43.23793966946769" lon="12.29955557828156"><ele>323.0</ele><time>2026-04-11T16:29:46Z</time></trkpt><trkpt lat="43.23792445690261" lon="12.299336793113854"><ele>323.0</ele><time>2026-04-11T16:29:47Z</time></trkpt><trkpt lat="43.23791940813844" lon="12.299112023350602"><ele>323.0</ele><time>2026-04-11T16:29:48Z</time></trkpt><trkpt lat="43.237914994665324" lon="12.29887898380934"><ele>323.0</ele><time>2026-04-11T16:29:49Z</time></trkpt><trkpt lat="43.237911927483296" lon="12.298641560042466"><ele>323.0</ele><time>2026-04-11T16:29:50Z</time></trkpt><trkpt lat="43.23790773269916" lon="12.298407400085217"><ele>323.0</ele><time>2026-04-11T16:29:51Z</time></trkpt><trkpt lat="43.237904199315466" lon="12.298179783180725"><ele>324.0</ele><time>2026-04-11T16:29:52Z</time></trkpt><trkpt lat="43.23790462483581" lon="12.29795313647086"><ele>325.0</ele><time>2026-04-11T16:29:53Z</time></trkpt><trkpt lat="43.237907126809596" lon="12.29773118356479"><ele>326.0</ele><time>2026-04-11T16:29:54Z</time></trkpt><trkpt lat="43.237906594038414" lon="12.297504433489344"><ele>326.0</ele><time>2026-04-11T16:29:55Z</time></trkpt><trkpt lat="43.23790168722503" lon="12.297271876740716"><ele>326.0</ele><time>2026-04-11T16:29:56Z</time></trkpt><trkpt lat="43.23789302953796" lon="12.297038909554878"><ele>326.0</ele><time>2026-04-11T16:29:57Z</time></trkpt><trkpt lat="43.237875757153795" lon="12.296797811552105"><ele>326.0</ele><time>2026-04-11T16:29:58Z</time></trkpt><trkpt lat="43.2378483731344" lon="12.29655817069028"><ele>326.0</ele><time>2026-04-11T16:29:59Z</time></trkpt><trkpt lat="43.23781946468206" lon="12.296321755070682"><ele>326.0</ele><time>2026-04-11T16:30:00Z</time></trkpt><trkpt lat="43.23778991133204" lon="12.29609455865435"><ele>326.0</ele><time>2026-04-11T16:30:01Z</time></trkpt><trkpt lat="43.23776884386523" lon="12.295879974946388"><ele>326.0</ele><time>2026-04-11T16:30:02Z</time></trkpt><trkpt lat="43.23773926822296" lon="12.295667742613148"><ele>326.0</ele><time>2026-04-11T16:30:03Z</time></trkpt><trkpt lat="43.237717954027445" lon="12.295451009539136"><ele>326.0</ele><time>2026-04-11T16:30:04Z</time></trkpt><trkpt lat="43.23770840636942" lon="12.295223699214766"><ele>326.0</ele><time>2026-04-11T16:30:05Z</time></trkpt><trkpt lat="43.23771775666317" lon="12.294988892302015"><ele>326.0</ele><time>2026-04-11T16:30:06Z</time></trkpt><trkpt lat="43.237739280332704" lon="12.294737463691995"><ele>326.0</ele><time>2026-04-11T16:30:07Z</time></trkpt><trkpt lat="43.23775668467768" lon="12.294490313225095"><ele>326.0</ele><time>2026-04-11T16:30:08Z</time></trkpt><trkpt lat="43.237768796821975" lon="12.294255572625078"><ele>326.0</ele><time>2026-04-11T16:30:09Z</time></trkpt><trkpt lat="43.237776922959696" lon="12.294031123280847"><ele>326.0</ele><time>2026-04-11T16:30:10Z</time></trkpt><trkpt lat="43.237784356558045" lon="12.29381254644693"><ele>326.0</ele><time>2026-04-11T16:30:11Z</time></trkpt><trkpt lat="43.23780112733133" lon="12.293612553257178"><ele>326.0</ele><time>2026-04-11T16:30:12Z</time></trkpt><trkpt lat="43.237835151124976" lon="12.293444650514981"><ele>326.0</ele><time>2026-04-11T16:30:13Z</time></trkpt><trkpt lat="43.2378969891427" lon="12.293298532199248"><ele>326.0</ele><time>2026-04-11T16:30:14Z</time></trkpt><trkpt lat="43.23796991442562" lon="12.293172666284613"><ele>326.0</ele><time>2026-04-11T16:30:15Z</time></trkpt><trkpt lat="43.23805855347584" lon="12.293077772699995"><ele>326.0</ele><time>2026-04-11T16:30:16Z</time></trkpt><trkpt lat="43.238135767462715" lon="12.29300168657252"><ele>326.0</ele><time>2026-04-11T16:30:17Z</time></trkpt><trkpt lat="43.238185169073766" lon="12.292923037408313"><ele>326.0</ele><time>2026-04-11T16:30:18Z</time></trkpt><trkpt lat="43.23820531163184" lon="12.292784527056762"><ele>326.5</ele><time>2026-04-11T16:30:19Z</time></trkpt><trkpt lat="43.23819399360986" lon="12.292616348471718"><ele>327.0</ele><time>2026-04-11T16:30:20Z</time></trkpt><trkpt lat="43.23817241401126" lon="12.29242631744826"><ele>327.5</ele><time>2026-04-11T16:30:21Z</time></trkpt><trkpt lat="43.23816087240914" lon="12.292232187019025"><ele>328.0</ele><time>2026-04-11T16:30:22Z</time></trkpt><trkpt lat="43.23815472993051" lon="12.292025355729267"><ele>328.0</ele><time>2026-04-11T16:30:23Z</time></trkpt><trkpt lat="43.23815308713722" lon="12.291819509564807"><ele>328.0</ele><time>2026-04-11T16:30:24Z</time></trkpt><trkpt lat="43.23815393421696" lon="12.291630541759162"><ele>328.0</ele><time>2026-04-11T16:30:25Z</time></trkpt><trkpt lat="43.23816130183517" lon="12.291454086526095"><ele>328.0</ele><time>2026-04-11T16:30:26Z</time></trkpt><trkpt lat="43.23819401455426" lon="12.291305003795214"><ele>330.79999999999995</ele><time>2026-04-11T16:30:27Z</time></trkpt><trkpt lat="43.2382652707109" lon="12.291197840725376"><ele>333.6</ele><time>2026-04-11T16:30:28Z</time></trkpt><trkpt lat="43.238364242901" lon="12.291121463559037"><ele>336.4</ele><time>2026-04-11T16:30:29Z</time></trkpt><trkpt lat="43.23845788285081" lon="12.291062506887068"><ele>339.20000000000005</ele><time>2026-04-11T16:30:30Z</time></trkpt><trkpt lat="43.23853264712818" lon="12.2910109596372"><ele>342.0</ele><time>2026-04-11T16:30:31Z</time></trkpt><trkpt lat="43.23860105472088" lon="12.290960362454161"><ele>342.0</ele><time>2026-04-11T16:30:32Z</time></trkpt><trkpt lat="43.238702996920246" lon="12.290891453896995"><ele>342.0</ele><time>2026-04-11T16:30:34Z</time></trkpt><trkpt lat="43.238787841587104" lon="12.290832753839116"><ele>342.0</ele><time>2026-04-11T16:30:36Z</time></trkpt><trkpt lat="43.23886247429725" lon="12.29078849407031"><ele>342.0</ele><time>2026-04-11T16:30:38Z</time></trkpt><trkpt lat="43.23894474879637" lon="12.290764080959185"><ele>342.0</ele><time>2026-04-11T16:30:41Z</time></trkpt><trkpt lat="43.23903383757576" lon="12.290753265474754"><ele>341.5</ele><time>2026-04-11T16:30:43Z</time></trkpt><trkpt lat="43.23909564890276" lon="12.290730762280269"><ele>341.0</ele><time>2026-04-11T16:30:44Z</time></trkpt><trkpt lat="43.23916446944782" lon="12.29070880469761"><ele>340.5</ele><time>2026-04-11T16:30:45Z</time></trkpt><trkpt lat="43.239243147198906" lon="12.290682726417955"><ele>340.0</ele><time>2026-04-11T16:30:46Z</time></trkpt><trkpt lat="43.239327887851424" lon="12.29064940773398"><ele>339.5</ele><time>2026-04-11T16:30:47Z</time></trkpt><trkpt lat="43.23942066803317" lon="12.29060816191328"><ele>339.0</ele><time>2026-04-11T16:30:48Z</time></trkpt><trkpt lat="43.239518671025614" lon="12.290541858108305"><ele>339.6</ele><time>2026-04-11T16:30:49Z</time></trkpt><trkpt lat="43.239609413792394" lon="12.290469213705888"><ele>340.2</ele><time>2026-04-11T16:30:50Z</time></trkpt><trkpt lat="43.23969061907454" lon="12.290387269052141"><ele>340.8</ele><time>2026-04-11T16:30:51Z</time></trkpt><trkpt lat="43.23977485789668" lon="12.290313041375658"><ele>341.40000000000003</ele><time>2026-04-11T16:30:52Z</time></trkpt><trkpt lat="43.239859968811366" lon="12.29023970890427"><ele>342.0</ele><time>2026-04-11T16:30:53Z</time></trkpt><trkpt lat="43.23994816859017" lon="12.290169531854094"><ele>342.0</ele><time>2026-04-11T16:30:54Z</time></trkpt><trkpt lat="43.2400402223804" lon="12.290108541134062"><ele>342.0</ele><time>2026-04-11T16:30:55Z</time></trkpt><trkpt lat="43.240140304229165" lon="12.290056516782117"><ele>342.0</ele><time>2026-04-11T16:30:56Z</time></trkpt><trkpt lat="43.240241365088536" lon="12.290006222893998"><ele>342.0</ele><time>2026-04-11T16:30:57Z</time></trkpt><trkpt lat="43.240341633099604" lon="12.28995614393589"><ele>342.0</ele><time>2026-04-11T16:30:58Z</time></trkpt><trkpt lat="43.240440043334736" lon="12.289896503955406"><ele>342.0</ele><time>2026-04-11T16:30:59Z</time></trkpt><trkpt lat="43.24053875673131" lon="12.289810756639698"><ele>342.0</ele><time>2026-04-11T16:31:00Z</time></trkpt><trkpt lat="43.24062999195014" lon="12.289702020590019"><ele>342.0</ele><time>2026-04-11T16:31:01Z</time></trkpt><trkpt lat="43.24071791217175" lon="12.289580407381823"><ele>342.0</ele><time>2026-04-11T16:31:02Z</time></trkpt><trkpt lat="43.24080471672688" lon="12.2894552281278"><ele>341.20000000000005</ele><time>2026-04-11T16:31:03Z</time></trkpt><trkpt lat="43.24089203390297" lon="12.289336463683252"><ele>340.4</ele><time>2026-04-11T16:31:04Z</time></trkpt><trkpt lat="43.24097352079986" lon="12.289229478474356"><ele>339.6</ele><time>2026-04-11T16:31:05Z</time></trkpt><trkpt lat="43.24103168143246" lon="12.289121619224735"><ele>338.79999999999995</ele><time>2026-04-11T16:31:06Z</time></trkpt><trkpt lat="43.241079774908506" lon="12.289002521414162"><ele>338.0</ele><time>2026-04-11T16:31:07Z</time></trkpt><trkpt lat="43.24109914246972" lon="12.28887238783271"><ele>338.0</ele><time>2026-04-11T16:31:08Z</time></trkpt><trkpt lat="43.24109353239521" lon="12.28871060280948"><ele>338.0</ele><time>2026-04-11T16:31:09Z</time></trkpt><trkpt lat="43.24107110535457" lon="12.288537112776027"><ele>338.0</ele><time>2026-04-11T16:31:10Z</time></trkpt><trkpt lat="43.24105482756187" lon="12.288363311767544"><ele>338.0</ele><time>2026-04-11T16:31:11Z</time></trkpt><trkpt lat="43.24105381531341" lon="12.28819478129496"><ele>338.25</ele><time>2026-04-11T16:31:12Z</time></trkpt><trkpt lat="43.24104409589235" lon="12.288024757739882"><ele>338.5</ele><time>2026-04-11T16:31:13Z</time></trkpt><trkpt lat="43.241035499258075" lon="12.287853468825238"><ele>338.75</ele><time>2026-04-11T16:31:14Z</time></trkpt><trkpt lat="43.241022616393515" lon="12.2876796384771"><ele>339.0</ele><time>2026-04-11T16:31:15Z</time></trkpt><trkpt lat="43.24101145582519" lon="12.287503581989444"><ele>339.0</ele><time>2026-04-11T16:31:16Z</time></trkpt><trkpt lat="43.24100260934668" lon="12.28732783723994"><ele>339.0</ele><time>2026-04-11T16:31:17Z</time></trkpt><trkpt lat="43.240992611710666" lon="12.287147952465435"><ele>339.0</ele><time>2026-04-11T16:31:18Z</time></trkpt><trkpt lat="43.240981565617695" lon="12.286971972881629"><ele>339.0</ele><time>2026-04-11T16:31:19Z</time></trkpt><trkpt lat="43.240975110729835" lon="12.286797600508354"><ele>339.5</ele><time>2026-04-11T16:31:20Z</time></trkpt><trkpt lat="43.24095859612265" lon="12.28659694066101"><ele>340.0</ele><time>2026-04-11T16:31:21Z</time></trkpt><trkpt lat="43.24094701753876" lon="12.286414182714095"><ele>340.5</ele><time>2026-04-11T16:31:22Z</time></trkpt><trkpt lat="43.240938557428045" lon="12.286233869237872"><ele>341.0</ele><time>2026-04-11T16:31:23Z</time></trkpt><trkpt lat="43.24093005034932" lon="12.286051693179665"><ele>341.75</ele><time>2026-04-11T16:31:24Z</time></trkpt><trkpt lat="43.240922209923205" lon="12.285868606441463"><ele>342.5</ele><time>2026-04-11T16:31:25Z</time></trkpt><trkpt lat="43.240923971873784" lon="12.285705222463529"><ele>343.25</ele><time>2026-04-11T16:31:26Z</time></trkpt><trkpt lat="43.24093651000552" lon="12.28553889807761"><ele>344.0</ele><time>2026-04-11T16:31:27Z</time></trkpt><trkpt lat="43.24096880569955" lon="12.28537206791244"><ele>345.0</ele><time>2026-04-11T16:31:28Z</time></trkpt><trkpt lat="43.24099753539904" lon="12.285200086065643"><ele>346.0</ele><time>2026-04-11T16:31:29Z</time></trkpt><trkpt lat="43.241030254047246" lon="12.285039460999107"><ele>347.0</ele><time>2026-04-11T16:31:30Z</time></trkpt><trkpt lat="43.241072518828354" lon="12.284890007275823"><ele>348.0</ele><time>2026-04-11T16:31:31Z</time></trkpt><trkpt lat="43.24112770444473" lon="12.284744984915028"><ele>349.6666666666667</ele><time>2026-04-11T16:31:32Z</time></trkpt><trkpt lat="43.241207152769505" lon="12.284590609621267"><ele>351.33333333333337</ele><time>2026-04-11T16:31:33Z</time></trkpt><trkpt lat="43.241310033057154" lon="12.284429299939056"><ele>353.0</ele><time>2026-04-11T16:31:34Z</time></trkpt><trkpt lat="43.24141600424658" lon="12.284256353653054"><ele>354.0</ele><time>2026-04-11T16:31:35Z</time></trkpt><trkpt lat="43.241503243531085" lon="12.284101014045175"><ele>355.0</ele><time>2026-04-11T16:31:36Z</time></trkpt><trkpt lat="43.24157238747829" lon="12.283933753509249"><ele>356.0</ele><time>2026-04-11T16:31:37Z</time></trkpt><trkpt lat="43.24163442504808" lon="12.283744664523239"><ele>357.0</ele><time>2026-04-11T16:31:38Z</time></trkpt><trkpt lat="43.24168355183653" lon="12.283546722521672"><ele>355.0</ele><time>2026-04-11T16:31:39Z</time></trkpt><trkpt lat="43.24172746728388" lon="12.283358627059785"><ele>353.0</ele><time>2026-04-11T16:31:40Z</time></trkpt><trkpt lat="43.241767469612164" lon="12.28320408828959"><ele>351.0</ele><time>2026-04-11T16:31:41Z</time></trkpt><trkpt lat="43.241787337668036" lon="12.283022737260438"><ele>349.0</ele><time>2026-04-11T16:31:42Z</time></trkpt><trkpt lat="43.24180683273722" lon="12.28285880253848"><ele>349.25</ele><time>2026-04-11T16:31:43Z</time></trkpt><trkpt lat="43.24180433111105" lon="12.28269635942316"><ele>349.5</ele><time>2026-04-11T16:31:44Z</time></trkpt><trkpt lat="43.241784373846485" lon="12.282534685601146"><ele>349.75</ele><time>2026-04-11T16:31:45Z</time></trkpt><trkpt lat="43.241742544415565" lon="12.282380367147669"><ele>350.0</ele><time>2026-04-11T16:31:46Z</time></trkpt><trkpt lat="43.241691085843314" lon="12.28221179601946"><ele>350.0</ele><time>2026-04-11T16:31:47Z</time></trkpt><trkpt lat="43.24163147728396" lon="12.282033063127393"><ele>350.0</ele><time>2026-04-11T16:31:48Z</time></trkpt><trkpt lat="43.2415760156956" lon="12.281839543013206"><ele>350.0</ele><time>2026-04-11T16:31:49Z</time></trkpt><trkpt lat="43.241513455078746" lon="12.281647595103085"><ele>350.0</ele><time>2026-04-11T16:31:50Z</time></trkpt><trkpt lat="43.2414514697929" lon="12.281463617364896"><ele>350.75</ele><time>2026-04-11T16:31:51Z</time></trkpt><trkpt lat="43.24139482862583" lon="12.281281751846683"><ele>351.5</ele><time>2026-04-11T16:31:52Z</time></trkpt><trkpt lat="43.24133956109629" lon="12.281102807344142"><ele>352.25</ele><time>2026-04-11T16:31:53Z</time></trkpt><trkpt lat="43.241284623554264" lon="12.280932151099101"><ele>353.0</ele><time>2026-04-11T16:31:54Z</time></trkpt><trkpt lat="43.2412252742901" lon="12.280763540968538"><ele>353.75</ele><time>2026-04-11T16:31:55Z</time></trkpt><trkpt lat="43.24117132128958" lon="12.280598961570716"><ele>354.5</ele><time>2026-04-11T16:31:56Z</time></trkpt><trkpt lat="43.24112295132848" lon="12.280436518210124"><ele>355.25</ele><time>2026-04-11T16:31:57Z</time></trkpt><trkpt lat="43.241086694482" lon="12.280251203574299"><ele>356.0</ele><time>2026-04-11T16:31:58Z</time></trkpt><trkpt lat="43.24106566541878" lon="12.280048889902464"><ele>356.0</ele><time>2026-04-11T16:31:59Z</time></trkpt><trkpt lat="43.2410566984586" lon="12.279836206790858"><ele>356.0</ele><time>2026-04-11T16:32:00Z</time></trkpt><trkpt lat="43.24105042716692" lon="12.279614701497527"><ele>356.0</ele><time>2026-04-11T16:32:01Z</time></trkpt><trkpt lat="43.24103988885647" lon="12.279388103502813"><ele>356.0</ele><time>2026-04-11T16:32:02Z</time></trkpt><trkpt lat="43.241025132888446" lon="12.279176273662584"><ele>356.0</ele><time>2026-04-11T16:32:03Z</time></trkpt><trkpt lat="43.24102014595617" lon="12.278960859478532"><ele>356.0</ele><time>2026-04-11T16:32:04Z</time></trkpt><trkpt lat="43.24101897454329" lon="12.278756710842542"><ele>356.0</ele><time>2026-04-11T16:32:05Z</time></trkpt><trkpt lat="43.24100841285167" lon="12.278576897628643"><ele>356.0</ele><time>2026-04-11T16:32:06Z</time></trkpt><trkpt lat="43.24100311386245" lon="12.27838720373399"><ele>356.0</ele><time>2026-04-11T16:32:07Z</time></trkpt><trkpt lat="43.24099117689654" lon="12.278180887242181"><ele>356.0</ele><time>2026-04-11T16:32:08Z</time></trkpt><trkpt lat="43.24097810994204" lon="12.277980957291943"><ele>357.25</ele><time>2026-04-11T16:32:09Z</time></trkpt><trkpt lat="43.24096891592276" lon="12.27779070863973"><ele>358.5</ele><time>2026-04-11T16:32:10Z</time></trkpt><trkpt lat="43.240964315342175" lon="12.277613006262248"><ele>359.75</ele><time>2026-04-11T16:32:11Z</time></trkpt><trkpt lat="43.24096039959365" lon="12.277469468962106"><ele>361.0</ele><time>2026-04-11T16:32:12Z</time></trkpt><trkpt lat="43.24095047215958" lon="12.277340227972738"><ele>360.4</ele><time>2026-04-11T16:32:13Z</time></trkpt><trkpt lat="43.24090600410535" lon="12.277220166694674"><ele>359.8</ele><time>2026-04-11T16:32:14Z</time></trkpt><trkpt lat="43.24083343453032" lon="12.277119932851463"><ele>359.2</ele><time>2026-04-11T16:32:15Z</time></trkpt><trkpt lat="43.24076014160626" lon="12.277078425023209"><ele>358.59999999999997</ele><time>2026-04-11T16:32:16Z</time></trkpt><trkpt lat="43.240666286364224" lon="12.276997169467428"><ele>358.0</ele><time>2026-04-11T16:32:18Z</time></trkpt><trkpt lat="43.240612104869115" lon="12.276890120713661"><ele>361.2</ele><time>2026-04-11T16:32:20Z</time></trkpt><trkpt lat="43.24064434109571" lon="12.276798727654578"><ele>364.4</ele><time>2026-04-11T16:32:22Z</time></trkpt><trkpt lat="43.24076882088157" lon="12.276846361341088"><ele>367.59999999999997</ele><time>2026-04-11T16:32:25Z</time></trkpt><trkpt lat="43.24084124942442" lon="12.276911094321639"><ele>370.79999999999995</ele><time>2026-04-11T16:32:26Z</time></trkpt><trkpt lat="43.24093488973833" lon="12.276922250096169"><ele>374.0</ele><time>2026-04-11T16:32:27Z</time></trkpt><trkpt lat="43.241045551482834" lon="12.276905233151497"><ele>374.0</ele><time>2026-04-11T16:32:28Z</time></trkpt><trkpt lat="43.24116127661658" lon="12.276864297937957"><ele>374.0</ele><time>2026-04-11T16:32:29Z</time></trkpt><trkpt lat="43.24127589041445" lon="12.276823310599452"><ele>374.0</ele><time>2026-04-11T16:32:30Z</time></trkpt><trkpt lat="43.24138114332243" lon="12.276792241260786"><ele>374.0</ele><time>2026-04-11T16:32:31Z</time></trkpt><trkpt lat="43.24147881470455" lon="12.27676010096399"><ele>374.0</ele><time>2026-04-11T16:32:32Z</time></trkpt><trkpt lat="43.24158377154407" lon="12.27675238085101"><ele>375.79999999999995</ele><time>2026-04-11T16:32:33Z</time></trkpt><trkpt lat="43.24167521092431" lon="12.276758474725135"><ele>377.59999999999997</ele><time>2026-04-11T16:32:34Z</time></trkpt><trkpt lat="43.24176085091581" lon="12.276803757274273"><ele>379.4</ele><time>2026-04-11T16:32:35Z</time></trkpt><trkpt lat="43.24184311719927" lon="12.276874133097099"><ele>381.2</ele><time>2026-04-11T16:32:36Z</time></trkpt><trkpt lat="43.241922017066635" lon="12.276975515454373"><ele>383.0</ele><time>2026-04-11T16:32:37Z</time></trkpt><trkpt lat="43.242004007535826" lon="12.277102225342718"><ele>383.0</ele><time>2026-04-11T16:32:38Z</time></trkpt><trkpt lat="43.24208809201295" lon="12.277222712717519"><ele>383.0</ele><time>2026-04-11T16:32:39Z</time></trkpt><trkpt lat="43.242155970937986" lon="12.277316023657985"><ele>383.0</ele><time>2026-04-11T16:32:40Z</time></trkpt><trkpt lat="43.242218125735256" lon="12.27739350806851"><ele>383.0</ele><time>2026-04-11T16:32:41Z</time></trkpt><trkpt lat="43.242273151486486" lon="12.277487430376585"><ele>383.0</ele><time>2026-04-11T16:32:42Z</time></trkpt><trkpt lat="43.24231539524206" lon="12.277594149293662"><ele>385.4</ele><time>2026-04-11T16:32:43Z</time></trkpt><trkpt lat="43.24233335692697" lon="12.27771261506735"><ele>387.79999999999995</ele><time>2026-04-11T16:32:44Z</time></trkpt><trkpt lat="43.24234212431198" lon="12.277819625977683"><ele>390.2</ele><time>2026-04-11T16:32:45Z</time></trkpt><trkpt lat="43.24235131001211" lon="12.277906071905148"><ele>392.6</ele><time>2026-04-11T16:32:46Z</time></trkpt><trkpt lat="43.2423769255026" lon="12.278060309451098"><ele>395.0</ele><time>2026-04-11T16:32:48Z</time></trkpt><trkpt lat="43.24248084604683" lon="12.278127618375402"><ele>395.0</ele><time>2026-04-11T16:32:50Z</time></trkpt><trkpt lat="43.242544296821876" lon="12.278095138401317"><ele>395.0</ele><time>2026-04-11T16:32:51Z</time></trkpt><trkpt lat="43.24260866201534" lon="12.278016761815191"><ele>395.0</ele><time>2026-04-11T16:32:52Z</time></trkpt><trkpt lat="43.24267997988568" lon="12.277905085109223"><ele>395.0</ele><time>2026-04-11T16:32:53Z</time></trkpt><trkpt lat="43.24276475103472" lon="12.277791585632333"><ele>395.0</ele><time>2026-04-11T16:32:54Z</time></trkpt><trkpt lat="43.242856153324276" lon="12.277683237297106"><ele>395.0</ele><time>2026-04-11T16:32:55Z</time></trkpt><trkpt lat="43.24294342474298" lon="12.277580913871644"><ele>395.0</ele><time>2026-04-11T16:32:56Z</time></trkpt><trkpt lat="43.24302383729552" lon="12.277486405553683"><ele>395.0</ele><time>2026-04-11T16:32:57Z</time></trkpt><trkpt lat="43.243095306524026" lon="12.277388127324324"><ele>395.0</ele><time>2026-04-11T16:32:58Z</time></trkpt><trkpt lat="43.243157736185054" lon="12.27726725062003"><ele>395.0</ele><time>2026-04-11T16:32:59Z</time></trkpt><trkpt lat="43.24320785567206" lon="12.277121990652562"><ele>396.4</ele><time>2026-04-11T16:33:00Z</time></trkpt><trkpt lat="43.24323711644854" lon="12.276979126315355"><ele>397.8</ele><time>2026-04-11T16:33:01Z</time></trkpt><trkpt lat="43.243258912351294" lon="12.276843965138038"><ele>399.20000000000005</ele><time>2026-04-11T16:33:02Z</time></trkpt><trkpt lat="43.24328116859058" lon="12.276707843712868"><ele>400.6</ele><time>2026-04-11T16:33:03Z</time></trkpt><trkpt lat="43.2433074287019" lon="12.276571706500217"><ele>402.0</ele><time>2026-04-11T16:33:04Z</time></trkpt><trkpt lat="43.24332919189375" lon="12.276441997777134"><ele>402.40000000000003</ele><time>2026-04-11T16:33:05Z</time></trkpt><trkpt lat="43.24335164976532" lon="12.276316509202445"><ele>402.8</ele><time>2026-04-11T16:33:06Z</time></trkpt><trkpt lat="43.24337460308155" lon="12.276196539002198"><ele>403.2</ele><time>2026-04-11T16:33:07Z</time></trkpt><trkpt lat="43.2433985674172" lon="12.276084506479352"><ele>403.6</ele><time>2026-04-11T16:33:08Z</time></trkpt><trkpt lat="43.24342454003946" lon="12.275969270675516"><ele>404.0</ele><time>2026-04-11T16:33:09Z</time></trkpt><trkpt lat="43.24346599830197" lon="12.275846355499175"><ele>404.0</ele><time>2026-04-11T16:33:10Z</time></trkpt><trkpt lat="43.243510564513684" lon="12.275729808691839"><ele>404.0</ele><time>2026-04-11T16:33:11Z</time></trkpt><trkpt lat="43.243557572711616" lon="12.275618979250936"><ele>404.0</ele><time>2026-04-11T16:33:12Z</time></trkpt><trkpt lat="43.24361164303272" lon="12.27551435754996"><ele>404.0</ele><time>2026-04-11T16:33:13Z</time></trkpt><trkpt lat="43.24366922363929" lon="12.275401382545864"><ele>404.0</ele><time>2026-04-11T16:33:14Z</time></trkpt><trkpt lat="43.24372142231538" lon="12.275290066397007"><ele>405.0</ele><time>2026-04-11T16:33:15Z</time></trkpt><trkpt lat="43.24377841384911" lon="12.275171596711207"><ele>406.0</ele><time>2026-04-11T16:33:16Z</time></trkpt><trkpt lat="43.243838269717635" lon="12.275043408250918"><ele>407.0</ele><time>2026-04-11T16:33:17Z</time></trkpt><trkpt lat="43.243900037739024" lon="12.27492130907551"><ele>408.0</ele><time>2026-04-11T16:33:18Z</time></trkpt><trkpt lat="43.243954984813215" lon="12.27480370890322"><ele>409.0</ele><time>2026-04-11T16:33:19Z</time></trkpt><trkpt lat="43.244010357293426" lon="12.274691776908696"><ele>411.0</ele><time>2026-04-11T16:33:20Z</time></trkpt><trkpt lat="43.2440657866888" lon="12.274567159009026"><ele>413.0</ele><time>2026-04-11T16:33:21Z</time></trkpt><trkpt lat="43.24412063355788" lon="12.274439696302629"><ele>415.0</ele><time>2026-04-11T16:33:22Z</time></trkpt><trkpt lat="43.24417719411329" lon="12.274314495263262"><ele>417.0</ele><time>2026-04-11T16:33:23Z</time></trkpt><trkpt lat="43.244236155644536" lon="12.274196626331667"><ele>419.0</ele><time>2026-04-11T16:33:24Z</time></trkpt><trkpt lat="43.2442987113931" lon="12.274091690878333"><ele>419.0</ele><time>2026-04-11T16:33:25Z</time></trkpt><trkpt lat="43.244369005146844" lon="12.273997836885373"><ele>419.0</ele><time>2026-04-11T16:33:26Z</time></trkpt><trkpt lat="43.244450008108416" lon="12.273921103920836"><ele>419.0</ele><time>2026-04-11T16:33:27Z</time></trkpt><trkpt lat="43.24454138880825" lon="12.273865532005981"><ele>419.0</ele><time>2026-04-11T16:33:28Z</time></trkpt><trkpt lat="43.244643654125056" lon="12.273831441105147"><ele>419.0</ele><time>2026-04-11T16:33:29Z</time></trkpt><trkpt lat="43.24477760139246" lon="12.27378233211161"><ele>421.75</ele><time>2026-04-11T16:33:30Z</time></trkpt><trkpt lat="43.24490378965511" lon="12.273760420660638"><ele>424.5</ele><time>2026-04-11T16:33:31Z</time></trkpt><trkpt lat="43.245030524081955" lon="12.27373226249604"><ele>427.25</ele><time>2026-04-11T16:33:32Z</time></trkpt><trkpt lat="43.2451375551457" lon="12.273709550347593"><ele>430.0</ele><time>2026-04-11T16:33:33Z</time></trkpt><trkpt lat="43.245241006997745" lon="12.273683314875393"><ele>430.0</ele><time>2026-04-11T16:33:34Z</time></trkpt><trkpt lat="43.24534905648977" lon="12.27366655684295"><ele>430.0</ele><time>2026-04-11T16:33:35Z</time></trkpt><trkpt lat="43.24545220607899" lon="12.273651130882403"><ele>430.0</ele><time>2026-04-11T16:33:36Z</time></trkpt><trkpt lat="43.24554117753875" lon="12.273631148706325"><ele>430.0</ele><time>2026-04-11T16:33:37Z</time></trkpt><trkpt lat="43.24562817787377" lon="12.27359900115799"><ele>430.0</ele><time>2026-04-11T16:33:38Z</time></trkpt><trkpt lat="43.24570733720641" lon="12.273542539186906"><ele>430.8</ele><time>2026-04-11T16:33:39Z</time></trkpt><trkpt lat="43.24577443390607" lon="12.273468339935627"><ele>431.6</ele><time>2026-04-11T16:33:40Z</time></trkpt><trkpt lat="43.24581582419502" lon="12.273373387914694"><ele>432.4</ele><time>2026-04-11T16:33:41Z</time></trkpt><trkpt lat="43.24583780852297" lon="12.27325247643194"><ele>433.2</ele><time>2026-04-11T16:33:42Z</time></trkpt><trkpt lat="43.24584814521922" lon="12.273104127774126"><ele>434.0</ele><time>2026-04-11T16:33:43Z</time></trkpt><trkpt lat="43.245852897853624" lon="12.272931026422757"><ele>434.4</ele><time>2026-04-11T16:33:44Z</time></trkpt><trkpt lat="43.24586818500656" lon="12.272746997819201"><ele>434.79999999999995</ele><time>2026-04-11T16:33:45Z</time></trkpt><trkpt lat="43.24588862337961" lon="12.272591715222967"><ele>435.20000000000005</ele><time>2026-04-11T16:33:46Z</time></trkpt><trkpt lat="43.24590320522886" lon="12.272457529581626"><ele>435.6</ele><time>2026-04-11T16:33:47Z</time></trkpt><trkpt lat="43.245916427918715" lon="12.272338718565416"><ele>436.0</ele><time>2026-04-11T16:33:48Z</time></trkpt><trkpt lat="43.24593574859436" lon="12.272220087667689"><ele>437.4</ele><time>2026-04-11T16:33:49Z</time></trkpt><trkpt lat="43.2459474319458" lon="12.272100953667803"><ele>438.8</ele><time>2026-04-11T16:33:50Z</time></trkpt><trkpt lat="43.24597295852871" lon="12.271981186441414"><ele>440.19999999999993</ele><time>2026-04-11T16:33:51Z</time></trkpt><trkpt lat="43.24602494080471" lon="12.271879892952182"><ele>441.59999999999997</ele><time>2026-04-11T16:33:52Z</time></trkpt><trkpt lat="43.2461042957179" lon="12.271785233195876"><ele>443.0</ele><time>2026-04-11T16:33:53Z</time></trkpt><trkpt lat="43.24618193311282" lon="12.271712936148411"><ele>443.0</ele><time>2026-04-11T16:33:54Z</time></trkpt><trkpt lat="43.24627589920196" lon="12.271659467326417"><ele>442.99999999999994</ele><time>2026-04-11T16:33:55Z</time></trkpt><trkpt lat="43.246370688821" lon="12.271613062553321"><ele>442.99999999999994</ele><time>2026-04-11T16:33:56Z</time></trkpt><trkpt lat="43.24645998438843" lon="12.271556838648989"><ele>443.0</ele><time>2026-04-11T16:33:57Z</time></trkpt><trkpt lat="43.24654965277453" lon="12.271495319437532"><ele>443.0</ele><time>2026-04-11T16:33:58Z</time></trkpt><trkpt lat="43.246638838630645" lon="12.27143040191656"><ele>444.79999999999995</ele><time>2026-04-11T16:33:59Z</time></trkpt><trkpt lat="43.24673404435672" lon="12.271359967382756"><ele>446.59999999999997</ele><time>2026-04-11T16:34:00Z</time></trkpt><trkpt lat="43.24683059611964" lon="12.271289652844024"><ele>448.40000000000003</ele><time>2026-04-11T16:34:01Z</time></trkpt><trkpt lat="43.24692713031886" lon="12.27122022203453"><ele>450.20000000000005</ele><time>2026-04-11T16:34:02Z</time></trkpt><trkpt lat="43.24702614764127" lon="12.271146723477077"><ele>452.0</ele><time>2026-04-11T16:34:03Z</time></trkpt><trkpt lat="43.24712267780936" lon="12.271074369726476"><ele>452.0</ele><time>2026-04-11T16:34:04Z</time></trkpt><trkpt lat="43.247218453459325" lon="12.271015021097458"><ele>452.00000000000006</ele><time>2026-04-11T16:34:05Z</time></trkpt><trkpt lat="43.24731378840839" lon="12.27098575427314"><ele>452.00000000000006</ele><time>2026-04-11T16:34:06Z</time></trkpt><trkpt lat="43.24739572147524" lon="12.270992679249835"><ele>452.0</ele><time>2026-04-11T16:34:07Z</time></trkpt><trkpt lat="43.24750761709729" lon="12.271004539959216"><ele>452.0</ele><time>2026-04-11T16:34:08Z</time></trkpt><trkpt lat="43.24763989369287" lon="12.271028301250949"><ele>454.25</ele><time>2026-04-11T16:34:09Z</time></trkpt><trkpt lat="43.24775904254772" lon="12.271037339472512"><ele>456.5</ele><time>2026-04-11T16:34:10Z</time></trkpt><trkpt lat="43.24787138583381" lon="12.271044221915046"><ele>458.75</ele><time>2026-04-11T16:34:11Z</time></trkpt><trkpt lat="43.24798876358759" lon="12.271041986045171"><ele>461.0</ele><time>2026-04-11T16:34:12Z</time></trkpt><trkpt lat="43.24810584744827" lon="12.271012360251135"><ele>463.20000000000005</ele><time>2026-04-11T16:34:13Z</time></trkpt><trkpt lat="43.248217348000395" lon="12.270972180964515"><ele>465.40000000000003</ele><time>2026-04-11T16:34:14Z</time></trkpt><trkpt lat="43.24831486697055" lon="12.270928120773288"><ele>467.6</ele><time>2026-04-11T16:34:15Z</time></trkpt><trkpt lat="43.24839634841399" lon="12.270876915560672"><ele>469.8</ele><time>2026-04-11T16:34:16Z</time></trkpt><trkpt lat="43.24847027175781" lon="12.270842542020288"><ele>472.0</ele><time>2026-04-11T16:34:17Z</time></trkpt><trkpt lat="43.248582328142554" lon="12.270905158888958"><ele>472.00000000000006</ele><time>2026-04-11T16:34:19Z</time></trkpt><trkpt lat="43.248646694771615" lon="12.270958122815948"><ele>472.0</ele><time>2026-04-11T16:34:20Z</time></trkpt><trkpt lat="43.248726874562166" lon="12.271013417729117"><ele>472.0</ele><time>2026-04-11T16:34:21Z</time></trkpt><trkpt lat="43.24879555362953" lon="12.271014632182505"><ele>472.0</ele><time>2026-04-11T16:34:22Z</time></trkpt><trkpt lat="43.248876930283586" lon="12.270965435121697"><ele>472.00000000000006</ele><time>2026-04-11T16:34:23Z</time></trkpt><trkpt lat="43.24895836514088" lon="12.270890691218515"><ele>472.0</ele><time>2026-04-11T16:34:24Z</time></trkpt><trkpt lat="43.24908460439496" lon="12.270795530931952"><ele>473.6</ele><time>2026-04-11T16:34:25Z</time></trkpt><trkpt lat="43.24921329016446" lon="12.270706122536982"><ele>475.20000000000005</ele><time>2026-04-11T16:34:26Z</time></trkpt><trkpt lat="43.24930962845709" lon="12.27064535951355"><ele>476.8</ele><time>2026-04-11T16:34:27Z</time></trkpt><trkpt lat="43.24938991140568" lon="12.270596081240761"><ele>478.4</ele><time>2026-04-11T16:34:28Z</time></trkpt><trkpt lat="43.24946652641814" lon="12.270579575798743"><ele>480.0</ele><time>2026-04-11T16:34:29Z</time></trkpt><trkpt lat="43.249609555321825" lon="12.270648407968032"><ele>480.8</ele><time>2026-04-11T16:34:31Z</time></trkpt><trkpt lat="43.249715407764974" lon="12.270741306056813"><ele>481.6</ele><time>2026-04-11T16:34:32Z</time></trkpt><trkpt lat="43.24982964276441" lon="12.270834895353413"><ele>482.4</ele><time>2026-04-11T16:34:33Z</time></trkpt><trkpt lat="43.24992296094248" lon="12.270897218840654"><ele>483.2</ele><time>2026-04-11T16:34:34Z</time></trkpt><trkpt lat="43.249999553144555" lon="12.270919607966563"><ele>484.0</ele><time>2026-04-11T16:34:35Z</time></trkpt><trkpt lat="43.25009106614128" lon="12.270928583013534"><ele>486.25</ele><time>2026-04-11T16:34:36Z</time></trkpt><trkpt lat="43.250209458018986" lon="12.270928083697834"><ele>488.5</ele><time>2026-04-11T16:34:37Z</time></trkpt><trkpt lat="43.25035030266041" lon="12.27091426819344"><ele>490.75</ele><time>2026-04-11T16:34:38Z</time></trkpt><trkpt lat="43.25049633272766" lon="12.270887709679618"><ele>493.0</ele><time>2026-04-11T16:34:39Z</time></trkpt><trkpt lat="43.25063987323573" lon="12.270863073441346"><ele>493.5</ele><time>2026-04-11T16:34:40Z</time></trkpt><trkpt lat="43.250782049654255" lon="12.270840673404875"><ele>494.0</ele><time>2026-04-11T16:34:41Z</time></trkpt><trkpt lat="43.250916294340406" lon="12.270829977370395"><ele>494.5</ele><time>2026-04-11T16:34:42Z</time></trkpt><trkpt lat="43.25102856017023" lon="12.27083867781885"><ele>495.0</ele><time>2026-04-11T16:34:43Z</time></trkpt><trkpt lat="43.25113552285329" lon="12.270858783446169"><ele>495.0</ele><time>2026-04-11T16:34:44Z</time></trkpt><trkpt lat="43.25124704145706" lon="12.270896474653876"><ele>495.0</ele><time>2026-04-11T16:34:45Z</time></trkpt><trkpt lat="43.25136277997663" lon="12.27096267267962"><ele>495.0</ele><time>2026-04-11T16:34:46Z</time></trkpt><trkpt lat="43.25148104011718" lon="12.27105314955191"><ele>495.0</ele><time>2026-04-11T16:34:47Z</time></trkpt><trkpt lat="43.25159652047417" lon="12.271149683021825"><ele>496.8</ele><time>2026-04-11T16:34:48Z</time></trkpt><trkpt lat="43.25169621738855" lon="12.271218915827411"><ele>498.6</ele><time>2026-04-11T16:34:49Z</time></trkpt><trkpt lat="43.25177940489774" lon="12.271288650945248"><ele>500.4</ele><time>2026-04-11T16:34:50Z</time></trkpt><trkpt lat="43.25184278367981" lon="12.27138421627408"><ele>502.2</ele><time>2026-04-11T16:34:51Z</time></trkpt><trkpt lat="43.25188241177177" lon="12.271492244511807"><ele>504.0</ele><time>2026-04-11T16:34:52Z</time></trkpt><trkpt lat="43.251922354212" lon="12.271575262571448"><ele>504.0</ele><time>2026-04-11T16:34:53Z</time></trkpt><trkpt lat="43.25197847870764" lon="12.271627297248168"><ele>504.0</ele><time>2026-04-11T16:34:54Z</time></trkpt><trkpt lat="43.2520451807206" lon="12.271637840879709"><ele>504.0</ele><time>2026-04-11T16:34:55Z</time></trkpt><trkpt lat="43.25212110818294" lon="12.271586193246407"><ele>504.0</ele><time>2026-04-11T16:34:56Z</time></trkpt><trkpt lat="43.25220212300693" lon="12.271510892137822"><ele>504.0</ele><time>2026-04-11T16:34:57Z</time></trkpt><trkpt lat="43.25228967492495" lon="12.271412106572575"><ele>504.0</ele><time>2026-04-11T16:34:58Z</time></trkpt><trkpt lat="43.252385238754805" lon="12.271342497877233"><ele>508.25</ele><time>2026-04-11T16:34:59Z</time></trkpt><trkpt lat="43.25250176292824" lon="12.271316278470998"><ele>512.5</ele><time>2026-04-11T16:35:00Z</time></trkpt><trkpt lat="43.252644226422845" lon="12.271332687055052"><ele>516.75</ele><time>2026-04-11T16:35:01Z</time></trkpt><trkpt lat="43.25279508874135" lon="12.271357349944019"><ele>521.0</ele><time>2026-04-11T16:35:02Z</time></trkpt><trkpt lat="43.25292059765954" lon="12.271383110146461"><ele>521.0</ele><time>2026-04-11T16:35:03Z</time></trkpt><trkpt lat="43.25303756550064" lon="12.271380440346816"><ele>521.0</ele><time>2026-04-11T16:35:04Z</time></trkpt><trkpt lat="43.25313113692673" lon="12.271346350570301"><ele>521.0</ele><time>2026-04-11T16:35:05Z</time></trkpt><trkpt lat="43.25318726770931" lon="12.271274199300013"><ele>521.0</ele><time>2026-04-11T16:35:06Z</time></trkpt><trkpt lat="43.25319843163108" lon="12.27117855990838"><ele>521.0</ele><time>2026-04-11T16:35:07Z</time></trkpt><trkpt lat="43.25317184814565" lon="12.271072697387122"><ele>521.0</ele><time>2026-04-11T16:35:08Z</time></trkpt><trkpt lat="43.25313970556317" lon="12.270941754638669"><ele>524.4</ele><time>2026-04-11T16:35:09Z</time></trkpt><trkpt lat="43.253129543263725" lon="12.27079586977669"><ele>527.8</ele><time>2026-04-11T16:35:10Z</time></trkpt><trkpt lat="43.253161580981484" lon="12.270685530320659"><ele>531.1999999999999</ele><time>2026-04-11T16:35:11Z</time></trkpt><trkpt lat="43.253227324920495" lon="12.270617387131278"><ele>534.6</ele><time>2026-04-11T16:35:12Z</time></trkpt><trkpt lat="43.25330306857777" lon="12.270601119852044"><ele>538.0</ele><time>2026-04-11T16:35:13Z</time></trkpt><trkpt lat="43.25340897204347" lon="12.270623772674766"><ele>538.0</ele><time>2026-04-11T16:35:14Z</time></trkpt><trkpt lat="43.25352556706681" lon="12.270636857803456"><ele>538.0</ele><time>2026-04-11T16:35:15Z</time></trkpt><trkpt lat="43.253672210325355" lon="12.270634108686183"><ele>538.0</ele><time>2026-04-11T16:35:16Z</time></trkpt><trkpt lat="43.25383213852546" lon="12.270623880118556"><ele>538.0</ele><time>2026-04-11T16:35:17Z</time></trkpt><trkpt lat="43.25401076131381" lon="12.270599925461271"><ele>544.6666666666667</ele><time>2026-04-11T16:35:18Z</time></trkpt><trkpt lat="43.25419056324164" lon="12.27058253279743"><ele>551.3333333333334</ele><time>2026-04-11T16:35:19Z</time></trkpt><trkpt lat="43.25435291613279" lon="12.270560417743743"><ele>558.0</ele><time>2026-04-11T16:35:20Z</time></trkpt><trkpt lat="43.254492869276284" lon="12.27053816125418"><ele>558.0</ele><time>2026-04-11T16:35:21Z</time></trkpt><trkpt lat="43.25462543760782" lon="12.27050903684704"><ele>558.0</ele><time>2026-04-11T16:35:22Z</time></trkpt><trkpt lat="43.2547680890807" lon="12.270487539413795"><ele>558.0</ele><time>2026-04-11T16:35:23Z</time></trkpt><trkpt lat="43.2549135938849" lon="12.270469332006869"><ele>558.0</ele><time>2026-04-11T16:35:24Z</time></trkpt><trkpt lat="43.25505367563934" lon="12.27046447755264"><ele>559.5</ele><time>2026-04-11T16:35:25Z</time></trkpt><trkpt lat="43.25518360570677" lon="12.27048157592034"><ele>561.0</ele><time>2026-04-11T16:35:26Z</time></trkpt><trkpt lat="43.2553062949188" lon="12.270518644609123"><ele>562.5</ele><time>2026-04-11T16:35:27Z</time></trkpt><trkpt lat="43.25540476484416" lon="12.270579870475988"><ele>564.0</ele><time>2026-04-11T16:35:28Z</time></trkpt><trkpt lat="43.25551018983133" lon="12.2706213281594"><ele>565.5</ele><time>2026-04-11T16:35:29Z</time></trkpt><trkpt lat="43.25563440471784" lon="12.270642549178286"><ele>567.0</ele><time>2026-04-11T16:35:30Z</time></trkpt><trkpt lat="43.25577306077579" lon="12.27063701410081"><ele>568.5</ele><time>2026-04-11T16:35:31Z</time></trkpt><trkpt lat="43.25590174117897" lon="12.270615782295213"><ele>570.0</ele><time>2026-04-11T16:35:32Z</time></trkpt><trkpt lat="43.256022429784345" lon="12.270584919688291"><ele>570.0</ele><time>2026-04-11T16:35:33Z</time></trkpt><trkpt lat="43.256129049652245" lon="12.27053862251262"><ele>570.0</ele><time>2026-04-11T16:35:34Z</time></trkpt><trkpt lat="43.25621500096503" lon="12.270490961184754"><ele>570.0</ele><time>2026-04-11T16:35:35Z</time></trkpt><trkpt lat="43.25628558005245" lon="12.270435277433277"><ele>570.0</ele><time>2026-04-11T16:35:36Z</time></trkpt><trkpt lat="43.25633411839932" lon="12.270344000807206"><ele>570.0</ele><time>2026-04-11T16:35:37Z</time></trkpt><trkpt lat="43.2563719348421" lon="12.270217191996073"><ele>570.0</ele><time>2026-04-11T16:35:38Z</time></trkpt><trkpt lat="43.25638596104391" lon="12.270085503287584"><ele>570.0</ele><time>2026-04-11T16:35:39Z</time></trkpt><trkpt lat="43.25638631953623" lon="12.269933288337812"><ele>570.0</ele><time>2026-04-11T16:35:40Z</time></trkpt><trkpt lat="43.25638013079453" lon="12.269790139616733"><ele>570.0</ele><time>2026-04-11T16:35:41Z</time></trkpt><trkpt lat="43.25637836648952" lon="12.269667342933124"><ele>570.0</ele><time>2026-04-11T16:35:42Z</time></trkpt><trkpt lat="43.25635225401598" lon="12.269515991440343"><ele>568.5</ele><time>2026-04-11T16:35:43Z</time></trkpt><trkpt lat="43.25633010716166" lon="12.26940582897001"><ele>567.0</ele><time>2026-04-11T16:35:44Z</time></trkpt><trkpt lat="43.25630386101923" lon="12.269287115571483"><ele>565.5</ele><time>2026-04-11T16:35:45Z</time></trkpt><trkpt lat="43.2562884836259" lon="12.269186410371306"><ele>564.0</ele><time>2026-04-11T16:35:46Z</time></trkpt><trkpt lat="43.256276089411045" lon="12.269085134243639"><ele>562.5</ele><time>2026-04-11T16:35:47Z</time></trkpt><trkpt lat="43.25627530430454" lon="12.268991491909071"><ele>561.0</ele><time>2026-04-11T16:35:48Z</time></trkpt><trkpt lat="43.25627142086019" lon="12.268904201240911"><ele>560.3333333333334</ele><time>2026-04-11T16:35:49Z</time></trkpt><trkpt lat="43.256295011015936" lon="12.268811172269297"><ele>559.6666666666666</ele><time>2026-04-11T16:35:50Z</time></trkpt><trkpt lat="43.25631002628377" lon="12.26871094016832"><ele>559.0</ele><time>2026-04-11T16:35:51Z</time></trkpt><trkpt lat="43.256324366827826" lon="12.268613053262547"><ele>558.3333333333333</ele><time>2026-04-11T16:35:52Z</time></trkpt><trkpt lat="43.25633172567463" lon="12.268497477481713"><ele>557.6666666666666</ele><time>2026-04-11T16:35:53Z</time></trkpt><trkpt lat="43.25634883672591" lon="12.26839717023802"><ele>557.0</ele><time>2026-04-11T16:35:54Z</time></trkpt><trkpt lat="43.25638302475057" lon="12.268287005105522"><ele>557.0</ele><time>2026-04-11T16:35:55Z</time></trkpt><trkpt lat="43.25639415086311" lon="12.26816952616945"><ele>557.0</ele><time>2026-04-11T16:35:56Z</time></trkpt><trkpt lat="43.256406297866995" lon="12.268058444000255"><ele>557.0</ele><time>2026-04-11T16:35:57Z</time></trkpt><trkpt lat="43.25640231146133" lon="12.26792225802068"><ele>557.0</ele><time>2026-04-11T16:35:58Z</time></trkpt><trkpt lat="43.25639671570291" lon="12.267768000863796"><ele>557.0</ele><time>2026-04-11T16:35:59Z</time></trkpt><trkpt lat="43.256395463847866" lon="12.267652372397588"><ele>556.4</ele><time>2026-04-11T16:36:00Z</time></trkpt><trkpt lat="43.25643640341472" lon="12.267549155983659"><ele>555.8000000000001</ele><time>2026-04-11T16:36:01Z</time></trkpt><trkpt lat="43.25646939262012" lon="12.267410022286985"><ele>555.2</ele><time>2026-04-11T16:36:02Z</time></trkpt><trkpt lat="43.256487928233796" lon="12.267272521656368"><ele>554.6</ele><time>2026-04-11T16:36:03Z</time></trkpt><trkpt lat="43.2565246521929" lon="12.267159990197525"><ele>554.0</ele><time>2026-04-11T16:36:04Z</time></trkpt><trkpt lat="43.25655014529637" lon="12.267052458812069"><ele>557.1666666666666</ele><time>2026-04-11T16:36:05Z</time></trkpt><trkpt lat="43.25656419938518" lon="12.266941833826895"><ele>560.3333333333333</ele><time>2026-04-11T16:36:06Z</time></trkpt><trkpt lat="43.256593346555874" lon="12.266816838646996"><ele>563.5</ele><time>2026-04-11T16:36:08Z</time></trkpt><trkpt lat="43.256632621368986" lon="12.266731607087861"><ele>566.6666666666666</ele><time>2026-04-11T16:36:15Z</time></trkpt><trkpt lat="43.25665851673497" lon="12.266609487993424"><ele>569.8333333333334</ele><time>2026-04-11T16:36:20Z</time></trkpt><trkpt lat="43.25660234333248" lon="12.266534607375268"><ele>573.0</ele><time>2026-04-11T16:36:21Z</time></trkpt><trkpt lat="43.25658292575484" lon="12.266413028515483"><ele>573.0</ele><time>2026-04-11T16:36:24Z</time></trkpt><trkpt lat="43.256589275432155" lon="12.26629176530399"><ele>573.0</ele><time>2026-04-11T16:36:27Z</time></trkpt><trkpt lat="43.25660100294507" lon="12.26620594642331"><ele>573.0</ele><time>2026-04-11T16:36:29Z</time></trkpt><trkpt lat="43.25662307349597" lon="12.266117872850513"><ele>573.0</ele><time>2026-04-11T16:36:31Z</time></trkpt><trkpt lat="43.2566433512755" lon="12.265966147749198"><ele>573.0</ele><time>2026-04-11T16:36:33Z</time></trkpt><trkpt lat="43.25668038992749" lon="12.265824911716631"><ele>573.0</ele><time>2026-04-11T16:36:35Z</time></trkpt><trkpt lat="43.256706544100204" lon="12.265699667650411"><ele>573.0</ele><time>2026-04-11T16:36:37Z</time></trkpt><trkpt lat="43.25672246175331" lon="12.265612847718028"><ele>573.0</ele><time>2026-04-11T16:36:38Z</time></trkpt><trkpt lat="43.256740495421965" lon="12.265514789846623"><ele>573.0</ele><time>2026-04-11T16:36:39Z</time></trkpt><trkpt lat="43.25675588386211" lon="12.265412360817772"><ele>573.0</ele><time>2026-04-11T16:36:40Z</time></trkpt><trkpt lat="43.256766875483656" lon="12.26529203894747"><ele>573.0</ele><time>2026-04-11T16:36:41Z</time></trkpt><trkpt lat="43.25676211086085" lon="12.265158701153672"><ele>573.0</ele><time>2026-04-11T16:36:42Z</time></trkpt><trkpt lat="43.256742079609026" lon="12.265014850890926"><ele>573.0</ele><time>2026-04-11T16:36:43Z</time></trkpt><trkpt lat="43.256687331085736" lon="12.264876632870836"><ele>573.0</ele><time>2026-04-11T16:36:44Z</time></trkpt><trkpt lat="43.2565967282118" lon="12.264741522745792"><ele>573.0</ele><time>2026-04-11T16:36:45Z</time></trkpt><trkpt lat="43.25649685281898" lon="12.264619414732357"><ele>573.0</ele><time>2026-04-11T16:36:46Z</time></trkpt><trkpt lat="43.25641061738445" lon="12.26451221037007"><ele>572.4</ele><time>2026-04-11T16:36:47Z</time></trkpt><trkpt lat="43.256343433264966" lon="12.264384784557977"><ele>571.8</ele><time>2026-04-11T16:36:48Z</time></trkpt><trkpt lat="43.25626521515463" lon="12.264283776400067"><ele>571.2</ele><time>2026-04-11T16:36:49Z</time></trkpt><trkpt lat="43.25621500418565" lon="12.264145756752175"><ele>570.6</ele><time>2026-04-11T16:36:50Z</time></trkpt><trkpt lat="43.256176416212824" lon="12.263998383733119"><ele>570.0</ele><time>2026-04-11T16:36:51Z</time></trkpt><trkpt lat="43.256143770780774" lon="12.263850750172516"><ele>572.8</ele><time>2026-04-11T16:36:52Z</time></trkpt><trkpt lat="43.256112299465556" lon="12.263705929446362"><ele>575.6</ele><time>2026-04-11T16:36:53Z</time></trkpt><trkpt lat="43.256073880266364" lon="12.263559630912166"><ele>578.4</ele><time>2026-04-11T16:36:54Z</time></trkpt><trkpt lat="43.25601729242768" lon="12.26343845091814"><ele>581.2</ele><time>2026-04-11T16:36:55Z</time></trkpt><trkpt lat="43.2559410970098" lon="12.263326673047633"><ele>584.0</ele><time>2026-04-11T16:36:56Z</time></trkpt><trkpt lat="43.25584946082297" lon="12.263216285705093"><ele>584.0</ele><time>2026-04-11T16:36:57Z</time></trkpt><trkpt lat="43.25571724627649" lon="12.263186319315281"><ele>584.0</ele><time>2026-04-11T16:36:58Z</time></trkpt><trkpt lat="43.255589442806745" lon="12.26316888708003"><ele>584.0</ele><time>2026-04-11T16:36:59Z</time></trkpt><trkpt lat="43.25545564311954" lon="12.26315879808539"><ele>584.0</ele><time>2026-04-11T16:37:00Z</time></trkpt><trkpt lat="43.25532637706436" lon="12.263138868837931"><ele>589.75</ele><time>2026-04-11T16:37:01Z</time></trkpt><trkpt lat="43.255201519377486" lon="12.263111622809282"><ele>595.5</ele><time>2026-04-11T16:37:02Z</time></trkpt><trkpt lat="43.25508307170686" lon="12.263059373608247"><ele>601.25</ele><time>2026-04-11T16:37:03Z</time></trkpt><trkpt lat="43.25497301365377" lon="12.26299777840511"><ele>607.0</ele><time>2026-04-11T16:37:04Z</time></trkpt><trkpt lat="43.25486869869931" lon="12.26292692534422"><ele>598.25</ele><time>2026-04-11T16:37:05Z</time></trkpt><trkpt lat="43.25475992548393" lon="12.262853415601215"><ele>589.5</ele><time>2026-04-11T16:37:06Z</time></trkpt><trkpt lat="43.2546514462747" lon="12.262784653767572"><ele>580.75</ele><time>2026-04-11T16:37:07Z</time></trkpt><trkpt lat="43.254550441109046" lon="12.262713108182805"><ele>572.0</ele><time>2026-04-11T16:37:08Z</time></trkpt><trkpt lat="43.254470032537824" lon="12.26261609271171"><ele>572.0</ele><time>2026-04-11T16:37:09Z</time></trkpt><trkpt lat="43.254413239833326" lon="12.26249194366244"><ele>572.0</ele><time>2026-04-11T16:37:10Z</time></trkpt><trkpt lat="43.25441231676559" lon="12.262331281353696"><ele>572.0</ele><time>2026-04-11T16:37:11Z</time></trkpt><trkpt lat="43.25443581157204" lon="12.262187701792188"><ele>572.0</ele><time>2026-04-11T16:37:12Z</time></trkpt><trkpt lat="43.25446098300513" lon="12.262005458274455"><ele>572.5</ele><time>2026-04-11T16:37:13Z</time></trkpt><trkpt lat="43.25447159137944" lon="12.261804209580866"><ele>573.0</ele><time>2026-04-11T16:37:14Z</time></trkpt><trkpt lat="43.25449353078422" lon="12.261629516333802"><ele>573.5</ele><time>2026-04-11T16:37:15Z</time></trkpt><trkpt lat="43.254540228095934" lon="12.261473792778586"><ele>574.0</ele><time>2026-04-11T16:37:16Z</time></trkpt><trkpt lat="43.25460169886449" lon="12.261310001079655"><ele>570.5</ele><time>2026-04-11T16:37:17Z</time></trkpt><trkpt lat="43.25468026412323" lon="12.261138178526481"><ele>567.0</ele><time>2026-04-11T16:37:18Z</time></trkpt><trkpt lat="43.25478697893009" lon="12.260986039852787"><ele>563.5</ele><time>2026-04-11T16:37:19Z</time></trkpt><trkpt lat="43.25489238054473" lon="12.260851250816225"><ele>560.0</ele><time>2026-04-11T16:37:20Z</time></trkpt><trkpt lat="43.25498257980604" lon="12.26073594785899"><ele>568.0</ele><time>2026-04-11T16:37:21Z</time></trkpt><trkpt lat="43.25506470861531" lon="12.260620693362302"><ele>576.0</ele><time>2026-04-11T16:37:22Z</time></trkpt><trkpt lat="43.255123003414795" lon="12.260490663716382"><ele>584.0</ele><time>2026-04-11T16:37:23Z</time></trkpt><trkpt lat="43.25514215936465" lon="12.260325951102196"><ele>592.0</ele><time>2026-04-11T16:37:24Z</time></trkpt><trkpt lat="43.2551352351329" lon="12.26015448702683"><ele>592.0</ele><time>2026-04-11T16:37:25Z</time></trkpt><trkpt lat="43.25511035649009" lon="12.259991785482914"><ele>592.0</ele><time>2026-04-11T16:37:26Z</time></trkpt><trkpt lat="43.25510903346915" lon="12.259843239857963"><ele>592.0</ele><time>2026-04-11T16:37:27Z</time></trkpt><trkpt lat="43.25513448246312" lon="12.259702983968891"><ele>592.0</ele><time>2026-04-11T16:37:28Z</time></trkpt><trkpt lat="43.255212064208266" lon="12.259591282833684"><ele>592.0</ele><time>2026-04-11T16:37:29Z</time></trkpt><trkpt lat="43.25530579633993" lon="12.25947113507502"><ele>592.0</ele><time>2026-04-11T16:37:30Z</time></trkpt><trkpt lat="43.25540508382114" lon="12.259334364462896"><ele>592.0</ele><time>2026-04-11T16:37:31Z</time></trkpt><trkpt lat="43.25550869563231" lon="12.259222755962654"><ele>592.0</ele><time>2026-04-11T16:37:32Z</time></trkpt><trkpt lat="43.2555964980569" lon="12.259112622968768"><ele>592.0</ele><time>2026-04-11T16:37:33Z</time></trkpt><trkpt lat="43.25566928547967" lon="12.25899510836626"><ele>597.0</ele><time>2026-04-11T16:37:34Z</time></trkpt><trkpt lat="43.25571781664669" lon="12.258859370688219"><ele>602.0</ele><time>2026-04-11T16:37:35Z</time></trkpt><trkpt lat="43.255726464813655" lon="12.258705751832165"><ele>607.0</ele><time>2026-04-11T16:37:36Z</time></trkpt><trkpt lat="43.255698898556005" lon="12.258538805060327"><ele>612.0</ele><time>2026-04-11T16:37:37Z</time></trkpt><trkpt lat="43.25563965454723" lon="12.258384737045848"><ele>610.0</ele><time>2026-04-11T16:37:38Z</time></trkpt><trkpt lat="43.25556413965575" lon="12.258249651675339"><ele>608.0</ele><time>2026-04-11T16:37:39Z</time></trkpt><trkpt lat="43.255484325352526" lon="12.258134251876182"><ele>606.0</ele><time>2026-04-11T16:37:40Z</time></trkpt><trkpt lat="43.25540115171821" lon="12.258018338438513"><ele>604.0</ele><time>2026-04-11T16:37:41Z</time></trkpt><trkpt lat="43.25532637894148" lon="12.257893028418405"><ele>604.0</ele><time>2026-04-11T16:37:42Z</time></trkpt><trkpt lat="43.25524829693699" lon="12.257762190206215"><ele>604.0</ele><time>2026-04-11T16:37:43Z</time></trkpt><trkpt lat="43.255165211563764" lon="12.257627102750872"><ele>604.0</ele><time>2026-04-11T16:37:44Z</time></trkpt><trkpt lat="43.255081780079536" lon="12.257492833745276"><ele>604.0</ele><time>2026-04-11T16:37:45Z</time></trkpt><trkpt lat="43.25500021676718" lon="12.25735033002244"><ele>604.0</ele><time>2026-04-11T16:37:46Z</time></trkpt><trkpt lat="43.254910648787536" lon="12.257202920765124"><ele>604.0</ele><time>2026-04-11T16:37:47Z</time></trkpt><trkpt lat="43.25480579893487" lon="12.257034210985324"><ele>604.0</ele><time>2026-04-11T16:37:48Z</time></trkpt><trkpt lat="43.25468998112745" lon="12.256824970909278"><ele>604.0</ele><time>2026-04-11T16:37:49Z</time></trkpt><trkpt lat="43.25459128342438" lon="12.256682218267413"><ele>604.0</ele><time>2026-04-11T16:37:50Z</time></trkpt><trkpt lat="43.2544895817456" lon="12.256517809261686"><ele>604.0</ele><time>2026-04-11T16:37:51Z</time></trkpt><trkpt lat="43.25439253475216" lon="12.256353074677238"><ele>608.0</ele><time>2026-04-11T16:37:52Z</time></trkpt><trkpt lat="43.25429864433509" lon="12.256187125510454"><ele>612.0</ele><time>2026-04-11T16:37:53Z</time></trkpt><trkpt lat="43.25419667705034" lon="12.256012748299957"><ele>616.0</ele><time>2026-04-11T16:37:54Z</time></trkpt><trkpt lat="43.25409656054613" lon="12.25583522976085"><ele>616.0</ele><time>2026-04-11T16:37:55Z</time></trkpt><trkpt lat="43.25398867988111" lon="12.255679268700401"><ele>616.0</ele><time>2026-04-11T16:37:56Z</time></trkpt><trkpt lat="43.25387932658477" lon="12.255505762632366"><ele>616.0</ele><time>2026-04-11T16:37:57Z</time></trkpt><trkpt lat="43.25376266622429" lon="12.255341633969191"><ele>618.6666666666667</ele><time>2026-04-11T16:37:58Z</time></trkpt><trkpt lat="43.25362252111561" lon="12.255223772518026"><ele>621.3333333333334</ele><time>2026-04-11T16:37:59Z</time></trkpt><trkpt lat="43.253475148806224" lon="12.255143877815852"><ele>624.0</ele><time>2026-04-11T16:38:00Z</time></trkpt><trkpt lat="43.25333351234068" lon="12.255079846510107"><ele>624.0</ele><time>2026-04-11T16:38:01Z</time></trkpt><trkpt lat="43.253202259842226" lon="12.25501687323079"><ele>624.0</ele><time>2026-04-11T16:38:02Z</time></trkpt><trkpt lat="43.25308223728311" lon="12.254943205300163"><ele>624.0</ele><time>2026-04-11T16:38:03Z</time></trkpt><trkpt lat="43.252968110700124" lon="12.254812775007892"><ele>624.0</ele><time>2026-04-11T16:38:04Z</time></trkpt><trkpt lat="43.25286168094748" lon="12.254658007698504"><ele>627.0</ele><time>2026-04-11T16:38:05Z</time></trkpt><trkpt lat="43.252743331411835" lon="12.254472096814638"><ele>630.0</ele><time>2026-04-11T16:38:06Z</time></trkpt><trkpt lat="43.25263391473416" lon="12.254295564742984"><ele>633.0</ele><time>2026-04-11T16:38:07Z</time></trkpt><trkpt lat="43.25254329083078" lon="12.25414898020495"><ele>633.0</ele><time>2026-04-11T16:38:08Z</time></trkpt><trkpt lat="43.25245435332201" lon="12.25400642939163"><ele>633.0</ele><time>2026-04-11T16:38:09Z</time></trkpt><trkpt lat="43.25238881137684" lon="12.253873860923356"><ele>633.0</ele><time>2026-04-11T16:38:10Z</time></trkpt><trkpt lat="43.252287222363265" lon="12.253753273634832"><ele>633.0</ele><time>2026-04-11T16:38:11Z</time></trkpt><trkpt lat="43.252165847413" lon="12.253672516372461"><ele>633.0</ele><time>2026-04-11T16:38:12Z</time></trkpt><trkpt lat="43.25204596178907" lon="12.2536263111339"><ele>633.0</ele><time>2026-04-11T16:38:13Z</time></trkpt><trkpt lat="43.25194032094875" lon="12.253590327259992"><ele>633.0</ele><time>2026-04-11T16:38:14Z</time></trkpt><trkpt lat="43.25183627134688" lon="12.253502601731201"><ele>633.0</ele><time>2026-04-11T16:38:15Z</time></trkpt><trkpt lat="43.25174720857525" lon="12.253376412327492"><ele>633.0</ele><time>2026-04-11T16:38:16Z</time></trkpt><trkpt lat="43.251703896959384" lon="12.253188560499167"><ele>633.0</ele><time>2026-04-11T16:38:17Z</time></trkpt><trkpt lat="43.25163085312293" lon="12.252999724642754"><ele>633.0</ele><time>2026-04-11T16:38:18Z</time></trkpt><trkpt lat="43.251563383472174" lon="12.252832134177481"><ele>633.0</ele><time>2026-04-11T16:38:19Z</time></trkpt><trkpt lat="43.25147967266185" lon="12.252697373951015"><ele>632.25</ele><time>2026-04-11T16:38:20Z</time></trkpt><trkpt lat="43.25138725692733" lon="12.252574147766023"><ele>631.5</ele><time>2026-04-11T16:38:21Z</time></trkpt><trkpt lat="43.25130153285127" lon="12.252442927870623"><ele>630.75</ele><time>2026-04-11T16:38:22Z</time></trkpt><trkpt lat="43.25124550465409" lon="12.252288601100217"><ele>630.0</ele><time>2026-04-11T16:38:23Z</time></trkpt><trkpt lat="43.25121370210938" lon="12.252108441660988"><ele>630.0</ele><time>2026-04-11T16:38:24Z</time></trkpt><trkpt lat="43.251232625388276" lon="12.251935417513716"><ele>630.0</ele><time>2026-04-11T16:38:25Z</time></trkpt><trkpt lat="43.251289698932105" lon="12.251801417023408"><ele>630.0</ele><time>2026-04-11T16:38:26Z</time></trkpt><trkpt lat="43.25134231640182" lon="12.251646094796115"><ele>630.0</ele><time>2026-04-11T16:38:27Z</time></trkpt><trkpt lat="43.2514006640061" lon="12.251511956143446"><ele>632.25</ele><time>2026-04-11T16:38:28Z</time></trkpt><trkpt lat="43.25140562502516" lon="12.251357888172278"><ele>634.5</ele><time>2026-04-11T16:38:29Z</time></trkpt><trkpt lat="43.251356923927744" lon="12.251203675171835"><ele>636.75</ele><time>2026-04-11T16:38:30Z</time></trkpt><trkpt lat="43.25128906753496" lon="12.251077171207195"><ele>639.0</ele><time>2026-04-11T16:38:31Z</time></trkpt><trkpt lat="43.2511993163192" lon="12.250958275540867"><ele>639.0</ele><time>2026-04-11T16:38:32Z</time></trkpt><trkpt lat="43.2510943968591" lon="12.250825888202703"><ele>639.0</ele><time>2026-04-11T16:38:33Z</time></trkpt><trkpt lat="43.25098732544055" lon="12.250690142467779"><ele>639.0</ele><time>2026-04-11T16:38:34Z</time></trkpt><trkpt lat="43.250892889838134" lon="12.250550112337908"><ele>639.0</ele><time>2026-04-11T16:38:35Z</time></trkpt><trkpt lat="43.25080754379071" lon="12.250423695476094"><ele>642.75</ele><time>2026-04-11T16:38:36Z</time></trkpt><trkpt lat="43.250712886318425" lon="12.25031472654752"><ele>646.5</ele><time>2026-04-11T16:38:37Z</time></trkpt><trkpt lat="43.25059186608236" lon="12.250232462737772"><ele>650.25</ele><time>2026-04-11T16:38:38Z</time></trkpt><trkpt lat="43.25044211885892" lon="12.25018066067146"><ele>654.0</ele><time>2026-04-11T16:38:39Z</time></trkpt><trkpt lat="43.250277529169765" lon="12.250152532650736"><ele>654.0</ele><time>2026-04-11T16:38:40Z</time></trkpt><trkpt lat="43.25012137720115" lon="12.250126439682168"><ele>654.0</ele><time>2026-04-11T16:38:41Z</time></trkpt><trkpt lat="43.249981918886284" lon="12.250095962205336"><ele>654.0</ele><time>2026-04-11T16:38:42Z</time></trkpt><trkpt lat="43.249856616631206" lon="12.250040299026361"><ele>654.0</ele><time>2026-04-11T16:38:43Z</time></trkpt><trkpt lat="43.249738631718664" lon="12.249985497797077"><ele>652.25</ele><time>2026-04-11T16:38:44Z</time></trkpt><trkpt lat="43.24961324883929" lon="12.249911283962033"><ele>650.5</ele><time>2026-04-11T16:38:45Z</time></trkpt><trkpt lat="43.24953275386013" lon="12.249736230024391"><ele>648.75</ele><time>2026-04-11T16:38:46Z</time></trkpt><trkpt lat="43.24945686474314" lon="12.24954948069784"><ele>647.0</ele><time>2026-04-11T16:38:47Z</time></trkpt><trkpt lat="43.24935553115565" lon="12.249358584487892"><ele>652.0</ele><time>2026-04-11T16:38:48Z</time></trkpt><trkpt lat="43.24925874746013" lon="12.249180275811668"><ele>657.0</ele><time>2026-04-11T16:38:49Z</time></trkpt><trkpt lat="43.24913438314662" lon="12.249034102635653"><ele>662.0</ele><time>2026-04-11T16:38:50Z</time></trkpt><trkpt lat="43.24899136725714" lon="12.248922728988623"><ele>660.25</ele><time>2026-04-11T16:38:51Z</time></trkpt><trkpt lat="43.248851998084774" lon="12.24881276963315"><ele>658.5</ele><time>2026-04-11T16:38:52Z</time></trkpt><trkpt lat="43.24872972132152" lon="12.248707347261542"><ele>656.75</ele><time>2026-04-11T16:38:53Z</time></trkpt><trkpt lat="43.248618108657" lon="12.24859599050931"><ele>655.0</ele><time>2026-04-11T16:38:54Z</time></trkpt><trkpt lat="43.24851285486238" lon="12.24848107680075"><ele>655.0</ele><time>2026-04-11T16:38:55Z</time></trkpt><trkpt lat="43.24842037241469" lon="12.248363410144508"><ele>655.0</ele><time>2026-04-11T16:38:56Z</time></trkpt><trkpt lat="43.24836050102631" lon="12.24820121746793"><ele>655.0</ele><time>2026-04-11T16:38:57Z</time></trkpt><trkpt lat="43.24831544992724" lon="12.248007328080597"><ele>655.0</ele><time>2026-04-11T16:38:58Z</time></trkpt><trkpt lat="43.24828150823946" lon="12.247781309127646"><ele>658.0</ele><time>2026-04-11T16:38:59Z</time></trkpt><trkpt lat="43.24825025005587" lon="12.247537769612405"><ele>661.0</ele><time>2026-04-11T16:39:00Z</time></trkpt><trkpt lat="43.24822333917809" lon="12.24729393104458"><ele>664.0</ele><time>2026-04-11T16:39:01Z</time></trkpt><trkpt lat="43.248200345056006" lon="12.247092492027297"><ele>666.75</ele><time>2026-04-11T16:39:02Z</time></trkpt><trkpt lat="43.248166418975316" lon="12.246892376593717"><ele>669.5</ele><time>2026-04-11T16:39:03Z</time></trkpt><trkpt lat="43.248147106517926" lon="12.24670741907765"><ele>672.25</ele><time>2026-04-11T16:39:04Z</time></trkpt><trkpt lat="43.248117660512705" lon="12.246534481477276"><ele>675.0</ele><time>2026-04-11T16:39:05Z</time></trkpt><trkpt lat="43.24806601428602" lon="12.246364206552288"><ele>676.0</ele><time>2026-04-11T16:39:06Z</time></trkpt><trkpt lat="43.24797433207231" lon="12.246212455191325"><ele>677.0</ele><time>2026-04-11T16:39:07Z</time></trkpt><trkpt lat="43.247827661263884" lon="12.246089237190866"><ele>678.0</ele><time>2026-04-11T16:39:08Z</time></trkpt><trkpt lat="43.24768298224519" lon="12.245968653469543"><ele>678.0</ele><time>2026-04-11T16:39:09Z</time></trkpt><trkpt lat="43.24755644888454" lon="12.245867446019139"><ele>678.0</ele><time>2026-04-11T16:39:10Z</time></trkpt><trkpt lat="43.247426397457325" lon="12.245808460301202"><ele>678.0</ele><time>2026-04-11T16:39:11Z</time></trkpt><trkpt lat="43.2472995224265" lon="12.245771093986656"><ele>678.0</ele><time>2026-04-11T16:39:12Z</time></trkpt><trkpt lat="43.24715710175633" lon="12.245775548833294"><ele>676.75</ele><time>2026-04-11T16:39:13Z</time></trkpt><trkpt lat="43.24702591642874" lon="12.245883651906999"><ele>675.5</ele><time>2026-04-11T16:39:14Z</time></trkpt><trkpt lat="43.24690669659056" lon="12.245970477769779"><ele>674.25</ele><time>2026-04-11T16:39:15Z</time></trkpt><trkpt lat="43.246780048010294" lon="12.246018446308154"><ele>673.0</ele><time>2026-04-11T16:39:16Z</time></trkpt><trkpt lat="43.24666999476983" lon="12.24601140160194"><ele>673.0</ele><time>2026-04-11T16:39:17Z</time></trkpt><trkpt lat="43.24655896321299" lon="12.245960505764671"><ele>673.0</ele><time>2026-04-11T16:39:18Z</time></trkpt><trkpt lat="43.24644834219193" lon="12.245821783859487"><ele>673.0</ele><time>2026-04-11T16:39:19Z</time></trkpt><trkpt lat="43.2463275956795" lon="12.245655863253354"><ele>673.0</ele><time>2026-04-11T16:39:20Z</time></trkpt><trkpt lat="43.24618790542288" lon="12.24548956027701"><ele>675.75</ele><time>2026-04-11T16:39:21Z</time></trkpt><trkpt lat="43.24603434564535" lon="12.245417858830496"><ele>678.5</ele><time>2026-04-11T16:39:22Z</time></trkpt><trkpt lat="43.245904818224666" lon="12.245332438240487"><ele>681.25</ele><time>2026-04-11T16:39:23Z</time></trkpt><trkpt lat="43.24578499421046" lon="12.245250047396928"><ele>684.0</ele><time>2026-04-11T16:39:24Z</time></trkpt><trkpt lat="43.245690141319876" lon="12.245110693641998"><ele>686.25</ele><time>2026-04-11T16:39:25Z</time></trkpt><trkpt lat="43.24559743801893" lon="12.244925351520472"><ele>688.5</ele><time>2026-04-11T16:39:26Z</time></trkpt><trkpt lat="43.245509140395804" lon="12.244775103362137"><ele>690.75</ele><time>2026-04-11T16:39:27Z</time></trkpt><trkpt lat="43.24543502459874" lon="12.244622153265434"><ele>693.0</ele><time>2026-04-11T16:39:28Z</time></trkpt><trkpt lat="43.245361733199196" lon="12.244481612971695"><ele>693.0</ele><time>2026-04-11T16:39:29Z</time></trkpt><trkpt lat="43.24528225264236" lon="12.244364869525619"><ele>693.0</ele><time>2026-04-11T16:39:30Z</time></trkpt><trkpt lat="43.245182963461644" lon="12.2442746091475"><ele>693.0</ele><time>2026-04-11T16:39:31Z</time></trkpt><trkpt lat="43.245068994168605" lon="12.244221653947005"><ele>693.0</ele><time>2026-04-11T16:39:32Z</time></trkpt><trkpt lat="43.24495073452251" lon="12.244189623166978"><ele>693.0</ele><time>2026-04-11T16:39:33Z</time></trkpt><trkpt lat="43.24482009411845" lon="12.244231621211753"><ele>693.0</ele><time>2026-04-11T16:39:34Z</time></trkpt><trkpt lat="43.2447019997894" lon="12.244342354596478"><ele>693.0</ele><time>2026-04-11T16:39:35Z</time></trkpt><trkpt lat="43.24459392137767" lon="12.244454741680237"><ele>693.0</ele><time>2026-04-11T16:39:36Z</time></trkpt><trkpt lat="43.2444896370813" lon="12.24455314025868"><ele>694.75</ele><time>2026-04-11T16:39:37Z</time></trkpt><trkpt lat="43.244406357745554" lon="12.244656097137879"><ele>696.5</ele><time>2026-04-11T16:39:38Z</time></trkpt><trkpt lat="43.24431931069287" lon="12.244743298517635"><ele>698.25</ele><time>2026-04-11T16:39:39Z</time></trkpt><trkpt lat="43.24421381216562" lon="12.24481349950407"><ele>700.0</ele><time>2026-04-11T16:39:40Z</time></trkpt><trkpt lat="43.24408308318903" lon="12.244791540525986"><ele>696.75</ele><time>2026-04-11T16:39:41Z</time></trkpt><trkpt lat="43.24395523461581" lon="12.244729149137763"><ele>693.5</ele><time>2026-04-11T16:39:42Z</time></trkpt><trkpt lat="43.24381614226777" lon="12.244660845909264"><ele>690.25</ele><time>2026-04-11T16:39:43Z</time></trkpt><trkpt lat="43.24369774787566" lon="12.244546465620157"><ele>687.0</ele><time>2026-04-11T16:39:44Z</time></trkpt><trkpt lat="43.24358689325598" lon="12.24441821191707"><ele>687.0</ele><time>2026-04-11T16:39:45Z</time></trkpt><trkpt lat="43.24347695101567" lon="12.244258109650273"><ele>687.0</ele><time>2026-04-11T16:39:46Z</time></trkpt><trkpt lat="43.243398009582904" lon="12.24406450599932"><ele>687.0</ele><time>2026-04-11T16:39:47Z</time></trkpt><trkpt lat="43.243342870093194" lon="12.243865095720729"><ele>686.75</ele><time>2026-04-11T16:39:48Z</time></trkpt><trkpt lat="43.24328794379322" lon="12.243678944808687"><ele>686.5</ele><time>2026-04-11T16:39:49Z</time></trkpt><trkpt lat="43.2432290207394" lon="12.243509950461286"><ele>686.25</ele><time>2026-04-11T16:39:50Z</time></trkpt><trkpt lat="43.24317105997393" lon="12.243352221456119"><ele>686.0</ele><time>2026-04-11T16:39:51Z</time></trkpt><trkpt lat="43.24309652862161" lon="12.243213234955135"><ele>691.0</ele><time>2026-04-11T16:39:52Z</time></trkpt><trkpt lat="43.24299278957658" lon="12.24310028714294"><ele>696.0</ele><time>2026-04-11T16:39:53Z</time></trkpt><trkpt lat="43.24285692479277" lon="12.243027830865875"><ele>701.0</ele><time>2026-04-11T16:39:54Z</time></trkpt><trkpt lat="43.24270793457589" lon="12.242991160770698"><ele>706.0</ele><time>2026-04-11T16:39:55Z</time></trkpt><trkpt lat="43.242565403054854" lon="12.242943593791882"><ele>706.0</ele><time>2026-04-11T16:39:56Z</time></trkpt><trkpt lat="43.24242048439504" lon="12.242893557575488"><ele>706.0</ele><time>2026-04-11T16:39:57Z</time></trkpt><trkpt lat="43.24228661976314" lon="12.242787809107128"><ele>706.0</ele><time>2026-04-11T16:39:58Z</time></trkpt><trkpt lat="43.24215685144796" lon="12.242686147232003"><ele>703.25</ele><time>2026-04-11T16:39:59Z</time></trkpt><trkpt lat="43.24205038222509" lon="12.242571158580455"><ele>700.5</ele><time>2026-04-11T16:40:00Z</time></trkpt><trkpt lat="43.241941983542596" lon="12.242480920140645"><ele>697.75</ele><time>2026-04-11T16:40:01Z</time></trkpt><trkpt lat="43.24183777976679" lon="12.242375246257456"><ele>695.0</ele><time>2026-04-11T16:40:02Z</time></trkpt><trkpt lat="43.24171191318715" lon="12.242312585192943"><ele>696.0</ele><time>2026-04-11T16:40:03Z</time></trkpt><trkpt lat="43.24157739019466" lon="12.242291579625867"><ele>697.0</ele><time>2026-04-11T16:40:04Z</time></trkpt><trkpt lat="43.2414407694663" lon="12.242333399604972"><ele>698.0</ele><time>2026-04-11T16:40:05Z</time></trkpt><trkpt lat="43.24131744207527" lon="12.24239069208774"><ele>699.0</ele><time>2026-04-11T16:40:06Z</time></trkpt><trkpt lat="43.24120233544458" lon="12.24242370429898"><ele>699.0</ele><time>2026-04-11T16:40:07Z</time></trkpt><trkpt lat="43.24109303856889" lon="12.24246569352361"><ele>699.0</ele><time>2026-04-11T16:40:08Z</time></trkpt><trkpt lat="43.24099360559076" lon="12.242493766082251"><ele>699.0</ele><time>2026-04-11T16:40:09Z</time></trkpt><trkpt lat="43.24089237211829" lon="12.24247536879238"><ele>699.0</ele><time>2026-04-11T16:40:10Z</time></trkpt><trkpt lat="43.24081322181203" lon="12.242450221887982"><ele>699.0</ele><time>2026-04-11T16:40:11Z</time></trkpt><trkpt lat="43.24070441022752" lon="12.242403251689664"><ele>698.6</ele><time>2026-04-11T16:40:13Z</time></trkpt><trkpt lat="43.24062370461728" lon="12.242367365596342"><ele>698.2</ele><time>2026-04-11T16:40:15Z</time></trkpt><trkpt lat="43.24056470196163" lon="12.242314900711843"><ele>697.8000000000001</ele><time>2026-04-11T16:40:18Z</time></trkpt><trkpt lat="43.24050392246697" lon="12.242255448812914"><ele>697.4000000000001</ele><time>2026-04-11T16:40:56Z</time></trkpt><trkpt lat="43.24043856543099" lon="12.242259122839155"><ele>697.0</ele><time>2026-04-11T16:40:58Z</time></trkpt><trkpt lat="43.24041366583479" lon="12.242019340325493"><ele>696.2</ele><time>2026-04-11T16:41:00Z</time></trkpt><trkpt lat="43.240394229512816" lon="12.241904748147446"><ele>695.4000000000001</ele><time>2026-04-11T16:41:01Z</time></trkpt><trkpt lat="43.240410974659746" lon="12.241774603964455"><ele>694.5999999999999</ele><time>2026-04-11T16:41:02Z</time></trkpt><trkpt lat="43.240453894443526" lon="12.241654379455689"><ele>693.8</ele><time>2026-04-11T16:41:03Z</time></trkpt><trkpt lat="43.240478433427505" lon="12.241509817759617"><ele>693.0</ele><time>2026-04-11T16:41:04Z</time></trkpt><trkpt lat="43.240518779175254" lon="12.241367842197958"><ele>693.2</ele><time>2026-04-11T16:41:05Z</time></trkpt><trkpt lat="43.24055582930754" lon="12.24122903210269"><ele>693.4</ele><time>2026-04-11T16:41:06Z</time></trkpt><trkpt lat="43.24060099586814" lon="12.241094334593322"><ele>693.6</ele><time>2026-04-11T16:41:07Z</time></trkpt><trkpt lat="43.24064952243397" lon="12.240961194331769"><ele>693.8000000000001</ele><time>2026-04-11T16:41:08Z</time></trkpt><trkpt lat="43.24068914053454" lon="12.240814655095326"><ele>694.0</ele><time>2026-04-11T16:41:09Z</time></trkpt><trkpt lat="43.24072637392559" lon="12.240664128053758"><ele>690.25</ele><time>2026-04-11T16:41:10Z</time></trkpt><trkpt lat="43.2407666984482" lon="12.240511887260322"><ele>686.5</ele><time>2026-04-11T16:41:11Z</time></trkpt><trkpt lat="43.24080516289903" lon="12.240371784822132"><ele>682.75</ele><time>2026-04-11T16:41:12Z</time></trkpt><trkpt lat="43.24085571419259" lon="12.240229170179454"><ele>679.0</ele><time>2026-04-11T16:41:13Z</time></trkpt><trkpt lat="43.24092464617654" lon="12.240104828132614"><ele>679.0</ele><time>2026-04-11T16:41:14Z</time></trkpt><trkpt lat="43.24101544395146" lon="12.240009999472932"><ele>679.0</ele><time>2026-04-11T16:41:15Z</time></trkpt><trkpt lat="43.24111291225832" lon="12.239927736248008"><ele>679.0</ele><time>2026-04-11T16:41:16Z</time></trkpt><trkpt lat="43.241211935766835" lon="12.239848888022806"><ele>679.0</ele><time>2026-04-11T16:41:17Z</time></trkpt><trkpt lat="43.24131218716933" lon="12.239766664166238"><ele>678.5</ele><time>2026-04-11T16:41:18Z</time></trkpt><trkpt lat="43.241414361231406" lon="12.2396916281768"><ele>678.0</ele><time>2026-04-11T16:41:19Z</time></trkpt><trkpt lat="43.24151163837172" lon="12.239607940602461"><ele>677.5</ele><time>2026-04-11T16:41:20Z</time></trkpt><trkpt lat="43.241609326276986" lon="12.239527566402748"><ele>677.0</ele><time>2026-04-11T16:41:21Z</time></trkpt><trkpt lat="43.24170649728257" lon="12.239443608809836"><ele>677.0</ele><time>2026-04-11T16:41:22Z</time></trkpt><trkpt lat="43.241801692120376" lon="12.239357317856102"><ele>677.0</ele><time>2026-04-11T16:41:23Z</time></trkpt><trkpt lat="43.24189530200854" lon="12.239264691544108"><ele>677.0</ele><time>2026-04-11T16:41:24Z</time></trkpt><trkpt lat="43.241990925042636" lon="12.239181065610103"><ele>677.0</ele><time>2026-04-11T16:41:25Z</time></trkpt><trkpt lat="43.242097771987325" lon="12.239129814320659"><ele>677.0</ele><time>2026-04-11T16:41:26Z</time></trkpt><trkpt lat="43.24221688283736" lon="12.239110146798481"><ele>677.0</ele><time>2026-04-11T16:41:27Z</time></trkpt><trkpt lat="43.24233931906769" lon="12.239131057504675"><ele>677.0</ele><time>2026-04-11T16:41:28Z</time></trkpt><trkpt lat="43.24246232725701" lon="12.239199356294321"><ele>677.0</ele><time>2026-04-11T16:41:29Z</time></trkpt><trkpt lat="43.242607709036186" lon="12.239254634805567"><ele>677.0</ele><time>2026-04-11T16:41:30Z</time></trkpt><trkpt lat="43.24275232999248" lon="12.239332397829035"><ele>677.0</ele><time>2026-04-11T16:41:31Z</time></trkpt><trkpt lat="43.242901349728115" lon="12.239371297141387"><ele>677.0</ele><time>2026-04-11T16:41:32Z</time></trkpt><trkpt lat="43.243057620517725" lon="12.239379034081901"><ele>674.3333333333333</ele><time>2026-04-11T16:41:33Z</time></trkpt><trkpt lat="43.24321181142061" lon="12.239351823107498"><ele>671.6666666666666</ele><time>2026-04-11T16:41:34Z</time></trkpt><trkpt lat="43.24336485318723" lon="12.239318065935468"><ele>669.0</ele><time>2026-04-11T16:41:35Z</time></trkpt><trkpt lat="43.243521986896376" lon="12.239289840713584"><ele>669.0</ele><time>2026-04-11T16:41:36Z</time></trkpt><trkpt lat="43.24367723172728" lon="12.239255630659006"><ele>669.0</ele><time>2026-04-11T16:41:37Z</time></trkpt><trkpt lat="43.243832951521675" lon="12.239233763774278"><ele>669.0</ele><time>2026-04-11T16:41:38Z</time></trkpt><trkpt lat="43.24398511292595" lon="12.239217351582177"><ele>668.0</ele><time>2026-04-11T16:41:39Z</time></trkpt><trkpt lat="43.24412204133307" lon="12.23920290924104"><ele>667.0</ele><time>2026-04-11T16:41:40Z</time></trkpt><trkpt lat="43.24422018591924" lon="12.239245145296326"><ele>666.0</ele><time>2026-04-11T16:41:41Z</time></trkpt><trkpt lat="43.24430361947762" lon="12.239311266822378"><ele>665.0</ele><time>2026-04-11T16:41:42Z</time></trkpt><trkpt lat="43.24438565058709" lon="12.239411425163196"><ele>664.0</ele><time>2026-04-11T16:41:43Z</time></trkpt><trkpt lat="43.24447716983289" lon="12.239500456448022"><ele>664.0</ele><time>2026-04-11T16:41:44Z</time></trkpt><trkpt lat="43.24458410984094" lon="12.239551055733513"><ele>664.0</ele><time>2026-04-11T16:41:45Z</time></trkpt><trkpt lat="43.244685710930874" lon="12.239523589508623"><ele>664.0</ele><time>2026-04-11T16:41:46Z</time></trkpt><trkpt lat="43.24478515950295" lon="12.239436941915432"><ele>664.0</ele><time>2026-04-11T16:41:47Z</time></trkpt><trkpt lat="43.24486895885519" lon="12.239326510031706"><ele>662.75</ele><time>2026-04-11T16:41:48Z</time></trkpt><trkpt lat="43.24493800491952" lon="12.239199329182915"><ele>661.5</ele><time>2026-04-11T16:41:49Z</time></trkpt><trkpt lat="43.24501471202422" lon="12.239098140474937"><ele>660.25</ele><time>2026-04-11T16:41:50Z</time></trkpt><trkpt lat="43.245119247799934" lon="12.23903515070156"><ele>659.0</ele><time>2026-04-11T16:41:51Z</time></trkpt><trkpt lat="43.24523842622834" lon="12.239002421466667"><ele>659.0</ele><time>2026-04-11T16:41:52Z</time></trkpt><trkpt lat="43.245357067821935" lon="12.238977110747546"><ele>659.0</ele><time>2026-04-11T16:41:53Z</time></trkpt><trkpt lat="43.24547473975138" lon="12.238972301951186"><ele>659.0</ele><time>2026-04-11T16:41:54Z</time></trkpt><trkpt lat="43.2455909514205" lon="12.238986144275511"><ele>659.0</ele><time>2026-04-11T16:41:55Z</time></trkpt><trkpt lat="43.245696641362656" lon="12.239047107673544"><ele>658.0</ele><time>2026-04-11T16:41:56Z</time></trkpt><trkpt lat="43.245796089496295" lon="12.239156114752372"><ele>657.0</ele><time>2026-04-11T16:41:57Z</time></trkpt><trkpt lat="43.24588863394434" lon="12.239256278141143"><ele>656.0</ele><time>2026-04-11T16:41:58Z</time></trkpt><trkpt lat="43.24598886757299" lon="12.239313976482213"><ele>655.0</ele><time>2026-04-11T16:41:59Z</time></trkpt><trkpt lat="43.24610227985784" lon="12.239308630685125"><ele>655.0</ele><time>2026-04-11T16:42:00Z</time></trkpt><trkpt lat="43.246207251390274" lon="12.239229406863716"><ele>655.0</ele><time>2026-04-11T16:42:01Z</time></trkpt><trkpt lat="43.246291817893535" lon="12.239094829448652"><ele>655.0</ele><time>2026-04-11T16:42:02Z</time></trkpt><trkpt lat="43.246358132375846" lon="12.23892126774946"><ele>655.0</ele><time>2026-04-11T16:42:03Z</time></trkpt><trkpt lat="43.246431684593055" lon="12.238738369021966"><ele>652.25</ele><time>2026-04-11T16:42:04Z</time></trkpt><trkpt lat="43.246522987452224" lon="12.238591422996645"><ele>649.5</ele><time>2026-04-11T16:42:05Z</time></trkpt><trkpt lat="43.24662733447809" lon="12.238457772016886"><ele>646.75</ele><time>2026-04-11T16:42:06Z</time></trkpt><trkpt lat="43.24672220040599" lon="12.238320368724269"><ele>644.0</ele><time>2026-04-11T16:42:07Z</time></trkpt><trkpt lat="43.24680487468032" lon="12.238186019097467"><ele>640.25</ele><time>2026-04-11T16:42:08Z</time></trkpt><trkpt lat="43.2468807374821" lon="12.238051850285993"><ele>636.5</ele><time>2026-04-11T16:42:09Z</time></trkpt><trkpt lat="43.246957356149636" lon="12.237917937661651"><ele>632.75</ele><time>2026-04-11T16:42:10Z</time></trkpt><trkpt lat="43.24702981767666" lon="12.237787515596425"><ele>629.0</ele><time>2026-04-11T16:42:11Z</time></trkpt><trkpt lat="43.247084573202386" lon="12.237650522613084"><ele>629.0</ele><time>2026-04-11T16:42:12Z</time></trkpt><trkpt lat="43.247143955820356" lon="12.237515680519902"><ele>629.0</ele><time>2026-04-11T16:42:13Z</time></trkpt><trkpt lat="43.24719382283344" lon="12.237394094853434"><ele>629.0</ele><time>2026-04-11T16:42:14Z</time></trkpt><trkpt lat="43.24723950301649" lon="12.237275068185388"><ele>629.0</ele><time>2026-04-11T16:42:15Z</time></trkpt><trkpt lat="43.24728531267481" lon="12.237158063523589"><ele>629.0</ele><time>2026-04-11T16:42:16Z</time></trkpt><trkpt lat="43.24733049405086" lon="12.237039225949061"><ele>630.1666666666666</ele><time>2026-04-11T16:42:17Z</time></trkpt><trkpt lat="43.24737540697817" lon="12.23693319043003"><ele>631.3333333333333</ele><time>2026-04-11T16:42:18Z</time></trkpt><trkpt lat="43.24742136607428" lon="12.236846135026722"><ele>632.5</ele><time>2026-04-11T16:42:19Z</time></trkpt><trkpt lat="43.247469087671305" lon="12.236766554955851"><ele>633.6666666666666</ele><time>2026-04-11T16:42:20Z</time></trkpt><trkpt lat="43.24750851892969" lon="12.236684927252202"><ele>634.8333333333334</ele><time>2026-04-11T16:42:21Z</time></trkpt><trkpt lat="43.247533333681986" lon="12.236590505667303"><ele>636.0</ele><time>2026-04-11T16:42:22Z</time></trkpt><trkpt lat="43.24755143413992" lon="12.236487135070776"><ele>634.2</ele><time>2026-04-11T16:42:23Z</time></trkpt><trkpt lat="43.247577662286574" lon="12.236369578944542"><ele>632.4000000000001</ele><time>2026-04-11T16:42:24Z</time></trkpt><trkpt lat="43.247616438827954" lon="12.236243996510002"><ele>630.6</ele><time>2026-04-11T16:42:25Z</time></trkpt><trkpt lat="43.24767787977408" lon="12.236127940604025"><ele>628.8000000000001</ele><time>2026-04-11T16:42:26Z</time></trkpt><trkpt lat="43.247746757389734" lon="12.236016358449012"><ele>627.0</ele><time>2026-04-11T16:42:27Z</time></trkpt><trkpt lat="43.24781883690491" lon="12.23592629145981"><ele>627.0</ele><time>2026-04-11T16:42:28Z</time></trkpt><trkpt lat="43.247893945809096" lon="12.235857008432621"><ele>627.0</ele><time>2026-04-11T16:42:29Z</time></trkpt><trkpt lat="43.24795858400555" lon="12.235790072021945"><ele>627.0</ele><time>2026-04-11T16:42:30Z</time></trkpt><trkpt lat="43.24801808774489" lon="12.235732126052596"><ele>627.0</ele><time>2026-04-11T16:42:31Z</time></trkpt><trkpt lat="43.248077950653034" lon="12.23569064945339"><ele>627.0</ele><time>2026-04-11T16:42:32Z</time></trkpt><trkpt lat="43.248141511428486" lon="12.235660700014646"><ele>627.0</ele><time>2026-04-11T16:42:33Z</time></trkpt><trkpt lat="43.24824184617201" lon="12.235591605511383"><ele>629.1666666666666</ele><time>2026-04-11T16:42:35Z</time></trkpt><trkpt lat="43.24831675877237" lon="12.235665642542767"><ele>631.3333333333334</ele><time>2026-04-11T16:42:36Z</time></trkpt><trkpt lat="43.24842604694625" lon="12.235710518000188"><ele>633.5</ele><time>2026-04-11T16:42:38Z</time></trkpt><trkpt lat="43.248479881032935" lon="12.235801208733669"><ele>635.6666666666667</ele><time>2026-04-11T16:42:39Z</time></trkpt><trkpt lat="43.248535393215874" lon="12.235860190854007"><ele>637.8333333333334</ele><time>2026-04-11T16:42:40Z</time></trkpt><trkpt lat="43.2485874302408" lon="12.23591065572059"><ele>640.0</ele><time>2026-04-11T16:42:41Z</time></trkpt><trkpt lat="43.248683692723766" lon="12.235986635589699"><ele>640.0</ele><time>2026-04-11T16:42:43Z</time></trkpt><trkpt lat="43.248790336682035" lon="12.236040228726653"><ele>640.0</ele><time>2026-04-11T16:42:45Z</time></trkpt><trkpt lat="43.24884794613252" lon="12.236078483902062"><ele>640.0</ele><time>2026-04-11T16:42:46Z</time></trkpt><trkpt lat="43.24890018019742" lon="12.236131916201304"><ele>640.0</ele><time>2026-04-11T16:42:47Z</time></trkpt><trkpt lat="43.2489494796314" lon="12.236202262375102"><ele>640.0</ele><time>2026-04-11T16:42:48Z</time></trkpt><trkpt lat="43.24899997659701" lon="12.236279793570814"><ele>640.0</ele><time>2026-04-11T16:42:49Z</time></trkpt><trkpt lat="43.24906810690713" lon="12.236340732748422"><ele>637.5</ele><time>2026-04-11T16:42:50Z</time></trkpt><trkpt lat="43.24913458961823" lon="12.236376992850786"><ele>635.0</ele><time>2026-04-11T16:42:51Z</time></trkpt><trkpt lat="43.24920593279254" lon="12.236379232464724"><ele>632.5</ele><time>2026-04-11T16:42:52Z</time></trkpt><trkpt lat="43.249284381521825" lon="12.236384435574521"><ele>630.0</ele><time>2026-04-11T16:42:53Z</time></trkpt><trkpt lat="43.24936689184091" lon="12.236337438355593"><ele>627.5</ele><time>2026-04-11T16:42:54Z</time></trkpt><trkpt lat="43.24943097750023" lon="12.23623722145058"><ele>625.0</ele><time>2026-04-11T16:42:55Z</time></trkpt><trkpt lat="43.2495019183199" lon="12.236158101517843"><ele>625.0</ele><time>2026-04-11T16:42:56Z</time></trkpt><trkpt lat="43.249566813200744" lon="12.2360925782627"><ele>625.0</ele><time>2026-04-11T16:42:57Z</time></trkpt><trkpt lat="43.24965491552297" lon="12.236053021204945"><ele>625.0</ele><time>2026-04-11T16:42:58Z</time></trkpt><trkpt lat="43.24974588358706" lon="12.236031984961171"><ele>625.0</ele><time>2026-04-11T16:42:59Z</time></trkpt><trkpt lat="43.24983994932194" lon="12.236010290673592"><ele>625.0</ele><time>2026-04-11T16:43:00Z</time></trkpt><trkpt lat="43.249934822811355" lon="12.236001869994652"><ele>622.6</ele><time>2026-04-11T16:43:01Z</time></trkpt><trkpt lat="43.250020955493376" lon="12.236008577856525"><ele>620.2</ele><time>2026-04-11T16:43:02Z</time></trkpt><trkpt lat="43.25010602542551" lon="12.236025624155687"><ele>617.8</ele><time>2026-04-11T16:43:03Z</time></trkpt><trkpt lat="43.25018444440165" lon="12.236099740161562"><ele>615.4</ele><time>2026-04-11T16:43:04Z</time></trkpt><trkpt lat="43.250257048992715" lon="12.236186052160663"><ele>613.0</ele><time>2026-04-11T16:43:05Z</time></trkpt><trkpt lat="43.25033700231385" lon="12.236250036681767"><ele>613.0</ele><time>2026-04-11T16:43:06Z</time></trkpt><trkpt lat="43.25042116552573" lon="12.236266358537092"><ele>613.0</ele><time>2026-04-11T16:43:07Z</time></trkpt><trkpt lat="43.25051095743688" lon="12.236244388804392"><ele>613.0</ele><time>2026-04-11T16:43:08Z</time></trkpt><trkpt lat="43.25059947510844" lon="12.236222414378323"><ele>613.0</ele><time>2026-04-11T16:43:09Z</time></trkpt><trkpt lat="43.25067727159261" lon="12.236202429424747"><ele>613.0</ele><time>2026-04-11T16:43:10Z</time></trkpt><trkpt lat="43.25074636816969" lon="12.236166760557449"><ele>613.0</ele><time>2026-04-11T16:43:11Z</time></trkpt><trkpt lat="43.250804629275265" lon="12.236121027715402"><ele>611.8333333333334</ele><time>2026-04-11T16:43:12Z</time></trkpt><trkpt lat="43.25086682698726" lon="12.23607439361069"><ele>610.6666666666667</ele><time>2026-04-11T16:43:13Z</time></trkpt><trkpt lat="43.25091664171994" lon="12.235984360300726"><ele>609.5</ele><time>2026-04-11T16:43:14Z</time></trkpt><trkpt lat="43.25095548405473" lon="12.235864561991935"><ele>608.3333333333334</ele><time>2026-04-11T16:43:15Z</time></trkpt><trkpt lat="43.250986978716725" lon="12.2357545133004"><ele>607.1666666666666</ele><time>2026-04-11T16:43:16Z</time></trkpt><trkpt lat="43.25103273000238" lon="12.235672654949068"><ele>606.0</ele><time>2026-04-11T16:43:17Z</time></trkpt><trkpt lat="43.251087723784494" lon="12.235602278774204"><ele>602.8</ele><time>2026-04-11T16:43:18Z</time></trkpt><trkpt lat="43.25116083257639" lon="12.235555698307385"><ele>599.6</ele><time>2026-04-11T16:43:19Z</time></trkpt><trkpt lat="43.251244081271935" lon="12.235503675863233"><ele>596.4</ele><time>2026-04-11T16:43:20Z</time></trkpt><trkpt lat="43.25135492027192" lon="12.235583366485546"><ele>593.2</ele><time>2026-04-11T16:43:21Z</time></trkpt><trkpt lat="43.25144111992007" lon="12.235581953553803"><ele>590.0</ele><time>2026-04-11T16:43:22Z</time></trkpt><trkpt lat="43.251519135184" lon="12.235575171759956"><ele>589.6666666666666</ele><time>2026-04-11T16:43:23Z</time></trkpt><trkpt lat="43.25163511218835" lon="12.235582788925099"><ele>589.3333333333333</ele><time>2026-04-11T16:43:25Z</time></trkpt><trkpt lat="43.2517246686693" lon="12.235585045433767"><ele>589.0</ele><time>2026-04-11T16:43:27Z</time></trkpt><trkpt lat="43.25178667120698" lon="12.235602542603631"><ele>588.6666666666666</ele><time>2026-04-11T16:43:29Z</time></trkpt><trkpt lat="43.25185740260717" lon="12.235632946317471"><ele>588.3333333333334</ele><time>2026-04-11T16:43:33Z</time></trkpt><trkpt lat="43.25191406351767" lon="12.235574085305451"><ele>588.0</ele><time>2026-04-11T16:43:35Z</time></trkpt><trkpt lat="43.25194956732235" lon="12.23565167326362"><ele>602.0</ele><time>2026-04-11T16:43:38Z</time></trkpt></trkseg></trk></gpx>